<?xml version='1.0' encoding='UTF-8'?><gpx version="1.1" creator="JPX - https://github.com/jenetics/jpx" xmlns="http://www.topografix.com/GPX/1/1"><trk><trkseg><trkpt lat="43.5715831" lon="10.3165016"><ele>1.9999999999999998</ele><time>2026-05-03T06:11:24.307Z</time></trkpt><trkpt lat="43.5715079" lon="10.3165309"><ele>2.0</ele><time>2026-05-03T06:11:31.322Z</time></trkpt><trkpt lat="43.5714814" lon="10.3166198"><ele>2.0</ele><time>2026-05-03T06:11:37.325Z</time></trkpt><trkpt lat="43.571494" lon="10.3167059"><ele>2.0</ele><time>2026-05-03T06:11:47.321Z</time></trkpt><trkpt lat="43.5714249" lon="10.316727"><ele>1.9999999999999998</ele><time>2026-05-03T06:11:56.339Z</time></trkpt><trkpt lat="43.5713573" lon="10.3167271"><ele>2.0</ele><time>2026-05-03T06:12:00.317Z</time></trkpt><trkpt lat="43.5710565" lon="10.316015"><ele>1.6666666666666665</ele><time>2026-05-03T06:12:10.339Z</time></trkpt><trkpt lat="43.5709015" lon="10.3157854"><ele>1.3333333333333333</ele><time>2026-05-03T06:12:11.333Z</time></trkpt><trkpt lat="43.5707862" lon="10.3156583"><ele>1.0</ele><time>2026-05-03T06:12:12.327Z</time></trkpt><trkpt lat="43.5706858" lon="10.3155792"><ele>0.8333333333333333</ele><time>2026-05-03T06:12:13.337Z</time></trkpt><trkpt lat="43.570602" lon="10.315537"><ele>0.6666666666666666</ele><time>2026-05-03T06:12:14.327Z</time></trkpt><trkpt lat="43.5705297" lon="10.3155238"><ele>0.5</ele><time>2026-05-03T06:12:15.324Z</time></trkpt><trkpt lat="43.5704549" lon="10.315532"><ele>0.3333333333333333</ele><time>2026-05-03T06:12:16.327Z</time></trkpt><trkpt lat="43.5703897" lon="10.3155641"><ele>0.16666666666666666</ele><time>2026-05-03T06:12:17.33Z</time></trkpt><trkpt lat="43.5703352" lon="10.3156109"><ele>0.0</ele><time>2026-05-03T06:12:18.324Z</time></trkpt><trkpt lat="43.5702698" lon="10.31575"><ele>0.25</ele><time>2026-05-03T06:12:20.328Z</time></trkpt><trkpt lat="43.5702778" lon="10.3158459"><ele>0.5</ele><time>2026-05-03T06:12:21.33Z</time></trkpt><trkpt lat="43.5703338" lon="10.316071"><ele>0.75</ele><time>2026-05-03T06:12:23.319Z</time></trkpt><trkpt lat="43.5703805" lon="10.3161839"><ele>1.0</ele><time>2026-05-03T06:12:24.32Z</time></trkpt><trkpt lat="43.5705362" lon="10.3163907"><ele>1.25</ele><time>2026-05-03T06:12:26.315Z</time></trkpt><trkpt lat="43.5706341" lon="10.3164718"><ele>1.5</ele><time>2026-05-03T06:12:27.315Z</time></trkpt><trkpt lat="43.5707332" lon="10.3165433"><ele>1.75</ele><time>2026-05-03T06:12:28.318Z</time></trkpt><trkpt lat="43.5708403" lon="10.3166066"><ele>2.0</ele><time>2026-05-03T06:12:29.319Z</time></trkpt><trkpt lat="43.5709459" lon="10.3166687"><ele>2.0</ele><time>2026-05-03T06:12:30.328Z</time></trkpt><trkpt lat="43.5710434" lon="10.3167402"><ele>2.0</ele><time>2026-05-03T06:12:31.314Z</time></trkpt><trkpt lat="43.5711247" lon="10.3168223"><ele>2.0</ele><time>2026-05-03T06:12:32.319Z</time></trkpt><trkpt lat="43.5711893" lon="10.3169132"><ele>2.0</ele><time>2026-05-03T06:12:33.325Z</time></trkpt><trkpt lat="43.5712336" lon="10.3170111"><ele>2.0</ele><time>2026-05-03T06:12:34.326Z</time></trkpt><trkpt lat="43.5712583" lon="10.3171192"><ele>2.25</ele><time>2026-05-03T06:12:35.327Z</time></trkpt><trkpt lat="43.5712477" lon="10.3172569"><ele>2.5</ele><time>2026-05-03T06:12:36.317Z</time></trkpt><trkpt lat="43.5712198" lon="10.3174077"><ele>2.75</ele><time>2026-05-03T06:12:37.314Z</time></trkpt><trkpt lat="43.5711808" lon="10.3175704"><ele>3.0</ele><time>2026-05-03T06:12:38.313Z</time></trkpt><trkpt lat="43.5711362" lon="10.3177406"><ele>3.0</ele><time>2026-05-03T06:12:39.309Z</time></trkpt><trkpt lat="43.5710794" lon="10.3178644"><ele>3.0</ele><time>2026-05-03T06:12:41.31Z</time></trkpt><trkpt lat="43.5710134" lon="10.3180888"><ele>3.0</ele><time>2026-05-03T06:12:45.312Z</time></trkpt><trkpt lat="43.5708987" lon="10.3185484"><ele>3.0</ele><time>2026-05-03T06:12:46.315Z</time></trkpt><trkpt lat="43.5708122" lon="10.3188557"><ele>3.0</ele><time>2026-05-03T06:12:47.315Z</time></trkpt><trkpt lat="43.570745" lon="10.3190723"><ele>3.0</ele><time>2026-05-03T06:12:48.321Z</time></trkpt><trkpt lat="43.5706658" lon="10.3193007"><ele>3.333333333333333</ele><time>2026-05-03T06:12:49.318Z</time></trkpt><trkpt lat="43.57059" lon="10.3195113"><ele>3.6666666666666665</ele><time>2026-05-03T06:12:50.321Z</time></trkpt><trkpt lat="43.5705191" lon="10.31971"><ele>4.0</ele><time>2026-05-03T06:12:51.318Z</time></trkpt><trkpt lat="43.5704473" lon="10.3199"><ele>4.0</ele><time>2026-05-03T06:12:52.322Z</time></trkpt><trkpt lat="43.5703872" lon="10.320087"><ele>4.0</ele><time>2026-05-03T06:12:53.323Z</time></trkpt><trkpt lat="43.5703363" lon="10.3202587"><ele>4.0</ele><time>2026-05-03T06:12:54.321Z</time></trkpt><trkpt lat="43.5702869" lon="10.3204167"><ele>4.0</ele><time>2026-05-03T06:12:55.322Z</time></trkpt><trkpt lat="43.570245" lon="10.3205576"><ele>4.2</ele><time>2026-05-03T06:12:56.317Z</time></trkpt><trkpt lat="43.5701983" lon="10.3206893"><ele>4.4</ele><time>2026-05-03T06:12:57.322Z</time></trkpt><trkpt lat="43.5701477" lon="10.3208217"><ele>4.6</ele><time>2026-05-03T06:12:58.323Z</time></trkpt><trkpt lat="43.5700936" lon="10.320956"><ele>4.8</ele><time>2026-05-03T06:12:59.314Z</time></trkpt><trkpt lat="43.5700395" lon="10.3210941"><ele>5.0</ele><time>2026-05-03T06:13:00.312Z</time></trkpt><trkpt lat="43.5699847" lon="10.3212476"><ele>5.0</ele><time>2026-05-03T06:13:01.312Z</time></trkpt><trkpt lat="43.5699267" lon="10.3214119"><ele>5.0</ele><time>2026-05-03T06:13:02.34Z</time></trkpt><trkpt lat="43.5698707" lon="10.3215801"><ele>5.0</ele><time>2026-05-03T06:13:03.335Z</time></trkpt><trkpt lat="43.5698139" lon="10.3217477"><ele>5.0</ele><time>2026-05-03T06:13:04.339Z</time></trkpt><trkpt lat="43.56976" lon="10.3219115"><ele>5.0</ele><time>2026-05-03T06:13:05.331Z</time></trkpt><trkpt lat="43.5697072" lon="10.3220737"><ele>5.0</ele><time>2026-05-03T06:13:06.334Z</time></trkpt><trkpt lat="43.569659" lon="10.3222272"><ele>5.0</ele><time>2026-05-03T06:13:07.324Z</time></trkpt><trkpt lat="43.5696142" lon="10.322378"><ele>5.0</ele><time>2026-05-03T06:13:08.335Z</time></trkpt><trkpt lat="43.5695793" lon="10.3225245"><ele>4.8</ele><time>2026-05-03T06:13:09.329Z</time></trkpt><trkpt lat="43.5695446" lon="10.3226622"><ele>4.6</ele><time>2026-05-03T06:13:10.33Z</time></trkpt><trkpt lat="43.5695089" lon="10.3227889"><ele>4.4</ele><time>2026-05-03T06:13:11.332Z</time></trkpt><trkpt lat="43.5694725" lon="10.3229035"><ele>4.2</ele><time>2026-05-03T06:13:12.321Z</time></trkpt><trkpt lat="43.5694383" lon="10.3230083"><ele>4.0</ele><time>2026-05-03T06:13:13.32Z</time></trkpt><trkpt lat="43.5694086" lon="10.3231075"><ele>3.6</ele><time>2026-05-03T06:13:14.315Z</time></trkpt><trkpt lat="43.5693798" lon="10.3232068"><ele>3.2</ele><time>2026-05-03T06:13:15.324Z</time></trkpt><trkpt lat="43.5693317" lon="10.3233951"><ele>2.8000000000000003</ele><time>2026-05-03T06:13:17.324Z</time></trkpt><trkpt lat="43.5693291" lon="10.3235165"><ele>2.4000000000000004</ele><time>2026-05-03T06:13:19.328Z</time></trkpt><trkpt lat="43.5694548" lon="10.3235851"><ele>2.0</ele><time>2026-05-03T06:13:21.311Z</time></trkpt><trkpt lat="43.5696907" lon="10.3236917"><ele>2.0</ele><time>2026-05-03T06:13:23.312Z</time></trkpt><trkpt lat="43.569825" lon="10.32377"><ele>2.0</ele><time>2026-05-03T06:13:24.318Z</time></trkpt><trkpt lat="43.5700027" lon="10.3238828"><ele>2.0</ele><time>2026-05-03T06:13:25.325Z</time></trkpt><trkpt lat="43.570388" lon="10.3241841"><ele>0.0</ele><time>2026-05-03T06:13:27.317Z</time></trkpt><trkpt lat="43.5705697" lon="10.3243805"><ele>-2.0</ele><time>2026-05-03T06:13:28.313Z</time></trkpt><trkpt lat="43.5707858" lon="10.324629"><ele>-1.0</ele><time>2026-05-03T06:13:29.321Z</time></trkpt><trkpt lat="43.5709865" lon="10.324912"><ele>0.0</ele><time>2026-05-03T06:13:30.322Z</time></trkpt><trkpt lat="43.5711529" lon="10.3251717"><ele>0.6666666666666666</ele><time>2026-05-03T06:13:31.316Z</time></trkpt><trkpt lat="43.5713093" lon="10.3254097"><ele>1.3333333333333333</ele><time>2026-05-03T06:13:32.329Z</time></trkpt><trkpt lat="43.5714501" lon="10.3256306"><ele>2.0</ele><time>2026-05-03T06:13:33.324Z</time></trkpt><trkpt lat="43.5715343" lon="10.3257783"><ele>2.0</ele><time>2026-05-03T06:13:34.317Z</time></trkpt><trkpt lat="43.5716382" lon="10.3260108"><ele>2.0</ele><time>2026-05-03T06:13:35.328Z</time></trkpt><trkpt lat="43.57169" lon="10.3262231"><ele>2.0</ele><time>2026-05-03T06:13:36.258Z</time></trkpt><trkpt lat="43.5717433" lon="10.3265054"><ele>2.333333333333333</ele><time>2026-05-03T06:13:37.332Z</time></trkpt><trkpt lat="43.5717863" lon="10.3267274"><ele>2.6666666666666665</ele><time>2026-05-03T06:13:38.24Z</time></trkpt><trkpt lat="43.5718222" lon="10.3270474"><ele>3.0</ele><time>2026-05-03T06:13:39.327Z</time></trkpt><trkpt lat="43.5718465" lon="10.3273008"><ele>4.666666666666666</ele><time>2026-05-03T06:13:40.33Z</time></trkpt><trkpt lat="43.5718679" lon="10.3275252"><ele>6.333333333333333</ele><time>2026-05-03T06:13:41.233Z</time></trkpt><trkpt lat="43.5719043" lon="10.32778"><ele>8.0</ele><time>2026-05-03T06:13:42.297Z</time></trkpt><trkpt lat="43.5719384" lon="10.3280191"><ele>7.0</ele><time>2026-05-03T06:13:43.333Z</time></trkpt><trkpt lat="43.5719666" lon="10.3282278"><ele>6.0</ele><time>2026-05-03T06:13:44.33Z</time></trkpt><trkpt lat="43.5719904" lon="10.3284146"><ele>5.0</ele><time>2026-05-03T06:13:45.257Z</time></trkpt><trkpt lat="43.5720072" lon="10.328621"><ele>4.0</ele><time>2026-05-03T06:13:46.332Z</time></trkpt><trkpt lat="43.572033" lon="10.3288401"><ele>3.0</ele><time>2026-05-03T06:13:47.32Z</time></trkpt><trkpt lat="43.5720541" lon="10.3290611"><ele>2.0</ele><time>2026-05-03T06:13:48.326Z</time></trkpt><trkpt lat="43.5720931" lon="10.3292986"><ele>1.0</ele><time>2026-05-03T06:13:49.32Z</time></trkpt><trkpt lat="43.572156" lon="10.3295642"><ele>1.0</ele><time>2026-05-03T06:13:50.33Z</time></trkpt><trkpt lat="43.5722209" lon="10.3298072"><ele>1.0</ele><time>2026-05-03T06:13:51.328Z</time></trkpt><trkpt lat="43.5722846" lon="10.3300662"><ele>1.0</ele><time>2026-05-03T06:13:52.322Z</time></trkpt><trkpt lat="43.5723692" lon="10.3303492"><ele>0.0</ele><time>2026-05-03T06:13:53.324Z</time></trkpt><trkpt lat="43.5724542" lon="10.3306239"><ele>-1.0</ele><time>2026-05-03T06:13:54.332Z</time></trkpt><trkpt lat="43.5725218" lon="10.3308709"><ele>-2.0</ele><time>2026-05-03T06:13:55.333Z</time></trkpt><trkpt lat="43.5725866" lon="10.331119"><ele>-2.0</ele><time>2026-05-03T06:13:56.342Z</time></trkpt><trkpt lat="43.5726242" lon="10.3313586"><ele>-2.0</ele><time>2026-05-03T06:13:57.343Z</time></trkpt><trkpt lat="43.5726582" lon="10.3316058"><ele>-2.0</ele><time>2026-05-03T06:13:58.337Z</time></trkpt><trkpt lat="43.5727023" lon="10.3318409"><ele>-1.6666666666666665</ele><time>2026-05-03T06:13:59.338Z</time></trkpt><trkpt lat="43.5727509" lon="10.332062"><ele>-1.3333333333333333</ele><time>2026-05-03T06:14:00.328Z</time></trkpt><trkpt lat="43.5728169" lon="10.3322924"><ele>-1.0</ele><time>2026-05-03T06:14:01.336Z</time></trkpt><trkpt lat="43.5728966" lon="10.3325088"><ele>-1.0</ele><time>2026-05-03T06:14:02.342Z</time></trkpt><trkpt lat="43.572986" lon="10.3327164"><ele>-1.0</ele><time>2026-05-03T06:14:03.342Z</time></trkpt><trkpt lat="43.5730884" lon="10.3329331"><ele>-1.0</ele><time>2026-05-03T06:14:04.338Z</time></trkpt><trkpt lat="43.5732123" lon="10.3331254"><ele>-1.0</ele><time>2026-05-03T06:14:05.34Z</time></trkpt><trkpt lat="43.5733263" lon="10.3333126"><ele>-1.0</ele><time>2026-05-03T06:14:06.332Z</time></trkpt><trkpt lat="43.5734345" lon="10.3334994"><ele>-1.0</ele><time>2026-05-03T06:14:07.326Z</time></trkpt><trkpt lat="43.573496" lon="10.3335231"><ele>-1.0</ele><time>2026-05-03T06:14:08.325Z</time></trkpt><trkpt lat="43.5735434" lon="10.3336488"><ele>0.0</ele><time>2026-05-03T06:14:10.318Z</time></trkpt><trkpt lat="43.5737148" lon="10.3338936"><ele>1.0</ele><time>2026-05-03T06:14:11.314Z</time></trkpt><trkpt lat="43.5738268" lon="10.3340371"><ele>2.0</ele><time>2026-05-03T06:14:12.31Z</time></trkpt><trkpt lat="43.5739698" lon="10.3342074"><ele>2.0</ele><time>2026-05-03T06:14:13.322Z</time></trkpt><trkpt lat="43.5741028" lon="10.3343563"><ele>2.0</ele><time>2026-05-03T06:14:16.322Z</time></trkpt><trkpt lat="43.5741652" lon="10.3344281"><ele>2.0</ele><time>2026-05-03T06:14:17.298Z</time></trkpt><trkpt lat="43.5743558" lon="10.3346414"><ele>2.333333333333333</ele><time>2026-05-03T06:14:18.32Z</time></trkpt><trkpt lat="43.5744854" lon="10.3347928"><ele>2.6666666666666665</ele><time>2026-05-03T06:14:19.323Z</time></trkpt><trkpt lat="43.5746654" lon="10.3349493"><ele>3.0</ele><time>2026-05-03T06:14:22.33Z</time></trkpt><trkpt lat="43.5748029" lon="10.3350769"><ele>2.5</ele><time>2026-05-03T06:14:25.339Z</time></trkpt><trkpt lat="43.574949" lon="10.3353402"><ele>2.0</ele><time>2026-05-03T06:14:46.057Z</time></trkpt><trkpt lat="43.5754799" lon="10.3361805"><ele>2.5</ele><time>2026-05-03T06:14:47.339Z</time></trkpt><trkpt lat="43.5757598" lon="10.3366157"><ele>3.0</ele><time>2026-05-03T06:14:48.343Z</time></trkpt><trkpt lat="43.5758448" lon="10.3367485"><ele>3.0</ele><time>2026-05-03T06:14:49.329Z</time></trkpt><trkpt lat="43.5761173" lon="10.3371376"><ele>3.0</ele><time>2026-05-03T06:14:50.339Z</time></trkpt><trkpt lat="43.5762713" lon="10.3373526"><ele>2.6666666666666665</ele><time>2026-05-03T06:14:51.337Z</time></trkpt><trkpt lat="43.5764154" lon="10.3375549"><ele>2.333333333333333</ele><time>2026-05-03T06:14:52.344Z</time></trkpt><trkpt lat="43.576543" lon="10.337739"><ele>2.0</ele><time>2026-05-03T06:14:53.326Z</time></trkpt><trkpt lat="43.5766586" lon="10.3379127"><ele>1.6666666666666665</ele><time>2026-05-03T06:14:54.329Z</time></trkpt><trkpt lat="43.5767645" lon="10.3380839"><ele>1.3333333333333333</ele><time>2026-05-03T06:14:55.332Z</time></trkpt><trkpt lat="43.5768604" lon="10.3382453"><ele>1.0</ele><time>2026-05-03T06:14:56.323Z</time></trkpt><trkpt lat="43.5769578" lon="10.3383985"><ele>1.0</ele><time>2026-05-03T06:14:57.324Z</time></trkpt><trkpt lat="43.5770421" lon="10.3385383"><ele>1.0</ele><time>2026-05-03T06:14:58.331Z</time></trkpt><trkpt lat="43.5771205" lon="10.3386605"><ele>1.0</ele><time>2026-05-03T06:14:59.327Z</time></trkpt><trkpt lat="43.5771811" lon="10.3387829"><ele>1.0</ele><time>2026-05-03T06:15:00.324Z</time></trkpt><trkpt lat="43.5772248" lon="10.3389167"><ele>1.0</ele><time>2026-05-03T06:15:01.311Z</time></trkpt><trkpt lat="43.5772639" lon="10.3390492"><ele>1.0</ele><time>2026-05-03T06:15:02.314Z</time></trkpt><trkpt lat="43.5773129" lon="10.3391804"><ele>1.0</ele><time>2026-05-03T06:15:03.311Z</time></trkpt><trkpt lat="43.577369" lon="10.339307"><ele>1.0</ele><time>2026-05-03T06:15:04.318Z</time></trkpt><trkpt lat="43.577438" lon="10.3394208"><ele>1.0</ele><time>2026-05-03T06:15:05.32Z</time></trkpt><trkpt lat="43.577534" lon="10.3395268"><ele>1.0</ele><time>2026-05-03T06:15:06.32Z</time></trkpt><trkpt lat="43.5776354" lon="10.33963"><ele>1.0</ele><time>2026-05-03T06:15:07.313Z</time></trkpt><trkpt lat="43.5777593" lon="10.3397459"><ele>1.0</ele><time>2026-05-03T06:15:08.323Z</time></trkpt><trkpt lat="43.5778797" lon="10.3398819"><ele>1.0</ele><time>2026-05-03T06:15:09.323Z</time></trkpt><trkpt lat="43.5779966" lon="10.3400336"><ele>1.3333333333333333</ele><time>2026-05-03T06:15:10.318Z</time></trkpt><trkpt lat="43.5781246" lon="10.3402053"><ele>1.6666666666666665</ele><time>2026-05-03T06:15:11.324Z</time></trkpt><trkpt lat="43.5782528" lon="10.3403997"><ele>2.0</ele><time>2026-05-03T06:15:12.324Z</time></trkpt><trkpt lat="43.5783828" lon="10.3405886"><ele>2.0</ele><time>2026-05-03T06:15:13.321Z</time></trkpt><trkpt lat="43.5785078" lon="10.3407701"><ele>2.0</ele><time>2026-05-03T06:15:14.328Z</time></trkpt><trkpt lat="43.5786201" lon="10.3409358"><ele>2.0</ele><time>2026-05-03T06:15:15.322Z</time></trkpt><trkpt lat="43.5787196" lon="10.3411064"><ele>2.0</ele><time>2026-05-03T06:15:16.325Z</time></trkpt><trkpt lat="43.5788083" lon="10.3412805"><ele>2.0</ele><time>2026-05-03T06:15:17.325Z</time></trkpt><trkpt lat="43.5789086" lon="10.3414355"><ele>2.0</ele><time>2026-05-03T06:15:18.322Z</time></trkpt><trkpt lat="43.57903" lon="10.3415651"><ele>2.333333333333333</ele><time>2026-05-03T06:15:19.326Z</time></trkpt><trkpt lat="43.5791553" lon="10.3416939"><ele>2.6666666666666665</ele><time>2026-05-03T06:15:20.318Z</time></trkpt><trkpt lat="43.5792866" lon="10.3418092"><ele>3.0</ele><time>2026-05-03T06:15:21.319Z</time></trkpt><trkpt lat="43.5794215" lon="10.3418986"><ele>2.4</ele><time>2026-05-03T06:15:22.325Z</time></trkpt><trkpt lat="43.5795289" lon="10.3419962"><ele>1.7999999999999998</ele><time>2026-05-03T06:15:23.326Z</time></trkpt><trkpt lat="43.5795406" lon="10.3421303"><ele>1.2</ele><time>2026-05-03T06:15:24.325Z</time></trkpt><trkpt lat="43.5795967" lon="10.3422554"><ele>0.6</ele><time>2026-05-03T06:15:25.322Z</time></trkpt><trkpt lat="43.5796796" lon="10.3423564"><ele>0.0</ele><time>2026-05-03T06:15:26.321Z</time></trkpt><trkpt lat="43.5797754" lon="10.3424404"><ele>-0.25</ele><time>2026-05-03T06:15:27.32Z</time></trkpt><trkpt lat="43.5798736" lon="10.3425216"><ele>-0.5</ele><time>2026-05-03T06:15:28.325Z</time></trkpt><trkpt lat="43.5799747" lon="10.3426114"><ele>-0.75</ele><time>2026-05-03T06:15:29.323Z</time></trkpt><trkpt lat="43.5800787" lon="10.3427063"><ele>-1.0</ele><time>2026-05-03T06:15:30.319Z</time></trkpt><trkpt lat="43.5801897" lon="10.3427914"><ele>-1.0</ele><time>2026-05-03T06:15:31.324Z</time></trkpt><trkpt lat="43.5803075" lon="10.3428715"><ele>-1.0</ele><time>2026-05-03T06:15:32.324Z</time></trkpt><trkpt lat="43.5804193" lon="10.3429327"><ele>-1.0</ele><time>2026-05-03T06:15:33.324Z</time></trkpt><trkpt lat="43.5805186" lon="10.3429834"><ele>-1.0</ele><time>2026-05-03T06:15:34.321Z</time></trkpt><trkpt lat="43.5806179" lon="10.3430329"><ele>-0.75</ele><time>2026-05-03T06:15:35.321Z</time></trkpt><trkpt lat="43.5807179" lon="10.3430828"><ele>-0.5</ele><time>2026-05-03T06:15:36.314Z</time></trkpt><trkpt lat="43.5808236" lon="10.3431377"><ele>-0.25</ele><time>2026-05-03T06:15:37.313Z</time></trkpt><trkpt lat="43.5809339" lon="10.3431912"><ele>0.0</ele><time>2026-05-03T06:15:38.313Z</time></trkpt><trkpt lat="43.5810467" lon="10.3432529"><ele>0.0</ele><time>2026-05-03T06:15:39.314Z</time></trkpt><trkpt lat="43.5811561" lon="10.3433092"><ele>0.0</ele><time>2026-05-03T06:15:40.312Z</time></trkpt><trkpt lat="43.581257" lon="10.3433491"><ele>0.0</ele><time>2026-05-03T06:15:41.309Z</time></trkpt><trkpt lat="43.5813459" lon="10.3433805"><ele>0.0</ele><time>2026-05-03T06:15:42.313Z</time></trkpt><trkpt lat="43.581423" lon="10.3434135"><ele>0.0</ele><time>2026-05-03T06:15:43.314Z</time></trkpt><trkpt lat="43.5814942" lon="10.3434473"><ele>0.2</ele><time>2026-05-03T06:15:44.308Z</time></trkpt><trkpt lat="43.5815589" lon="10.3434743"><ele>0.4</ele><time>2026-05-03T06:15:45.312Z</time></trkpt><trkpt lat="43.5816297" lon="10.3435073"><ele>0.6000000000000001</ele><time>2026-05-03T06:15:46.312Z</time></trkpt><trkpt lat="43.5817152" lon="10.3435604"><ele>0.8</ele><time>2026-05-03T06:15:47.312Z</time></trkpt><trkpt lat="43.5818165" lon="10.3436174"><ele>1.0</ele><time>2026-05-03T06:15:48.316Z</time></trkpt><trkpt lat="43.5819328" lon="10.3436774"><ele>1.0</ele><time>2026-05-03T06:15:49.324Z</time></trkpt><trkpt lat="43.5820567" lon="10.3437317"><ele>1.0</ele><time>2026-05-03T06:15:50.323Z</time></trkpt><trkpt lat="43.5821802" lon="10.3437827"><ele>1.0</ele><time>2026-05-03T06:15:51.321Z</time></trkpt><trkpt lat="43.5823085" lon="10.3438364"><ele>1.0</ele><time>2026-05-03T06:15:52.317Z</time></trkpt><trkpt lat="43.5824488" lon="10.3438978"><ele>1.5</ele><time>2026-05-03T06:15:53.319Z</time></trkpt><trkpt lat="43.5825842" lon="10.3439604"><ele>2.0</ele><time>2026-05-03T06:15:54.322Z</time></trkpt><trkpt lat="43.5827224" lon="10.3440365"><ele>2.5</ele><time>2026-05-03T06:15:55.319Z</time></trkpt><trkpt lat="43.5828456" lon="10.3440993"><ele>3.0</ele><time>2026-05-03T06:15:56.314Z</time></trkpt><trkpt lat="43.5829575" lon="10.3441548"><ele>3.0</ele><time>2026-05-03T06:15:57.315Z</time></trkpt><trkpt lat="43.5830722" lon="10.344211"><ele>3.0</ele><time>2026-05-03T06:15:58.321Z</time></trkpt><trkpt lat="43.5831859" lon="10.344267"><ele>3.0</ele><time>2026-05-03T06:15:59.317Z</time></trkpt><trkpt lat="43.5833014" lon="10.3443219"><ele>3.0</ele><time>2026-05-03T06:16:00.314Z</time></trkpt><trkpt lat="43.5834034" lon="10.34438"><ele>3.0</ele><time>2026-05-03T06:16:01.323Z</time></trkpt><trkpt lat="43.5835008" lon="10.3444387"><ele>3.0</ele><time>2026-05-03T06:16:02.324Z</time></trkpt><trkpt lat="43.5836177" lon="10.3445085"><ele>3.0</ele><time>2026-05-03T06:16:03.322Z</time></trkpt><trkpt lat="43.5837402" lon="10.3445785"><ele>3.0</ele><time>2026-05-03T06:16:04.325Z</time></trkpt><trkpt lat="43.5838668" lon="10.3446514"><ele>3.25</ele><time>2026-05-03T06:16:05.322Z</time></trkpt><trkpt lat="43.5840031" lon="10.3447399"><ele>3.5</ele><time>2026-05-03T06:16:06.319Z</time></trkpt><trkpt lat="43.5841369" lon="10.3448184"><ele>3.75</ele><time>2026-05-03T06:16:07.32Z</time></trkpt><trkpt lat="43.5842711" lon="10.3448938"><ele>4.0</ele><time>2026-05-03T06:16:08.319Z</time></trkpt><trkpt lat="43.5844074" lon="10.3449568"><ele>3.75</ele><time>2026-05-03T06:16:09.32Z</time></trkpt><trkpt lat="43.584534" lon="10.3450079"><ele>3.5</ele><time>2026-05-03T06:16:10.317Z</time></trkpt><trkpt lat="43.5846531" lon="10.3450465"><ele>3.25</ele><time>2026-05-03T06:16:11.318Z</time></trkpt><trkpt lat="43.5847581" lon="10.345083"><ele>3.0</ele><time>2026-05-03T06:16:12.32Z</time></trkpt><trkpt lat="43.584853" lon="10.3451172"><ele>3.0</ele><time>2026-05-03T06:16:13.317Z</time></trkpt><trkpt lat="43.5849393" lon="10.3451629"><ele>3.0</ele><time>2026-05-03T06:16:14.322Z</time></trkpt><trkpt lat="43.5850265" lon="10.3452139"><ele>3.0</ele><time>2026-05-03T06:16:15.319Z</time></trkpt><trkpt lat="43.5851044" lon="10.3452692"><ele>3.0</ele><time>2026-05-03T06:16:16.314Z</time></trkpt><trkpt lat="43.585175" lon="10.3453272"><ele>3.0</ele><time>2026-05-03T06:16:17.318Z</time></trkpt><trkpt lat="43.5852329" lon="10.3453943"><ele>3.0</ele><time>2026-05-03T06:16:18.32Z</time></trkpt><trkpt lat="43.5852843" lon="10.3454719"><ele>2.8333333333333335</ele><time>2026-05-03T06:16:19.323Z</time></trkpt><trkpt lat="43.5853223" lon="10.3455549"><ele>2.6666666666666665</ele><time>2026-05-03T06:16:20.313Z</time></trkpt><trkpt lat="43.5853624" lon="10.34565"><ele>2.5</ele><time>2026-05-03T06:16:21.314Z</time></trkpt><trkpt lat="43.5853877" lon="10.3457366"><ele>2.333333333333333</ele><time>2026-05-03T06:16:22.324Z</time></trkpt><trkpt lat="43.5854112" lon="10.3458213"><ele>2.1666666666666665</ele><time>2026-05-03T06:16:23.313Z</time></trkpt><trkpt lat="43.5854454" lon="10.3459033"><ele>2.0</ele><time>2026-05-03T06:16:24.327Z</time></trkpt><trkpt lat="43.5855438" lon="10.3459505"><ele>2.0</ele><time>2026-05-03T06:16:26.317Z</time></trkpt><trkpt lat="43.5856061" lon="10.3459338"><ele>2.0</ele><time>2026-05-03T06:16:27.322Z</time></trkpt><trkpt lat="43.5856696" lon="10.3459021"><ele>2.0</ele><time>2026-05-03T06:16:28.32Z</time></trkpt><trkpt lat="43.5857518" lon="10.3458788"><ele>2.0</ele><time>2026-05-03T06:16:29.323Z</time></trkpt><trkpt lat="43.5858598" lon="10.3458639"><ele>2.0</ele><time>2026-05-03T06:16:30.325Z</time></trkpt><trkpt lat="43.5859978" lon="10.3458673"><ele>2.0</ele><time>2026-05-03T06:16:31.318Z</time></trkpt><trkpt lat="43.5861546" lon="10.345898"><ele>2.0</ele><time>2026-05-03T06:16:32.323Z</time></trkpt><trkpt lat="43.5862597" lon="10.3459769"><ele>2.0</ele><time>2026-05-03T06:16:33.315Z</time></trkpt><trkpt lat="43.5863664" lon="10.3460698"><ele>2.0</ele><time>2026-05-03T06:16:34.318Z</time></trkpt><trkpt lat="43.5864695" lon="10.346124"><ele>2.0</ele><time>2026-05-03T06:16:35.224Z</time></trkpt><trkpt lat="43.5866448" lon="10.3461892"><ele>2.0</ele><time>2026-05-03T06:16:36.327Z</time></trkpt><trkpt lat="43.5867993" lon="10.3462608"><ele>2.0</ele><time>2026-05-03T06:16:37.325Z</time></trkpt><trkpt lat="43.5870138" lon="10.346359"><ele>1.5</ele><time>2026-05-03T06:16:38.323Z</time></trkpt><trkpt lat="43.5872158" lon="10.3464512"><ele>1.0</ele><time>2026-05-03T06:16:39.323Z</time></trkpt><trkpt lat="43.5876363" lon="10.3465815"><ele>1.5</ele><time>2026-05-03T06:16:40.006Z</time></trkpt><trkpt lat="43.5879695" lon="10.3469482"><ele>2.0</ele><time>2026-05-03T06:16:41.326Z</time></trkpt><trkpt lat="43.5881406" lon="10.3470518"><ele>2.0</ele><time>2026-05-03T06:16:42.327Z</time></trkpt><trkpt lat="43.5883137" lon="10.3471345"><ele>2.0</ele><time>2026-05-03T06:16:43.323Z</time></trkpt><trkpt lat="43.5888226" lon="10.347136"><ele>2.0</ele><time>2026-05-03T06:16:45.326Z</time></trkpt><trkpt lat="43.5890367" lon="10.3471926"><ele>2.0</ele><time>2026-05-03T06:16:46.322Z</time></trkpt><trkpt lat="43.5892303" lon="10.3472639"><ele>2.0</ele><time>2026-05-03T06:16:47.324Z</time></trkpt><trkpt lat="43.5894171" lon="10.3473474"><ele>2.333333333333333</ele><time>2026-05-03T06:16:48.321Z</time></trkpt><trkpt lat="43.5896008" lon="10.3474192"><ele>2.6666666666666665</ele><time>2026-05-03T06:16:49.319Z</time></trkpt><trkpt lat="43.5897785" lon="10.3474833"><ele>3.0</ele><time>2026-05-03T06:16:50.323Z</time></trkpt><trkpt lat="43.5899541" lon="10.347542"><ele>3.0</ele><time>2026-05-03T06:16:51.317Z</time></trkpt><trkpt lat="43.590132" lon="10.3476141"><ele>3.0</ele><time>2026-05-03T06:16:52.317Z</time></trkpt><trkpt lat="43.5903101" lon="10.3476882"><ele>3.0</ele><time>2026-05-03T06:16:53.316Z</time></trkpt><trkpt lat="43.5904955" lon="10.3477754"><ele>3.0</ele><time>2026-05-03T06:16:54.317Z</time></trkpt><trkpt lat="43.5906776" lon="10.3478708"><ele>3.0</ele><time>2026-05-03T06:16:55.318Z</time></trkpt><trkpt lat="43.5908592" lon="10.3479677"><ele>3.0</ele><time>2026-05-03T06:16:56.319Z</time></trkpt><trkpt lat="43.5910293" lon="10.3480533"><ele>2.6666666666666665</ele><time>2026-05-03T06:16:57.314Z</time></trkpt><trkpt lat="43.5911899" lon="10.3481651"><ele>2.333333333333333</ele><time>2026-05-03T06:16:58.319Z</time></trkpt><trkpt lat="43.591387" lon="10.348271"><ele>2.0</ele><time>2026-05-03T06:16:59.323Z</time></trkpt><trkpt lat="43.5915889" lon="10.3483699"><ele>2.0</ele><time>2026-05-03T06:17:00.325Z</time></trkpt><trkpt lat="43.5917827" lon="10.3484778"><ele>2.0</ele><time>2026-05-03T06:17:01.322Z</time></trkpt><trkpt lat="43.5919768" lon="10.3485703"><ele>2.0</ele><time>2026-05-03T06:17:02.324Z</time></trkpt><trkpt lat="43.5921783" lon="10.3486562"><ele>2.333333333333333</ele><time>2026-05-03T06:17:03.323Z</time></trkpt><trkpt lat="43.5923681" lon="10.3487576"><ele>2.6666666666666665</ele><time>2026-05-03T06:17:04.326Z</time></trkpt><trkpt lat="43.5925524" lon="10.34882"><ele>3.0</ele><time>2026-05-03T06:17:05.326Z</time></trkpt><trkpt lat="43.5927291" lon="10.3489138"><ele>3.0</ele><time>2026-05-03T06:17:06.327Z</time></trkpt><trkpt lat="43.5928872" lon="10.3489809"><ele>3.0</ele><time>2026-05-03T06:17:07.327Z</time></trkpt><trkpt lat="43.5930707" lon="10.3490613"><ele>3.0</ele><time>2026-05-03T06:17:08.329Z</time></trkpt><trkpt lat="43.5932624" lon="10.3491272"><ele>3.0</ele><time>2026-05-03T06:17:09.327Z</time></trkpt><trkpt lat="43.5934459" lon="10.3491833"><ele>3.0</ele><time>2026-05-03T06:17:10.333Z</time></trkpt><trkpt lat="43.5936356" lon="10.3492699"><ele>3.0</ele><time>2026-05-03T06:17:11.326Z</time></trkpt><trkpt lat="43.5938408" lon="10.3493348"><ele>3.666666666666667</ele><time>2026-05-03T06:17:12.333Z</time></trkpt><trkpt lat="43.5940321" lon="10.3494078"><ele>4.333333333333334</ele><time>2026-05-03T06:17:13.319Z</time></trkpt><trkpt lat="43.5942379" lon="10.3495064"><ele>5.0</ele><time>2026-05-03T06:17:14.33Z</time></trkpt><trkpt lat="43.5944456" lon="10.3495798"><ele>5.0</ele><time>2026-05-03T06:17:15.331Z</time></trkpt><trkpt lat="43.59463" lon="10.349621"><ele>5.0</ele><time>2026-05-03T06:17:16.328Z</time></trkpt><trkpt lat="43.5947878" lon="10.3496869"><ele>5.0</ele><time>2026-05-03T06:17:17.323Z</time></trkpt><trkpt lat="43.594964" lon="10.3497708"><ele>5.0</ele><time>2026-05-03T06:17:18.329Z</time></trkpt><trkpt lat="43.5951391" lon="10.3498253"><ele>5.0</ele><time>2026-05-03T06:17:19.328Z</time></trkpt><trkpt lat="43.5952992" lon="10.3498853"><ele>5.0</ele><time>2026-05-03T06:17:20.341Z</time></trkpt><trkpt lat="43.5954871" lon="10.3499739"><ele>5.0</ele><time>2026-05-03T06:17:21.32Z</time></trkpt><trkpt lat="43.5956766" lon="10.3500534"><ele>5.0</ele><time>2026-05-03T06:17:22.312Z</time></trkpt><trkpt lat="43.5958621" lon="10.3501354"><ele>5.0</ele><time>2026-05-03T06:17:23.308Z</time></trkpt><trkpt lat="43.5960482" lon="10.3502268"><ele>4.666666666666667</ele><time>2026-05-03T06:17:24.316Z</time></trkpt><trkpt lat="43.5962223" lon="10.350332"><ele>4.333333333333333</ele><time>2026-05-03T06:17:25.327Z</time></trkpt><trkpt lat="43.5964095" lon="10.3504411"><ele>4.0</ele><time>2026-05-03T06:17:26.306Z</time></trkpt><trkpt lat="43.5966112" lon="10.3505369"><ele>3.333333333333333</ele><time>2026-05-03T06:17:27.327Z</time></trkpt><trkpt lat="43.5967971" lon="10.3506272"><ele>2.6666666666666665</ele><time>2026-05-03T06:17:28.32Z</time></trkpt><trkpt lat="43.5969927" lon="10.3507148"><ele>2.0</ele><time>2026-05-03T06:17:29.319Z</time></trkpt><trkpt lat="43.597191" lon="10.3508441"><ele>2.0</ele><time>2026-05-03T06:17:30.337Z</time></trkpt><trkpt lat="43.5973363" lon="10.3509333"><ele>2.0</ele><time>2026-05-03T06:17:31.322Z</time></trkpt><trkpt lat="43.5974888" lon="10.351032"><ele>2.0</ele><time>2026-05-03T06:17:32.327Z</time></trkpt><trkpt lat="43.5976463" lon="10.351124"><ele>2.0</ele><time>2026-05-03T06:17:33.325Z</time></trkpt><trkpt lat="43.5977746" lon="10.3512347"><ele>2.0</ele><time>2026-05-03T06:17:34.318Z</time></trkpt><trkpt lat="43.5978892" lon="10.3513095"><ele>2.0</ele><time>2026-05-03T06:17:35.334Z</time></trkpt><trkpt lat="43.5979616" lon="10.3513225"><ele>2.0</ele><time>2026-05-03T06:17:36.319Z</time></trkpt><trkpt lat="43.5980606" lon="10.3514179"><ele>1.6</ele><time>2026-05-03T06:17:38.308Z</time></trkpt><trkpt lat="43.5980437" lon="10.351596"><ele>1.2000000000000002</ele><time>2026-05-03T06:17:40.32Z</time></trkpt><trkpt lat="43.5979862" lon="10.351717"><ele>0.8</ele><time>2026-05-03T06:17:41.31Z</time></trkpt><trkpt lat="43.5979665" lon="10.3518702"><ele>0.4</ele><time>2026-05-03T06:17:42.31Z</time></trkpt><trkpt lat="43.5979408" lon="10.3519761"><ele>0.0</ele><time>2026-05-03T06:17:43.316Z</time></trkpt><trkpt lat="43.5979286" lon="10.3520858"><ele>0.0</ele><time>2026-05-03T06:17:44.314Z</time></trkpt><trkpt lat="43.5979255" lon="10.3522237"><ele>0.0</ele><time>2026-05-03T06:17:46.315Z</time></trkpt><trkpt lat="43.5979437" lon="10.3523213"><ele>0.0</ele><time>2026-05-03T06:18:03.322Z</time></trkpt><trkpt lat="43.5980108" lon="10.3522875"><ele>0.0</ele><time>2026-05-03T06:18:07.327Z</time></trkpt><trkpt lat="43.5979832" lon="10.3521367"><ele>0.0</ele><time>2026-05-03T06:18:09.308Z</time></trkpt><trkpt lat="43.5980138" lon="10.3520137"><ele>0.0</ele><time>2026-05-03T06:18:10.312Z</time></trkpt><trkpt lat="43.59803" lon="10.3518981"><ele>0.0</ele><time>2026-05-03T06:18:11.319Z</time></trkpt><trkpt lat="43.5980126" lon="10.3517623"><ele>0.0</ele><time>2026-05-03T06:18:12.33Z</time></trkpt><trkpt lat="43.5980118" lon="10.3516197"><ele>0.0</ele><time>2026-05-03T06:18:13.316Z</time></trkpt><trkpt lat="43.5980531" lon="10.3515385"><ele>0.0</ele><time>2026-05-03T06:18:14.323Z</time></trkpt><trkpt lat="43.5981242" lon="10.3514885"><ele>0.0</ele><time>2026-05-03T06:18:15.33Z</time></trkpt><trkpt lat="43.5981544" lon="10.3513831"><ele>0.2</ele><time>2026-05-03T06:18:17.348Z</time></trkpt><trkpt lat="43.5981892" lon="10.3512954"><ele>0.4</ele><time>2026-05-03T06:18:19.331Z</time></trkpt><trkpt lat="43.5981288" lon="10.3512459"><ele>0.6000000000000001</ele><time>2026-05-03T06:18:20.333Z</time></trkpt><trkpt lat="43.598059" lon="10.3512041"><ele>0.8</ele><time>2026-05-03T06:18:21.329Z</time></trkpt><trkpt lat="43.5979644" lon="10.3511555"><ele>1.0</ele><time>2026-05-03T06:18:22.34Z</time></trkpt><trkpt lat="43.5977285" lon="10.3510501"><ele>1.25</ele><time>2026-05-03T06:18:24.333Z</time></trkpt><trkpt lat="43.5975913" lon="10.3509759"><ele>1.5</ele><time>2026-05-03T06:18:25.334Z</time></trkpt><trkpt lat="43.597474" lon="10.3509033"><ele>1.75</ele><time>2026-05-03T06:18:26.33Z</time></trkpt><trkpt lat="43.5973257" lon="10.3508086"><ele>2.0</ele><time>2026-05-03T06:18:27.35Z</time></trkpt><trkpt lat="43.597163" lon="10.35074"><ele>2.0</ele><time>2026-05-03T06:18:28.337Z</time></trkpt><trkpt lat="43.5970029" lon="10.3506761"><ele>2.0</ele><time>2026-05-03T06:18:29.333Z</time></trkpt><trkpt lat="43.5966599" lon="10.3504613"><ele>2.6666666666666665</ele><time>2026-05-03T06:18:31.332Z</time></trkpt><trkpt lat="43.5964544" lon="10.3503562"><ele>3.333333333333333</ele><time>2026-05-03T06:18:32.335Z</time></trkpt><trkpt lat="43.5962623" lon="10.350255"><ele>4.0</ele><time>2026-05-03T06:18:33.347Z</time></trkpt><trkpt lat="43.5960398" lon="10.3501523"><ele>4.333333333333333</ele><time>2026-05-03T06:18:34.343Z</time></trkpt><trkpt lat="43.5958284" lon="10.3500449"><ele>4.666666666666667</ele><time>2026-05-03T06:18:35.338Z</time></trkpt><trkpt lat="43.5956313" lon="10.3499654"><ele>5.0</ele><time>2026-05-03T06:18:36.339Z</time></trkpt><trkpt lat="43.5954275" lon="10.3498776"><ele>5.0</ele><time>2026-05-03T06:18:37.343Z</time></trkpt><trkpt lat="43.5952433" lon="10.3497945"><ele>5.0</ele><time>2026-05-03T06:18:38.355Z</time></trkpt><trkpt lat="43.5950516" lon="10.349718"><ele>5.0</ele><time>2026-05-03T06:18:39.338Z</time></trkpt><trkpt lat="43.594914" lon="10.3496824"><ele>5.0</ele><time>2026-05-03T06:18:40.343Z</time></trkpt><trkpt lat="43.5947601" lon="10.3495959"><ele>5.0</ele><time>2026-05-03T06:18:41.338Z</time></trkpt><trkpt lat="43.5945688" lon="10.3495292"><ele>5.0</ele><time>2026-05-03T06:18:42.33Z</time></trkpt><trkpt lat="43.594388" lon="10.3494682"><ele>5.0</ele><time>2026-05-03T06:18:43.351Z</time></trkpt><trkpt lat="43.5941773" lon="10.3493834"><ele>5.0</ele><time>2026-05-03T06:18:44.335Z</time></trkpt><trkpt lat="43.5939622" lon="10.3493118"><ele>5.0</ele><time>2026-05-03T06:18:45.338Z</time></trkpt><trkpt lat="43.593763" lon="10.3492421"><ele>4.333333333333334</ele><time>2026-05-03T06:18:46.344Z</time></trkpt><trkpt lat="43.5935736" lon="10.3492141"><ele>3.666666666666667</ele><time>2026-05-03T06:18:47.34Z</time></trkpt><trkpt lat="43.5933503" lon="10.3491485"><ele>3.0</ele><time>2026-05-03T06:18:48.354Z</time></trkpt><trkpt lat="43.5929097" lon="10.3489914"><ele>3.0</ele><time>2026-05-03T06:18:50.341Z</time></trkpt><trkpt lat="43.5924906" lon="10.3488323"><ele>3.0</ele><time>2026-05-03T06:18:52.336Z</time></trkpt><trkpt lat="43.5921131" lon="10.3486213"><ele>2.5</ele><time>2026-05-03T06:18:54.338Z</time></trkpt><trkpt lat="43.5919261" lon="10.348534"><ele>2.0</ele><time>2026-05-03T06:18:55.335Z</time></trkpt><trkpt lat="43.5915386" lon="10.3483498"><ele>2.5</ele><time>2026-05-03T06:18:57.334Z</time></trkpt><trkpt lat="43.5911629" lon="10.3482152"><ele>3.0</ele><time>2026-05-03T06:18:59.343Z</time></trkpt><trkpt lat="43.5908118" lon="10.3480022"><ele>3.0</ele><time>2026-05-03T06:19:01.338Z</time></trkpt><trkpt lat="43.5904698" lon="10.347837"><ele>3.0</ele><time>2026-05-03T06:19:03.35Z</time></trkpt><trkpt lat="43.5901253" lon="10.3476357"><ele>3.0</ele><time>2026-05-03T06:19:05.334Z</time></trkpt><trkpt lat="43.5897757" lon="10.3475014"><ele>3.0</ele><time>2026-05-03T06:19:07.336Z</time></trkpt><trkpt lat="43.5894123" lon="10.3473595"><ele>2.5</ele><time>2026-05-03T06:19:09.336Z</time></trkpt><trkpt lat="43.5890106" lon="10.34721"><ele>2.0</ele><time>2026-05-03T06:19:11.338Z</time></trkpt><trkpt lat="43.5886501" lon="10.346964"><ele>2.0</ele><time>2026-05-03T06:19:13.347Z</time></trkpt><trkpt lat="43.5883136" lon="10.3467657"><ele>2.0</ele><time>2026-05-03T06:19:15.339Z</time></trkpt><trkpt lat="43.5879291" lon="10.3465777"><ele>2.0</ele><time>2026-05-03T06:19:17.335Z</time></trkpt><trkpt lat="43.5875736" lon="10.3464365"><ele>2.0</ele><time>2026-05-03T06:19:19.338Z</time></trkpt><trkpt lat="43.5872067" lon="10.3463145"><ele>2.5</ele><time>2026-05-03T06:19:21.338Z</time></trkpt><trkpt lat="43.5868689" lon="10.3461251"><ele>3.0</ele><time>2026-05-03T06:19:23.35Z</time></trkpt><trkpt lat="43.5865322" lon="10.3459385"><ele>3.0</ele><time>2026-05-03T06:19:25.343Z</time></trkpt><trkpt lat="43.5862027" lon="10.3458129"><ele>3.0</ele><time>2026-05-03T06:19:27.338Z</time></trkpt><trkpt lat="43.5859432" lon="10.3456912"><ele>2.5</ele><time>2026-05-03T06:19:29.339Z</time></trkpt><trkpt lat="43.58569" lon="10.3456618"><ele>2.0</ele><time>2026-05-03T06:19:31.341Z</time></trkpt><trkpt lat="43.5855017" lon="10.3455806"><ele>2.0</ele><time>2026-05-03T06:19:33.339Z</time></trkpt><trkpt lat="43.5853232" lon="10.3454612"><ele>2.0</ele><time>2026-05-03T06:19:35.328Z</time></trkpt><trkpt lat="43.5852477" lon="10.345429"><ele>2.0</ele><time>2026-05-03T06:19:36.318Z</time></trkpt><trkpt lat="43.5851801" lon="10.3454189"><ele>2.0</ele><time>2026-05-03T06:19:37.322Z</time></trkpt><trkpt lat="43.5851091" lon="10.345504"><ele>2.0</ele><time>2026-05-03T06:19:38.337Z</time></trkpt><trkpt lat="43.5850144" lon="10.3457696"><ele>2.0</ele><time>2026-05-03T06:19:40.319Z</time></trkpt><trkpt lat="43.5849335" lon="10.3461348"><ele>2.0</ele><time>2026-05-03T06:19:42.308Z</time></trkpt><trkpt lat="43.5848239" lon="10.3465485"><ele>2.333333333333333</ele><time>2026-05-03T06:19:44.321Z</time></trkpt><trkpt lat="43.5847612" lon="10.3467877"><ele>2.6666666666666665</ele><time>2026-05-03T06:19:45.323Z</time></trkpt><trkpt lat="43.584655" lon="10.347003"><ele>3.0</ele><time>2026-05-03T06:19:46.327Z</time></trkpt><trkpt lat="43.5845494" lon="10.3471999"><ele>2.6666666666666665</ele><time>2026-05-03T06:19:47.327Z</time></trkpt><trkpt lat="43.5844471" lon="10.3473995"><ele>2.333333333333333</ele><time>2026-05-03T06:19:48.346Z</time></trkpt><trkpt lat="43.5843279" lon="10.3476134"><ele>2.0</ele><time>2026-05-03T06:19:49.324Z</time></trkpt><trkpt lat="43.5842492" lon="10.3478392"><ele>2.6666666666666665</ele><time>2026-05-03T06:19:50.326Z</time></trkpt><trkpt lat="43.5841398" lon="10.3480664"><ele>3.333333333333333</ele><time>2026-05-03T06:19:51.329Z</time></trkpt><trkpt lat="43.584039" lon="10.3482955"><ele>4.0</ele><time>2026-05-03T06:19:52.331Z</time></trkpt><trkpt lat="43.5839845" lon="10.3484654"><ele>4.0</ele><time>2026-05-03T06:19:53.344Z</time></trkpt><trkpt lat="43.5839332" lon="10.3486381"><ele>4.0</ele><time>2026-05-03T06:19:54.33Z</time></trkpt><trkpt lat="43.5838974" lon="10.3487986"><ele>4.0</ele><time>2026-05-03T06:19:55.325Z</time></trkpt><trkpt lat="43.5838558" lon="10.3489844"><ele>4.0</ele><time>2026-05-03T06:19:56.318Z</time></trkpt><trkpt lat="43.583808" lon="10.3491492"><ele>5.5</ele><time>2026-05-03T06:19:57.316Z</time></trkpt><trkpt lat="43.5837596" lon="10.3493308"><ele>7.0</ele><time>2026-05-03T06:19:58.325Z</time></trkpt><trkpt lat="43.5837248" lon="10.3495021"><ele>8.5</ele><time>2026-05-03T06:19:59.317Z</time></trkpt><trkpt lat="43.5837009" lon="10.3496705"><ele>10.0</ele><time>2026-05-03T06:20:00.312Z</time></trkpt><trkpt lat="43.5836548" lon="10.3498795"><ele>10.333333333333334</ele><time>2026-05-03T06:20:01.32Z</time></trkpt><trkpt lat="43.5835984" lon="10.3500935"><ele>10.666666666666666</ele><time>2026-05-03T06:20:02.313Z</time></trkpt><trkpt lat="43.5835342" lon="10.3503124"><ele>11.0</ele><time>2026-05-03T06:20:03.32Z</time></trkpt><trkpt lat="43.5834982" lon="10.3505396"><ele>10.0</ele><time>2026-05-03T06:20:04.311Z</time></trkpt><trkpt lat="43.583494" lon="10.3507625"><ele>9.0</ele><time>2026-05-03T06:20:05.316Z</time></trkpt><trkpt lat="43.5835164" lon="10.3510245"><ele>8.0</ele><time>2026-05-03T06:20:06.312Z</time></trkpt><trkpt lat="43.5834661" lon="10.3512381"><ele>7.666666666666666</ele><time>2026-05-03T06:20:07.324Z</time></trkpt><trkpt lat="43.5834255" lon="10.3514392"><ele>7.333333333333334</ele><time>2026-05-03T06:20:08.345Z</time></trkpt><trkpt lat="43.5834048" lon="10.3516491"><ele>7.0</ele><time>2026-05-03T06:20:09.329Z</time></trkpt><trkpt lat="43.5834021" lon="10.3518881"><ele>7.0</ele><time>2026-05-03T06:20:10.322Z</time></trkpt><trkpt lat="43.583377" lon="10.3521142"><ele>7.0</ele><time>2026-05-03T06:20:11.326Z</time></trkpt><trkpt lat="43.5833243" lon="10.3523408"><ele>7.0</ele><time>2026-05-03T06:20:12.324Z</time></trkpt><trkpt lat="43.5832923" lon="10.3525527"><ele>8.333333333333334</ele><time>2026-05-03T06:20:13.325Z</time></trkpt><trkpt lat="43.5832426" lon="10.3527666"><ele>9.666666666666666</ele><time>2026-05-03T06:20:14.332Z</time></trkpt><trkpt lat="43.5832127" lon="10.3529951"><ele>11.0</ele><time>2026-05-03T06:20:15.323Z</time></trkpt><trkpt lat="43.5831787" lon="10.3532279"><ele>11.0</ele><time>2026-05-03T06:20:16.325Z</time></trkpt><trkpt lat="43.5831111" lon="10.3536958"><ele>11.0</ele><time>2026-05-03T06:20:18.325Z</time></trkpt><trkpt lat="43.5830945" lon="10.3539731"><ele>12.0</ele><time>2026-05-03T06:20:19.339Z</time></trkpt><trkpt lat="43.5830741" lon="10.354237"><ele>13.0</ele><time>2026-05-03T06:20:20.327Z</time></trkpt><trkpt lat="43.5830511" lon="10.3544649"><ele>14.0</ele><time>2026-05-03T06:20:21.331Z</time></trkpt><trkpt lat="43.5830298" lon="10.3546787"><ele>13.5</ele><time>2026-05-03T06:20:22.328Z</time></trkpt><trkpt lat="43.5829927" lon="10.3548829"><ele>13.0</ele><time>2026-05-03T06:20:23.321Z</time></trkpt><trkpt lat="43.5829663" lon="10.3550715"><ele>12.5</ele><time>2026-05-03T06:20:24.331Z</time></trkpt><trkpt lat="43.5829505" lon="10.3552059"><ele>12.0</ele><time>2026-05-03T06:20:25.319Z</time></trkpt><trkpt lat="43.582913" lon="10.3553966"><ele>11.75</ele><time>2026-05-03T06:20:26.314Z</time></trkpt><trkpt lat="43.5828881" lon="10.3555995"><ele>11.5</ele><time>2026-05-03T06:20:27.316Z</time></trkpt><trkpt lat="43.5828502" lon="10.3557776"><ele>11.25</ele><time>2026-05-03T06:20:28.325Z</time></trkpt><trkpt lat="43.5828221" lon="10.3559831"><ele>11.0</ele><time>2026-05-03T06:20:29.334Z</time></trkpt><trkpt lat="43.5827949" lon="10.3561683"><ele>11.333333333333332</ele><time>2026-05-03T06:20:30.328Z</time></trkpt><trkpt lat="43.5827629" lon="10.3564001"><ele>11.666666666666666</ele><time>2026-05-03T06:20:31.332Z</time></trkpt><trkpt lat="43.5827291" lon="10.3566008"><ele>12.0</ele><time>2026-05-03T06:20:32.329Z</time></trkpt><trkpt lat="43.5826935" lon="10.356792"><ele>12.0</ele><time>2026-05-03T06:20:33.327Z</time></trkpt><trkpt lat="43.5826722" lon="10.3569715"><ele>12.0</ele><time>2026-05-03T06:20:34.345Z</time></trkpt><trkpt lat="43.5826428" lon="10.3571462"><ele>12.0</ele><time>2026-05-03T06:20:35.335Z</time></trkpt><trkpt lat="43.582614" lon="10.3573332"><ele>12.0</ele><time>2026-05-03T06:20:36.33Z</time></trkpt><trkpt lat="43.5825788" lon="10.3574667"><ele>12.2</ele><time>2026-05-03T06:20:37.325Z</time></trkpt><trkpt lat="43.5825192" lon="10.3575676"><ele>12.399999999999999</ele><time>2026-05-03T06:20:38.324Z</time></trkpt><trkpt lat="43.5824733" lon="10.3576821"><ele>12.600000000000001</ele><time>2026-05-03T06:20:39.338Z</time></trkpt><trkpt lat="43.5823985" lon="10.3577531"><ele>12.8</ele><time>2026-05-03T06:20:40.334Z</time></trkpt><trkpt lat="43.5822959" lon="10.3578033"><ele>13.0</ele><time>2026-05-03T06:20:41.326Z</time></trkpt><trkpt lat="43.5821757" lon="10.3578071"><ele>13.0</ele><time>2026-05-03T06:20:42.32Z</time></trkpt><trkpt lat="43.5820693" lon="10.3577864"><ele>13.0</ele><time>2026-05-03T06:20:43.32Z</time></trkpt><trkpt lat="43.581972" lon="10.3577273"><ele>13.0</ele><time>2026-05-03T06:20:44.331Z</time></trkpt><trkpt lat="43.5818765" lon="10.3576331"><ele>13.0</ele><time>2026-05-03T06:20:45.321Z</time></trkpt><trkpt lat="43.5817946" lon="10.3575117"><ele>13.0</ele><time>2026-05-03T06:20:46.326Z</time></trkpt><trkpt lat="43.5817482" lon="10.3573298"><ele>13.0</ele><time>2026-05-03T06:20:47.329Z</time></trkpt><trkpt lat="43.5817396" lon="10.3571174"><ele>13.0</ele><time>2026-05-03T06:20:48.335Z</time></trkpt><trkpt lat="43.5817373" lon="10.3569324"><ele>13.0</ele><time>2026-05-03T06:20:49.346Z</time></trkpt><trkpt lat="43.5817852" lon="10.3567698"><ele>13.0</ele><time>2026-05-03T06:20:50.335Z</time></trkpt><trkpt lat="43.5818463" lon="10.3566086"><ele>13.0</ele><time>2026-05-03T06:20:51.333Z</time></trkpt><trkpt lat="43.5819285" lon="10.3564684"><ele>13.0</ele><time>2026-05-03T06:20:52.325Z</time></trkpt><trkpt lat="43.5820189" lon="10.356371"><ele>13.0</ele><time>2026-05-03T06:20:53.327Z</time></trkpt><trkpt lat="43.5821215" lon="10.35631"><ele>13.0</ele><time>2026-05-03T06:20:54.33Z</time></trkpt><trkpt lat="43.5822263" lon="10.3562651"><ele>13.0</ele><time>2026-05-03T06:20:55.316Z</time></trkpt><trkpt lat="43.5823669" lon="10.3562106"><ele>13.0</ele><time>2026-05-03T06:20:56.305Z</time></trkpt><trkpt lat="43.5824728" lon="10.3561874"><ele>13.0</ele><time>2026-05-03T06:20:57.324Z</time></trkpt><trkpt lat="43.5826127" lon="10.3561563"><ele>13.0</ele><time>2026-05-03T06:20:58.308Z</time></trkpt><trkpt lat="43.5827141" lon="10.3561724"><ele>13.0</ele><time>2026-05-03T06:20:59.314Z</time></trkpt><trkpt lat="43.5827787" lon="10.3562394"><ele>13.0</ele><time>2026-05-03T06:21:00.315Z</time></trkpt><trkpt lat="43.5829097" lon="10.3563476"><ele>13.0</ele><time>2026-05-03T06:21:01.308Z</time></trkpt><trkpt lat="43.583041" lon="10.356455"><ele>11.333333333333332</ele><time>2026-05-03T06:21:02.305Z</time></trkpt><trkpt lat="43.5832218" lon="10.3565592"><ele>9.666666666666666</ele><time>2026-05-03T06:21:03.322Z</time></trkpt><trkpt lat="43.5834372" lon="10.3567165"><ele>8.0</ele><time>2026-05-03T06:21:04.329Z</time></trkpt><trkpt lat="43.5835599" lon="10.3568081"><ele>8.333333333333332</ele><time>2026-05-03T06:21:05.314Z</time></trkpt><trkpt lat="43.5837016" lon="10.3568874"><ele>8.666666666666666</ele><time>2026-05-03T06:21:06.316Z</time></trkpt><trkpt lat="43.5838731" lon="10.3569527"><ele>9.0</ele><time>2026-05-03T06:21:07.324Z</time></trkpt><trkpt lat="43.5841092" lon="10.3570494"><ele>9.0</ele><time>2026-05-03T06:21:08.326Z</time></trkpt><trkpt lat="43.5843656" lon="10.3571314"><ele>9.0</ele><time>2026-05-03T06:21:09.335Z</time></trkpt><trkpt lat="43.5846149" lon="10.357206"><ele>10.0</ele><time>2026-05-03T06:21:10.318Z</time></trkpt><trkpt lat="43.5849627" lon="10.3573362"><ele>11.0</ele><time>2026-05-03T06:21:11.336Z</time></trkpt><trkpt lat="43.5852645" lon="10.3574316"><ele>10.0</ele><time>2026-05-03T06:21:12.326Z</time></trkpt><trkpt lat="43.585525" lon="10.3575082"><ele>9.0</ele><time>2026-05-03T06:21:13.322Z</time></trkpt><trkpt lat="43.5858197" lon="10.3576006"><ele>9.0</ele><time>2026-05-03T06:21:14.34Z</time></trkpt><trkpt lat="43.5861041" lon="10.3576608"><ele>9.0</ele><time>2026-05-03T06:21:15.324Z</time></trkpt><trkpt lat="43.5863843" lon="10.3577369"><ele>8.5</ele><time>2026-05-03T06:21:16.324Z</time></trkpt><trkpt lat="43.5866495" lon="10.357781"><ele>8.0</ele><time>2026-05-03T06:21:17.327Z</time></trkpt><trkpt lat="43.5869006" lon="10.3578589"><ele>9.0</ele><time>2026-05-03T06:21:18.326Z</time></trkpt><trkpt lat="43.5871725" lon="10.3579214"><ele>10.0</ele><time>2026-05-03T06:21:19.335Z</time></trkpt><trkpt lat="43.5874815" lon="10.3580153"><ele>10.0</ele><time>2026-05-03T06:21:20.325Z</time></trkpt><trkpt lat="43.5877899" lon="10.3581206"><ele>10.0</ele><time>2026-05-03T06:21:21.328Z</time></trkpt><trkpt lat="43.5880966" lon="10.3581819"><ele>10.0</ele><time>2026-05-03T06:21:22.329Z</time></trkpt><trkpt lat="43.5883731" lon="10.3582742"><ele>10.0</ele><time>2026-05-03T06:21:23.322Z</time></trkpt><trkpt lat="43.5886391" lon="10.3583133"><ele>9.5</ele><time>2026-05-03T06:21:24.337Z</time></trkpt><trkpt lat="43.588902" lon="10.3583404"><ele>9.0</ele><time>2026-05-03T06:21:25.331Z</time></trkpt><trkpt lat="43.5891591" lon="10.3583769"><ele>9.0</ele><time>2026-05-03T06:21:26.33Z</time></trkpt><trkpt lat="43.5894294" lon="10.3583835"><ele>9.0</ele><time>2026-05-03T06:21:27.332Z</time></trkpt><trkpt lat="43.5896769" lon="10.3584228"><ele>10.5</ele><time>2026-05-03T06:21:28.327Z</time></trkpt><trkpt lat="43.5899233" lon="10.3584079"><ele>12.0</ele><time>2026-05-03T06:21:29.331Z</time></trkpt><trkpt lat="43.5901553" lon="10.3583808"><ele>11.5</ele><time>2026-05-03T06:21:30.319Z</time></trkpt><trkpt lat="43.5903911" lon="10.358335"><ele>11.0</ele><time>2026-05-03T06:21:31.32Z</time></trkpt><trkpt lat="43.5906373" lon="10.3583305"><ele>11.0</ele><time>2026-05-03T06:21:32.317Z</time></trkpt><trkpt lat="43.5908819" lon="10.3583194"><ele>11.0</ele><time>2026-05-03T06:21:33.311Z</time></trkpt><trkpt lat="43.5911222" lon="10.3582962"><ele>10.0</ele><time>2026-05-03T06:21:34.334Z</time></trkpt><trkpt lat="43.5913758" lon="10.3582806"><ele>9.0</ele><time>2026-05-03T06:21:35.319Z</time></trkpt><trkpt lat="43.5916154" lon="10.3582678"><ele>9.0</ele><time>2026-05-03T06:21:36.316Z</time></trkpt><trkpt lat="43.5918702" lon="10.3582555"><ele>9.0</ele><time>2026-05-03T06:21:37.316Z</time></trkpt><trkpt lat="43.5921262" lon="10.3582616"><ele>5.0</ele><time>2026-05-03T06:21:38.313Z</time></trkpt><trkpt lat="43.5926372" lon="10.3582355"><ele>5.0</ele><time>2026-05-03T06:21:40.317Z</time></trkpt><trkpt lat="43.5929105" lon="10.3582182"><ele>5.0</ele><time>2026-05-03T06:21:41.318Z</time></trkpt><trkpt lat="43.5931726" lon="10.3581878"><ele>5.0</ele><time>2026-05-03T06:21:42.326Z</time></trkpt><trkpt lat="43.5934243" lon="10.3581286"><ele>5.0</ele><time>2026-05-03T06:21:43.331Z</time></trkpt><trkpt lat="43.5936718" lon="10.3580951"><ele>3.5</ele><time>2026-05-03T06:21:44.342Z</time></trkpt><trkpt lat="43.5939246" lon="10.3580472"><ele>2.0</ele><time>2026-05-03T06:21:45.331Z</time></trkpt><trkpt lat="43.594155" lon="10.3580209"><ele>2.0</ele><time>2026-05-03T06:21:46.33Z</time></trkpt><trkpt lat="43.5944106" lon="10.3579951"><ele>2.0</ele><time>2026-05-03T06:21:47.331Z</time></trkpt><trkpt lat="43.5946766" lon="10.3579912"><ele>2.5</ele><time>2026-05-03T06:21:48.335Z</time></trkpt><trkpt lat="43.5949338" lon="10.3579584"><ele>3.0</ele><time>2026-05-03T06:21:49.345Z</time></trkpt><trkpt lat="43.5951759" lon="10.3579311"><ele>2.0</ele><time>2026-05-03T06:21:50.329Z</time></trkpt><trkpt lat="43.5954198" lon="10.3578873"><ele>1.0</ele><time>2026-05-03T06:21:51.332Z</time></trkpt><trkpt lat="43.5956764" lon="10.3578585"><ele>1.0</ele><time>2026-05-03T06:21:52.327Z</time></trkpt><trkpt lat="43.5958902" lon="10.3578495"><ele>1.0</ele><time>2026-05-03T06:21:53.33Z</time></trkpt><trkpt lat="43.5961601" lon="10.3578457"><ele>1.0</ele><time>2026-05-03T06:21:54.33Z</time></trkpt><trkpt lat="43.596417" lon="10.3578238"><ele>1.0</ele><time>2026-05-03T06:21:55.33Z</time></trkpt><trkpt lat="43.5966941" lon="10.3578082"><ele>1.0</ele><time>2026-05-03T06:21:56.325Z</time></trkpt><trkpt lat="43.5969394" lon="10.3577861"><ele>1.0</ele><time>2026-05-03T06:21:57.329Z</time></trkpt><trkpt lat="43.5971659" lon="10.3577724"><ele>2.0</ele><time>2026-05-03T06:21:58.332Z</time></trkpt><trkpt lat="43.5974064" lon="10.3577495"><ele>3.0</ele><time>2026-05-03T06:21:59.33Z</time></trkpt><trkpt lat="43.5976255" lon="10.3577364"><ele>3.0</ele><time>2026-05-03T06:22:00.327Z</time></trkpt><trkpt lat="43.5978587" lon="10.3576936"><ele>3.0</ele><time>2026-05-03T06:22:01.329Z</time></trkpt><trkpt lat="43.5980993" lon="10.3576716"><ele>3.0</ele><time>2026-05-03T06:22:02.33Z</time></trkpt><trkpt lat="43.5983283" lon="10.3576391"><ele>3.0</ele><time>2026-05-03T06:22:03.329Z</time></trkpt><trkpt lat="43.5985781" lon="10.3576015"><ele>1.0</ele><time>2026-05-03T06:22:04.326Z</time></trkpt><trkpt lat="43.5988385" lon="10.3575796"><ele>-1.0</ele><time>2026-05-03T06:22:05.333Z</time></trkpt><trkpt lat="43.5990875" lon="10.3575637"><ele>-1.0</ele><time>2026-05-03T06:22:06.328Z</time></trkpt><trkpt lat="43.599338" lon="10.35755"><ele>-1.0</ele><time>2026-05-03T06:22:07.33Z</time></trkpt><trkpt lat="43.5995835" lon="10.357542"><ele>-0.6666666666666666</ele><time>2026-05-03T06:22:08.326Z</time></trkpt><trkpt lat="43.5997839" lon="10.3575152"><ele>-0.3333333333333333</ele><time>2026-05-03T06:22:09.331Z</time></trkpt><trkpt lat="43.5999922" lon="10.3574749"><ele>0.0</ele><time>2026-05-03T06:22:10.326Z</time></trkpt><trkpt lat="43.6002159" lon="10.3574645"><ele>-1.0</ele><time>2026-05-03T06:22:11.327Z</time></trkpt><trkpt lat="43.6004361" lon="10.3574401"><ele>-2.0</ele><time>2026-05-03T06:22:12.329Z</time></trkpt><trkpt lat="43.6006375" lon="10.3574179"><ele>-3.0</ele><time>2026-05-03T06:22:13.328Z</time></trkpt><trkpt lat="43.6008338" lon="10.357385"><ele>-3.0</ele><time>2026-05-03T06:22:14.328Z</time></trkpt><trkpt lat="43.6010164" lon="10.3573684"><ele>-3.0</ele><time>2026-05-03T06:22:15.328Z</time></trkpt><trkpt lat="43.6011989" lon="10.3573451"><ele>-3.0</ele><time>2026-05-03T06:22:16.329Z</time></trkpt><trkpt lat="43.6013954" lon="10.357339"><ele>-1.3333333333333335</ele><time>2026-05-03T06:22:17.33Z</time></trkpt><trkpt lat="43.6015889" lon="10.3573496"><ele>0.33333333333333326</ele><time>2026-05-03T06:22:18.325Z</time></trkpt><trkpt lat="43.6017507" lon="10.3573148"><ele>2.0</ele><time>2026-05-03T06:22:19.322Z</time></trkpt><trkpt lat="43.6019405" lon="10.3573271"><ele>1.3333333333333333</ele><time>2026-05-03T06:22:20.324Z</time></trkpt><trkpt lat="43.6021056" lon="10.3573244"><ele>0.6666666666666666</ele><time>2026-05-03T06:22:21.322Z</time></trkpt><trkpt lat="43.6022605" lon="10.3573163"><ele>0.0</ele><time>2026-05-03T06:22:22.318Z</time></trkpt><trkpt lat="43.6024275" lon="10.3573165"><ele>0.0</ele><time>2026-05-03T06:22:23.332Z</time></trkpt><trkpt lat="43.6025897" lon="10.3572941"><ele>0.0</ele><time>2026-05-03T06:22:24.336Z</time></trkpt><trkpt lat="43.6027536" lon="10.3572522"><ele>0.0</ele><time>2026-05-03T06:22:25.33Z</time></trkpt><trkpt lat="43.6029104" lon="10.3572427"><ele>0.0</ele><time>2026-05-03T06:22:26.33Z</time></trkpt><trkpt lat="43.6030793" lon="10.3572229"><ele>0.0</ele><time>2026-05-03T06:22:27.332Z</time></trkpt><trkpt lat="43.6032666" lon="10.3572107"><ele>0.0</ele><time>2026-05-03T06:22:28.333Z</time></trkpt><trkpt lat="43.6034474" lon="10.3571911"><ele>1.0</ele><time>2026-05-03T06:22:29.332Z</time></trkpt><trkpt lat="43.6036179" lon="10.3571531"><ele>2.0</ele><time>2026-05-03T06:22:30.336Z</time></trkpt><trkpt lat="43.6037936" lon="10.3571914"><ele>3.0</ele><time>2026-05-03T06:22:31.326Z</time></trkpt><trkpt lat="43.6039146" lon="10.357171"><ele>3.0</ele><time>2026-05-03T06:22:32.337Z</time></trkpt><trkpt lat="43.6040707" lon="10.3571234"><ele>3.0</ele><time>2026-05-03T06:22:33.334Z</time></trkpt><trkpt lat="43.6042218" lon="10.3571167"><ele>3.0</ele><time>2026-05-03T06:22:34.337Z</time></trkpt><trkpt lat="43.6043461" lon="10.3571116"><ele>3.0</ele><time>2026-05-03T06:22:35.337Z</time></trkpt><trkpt lat="43.6044967" lon="10.3571113"><ele>2.5</ele><time>2026-05-03T06:22:36.343Z</time></trkpt><trkpt lat="43.6046329" lon="10.3571113"><ele>2.0</ele><time>2026-05-03T06:22:37.335Z</time></trkpt><trkpt lat="43.6047948" lon="10.3571056"><ele>1.5</ele><time>2026-05-03T06:22:38.335Z</time></trkpt><trkpt lat="43.604905" lon="10.3571141"><ele>1.0</ele><time>2026-05-03T06:22:39.336Z</time></trkpt><trkpt lat="43.6050098" lon="10.357097"><ele>1.0</ele><time>2026-05-03T06:22:40.335Z</time></trkpt><trkpt lat="43.6051326" lon="10.3571052"><ele>1.0</ele><time>2026-05-03T06:22:41.335Z</time></trkpt><trkpt lat="43.6052311" lon="10.357108"><ele>1.0</ele><time>2026-05-03T06:22:42.335Z</time></trkpt><trkpt lat="43.6053293" lon="10.3571107"><ele>1.0</ele><time>2026-05-03T06:22:43.336Z</time></trkpt><trkpt lat="43.6054259" lon="10.3571252"><ele>1.0</ele><time>2026-05-03T06:22:44.336Z</time></trkpt><trkpt lat="43.6055087" lon="10.3571639"><ele>0.20000000000000007</ele><time>2026-05-03T06:22:45.338Z</time></trkpt><trkpt lat="43.6055875" lon="10.3572133"><ele>-0.5999999999999999</ele><time>2026-05-03T06:22:46.33Z</time></trkpt><trkpt lat="43.6056691" lon="10.357283"><ele>-1.4</ele><time>2026-05-03T06:22:47.333Z</time></trkpt><trkpt lat="43.6057383" lon="10.3573921"><ele>-2.1999999999999997</ele><time>2026-05-03T06:22:48.333Z</time></trkpt><trkpt lat="43.6058053" lon="10.3575157"><ele>-3.0</ele><time>2026-05-03T06:22:49.332Z</time></trkpt><trkpt lat="43.6058592" lon="10.3576476"><ele>-3.0</ele><time>2026-05-03T06:22:50.328Z</time></trkpt><trkpt lat="43.6058892" lon="10.3577874"><ele>-3.0</ele><time>2026-05-03T06:22:51.326Z</time></trkpt><trkpt lat="43.6058974" lon="10.3579288"><ele>-3.0</ele><time>2026-05-03T06:22:52.318Z</time></trkpt><trkpt lat="43.6059205" lon="10.3580663"><ele>-3.0</ele><time>2026-05-03T06:22:53.318Z</time></trkpt><trkpt lat="43.6058916" lon="10.3581946"><ele>-3.0</ele><time>2026-05-03T06:22:54.322Z</time></trkpt><trkpt lat="43.6058651" lon="10.3583275"><ele>-3.0</ele><time>2026-05-03T06:22:55.329Z</time></trkpt><trkpt lat="43.6058147" lon="10.3584668"><ele>-3.0</ele><time>2026-05-03T06:22:56.328Z</time></trkpt><trkpt lat="43.6057441" lon="10.3585641"><ele>-3.0</ele><time>2026-05-03T06:22:57.323Z</time></trkpt><trkpt lat="43.6056548" lon="10.358634"><ele>-3.0</ele><time>2026-05-03T06:22:58.328Z</time></trkpt><trkpt lat="43.6055589" lon="10.3586682"><ele>-3.0</ele><time>2026-05-03T06:22:59.324Z</time></trkpt><trkpt lat="43.6054567" lon="10.3586671"><ele>-3.0</ele><time>2026-05-03T06:23:00.332Z</time></trkpt><trkpt lat="43.6053509" lon="10.3586438"><ele>-3.0</ele><time>2026-05-03T06:23:01.326Z</time></trkpt><trkpt lat="43.6052529" lon="10.3586068"><ele>-3.0</ele><time>2026-05-03T06:23:02.329Z</time></trkpt><trkpt lat="43.6051535" lon="10.358559"><ele>-3.0</ele><time>2026-05-03T06:23:03.324Z</time></trkpt><trkpt lat="43.6050569" lon="10.3584849"><ele>-3.0</ele><time>2026-05-03T06:23:04.329Z</time></trkpt><trkpt lat="43.6049562" lon="10.3583888"><ele>-3.25</ele><time>2026-05-03T06:23:05.331Z</time></trkpt><trkpt lat="43.6048659" lon="10.3582779"><ele>-3.5</ele><time>2026-05-03T06:23:06.333Z</time></trkpt><trkpt lat="43.6047747" lon="10.3581505"><ele>-3.75</ele><time>2026-05-03T06:23:07.338Z</time></trkpt><trkpt lat="43.6046986" lon="10.3580323"><ele>-4.0</ele><time>2026-05-03T06:23:08.329Z</time></trkpt><trkpt lat="43.6046183" lon="10.3578846"><ele>-3.25</ele><time>2026-05-03T06:23:09.334Z</time></trkpt><trkpt lat="43.6045552" lon="10.3577381"><ele>-2.5</ele><time>2026-05-03T06:23:10.328Z</time></trkpt><trkpt lat="43.6044982" lon="10.3575857"><ele>-1.75</ele><time>2026-05-03T06:23:11.329Z</time></trkpt><trkpt lat="43.6044481" lon="10.3574308"><ele>-1.0</ele><time>2026-05-03T06:23:12.327Z</time></trkpt><trkpt lat="43.6044106" lon="10.3572676"><ele>0.0</ele><time>2026-05-03T06:23:13.327Z</time></trkpt><trkpt lat="43.6043863" lon="10.3570927"><ele>1.0</ele><time>2026-05-03T06:23:14.321Z</time></trkpt><trkpt lat="43.6043667" lon="10.3568964"><ele>2.0</ele><time>2026-05-03T06:23:15.326Z</time></trkpt><trkpt lat="43.6043647" lon="10.3567257"><ele>3.0</ele><time>2026-05-03T06:23:16.324Z</time></trkpt><trkpt lat="43.6043777" lon="10.3565333"><ele>2.75</ele><time>2026-05-03T06:23:17.321Z</time></trkpt><trkpt lat="43.6044038" lon="10.3563679"><ele>2.5</ele><time>2026-05-03T06:23:18.322Z</time></trkpt><trkpt lat="43.6044442" lon="10.3562281"><ele>2.25</ele><time>2026-05-03T06:23:19.324Z</time></trkpt><trkpt lat="43.6044819" lon="10.3560842"><ele>2.0</ele><time>2026-05-03T06:23:20.323Z</time></trkpt><trkpt lat="43.6045269" lon="10.3559498"><ele>2.0</ele><time>2026-05-03T06:23:21.325Z</time></trkpt><trkpt lat="43.6045929" lon="10.3558196"><ele>2.0</ele><time>2026-05-03T06:23:22.324Z</time></trkpt><trkpt lat="43.6046658" lon="10.3556747"><ele>2.0</ele><time>2026-05-03T06:23:23.325Z</time></trkpt><trkpt lat="43.6047346" lon="10.3555305"><ele>2.0</ele><time>2026-05-03T06:23:24.33Z</time></trkpt><trkpt lat="43.6048022" lon="10.3553941"><ele>1.4000000000000001</ele><time>2026-05-03T06:23:25.335Z</time></trkpt><trkpt lat="43.6048605" lon="10.3552673"><ele>0.8000000000000002</ele><time>2026-05-03T06:23:26.332Z</time></trkpt><trkpt lat="43.604913" lon="10.3551424"><ele>0.19999999999999996</ele><time>2026-05-03T06:23:27.333Z</time></trkpt><trkpt lat="43.6049552" lon="10.3550194"><ele>-0.4</ele><time>2026-05-03T06:23:28.338Z</time></trkpt><trkpt lat="43.6049877" lon="10.3548887"><ele>-1.0</ele><time>2026-05-03T06:23:29.335Z</time></trkpt><trkpt lat="43.6050177" lon="10.3547423"><ele>-1.1666666666666665</ele><time>2026-05-03T06:23:30.338Z</time></trkpt><trkpt lat="43.6050413" lon="10.3545967"><ele>-1.3333333333333333</ele><time>2026-05-03T06:23:31.335Z</time></trkpt><trkpt lat="43.6050608" lon="10.3544758"><ele>-1.5</ele><time>2026-05-03T06:23:32.338Z</time></trkpt><trkpt lat="43.6050686" lon="10.3543656"><ele>-1.6666666666666665</ele><time>2026-05-03T06:23:33.336Z</time></trkpt><trkpt lat="43.6050738" lon="10.3542555"><ele>-1.8333333333333333</ele><time>2026-05-03T06:23:34.331Z</time></trkpt><trkpt lat="43.6050766" lon="10.3541518"><ele>-2.0</ele><time>2026-05-03T06:23:35.326Z</time></trkpt><trkpt lat="43.6051033" lon="10.3540106"><ele>-2.0</ele><time>2026-05-03T06:23:37.331Z</time></trkpt><trkpt lat="43.6051589" lon="10.3539513"><ele>-2.0</ele><time>2026-05-03T06:23:39.334Z</time></trkpt><trkpt lat="43.605246" lon="10.3539442"><ele>-2.0</ele><time>2026-05-03T06:23:46.333Z</time></trkpt><trkpt lat="43.6053677" lon="10.353836"><ele>-2.0</ele><time>2026-05-03T06:23:48.334Z</time></trkpt><trkpt lat="43.6053892" lon="10.3537215"><ele>-2.0</ele><time>2026-05-03T06:23:49.334Z</time></trkpt><trkpt lat="43.6054433" lon="10.3535757"><ele>-1.0</ele><time>2026-05-03T06:23:50.336Z</time></trkpt><trkpt lat="43.6054902" lon="10.3534183"><ele>0.0</ele><time>2026-05-03T06:23:51.317Z</time></trkpt><trkpt lat="43.60553" lon="10.3532971"><ele>1.0</ele><time>2026-05-03T06:23:52.329Z</time></trkpt><trkpt lat="43.6056166" lon="10.3531643"><ele>2.0</ele><time>2026-05-03T06:23:53.322Z</time></trkpt><trkpt lat="43.6057123" lon="10.3530966"><ele>2.0</ele><time>2026-05-03T06:23:54.325Z</time></trkpt><trkpt lat="43.6058224" lon="10.3530446"><ele>2.0</ele><time>2026-05-03T06:23:55.322Z</time></trkpt><trkpt lat="43.6059012" lon="10.3529703"><ele>2.0</ele><time>2026-05-03T06:23:56.32Z</time></trkpt><trkpt lat="43.605971" lon="10.3529041"><ele>2.0</ele><time>2026-05-03T06:23:57.317Z</time></trkpt><trkpt lat="43.6061304" lon="10.3529011"><ele>1.75</ele><time>2026-05-03T06:23:58.319Z</time></trkpt><trkpt lat="43.6062442" lon="10.3528419"><ele>1.5</ele><time>2026-05-03T06:23:59.311Z</time></trkpt><trkpt lat="43.6063599" lon="10.3527822"><ele>1.25</ele><time>2026-05-03T06:24:00.319Z</time></trkpt><trkpt lat="43.6065015" lon="10.3527496"><ele>1.0</ele><time>2026-05-03T06:24:01.332Z</time></trkpt><trkpt lat="43.6066318" lon="10.3527214"><ele>2.0</ele><time>2026-05-03T06:24:02.327Z</time></trkpt><trkpt lat="43.6070623" lon="10.3529755"><ele>3.0</ele><time>2026-05-03T06:24:03.337Z</time></trkpt><trkpt lat="43.6073528" lon="10.3531041"><ele>4.0</ele><time>2026-05-03T06:24:04.333Z</time></trkpt><trkpt lat="43.6076182" lon="10.3532078"><ele>4.333333333333333</ele><time>2026-05-03T06:24:05.338Z</time></trkpt><trkpt lat="43.6078379" lon="10.3532562"><ele>4.666666666666667</ele><time>2026-05-03T06:24:06.332Z</time></trkpt><trkpt lat="43.6080383" lon="10.35332"><ele>5.0</ele><time>2026-05-03T06:24:07.321Z</time></trkpt><trkpt lat="43.6081959" lon="10.3533247"><ele>5.0</ele><time>2026-05-03T06:24:08.297Z</time></trkpt><trkpt lat="43.6083596" lon="10.3533377"><ele>5.0</ele><time>2026-05-03T06:24:09.31Z</time></trkpt><trkpt lat="43.6085392" lon="10.3533197"><ele>5.0</ele><time>2026-05-03T06:24:10.299Z</time></trkpt><trkpt lat="43.6087178" lon="10.3533272"><ele>5.0</ele><time>2026-05-03T06:24:11.285Z</time></trkpt><trkpt lat="43.6089007" lon="10.3533446"><ele>5.0</ele><time>2026-05-03T06:24:12.275Z</time></trkpt><trkpt lat="43.6090831" lon="10.3533702"><ele>5.0</ele><time>2026-05-03T06:24:13.273Z</time></trkpt><trkpt lat="43.6093232" lon="10.3534122"><ele>5.0</ele><time>2026-05-03T06:24:14.295Z</time></trkpt><trkpt lat="43.6095334" lon="10.3534198"><ele>5.0</ele><time>2026-05-03T06:24:15.29Z</time></trkpt><trkpt lat="43.6097471" lon="10.3534404"><ele>5.0</ele><time>2026-05-03T06:24:16.298Z</time></trkpt><trkpt lat="43.6099293" lon="10.3534413"><ele>5.0</ele><time>2026-05-03T06:24:17.306Z</time></trkpt><trkpt lat="43.6101343" lon="10.3534395"><ele>5.0</ele><time>2026-05-03T06:24:18.304Z</time></trkpt><trkpt lat="43.6103476" lon="10.3534325"><ele>5.0</ele><time>2026-05-03T06:24:19.308Z</time></trkpt><trkpt lat="43.6105391" lon="10.3534181"><ele>4.666666666666667</ele><time>2026-05-03T06:24:20.308Z</time></trkpt><trkpt lat="43.6107192" lon="10.3533931"><ele>4.333333333333333</ele><time>2026-05-03T06:24:21.314Z</time></trkpt><trkpt lat="43.6108944" lon="10.3533172"><ele>4.0</ele><time>2026-05-03T06:24:22.314Z</time></trkpt><trkpt lat="43.6110706" lon="10.3533387"><ele>3.0</ele><time>2026-05-03T06:24:23.315Z</time></trkpt><trkpt lat="43.6112357" lon="10.3533576"><ele>2.0</ele><time>2026-05-03T06:24:24.314Z</time></trkpt><trkpt lat="43.6114085" lon="10.3533975"><ele>1.0</ele><time>2026-05-03T06:24:25.309Z</time></trkpt><trkpt lat="43.6115885" lon="10.3534083"><ele>1.0</ele><time>2026-05-03T06:24:26.307Z</time></trkpt><trkpt lat="43.6117819" lon="10.3533512"><ele>1.0</ele><time>2026-05-03T06:24:27.29Z</time></trkpt><trkpt lat="43.6120026" lon="10.3533509"><ele>1.0</ele><time>2026-05-03T06:24:28.305Z</time></trkpt><trkpt lat="43.6122272" lon="10.3533492"><ele>1.6666666666666665</ele><time>2026-05-03T06:24:29.312Z</time></trkpt><trkpt lat="43.6124505" lon="10.3533723"><ele>2.3333333333333335</ele><time>2026-05-03T06:24:30.313Z</time></trkpt><trkpt lat="43.6126742" lon="10.3533857"><ele>3.0</ele><time>2026-05-03T06:24:31.311Z</time></trkpt><trkpt lat="43.6128984" lon="10.3533631"><ele>4.0</ele><time>2026-05-03T06:24:32.313Z</time></trkpt><trkpt lat="43.6131329" lon="10.353364"><ele>5.0</ele><time>2026-05-03T06:24:33.308Z</time></trkpt><trkpt lat="43.6133596" lon="10.3533553"><ele>5.0</ele><time>2026-05-03T06:24:34.303Z</time></trkpt><trkpt lat="43.6135784" lon="10.3533583"><ele>5.0</ele><time>2026-05-03T06:24:35.306Z</time></trkpt><trkpt lat="43.6137984" lon="10.3533651"><ele>5.0</ele><time>2026-05-03T06:24:36.306Z</time></trkpt><trkpt lat="43.6140406" lon="10.3533677"><ele>5.5</ele><time>2026-05-03T06:24:37.309Z</time></trkpt><trkpt lat="43.6142728" lon="10.3533733"><ele>6.0</ele><time>2026-05-03T06:24:38.301Z</time></trkpt><trkpt lat="43.614495" lon="10.353351"><ele>5.0</ele><time>2026-05-03T06:24:39.302Z</time></trkpt><trkpt lat="43.6147035" lon="10.3533551"><ele>4.0</ele><time>2026-05-03T06:24:40.31Z</time></trkpt><trkpt lat="43.6149091" lon="10.3533659"><ele>3.0</ele><time>2026-05-03T06:24:41.305Z</time></trkpt><trkpt lat="43.615119" lon="10.3534045"><ele>4.333333333333334</ele><time>2026-05-03T06:24:42.306Z</time></trkpt><trkpt lat="43.615335" lon="10.3534078"><ele>5.666666666666667</ele><time>2026-05-03T06:24:43.307Z</time></trkpt><trkpt lat="43.61553" lon="10.3534123"><ele>7.0</ele><time>2026-05-03T06:24:44.303Z</time></trkpt><trkpt lat="43.6156764" lon="10.3534163"><ele>7.0</ele><time>2026-05-03T06:24:45.308Z</time></trkpt><trkpt lat="43.6158903" lon="10.3534318"><ele>7.0</ele><time>2026-05-03T06:24:46.306Z</time></trkpt><trkpt lat="43.6160921" lon="10.3534265"><ele>7.0</ele><time>2026-05-03T06:24:47.307Z</time></trkpt><trkpt lat="43.6162919" lon="10.3534105"><ele>6.333333333333334</ele><time>2026-05-03T06:24:48.309Z</time></trkpt><trkpt lat="43.6164724" lon="10.3534269"><ele>5.666666666666667</ele><time>2026-05-03T06:24:49.307Z</time></trkpt><trkpt lat="43.6166957" lon="10.3534493"><ele>5.0</ele><time>2026-05-03T06:24:50.305Z</time></trkpt><trkpt lat="43.6169158" lon="10.3534524"><ele>4.0</ele><time>2026-05-03T06:24:51.304Z</time></trkpt><trkpt lat="43.6171311" lon="10.3534876"><ele>3.0</ele><time>2026-05-03T06:24:52.305Z</time></trkpt><trkpt lat="43.617363" lon="10.3535193"><ele>3.0</ele><time>2026-05-03T06:24:53.306Z</time></trkpt><trkpt lat="43.6175946" lon="10.3535165"><ele>3.0</ele><time>2026-05-03T06:24:54.308Z</time></trkpt><trkpt lat="43.6178335" lon="10.3535233"><ele>4.0</ele><time>2026-05-03T06:24:55.306Z</time></trkpt><trkpt lat="43.6180651" lon="10.3535178"><ele>5.0</ele><time>2026-05-03T06:24:56.306Z</time></trkpt><trkpt lat="43.6182892" lon="10.3535168"><ele>5.0</ele><time>2026-05-03T06:24:57.306Z</time></trkpt><trkpt lat="43.6185081" lon="10.3535022"><ele>5.0</ele><time>2026-05-03T06:24:58.306Z</time></trkpt><trkpt lat="43.6187212" lon="10.3534824"><ele>5.0</ele><time>2026-05-03T06:24:59.307Z</time></trkpt><trkpt lat="43.6189264" lon="10.3534626"><ele>4.666666666666667</ele><time>2026-05-03T06:25:00.303Z</time></trkpt><trkpt lat="43.6191408" lon="10.3534537"><ele>4.333333333333333</ele><time>2026-05-03T06:25:01.305Z</time></trkpt><trkpt lat="43.6193499" lon="10.3534525"><ele>4.0</ele><time>2026-05-03T06:25:02.313Z</time></trkpt><trkpt lat="43.6195902" lon="10.353457"><ele>4.0</ele><time>2026-05-03T06:25:03.312Z</time></trkpt><trkpt lat="43.6198037" lon="10.3534557"><ele>4.0</ele><time>2026-05-03T06:25:04.308Z</time></trkpt><trkpt lat="43.6200089" lon="10.3534456"><ele>4.0</ele><time>2026-05-03T06:25:05.31Z</time></trkpt><trkpt lat="43.6202216" lon="10.3534598"><ele>3.0</ele><time>2026-05-03T06:25:06.31Z</time></trkpt><trkpt lat="43.6204492" lon="10.3534562"><ele>2.0</ele><time>2026-05-03T06:25:07.31Z</time></trkpt><trkpt lat="43.6206646" lon="10.3534797"><ele>1.0</ele><time>2026-05-03T06:25:08.312Z</time></trkpt><trkpt lat="43.6208819" lon="10.3534951"><ele>1.0</ele><time>2026-05-03T06:25:09.312Z</time></trkpt><trkpt lat="43.6211221" lon="10.3535348"><ele>1.0</ele><time>2026-05-03T06:25:10.33Z</time></trkpt><trkpt lat="43.6213648" lon="10.3535455"><ele>2.0</ele><time>2026-05-03T06:25:11.333Z</time></trkpt><trkpt lat="43.621607" lon="10.3535611"><ele>3.0</ele><time>2026-05-03T06:25:12.331Z</time></trkpt><trkpt lat="43.6218451" lon="10.3535755"><ele>2.6666666666666665</ele><time>2026-05-03T06:25:13.329Z</time></trkpt><trkpt lat="43.6220635" lon="10.3536123"><ele>2.333333333333333</ele><time>2026-05-03T06:25:14.323Z</time></trkpt><trkpt lat="43.6222863" lon="10.353626"><ele>2.0</ele><time>2026-05-03T06:25:15.33Z</time></trkpt><trkpt lat="43.6225191" lon="10.3536361"><ele>2.0</ele><time>2026-05-03T06:25:16.328Z</time></trkpt><trkpt lat="43.6227658" lon="10.3536358"><ele>2.0</ele><time>2026-05-03T06:25:17.323Z</time></trkpt><trkpt lat="43.622965" lon="10.3536528"><ele>2.0</ele><time>2026-05-03T06:25:18.329Z</time></trkpt><trkpt lat="43.6231836" lon="10.3536395"><ele>2.0</ele><time>2026-05-03T06:25:19.323Z</time></trkpt><trkpt lat="43.6234167" lon="10.3536474"><ele>2.0</ele><time>2026-05-03T06:25:20.315Z</time></trkpt><trkpt lat="43.6236514" lon="10.3536362"><ele>1.5</ele><time>2026-05-03T06:25:21.314Z</time></trkpt><trkpt lat="43.6238752" lon="10.3536594"><ele>1.0</ele><time>2026-05-03T06:25:22.315Z</time></trkpt><trkpt lat="43.6241041" lon="10.3536693"><ele>1.0</ele><time>2026-05-03T06:25:23.314Z</time></trkpt><trkpt lat="43.6243101" lon="10.3536851"><ele>1.0</ele><time>2026-05-03T06:25:24.314Z</time></trkpt><trkpt lat="43.6245331" lon="10.3536789"><ele>1.0</ele><time>2026-05-03T06:25:25.314Z</time></trkpt><trkpt lat="43.6247601" lon="10.3537125"><ele>2.0</ele><time>2026-05-03T06:25:26.315Z</time></trkpt><trkpt lat="43.6249943" lon="10.3537185"><ele>3.0</ele><time>2026-05-03T06:25:27.319Z</time></trkpt><trkpt lat="43.625214" lon="10.353743"><ele>2.0</ele><time>2026-05-03T06:25:28.32Z</time></trkpt><trkpt lat="43.6254481" lon="10.3537437"><ele>1.0</ele><time>2026-05-03T06:25:29.318Z</time></trkpt><trkpt lat="43.6256698" lon="10.3537429"><ele>1.0</ele><time>2026-05-03T06:25:30.319Z</time></trkpt><trkpt lat="43.6258774" lon="10.3537602"><ele>1.0</ele><time>2026-05-03T06:25:31.321Z</time></trkpt><trkpt lat="43.6260958" lon="10.3537635"><ele>1.0</ele><time>2026-05-03T06:25:32.323Z</time></trkpt><trkpt lat="43.6263156" lon="10.3537501"><ele>1.3333333333333333</ele><time>2026-05-03T06:25:33.322Z</time></trkpt><trkpt lat="43.6265406" lon="10.3537771"><ele>1.6666666666666665</ele><time>2026-05-03T06:25:34.315Z</time></trkpt><trkpt lat="43.6267456" lon="10.3537849"><ele>2.0</ele><time>2026-05-03T06:25:35.319Z</time></trkpt><trkpt lat="43.6269589" lon="10.3537796"><ele>2.333333333333333</ele><time>2026-05-03T06:25:36.327Z</time></trkpt><trkpt lat="43.6271606" lon="10.3537955"><ele>2.6666666666666665</ele><time>2026-05-03T06:25:37.327Z</time></trkpt><trkpt lat="43.6273603" lon="10.3537873"><ele>3.0</ele><time>2026-05-03T06:25:38.321Z</time></trkpt><trkpt lat="43.6275869" lon="10.3538144"><ele>3.0</ele><time>2026-05-03T06:25:39.327Z</time></trkpt><trkpt lat="43.6278154" lon="10.3538346"><ele>3.0</ele><time>2026-05-03T06:25:40.33Z</time></trkpt><trkpt lat="43.6280487" lon="10.3538334"><ele>3.0</ele><time>2026-05-03T06:25:41.332Z</time></trkpt><trkpt lat="43.6282788" lon="10.3538346"><ele>3.0</ele><time>2026-05-03T06:25:42.332Z</time></trkpt><trkpt lat="43.6284988" lon="10.3538329"><ele>3.0</ele><time>2026-05-03T06:25:43.333Z</time></trkpt><trkpt lat="43.6287001" lon="10.3537995"><ele>3.0</ele><time>2026-05-03T06:25:44.33Z</time></trkpt><trkpt lat="43.6289219" lon="10.3537989"><ele>3.0</ele><time>2026-05-03T06:25:45.332Z</time></trkpt><trkpt lat="43.6291592" lon="10.3537904"><ele>3.0</ele><time>2026-05-03T06:25:46.329Z</time></trkpt><trkpt lat="43.629397" lon="10.3537872"><ele>3.0</ele><time>2026-05-03T06:25:47.325Z</time></trkpt><trkpt lat="43.629624" lon="10.353808"><ele>1.6666666666666667</ele><time>2026-05-03T06:25:48.33Z</time></trkpt><trkpt lat="43.6298397" lon="10.353818"><ele>0.33333333333333337</ele><time>2026-05-03T06:25:49.327Z</time></trkpt><trkpt lat="43.6300624" lon="10.3538424"><ele>-1.0</ele><time>2026-05-03T06:25:50.327Z</time></trkpt><trkpt lat="43.6302751" lon="10.3538458"><ele>0.0</ele><time>2026-05-03T06:25:51.328Z</time></trkpt><trkpt lat="43.6304929" lon="10.3538415"><ele>1.0</ele><time>2026-05-03T06:25:52.33Z</time></trkpt><trkpt lat="43.630703" lon="10.3538323"><ele>2.0</ele><time>2026-05-03T06:25:53.329Z</time></trkpt><trkpt lat="43.6309219" lon="10.3538446"><ele>2.0</ele><time>2026-05-03T06:25:54.33Z</time></trkpt><trkpt lat="43.6311272" lon="10.3538527"><ele>2.0</ele><time>2026-05-03T06:25:55.332Z</time></trkpt><trkpt lat="43.6313421" lon="10.3538614"><ele>2.0</ele><time>2026-05-03T06:25:56.323Z</time></trkpt><trkpt lat="43.6315581" lon="10.3538688"><ele>1.5</ele><time>2026-05-03T06:25:57.323Z</time></trkpt><trkpt lat="43.6317991" lon="10.3538931"><ele>1.0</ele><time>2026-05-03T06:25:58.324Z</time></trkpt><trkpt lat="43.6320103" lon="10.3539196"><ele>0.6666666666666666</ele><time>2026-05-03T06:25:59.322Z</time></trkpt><trkpt lat="43.6322282" lon="10.3539166"><ele>0.3333333333333333</ele><time>2026-05-03T06:26:00.323Z</time></trkpt><trkpt lat="43.6324364" lon="10.3539366"><ele>0.0</ele><time>2026-05-03T06:26:01.338Z</time></trkpt><trkpt lat="43.6326595" lon="10.3539486"><ele>1.0</ele><time>2026-05-03T06:26:02.329Z</time></trkpt><trkpt lat="43.6328583" lon="10.3539704"><ele>2.0</ele><time>2026-05-03T06:26:03.333Z</time></trkpt><trkpt lat="43.6330534" lon="10.3539728"><ele>3.0</ele><time>2026-05-03T06:26:04.331Z</time></trkpt><trkpt lat="43.6332694" lon="10.3539671"><ele>3.0</ele><time>2026-05-03T06:26:05.335Z</time></trkpt><trkpt lat="43.633487" lon="10.3539783"><ele>3.0</ele><time>2026-05-03T06:26:06.329Z</time></trkpt><trkpt lat="43.6337144" lon="10.3539843"><ele>3.0</ele><time>2026-05-03T06:26:07.33Z</time></trkpt><trkpt lat="43.633899" lon="10.3540016"><ele>3.0</ele><time>2026-05-03T06:26:08.321Z</time></trkpt><trkpt lat="43.6341012" lon="10.3539999"><ele>3.0</ele><time>2026-05-03T06:26:09.332Z</time></trkpt><trkpt lat="43.6343045" lon="10.3539929"><ele>3.0</ele><time>2026-05-03T06:26:10.331Z</time></trkpt><trkpt lat="43.6345055" lon="10.3539974"><ele>3.0</ele><time>2026-05-03T06:26:11.331Z</time></trkpt><trkpt lat="43.6346997" lon="10.3539922"><ele>3.0</ele><time>2026-05-03T06:26:12.334Z</time></trkpt><trkpt lat="43.634874" lon="10.3540039"><ele>3.0</ele><time>2026-05-03T06:26:13.343Z</time></trkpt><trkpt lat="43.6350702" lon="10.354007"><ele>3.0</ele><time>2026-05-03T06:26:14.333Z</time></trkpt><trkpt lat="43.6352498" lon="10.3540239"><ele>3.0</ele><time>2026-05-03T06:26:15.335Z</time></trkpt><trkpt lat="43.6354484" lon="10.3540589"><ele>3.0</ele><time>2026-05-03T06:26:16.33Z</time></trkpt><trkpt lat="43.6356403" lon="10.3540775"><ele>3.0</ele><time>2026-05-03T06:26:17.329Z</time></trkpt><trkpt lat="43.6358104" lon="10.3541106"><ele>3.0</ele><time>2026-05-03T06:26:18.328Z</time></trkpt><trkpt lat="43.6359838" lon="10.3541662"><ele>3.0</ele><time>2026-05-03T06:26:19.325Z</time></trkpt><trkpt lat="43.6361548" lon="10.35424"><ele>3.0</ele><time>2026-05-03T06:26:20.321Z</time></trkpt><trkpt lat="43.6363283" lon="10.3542963"><ele>3.0</ele><time>2026-05-03T06:26:21.322Z</time></trkpt><trkpt lat="43.6365037" lon="10.3543617"><ele>3.0</ele><time>2026-05-03T06:26:22.322Z</time></trkpt><trkpt lat="43.6366711" lon="10.3544071"><ele>3.0</ele><time>2026-05-03T06:26:23.321Z</time></trkpt><trkpt lat="43.6368273" lon="10.3544787"><ele>3.0</ele><time>2026-05-03T06:26:24.32Z</time></trkpt><trkpt lat="43.6370036" lon="10.3545933"><ele>3.0</ele><time>2026-05-03T06:26:25.323Z</time></trkpt><trkpt lat="43.637162" lon="10.3547076"><ele>2.3333333333333335</ele><time>2026-05-03T06:26:26.324Z</time></trkpt><trkpt lat="43.6373477" lon="10.3548045"><ele>1.6666666666666665</ele><time>2026-05-03T06:26:27.32Z</time></trkpt><trkpt lat="43.6375074" lon="10.3549412"><ele>1.0</ele><time>2026-05-03T06:26:28.323Z</time></trkpt><trkpt lat="43.6376532" lon="10.3550604"><ele>1.0</ele><time>2026-05-03T06:26:29.32Z</time></trkpt><trkpt lat="43.6377863" lon="10.3551461"><ele>1.0</ele><time>2026-05-03T06:26:30.319Z</time></trkpt><trkpt lat="43.6379625" lon="10.3552954"><ele>1.0</ele><time>2026-05-03T06:26:31.319Z</time></trkpt><trkpt lat="43.6381162" lon="10.3554179"><ele>1.6666666666666665</ele><time>2026-05-03T06:26:32.322Z</time></trkpt><trkpt lat="43.6382802" lon="10.3555715"><ele>2.3333333333333335</ele><time>2026-05-03T06:26:33.325Z</time></trkpt><trkpt lat="43.6384269" lon="10.3557307"><ele>3.0</ele><time>2026-05-03T06:26:34.326Z</time></trkpt><trkpt lat="43.638603" lon="10.3558914"><ele>2.3333333333333335</ele><time>2026-05-03T06:26:35.332Z</time></trkpt><trkpt lat="43.6387659" lon="10.356019"><ele>1.6666666666666665</ele><time>2026-05-03T06:26:36.335Z</time></trkpt><trkpt lat="43.6389332" lon="10.3561553"><ele>1.0</ele><time>2026-05-03T06:26:37.336Z</time></trkpt><trkpt lat="43.6391107" lon="10.3562758"><ele>2.5</ele><time>2026-05-03T06:26:38.333Z</time></trkpt><trkpt lat="43.6394467" lon="10.356568"><ele>4.0</ele><time>2026-05-03T06:26:40.33Z</time></trkpt><trkpt lat="43.6396043" lon="10.3567079"><ele>4.333333333333333</ele><time>2026-05-03T06:26:41.332Z</time></trkpt><trkpt lat="43.6397531" lon="10.3568505"><ele>4.666666666666667</ele><time>2026-05-03T06:26:42.332Z</time></trkpt><trkpt lat="43.6399001" lon="10.3569668"><ele>5.0</ele><time>2026-05-03T06:26:43.334Z</time></trkpt><trkpt lat="43.6400432" lon="10.3571111"><ele>5.0</ele><time>2026-05-03T06:26:44.331Z</time></trkpt><trkpt lat="43.6402192" lon="10.3572378"><ele>5.0</ele><time>2026-05-03T06:26:45.326Z</time></trkpt><trkpt lat="43.6403873" lon="10.3573821"><ele>5.0</ele><time>2026-05-03T06:26:46.31Z</time></trkpt><trkpt lat="43.6405756" lon="10.3575225"><ele>5.333333333333334</ele><time>2026-05-03T06:26:47.315Z</time></trkpt><trkpt lat="43.6407638" lon="10.3576537"><ele>5.666666666666667</ele><time>2026-05-03T06:26:48.318Z</time></trkpt><trkpt lat="43.6409676" lon="10.3577703"><ele>6.0</ele><time>2026-05-03T06:26:49.316Z</time></trkpt><trkpt lat="43.6411658" lon="10.3578869"><ele>5.333333333333333</ele><time>2026-05-03T06:26:50.315Z</time></trkpt><trkpt lat="43.641362" lon="10.3580057"><ele>4.666666666666666</ele><time>2026-05-03T06:26:51.313Z</time></trkpt><trkpt lat="43.6415466" lon="10.3581214"><ele>4.0</ele><time>2026-05-03T06:26:52.324Z</time></trkpt><trkpt lat="43.6417413" lon="10.3582119"><ele>4.0</ele><time>2026-05-03T06:26:53.323Z</time></trkpt><trkpt lat="43.6419419" lon="10.3583174"><ele>4.0</ele><time>2026-05-03T06:26:54.321Z</time></trkpt><trkpt lat="43.6421333" lon="10.3584305"><ele>4.0</ele><time>2026-05-03T06:26:55.324Z</time></trkpt><trkpt lat="43.6423107" lon="10.3585367"><ele>4.333333333333333</ele><time>2026-05-03T06:26:56.324Z</time></trkpt><trkpt lat="43.6425162" lon="10.3586257"><ele>4.666666666666667</ele><time>2026-05-03T06:26:57.332Z</time></trkpt><trkpt lat="43.6427131" lon="10.3587302"><ele>5.0</ele><time>2026-05-03T06:26:58.333Z</time></trkpt><trkpt lat="43.642902" lon="10.3588564"><ele>4.0</ele><time>2026-05-03T06:26:59.329Z</time></trkpt><trkpt lat="43.6430929" lon="10.3589501"><ele>3.0</ele><time>2026-05-03T06:27:00.33Z</time></trkpt><trkpt lat="43.6432937" lon="10.3590532"><ele>2.0</ele><time>2026-05-03T06:27:01.331Z</time></trkpt><trkpt lat="43.6434848" lon="10.3591621"><ele>1.6666666666666665</ele><time>2026-05-03T06:27:02.33Z</time></trkpt><trkpt lat="43.6436672" lon="10.3592674"><ele>1.3333333333333333</ele><time>2026-05-03T06:27:03.324Z</time></trkpt><trkpt lat="43.6438432" lon="10.3593926"><ele>1.0</ele><time>2026-05-03T06:27:04.331Z</time></trkpt><trkpt lat="43.6440233" lon="10.3594944"><ele>1.0</ele><time>2026-05-03T06:27:05.33Z</time></trkpt><trkpt lat="43.6441975" lon="10.3595809"><ele>1.0</ele><time>2026-05-03T06:27:06.33Z</time></trkpt><trkpt lat="43.6443947" lon="10.359697"><ele>1.0</ele><time>2026-05-03T06:27:07.329Z</time></trkpt><trkpt lat="43.6445761" lon="10.359815"><ele>1.0</ele><time>2026-05-03T06:27:08.328Z</time></trkpt><trkpt lat="43.6447526" lon="10.3599345"><ele>1.0</ele><time>2026-05-03T06:27:09.325Z</time></trkpt><trkpt lat="43.644945" lon="10.3600309"><ele>1.0</ele><time>2026-05-03T06:27:10.327Z</time></trkpt><trkpt lat="43.645155" lon="10.3601159"><ele>0.5</ele><time>2026-05-03T06:27:11.329Z</time></trkpt><trkpt lat="43.6453811" lon="10.3602341"><ele>0.0</ele><time>2026-05-03T06:27:12.329Z</time></trkpt><trkpt lat="43.6455959" lon="10.3603481"><ele>0.0</ele><time>2026-05-03T06:27:13.328Z</time></trkpt><trkpt lat="43.6458017" lon="10.3604699"><ele>0.0</ele><time>2026-05-03T06:27:14.329Z</time></trkpt><trkpt lat="43.6460147" lon="10.3605792"><ele>0.0</ele><time>2026-05-03T06:27:15.335Z</time></trkpt><trkpt lat="43.6462257" lon="10.3606956"><ele>0.0</ele><time>2026-05-03T06:27:16.327Z</time></trkpt><trkpt lat="43.6464401" lon="10.3608034"><ele>0.0</ele><time>2026-05-03T06:27:17.328Z</time></trkpt><trkpt lat="43.6466421" lon="10.3609091"><ele>0.0</ele><time>2026-05-03T06:27:18.333Z</time></trkpt><trkpt lat="43.6468297" lon="10.3610045"><ele>0.0</ele><time>2026-05-03T06:27:19.327Z</time></trkpt><trkpt lat="43.6470279" lon="10.3611239"><ele>-1.0</ele><time>2026-05-03T06:27:20.331Z</time></trkpt><trkpt lat="43.6472424" lon="10.3612745"><ele>-2.0</ele><time>2026-05-03T06:27:21.329Z</time></trkpt><trkpt lat="43.6474352" lon="10.3613684"><ele>-3.0</ele><time>2026-05-03T06:27:22.328Z</time></trkpt><trkpt lat="43.6476486" lon="10.3614807"><ele>-2.6666666666666665</ele><time>2026-05-03T06:27:23.33Z</time></trkpt><trkpt lat="43.6478401" lon="10.361594"><ele>-2.333333333333333</ele><time>2026-05-03T06:27:24.33Z</time></trkpt><trkpt lat="43.6480373" lon="10.3617133"><ele>-2.0</ele><time>2026-05-03T06:27:25.33Z</time></trkpt><trkpt lat="43.6482322" lon="10.3618393"><ele>-2.0</ele><time>2026-05-03T06:27:26.328Z</time></trkpt><trkpt lat="43.648428" lon="10.3619517"><ele>-2.0</ele><time>2026-05-03T06:27:27.326Z</time></trkpt><trkpt lat="43.6486294" lon="10.3620493"><ele>-2.0</ele><time>2026-05-03T06:27:28.326Z</time></trkpt><trkpt lat="43.6488506" lon="10.3621503"><ele>-1.0</ele><time>2026-05-03T06:27:29.324Z</time></trkpt><trkpt lat="43.6490632" lon="10.3622747"><ele>0.0</ele><time>2026-05-03T06:27:30.329Z</time></trkpt><trkpt lat="43.649284" lon="10.3624163"><ele>-1.0</ele><time>2026-05-03T06:27:31.33Z</time></trkpt><trkpt lat="43.6494901" lon="10.3625352"><ele>-2.0</ele><time>2026-05-03T06:27:32.329Z</time></trkpt><trkpt lat="43.6497016" lon="10.3626774"><ele>-2.0</ele><time>2026-05-03T06:27:33.328Z</time></trkpt><trkpt lat="43.6499038" lon="10.3627959"><ele>-2.0</ele><time>2026-05-03T06:27:34.331Z</time></trkpt><trkpt lat="43.6501065" lon="10.3628932"><ele>-2.0</ele><time>2026-05-03T06:27:35.329Z</time></trkpt><trkpt lat="43.650332" lon="10.3630163"><ele>-2.0</ele><time>2026-05-03T06:27:36.33Z</time></trkpt><trkpt lat="43.6505393" lon="10.3631394"><ele>-2.0</ele><time>2026-05-03T06:27:37.326Z</time></trkpt><trkpt lat="43.6507479" lon="10.363243"><ele>-2.0</ele><time>2026-05-03T06:27:38.326Z</time></trkpt><trkpt lat="43.6509476" lon="10.363335"><ele>-2.0</ele><time>2026-05-03T06:27:39.326Z</time></trkpt><trkpt lat="43.6511786" lon="10.3634222"><ele>-2.0</ele><time>2026-05-03T06:27:40.321Z</time></trkpt><trkpt lat="43.6513553" lon="10.363507"><ele>-2.0</ele><time>2026-05-03T06:27:41.326Z</time></trkpt><trkpt lat="43.651528" lon="10.3636431"><ele>-2.0</ele><time>2026-05-03T06:27:42.328Z</time></trkpt><trkpt lat="43.6517261" lon="10.3637133"><ele>-2.0</ele><time>2026-05-03T06:27:43.328Z</time></trkpt><trkpt lat="43.651939" lon="10.3638224"><ele>-2.0</ele><time>2026-05-03T06:27:44.331Z</time></trkpt><trkpt lat="43.652177" lon="10.3639494"><ele>0.0</ele><time>2026-05-03T06:27:45.329Z</time></trkpt><trkpt lat="43.6523943" lon="10.3640878"><ele>2.0</ele><time>2026-05-03T06:27:46.332Z</time></trkpt><trkpt lat="43.6526127" lon="10.3642312"><ele>2.0</ele><time>2026-05-03T06:27:47.327Z</time></trkpt><trkpt lat="43.652814" lon="10.3643499"><ele>2.0</ele><time>2026-05-03T06:27:48.328Z</time></trkpt><trkpt lat="43.6530076" lon="10.3644733"><ele>2.0</ele><time>2026-05-03T06:27:49.326Z</time></trkpt><trkpt lat="43.6531925" lon="10.3645832"><ele>2.0</ele><time>2026-05-03T06:27:50.328Z</time></trkpt><trkpt lat="43.6533702" lon="10.3646791"><ele>2.0</ele><time>2026-05-03T06:27:51.329Z</time></trkpt><trkpt lat="43.6535692" lon="10.3647639"><ele>2.0</ele><time>2026-05-03T06:27:52.329Z</time></trkpt><trkpt lat="43.6537555" lon="10.3648798"><ele>2.0</ele><time>2026-05-03T06:27:53.329Z</time></trkpt><trkpt lat="43.6539328" lon="10.3650163"><ele>2.0</ele><time>2026-05-03T06:27:54.332Z</time></trkpt><trkpt lat="43.6541289" lon="10.3651279"><ele>2.0</ele><time>2026-05-03T06:27:55.336Z</time></trkpt><trkpt lat="43.654326" lon="10.3652311"><ele>1.3333333333333333</ele><time>2026-05-03T06:27:56.324Z</time></trkpt><trkpt lat="43.6545228" lon="10.3653242"><ele>0.6666666666666666</ele><time>2026-05-03T06:27:57.331Z</time></trkpt><trkpt lat="43.654729" lon="10.3654231"><ele>0.0</ele><time>2026-05-03T06:27:58.331Z</time></trkpt><trkpt lat="43.6549165" lon="10.3655516"><ele>0.0</ele><time>2026-05-03T06:27:59.331Z</time></trkpt><trkpt lat="43.6551416" lon="10.3656718"><ele>0.0</ele><time>2026-05-03T06:28:00.33Z</time></trkpt><trkpt lat="43.6553465" lon="10.3657908"><ele>0.0</ele><time>2026-05-03T06:28:01.332Z</time></trkpt><trkpt lat="43.6555605" lon="10.3659124"><ele>0.0</ele><time>2026-05-03T06:28:02.332Z</time></trkpt><trkpt lat="43.6557743" lon="10.3660093"><ele>0.0</ele><time>2026-05-03T06:28:03.33Z</time></trkpt><trkpt lat="43.6559787" lon="10.3661318"><ele>0.0</ele><time>2026-05-03T06:28:04.333Z</time></trkpt><trkpt lat="43.6561862" lon="10.3662399"><ele>0.0</ele><time>2026-05-03T06:28:05.331Z</time></trkpt><trkpt lat="43.656377" lon="10.3663595"><ele>-0.5</ele><time>2026-05-03T06:28:06.331Z</time></trkpt><trkpt lat="43.6565944" lon="10.3664796"><ele>-1.0</ele><time>2026-05-03T06:28:07.324Z</time></trkpt><trkpt lat="43.6568121" lon="10.3665809"><ele>-0.6666666666666666</ele><time>2026-05-03T06:28:08.326Z</time></trkpt><trkpt lat="43.657007" lon="10.3666821"><ele>-0.3333333333333333</ele><time>2026-05-03T06:28:09.327Z</time></trkpt><trkpt lat="43.6571948" lon="10.3667887"><ele>0.0</ele><time>2026-05-03T06:28:10.327Z</time></trkpt><trkpt lat="43.6573782" lon="10.3668911"><ele>0.0</ele><time>2026-05-03T06:28:11.32Z</time></trkpt><trkpt lat="43.6575577" lon="10.3669842"><ele>0.0</ele><time>2026-05-03T06:28:12.324Z</time></trkpt><trkpt lat="43.6577233" lon="10.3670608"><ele>0.0</ele><time>2026-05-03T06:28:13.322Z</time></trkpt><trkpt lat="43.6579219" lon="10.3671492"><ele>-0.3333333333333333</ele><time>2026-05-03T06:28:14.325Z</time></trkpt><trkpt lat="43.6580988" lon="10.367252"><ele>-0.6666666666666666</ele><time>2026-05-03T06:28:15.327Z</time></trkpt><trkpt lat="43.6582952" lon="10.3673824"><ele>-1.0</ele><time>2026-05-03T06:28:16.323Z</time></trkpt><trkpt lat="43.6584662" lon="10.3674909"><ele>-0.6666666666666666</ele><time>2026-05-03T06:28:17.336Z</time></trkpt><trkpt lat="43.6586441" lon="10.3676022"><ele>-0.3333333333333333</ele><time>2026-05-03T06:28:18.327Z</time></trkpt><trkpt lat="43.6588274" lon="10.3676903"><ele>0.0</ele><time>2026-05-03T06:28:19.328Z</time></trkpt><trkpt lat="43.6590276" lon="10.3678189"><ele>0.0</ele><time>2026-05-03T06:28:20.329Z</time></trkpt><trkpt lat="43.6592224" lon="10.3679468"><ele>0.0</ele><time>2026-05-03T06:28:21.329Z</time></trkpt><trkpt lat="43.6594314" lon="10.3680632"><ele>0.0</ele><time>2026-05-03T06:28:22.332Z</time></trkpt><trkpt lat="43.6596418" lon="10.3681784"><ele>0.6666666666666666</ele><time>2026-05-03T06:28:23.333Z</time></trkpt><trkpt lat="43.6598505" lon="10.3682987"><ele>1.3333333333333333</ele><time>2026-05-03T06:28:24.332Z</time></trkpt><trkpt lat="43.6600406" lon="10.3683945"><ele>2.0</ele><time>2026-05-03T06:28:25.324Z</time></trkpt><trkpt lat="43.6602378" lon="10.368506"><ele>2.0</ele><time>2026-05-03T06:28:26.32Z</time></trkpt><trkpt lat="43.6604453" lon="10.3686514"><ele>2.0</ele><time>2026-05-03T06:28:27.32Z</time></trkpt><trkpt lat="43.6606869" lon="10.368773"><ele>1.6666666666666665</ele><time>2026-05-03T06:28:28.326Z</time></trkpt><trkpt lat="43.6608602" lon="10.3688791"><ele>1.3333333333333333</ele><time>2026-05-03T06:28:29.325Z</time></trkpt><trkpt lat="43.6610506" lon="10.3689684"><ele>1.0</ele><time>2026-05-03T06:28:30.326Z</time></trkpt><trkpt lat="43.661231" lon="10.3690506"><ele>1.6666666666666665</ele><time>2026-05-03T06:28:31.329Z</time></trkpt><trkpt lat="43.6614145" lon="10.3691497"><ele>2.3333333333333335</ele><time>2026-05-03T06:28:32.328Z</time></trkpt><trkpt lat="43.6615911" lon="10.3692369"><ele>3.0</ele><time>2026-05-03T06:28:33.323Z</time></trkpt><trkpt lat="43.6617506" lon="10.3693181"><ele>3.0</ele><time>2026-05-03T06:28:34.321Z</time></trkpt><trkpt lat="43.6619416" lon="10.3694464"><ele>3.0</ele><time>2026-05-03T06:28:35.33Z</time></trkpt><trkpt lat="43.6621373" lon="10.3695859"><ele>3.0</ele><time>2026-05-03T06:28:36.33Z</time></trkpt><trkpt lat="43.6623351" lon="10.3696621"><ele>3.0</ele><time>2026-05-03T06:28:37.325Z</time></trkpt><trkpt lat="43.6625226" lon="10.3697536"><ele>3.0</ele><time>2026-05-03T06:28:38.328Z</time></trkpt><trkpt lat="43.6627208" lon="10.369877"><ele>3.0</ele><time>2026-05-03T06:28:39.322Z</time></trkpt><trkpt lat="43.6629183" lon="10.369975"><ele>3.0</ele><time>2026-05-03T06:28:40.324Z</time></trkpt><trkpt lat="43.663107" lon="10.3700887"><ele>3.0</ele><time>2026-05-03T06:28:41.324Z</time></trkpt><trkpt lat="43.6632852" lon="10.3702051"><ele>3.0</ele><time>2026-05-03T06:28:42.319Z</time></trkpt><trkpt lat="43.6634829" lon="10.3703235"><ele>3.333333333333333</ele><time>2026-05-03T06:28:43.32Z</time></trkpt><trkpt lat="43.6636968" lon="10.3704189"><ele>3.6666666666666665</ele><time>2026-05-03T06:28:44.319Z</time></trkpt><trkpt lat="43.6638802" lon="10.3705121"><ele>4.0</ele><time>2026-05-03T06:28:45.321Z</time></trkpt><trkpt lat="43.6640914" lon="10.3706108"><ele>4.0</ele><time>2026-05-03T06:28:46.319Z</time></trkpt><trkpt lat="43.6642879" lon="10.3707354"><ele>4.0</ele><time>2026-05-03T06:28:47.32Z</time></trkpt><trkpt lat="43.6644731" lon="10.3708303"><ele>4.0</ele><time>2026-05-03T06:28:48.326Z</time></trkpt><trkpt lat="43.6646451" lon="10.3709601"><ele>3.333333333333333</ele><time>2026-05-03T06:28:49.316Z</time></trkpt><trkpt lat="43.664839" lon="10.3710743"><ele>2.6666666666666665</ele><time>2026-05-03T06:28:50.319Z</time></trkpt><trkpt lat="43.6650542" lon="10.37117"><ele>2.0</ele><time>2026-05-03T06:28:51.319Z</time></trkpt><trkpt lat="43.6652807" lon="10.3712748"><ele>1.3333333333333333</ele><time>2026-05-03T06:28:52.318Z</time></trkpt><trkpt lat="43.6654741" lon="10.3713654"><ele>0.6666666666666666</ele><time>2026-05-03T06:28:53.321Z</time></trkpt><trkpt lat="43.6656558" lon="10.3714877"><ele>0.0</ele><time>2026-05-03T06:28:54.321Z</time></trkpt><trkpt lat="43.6658462" lon="10.3715855"><ele>0.0</ele><time>2026-05-03T06:28:55.326Z</time></trkpt><trkpt lat="43.6660548" lon="10.3717175"><ele>0.0</ele><time>2026-05-03T06:28:56.324Z</time></trkpt><trkpt lat="43.6662706" lon="10.3718121"><ele>-0.3333333333333333</ele><time>2026-05-03T06:28:57.329Z</time></trkpt><trkpt lat="43.6664577" lon="10.3719253"><ele>-0.6666666666666666</ele><time>2026-05-03T06:28:58.332Z</time></trkpt><trkpt lat="43.6666303" lon="10.3720303"><ele>-1.0</ele><time>2026-05-03T06:28:59.326Z</time></trkpt><trkpt lat="43.6668193" lon="10.3721532"><ele>-1.3333333333333333</ele><time>2026-05-03T06:29:00.325Z</time></trkpt><trkpt lat="43.6670177" lon="10.372262"><ele>-1.6666666666666665</ele><time>2026-05-03T06:29:01.324Z</time></trkpt><trkpt lat="43.6671902" lon="10.3723385"><ele>-2.0</ele><time>2026-05-03T06:29:02.321Z</time></trkpt><trkpt lat="43.6674012" lon="10.3724425"><ele>-2.0</ele><time>2026-05-03T06:29:03.318Z</time></trkpt><trkpt lat="43.6675975" lon="10.3725824"><ele>-2.0</ele><time>2026-05-03T06:29:04.317Z</time></trkpt><trkpt lat="43.6677802" lon="10.3726698"><ele>-2.0</ele><time>2026-05-03T06:29:05.322Z</time></trkpt><trkpt lat="43.6679907" lon="10.3727819"><ele>-1.0</ele><time>2026-05-03T06:29:06.317Z</time></trkpt><trkpt lat="43.6682153" lon="10.3729166"><ele>0.0</ele><time>2026-05-03T06:29:07.32Z</time></trkpt><trkpt lat="43.6684706" lon="10.3730259"><ele>-1.0</ele><time>2026-05-03T06:29:08.321Z</time></trkpt><trkpt lat="43.6687119" lon="10.3731518"><ele>-2.0</ele><time>2026-05-03T06:29:09.322Z</time></trkpt><trkpt lat="43.6689478" lon="10.3732911"><ele>-2.0</ele><time>2026-05-03T06:29:10.325Z</time></trkpt><trkpt lat="43.6691719" lon="10.3734246"><ele>-2.0</ele><time>2026-05-03T06:29:11.321Z</time></trkpt><trkpt lat="43.6693945" lon="10.3735572"><ele>-2.333333333333333</ele><time>2026-05-03T06:29:12.318Z</time></trkpt><trkpt lat="43.6696051" lon="10.3736719"><ele>-2.6666666666666665</ele><time>2026-05-03T06:29:13.312Z</time></trkpt><trkpt lat="43.669792" lon="10.373787"><ele>-3.0</ele><time>2026-05-03T06:29:14.32Z</time></trkpt><trkpt lat="43.670015" lon="10.3738902"><ele>-2.3333333333333335</ele><time>2026-05-03T06:29:15.313Z</time></trkpt><trkpt lat="43.6702051" lon="10.3740185"><ele>-1.6666666666666665</ele><time>2026-05-03T06:29:16.321Z</time></trkpt><trkpt lat="43.6703871" lon="10.3741312"><ele>-1.0</ele><time>2026-05-03T06:29:17.326Z</time></trkpt><trkpt lat="43.670565" lon="10.3742303"><ele>-0.5</ele><time>2026-05-03T06:29:18.326Z</time></trkpt><trkpt lat="43.6707618" lon="10.3743769"><ele>0.0</ele><time>2026-05-03T06:29:19.33Z</time></trkpt><trkpt lat="43.6709812" lon="10.3745052"><ele>-0.3333333333333333</ele><time>2026-05-03T06:29:20.321Z</time></trkpt><trkpt lat="43.6711608" lon="10.3746072"><ele>-0.6666666666666666</ele><time>2026-05-03T06:29:21.322Z</time></trkpt><trkpt lat="43.6713623" lon="10.3746968"><ele>-1.0</ele><time>2026-05-03T06:29:22.32Z</time></trkpt><trkpt lat="43.6715561" lon="10.3747893"><ele>-1.0</ele><time>2026-05-03T06:29:23.323Z</time></trkpt><trkpt lat="43.6717663" lon="10.3748921"><ele>-1.0</ele><time>2026-05-03T06:29:24.325Z</time></trkpt><trkpt lat="43.67197" lon="10.3750266"><ele>-1.0</ele><time>2026-05-03T06:29:25.323Z</time></trkpt><trkpt lat="43.6721628" lon="10.3751294"><ele>-1.6666666666666665</ele><time>2026-05-03T06:29:26.325Z</time></trkpt><trkpt lat="43.6723655" lon="10.3752201"><ele>-2.3333333333333335</ele><time>2026-05-03T06:29:27.324Z</time></trkpt><trkpt lat="43.6725678" lon="10.3753515"><ele>-3.0</ele><time>2026-05-03T06:29:28.323Z</time></trkpt><trkpt lat="43.672758" lon="10.3754626"><ele>-2.3333333333333335</ele><time>2026-05-03T06:29:29.322Z</time></trkpt><trkpt lat="43.6729363" lon="10.3755787"><ele>-1.6666666666666665</ele><time>2026-05-03T06:29:30.326Z</time></trkpt><trkpt lat="43.673116" lon="10.3756851"><ele>-1.0</ele><time>2026-05-03T06:29:31.327Z</time></trkpt><trkpt lat="43.6733047" lon="10.3757986"><ele>-1.0</ele><time>2026-05-03T06:29:32.329Z</time></trkpt><trkpt lat="43.6734988" lon="10.3758941"><ele>-1.0</ele><time>2026-05-03T06:29:33.329Z</time></trkpt><trkpt lat="43.6736887" lon="10.3760054"><ele>-1.0</ele><time>2026-05-03T06:29:34.33Z</time></trkpt><trkpt lat="43.6738721" lon="10.3761098"><ele>-0.6666666666666666</ele><time>2026-05-03T06:29:35.329Z</time></trkpt><trkpt lat="43.6740547" lon="10.3762275"><ele>-0.3333333333333333</ele><time>2026-05-03T06:29:36.327Z</time></trkpt><trkpt lat="43.6742556" lon="10.3763475"><ele>0.0</ele><time>2026-05-03T06:29:37.327Z</time></trkpt><trkpt lat="43.6744852" lon="10.3764337"><ele>-0.6666666666666666</ele><time>2026-05-03T06:29:38.325Z</time></trkpt><trkpt lat="43.6746874" lon="10.37654"><ele>-1.3333333333333333</ele><time>2026-05-03T06:29:39.324Z</time></trkpt><trkpt lat="43.6748799" lon="10.3766512"><ele>-2.0</ele><time>2026-05-03T06:29:40.326Z</time></trkpt><trkpt lat="43.6751018" lon="10.3767563"><ele>-2.0</ele><time>2026-05-03T06:29:41.332Z</time></trkpt><trkpt lat="43.6753306" lon="10.3768701"><ele>-2.0</ele><time>2026-05-03T06:29:42.329Z</time></trkpt><trkpt lat="43.6755184" lon="10.3770027"><ele>-2.0</ele><time>2026-05-03T06:29:43.333Z</time></trkpt><trkpt lat="43.6757334" lon="10.3771215"><ele>-2.0</ele><time>2026-05-03T06:29:44.335Z</time></trkpt><trkpt lat="43.6759444" lon="10.3772574"><ele>-1.3333333333333333</ele><time>2026-05-03T06:29:45.332Z</time></trkpt><trkpt lat="43.6761403" lon="10.3773759"><ele>-0.6666666666666666</ele><time>2026-05-03T06:29:46.331Z</time></trkpt><trkpt lat="43.6763345" lon="10.3774876"><ele>0.0</ele><time>2026-05-03T06:29:47.329Z</time></trkpt><trkpt lat="43.6765344" lon="10.3775713"><ele>0.0</ele><time>2026-05-03T06:29:48.334Z</time></trkpt><trkpt lat="43.6767322" lon="10.3776679"><ele>0.0</ele><time>2026-05-03T06:29:49.33Z</time></trkpt><trkpt lat="43.6769688" lon="10.3777928"><ele>-1.0</ele><time>2026-05-03T06:29:50.338Z</time></trkpt><trkpt lat="43.6771894" lon="10.3779014"><ele>-2.0</ele><time>2026-05-03T06:29:51.326Z</time></trkpt><trkpt lat="43.6774117" lon="10.3780167"><ele>-2.0</ele><time>2026-05-03T06:29:52.329Z</time></trkpt><trkpt lat="43.6776279" lon="10.3781448"><ele>-2.0</ele><time>2026-05-03T06:29:53.325Z</time></trkpt><trkpt lat="43.6778386" lon="10.3782789"><ele>-1.0</ele><time>2026-05-03T06:29:54.327Z</time></trkpt><trkpt lat="43.6780665" lon="10.3784048"><ele>0.0</ele><time>2026-05-03T06:29:55.329Z</time></trkpt><trkpt lat="43.6782838" lon="10.3785094"><ele>0.0</ele><time>2026-05-03T06:29:56.321Z</time></trkpt><trkpt lat="43.6784898" lon="10.3786055"><ele>0.0</ele><time>2026-05-03T06:29:57.321Z</time></trkpt><trkpt lat="43.6787109" lon="10.3787515"><ele>0.0</ele><time>2026-05-03T06:29:58.324Z</time></trkpt><trkpt lat="43.6789208" lon="10.3788853"><ele>0.0</ele><time>2026-05-03T06:29:59.322Z</time></trkpt><trkpt lat="43.6791216" lon="10.3789851"><ele>0.0</ele><time>2026-05-03T06:30:00.327Z</time></trkpt><trkpt lat="43.6793061" lon="10.3790743"><ele>-0.5</ele><time>2026-05-03T06:30:01.323Z</time></trkpt><trkpt lat="43.6795209" lon="10.3791796"><ele>-1.0</ele><time>2026-05-03T06:30:02.325Z</time></trkpt><trkpt lat="43.6797361" lon="10.3792681"><ele>-1.0</ele><time>2026-05-03T06:30:03.322Z</time></trkpt><trkpt lat="43.6799361" lon="10.3794055"><ele>-1.0</ele><time>2026-05-03T06:30:04.322Z</time></trkpt><trkpt lat="43.6801447" lon="10.3795234"><ele>-1.0</ele><time>2026-05-03T06:30:05.325Z</time></trkpt><trkpt lat="43.6803597" lon="10.3796523"><ele>-0.5</ele><time>2026-05-03T06:30:06.326Z</time></trkpt><trkpt lat="43.6805717" lon="10.3797825"><ele>0.0</ele><time>2026-05-03T06:30:07.322Z</time></trkpt><trkpt lat="43.6807722" lon="10.3799073"><ele>0.0</ele><time>2026-05-03T06:30:08.326Z</time></trkpt><trkpt lat="43.6809789" lon="10.3800179"><ele>0.0</ele><time>2026-05-03T06:30:09.322Z</time></trkpt><trkpt lat="43.6811864" lon="10.3801009"><ele>0.0</ele><time>2026-05-03T06:30:10.326Z</time></trkpt><trkpt lat="43.6814058" lon="10.3802155"><ele>0.0</ele><time>2026-05-03T06:30:11.325Z</time></trkpt><trkpt lat="43.6816128" lon="10.3803586"><ele>0.0</ele><time>2026-05-03T06:30:12.322Z</time></trkpt><trkpt lat="43.6818218" lon="10.3804748"><ele>0.0</ele><time>2026-05-03T06:30:13.317Z</time></trkpt><trkpt lat="43.6820377" lon="10.3805979"><ele>0.0</ele><time>2026-05-03T06:30:14.319Z</time></trkpt><trkpt lat="43.6822514" lon="10.3807099"><ele>0.0</ele><time>2026-05-03T06:30:15.31Z</time></trkpt><trkpt lat="43.6824694" lon="10.3808014"><ele>0.0</ele><time>2026-05-03T06:30:16.315Z</time></trkpt><trkpt lat="43.6826654" lon="10.3809171"><ele>0.0</ele><time>2026-05-03T06:30:17.318Z</time></trkpt><trkpt lat="43.6828899" lon="10.3810249"><ele>0.0</ele><time>2026-05-03T06:30:18.321Z</time></trkpt><trkpt lat="43.6830905" lon="10.3811524"><ele>0.0</ele><time>2026-05-03T06:30:19.323Z</time></trkpt><trkpt lat="43.683275" lon="10.3812426"><ele>0.0</ele><time>2026-05-03T06:30:20.323Z</time></trkpt><trkpt lat="43.6834501" lon="10.3813447"><ele>-0.3333333333333333</ele><time>2026-05-03T06:30:21.331Z</time></trkpt><trkpt lat="43.6836492" lon="10.3814368"><ele>-0.6666666666666666</ele><time>2026-05-03T06:30:22.324Z</time></trkpt><trkpt lat="43.683855" lon="10.3815436"><ele>-1.0</ele><time>2026-05-03T06:30:23.319Z</time></trkpt><trkpt lat="43.6840644" lon="10.3816619"><ele>-1.0</ele><time>2026-05-03T06:30:24.319Z</time></trkpt><trkpt lat="43.6842804" lon="10.3817953"><ele>-1.0</ele><time>2026-05-03T06:30:25.321Z</time></trkpt><trkpt lat="43.6844844" lon="10.3819338"><ele>-1.0</ele><time>2026-05-03T06:30:26.321Z</time></trkpt><trkpt lat="43.6846877" lon="10.3820575"><ele>-1.0</ele><time>2026-05-03T06:30:27.321Z</time></trkpt><trkpt lat="43.6849086" lon="10.3821875"><ele>-1.0</ele><time>2026-05-03T06:30:28.319Z</time></trkpt><trkpt lat="43.6851404" lon="10.3823084"><ele>-1.0</ele><time>2026-05-03T06:30:29.323Z</time></trkpt><trkpt lat="43.6853581" lon="10.3824402"><ele>-1.5</ele><time>2026-05-03T06:30:30.323Z</time></trkpt><trkpt lat="43.6855672" lon="10.3825633"><ele>-2.0</ele><time>2026-05-03T06:30:31.32Z</time></trkpt><trkpt lat="43.685785" lon="10.3826804"><ele>-2.0</ele><time>2026-05-03T06:30:32.321Z</time></trkpt><trkpt lat="43.6860012" lon="10.3828204"><ele>-2.0</ele><time>2026-05-03T06:30:33.319Z</time></trkpt><trkpt lat="43.6862212" lon="10.3829618"><ele>-1.6666666666666665</ele><time>2026-05-03T06:30:34.317Z</time></trkpt><trkpt lat="43.6864181" lon="10.3830791"><ele>-1.3333333333333333</ele><time>2026-05-03T06:30:35.321Z</time></trkpt><trkpt lat="43.6866315" lon="10.3831967"><ele>-1.0</ele><time>2026-05-03T06:30:36.325Z</time></trkpt><trkpt lat="43.6868487" lon="10.3833205"><ele>-1.5</ele><time>2026-05-03T06:30:37.323Z</time></trkpt><trkpt lat="43.6870674" lon="10.3834383"><ele>-2.0</ele><time>2026-05-03T06:30:38.329Z</time></trkpt><trkpt lat="43.6873097" lon="10.3835873"><ele>-2.0</ele><time>2026-05-03T06:30:39.323Z</time></trkpt><trkpt lat="43.6875202" lon="10.3836852"><ele>-2.0</ele><time>2026-05-03T06:30:40.324Z</time></trkpt><trkpt lat="43.6877273" lon="10.3837734"><ele>-2.0</ele><time>2026-05-03T06:30:41.325Z</time></trkpt><trkpt lat="43.6879447" lon="10.3838885"><ele>-2.0</ele><time>2026-05-03T06:30:42.322Z</time></trkpt><trkpt lat="43.6881691" lon="10.3839779"><ele>-2.0</ele><time>2026-05-03T06:30:43.324Z</time></trkpt><trkpt lat="43.6883741" lon="10.3840957"><ele>-2.0</ele><time>2026-05-03T06:30:44.322Z</time></trkpt><trkpt lat="43.6885665" lon="10.3841989"><ele>-2.0</ele><time>2026-05-03T06:30:45.321Z</time></trkpt><trkpt lat="43.6887543" lon="10.3842826"><ele>-2.0</ele><time>2026-05-03T06:30:46.324Z</time></trkpt><trkpt lat="43.6889282" lon="10.3843701"><ele>-1.6666666666666665</ele><time>2026-05-03T06:30:47.326Z</time></trkpt><trkpt lat="43.6890808" lon="10.3844785"><ele>-1.3333333333333333</ele><time>2026-05-03T06:30:48.331Z</time></trkpt><trkpt lat="43.6892361" lon="10.3845726"><ele>-1.0</ele><time>2026-05-03T06:30:49.328Z</time></trkpt><trkpt lat="43.6893973" lon="10.3846783"><ele>-0.6666666666666666</ele><time>2026-05-03T06:30:50.33Z</time></trkpt><trkpt lat="43.6895547" lon="10.3847634"><ele>-0.3333333333333333</ele><time>2026-05-03T06:30:51.326Z</time></trkpt><trkpt lat="43.6896946" lon="10.3848381"><ele>0.0</ele><time>2026-05-03T06:30:52.343Z</time></trkpt><trkpt lat="43.6898509" lon="10.3849472"><ele>0.0</ele><time>2026-05-03T06:30:53.328Z</time></trkpt><trkpt lat="43.6899956" lon="10.3850333"><ele>0.0</ele><time>2026-05-03T06:30:54.325Z</time></trkpt><trkpt lat="43.6901308" lon="10.3851388"><ele>0.0</ele><time>2026-05-03T06:30:55.326Z</time></trkpt><trkpt lat="43.6902562" lon="10.3852095"><ele>0.0</ele><time>2026-05-03T06:30:56.326Z</time></trkpt><trkpt lat="43.690382" lon="10.3852846"><ele>-0.2</ele><time>2026-05-03T06:30:57.329Z</time></trkpt><trkpt lat="43.6904956" lon="10.3853237"><ele>-0.4</ele><time>2026-05-03T06:30:58.329Z</time></trkpt><trkpt lat="43.6905983" lon="10.3853196"><ele>-0.6000000000000001</ele><time>2026-05-03T06:30:59.33Z</time></trkpt><trkpt lat="43.6906916" lon="10.3853498"><ele>-0.8</ele><time>2026-05-03T06:31:00.321Z</time></trkpt><trkpt lat="43.6907656" lon="10.3853882"><ele>-1.0</ele><time>2026-05-03T06:31:01.324Z</time></trkpt><trkpt lat="43.6908181" lon="10.385467"><ele>-1.0</ele><time>2026-05-03T06:31:03.312Z</time></trkpt><trkpt lat="43.6909282" lon="10.3855509"><ele>-1.0</ele><time>2026-05-03T06:31:05.313Z</time></trkpt><trkpt lat="43.6910194" lon="10.3855962"><ele>-1.0</ele><time>2026-05-03T06:31:06.31Z</time></trkpt><trkpt lat="43.6911438" lon="10.3856397"><ele>-1.0</ele><time>2026-05-03T06:31:07.311Z</time></trkpt><trkpt lat="43.691255" lon="10.3856812"><ele>-1.0</ele><time>2026-05-03T06:31:08.327Z</time></trkpt><trkpt lat="43.6913865" lon="10.3857393"><ele>-1.0</ele><time>2026-05-03T06:31:09.32Z</time></trkpt><trkpt lat="43.6915028" lon="10.3857963"><ele>-1.0</ele><time>2026-05-03T06:31:10.313Z</time></trkpt><trkpt lat="43.6917676" lon="10.3859467"><ele>-1.0</ele><time>2026-05-03T06:31:12.313Z</time></trkpt><trkpt lat="43.6919214" lon="10.3860183"><ele>-1.0</ele><time>2026-05-03T06:31:13.317Z</time></trkpt><trkpt lat="43.6921321" lon="10.3861535"><ele>-1.0</ele><time>2026-05-03T06:31:14.31Z</time></trkpt><trkpt lat="43.6923903" lon="10.3862568"><ele>-0.6666666666666666</ele><time>2026-05-03T06:31:15.314Z</time></trkpt><trkpt lat="43.6925953" lon="10.3863592"><ele>-0.3333333333333333</ele><time>2026-05-03T06:31:16.315Z</time></trkpt><trkpt lat="43.6927979" lon="10.3864751"><ele>0.0</ele><time>2026-05-03T06:31:17.318Z</time></trkpt><trkpt lat="43.693011" lon="10.3865888"><ele>0.0</ele><time>2026-05-03T06:31:18.322Z</time></trkpt><trkpt lat="43.6932223" lon="10.3867084"><ele>0.0</ele><time>2026-05-03T06:31:19.318Z</time></trkpt><trkpt lat="43.6934422" lon="10.3868262"><ele>0.0</ele><time>2026-05-03T06:31:20.32Z</time></trkpt><trkpt lat="43.6936613" lon="10.3868886"><ele>0.0</ele><time>2026-05-03T06:31:21.32Z</time></trkpt><trkpt lat="43.693862" lon="10.3869538"><ele>0.0</ele><time>2026-05-03T06:31:22.325Z</time></trkpt><trkpt lat="43.6940631" lon="10.3870448"><ele>0.0</ele><time>2026-05-03T06:31:23.322Z</time></trkpt><trkpt lat="43.6942451" lon="10.387172"><ele>0.0</ele><time>2026-05-03T06:31:24.326Z</time></trkpt><trkpt lat="43.6944292" lon="10.3872773"><ele>0.0</ele><time>2026-05-03T06:31:25.328Z</time></trkpt><trkpt lat="43.6946005" lon="10.3873876"><ele>0.3333333333333333</ele><time>2026-05-03T06:31:26.325Z</time></trkpt><trkpt lat="43.6947669" lon="10.3874349"><ele>0.6666666666666666</ele><time>2026-05-03T06:31:27.329Z</time></trkpt><trkpt lat="43.6949176" lon="10.3874892"><ele>1.0</ele><time>2026-05-03T06:31:28.323Z</time></trkpt><trkpt lat="43.6950789" lon="10.3875319"><ele>1.0</ele><time>2026-05-03T06:31:29.33Z</time></trkpt><trkpt lat="43.6952126" lon="10.3875783"><ele>1.0</ele><time>2026-05-03T06:31:30.331Z</time></trkpt><trkpt lat="43.6953453" lon="10.3876446"><ele>1.0</ele><time>2026-05-03T06:31:31.331Z</time></trkpt><trkpt lat="43.6954724" lon="10.3877113"><ele>1.0</ele><time>2026-05-03T06:31:32.33Z</time></trkpt><trkpt lat="43.6955678" lon="10.3877519"><ele>1.1666666666666665</ele><time>2026-05-03T06:31:33.327Z</time></trkpt><trkpt lat="43.6956926" lon="10.3877986"><ele>1.3333333333333333</ele><time>2026-05-03T06:31:34.324Z</time></trkpt><trkpt lat="43.6957877" lon="10.3878399"><ele>1.5</ele><time>2026-05-03T06:31:35.319Z</time></trkpt><trkpt lat="43.6958548" lon="10.3878844"><ele>1.6666666666666665</ele><time>2026-05-03T06:31:36.319Z</time></trkpt><trkpt lat="43.6959188" lon="10.387905"><ele>1.8333333333333333</ele><time>2026-05-03T06:31:37.32Z</time></trkpt><trkpt lat="43.6959805" lon="10.3879548"><ele>2.0</ele><time>2026-05-03T06:31:38.32Z</time></trkpt><trkpt lat="43.6960263" lon="10.3880342"><ele>1.9999999999999998</ele><time>2026-05-03T06:31:39.313Z</time></trkpt><trkpt lat="43.6960708" lon="10.388119"><ele>2.0</ele><time>2026-05-03T06:31:40.313Z</time></trkpt><trkpt lat="43.6961275" lon="10.3881868"><ele>2.0</ele><time>2026-05-03T06:31:41.314Z</time></trkpt><trkpt lat="43.6961881" lon="10.3882353"><ele>2.0</ele><time>2026-05-03T06:31:42.322Z</time></trkpt><trkpt lat="43.6962452" lon="10.3882948"><ele>1.9999999999999998</ele><time>2026-05-03T06:31:43.315Z</time></trkpt><trkpt lat="43.696366" lon="10.388324"><ele>2.0</ele><time>2026-05-03T06:31:45.318Z</time></trkpt><trkpt lat="43.6964581" lon="10.388311"><ele>2.2</ele><time>2026-05-03T06:31:46.32Z</time></trkpt><trkpt lat="43.6965494" lon="10.388305"><ele>2.4000000000000004</ele><time>2026-05-03T06:31:47.318Z</time></trkpt><trkpt lat="43.6966436" lon="10.3883016"><ele>2.5999999999999996</ele><time>2026-05-03T06:31:48.323Z</time></trkpt><trkpt lat="43.6967615" lon="10.3883387"><ele>2.8</ele><time>2026-05-03T06:31:49.321Z</time></trkpt><trkpt lat="43.6968665" lon="10.3883732"><ele>3.0</ele><time>2026-05-03T06:31:50.334Z</time></trkpt><trkpt lat="43.6969774" lon="10.3884214"><ele>3.0</ele><time>2026-05-03T06:31:51.325Z</time></trkpt><trkpt lat="43.6971112" lon="10.3884845"><ele>3.0</ele><time>2026-05-03T06:31:52.325Z</time></trkpt><trkpt lat="43.6972235" lon="10.3885211"><ele>3.0</ele><time>2026-05-03T06:31:53.332Z</time></trkpt><trkpt lat="43.6973325" lon="10.3885604"><ele>3.0</ele><time>2026-05-03T06:31:54.326Z</time></trkpt><trkpt lat="43.6974506" lon="10.3886078"><ele>3.0</ele><time>2026-05-03T06:31:55.334Z</time></trkpt><trkpt lat="43.6975736" lon="10.3886678"><ele>3.0</ele><time>2026-05-03T06:31:56.325Z</time></trkpt><trkpt lat="43.6977013" lon="10.3887319"><ele>3.0</ele><time>2026-05-03T06:31:57.328Z</time></trkpt><trkpt lat="43.6979518" lon="10.3888369"><ele>2.75</ele><time>2026-05-03T06:31:59.33Z</time></trkpt><trkpt lat="43.6980872" lon="10.3889026"><ele>2.5</ele><time>2026-05-03T06:32:00.343Z</time></trkpt><trkpt lat="43.6982295" lon="10.388929"><ele>2.25</ele><time>2026-05-03T06:32:01.33Z</time></trkpt><trkpt lat="43.6983829" lon="10.3889683"><ele>2.0</ele><time>2026-05-03T06:32:02.333Z</time></trkpt><trkpt lat="43.6985321" lon="10.3890236"><ele>1.75</ele><time>2026-05-03T06:32:03.334Z</time></trkpt><trkpt lat="43.6986683" lon="10.3890342"><ele>1.5</ele><time>2026-05-03T06:32:04.334Z</time></trkpt><trkpt lat="43.6988176" lon="10.3890852"><ele>1.25</ele><time>2026-05-03T06:32:05.345Z</time></trkpt><trkpt lat="43.6989025" lon="10.3890945"><ele>1.0</ele><time>2026-05-03T06:32:06.327Z</time></trkpt><trkpt lat="43.6990083" lon="10.3891015"><ele>1.0</ele><time>2026-05-03T06:32:07.326Z</time></trkpt><trkpt lat="43.699123" lon="10.389127"><ele>1.0</ele><time>2026-05-03T06:32:08.33Z</time></trkpt><trkpt lat="43.6992132" lon="10.3891219"><ele>1.0</ele><time>2026-05-03T06:32:09.33Z</time></trkpt><trkpt lat="43.6992788" lon="10.3891074"><ele>1.0</ele><time>2026-05-03T06:32:10.343Z</time></trkpt><trkpt lat="43.6993723" lon="10.3891041"><ele>1.0</ele><time>2026-05-03T06:32:11.331Z</time></trkpt><trkpt lat="43.6994558" lon="10.3891314"><ele>0.8333333333333333</ele><time>2026-05-03T06:32:12.319Z</time></trkpt><trkpt lat="43.6995185" lon="10.3891736"><ele>0.6666666666666666</ele><time>2026-05-03T06:32:13.314Z</time></trkpt><trkpt lat="43.69958" lon="10.3892093"><ele>0.5</ele><time>2026-05-03T06:32:14.321Z</time></trkpt><trkpt lat="43.6996894" lon="10.3892635"><ele>0.3333333333333333</ele><time>2026-05-03T06:32:16.314Z</time></trkpt><trkpt lat="43.6997606" lon="10.3892737"><ele>0.16666666666666666</ele><time>2026-05-03T06:32:17.315Z</time></trkpt><trkpt lat="43.6998324" lon="10.3892822"><ele>0.0</ele><time>2026-05-03T06:32:18.295Z</time></trkpt><trkpt lat="43.6999063" lon="10.3892907"><ele>0.0</ele><time>2026-05-03T06:32:19.3Z</time></trkpt><trkpt lat="43.6999786" lon="10.3892998"><ele>0.0</ele><time>2026-05-03T06:32:20.299Z</time></trkpt><trkpt lat="43.700064" lon="10.3892664"><ele>0.0</ele><time>2026-05-03T06:32:21.263Z</time></trkpt><trkpt lat="43.7001478" lon="10.3892451"><ele>0.0</ele><time>2026-05-03T06:32:22.269Z</time></trkpt><trkpt lat="43.7002448" lon="10.3892009"><ele>0.0</ele><time>2026-05-03T06:32:23.269Z</time></trkpt><trkpt lat="43.7004516" lon="10.3890883"><ele>0.0</ele><time>2026-05-03T06:32:24.302Z</time></trkpt><trkpt lat="43.7007009" lon="10.388955"><ele>0.0</ele><time>2026-05-03T06:32:25.318Z</time></trkpt><trkpt lat="43.7009218" lon="10.3887976"><ele>3.0</ele><time>2026-05-03T06:32:26.304Z</time></trkpt><trkpt lat="43.7015625" lon="10.3884339"><ele>3.0</ele><time>2026-05-03T06:32:28.315Z</time></trkpt><trkpt lat="43.7017794" lon="10.3882599"><ele>3.0</ele><time>2026-05-03T06:32:29.322Z</time></trkpt><trkpt lat="43.7019901" lon="10.3880724"><ele>3.0</ele><time>2026-05-03T06:32:30.338Z</time></trkpt><trkpt lat="43.7021624" lon="10.3878947"><ele>3.0</ele><time>2026-05-03T06:32:31.323Z</time></trkpt><trkpt lat="43.7023558" lon="10.3877455"><ele>3.0</ele><time>2026-05-03T06:32:32.332Z</time></trkpt><trkpt lat="43.7025786" lon="10.387561"><ele>3.0</ele><time>2026-05-03T06:32:33.327Z</time></trkpt><trkpt lat="43.7027263" lon="10.387401"><ele>3.0</ele><time>2026-05-03T06:32:34.316Z</time></trkpt><trkpt lat="43.7028672" lon="10.3872025"><ele>3.0</ele><time>2026-05-03T06:32:35.328Z</time></trkpt><trkpt lat="43.7030301" lon="10.3869686"><ele>2.75</ele><time>2026-05-03T06:32:36.313Z</time></trkpt><trkpt lat="43.7031564" lon="10.3868574"><ele>2.5</ele><time>2026-05-03T06:32:37.317Z</time></trkpt><trkpt lat="43.7032399" lon="10.3867502"><ele>2.25</ele><time>2026-05-03T06:32:38.325Z</time></trkpt><trkpt lat="43.7033419" lon="10.3866225"><ele>2.0</ele><time>2026-05-03T06:32:39.336Z</time></trkpt><trkpt lat="43.7034487" lon="10.3865128"><ele>2.0</ele><time>2026-05-03T06:32:40.346Z</time></trkpt><trkpt lat="43.7036056" lon="10.3864952"><ele>2.0</ele><time>2026-05-03T06:32:41.332Z</time></trkpt><trkpt lat="43.703758" lon="10.3864606"><ele>2.0</ele><time>2026-05-03T06:32:42.322Z</time></trkpt><trkpt lat="43.703895" lon="10.3864196"><ele>2.0</ele><time>2026-05-03T06:32:43.324Z</time></trkpt><trkpt lat="43.7040555" lon="10.3864407"><ele>2.0</ele><time>2026-05-03T06:32:44.327Z</time></trkpt><trkpt lat="43.7042385" lon="10.3864457"><ele>2.0</ele><time>2026-05-03T06:32:45.338Z</time></trkpt><trkpt lat="43.7043893" lon="10.3864616"><ele>2.6666666666666665</ele><time>2026-05-03T06:32:46.326Z</time></trkpt><trkpt lat="43.7045273" lon="10.386449"><ele>3.333333333333333</ele><time>2026-05-03T06:32:47.329Z</time></trkpt><trkpt lat="43.7047088" lon="10.3864105"><ele>4.0</ele><time>2026-05-03T06:32:48.329Z</time></trkpt><trkpt lat="43.7048643" lon="10.3863725"><ele>3.6666666666666665</ele><time>2026-05-03T06:32:49.328Z</time></trkpt><trkpt lat="43.7050071" lon="10.3863376"><ele>3.333333333333333</ele><time>2026-05-03T06:32:50.34Z</time></trkpt><trkpt lat="43.7051759" lon="10.3862734"><ele>3.0</ele><time>2026-05-03T06:32:51.324Z</time></trkpt><trkpt lat="43.705357" lon="10.3862071"><ele>3.0</ele><time>2026-05-03T06:32:52.326Z</time></trkpt><trkpt lat="43.7055127" lon="10.3861653"><ele>3.0</ele><time>2026-05-03T06:32:53.322Z</time></trkpt><trkpt lat="43.705667" lon="10.3861655"><ele>3.0</ele><time>2026-05-03T06:32:54.325Z</time></trkpt><trkpt lat="43.7058284" lon="10.3861224"><ele>3.0</ele><time>2026-05-03T06:32:55.343Z</time></trkpt><trkpt lat="43.7059978" lon="10.3861193"><ele>3.0</ele><time>2026-05-03T06:32:56.324Z</time></trkpt><trkpt lat="43.7061638" lon="10.3860704"><ele>3.0</ele><time>2026-05-03T06:32:57.324Z</time></trkpt><trkpt lat="43.7063322" lon="10.3860113"><ele>3.0</ele><time>2026-05-03T06:32:58.321Z</time></trkpt><trkpt lat="43.7065008" lon="10.3859811"><ele>3.0</ele><time>2026-05-03T06:32:59.32Z</time></trkpt><trkpt lat="43.7066709" lon="10.3859614"><ele>3.0</ele><time>2026-05-03T06:33:00.333Z</time></trkpt><trkpt lat="43.7068243" lon="10.3859422"><ele>4.333333333333334</ele><time>2026-05-03T06:33:01.313Z</time></trkpt><trkpt lat="43.7069802" lon="10.3858713"><ele>5.666666666666667</ele><time>2026-05-03T06:33:02.315Z</time></trkpt><trkpt lat="43.7071486" lon="10.3858143"><ele>7.0</ele><time>2026-05-03T06:33:03.322Z</time></trkpt><trkpt lat="43.7072865" lon="10.3857657"><ele>7.0</ele><time>2026-05-03T06:33:04.317Z</time></trkpt><trkpt lat="43.7074262" lon="10.3857382"><ele>7.0</ele><time>2026-05-03T06:33:05.328Z</time></trkpt><trkpt lat="43.7075683" lon="10.3856882"><ele>7.0</ele><time>2026-05-03T06:33:06.319Z</time></trkpt><trkpt lat="43.7076721" lon="10.3856589"><ele>7.0</ele><time>2026-05-03T06:33:07.318Z</time></trkpt><trkpt lat="43.7077617" lon="10.385641"><ele>7.0</ele><time>2026-05-03T06:33:08.317Z</time></trkpt><trkpt lat="43.7078629" lon="10.3856087"><ele>7.0</ele><time>2026-05-03T06:33:09.311Z</time></trkpt><trkpt lat="43.7079698" lon="10.3855548"><ele>7.0</ele><time>2026-05-03T06:33:10.322Z</time></trkpt><trkpt lat="43.708096" lon="10.3855241"><ele>7.0</ele><time>2026-05-03T06:33:11.308Z</time></trkpt><trkpt lat="43.7081993" lon="10.3854798"><ele>6.3999999999999995</ele><time>2026-05-03T06:33:12.307Z</time></trkpt><trkpt lat="43.7083024" lon="10.3854344"><ele>5.799999999999999</ele><time>2026-05-03T06:33:13.304Z</time></trkpt><trkpt lat="43.7084058" lon="10.3854011"><ele>5.2</ele><time>2026-05-03T06:33:14.305Z</time></trkpt><trkpt lat="43.708529" lon="10.385373"><ele>4.6</ele><time>2026-05-03T06:33:15.327Z</time></trkpt><trkpt lat="43.7086319" lon="10.3853622"><ele>4.0</ele><time>2026-05-03T06:33:16.317Z</time></trkpt><trkpt lat="43.7087334" lon="10.3853712"><ele>4.0</ele><time>2026-05-03T06:33:17.314Z</time></trkpt><trkpt lat="43.7088187" lon="10.3853851"><ele>4.0</ele><time>2026-05-03T06:33:18.3Z</time></trkpt><trkpt lat="43.7089194" lon="10.385391"><ele>4.0</ele><time>2026-05-03T06:33:19.31Z</time></trkpt><trkpt lat="43.7089997" lon="10.3853649"><ele>4.0</ele><time>2026-05-03T06:33:20.329Z</time></trkpt><trkpt lat="43.7091317" lon="10.3853165"><ele>4.0</ele><time>2026-05-03T06:33:22.321Z</time></trkpt><trkpt lat="43.709262" lon="10.3852486"><ele>4.0</ele><time>2026-05-03T06:33:24.316Z</time></trkpt><trkpt lat="43.7093551" lon="10.3851981"><ele>4.0</ele><time>2026-05-03T06:33:25.324Z</time></trkpt><trkpt lat="43.7094555" lon="10.3851622"><ele>4.0</ele><time>2026-05-03T06:33:26.321Z</time></trkpt><trkpt lat="43.7095552" lon="10.3851416"><ele>4.0</ele><time>2026-05-03T06:33:27.309Z</time></trkpt><trkpt lat="43.7096576" lon="10.3851159"><ele>4.0</ele><time>2026-05-03T06:33:28.305Z</time></trkpt><trkpt lat="43.7097651" lon="10.3850927"><ele>4.0</ele><time>2026-05-03T06:33:29.307Z</time></trkpt><trkpt lat="43.7098632" lon="10.3850625"><ele>4.0</ele><time>2026-05-03T06:33:30.321Z</time></trkpt><trkpt lat="43.7099754" lon="10.3850277"><ele>4.0</ele><time>2026-05-03T06:33:31.303Z</time></trkpt><trkpt lat="43.7100819" lon="10.3849888"><ele>4.0</ele><time>2026-05-03T06:33:32.294Z</time></trkpt><trkpt lat="43.7102006" lon="10.3849501"><ele>4.0</ele><time>2026-05-03T06:33:33.312Z</time></trkpt><trkpt lat="43.710328" lon="10.3849069"><ele>3.75</ele><time>2026-05-03T06:33:34.314Z</time></trkpt><trkpt lat="43.7104547" lon="10.3848662"><ele>3.5</ele><time>2026-05-03T06:33:35.32Z</time></trkpt><trkpt lat="43.710575" lon="10.3848218"><ele>3.25</ele><time>2026-05-03T06:33:36.304Z</time></trkpt><trkpt lat="43.7107016" lon="10.3847691"><ele>3.0</ele><time>2026-05-03T06:33:37.306Z</time></trkpt><trkpt lat="43.7108303" lon="10.38471"><ele>3.0</ele><time>2026-05-03T06:33:38.315Z</time></trkpt><trkpt lat="43.7109583" lon="10.3846609"><ele>3.0</ele><time>2026-05-03T06:33:39.309Z</time></trkpt><trkpt lat="43.7110786" lon="10.3846215"><ele>3.0</ele><time>2026-05-03T06:33:40.316Z</time></trkpt><trkpt lat="43.7111873" lon="10.3845857"><ele>3.0</ele><time>2026-05-03T06:33:41.322Z</time></trkpt><trkpt lat="43.7112786" lon="10.3845474"><ele>3.1666666666666665</ele><time>2026-05-03T06:33:42.317Z</time></trkpt><trkpt lat="43.7113732" lon="10.3845026"><ele>3.333333333333333</ele><time>2026-05-03T06:33:43.315Z</time></trkpt><trkpt lat="43.7114489" lon="10.3844895"><ele>3.5</ele><time>2026-05-03T06:33:44.313Z</time></trkpt><trkpt lat="43.7115379" lon="10.3844661"><ele>3.6666666666666665</ele><time>2026-05-03T06:33:45.317Z</time></trkpt><trkpt lat="43.7116221" lon="10.3844373"><ele>3.833333333333333</ele><time>2026-05-03T06:33:46.323Z</time></trkpt><trkpt lat="43.7117091" lon="10.3844039"><ele>4.0</ele><time>2026-05-03T06:33:47.313Z</time></trkpt><trkpt lat="43.7117893" lon="10.3843762"><ele>3.6</ele><time>2026-05-03T06:33:48.324Z</time></trkpt><trkpt lat="43.7119109" lon="10.38437"><ele>3.2</ele><time>2026-05-03T06:33:50.315Z</time></trkpt><trkpt lat="43.7120007" lon="10.3844943"><ele>2.8000000000000003</ele><time>2026-05-03T06:33:52.298Z</time></trkpt><trkpt lat="43.7121077" lon="10.3845491"><ele>2.4000000000000004</ele><time>2026-05-03T06:33:54.281Z</time></trkpt><trkpt lat="43.712165" lon="10.3846003"><ele>2.0</ele><time>2026-05-03T06:33:55.275Z</time></trkpt><trkpt lat="43.7122596" lon="10.3848071"><ele>2.0</ele><time>2026-05-03T06:33:57.291Z</time></trkpt><trkpt lat="43.7123188" lon="10.3849933"><ele>2.0</ele><time>2026-05-03T06:33:58.266Z</time></trkpt><trkpt lat="43.7123885" lon="10.3851499"><ele>2.0</ele><time>2026-05-03T06:33:59.278Z</time></trkpt><trkpt lat="43.7124499" lon="10.3854025"><ele>3.0</ele><time>2026-05-03T06:34:00.298Z</time></trkpt><trkpt lat="43.7125096" lon="10.3856739"><ele>4.0</ele><time>2026-05-03T06:34:01.317Z</time></trkpt><trkpt lat="43.7125718" lon="10.3859405"><ele>5.0</ele><time>2026-05-03T06:34:02.298Z</time></trkpt><trkpt lat="43.7126241" lon="10.386185"><ele>7.0</ele><time>2026-05-03T06:34:03.301Z</time></trkpt><trkpt lat="43.7126613" lon="10.3864894"><ele>9.0</ele><time>2026-05-03T06:34:04.304Z</time></trkpt><trkpt lat="43.7127004" lon="10.3867913"><ele>11.0</ele><time>2026-05-03T06:34:05.301Z</time></trkpt><trkpt lat="43.7127238" lon="10.3870761"><ele>10.0</ele><time>2026-05-03T06:34:06.315Z</time></trkpt><trkpt lat="43.7127335" lon="10.3873113"><ele>9.0</ele><time>2026-05-03T06:34:07.301Z</time></trkpt><trkpt lat="43.7127509" lon="10.3875252"><ele>8.0</ele><time>2026-05-03T06:34:08.284Z</time></trkpt><trkpt lat="43.712765" lon="10.3876983"><ele>7.0</ele><time>2026-05-03T06:34:09.272Z</time></trkpt><trkpt lat="43.7127679" lon="10.3878947"><ele>6.0</ele><time>2026-05-03T06:34:10.286Z</time></trkpt><trkpt lat="43.7126893" lon="10.3880517"><ele>5.0</ele><time>2026-05-03T06:34:11.309Z</time></trkpt><trkpt lat="43.7126577" lon="10.3881951"><ele>4.0</ele><time>2026-05-03T06:34:12.297Z</time></trkpt><trkpt lat="43.7127928" lon="10.3883594"><ele>3.75</ele><time>2026-05-03T06:34:14.298Z</time></trkpt><trkpt lat="43.7128957" lon="10.3884617"><ele>3.5</ele><time>2026-05-03T06:34:15.304Z</time></trkpt><trkpt lat="43.7130089" lon="10.3885585"><ele>3.25</ele><time>2026-05-03T06:34:16.323Z</time></trkpt><trkpt lat="43.7131201" lon="10.3885961"><ele>3.0</ele><time>2026-05-03T06:34:17.317Z</time></trkpt><trkpt lat="43.7132493" lon="10.3885857"><ele>3.0</ele><time>2026-05-03T06:34:18.313Z</time></trkpt><trkpt lat="43.7133448" lon="10.3885699"><ele>3.0</ele><time>2026-05-03T06:34:19.319Z</time></trkpt><trkpt lat="43.7134096" lon="10.3886191"><ele>3.0</ele><time>2026-05-03T06:34:20.314Z</time></trkpt><trkpt lat="43.7134845" lon="10.3886423"><ele>3.0</ele><time>2026-05-03T06:34:21.326Z</time></trkpt><trkpt lat="43.7136246" lon="10.3886205"><ele>3.0</ele><time>2026-05-03T06:34:22.317Z</time></trkpt><trkpt lat="43.7136864" lon="10.3886392"><ele>3.0</ele><time>2026-05-03T06:34:23.304Z</time></trkpt><trkpt lat="43.7136597" lon="10.3887184"><ele>3.0</ele><time>2026-05-03T06:35:13.32Z</time></trkpt><trkpt lat="43.7137601" lon="10.3887205"><ele>3.0</ele><time>2026-05-03T06:35:18.317Z</time></trkpt><trkpt lat="43.7139019" lon="10.3886053"><ele>3.0</ele><time>2026-05-03T06:35:20.319Z</time></trkpt><trkpt lat="43.7140023" lon="10.3885245"><ele>3.0</ele><time>2026-05-03T06:35:21.313Z</time></trkpt><trkpt lat="43.7141004" lon="10.3884609"><ele>3.0</ele><time>2026-05-03T06:35:22.322Z</time></trkpt><trkpt lat="43.7142191" lon="10.3884159"><ele>3.0</ele><time>2026-05-03T06:35:23.312Z</time></trkpt><trkpt lat="43.7143336" lon="10.3883761"><ele>3.0</ele><time>2026-05-03T06:35:24.314Z</time></trkpt><trkpt lat="43.714459" lon="10.3883282"><ele>3.0</ele><time>2026-05-03T06:35:25.31Z</time></trkpt><trkpt lat="43.7145616" lon="10.3882713"><ele>3.75</ele><time>2026-05-03T06:35:26.308Z</time></trkpt><trkpt lat="43.7146704" lon="10.3882173"><ele>4.5</ele><time>2026-05-03T06:35:27.305Z</time></trkpt><trkpt lat="43.7147744" lon="10.3881662"><ele>5.25</ele><time>2026-05-03T06:35:28.304Z</time></trkpt><trkpt lat="43.7148879" lon="10.3881184"><ele>6.0</ele><time>2026-05-03T06:35:29.301Z</time></trkpt><trkpt lat="43.7150038" lon="10.388075"><ele>6.0</ele><time>2026-05-03T06:35:30.322Z</time></trkpt><trkpt lat="43.715115" lon="10.388025"><ele>6.0</ele><time>2026-05-03T06:35:31.307Z</time></trkpt><trkpt lat="43.7152212" lon="10.3879775"><ele>6.0</ele><time>2026-05-03T06:35:32.307Z</time></trkpt><trkpt lat="43.7153154" lon="10.3879292"><ele>6.0</ele><time>2026-05-03T06:35:33.309Z</time></trkpt><trkpt lat="43.7154037" lon="10.3878852"><ele>6.0</ele><time>2026-05-03T06:35:34.31Z</time></trkpt><trkpt lat="43.7155026" lon="10.3878446"><ele>5.3999999999999995</ele><time>2026-05-03T06:35:35.308Z</time></trkpt><trkpt lat="43.7156059" lon="10.387814"><ele>4.8</ele><time>2026-05-03T06:35:36.311Z</time></trkpt><trkpt lat="43.7157121" lon="10.3878023"><ele>4.199999999999999</ele><time>2026-05-03T06:35:37.305Z</time></trkpt><trkpt lat="43.7158156" lon="10.3877926"><ele>3.5999999999999996</ele><time>2026-05-03T06:35:38.295Z</time></trkpt><trkpt lat="43.7159259" lon="10.3877884"><ele>3.0</ele><time>2026-05-03T06:35:39.296Z</time></trkpt><trkpt lat="43.716038" lon="10.3878326"><ele>3.0</ele><time>2026-05-03T06:35:40.305Z</time></trkpt><trkpt lat="43.7161446" lon="10.3879233"><ele>3.0</ele><time>2026-05-03T06:35:41.305Z</time></trkpt><trkpt lat="43.7162273" lon="10.3880296"><ele>3.0</ele><time>2026-05-03T06:35:42.315Z</time></trkpt><trkpt lat="43.7163239" lon="10.3881185"><ele>3.0</ele><time>2026-05-03T06:35:43.317Z</time></trkpt><trkpt lat="43.7164225" lon="10.3882002"><ele>3.4</ele><time>2026-05-03T06:35:44.312Z</time></trkpt><trkpt lat="43.7165171" lon="10.3882816"><ele>3.8</ele><time>2026-05-03T06:35:45.313Z</time></trkpt><trkpt lat="43.7166077" lon="10.3883547"><ele>4.2</ele><time>2026-05-03T06:35:46.318Z</time></trkpt><trkpt lat="43.7167036" lon="10.3884226"><ele>4.6</ele><time>2026-05-03T06:35:47.311Z</time></trkpt><trkpt lat="43.7168016" lon="10.3884955"><ele>5.0</ele><time>2026-05-03T06:35:48.317Z</time></trkpt><trkpt lat="43.7169008" lon="10.388567"><ele>4.5</ele><time>2026-05-03T06:35:49.318Z</time></trkpt><trkpt lat="43.7170069" lon="10.3886434"><ele>4.0</ele><time>2026-05-03T06:35:50.312Z</time></trkpt><trkpt lat="43.7171205" lon="10.3887152"><ele>3.5</ele><time>2026-05-03T06:35:51.319Z</time></trkpt><trkpt lat="43.717229" lon="10.388793"><ele>3.0</ele><time>2026-05-03T06:35:52.315Z</time></trkpt><trkpt lat="43.7173355" lon="10.3888742"><ele>3.0</ele><time>2026-05-03T06:35:53.315Z</time></trkpt><trkpt lat="43.7174345" lon="10.3889539"><ele>3.0</ele><time>2026-05-03T06:35:54.312Z</time></trkpt><trkpt lat="43.7175417" lon="10.3890167"><ele>3.0</ele><time>2026-05-03T06:35:55.314Z</time></trkpt><trkpt lat="43.7176498" lon="10.3890744"><ele>3.0</ele><time>2026-05-03T06:35:56.312Z</time></trkpt><trkpt lat="43.7177545" lon="10.3891376"><ele>3.0</ele><time>2026-05-03T06:35:57.314Z</time></trkpt><trkpt lat="43.717855" lon="10.389207"><ele>3.0</ele><time>2026-05-03T06:35:58.312Z</time></trkpt><trkpt lat="43.7179627" lon="10.3892721"><ele>3.0</ele><time>2026-05-03T06:35:59.307Z</time></trkpt><trkpt lat="43.7180653" lon="10.3893449"><ele>3.0</ele><time>2026-05-03T06:36:00.309Z</time></trkpt><trkpt lat="43.7181652" lon="10.3894185"><ele>3.0</ele><time>2026-05-03T06:36:01.313Z</time></trkpt><trkpt lat="43.718263" lon="10.3894859"><ele>3.0</ele><time>2026-05-03T06:36:02.307Z</time></trkpt><trkpt lat="43.7183595" lon="10.3895552"><ele>3.0</ele><time>2026-05-03T06:36:03.306Z</time></trkpt><trkpt lat="43.7184553" lon="10.389626"><ele>3.0</ele><time>2026-05-03T06:36:04.308Z</time></trkpt><trkpt lat="43.7185541" lon="10.3896973"><ele>3.0</ele><time>2026-05-03T06:36:05.31Z</time></trkpt><trkpt lat="43.7186543" lon="10.3897661"><ele>3.2</ele><time>2026-05-03T06:36:06.313Z</time></trkpt><trkpt lat="43.718744" lon="10.3898502"><ele>3.4</ele><time>2026-05-03T06:36:07.312Z</time></trkpt><trkpt lat="43.7188313" lon="10.3899364"><ele>3.6000000000000005</ele><time>2026-05-03T06:36:08.315Z</time></trkpt><trkpt lat="43.7189216" lon="10.390002"><ele>3.8000000000000003</ele><time>2026-05-03T06:36:09.314Z</time></trkpt><trkpt lat="43.719027" lon="10.3900769"><ele>4.0</ele><time>2026-05-03T06:36:10.318Z</time></trkpt><trkpt lat="43.7191441" lon="10.3901436"><ele>4.0</ele><time>2026-05-03T06:36:11.316Z</time></trkpt><trkpt lat="43.7192632" lon="10.3902097"><ele>4.0</ele><time>2026-05-03T06:36:12.309Z</time></trkpt><trkpt lat="43.7193833" lon="10.390274"><ele>4.0</ele><time>2026-05-03T06:36:13.316Z</time></trkpt><trkpt lat="43.7195011" lon="10.3903449"><ele>4.0</ele><time>2026-05-03T06:36:14.321Z</time></trkpt><trkpt lat="43.7196208" lon="10.3904049"><ele>4.0</ele><time>2026-05-03T06:36:15.319Z</time></trkpt><trkpt lat="43.7197441" lon="10.3904625"><ele>4.0</ele><time>2026-05-03T06:36:16.322Z</time></trkpt><trkpt lat="43.7198628" lon="10.390541"><ele>4.0</ele><time>2026-05-03T06:36:17.324Z</time></trkpt><trkpt lat="43.7199711" lon="10.3906174"><ele>4.0</ele><time>2026-05-03T06:36:18.32Z</time></trkpt><trkpt lat="43.7200745" lon="10.3907022"><ele>4.0</ele><time>2026-05-03T06:36:19.321Z</time></trkpt><trkpt lat="43.7201785" lon="10.3907877"><ele>4.0</ele><time>2026-05-03T06:36:20.319Z</time></trkpt><trkpt lat="43.7202827" lon="10.3908703"><ele>4.0</ele><time>2026-05-03T06:36:21.318Z</time></trkpt><trkpt lat="43.7203907" lon="10.3909491"><ele>4.0</ele><time>2026-05-03T06:36:22.324Z</time></trkpt><trkpt lat="43.720502" lon="10.391031"><ele>4.5</ele><time>2026-05-03T06:36:23.317Z</time></trkpt><trkpt lat="43.720612" lon="10.3911116"><ele>5.0</ele><time>2026-05-03T06:36:24.319Z</time></trkpt><trkpt lat="43.7207237" lon="10.3911931"><ele>5.5</ele><time>2026-05-03T06:36:25.322Z</time></trkpt><trkpt lat="43.7208362" lon="10.3912767"><ele>6.0</ele><time>2026-05-03T06:36:26.319Z</time></trkpt><trkpt lat="43.7209492" lon="10.3913539"><ele>6.25</ele><time>2026-05-03T06:36:27.322Z</time></trkpt><trkpt lat="43.7210641" lon="10.3914335"><ele>6.5</ele><time>2026-05-03T06:36:28.318Z</time></trkpt><trkpt lat="43.7211807" lon="10.3915079"><ele>6.75</ele><time>2026-05-03T06:36:29.321Z</time></trkpt><trkpt lat="43.721297" lon="10.3915841"><ele>7.0</ele><time>2026-05-03T06:36:30.319Z</time></trkpt><trkpt lat="43.7214063" lon="10.3916646"><ele>6.5</ele><time>2026-05-03T06:36:31.319Z</time></trkpt><trkpt lat="43.7215151" lon="10.3917469"><ele>6.0</ele><time>2026-05-03T06:36:32.324Z</time></trkpt><trkpt lat="43.7216271" lon="10.3918207"><ele>5.5</ele><time>2026-05-03T06:36:33.314Z</time></trkpt><trkpt lat="43.7217403" lon="10.391886"><ele>5.0</ele><time>2026-05-03T06:36:34.318Z</time></trkpt><trkpt lat="43.7218512" lon="10.3919322"><ele>4.25</ele><time>2026-05-03T06:36:35.319Z</time></trkpt><trkpt lat="43.7219621" lon="10.3919774"><ele>3.5</ele><time>2026-05-03T06:36:36.31Z</time></trkpt><trkpt lat="43.7220687" lon="10.3920178"><ele>2.75</ele><time>2026-05-03T06:36:37.317Z</time></trkpt><trkpt lat="43.7221763" lon="10.3920624"><ele>2.0</ele><time>2026-05-03T06:36:38.315Z</time></trkpt><trkpt lat="43.7222868" lon="10.3921075"><ele>2.0</ele><time>2026-05-03T06:36:39.315Z</time></trkpt><trkpt lat="43.7223993" lon="10.3921382"><ele>2.0</ele><time>2026-05-03T06:36:40.321Z</time></trkpt><trkpt lat="43.7225109" lon="10.3921798"><ele>2.0</ele><time>2026-05-03T06:36:41.315Z</time></trkpt><trkpt lat="43.7226195" lon="10.392231"><ele>2.0</ele><time>2026-05-03T06:36:42.319Z</time></trkpt><trkpt lat="43.7227251" lon="10.392265"><ele>2.1666666666666665</ele><time>2026-05-03T06:36:43.318Z</time></trkpt><trkpt lat="43.72282" lon="10.3922777"><ele>2.333333333333333</ele><time>2026-05-03T06:36:44.32Z</time></trkpt><trkpt lat="43.7229127" lon="10.3922758"><ele>2.5</ele><time>2026-05-03T06:36:45.318Z</time></trkpt><trkpt lat="43.722991" lon="10.3922595"><ele>2.6666666666666665</ele><time>2026-05-03T06:36:46.323Z</time></trkpt><trkpt lat="43.7230724" lon="10.3922378"><ele>2.8333333333333335</ele><time>2026-05-03T06:36:47.319Z</time></trkpt><trkpt lat="43.723152" lon="10.3922006"><ele>3.0</ele><time>2026-05-03T06:36:48.319Z</time></trkpt><trkpt lat="43.7232467" lon="10.392156"><ele>3.0</ele><time>2026-05-03T06:36:49.315Z</time></trkpt><trkpt lat="43.7233451" lon="10.3921036"><ele>3.0</ele><time>2026-05-03T06:36:50.307Z</time></trkpt><trkpt lat="43.7234421" lon="10.392051"><ele>3.0</ele><time>2026-05-03T06:36:51.311Z</time></trkpt><trkpt lat="43.7235391" lon="10.3920014"><ele>3.0</ele><time>2026-05-03T06:36:52.306Z</time></trkpt><trkpt lat="43.7236397" lon="10.3919459"><ele>3.0</ele><time>2026-05-03T06:36:53.31Z</time></trkpt><trkpt lat="43.7237479" lon="10.3918905"><ele>2.75</ele><time>2026-05-03T06:36:54.308Z</time></trkpt><trkpt lat="43.7238607" lon="10.3918389"><ele>2.5</ele><time>2026-05-03T06:36:55.313Z</time></trkpt><trkpt lat="43.7239764" lon="10.3917936"><ele>2.25</ele><time>2026-05-03T06:36:56.316Z</time></trkpt><trkpt lat="43.7240884" lon="10.3917499"><ele>2.0</ele><time>2026-05-03T06:36:57.318Z</time></trkpt><trkpt lat="43.7241959" lon="10.3916935"><ele>2.0</ele><time>2026-05-03T06:36:58.312Z</time></trkpt><trkpt lat="43.7243062" lon="10.3916348"><ele>2.0</ele><time>2026-05-03T06:36:59.305Z</time></trkpt><trkpt lat="43.7244162" lon="10.3915653"><ele>2.0</ele><time>2026-05-03T06:37:00.31Z</time></trkpt><trkpt lat="43.7245222" lon="10.3915035"><ele>2.0</ele><time>2026-05-03T06:37:01.305Z</time></trkpt><trkpt lat="43.7246186" lon="10.3914436"><ele>1.9999999999999998</ele><time>2026-05-03T06:37:02.308Z</time></trkpt><trkpt lat="43.7247086" lon="10.3913899"><ele>2.0</ele><time>2026-05-03T06:37:03.309Z</time></trkpt><trkpt lat="43.7247876" lon="10.3913416"><ele>2.0</ele><time>2026-05-03T06:37:04.31Z</time></trkpt><trkpt lat="43.7248648" lon="10.3913083"><ele>2.0</ele><time>2026-05-03T06:37:05.309Z</time></trkpt><trkpt lat="43.7249349" lon="10.3912964"><ele>1.9999999999999998</ele><time>2026-05-03T06:37:06.307Z</time></trkpt><trkpt lat="43.7250007" lon="10.3913334"><ele>2.0</ele><time>2026-05-03T06:37:07.304Z</time></trkpt><trkpt lat="43.7250555" lon="10.3914085"><ele>2.2</ele><time>2026-05-03T06:37:08.307Z</time></trkpt><trkpt lat="43.7250989" lon="10.3914945"><ele>2.4000000000000004</ele><time>2026-05-03T06:37:09.302Z</time></trkpt><trkpt lat="43.7251238" lon="10.3916205"><ele>2.5999999999999996</ele><time>2026-05-03T06:37:10.311Z</time></trkpt><trkpt lat="43.7251296" lon="10.3917802"><ele>2.8</ele><time>2026-05-03T06:37:11.308Z</time></trkpt><trkpt lat="43.7251119" lon="10.3919803"><ele>3.0</ele><time>2026-05-03T06:37:12.305Z</time></trkpt><trkpt lat="43.7250885" lon="10.3921977"><ele>3.0</ele><time>2026-05-03T06:37:13.308Z</time></trkpt><trkpt lat="43.7250485" lon="10.3924396"><ele>3.0</ele><time>2026-05-03T06:37:14.308Z</time></trkpt><trkpt lat="43.7249975" lon="10.3926782"><ele>3.0</ele><time>2026-05-03T06:37:15.311Z</time></trkpt><trkpt lat="43.7249456" lon="10.3929057"><ele>3.0</ele><time>2026-05-03T06:37:16.321Z</time></trkpt><trkpt lat="43.7248903" lon="10.3931163"><ele>3.0</ele><time>2026-05-03T06:37:17.317Z</time></trkpt><trkpt lat="43.7248396" lon="10.3933356"><ele>3.0</ele><time>2026-05-03T06:37:18.319Z</time></trkpt><trkpt lat="43.724787" lon="10.3935438"><ele>3.0</ele><time>2026-05-03T06:37:19.322Z</time></trkpt><trkpt lat="43.7247376" lon="10.393744"><ele>3.0</ele><time>2026-05-03T06:37:20.323Z</time></trkpt><trkpt lat="43.7246897" lon="10.3939286"><ele>3.0</ele><time>2026-05-03T06:37:21.326Z</time></trkpt><trkpt lat="43.724647" lon="10.3941136"><ele>3.0</ele><time>2026-05-03T06:37:22.322Z</time></trkpt><trkpt lat="43.724614" lon="10.3943169"><ele>3.333333333333333</ele><time>2026-05-03T06:37:23.317Z</time></trkpt><trkpt lat="43.7245829" lon="10.3944974"><ele>3.6666666666666665</ele><time>2026-05-03T06:37:24.319Z</time></trkpt><trkpt lat="43.7245603" lon="10.3946842"><ele>4.0</ele><time>2026-05-03T06:37:25.32Z</time></trkpt><trkpt lat="43.7245117" lon="10.3950363"><ele>4.0</ele><time>2026-05-03T06:37:27.326Z</time></trkpt><trkpt lat="43.7244675" lon="10.3952113"><ele>4.0</ele><time>2026-05-03T06:37:28.323Z</time></trkpt><trkpt lat="43.7244161" lon="10.3953885"><ele>4.0</ele><time>2026-05-03T06:37:29.314Z</time></trkpt><trkpt lat="43.724375" lon="10.3955715"><ele>4.0</ele><time>2026-05-03T06:37:30.315Z</time></trkpt><trkpt lat="43.7243448" lon="10.3957671"><ele>4.25</ele><time>2026-05-03T06:37:31.318Z</time></trkpt><trkpt lat="43.724346" lon="10.3959852"><ele>4.5</ele><time>2026-05-03T06:37:32.322Z</time></trkpt><trkpt lat="43.7243233" lon="10.3961897"><ele>4.75</ele><time>2026-05-03T06:37:33.313Z</time></trkpt><trkpt lat="43.7242962" lon="10.3963802"><ele>5.0</ele><time>2026-05-03T06:37:34.317Z</time></trkpt><trkpt lat="43.7242357" lon="10.3965595"><ele>4.75</ele><time>2026-05-03T06:37:35.314Z</time></trkpt><trkpt lat="43.724184" lon="10.3967576"><ele>4.5</ele><time>2026-05-03T06:37:36.312Z</time></trkpt><trkpt lat="43.7241448" lon="10.3969315"><ele>4.25</ele><time>2026-05-03T06:37:37.311Z</time></trkpt><trkpt lat="43.7241043" lon="10.3970895"><ele>4.0</ele><time>2026-05-03T06:37:38.309Z</time></trkpt><trkpt lat="43.7240821" lon="10.3973003"><ele>4.0</ele><time>2026-05-03T06:37:59.321Z</time></trkpt><trkpt lat="43.724073" lon="10.3973912"><ele>4.0</ele><time>2026-05-03T06:38:00.32Z</time></trkpt><trkpt lat="43.7240304" lon="10.3975372"><ele>4.0</ele><time>2026-05-03T06:38:01.315Z</time></trkpt><trkpt lat="43.7239664" lon="10.397735"><ele>4.0</ele><time>2026-05-03T06:38:02.317Z</time></trkpt><trkpt lat="43.7238758" lon="10.397912"><ele>4.0</ele><time>2026-05-03T06:38:03.313Z</time></trkpt><trkpt lat="43.7237884" lon="10.3980737"><ele>4.0</ele><time>2026-05-03T06:38:04.316Z</time></trkpt><trkpt lat="43.7237276" lon="10.3982326"><ele>4.0</ele><time>2026-05-03T06:38:05.324Z</time></trkpt><trkpt lat="43.7236824" lon="10.3983806"><ele>4.0</ele><time>2026-05-03T06:38:06.319Z</time></trkpt><trkpt lat="43.7236446" lon="10.3985273"><ele>4.0</ele><time>2026-05-03T06:38:07.31Z</time></trkpt><trkpt lat="43.7236022" lon="10.3986664"><ele>4.0</ele><time>2026-05-03T06:38:08.31Z</time></trkpt><trkpt lat="43.7235671" lon="10.3988181"><ele>4.0</ele><time>2026-05-03T06:38:09.311Z</time></trkpt><trkpt lat="43.7235244" lon="10.3989654"><ele>4.0</ele><time>2026-05-03T06:38:10.313Z</time></trkpt><trkpt lat="43.7234991" lon="10.3991269"><ele>4.5</ele><time>2026-05-03T06:38:11.315Z</time></trkpt><trkpt lat="43.723465" lon="10.3992744"><ele>5.0</ele><time>2026-05-03T06:38:12.31Z</time></trkpt><trkpt lat="43.7234292" lon="10.3994402"><ele>5.5</ele><time>2026-05-03T06:38:13.313Z</time></trkpt><trkpt lat="43.7233994" lon="10.3995981"><ele>6.0</ele><time>2026-05-03T06:38:14.309Z</time></trkpt><trkpt lat="43.7233783" lon="10.3997712"><ele>6.0</ele><time>2026-05-03T06:38:15.31Z</time></trkpt><trkpt lat="43.7233427" lon="10.3999324"><ele>6.0</ele><time>2026-05-03T06:38:16.309Z</time></trkpt><trkpt lat="43.7233082" lon="10.4001025"><ele>6.0</ele><time>2026-05-03T06:38:17.306Z</time></trkpt><trkpt lat="43.7232731" lon="10.4002642"><ele>6.0</ele><time>2026-05-03T06:38:18.311Z</time></trkpt><trkpt lat="43.7232352" lon="10.4004107"><ele>5.6</ele><time>2026-05-03T06:38:19.312Z</time></trkpt><trkpt lat="43.7232053" lon="10.4005438"><ele>5.199999999999999</ele><time>2026-05-03T06:38:20.31Z</time></trkpt><trkpt lat="43.7231821" lon="10.4006645"><ele>4.800000000000001</ele><time>2026-05-03T06:38:21.311Z</time></trkpt><trkpt lat="43.7231554" lon="10.4007879"><ele>4.4</ele><time>2026-05-03T06:38:22.311Z</time></trkpt><trkpt lat="43.7231161" lon="10.4008954"><ele>4.0</ele><time>2026-05-03T06:38:23.316Z</time></trkpt><trkpt lat="43.7230813" lon="10.4010183"><ele>3.9999999999999996</ele><time>2026-05-03T06:38:24.311Z</time></trkpt><trkpt lat="43.72304" lon="10.401128"><ele>4.0</ele><time>2026-05-03T06:38:25.309Z</time></trkpt><trkpt lat="43.7230059" lon="10.4012227"><ele>4.0</ele><time>2026-05-03T06:38:26.309Z</time></trkpt><trkpt lat="43.7229759" lon="10.4013046"><ele>4.0</ele><time>2026-05-03T06:38:27.307Z</time></trkpt><trkpt lat="43.7229603" lon="10.4013897"><ele>3.9999999999999996</ele><time>2026-05-03T06:38:28.307Z</time></trkpt><trkpt lat="43.7229316" lon="10.4015055"><ele>4.0</ele><time>2026-05-03T06:38:30.312Z</time></trkpt><trkpt lat="43.7229166" lon="10.4020775"><ele>4.0</ele><time>2026-05-03T06:39:06.302Z</time></trkpt><trkpt lat="43.7229406" lon="10.4022172"><ele>4.0</ele><time>2026-05-03T06:39:07.306Z</time></trkpt><trkpt lat="43.7229713" lon="10.4023749"><ele>4.0</ele><time>2026-05-03T06:39:08.299Z</time></trkpt><trkpt lat="43.7230033" lon="10.4025438"><ele>4.0</ele><time>2026-05-03T06:39:09.299Z</time></trkpt><trkpt lat="43.7230398" lon="10.4027478"><ele>4.0</ele><time>2026-05-03T06:39:10.309Z</time></trkpt><trkpt lat="43.7231202" lon="10.4031273"><ele>4.0</ele><time>2026-05-03T06:39:12.314Z</time></trkpt><trkpt lat="43.7231646" lon="10.4033033"><ele>4.0</ele><time>2026-05-03T06:39:13.31Z</time></trkpt><trkpt lat="43.7232007" lon="10.4034805"><ele>4.0</ele><time>2026-05-03T06:39:14.306Z</time></trkpt><trkpt lat="43.7232401" lon="10.4036703"><ele>4.0</ele><time>2026-05-03T06:39:15.299Z</time></trkpt><trkpt lat="43.7232834" lon="10.403849"><ele>4.0</ele><time>2026-05-03T06:39:16.305Z</time></trkpt><trkpt lat="43.7233297" lon="10.4040269"><ele>4.0</ele><time>2026-05-03T06:39:17.305Z</time></trkpt><trkpt lat="43.7233655" lon="10.4041967"><ele>4.5</ele><time>2026-05-03T06:39:18.299Z</time></trkpt><trkpt lat="43.7233934" lon="10.4043686"><ele>5.0</ele><time>2026-05-03T06:39:19.308Z</time></trkpt><trkpt lat="43.7234308" lon="10.4045516"><ele>5.5</ele><time>2026-05-03T06:39:20.304Z</time></trkpt><trkpt lat="43.7234646" lon="10.4047433"><ele>6.0</ele><time>2026-05-03T06:39:21.307Z</time></trkpt><trkpt lat="43.7235169" lon="10.4049333"><ele>5.5</ele><time>2026-05-03T06:39:22.311Z</time></trkpt><trkpt lat="43.7235699" lon="10.4051106"><ele>5.0</ele><time>2026-05-03T06:39:23.305Z</time></trkpt><trkpt lat="43.7236241" lon="10.4052905"><ele>4.5</ele><time>2026-05-03T06:39:24.302Z</time></trkpt><trkpt lat="43.7236596" lon="10.405452"><ele>4.0</ele><time>2026-05-03T06:39:25.294Z</time></trkpt><trkpt lat="43.7236937" lon="10.4056374"><ele>4.0</ele><time>2026-05-03T06:39:26.294Z</time></trkpt><trkpt lat="43.7237371" lon="10.4058065"><ele>4.0</ele><time>2026-05-03T06:39:27.293Z</time></trkpt><trkpt lat="43.7237879" lon="10.4059869"><ele>4.0</ele><time>2026-05-03T06:39:28.285Z</time></trkpt><trkpt lat="43.7238418" lon="10.4061797"><ele>4.0</ele><time>2026-05-03T06:39:29.293Z</time></trkpt><trkpt lat="43.7238746" lon="10.4063432"><ele>3.75</ele><time>2026-05-03T06:39:30.29Z</time></trkpt><trkpt lat="43.7239283" lon="10.4065266"><ele>3.5</ele><time>2026-05-03T06:39:31.291Z</time></trkpt><trkpt lat="43.7239675" lon="10.4067039"><ele>3.25</ele><time>2026-05-03T06:39:32.294Z</time></trkpt><trkpt lat="43.7240259" lon="10.4068775"><ele>3.0</ele><time>2026-05-03T06:39:33.302Z</time></trkpt><trkpt lat="43.724072" lon="10.4070489"><ele>3.25</ele><time>2026-05-03T06:39:34.303Z</time></trkpt><trkpt lat="43.724113" lon="10.4072215"><ele>3.5</ele><time>2026-05-03T06:39:35.297Z</time></trkpt><trkpt lat="43.7241545" lon="10.407387"><ele>3.75</ele><time>2026-05-03T06:39:36.301Z</time></trkpt><trkpt lat="43.7241794" lon="10.4075743"><ele>4.0</ele><time>2026-05-03T06:39:37.299Z</time></trkpt><trkpt lat="43.7242122" lon="10.4077625"><ele>4.0</ele><time>2026-05-03T06:39:38.324Z</time></trkpt><trkpt lat="43.7242571" lon="10.4079215"><ele>4.0</ele><time>2026-05-03T06:39:39.312Z</time></trkpt><trkpt lat="43.7243015" lon="10.408077"><ele>4.0</ele><time>2026-05-03T06:39:40.309Z</time></trkpt><trkpt lat="43.7243406" lon="10.4082334"><ele>4.0</ele><time>2026-05-03T06:39:41.314Z</time></trkpt><trkpt lat="43.7243711" lon="10.4083763"><ele>4.0</ele><time>2026-05-03T06:39:42.315Z</time></trkpt><trkpt lat="43.7243814" lon="10.408505"><ele>4.0</ele><time>2026-05-03T06:39:43.319Z</time></trkpt><trkpt lat="43.7243989" lon="10.408621"><ele>4.0</ele><time>2026-05-03T06:39:44.322Z</time></trkpt><trkpt lat="43.7244357" lon="10.4087318"><ele>4.0</ele><time>2026-05-03T06:39:45.315Z</time></trkpt><trkpt lat="43.7244572" lon="10.4088528"><ele>4.0</ele><time>2026-05-03T06:39:46.316Z</time></trkpt><trkpt lat="43.7244901" lon="10.408996"><ele>3.6</ele><time>2026-05-03T06:39:47.313Z</time></trkpt><trkpt lat="43.7245445" lon="10.4091373"><ele>3.2</ele><time>2026-05-03T06:39:48.319Z</time></trkpt><trkpt lat="43.7245889" lon="10.4092576"><ele>2.8000000000000003</ele><time>2026-05-03T06:39:49.312Z</time></trkpt><trkpt lat="43.724615" lon="10.4093838"><ele>2.4000000000000004</ele><time>2026-05-03T06:39:50.309Z</time></trkpt><trkpt lat="43.7246287" lon="10.4095065"><ele>2.0</ele><time>2026-05-03T06:39:51.31Z</time></trkpt><trkpt lat="43.7246718" lon="10.4096275"><ele>1.9999999999999998</ele><time>2026-05-03T06:39:52.315Z</time></trkpt><trkpt lat="43.7247051" lon="10.4097236"><ele>2.0</ele><time>2026-05-03T06:39:53.326Z</time></trkpt><trkpt lat="43.7247721" lon="10.4098143"><ele>2.0</ele><time>2026-05-03T06:39:54.325Z</time></trkpt><trkpt lat="43.7248275" lon="10.4099132"><ele>2.0</ele><time>2026-05-03T06:39:55.328Z</time></trkpt><trkpt lat="43.7248756" lon="10.4100001"><ele>1.9999999999999998</ele><time>2026-05-03T06:39:56.312Z</time></trkpt><trkpt lat="43.724889" lon="10.4101359"><ele>2.0</ele><time>2026-05-03T06:39:57.305Z</time></trkpt><trkpt lat="43.7249362" lon="10.4102987"><ele>2.333333333333333</ele><time>2026-05-03T06:39:58.295Z</time></trkpt><trkpt lat="43.7249874" lon="10.4104932"><ele>2.6666666666666665</ele><time>2026-05-03T06:39:59.302Z</time></trkpt><trkpt lat="43.7250483" lon="10.410729"><ele>3.0</ele><time>2026-05-03T06:40:00.299Z</time></trkpt><trkpt lat="43.7251107" lon="10.4109676"><ele>3.0</ele><time>2026-05-03T06:40:01.294Z</time></trkpt><trkpt lat="43.7251866" lon="10.4112079"><ele>3.0</ele><time>2026-05-03T06:40:02.282Z</time></trkpt><trkpt lat="43.7252723" lon="10.4114411"><ele>3.0</ele><time>2026-05-03T06:40:03.283Z</time></trkpt><trkpt lat="43.7253236" lon="10.411657"><ele>3.333333333333333</ele><time>2026-05-03T06:40:04.273Z</time></trkpt><trkpt lat="43.7253672" lon="10.4118837"><ele>3.6666666666666665</ele><time>2026-05-03T06:40:05.265Z</time></trkpt><trkpt lat="43.7253926" lon="10.4121283"><ele>4.0</ele><time>2026-05-03T06:40:06.281Z</time></trkpt><trkpt lat="43.7254463" lon="10.412343"><ele>4.0</ele><time>2026-05-03T06:40:07.288Z</time></trkpt><trkpt lat="43.7255014" lon="10.4125401"><ele>4.0</ele><time>2026-05-03T06:40:08.278Z</time></trkpt><trkpt lat="43.7256035" lon="10.412728"><ele>4.0</ele><time>2026-05-03T06:40:09.281Z</time></trkpt><trkpt lat="43.7256891" lon="10.4129138"><ele>4.0</ele><time>2026-05-03T06:40:10.286Z</time></trkpt><trkpt lat="43.7257937" lon="10.4131242"><ele>4.0</ele><time>2026-05-03T06:40:11.273Z</time></trkpt><trkpt lat="43.7258971" lon="10.4133221"><ele>4.0</ele><time>2026-05-03T06:40:12.272Z</time></trkpt><trkpt lat="43.7260429" lon="10.413568"><ele>4.0</ele><time>2026-05-03T06:40:13.271Z</time></trkpt><trkpt lat="43.7261733" lon="10.4137818"><ele>4.0</ele><time>2026-05-03T06:40:14.27Z</time></trkpt><trkpt lat="43.7263012" lon="10.4139978"><ele>4.0</ele><time>2026-05-03T06:40:15.272Z</time></trkpt><trkpt lat="43.7264113" lon="10.4141583"><ele>4.0</ele><time>2026-05-03T06:40:16.273Z</time></trkpt><trkpt lat="43.7265179" lon="10.4142925"><ele>4.0</ele><time>2026-05-03T06:40:17.287Z</time></trkpt><trkpt lat="43.7265821" lon="10.4143869"><ele>4.0</ele><time>2026-05-03T06:40:18.295Z</time></trkpt><trkpt lat="43.7266464" lon="10.4144466"><ele>4.0</ele><time>2026-05-03T06:40:19.294Z</time></trkpt><trkpt lat="43.7267139" lon="10.4145674"><ele>4.0</ele><time>2026-05-03T06:40:20.296Z</time></trkpt><trkpt lat="43.7268021" lon="10.4147156"><ele>3.0</ele><time>2026-05-03T06:40:21.299Z</time></trkpt><trkpt lat="43.7269118" lon="10.4148817"><ele>2.0</ele><time>2026-05-03T06:40:22.294Z</time></trkpt><trkpt lat="43.7270371" lon="10.4150535"><ele>1.0</ele><time>2026-05-03T06:40:23.295Z</time></trkpt><trkpt lat="43.7271519" lon="10.4152455"><ele>1.0</ele><time>2026-05-03T06:40:24.296Z</time></trkpt><trkpt lat="43.7272376" lon="10.4154315"><ele>1.0</ele><time>2026-05-03T06:40:25.297Z</time></trkpt><trkpt lat="43.727329" lon="10.4155906"><ele>1.0</ele><time>2026-05-03T06:40:26.296Z</time></trkpt><trkpt lat="43.7274359" lon="10.4157439"><ele>1.0</ele><time>2026-05-03T06:40:27.302Z</time></trkpt><trkpt lat="43.7275334" lon="10.4158659"><ele>1.0</ele><time>2026-05-03T06:40:28.295Z</time></trkpt><trkpt lat="43.7276422" lon="10.4159751"><ele>1.0</ele><time>2026-05-03T06:40:29.291Z</time></trkpt><trkpt lat="43.7277377" lon="10.4161193"><ele>1.0</ele><time>2026-05-03T06:40:30.298Z</time></trkpt><trkpt lat="43.7278461" lon="10.4162901"><ele>1.0</ele><time>2026-05-03T06:40:31.281Z</time></trkpt><trkpt lat="43.7280834" lon="10.4166655"><ele>1.0</ele><time>2026-05-03T06:40:33.293Z</time></trkpt><trkpt lat="43.728198" lon="10.4168712"><ele>1.0</ele><time>2026-05-03T06:40:34.299Z</time></trkpt><trkpt lat="43.7283224" lon="10.4170696"><ele>1.0</ele><time>2026-05-03T06:40:35.302Z</time></trkpt><trkpt lat="43.7284415" lon="10.4172808"><ele>1.0</ele><time>2026-05-03T06:40:36.302Z</time></trkpt><trkpt lat="43.7285362" lon="10.4175037"><ele>1.0</ele><time>2026-05-03T06:40:37.295Z</time></trkpt><trkpt lat="43.7286558" lon="10.4176744"><ele>1.0</ele><time>2026-05-03T06:40:38.296Z</time></trkpt><trkpt lat="43.7287929" lon="10.4178773"><ele>1.0</ele><time>2026-05-03T06:40:39.303Z</time></trkpt><trkpt lat="43.7289189" lon="10.4180785"><ele>1.0</ele><time>2026-05-03T06:40:40.299Z</time></trkpt><trkpt lat="43.7290539" lon="10.4182857"><ele>1.0</ele><time>2026-05-03T06:40:41.302Z</time></trkpt><trkpt lat="43.729176" lon="10.4184779"><ele>1.0</ele><time>2026-05-03T06:40:42.308Z</time></trkpt><trkpt lat="43.7292972" lon="10.4186337"><ele>0.6666666666666666</ele><time>2026-05-03T06:40:43.303Z</time></trkpt><trkpt lat="43.729425" lon="10.4187821"><ele>0.3333333333333333</ele><time>2026-05-03T06:40:44.304Z</time></trkpt><trkpt lat="43.729543" lon="10.4189197"><ele>0.0</ele><time>2026-05-03T06:40:45.301Z</time></trkpt><trkpt lat="43.7296603" lon="10.419061"><ele>0.0</ele><time>2026-05-03T06:40:46.307Z</time></trkpt><trkpt lat="43.72977" lon="10.4192269"><ele>0.0</ele><time>2026-05-03T06:40:47.313Z</time></trkpt><trkpt lat="43.7298843" lon="10.4193846"><ele>0.0</ele><time>2026-05-03T06:40:48.309Z</time></trkpt><trkpt lat="43.7300022" lon="10.4195514"><ele>0.3333333333333333</ele><time>2026-05-03T06:40:49.306Z</time></trkpt><trkpt lat="43.7301147" lon="10.4197115"><ele>0.6666666666666666</ele><time>2026-05-03T06:40:50.304Z</time></trkpt><trkpt lat="43.7302522" lon="10.4198793"><ele>1.0</ele><time>2026-05-03T06:40:51.304Z</time></trkpt><trkpt lat="43.7304107" lon="10.4200352"><ele>1.0</ele><time>2026-05-03T06:40:52.302Z</time></trkpt><trkpt lat="43.7305235" lon="10.4201918"><ele>1.0</ele><time>2026-05-03T06:40:53.304Z</time></trkpt><trkpt lat="43.7306365" lon="10.4203734"><ele>1.0</ele><time>2026-05-03T06:40:54.301Z</time></trkpt><trkpt lat="43.730763" lon="10.4205291"><ele>1.3333333333333333</ele><time>2026-05-03T06:40:55.302Z</time></trkpt><trkpt lat="43.7308965" lon="10.4206553"><ele>1.6666666666666665</ele><time>2026-05-03T06:40:56.302Z</time></trkpt><trkpt lat="43.7310399" lon="10.4207851"><ele>2.0</ele><time>2026-05-03T06:40:57.312Z</time></trkpt><trkpt lat="43.731156" lon="10.4209265"><ele>2.0</ele><time>2026-05-03T06:40:58.303Z</time></trkpt><trkpt lat="43.7312918" lon="10.4210329"><ele>2.0</ele><time>2026-05-03T06:40:59.304Z</time></trkpt><trkpt lat="43.7314322" lon="10.4211771"><ele>2.0</ele><time>2026-05-03T06:41:00.305Z</time></trkpt><trkpt lat="43.7315868" lon="10.4213114"><ele>2.6666666666666665</ele><time>2026-05-03T06:41:01.3Z</time></trkpt><trkpt lat="43.7317376" lon="10.421447"><ele>3.333333333333333</ele><time>2026-05-03T06:41:02.312Z</time></trkpt><trkpt lat="43.7318605" lon="10.4215121"><ele>4.0</ele><time>2026-05-03T06:41:03.306Z</time></trkpt><trkpt lat="43.7320332" lon="10.4216215"><ele>4.5</ele><time>2026-05-03T06:41:04.304Z</time></trkpt><trkpt lat="43.7322813" lon="10.4216678"><ele>5.0</ele><time>2026-05-03T06:41:05.32Z</time></trkpt><trkpt lat="43.7325309" lon="10.421787"><ele>4.5</ele><time>2026-05-03T06:41:06.309Z</time></trkpt><trkpt lat="43.7327729" lon="10.4218795"><ele>4.0</ele><time>2026-05-03T06:41:07.316Z</time></trkpt><trkpt lat="43.7330251" lon="10.4220411"><ele>3.0</ele><time>2026-05-03T06:41:08.314Z</time></trkpt><trkpt lat="43.7332557" lon="10.4221665"><ele>2.0</ele><time>2026-05-03T06:41:09.308Z</time></trkpt><trkpt lat="43.7335163" lon="10.4222625"><ele>3.5</ele><time>2026-05-03T06:41:10.321Z</time></trkpt><trkpt lat="43.7337298" lon="10.4223789"><ele>5.0</ele><time>2026-05-03T06:41:11.317Z</time></trkpt><trkpt lat="43.7339544" lon="10.4224857"><ele>5.0</ele><time>2026-05-03T06:41:12.317Z</time></trkpt><trkpt lat="43.7341864" lon="10.422592"><ele>5.0</ele><time>2026-05-03T06:41:13.32Z</time></trkpt><trkpt lat="43.7344039" lon="10.4226849"><ele>4.5</ele><time>2026-05-03T06:41:14.319Z</time></trkpt><trkpt lat="43.7346408" lon="10.4228018"><ele>4.0</ele><time>2026-05-03T06:41:15.315Z</time></trkpt><trkpt lat="43.7348813" lon="10.4229212"><ele>4.0</ele><time>2026-05-03T06:41:16.319Z</time></trkpt><trkpt lat="43.7350889" lon="10.4229753"><ele>4.0</ele><time>2026-05-03T06:41:17.32Z</time></trkpt><trkpt lat="43.7353076" lon="10.4230905"><ele>4.0</ele><time>2026-05-03T06:41:18.325Z</time></trkpt><trkpt lat="43.7355143" lon="10.4232145"><ele>3.0</ele><time>2026-05-03T06:41:19.317Z</time></trkpt><trkpt lat="43.7357413" lon="10.4233454"><ele>2.0</ele><time>2026-05-03T06:41:20.317Z</time></trkpt><trkpt lat="43.7359555" lon="10.4234761"><ele>1.6666666666666665</ele><time>2026-05-03T06:41:21.321Z</time></trkpt><trkpt lat="43.7361639" lon="10.4235749"><ele>1.3333333333333333</ele><time>2026-05-03T06:41:22.322Z</time></trkpt><trkpt lat="43.7363574" lon="10.4236797"><ele>1.0</ele><time>2026-05-03T06:41:23.321Z</time></trkpt><trkpt lat="43.7365284" lon="10.423765"><ele>1.3333333333333333</ele><time>2026-05-03T06:41:24.323Z</time></trkpt><trkpt lat="43.7367086" lon="10.4238446"><ele>1.6666666666666665</ele><time>2026-05-03T06:41:25.326Z</time></trkpt><trkpt lat="43.7368694" lon="10.4239406"><ele>2.0</ele><time>2026-05-03T06:41:26.33Z</time></trkpt><trkpt lat="43.737027" lon="10.4240305"><ele>2.0</ele><time>2026-05-03T06:41:27.322Z</time></trkpt><trkpt lat="43.7372169" lon="10.4241195"><ele>2.0</ele><time>2026-05-03T06:41:28.322Z</time></trkpt><trkpt lat="43.7374263" lon="10.424229"><ele>2.0</ele><time>2026-05-03T06:41:29.325Z</time></trkpt><trkpt lat="43.7376351" lon="10.4243426"><ele>1.3333333333333333</ele><time>2026-05-03T06:41:30.327Z</time></trkpt><trkpt lat="43.7378517" lon="10.4244509"><ele>0.6666666666666666</ele><time>2026-05-03T06:41:31.33Z</time></trkpt><trkpt lat="43.7380555" lon="10.42455"><ele>0.0</ele><time>2026-05-03T06:41:32.327Z</time></trkpt><trkpt lat="43.7382591" lon="10.4246515"><ele>0.0</ele><time>2026-05-03T06:41:33.33Z</time></trkpt><trkpt lat="43.7384748" lon="10.4247166"><ele>0.0</ele><time>2026-05-03T06:41:34.327Z</time></trkpt><trkpt lat="43.7386839" lon="10.4248362"><ele>0.0</ele><time>2026-05-03T06:41:35.329Z</time></trkpt><trkpt lat="43.7389008" lon="10.4249197"><ele>0.0</ele><time>2026-05-03T06:41:36.331Z</time></trkpt><trkpt lat="43.7390895" lon="10.4249841"><ele>0.0</ele><time>2026-05-03T06:41:37.322Z</time></trkpt><trkpt lat="43.7392767" lon="10.4250773"><ele>0.0</ele><time>2026-05-03T06:41:38.325Z</time></trkpt><trkpt lat="43.7394673" lon="10.4251729"><ele>-0.3333333333333333</ele><time>2026-05-03T06:41:39.324Z</time></trkpt><trkpt lat="43.739648" lon="10.4252585"><ele>-0.6666666666666666</ele><time>2026-05-03T06:41:40.325Z</time></trkpt><trkpt lat="43.7398426" lon="10.4253644"><ele>-1.0</ele><time>2026-05-03T06:41:41.327Z</time></trkpt><trkpt lat="43.7400065" lon="10.4254445"><ele>0.0</ele><time>2026-05-03T06:41:42.323Z</time></trkpt><trkpt lat="43.7401779" lon="10.4255978"><ele>1.0</ele><time>2026-05-03T06:41:43.318Z</time></trkpt><trkpt lat="43.7403779" lon="10.4257916"><ele>2.0</ele><time>2026-05-03T06:41:44.324Z</time></trkpt><trkpt lat="43.7405754" lon="10.4259735"><ele>2.0</ele><time>2026-05-03T06:41:45.328Z</time></trkpt><trkpt lat="43.7407632" lon="10.4261311"><ele>2.0</ele><time>2026-05-03T06:41:46.326Z</time></trkpt><trkpt lat="43.7409448" lon="10.426304"><ele>2.0</ele><time>2026-05-03T06:41:47.321Z</time></trkpt><trkpt lat="43.7411472" lon="10.4264793"><ele>2.0</ele><time>2026-05-03T06:41:48.323Z</time></trkpt><trkpt lat="43.7413394" lon="10.426669"><ele>2.0</ele><time>2026-05-03T06:41:49.321Z</time></trkpt><trkpt lat="43.7415264" lon="10.426848"><ele>2.0</ele><time>2026-05-03T06:41:50.32Z</time></trkpt><trkpt lat="43.7416792" lon="10.4270066"><ele>2.0</ele><time>2026-05-03T06:41:51.32Z</time></trkpt><trkpt lat="43.741846" lon="10.4271648"><ele>2.0</ele><time>2026-05-03T06:41:52.327Z</time></trkpt><trkpt lat="43.7420205" lon="10.4273334"><ele>2.333333333333333</ele><time>2026-05-03T06:41:53.327Z</time></trkpt><trkpt lat="43.742176" lon="10.4274795"><ele>2.6666666666666665</ele><time>2026-05-03T06:41:54.326Z</time></trkpt><trkpt lat="43.7423095" lon="10.4276106"><ele>3.0</ele><time>2026-05-03T06:41:55.325Z</time></trkpt><trkpt lat="43.7424389" lon="10.4277492"><ele>3.0</ele><time>2026-05-03T06:41:56.323Z</time></trkpt><trkpt lat="43.7425537" lon="10.427897"><ele>3.0</ele><time>2026-05-03T06:41:57.325Z</time></trkpt><trkpt lat="43.7427032" lon="10.4280342"><ele>3.0</ele><time>2026-05-03T06:41:58.326Z</time></trkpt><trkpt lat="43.742839" lon="10.4281506"><ele>2.6666666666666665</ele><time>2026-05-03T06:41:59.319Z</time></trkpt><trkpt lat="43.7429713" lon="10.428275"><ele>2.333333333333333</ele><time>2026-05-03T06:42:00.317Z</time></trkpt><trkpt lat="43.7431097" lon="10.4284139"><ele>2.0</ele><time>2026-05-03T06:42:01.32Z</time></trkpt><trkpt lat="43.7432439" lon="10.4285598"><ele>2.0</ele><time>2026-05-03T06:42:02.319Z</time></trkpt><trkpt lat="43.7433885" lon="10.4286984"><ele>2.0</ele><time>2026-05-03T06:42:03.316Z</time></trkpt><trkpt lat="43.7435329" lon="10.4288362"><ele>2.0</ele><time>2026-05-03T06:42:04.318Z</time></trkpt><trkpt lat="43.7436727" lon="10.4289532"><ele>2.333333333333333</ele><time>2026-05-03T06:42:05.326Z</time></trkpt><trkpt lat="43.7438279" lon="10.4291043"><ele>2.6666666666666665</ele><time>2026-05-03T06:42:06.324Z</time></trkpt><trkpt lat="43.7440197" lon="10.4292812"><ele>3.0</ele><time>2026-05-03T06:42:07.316Z</time></trkpt><trkpt lat="43.744244" lon="10.4294726"><ele>3.5</ele><time>2026-05-03T06:42:08.312Z</time></trkpt><trkpt lat="43.7444953" lon="10.4296736"><ele>4.0</ele><time>2026-05-03T06:42:09.327Z</time></trkpt><trkpt lat="43.7447269" lon="10.4298672"><ele>4.0</ele><time>2026-05-03T06:42:10.326Z</time></trkpt><trkpt lat="43.7449603" lon="10.4300395"><ele>4.0</ele><time>2026-05-03T06:42:11.317Z</time></trkpt><trkpt lat="43.7451803" lon="10.4302236"><ele>3.5</ele><time>2026-05-03T06:42:12.328Z</time></trkpt><trkpt lat="43.7454443" lon="10.4304272"><ele>3.0</ele><time>2026-05-03T06:42:13.322Z</time></trkpt><trkpt lat="43.7456735" lon="10.4306129"><ele>3.0</ele><time>2026-05-03T06:42:14.326Z</time></trkpt><trkpt lat="43.745914" lon="10.4307759"><ele>3.0</ele><time>2026-05-03T06:42:15.33Z</time></trkpt><trkpt lat="43.7461334" lon="10.4309527"><ele>2.0</ele><time>2026-05-03T06:42:16.329Z</time></trkpt><trkpt lat="43.7463473" lon="10.4311155"><ele>1.0</ele><time>2026-05-03T06:42:17.324Z</time></trkpt><trkpt lat="43.7467266" lon="10.4314758"><ele>1.0</ele><time>2026-05-03T06:42:19.325Z</time></trkpt><trkpt lat="43.746923" lon="10.4316579"><ele>1.0</ele><time>2026-05-03T06:42:20.327Z</time></trkpt><trkpt lat="43.7471182" lon="10.4318253"><ele>1.0</ele><time>2026-05-03T06:42:21.316Z</time></trkpt><trkpt lat="43.7473046" lon="10.4319824"><ele>1.0</ele><time>2026-05-03T06:42:22.314Z</time></trkpt><trkpt lat="43.747489" lon="10.4321544"><ele>1.0</ele><time>2026-05-03T06:42:23.318Z</time></trkpt><trkpt lat="43.7476693" lon="10.432345"><ele>1.5</ele><time>2026-05-03T06:42:24.313Z</time></trkpt><trkpt lat="43.7478642" lon="10.4325484"><ele>2.0</ele><time>2026-05-03T06:42:25.313Z</time></trkpt><trkpt lat="43.7480574" lon="10.4327097"><ele>2.0</ele><time>2026-05-03T06:42:26.309Z</time></trkpt><trkpt lat="43.7482467" lon="10.4328867"><ele>2.0</ele><time>2026-05-03T06:42:27.306Z</time></trkpt><trkpt lat="43.7484415" lon="10.4330533"><ele>2.0</ele><time>2026-05-03T06:42:28.304Z</time></trkpt><trkpt lat="43.7486167" lon="10.4332073"><ele>2.0</ele><time>2026-05-03T06:42:29.31Z</time></trkpt><trkpt lat="43.748798" lon="10.4333693"><ele>2.0</ele><time>2026-05-03T06:42:30.305Z</time></trkpt><trkpt lat="43.7489873" lon="10.4335301"><ele>2.0</ele><time>2026-05-03T06:42:31.304Z</time></trkpt><trkpt lat="43.7491925" lon="10.4336833"><ele>2.0</ele><time>2026-05-03T06:42:32.311Z</time></trkpt><trkpt lat="43.749416" lon="10.4338141"><ele>2.0</ele><time>2026-05-03T06:42:33.308Z</time></trkpt><trkpt lat="43.7496201" lon="10.4339847"><ele>2.0</ele><time>2026-05-03T06:42:34.309Z</time></trkpt><trkpt lat="43.7498151" lon="10.4341391"><ele>2.0</ele><time>2026-05-03T06:42:35.31Z</time></trkpt><trkpt lat="43.749995" lon="10.434284"><ele>2.0</ele><time>2026-05-03T06:42:36.31Z</time></trkpt><trkpt lat="43.7501631" lon="10.4344047"><ele>2.0</ele><time>2026-05-03T06:42:37.312Z</time></trkpt><trkpt lat="43.7503268" lon="10.4345188"><ele>2.0</ele><time>2026-05-03T06:42:38.312Z</time></trkpt><trkpt lat="43.7505138" lon="10.4346456"><ele>2.0</ele><time>2026-05-03T06:42:39.311Z</time></trkpt><trkpt lat="43.7506791" lon="10.4347757"><ele>2.0</ele><time>2026-05-03T06:42:40.311Z</time></trkpt><trkpt lat="43.7508502" lon="10.4349141"><ele>2.0</ele><time>2026-05-03T06:42:41.319Z</time></trkpt><trkpt lat="43.7510282" lon="10.4350826"><ele>2.0</ele><time>2026-05-03T06:42:42.32Z</time></trkpt><trkpt lat="43.7511922" lon="10.4352322"><ele>2.0</ele><time>2026-05-03T06:42:43.319Z</time></trkpt><trkpt lat="43.7513393" lon="10.4353887"><ele>2.6666666666666665</ele><time>2026-05-03T06:42:44.311Z</time></trkpt><trkpt lat="43.7514883" lon="10.4355212"><ele>3.333333333333333</ele><time>2026-05-03T06:42:45.311Z</time></trkpt><trkpt lat="43.7516396" lon="10.4356681"><ele>4.0</ele><time>2026-05-03T06:42:46.308Z</time></trkpt><trkpt lat="43.7517839" lon="10.4358285"><ele>3.333333333333333</ele><time>2026-05-03T06:42:47.311Z</time></trkpt><trkpt lat="43.7519272" lon="10.4359788"><ele>2.6666666666666665</ele><time>2026-05-03T06:42:48.313Z</time></trkpt><trkpt lat="43.7520582" lon="10.4360911"><ele>2.0</ele><time>2026-05-03T06:42:49.307Z</time></trkpt><trkpt lat="43.7522167" lon="10.4361797"><ele>2.0</ele><time>2026-05-03T06:42:50.306Z</time></trkpt><trkpt lat="43.7523533" lon="10.4362357"><ele>2.0</ele><time>2026-05-03T06:42:51.307Z</time></trkpt><trkpt lat="43.7525192" lon="10.4362869"><ele>2.0</ele><time>2026-05-03T06:42:52.31Z</time></trkpt><trkpt lat="43.7527045" lon="10.4363342"><ele>2.333333333333333</ele><time>2026-05-03T06:42:53.322Z</time></trkpt><trkpt lat="43.7528769" lon="10.4364179"><ele>2.6666666666666665</ele><time>2026-05-03T06:42:54.314Z</time></trkpt><trkpt lat="43.7530621" lon="10.43654"><ele>3.0</ele><time>2026-05-03T06:42:55.32Z</time></trkpt><trkpt lat="43.7532115" lon="10.436654"><ele>3.0</ele><time>2026-05-03T06:42:56.321Z</time></trkpt><trkpt lat="43.7533723" lon="10.4367754"><ele>3.0</ele><time>2026-05-03T06:42:57.31Z</time></trkpt><trkpt lat="43.7535407" lon="10.4368751"><ele>3.0</ele><time>2026-05-03T06:42:58.31Z</time></trkpt><trkpt lat="43.7536955" lon="10.4369628"><ele>3.0</ele><time>2026-05-03T06:42:59.305Z</time></trkpt><trkpt lat="43.7538464" lon="10.4370663"><ele>3.0</ele><time>2026-05-03T06:43:00.308Z</time></trkpt><trkpt lat="43.7539904" lon="10.4371758"><ele>3.0</ele><time>2026-05-03T06:43:01.306Z</time></trkpt><trkpt lat="43.7541199" lon="10.4373451"><ele>3.0</ele><time>2026-05-03T06:43:02.304Z</time></trkpt><trkpt lat="43.754258" lon="10.4374707"><ele>3.0</ele><time>2026-05-03T06:43:03.29Z</time></trkpt><trkpt lat="43.7543598" lon="10.4376308"><ele>3.0</ele><time>2026-05-03T06:43:04.295Z</time></trkpt><trkpt lat="43.7544773" lon="10.437808"><ele>3.0</ele><time>2026-05-03T06:43:05.298Z</time></trkpt><trkpt lat="43.7545978" lon="10.4379529"><ele>3.0</ele><time>2026-05-03T06:43:06.295Z</time></trkpt><trkpt lat="43.754716" lon="10.4380284"><ele>3.0</ele><time>2026-05-03T06:43:07.295Z</time></trkpt><trkpt lat="43.7548692" lon="10.438111"><ele>3.0</ele><time>2026-05-03T06:43:08.303Z</time></trkpt><trkpt lat="43.7550066" lon="10.438119"><ele>3.0</ele><time>2026-05-03T06:43:09.306Z</time></trkpt><trkpt lat="43.7551326" lon="10.4381763"><ele>3.0</ele><time>2026-05-03T06:43:10.303Z</time></trkpt><trkpt lat="43.7552791" lon="10.4381502"><ele>3.0</ele><time>2026-05-03T06:43:11.322Z</time></trkpt><trkpt lat="43.7553684" lon="10.4381388"><ele>2.6</ele><time>2026-05-03T06:43:12.306Z</time></trkpt><trkpt lat="43.7555152" lon="10.4381514"><ele>2.1999999999999997</ele><time>2026-05-03T06:43:13.307Z</time></trkpt><trkpt lat="43.7555935" lon="10.4381298"><ele>1.8</ele><time>2026-05-03T06:43:14.315Z</time></trkpt><trkpt lat="43.7557176" lon="10.438121"><ele>1.4</ele><time>2026-05-03T06:43:15.3Z</time></trkpt><trkpt lat="43.7558043" lon="10.4380983"><ele>1.0</ele><time>2026-05-03T06:43:16.31Z</time></trkpt><trkpt lat="43.7559538" lon="10.4380994"><ele>1.25</ele><time>2026-05-03T06:43:17.3Z</time></trkpt><trkpt lat="43.7560575" lon="10.4381419"><ele>1.5</ele><time>2026-05-03T06:43:18.3Z</time></trkpt><trkpt lat="43.7561511" lon="10.4382582"><ele>1.75</ele><time>2026-05-03T06:43:19.291Z</time></trkpt><trkpt lat="43.756248" lon="10.4383996"><ele>2.0</ele><time>2026-05-03T06:43:20.288Z</time></trkpt><trkpt lat="43.7563526" lon="10.4385409"><ele>2.0</ele><time>2026-05-03T06:43:21.292Z</time></trkpt><trkpt lat="43.7564536" lon="10.4386953"><ele>2.0</ele><time>2026-05-03T06:43:22.297Z</time></trkpt><trkpt lat="43.7565776" lon="10.4388746"><ele>2.0</ele><time>2026-05-03T06:43:23.306Z</time></trkpt><trkpt lat="43.7567593" lon="10.439066"><ele>2.0</ele><time>2026-05-03T06:43:24.3Z</time></trkpt><trkpt lat="43.7569175" lon="10.439255"><ele>2.0</ele><time>2026-05-03T06:43:25.31Z</time></trkpt><trkpt lat="43.7570995" lon="10.4394565"><ele>2.0</ele><time>2026-05-03T06:43:26.3Z</time></trkpt><trkpt lat="43.7572726" lon="10.4396096"><ele>2.0</ele><time>2026-05-03T06:43:27.309Z</time></trkpt><trkpt lat="43.7575011" lon="10.4398289"><ele>2.0</ele><time>2026-05-03T06:43:28.31Z</time></trkpt><trkpt lat="43.7576907" lon="10.4400357"><ele>2.0</ele><time>2026-05-03T06:43:29.313Z</time></trkpt><trkpt lat="43.7578583" lon="10.4402"><ele>2.0</ele><time>2026-05-03T06:43:30.307Z</time></trkpt><trkpt lat="43.7580206" lon="10.4403334"><ele>2.0</ele><time>2026-05-03T06:43:31.296Z</time></trkpt><trkpt lat="43.758167" lon="10.4404762"><ele>1.75</ele><time>2026-05-03T06:43:32.305Z</time></trkpt><trkpt lat="43.7582916" lon="10.4405823"><ele>1.5</ele><time>2026-05-03T06:43:33.295Z</time></trkpt><trkpt lat="43.7584193" lon="10.4406499"><ele>1.25</ele><time>2026-05-03T06:43:34.297Z</time></trkpt><trkpt lat="43.7585642" lon="10.440733"><ele>1.0</ele><time>2026-05-03T06:43:35.298Z</time></trkpt><trkpt lat="43.7586947" lon="10.4408399"><ele>1.5</ele><time>2026-05-03T06:43:36.309Z</time></trkpt><trkpt lat="43.7587807" lon="10.440956"><ele>2.0</ele><time>2026-05-03T06:43:37.319Z</time></trkpt><trkpt lat="43.7588887" lon="10.44106"><ele>2.5</ele><time>2026-05-03T06:43:38.314Z</time></trkpt><trkpt lat="43.7590133" lon="10.4411811"><ele>3.0</ele><time>2026-05-03T06:43:39.312Z</time></trkpt><trkpt lat="43.7591276" lon="10.4413168"><ele>3.333333333333333</ele><time>2026-05-03T06:43:40.305Z</time></trkpt><trkpt lat="43.7592356" lon="10.4414782"><ele>3.6666666666666665</ele><time>2026-05-03T06:43:41.308Z</time></trkpt><trkpt lat="43.7593411" lon="10.4416033"><ele>4.0</ele><time>2026-05-03T06:43:42.307Z</time></trkpt><trkpt lat="43.7594702" lon="10.4417683"><ele>4.0</ele><time>2026-05-03T06:43:43.303Z</time></trkpt><trkpt lat="43.7595889" lon="10.4418902"><ele>4.0</ele><time>2026-05-03T06:43:44.305Z</time></trkpt><trkpt lat="43.7597228" lon="10.442004"><ele>4.0</ele><time>2026-05-03T06:43:45.315Z</time></trkpt><trkpt lat="43.7598655" lon="10.4421298"><ele>4.0</ele><time>2026-05-03T06:43:46.309Z</time></trkpt><trkpt lat="43.7600038" lon="10.4422482"><ele>4.0</ele><time>2026-05-03T06:43:47.304Z</time></trkpt><trkpt lat="43.7601093" lon="10.4423471"><ele>4.0</ele><time>2026-05-03T06:43:48.305Z</time></trkpt><trkpt lat="43.7602196" lon="10.4424391"><ele>4.0</ele><time>2026-05-03T06:43:49.305Z</time></trkpt><trkpt lat="43.7603566" lon="10.4425629"><ele>4.0</ele><time>2026-05-03T06:43:50.305Z</time></trkpt><trkpt lat="43.7604723" lon="10.44272"><ele>4.0</ele><time>2026-05-03T06:43:51.302Z</time></trkpt><trkpt lat="43.7605952" lon="10.4428587"><ele>4.0</ele><time>2026-05-03T06:43:52.298Z</time></trkpt><trkpt lat="43.7607363" lon="10.4430012"><ele>4.333333333333333</ele><time>2026-05-03T06:43:53.306Z</time></trkpt><trkpt lat="43.7608605" lon="10.4431543"><ele>4.666666666666667</ele><time>2026-05-03T06:43:54.308Z</time></trkpt><trkpt lat="43.7609998" lon="10.4432952"><ele>5.0</ele><time>2026-05-03T06:43:55.307Z</time></trkpt><trkpt lat="43.7611222" lon="10.4434251"><ele>5.666666666666667</ele><time>2026-05-03T06:43:56.3Z</time></trkpt><trkpt lat="43.7612516" lon="10.4435511"><ele>6.333333333333334</ele><time>2026-05-03T06:43:57.302Z</time></trkpt><trkpt lat="43.7613724" lon="10.4436875"><ele>7.0</ele><time>2026-05-03T06:43:58.304Z</time></trkpt><trkpt lat="43.7615037" lon="10.4438225"><ele>7.5</ele><time>2026-05-03T06:43:59.313Z</time></trkpt><trkpt lat="43.7616013" lon="10.4439407"><ele>8.0</ele><time>2026-05-03T06:44:00.313Z</time></trkpt><trkpt lat="43.7616985" lon="10.4440673"><ele>8.5</ele><time>2026-05-03T06:44:01.296Z</time></trkpt><trkpt lat="43.7617805" lon="10.444191"><ele>9.0</ele><time>2026-05-03T06:44:02.302Z</time></trkpt><trkpt lat="43.7618938" lon="10.4442985"><ele>9.0</ele><time>2026-05-03T06:44:03.304Z</time></trkpt><trkpt lat="43.7620235" lon="10.4444335"><ele>9.0</ele><time>2026-05-03T06:44:04.289Z</time></trkpt><trkpt lat="43.762143" lon="10.4445766"><ele>9.0</ele><time>2026-05-03T06:44:05.294Z</time></trkpt><trkpt lat="43.7622564" lon="10.4447103"><ele>10.25</ele><time>2026-05-03T06:44:06.292Z</time></trkpt><trkpt lat="43.7623673" lon="10.44488"><ele>11.5</ele><time>2026-05-03T06:44:07.289Z</time></trkpt><trkpt lat="43.7624635" lon="10.444983"><ele>12.75</ele><time>2026-05-03T06:44:08.299Z</time></trkpt><trkpt lat="43.7625771" lon="10.4450574"><ele>14.0</ele><time>2026-05-03T06:44:09.294Z</time></trkpt><trkpt lat="43.7626953" lon="10.4451034"><ele>14.5</ele><time>2026-05-03T06:44:10.294Z</time></trkpt><trkpt lat="43.762832" lon="10.4450208"><ele>15.0</ele><time>2026-05-03T06:44:11.302Z</time></trkpt><trkpt lat="43.7629454" lon="10.4449201"><ele>15.5</ele><time>2026-05-03T06:44:12.304Z</time></trkpt><trkpt lat="43.7630861" lon="10.4448053"><ele>16.0</ele><time>2026-05-03T06:44:13.303Z</time></trkpt><trkpt lat="43.7631958" lon="10.444679"><ele>16.0</ele><time>2026-05-03T06:44:14.301Z</time></trkpt><trkpt lat="43.7633619" lon="10.4446413"><ele>16.0</ele><time>2026-05-03T06:44:15.299Z</time></trkpt><trkpt lat="43.7635033" lon="10.4445653"><ele>16.0</ele><time>2026-05-03T06:44:16.311Z</time></trkpt><trkpt lat="43.7636389" lon="10.4445172"><ele>17.200000000000003</ele><time>2026-05-03T06:44:17.298Z</time></trkpt><trkpt lat="43.7637608" lon="10.4444644"><ele>18.400000000000002</ele><time>2026-05-03T06:44:18.299Z</time></trkpt><trkpt lat="43.7638869" lon="10.4444513"><ele>19.6</ele><time>2026-05-03T06:44:19.292Z</time></trkpt><trkpt lat="43.7639672" lon="10.4444864"><ele>20.8</ele><time>2026-05-03T06:44:20.296Z</time></trkpt><trkpt lat="43.7640138" lon="10.4446056"><ele>22.0</ele><time>2026-05-03T06:44:21.297Z</time></trkpt><trkpt lat="43.7640962" lon="10.444727"><ele>22.0</ele><time>2026-05-03T06:44:22.298Z</time></trkpt><trkpt lat="43.7641205" lon="10.4449164"><ele>22.0</ele><time>2026-05-03T06:44:23.295Z</time></trkpt><trkpt lat="43.7640895" lon="10.445124"><ele>22.0</ele><time>2026-05-03T06:44:24.299Z</time></trkpt><trkpt lat="43.7639402" lon="10.4453868"><ele>22.0</ele><time>2026-05-03T06:44:25.302Z</time></trkpt><trkpt lat="43.7637343" lon="10.4454511"><ele>22.0</ele><time>2026-05-03T06:44:26.302Z</time></trkpt><trkpt lat="43.7635971" lon="10.4454876"><ele>22.0</ele><time>2026-05-03T06:44:27.301Z</time></trkpt><trkpt lat="43.7634934" lon="10.4455702"><ele>21.666666666666664</ele><time>2026-05-03T06:44:28.307Z</time></trkpt><trkpt lat="43.7633313" lon="10.4456236"><ele>21.333333333333332</ele><time>2026-05-03T06:44:29.298Z</time></trkpt><trkpt lat="43.7631753" lon="10.4456026"><ele>21.0</ele><time>2026-05-03T06:44:30.293Z</time></trkpt><trkpt lat="43.7629586" lon="10.445697"><ele>21.0</ele><time>2026-05-03T06:44:31.303Z</time></trkpt><trkpt lat="43.7628251" lon="10.4457858"><ele>21.0</ele><time>2026-05-03T06:44:32.296Z</time></trkpt><trkpt lat="43.7627519" lon="10.4459858"><ele>21.0</ele><time>2026-05-03T06:44:33.307Z</time></trkpt><trkpt lat="43.7627283" lon="10.4461268"><ele>21.0</ele><time>2026-05-03T06:44:34.304Z</time></trkpt><trkpt lat="43.7627652" lon="10.4462776"><ele>24.333333333333336</ele><time>2026-05-03T06:44:35.306Z</time></trkpt><trkpt lat="43.762772" lon="10.4463905"><ele>27.666666666666668</ele><time>2026-05-03T06:44:36.31Z</time></trkpt><trkpt lat="43.7628834" lon="10.4465639"><ele>31.0</ele><time>2026-05-03T06:44:37.311Z</time></trkpt><trkpt lat="43.7630951" lon="10.4467185"><ele>31.0</ele><time>2026-05-03T06:44:38.315Z</time></trkpt><trkpt lat="43.7632348" lon="10.4468879"><ele>31.0</ele><time>2026-05-03T06:44:39.302Z</time></trkpt><trkpt lat="43.7633871" lon="10.4469622"><ele>31.0</ele><time>2026-05-03T06:44:40.305Z</time></trkpt><trkpt lat="43.7635481" lon="10.4470127"><ele>32.66666666666667</ele><time>2026-05-03T06:44:41.296Z</time></trkpt><trkpt lat="43.7637071" lon="10.4470409"><ele>34.333333333333336</ele><time>2026-05-03T06:44:42.298Z</time></trkpt><trkpt lat="43.7638522" lon="10.4470054"><ele>36.0</ele><time>2026-05-03T06:44:43.305Z</time></trkpt><trkpt lat="43.7640412" lon="10.4469617"><ele>36.0</ele><time>2026-05-03T06:44:44.295Z</time></trkpt><trkpt lat="43.7641768" lon="10.4467629"><ele>36.0</ele><time>2026-05-03T06:44:45.3Z</time></trkpt><trkpt lat="43.764309" lon="10.4466452"><ele>36.0</ele><time>2026-05-03T06:44:46.294Z</time></trkpt><trkpt lat="43.7643979" lon="10.4464178"><ele>36.0</ele><time>2026-05-03T06:44:47.282Z</time></trkpt><trkpt lat="43.7645598" lon="10.4461193"><ele>36.0</ele><time>2026-05-03T06:44:48.292Z</time></trkpt><trkpt lat="43.7647297" lon="10.4459112"><ele>36.0</ele><time>2026-05-03T06:44:49.304Z</time></trkpt><trkpt lat="43.7649117" lon="10.4456891"><ele>36.0</ele><time>2026-05-03T06:44:50.303Z</time></trkpt><trkpt lat="43.7650371" lon="10.4455437"><ele>36.0</ele><time>2026-05-03T06:44:51.301Z</time></trkpt><trkpt lat="43.7651782" lon="10.4453856"><ele>39.5</ele><time>2026-05-03T06:44:52.295Z</time></trkpt><trkpt lat="43.7653217" lon="10.445362"><ele>43.0</ele><time>2026-05-03T06:44:53.286Z</time></trkpt><trkpt lat="43.7654646" lon="10.4453287"><ele>46.5</ele><time>2026-05-03T06:44:54.265Z</time></trkpt><trkpt lat="43.7655918" lon="10.4454099"><ele>50.0</ele><time>2026-05-03T06:44:55.261Z</time></trkpt><trkpt lat="43.765678" lon="10.4458837"><ele>62.0</ele><time>2026-05-03T06:44:57.299Z</time></trkpt><trkpt lat="43.7656948" lon="10.4463544"><ele>74.0</ele><time>2026-05-03T06:44:59.307Z</time></trkpt><trkpt lat="43.765571" lon="10.4466242"><ele>74.0</ele><time>2026-05-03T06:45:00.312Z</time></trkpt><trkpt lat="43.765467" lon="10.4467697"><ele>74.0</ele><time>2026-05-03T06:45:01.301Z</time></trkpt><trkpt lat="43.7653176" lon="10.4469583"><ele>74.0</ele><time>2026-05-03T06:45:02.295Z</time></trkpt><trkpt lat="43.765104" lon="10.447148"><ele>67.0</ele><time>2026-05-03T06:45:03.309Z</time></trkpt><trkpt lat="43.7649033" lon="10.4473449"><ele>60.0</ele><time>2026-05-03T06:45:04.299Z</time></trkpt><trkpt lat="43.7646184" lon="10.4475091"><ele>60.0</ele><time>2026-05-03T06:45:05.304Z</time></trkpt><trkpt lat="43.7644524" lon="10.4476069"><ele>60.0</ele><time>2026-05-03T06:45:06.295Z</time></trkpt><trkpt lat="43.7642413" lon="10.4476694"><ele>60.0</ele><time>2026-05-03T06:45:07.295Z</time></trkpt><trkpt lat="43.7640498" lon="10.447709"><ele>58.8</ele><time>2026-05-03T06:45:08.297Z</time></trkpt><trkpt lat="43.763918" lon="10.4477917"><ele>57.6</ele><time>2026-05-03T06:45:09.296Z</time></trkpt><trkpt lat="43.7638639" lon="10.4479157"><ele>56.400000000000006</ele><time>2026-05-03T06:45:10.294Z</time></trkpt><trkpt lat="43.7638246" lon="10.4480389"><ele>55.2</ele><time>2026-05-03T06:45:11.292Z</time></trkpt><trkpt lat="43.7637787" lon="10.4481456"><ele>54.0</ele><time>2026-05-03T06:45:12.297Z</time></trkpt><trkpt lat="43.763869" lon="10.4482389"><ele>54.0</ele><time>2026-05-03T06:45:13.3Z</time></trkpt><trkpt lat="43.7640981" lon="10.4483905"><ele>54.0</ele><time>2026-05-03T06:45:15.303Z</time></trkpt><trkpt lat="43.7642385" lon="10.4484989"><ele>54.0</ele><time>2026-05-03T06:45:16.305Z</time></trkpt><trkpt lat="43.7643382" lon="10.4485139"><ele>58.75</ele><time>2026-05-03T06:45:17.305Z</time></trkpt><trkpt lat="43.7644373" lon="10.4484629"><ele>63.5</ele><time>2026-05-03T06:45:18.311Z</time></trkpt><trkpt lat="43.7645413" lon="10.4483918"><ele>68.25</ele><time>2026-05-03T06:45:19.308Z</time></trkpt><trkpt lat="43.7646575" lon="10.44822"><ele>73.0</ele><time>2026-05-03T06:45:20.31Z</time></trkpt><trkpt lat="43.764782" lon="10.4479754"><ele>66.5</ele><time>2026-05-03T06:45:21.313Z</time></trkpt><trkpt lat="43.7649224" lon="10.4477397"><ele>60.0</ele><time>2026-05-03T06:45:22.305Z</time></trkpt><trkpt lat="43.7650516" lon="10.4474556"><ele>60.0</ele><time>2026-05-03T06:45:23.317Z</time></trkpt><trkpt lat="43.7651776" lon="10.4472488"><ele>60.0</ele><time>2026-05-03T06:45:24.314Z</time></trkpt><trkpt lat="43.765272" lon="10.4470728"><ele>60.0</ele><time>2026-05-03T06:45:25.306Z</time></trkpt><trkpt lat="43.7653915" lon="10.446854"><ele>64.66666666666667</ele><time>2026-05-03T06:45:26.317Z</time></trkpt><trkpt lat="43.7655422" lon="10.4466203"><ele>69.33333333333334</ele><time>2026-05-03T06:45:27.309Z</time></trkpt><trkpt lat="43.7655783" lon="10.4464517"><ele>74.0</ele><time>2026-05-03T06:45:28.313Z</time></trkpt><trkpt lat="43.7656613" lon="10.4463605"><ele>73.0</ele><time>2026-05-03T06:45:29.311Z</time></trkpt><trkpt lat="43.7657517" lon="10.446259"><ele>72.0</ele><time>2026-05-03T06:45:30.31Z</time></trkpt><trkpt lat="43.7658656" lon="10.4461817"><ele>71.0</ele><time>2026-05-03T06:45:31.321Z</time></trkpt><trkpt lat="43.7659727" lon="10.4460754"><ele>70.0</ele><time>2026-05-03T06:45:32.311Z</time></trkpt><trkpt lat="43.7661269" lon="10.4459953"><ele>70.0</ele><time>2026-05-03T06:45:33.31Z</time></trkpt><trkpt lat="43.7662955" lon="10.4458816"><ele>70.0</ele><time>2026-05-03T06:45:34.303Z</time></trkpt><trkpt lat="43.7664802" lon="10.4457402"><ele>70.0</ele><time>2026-05-03T06:45:35.306Z</time></trkpt><trkpt lat="43.7666219" lon="10.4456226"><ele>70.0</ele><time>2026-05-03T06:45:36.319Z</time></trkpt><trkpt lat="43.7667848" lon="10.4455284"><ele>70.0</ele><time>2026-05-03T06:45:37.309Z</time></trkpt><trkpt lat="43.7669246" lon="10.4455393"><ele>70.0</ele><time>2026-05-03T06:45:38.31Z</time></trkpt><trkpt lat="43.7670765" lon="10.4455332"><ele>71.0</ele><time>2026-05-03T06:45:39.31Z</time></trkpt><trkpt lat="43.7671843" lon="10.4456361"><ele>72.0</ele><time>2026-05-03T06:45:40.31Z</time></trkpt><trkpt lat="43.7672976" lon="10.4457213"><ele>73.0</ele><time>2026-05-03T06:45:41.308Z</time></trkpt><trkpt lat="43.7673726" lon="10.4459325"><ele>74.0</ele><time>2026-05-03T06:45:42.314Z</time></trkpt><trkpt lat="43.7673874" lon="10.4462069"><ele>84.5</ele><time>2026-05-03T06:45:43.304Z</time></trkpt><trkpt lat="43.7674053" lon="10.4465106"><ele>95.0</ele><time>2026-05-03T06:45:44.306Z</time></trkpt><trkpt lat="43.7674235" lon="10.4468333"><ele>95.0</ele><time>2026-05-03T06:45:45.302Z</time></trkpt><trkpt lat="43.7674653" lon="10.447108"><ele>95.0</ele><time>2026-05-03T06:45:46.286Z</time></trkpt><trkpt lat="43.7675024" lon="10.4473721"><ele>95.0</ele><time>2026-05-03T06:45:47.276Z</time></trkpt><trkpt lat="43.7675394" lon="10.4476361"><ele>96.0</ele><time>2026-05-03T06:45:48.229Z</time></trkpt><trkpt lat="43.7665529" lon="10.4465049"><ele>102.0</ele><time>2026-05-03T06:46:02.434Z</time></trkpt><trkpt lat="43.7696731" lon="10.460404"><ele>91.0</ele><time>2026-05-03T06:46:31.679Z</time></trkpt><trkpt lat="43.7713342" lon="10.4604012"><ele>91.0</ele><time>2026-05-03T06:46:36.298Z</time></trkpt><trkpt lat="43.7714297" lon="10.4603988"><ele>91.0</ele><time>2026-05-03T06:46:37.309Z</time></trkpt><trkpt lat="43.7716339" lon="10.4603522"><ele>91.0</ele><time>2026-05-03T06:46:38.304Z</time></trkpt><trkpt lat="43.771774" lon="10.4603787"><ele>91.0</ele><time>2026-05-03T06:46:39.306Z</time></trkpt><trkpt lat="43.7719609" lon="10.4603783"><ele>89.66666666666666</ele><time>2026-05-03T06:46:40.3Z</time></trkpt><trkpt lat="43.7721292" lon="10.4603602"><ele>88.33333333333333</ele><time>2026-05-03T06:46:41.297Z</time></trkpt><trkpt lat="43.7723114" lon="10.4603457"><ele>87.0</ele><time>2026-05-03T06:46:42.319Z</time></trkpt><trkpt lat="43.7724883" lon="10.4602936"><ele>87.0</ele><time>2026-05-03T06:46:43.304Z</time></trkpt><trkpt lat="43.772674" lon="10.460226"><ele>87.0</ele><time>2026-05-03T06:46:44.311Z</time></trkpt><trkpt lat="43.77287" lon="10.4602093"><ele>87.0</ele><time>2026-05-03T06:46:45.315Z</time></trkpt><trkpt lat="43.7730573" lon="10.4600651"><ele>85.66666666666667</ele><time>2026-05-03T06:46:46.313Z</time></trkpt><trkpt lat="43.7732445" lon="10.4599485"><ele>84.33333333333334</ele><time>2026-05-03T06:46:47.33Z</time></trkpt><trkpt lat="43.7734606" lon="10.4597957"><ele>83.0</ele><time>2026-05-03T06:46:48.318Z</time></trkpt><trkpt lat="43.7736482" lon="10.4597286"><ele>82.33333333333334</ele><time>2026-05-03T06:46:49.317Z</time></trkpt><trkpt lat="43.7738214" lon="10.4596915"><ele>81.66666666666667</ele><time>2026-05-03T06:46:50.318Z</time></trkpt><trkpt lat="43.7740224" lon="10.4595984"><ele>81.0</ele><time>2026-05-03T06:46:51.326Z</time></trkpt><trkpt lat="43.7742221" lon="10.4595124"><ele>81.66666666666667</ele><time>2026-05-03T06:46:52.317Z</time></trkpt><trkpt lat="43.774401" lon="10.4594464"><ele>82.33333333333334</ele><time>2026-05-03T06:46:53.322Z</time></trkpt><trkpt lat="43.7745733" lon="10.4593892"><ele>83.0</ele><time>2026-05-03T06:46:54.311Z</time></trkpt><trkpt lat="43.7747618" lon="10.4593632"><ele>83.0</ele><time>2026-05-03T06:46:55.306Z</time></trkpt><trkpt lat="43.7749396" lon="10.4593588"><ele>83.0</ele><time>2026-05-03T06:46:56.308Z</time></trkpt><trkpt lat="43.7751296" lon="10.4593203"><ele>83.0</ele><time>2026-05-03T06:46:57.309Z</time></trkpt><trkpt lat="43.7753554" lon="10.4593051"><ele>83.0</ele><time>2026-05-03T06:46:58.33Z</time></trkpt><trkpt lat="43.7755392" lon="10.4592579"><ele>83.0</ele><time>2026-05-03T06:46:59.319Z</time></trkpt><trkpt lat="43.7756944" lon="10.4592031"><ele>83.0</ele><time>2026-05-03T06:47:00.319Z</time></trkpt><trkpt lat="43.7758808" lon="10.4591767"><ele>82.0</ele><time>2026-05-03T06:47:01.317Z</time></trkpt><trkpt lat="43.7760945" lon="10.4591505"><ele>81.0</ele><time>2026-05-03T06:47:02.322Z</time></trkpt><trkpt lat="43.7763033" lon="10.4591199"><ele>80.0</ele><time>2026-05-03T06:47:03.331Z</time></trkpt><trkpt lat="43.7765099" lon="10.4591102"><ele>80.0</ele><time>2026-05-03T06:47:04.312Z</time></trkpt><trkpt lat="43.7766753" lon="10.4590264"><ele>80.0</ele><time>2026-05-03T06:47:05.316Z</time></trkpt><trkpt lat="43.7768678" lon="10.4590288"><ele>80.0</ele><time>2026-05-03T06:47:06.322Z</time></trkpt><trkpt lat="43.777073" lon="10.4590317"><ele>79.33333333333334</ele><time>2026-05-03T06:47:07.319Z</time></trkpt><trkpt lat="43.7772656" lon="10.4590426"><ele>78.66666666666667</ele><time>2026-05-03T06:47:08.334Z</time></trkpt><trkpt lat="43.7773908" lon="10.4589872"><ele>78.0</ele><time>2026-05-03T06:47:09.32Z</time></trkpt><trkpt lat="43.7775573" lon="10.4589474"><ele>77.0</ele><time>2026-05-03T06:47:10.319Z</time></trkpt><trkpt lat="43.7777261" lon="10.4588881"><ele>76.0</ele><time>2026-05-03T06:47:11.321Z</time></trkpt><trkpt lat="43.7779169" lon="10.4588714"><ele>75.0</ele><time>2026-05-03T06:47:12.317Z</time></trkpt><trkpt lat="43.7781012" lon="10.458972"><ele>75.0</ele><time>2026-05-03T06:47:13.322Z</time></trkpt><trkpt lat="43.7782772" lon="10.459071"><ele>75.0</ele><time>2026-05-03T06:47:14.319Z</time></trkpt><trkpt lat="43.7784039" lon="10.4591784"><ele>75.0</ele><time>2026-05-03T06:47:15.318Z</time></trkpt><trkpt lat="43.7785279" lon="10.4593175"><ele>75.0</ele><time>2026-05-03T06:47:16.31Z</time></trkpt><trkpt lat="43.7786561" lon="10.4594273"><ele>75.0</ele><time>2026-05-03T06:47:17.308Z</time></trkpt><trkpt lat="43.7787632" lon="10.4596613"><ele>75.0</ele><time>2026-05-03T06:47:18.329Z</time></trkpt><trkpt lat="43.7788792" lon="10.4598698"><ele>74.0</ele><time>2026-05-03T06:47:19.31Z</time></trkpt><trkpt lat="43.7789771" lon="10.4600316"><ele>73.0</ele><time>2026-05-03T06:47:20.312Z</time></trkpt><trkpt lat="43.7790811" lon="10.4601976"><ele>72.0</ele><time>2026-05-03T06:47:21.316Z</time></trkpt><trkpt lat="43.7791886" lon="10.4603686"><ele>71.66666666666667</ele><time>2026-05-03T06:47:22.319Z</time></trkpt><trkpt lat="43.7793152" lon="10.4605559"><ele>71.33333333333334</ele><time>2026-05-03T06:47:23.327Z</time></trkpt><trkpt lat="43.7794198" lon="10.4607507"><ele>71.0</ele><time>2026-05-03T06:47:24.322Z</time></trkpt><trkpt lat="43.779546" lon="10.4609562"><ele>71.0</ele><time>2026-05-03T06:47:25.317Z</time></trkpt><trkpt lat="43.7796604" lon="10.4611509"><ele>71.0</ele><time>2026-05-03T06:47:26.313Z</time></trkpt><trkpt lat="43.7797794" lon="10.4613155"><ele>71.0</ele><time>2026-05-03T06:47:27.313Z</time></trkpt><trkpt lat="43.7798973" lon="10.4614675"><ele>70.0</ele><time>2026-05-03T06:47:28.328Z</time></trkpt><trkpt lat="43.7800202" lon="10.461649"><ele>69.0</ele><time>2026-05-03T06:47:29.316Z</time></trkpt><trkpt lat="43.7801415" lon="10.4618269"><ele>68.0</ele><time>2026-05-03T06:47:30.322Z</time></trkpt><trkpt lat="43.7802714" lon="10.4620182"><ele>67.33333333333334</ele><time>2026-05-03T06:47:31.319Z</time></trkpt><trkpt lat="43.7804064" lon="10.4622307"><ele>66.66666666666667</ele><time>2026-05-03T06:47:32.318Z</time></trkpt><trkpt lat="43.7805298" lon="10.4624263"><ele>66.0</ele><time>2026-05-03T06:47:33.329Z</time></trkpt><trkpt lat="43.780659" lon="10.4626245"><ele>66.0</ele><time>2026-05-03T06:47:34.314Z</time></trkpt><trkpt lat="43.780806" lon="10.4628001"><ele>66.0</ele><time>2026-05-03T06:47:35.305Z</time></trkpt><trkpt lat="43.7809661" lon="10.4629834"><ele>66.0</ele><time>2026-05-03T06:47:36.3Z</time></trkpt><trkpt lat="43.7811354" lon="10.4631709"><ele>65.0</ele><time>2026-05-03T06:47:37.305Z</time></trkpt><trkpt lat="43.7812939" lon="10.4633746"><ele>64.0</ele><time>2026-05-03T06:47:38.325Z</time></trkpt><trkpt lat="43.7814593" lon="10.4635615"><ele>63.0</ele><time>2026-05-03T06:47:39.308Z</time></trkpt><trkpt lat="43.7815995" lon="10.4637121"><ele>63.66666666666667</ele><time>2026-05-03T06:47:40.31Z</time></trkpt><trkpt lat="43.781765" lon="10.4638861"><ele>64.33333333333334</ele><time>2026-05-03T06:47:41.313Z</time></trkpt><trkpt lat="43.7819231" lon="10.4640684"><ele>65.0</ele><time>2026-05-03T06:47:42.316Z</time></trkpt><trkpt lat="43.7820692" lon="10.4642208"><ele>63.333333333333336</ele><time>2026-05-03T06:47:43.315Z</time></trkpt><trkpt lat="43.7822149" lon="10.4643819"><ele>61.66666666666667</ele><time>2026-05-03T06:47:44.324Z</time></trkpt><trkpt lat="43.7823396" lon="10.4645291"><ele>60.0</ele><time>2026-05-03T06:47:45.31Z</time></trkpt><trkpt lat="43.7824955" lon="10.4647062"><ele>59.33333333333333</ele><time>2026-05-03T06:47:46.316Z</time></trkpt><trkpt lat="43.7826415" lon="10.4648908"><ele>58.666666666666664</ele><time>2026-05-03T06:47:47.316Z</time></trkpt><trkpt lat="43.7828005" lon="10.4650572"><ele>58.0</ele><time>2026-05-03T06:47:48.317Z</time></trkpt><trkpt lat="43.7829594" lon="10.4652402"><ele>57.666666666666664</ele><time>2026-05-03T06:47:49.328Z</time></trkpt><trkpt lat="43.7831236" lon="10.4654412"><ele>57.33333333333333</ele><time>2026-05-03T06:47:50.319Z</time></trkpt><trkpt lat="43.7832903" lon="10.4656418"><ele>57.0</ele><time>2026-05-03T06:47:51.317Z</time></trkpt><trkpt lat="43.7834451" lon="10.465832"><ele>56.66666666666667</ele><time>2026-05-03T06:47:52.313Z</time></trkpt><trkpt lat="43.7836065" lon="10.4660174"><ele>56.333333333333336</ele><time>2026-05-03T06:47:53.32Z</time></trkpt><trkpt lat="43.7837658" lon="10.466226"><ele>56.0</ele><time>2026-05-03T06:47:54.331Z</time></trkpt><trkpt lat="43.7839133" lon="10.4664174"><ele>56.0</ele><time>2026-05-03T06:47:55.319Z</time></trkpt><trkpt lat="43.784074" lon="10.4666302"><ele>56.0</ele><time>2026-05-03T06:47:56.321Z</time></trkpt><trkpt lat="43.7842305" lon="10.4668244"><ele>56.0</ele><time>2026-05-03T06:47:57.321Z</time></trkpt><trkpt lat="43.7844111" lon="10.4670212"><ele>55.0</ele><time>2026-05-03T06:47:58.321Z</time></trkpt><trkpt lat="43.7845515" lon="10.4672127"><ele>54.0</ele><time>2026-05-03T06:47:59.332Z</time></trkpt><trkpt lat="43.7847013" lon="10.4674017"><ele>53.0</ele><time>2026-05-03T06:48:00.322Z</time></trkpt><trkpt lat="43.7848646" lon="10.4675617"><ele>53.0</ele><time>2026-05-03T06:48:01.32Z</time></trkpt><trkpt lat="43.7850137" lon="10.4677498"><ele>53.0</ele><time>2026-05-03T06:48:02.323Z</time></trkpt><trkpt lat="43.7851851" lon="10.4679457"><ele>53.0</ele><time>2026-05-03T06:48:03.323Z</time></trkpt><trkpt lat="43.7853319" lon="10.4681407"><ele>53.0</ele><time>2026-05-03T06:48:04.338Z</time></trkpt><trkpt lat="43.7854909" lon="10.4683283"><ele>53.0</ele><time>2026-05-03T06:48:05.323Z</time></trkpt><trkpt lat="43.7856523" lon="10.4685058"><ele>53.0</ele><time>2026-05-03T06:48:06.321Z</time></trkpt><trkpt lat="43.7858004" lon="10.4686874"><ele>53.333333333333336</ele><time>2026-05-03T06:48:07.322Z</time></trkpt><trkpt lat="43.7859388" lon="10.4688634"><ele>53.66666666666667</ele><time>2026-05-03T06:48:08.321Z</time></trkpt><trkpt lat="43.786121" lon="10.4690289"><ele>54.0</ele><time>2026-05-03T06:48:09.328Z</time></trkpt><trkpt lat="43.7862648" lon="10.4692189"><ele>52.66666666666667</ele><time>2026-05-03T06:48:10.318Z</time></trkpt><trkpt lat="43.7864278" lon="10.469399"><ele>51.333333333333336</ele><time>2026-05-03T06:48:11.317Z</time></trkpt><trkpt lat="43.7865572" lon="10.4695818"><ele>50.0</ele><time>2026-05-03T06:48:12.321Z</time></trkpt><trkpt lat="43.7866939" lon="10.4697787"><ele>48.66666666666667</ele><time>2026-05-03T06:48:13.318Z</time></trkpt><trkpt lat="43.7868482" lon="10.4699855"><ele>47.333333333333336</ele><time>2026-05-03T06:48:14.331Z</time></trkpt><trkpt lat="43.787" lon="10.4701888"><ele>46.0</ele><time>2026-05-03T06:48:15.314Z</time></trkpt><trkpt lat="43.7871456" lon="10.4704007"><ele>46.0</ele><time>2026-05-03T06:48:16.314Z</time></trkpt><trkpt lat="43.7872984" lon="10.4705756"><ele>46.0</ele><time>2026-05-03T06:48:17.321Z</time></trkpt><trkpt lat="43.7874382" lon="10.4707634"><ele>46.0</ele><time>2026-05-03T06:48:18.311Z</time></trkpt><trkpt lat="43.7875798" lon="10.4709766"><ele>45.66666666666667</ele><time>2026-05-03T06:48:19.325Z</time></trkpt><trkpt lat="43.7877205" lon="10.4711836"><ele>45.333333333333336</ele><time>2026-05-03T06:48:20.32Z</time></trkpt><trkpt lat="43.7878713" lon="10.4713987"><ele>45.0</ele><time>2026-05-03T06:48:21.32Z</time></trkpt><trkpt lat="43.7880309" lon="10.4716428"><ele>44.5</ele><time>2026-05-03T06:48:22.316Z</time></trkpt><trkpt lat="43.7881884" lon="10.4718987"><ele>44.0</ele><time>2026-05-03T06:48:23.314Z</time></trkpt><trkpt lat="43.7883346" lon="10.4721253"><ele>42.5</ele><time>2026-05-03T06:48:24.342Z</time></trkpt><trkpt lat="43.78849" lon="10.4723452"><ele>41.0</ele><time>2026-05-03T06:48:25.31Z</time></trkpt><trkpt lat="43.7886462" lon="10.4725803"><ele>41.0</ele><time>2026-05-03T06:48:26.314Z</time></trkpt><trkpt lat="43.7887977" lon="10.4728162"><ele>41.0</ele><time>2026-05-03T06:48:27.312Z</time></trkpt><trkpt lat="43.788949" lon="10.4730126"><ele>41.0</ele><time>2026-05-03T06:48:28.305Z</time></trkpt><trkpt lat="43.7891053" lon="10.4732297"><ele>40.666666666666664</ele><time>2026-05-03T06:48:29.313Z</time></trkpt><trkpt lat="43.7892371" lon="10.4734116"><ele>40.333333333333336</ele><time>2026-05-03T06:48:30.304Z</time></trkpt><trkpt lat="43.7893668" lon="10.4736168"><ele>40.0</ele><time>2026-05-03T06:48:31.308Z</time></trkpt><trkpt lat="43.7894938" lon="10.4738279"><ele>39.333333333333336</ele><time>2026-05-03T06:48:32.312Z</time></trkpt><trkpt lat="43.7896112" lon="10.4740228"><ele>38.666666666666664</ele><time>2026-05-03T06:48:33.311Z</time></trkpt><trkpt lat="43.7897298" lon="10.4741857"><ele>38.0</ele><time>2026-05-03T06:48:34.322Z</time></trkpt><trkpt lat="43.78984" lon="10.4743679"><ele>38.0</ele><time>2026-05-03T06:48:35.305Z</time></trkpt><trkpt lat="43.7899588" lon="10.4745532"><ele>38.0</ele><time>2026-05-03T06:48:36.31Z</time></trkpt><trkpt lat="43.7901102" lon="10.4747312"><ele>38.0</ele><time>2026-05-03T06:48:37.311Z</time></trkpt><trkpt lat="43.7902508" lon="10.4748755"><ele>37.666666666666664</ele><time>2026-05-03T06:48:38.307Z</time></trkpt><trkpt lat="43.7903907" lon="10.4750099"><ele>37.333333333333336</ele><time>2026-05-03T06:48:39.316Z</time></trkpt><trkpt lat="43.7905427" lon="10.4751021"><ele>37.0</ele><time>2026-05-03T06:48:40.334Z</time></trkpt><trkpt lat="43.790682" lon="10.4751893"><ele>37.0</ele><time>2026-05-03T06:48:41.321Z</time></trkpt><trkpt lat="43.7908319" lon="10.4752354"><ele>37.0</ele><time>2026-05-03T06:48:42.325Z</time></trkpt><trkpt lat="43.7909679" lon="10.4753329"><ele>37.0</ele><time>2026-05-03T06:48:43.321Z</time></trkpt><trkpt lat="43.7911055" lon="10.4754171"><ele>36.5</ele><time>2026-05-03T06:48:44.321Z</time></trkpt><trkpt lat="43.7912093" lon="10.4755014"><ele>36.0</ele><time>2026-05-03T06:48:45.338Z</time></trkpt><trkpt lat="43.7913322" lon="10.4755545"><ele>35.5</ele><time>2026-05-03T06:48:46.321Z</time></trkpt><trkpt lat="43.7914524" lon="10.4756362"><ele>35.0</ele><time>2026-05-03T06:48:47.316Z</time></trkpt><trkpt lat="43.7915835" lon="10.4757066"><ele>35.0</ele><time>2026-05-03T06:48:48.317Z</time></trkpt><trkpt lat="43.7917227" lon="10.4757866"><ele>35.0</ele><time>2026-05-03T06:48:49.322Z</time></trkpt><trkpt lat="43.7918506" lon="10.4758748"><ele>35.0</ele><time>2026-05-03T06:48:50.342Z</time></trkpt><trkpt lat="43.7919858" lon="10.4760015"><ele>35.666666666666664</ele><time>2026-05-03T06:48:51.328Z</time></trkpt><trkpt lat="43.7921268" lon="10.4761827"><ele>36.333333333333336</ele><time>2026-05-03T06:48:52.32Z</time></trkpt><trkpt lat="43.7922543" lon="10.4763652"><ele>37.0</ele><time>2026-05-03T06:48:53.315Z</time></trkpt><trkpt lat="43.7923618" lon="10.4765505"><ele>37.0</ele><time>2026-05-03T06:48:54.319Z</time></trkpt><trkpt lat="43.7924877" lon="10.4767093"><ele>37.0</ele><time>2026-05-03T06:48:55.325Z</time></trkpt><trkpt lat="43.792626" lon="10.4768671"><ele>37.0</ele><time>2026-05-03T06:48:56.315Z</time></trkpt><trkpt lat="43.792777" lon="10.4770229"><ele>35.66666666666667</ele><time>2026-05-03T06:48:57.316Z</time></trkpt><trkpt lat="43.7929237" lon="10.4771942"><ele>34.333333333333336</ele><time>2026-05-03T06:48:58.317Z</time></trkpt><trkpt lat="43.7930426" lon="10.4773465"><ele>33.0</ele><time>2026-05-03T06:48:59.315Z</time></trkpt><trkpt lat="43.7931805" lon="10.4774947"><ele>33.0</ele><time>2026-05-03T06:49:00.325Z</time></trkpt><trkpt lat="43.7933208" lon="10.4776369"><ele>33.0</ele><time>2026-05-03T06:49:01.306Z</time></trkpt><trkpt lat="43.7934977" lon="10.4778038"><ele>33.0</ele><time>2026-05-03T06:49:02.318Z</time></trkpt><trkpt lat="43.7936888" lon="10.4779983"><ele>33.333333333333336</ele><time>2026-05-03T06:49:03.32Z</time></trkpt><trkpt lat="43.7938615" lon="10.4782174"><ele>33.66666666666667</ele><time>2026-05-03T06:49:04.318Z</time></trkpt><trkpt lat="43.794005" lon="10.4784269"><ele>34.0</ele><time>2026-05-03T06:49:05.322Z</time></trkpt><trkpt lat="43.7941593" lon="10.4786367"><ele>34.0</ele><time>2026-05-03T06:49:06.312Z</time></trkpt><trkpt lat="43.7942661" lon="10.4787832"><ele>34.0</ele><time>2026-05-03T06:49:07.314Z</time></trkpt><trkpt lat="43.7943889" lon="10.4789311"><ele>34.0</ele><time>2026-05-03T06:49:08.312Z</time></trkpt><trkpt lat="43.7945525" lon="10.4790706"><ele>34.0</ele><time>2026-05-03T06:49:09.321Z</time></trkpt><trkpt lat="43.7946732" lon="10.4792525"><ele>34.0</ele><time>2026-05-03T06:49:10.333Z</time></trkpt><trkpt lat="43.7948412" lon="10.4794552"><ele>34.0</ele><time>2026-05-03T06:49:11.313Z</time></trkpt><trkpt lat="43.7950106" lon="10.4796319"><ele>33.333333333333336</ele><time>2026-05-03T06:49:12.317Z</time></trkpt><trkpt lat="43.7951372" lon="10.4798145"><ele>32.666666666666664</ele><time>2026-05-03T06:49:13.311Z</time></trkpt><trkpt lat="43.7952718" lon="10.479989"><ele>32.0</ele><time>2026-05-03T06:49:14.316Z</time></trkpt><trkpt lat="43.7954252" lon="10.4801575"><ele>32.0</ele><time>2026-05-03T06:49:15.33Z</time></trkpt><trkpt lat="43.7955706" lon="10.4803426"><ele>32.0</ele><time>2026-05-03T06:49:16.318Z</time></trkpt><trkpt lat="43.7957005" lon="10.4805099"><ele>32.0</ele><time>2026-05-03T06:49:17.309Z</time></trkpt><trkpt lat="43.7958557" lon="10.480675"><ele>32.33333333333333</ele><time>2026-05-03T06:49:18.327Z</time></trkpt><trkpt lat="43.7960171" lon="10.4808548"><ele>32.666666666666664</ele><time>2026-05-03T06:49:19.317Z</time></trkpt><trkpt lat="43.7961892" lon="10.4810661"><ele>33.0</ele><time>2026-05-03T06:49:20.322Z</time></trkpt><trkpt lat="43.7963789" lon="10.4812934"><ele>32.0</ele><time>2026-05-03T06:49:21.318Z</time></trkpt><trkpt lat="43.796563" lon="10.4815292"><ele>31.0</ele><time>2026-05-03T06:49:22.317Z</time></trkpt><trkpt lat="43.7967419" lon="10.4817181"><ele>31.333333333333336</ele><time>2026-05-03T06:49:23.317Z</time></trkpt><trkpt lat="43.7968931" lon="10.4818786"><ele>31.666666666666664</ele><time>2026-05-03T06:49:24.327Z</time></trkpt><trkpt lat="43.7970337" lon="10.4820542"><ele>32.0</ele><time>2026-05-03T06:49:25.343Z</time></trkpt><trkpt lat="43.7972047" lon="10.4822873"><ele>32.0</ele><time>2026-05-03T06:49:26.315Z</time></trkpt><trkpt lat="43.797343" lon="10.4824708"><ele>32.0</ele><time>2026-05-03T06:49:27.315Z</time></trkpt><trkpt lat="43.797502" lon="10.4826633"><ele>32.0</ele><time>2026-05-03T06:49:28.315Z</time></trkpt><trkpt lat="43.7976712" lon="10.4828735"><ele>31.0</ele><time>2026-05-03T06:49:29.31Z</time></trkpt><trkpt lat="43.7978219" lon="10.4830297"><ele>30.0</ele><time>2026-05-03T06:49:30.33Z</time></trkpt><trkpt lat="43.7980064" lon="10.4831999"><ele>29.0</ele><time>2026-05-03T06:49:31.313Z</time></trkpt><trkpt lat="43.7982087" lon="10.4833548"><ele>29.0</ele><time>2026-05-03T06:49:32.311Z</time></trkpt><trkpt lat="43.7983629" lon="10.4834833"><ele>29.0</ele><time>2026-05-03T06:49:33.326Z</time></trkpt><trkpt lat="43.7985373" lon="10.4835724"><ele>29.0</ele><time>2026-05-03T06:49:34.325Z</time></trkpt><trkpt lat="43.798687" lon="10.483692"><ele>29.0</ele><time>2026-05-03T06:49:35.335Z</time></trkpt><trkpt lat="43.7988072" lon="10.4837768"><ele>29.0</ele><time>2026-05-03T06:49:36.321Z</time></trkpt><trkpt lat="43.7989522" lon="10.4838758"><ele>29.0</ele><time>2026-05-03T06:49:37.318Z</time></trkpt><trkpt lat="43.7991012" lon="10.4839583"><ele>29.0</ele><time>2026-05-03T06:49:38.32Z</time></trkpt><trkpt lat="43.7992105" lon="10.4840253"><ele>29.0</ele><time>2026-05-03T06:49:39.318Z</time></trkpt><trkpt lat="43.7993297" lon="10.4841387"><ele>29.0</ele><time>2026-05-03T06:49:40.336Z</time></trkpt><trkpt lat="43.799433" lon="10.4842161"><ele>29.0</ele><time>2026-05-03T06:49:41.314Z</time></trkpt><trkpt lat="43.7995691" lon="10.4842749"><ele>29.25</ele><time>2026-05-03T06:49:42.32Z</time></trkpt><trkpt lat="43.7996878" lon="10.4843655"><ele>29.5</ele><time>2026-05-03T06:49:43.317Z</time></trkpt><trkpt lat="43.7997863" lon="10.4844336"><ele>29.75</ele><time>2026-05-03T06:49:44.318Z</time></trkpt><trkpt lat="43.7998978" lon="10.4844827"><ele>30.0</ele><time>2026-05-03T06:49:45.334Z</time></trkpt><trkpt lat="43.8000323" lon="10.4845154"><ele>29.666666666666664</ele><time>2026-05-03T06:49:46.315Z</time></trkpt><trkpt lat="43.8002072" lon="10.4845533"><ele>29.333333333333332</ele><time>2026-05-03T06:49:47.316Z</time></trkpt><trkpt lat="43.8003769" lon="10.4845627"><ele>29.0</ele><time>2026-05-03T06:49:48.315Z</time></trkpt><trkpt lat="43.8004907" lon="10.4845417"><ele>29.0</ele><time>2026-05-03T06:49:49.312Z</time></trkpt><trkpt lat="43.8006431" lon="10.4845374"><ele>29.0</ele><time>2026-05-03T06:49:50.328Z</time></trkpt><trkpt lat="43.8007623" lon="10.4845398"><ele>29.0</ele><time>2026-05-03T06:49:51.308Z</time></trkpt><trkpt lat="43.800886" lon="10.4845648"><ele>29.0</ele><time>2026-05-03T06:49:52.31Z</time></trkpt><trkpt lat="43.800975" lon="10.4845708"><ele>28.5</ele><time>2026-05-03T06:49:53.307Z</time></trkpt><trkpt lat="43.8010683" lon="10.4845629"><ele>28.0</ele><time>2026-05-03T06:49:54.308Z</time></trkpt><trkpt lat="43.801209" lon="10.4845911"><ele>27.5</ele><time>2026-05-03T06:49:55.307Z</time></trkpt><trkpt lat="43.8013498" lon="10.4846172"><ele>27.0</ele><time>2026-05-03T06:49:56.313Z</time></trkpt><trkpt lat="43.8014937" lon="10.4846098"><ele>27.0</ele><time>2026-05-03T06:49:57.305Z</time></trkpt><trkpt lat="43.8016463" lon="10.4846235"><ele>27.0</ele><time>2026-05-03T06:49:58.305Z</time></trkpt><trkpt lat="43.8017749" lon="10.4846416"><ele>27.0</ele><time>2026-05-03T06:49:59.302Z</time></trkpt><trkpt lat="43.8018991" lon="10.4846265"><ele>27.0</ele><time>2026-05-03T06:50:00.302Z</time></trkpt><trkpt lat="43.8020247" lon="10.4846077"><ele>26.25</ele><time>2026-05-03T06:50:01.306Z</time></trkpt><trkpt lat="43.8021495" lon="10.4846587"><ele>25.5</ele><time>2026-05-03T06:50:02.308Z</time></trkpt><trkpt lat="43.8022903" lon="10.4846719"><ele>24.75</ele><time>2026-05-03T06:50:03.306Z</time></trkpt><trkpt lat="43.8024541" lon="10.4846934"><ele>24.0</ele><time>2026-05-03T06:50:04.311Z</time></trkpt><trkpt lat="43.8026183" lon="10.4847151"><ele>24.0</ele><time>2026-05-03T06:50:05.313Z</time></trkpt><trkpt lat="43.8027961" lon="10.4846935"><ele>24.0</ele><time>2026-05-03T06:50:06.311Z</time></trkpt><trkpt lat="43.802964" lon="10.4846428"><ele>24.0</ele><time>2026-05-03T06:50:07.309Z</time></trkpt><trkpt lat="43.8031389" lon="10.4845779"><ele>24.0</ele><time>2026-05-03T06:50:08.311Z</time></trkpt><trkpt lat="43.8033011" lon="10.4845129"><ele>24.0</ele><time>2026-05-03T06:50:09.31Z</time></trkpt><trkpt lat="43.8034582" lon="10.4844691"><ele>24.0</ele><time>2026-05-03T06:50:10.316Z</time></trkpt><trkpt lat="43.8035748" lon="10.484454"><ele>24.0</ele><time>2026-05-03T06:50:11.314Z</time></trkpt><trkpt lat="43.8037014" lon="10.4843946"><ele>23.5</ele><time>2026-05-03T06:50:12.316Z</time></trkpt><trkpt lat="43.8038284" lon="10.4843239"><ele>23.0</ele><time>2026-05-03T06:50:13.318Z</time></trkpt><trkpt lat="43.8039528" lon="10.484271"><ele>22.5</ele><time>2026-05-03T06:50:14.316Z</time></trkpt><trkpt lat="43.8040635" lon="10.4842375"><ele>22.0</ele><time>2026-05-03T06:50:15.315Z</time></trkpt><trkpt lat="43.8042052" lon="10.4841818"><ele>21.5</ele><time>2026-05-03T06:50:16.318Z</time></trkpt><trkpt lat="43.8043331" lon="10.4841532"><ele>21.0</ele><time>2026-05-03T06:50:17.317Z</time></trkpt><trkpt lat="43.8044551" lon="10.4841247"><ele>20.5</ele><time>2026-05-03T06:50:18.316Z</time></trkpt><trkpt lat="43.8045692" lon="10.4841236"><ele>20.0</ele><time>2026-05-03T06:50:19.314Z</time></trkpt><trkpt lat="43.8046854" lon="10.4841391"><ele>20.0</ele><time>2026-05-03T06:50:20.317Z</time></trkpt><trkpt lat="43.804806" lon="10.4841664"><ele>20.0</ele><time>2026-05-03T06:50:21.315Z</time></trkpt><trkpt lat="43.8049611" lon="10.4842076"><ele>20.0</ele><time>2026-05-03T06:50:22.313Z</time></trkpt><trkpt lat="43.8051153" lon="10.4842827"><ele>20.0</ele><time>2026-05-03T06:50:23.315Z</time></trkpt><trkpt lat="43.8053019" lon="10.4843314"><ele>20.0</ele><time>2026-05-03T06:50:24.316Z</time></trkpt><trkpt lat="43.8054757" lon="10.4843944"><ele>20.0</ele><time>2026-05-03T06:50:25.316Z</time></trkpt><trkpt lat="43.8056271" lon="10.4844297"><ele>20.0</ele><time>2026-05-03T06:50:26.313Z</time></trkpt><trkpt lat="43.805794" lon="10.4844669"><ele>20.0</ele><time>2026-05-03T06:50:27.319Z</time></trkpt><trkpt lat="43.8059704" lon="10.4845402"><ele>20.0</ele><time>2026-05-03T06:50:28.313Z</time></trkpt><trkpt lat="43.8061409" lon="10.4845293"><ele>20.0</ele><time>2026-05-03T06:50:29.306Z</time></trkpt><trkpt lat="43.8062986" lon="10.4845203"><ele>20.25</ele><time>2026-05-03T06:50:30.31Z</time></trkpt><trkpt lat="43.8064288" lon="10.4845721"><ele>20.5</ele><time>2026-05-03T06:50:31.303Z</time></trkpt><trkpt lat="43.8065691" lon="10.4846216"><ele>20.75</ele><time>2026-05-03T06:50:32.309Z</time></trkpt><trkpt lat="43.8067051" lon="10.4846269"><ele>21.0</ele><time>2026-05-03T06:50:33.309Z</time></trkpt><trkpt lat="43.8068171" lon="10.4846146"><ele>21.25</ele><time>2026-05-03T06:50:34.309Z</time></trkpt><trkpt lat="43.8069373" lon="10.4846478"><ele>21.5</ele><time>2026-05-03T06:50:35.309Z</time></trkpt><trkpt lat="43.8070684" lon="10.4846859"><ele>21.75</ele><time>2026-05-03T06:50:36.306Z</time></trkpt><trkpt lat="43.8072127" lon="10.4846859"><ele>22.0</ele><time>2026-05-03T06:50:37.308Z</time></trkpt><trkpt lat="43.8073807" lon="10.4847123"><ele>22.0</ele><time>2026-05-03T06:50:38.301Z</time></trkpt><trkpt lat="43.8075876" lon="10.4847696"><ele>22.0</ele><time>2026-05-03T06:50:39.306Z</time></trkpt><trkpt lat="43.807802" lon="10.4848335"><ele>22.0</ele><time>2026-05-03T06:50:40.306Z</time></trkpt><trkpt lat="43.8080364" lon="10.4849217"><ele>22.5</ele><time>2026-05-03T06:50:41.306Z</time></trkpt><trkpt lat="43.8082549" lon="10.4849888"><ele>23.0</ele><time>2026-05-03T06:50:42.305Z</time></trkpt><trkpt lat="43.8084839" lon="10.4850451"><ele>25.0</ele><time>2026-05-03T06:50:43.316Z</time></trkpt><trkpt lat="43.8087314" lon="10.4851252"><ele>27.0</ele><time>2026-05-03T06:50:44.321Z</time></trkpt><trkpt lat="43.8089397" lon="10.485224"><ele>27.0</ele><time>2026-05-03T06:50:45.323Z</time></trkpt><trkpt lat="43.8091643" lon="10.4853647"><ele>27.0</ele><time>2026-05-03T06:50:46.321Z</time></trkpt><trkpt lat="43.8093903" lon="10.4854284"><ele>24.0</ele><time>2026-05-03T06:50:47.319Z</time></trkpt><trkpt lat="43.8095705" lon="10.4854749"><ele>21.0</ele><time>2026-05-03T06:50:48.323Z</time></trkpt><trkpt lat="43.809769" lon="10.4855617"><ele>18.0</ele><time>2026-05-03T06:50:49.322Z</time></trkpt><trkpt lat="43.8099704" lon="10.485585"><ele>18.333333333333332</ele><time>2026-05-03T06:50:50.324Z</time></trkpt><trkpt lat="43.8101601" lon="10.4856538"><ele>18.666666666666664</ele><time>2026-05-03T06:50:51.321Z</time></trkpt><trkpt lat="43.8103363" lon="10.4856823"><ele>19.0</ele><time>2026-05-03T06:50:52.321Z</time></trkpt><trkpt lat="43.8105031" lon="10.4857336"><ele>19.0</ele><time>2026-05-03T06:50:53.326Z</time></trkpt><trkpt lat="43.8106792" lon="10.4857866"><ele>19.0</ele><time>2026-05-03T06:50:54.319Z</time></trkpt><trkpt lat="43.8108216" lon="10.485851"><ele>19.0</ele><time>2026-05-03T06:50:55.319Z</time></trkpt><trkpt lat="43.8109998" lon="10.4859213"><ele>19.333333333333332</ele><time>2026-05-03T06:50:56.318Z</time></trkpt><trkpt lat="43.8111677" lon="10.4859849"><ele>19.666666666666668</ele><time>2026-05-03T06:50:57.317Z</time></trkpt><trkpt lat="43.8113058" lon="10.4860347"><ele>20.0</ele><time>2026-05-03T06:50:58.323Z</time></trkpt><trkpt lat="43.8114503" lon="10.4860892"><ele>20.0</ele><time>2026-05-03T06:50:59.314Z</time></trkpt><trkpt lat="43.8116114" lon="10.4861833"><ele>20.0</ele><time>2026-05-03T06:51:00.314Z</time></trkpt><trkpt lat="43.8117366" lon="10.4862543"><ele>20.0</ele><time>2026-05-03T06:51:01.312Z</time></trkpt><trkpt lat="43.8118895" lon="10.4863353"><ele>19.333333333333336</ele><time>2026-05-03T06:51:02.308Z</time></trkpt><trkpt lat="43.8120419" lon="10.4864316"><ele>18.666666666666668</ele><time>2026-05-03T06:51:03.316Z</time></trkpt><trkpt lat="43.812176" lon="10.4864847"><ele>18.0</ele><time>2026-05-03T06:51:04.315Z</time></trkpt><trkpt lat="43.8123238" lon="10.4865721"><ele>18.0</ele><time>2026-05-03T06:51:05.31Z</time></trkpt><trkpt lat="43.8124938" lon="10.4866412"><ele>18.0</ele><time>2026-05-03T06:51:06.311Z</time></trkpt><trkpt lat="43.8126347" lon="10.4866933"><ele>18.0</ele><time>2026-05-03T06:51:07.312Z</time></trkpt><trkpt lat="43.8127899" lon="10.4867666"><ele>17.0</ele><time>2026-05-03T06:51:08.311Z</time></trkpt><trkpt lat="43.8129565" lon="10.4868427"><ele>16.0</ele><time>2026-05-03T06:51:09.31Z</time></trkpt><trkpt lat="43.813297" lon="10.4869772"><ele>16.0</ele><time>2026-05-03T06:51:11.307Z</time></trkpt><trkpt lat="43.8134443" lon="10.4870291"><ele>16.0</ele><time>2026-05-03T06:51:12.307Z</time></trkpt><trkpt lat="43.8135885" lon="10.4870589"><ele>16.0</ele><time>2026-05-03T06:51:13.303Z</time></trkpt><trkpt lat="43.8137442" lon="10.4871272"><ele>15.333333333333332</ele><time>2026-05-03T06:51:14.302Z</time></trkpt><trkpt lat="43.8139134" lon="10.4872094"><ele>14.666666666666668</ele><time>2026-05-03T06:51:15.307Z</time></trkpt><trkpt lat="43.8140459" lon="10.4872573"><ele>14.0</ele><time>2026-05-03T06:51:16.302Z</time></trkpt><trkpt lat="43.8141878" lon="10.4873711"><ele>14.333333333333334</ele><time>2026-05-03T06:51:17.302Z</time></trkpt><trkpt lat="43.814337" lon="10.4874756"><ele>14.666666666666668</ele><time>2026-05-03T06:51:18.308Z</time></trkpt><trkpt lat="43.814478" lon="10.4875486"><ele>15.0</ele><time>2026-05-03T06:51:19.311Z</time></trkpt><trkpt lat="43.8146497" lon="10.4876535"><ele>15.0</ele><time>2026-05-03T06:51:20.322Z</time></trkpt><trkpt lat="43.8147927" lon="10.487728"><ele>15.0</ele><time>2026-05-03T06:51:21.321Z</time></trkpt><trkpt lat="43.8149382" lon="10.4878348"><ele>15.0</ele><time>2026-05-03T06:51:22.317Z</time></trkpt><trkpt lat="43.8150735" lon="10.4879559"><ele>14.5</ele><time>2026-05-03T06:51:23.322Z</time></trkpt><trkpt lat="43.8152116" lon="10.4880408"><ele>14.0</ele><time>2026-05-03T06:51:24.323Z</time></trkpt><trkpt lat="43.8153453" lon="10.4881568"><ele>13.5</ele><time>2026-05-03T06:51:25.323Z</time></trkpt><trkpt lat="43.8154504" lon="10.4882258"><ele>13.0</ele><time>2026-05-03T06:51:26.311Z</time></trkpt><trkpt lat="43.8155693" lon="10.4883552"><ele>13.0</ele><time>2026-05-03T06:51:27.313Z</time></trkpt><trkpt lat="43.8157109" lon="10.4884174"><ele>13.0</ele><time>2026-05-03T06:51:28.313Z</time></trkpt><trkpt lat="43.8158657" lon="10.4884751"><ele>13.0</ele><time>2026-05-03T06:51:29.32Z</time></trkpt><trkpt lat="43.815982" lon="10.488551"><ele>13.0</ele><time>2026-05-03T06:51:30.309Z</time></trkpt><trkpt lat="43.8160685" lon="10.4886193"><ele>12.833333333333332</ele><time>2026-05-03T06:51:31.313Z</time></trkpt><trkpt lat="43.8161244" lon="10.4887119"><ele>12.666666666666666</ele><time>2026-05-03T06:51:32.316Z</time></trkpt><trkpt lat="43.8162185" lon="10.4887719"><ele>12.5</ele><time>2026-05-03T06:51:33.316Z</time></trkpt><trkpt lat="43.8162739" lon="10.4888605"><ele>12.333333333333332</ele><time>2026-05-03T06:51:34.311Z</time></trkpt><trkpt lat="43.8163264" lon="10.4889352"><ele>12.166666666666666</ele><time>2026-05-03T06:51:35.309Z</time></trkpt><trkpt lat="43.8163892" lon="10.4889825"><ele>12.0</ele><time>2026-05-03T06:51:36.309Z</time></trkpt><trkpt lat="43.8164702" lon="10.4890163"><ele>12.0</ele><time>2026-05-03T06:51:37.318Z</time></trkpt><trkpt lat="43.8165506" lon="10.4889973"><ele>12.0</ele><time>2026-05-03T06:51:38.314Z</time></trkpt><trkpt lat="43.8166117" lon="10.4889224"><ele>12.0</ele><time>2026-05-03T06:51:39.314Z</time></trkpt><trkpt lat="43.8166794" lon="10.4887866"><ele>12.0</ele><time>2026-05-03T06:51:40.313Z</time></trkpt><trkpt lat="43.8167691" lon="10.4886627"><ele>12.0</ele><time>2026-05-03T06:51:41.305Z</time></trkpt><trkpt lat="43.816872" lon="10.4885596"><ele>11.333333333333334</ele><time>2026-05-03T06:51:42.313Z</time></trkpt><trkpt lat="43.8169768" lon="10.488437"><ele>10.666666666666668</ele><time>2026-05-03T06:51:43.319Z</time></trkpt><trkpt lat="43.8171245" lon="10.4883301"><ele>10.0</ele><time>2026-05-03T06:51:44.316Z</time></trkpt><trkpt lat="43.8173387" lon="10.4881864"><ele>10.0</ele><time>2026-05-03T06:51:45.32Z</time></trkpt><trkpt lat="43.8175857" lon="10.4881336"><ele>10.0</ele><time>2026-05-03T06:51:46.327Z</time></trkpt><trkpt lat="43.8177792" lon="10.4880963"><ele>10.0</ele><time>2026-05-03T06:51:47.326Z</time></trkpt><trkpt lat="43.8180128" lon="10.4880689"><ele>11.0</ele><time>2026-05-03T06:51:48.329Z</time></trkpt><trkpt lat="43.8182406" lon="10.4880038"><ele>12.0</ele><time>2026-05-03T06:51:49.327Z</time></trkpt><trkpt lat="43.8184551" lon="10.4879499"><ele>12.0</ele><time>2026-05-03T06:51:50.33Z</time></trkpt><trkpt lat="43.8186377" lon="10.4879449"><ele>12.0</ele><time>2026-05-03T06:51:51.326Z</time></trkpt><trkpt lat="43.8188314" lon="10.4879453"><ele>12.0</ele><time>2026-05-03T06:51:52.325Z</time></trkpt><trkpt lat="43.8190312" lon="10.4879237"><ele>12.5</ele><time>2026-05-03T06:51:53.323Z</time></trkpt><trkpt lat="43.8192564" lon="10.4879308"><ele>13.0</ele><time>2026-05-03T06:51:54.316Z</time></trkpt><trkpt lat="43.8194971" lon="10.4879881"><ele>13.0</ele><time>2026-05-03T06:51:55.315Z</time></trkpt><trkpt lat="43.8196944" lon="10.4880241"><ele>13.0</ele><time>2026-05-03T06:51:56.319Z</time></trkpt><trkpt lat="43.819913" lon="10.4880823"><ele>13.0</ele><time>2026-05-03T06:51:57.32Z</time></trkpt><trkpt lat="43.8201078" lon="10.4881376"><ele>12.5</ele><time>2026-05-03T06:51:58.321Z</time></trkpt><trkpt lat="43.8203185" lon="10.4882178"><ele>12.0</ele><time>2026-05-03T06:51:59.324Z</time></trkpt><trkpt lat="43.8205504" lon="10.4882712"><ele>12.0</ele><time>2026-05-03T06:52:00.331Z</time></trkpt><trkpt lat="43.8207568" lon="10.4882993"><ele>12.0</ele><time>2026-05-03T06:52:01.323Z</time></trkpt><trkpt lat="43.8209687" lon="10.4883465"><ele>12.0</ele><time>2026-05-03T06:52:02.324Z</time></trkpt><trkpt lat="43.8211791" lon="10.488407"><ele>12.0</ele><time>2026-05-03T06:52:03.324Z</time></trkpt><trkpt lat="43.8214037" lon="10.4884595"><ele>12.0</ele><time>2026-05-03T06:52:04.322Z</time></trkpt><trkpt lat="43.8216071" lon="10.4885157"><ele>12.0</ele><time>2026-05-03T06:52:05.319Z</time></trkpt><trkpt lat="43.8218118" lon="10.488527"><ele>11.666666666666666</ele><time>2026-05-03T06:52:06.318Z</time></trkpt><trkpt lat="43.8220467" lon="10.4885105"><ele>11.333333333333332</ele><time>2026-05-03T06:52:07.32Z</time></trkpt><trkpt lat="43.8222531" lon="10.4884594"><ele>11.0</ele><time>2026-05-03T06:52:08.319Z</time></trkpt><trkpt lat="43.8224585" lon="10.4883673"><ele>10.666666666666666</ele><time>2026-05-03T06:52:09.314Z</time></trkpt><trkpt lat="43.8226796" lon="10.4882938"><ele>10.333333333333334</ele><time>2026-05-03T06:52:10.31Z</time></trkpt><trkpt lat="43.8228647" lon="10.4881929"><ele>10.0</ele><time>2026-05-03T06:52:11.31Z</time></trkpt><trkpt lat="43.8230515" lon="10.4881008"><ele>10.0</ele><time>2026-05-03T06:52:12.304Z</time></trkpt><trkpt lat="43.8232614" lon="10.4879596"><ele>10.0</ele><time>2026-05-03T06:52:13.317Z</time></trkpt><trkpt lat="43.8234721" lon="10.4878148"><ele>10.5</ele><time>2026-05-03T06:52:14.316Z</time></trkpt><trkpt lat="43.8236785" lon="10.4876457"><ele>11.0</ele><time>2026-05-03T06:52:15.315Z</time></trkpt><trkpt lat="43.8238783" lon="10.4874874"><ele>11.0</ele><time>2026-05-03T06:52:16.321Z</time></trkpt><trkpt lat="43.8240703" lon="10.4873735"><ele>11.0</ele><time>2026-05-03T06:52:17.319Z</time></trkpt><trkpt lat="43.8242633" lon="10.4872364"><ele>11.0</ele><time>2026-05-03T06:52:18.326Z</time></trkpt><trkpt lat="43.8244626" lon="10.4871188"><ele>11.333333333333332</ele><time>2026-05-03T06:52:19.32Z</time></trkpt><trkpt lat="43.8246681" lon="10.4869998"><ele>11.666666666666666</ele><time>2026-05-03T06:52:20.321Z</time></trkpt><trkpt lat="43.8248635" lon="10.4868542"><ele>12.0</ele><time>2026-05-03T06:52:21.32Z</time></trkpt><trkpt lat="43.8250676" lon="10.4867973"><ele>11.333333333333334</ele><time>2026-05-03T06:52:22.322Z</time></trkpt><trkpt lat="43.8252773" lon="10.4866848"><ele>10.666666666666668</ele><time>2026-05-03T06:52:23.315Z</time></trkpt><trkpt lat="43.8254762" lon="10.4865864"><ele>10.0</ele><time>2026-05-03T06:52:24.314Z</time></trkpt><trkpt lat="43.8256879" lon="10.486596"><ele>10.0</ele><time>2026-05-03T06:52:25.308Z</time></trkpt><trkpt lat="43.8259321" lon="10.4866276"><ele>10.0</ele><time>2026-05-03T06:52:26.317Z</time></trkpt><trkpt lat="43.8261601" lon="10.4866311"><ele>10.0</ele><time>2026-05-03T06:52:27.318Z</time></trkpt><trkpt lat="43.8263749" lon="10.4866459"><ele>10.0</ele><time>2026-05-03T06:52:28.315Z</time></trkpt><trkpt lat="43.8265842" lon="10.4867692"><ele>10.0</ele><time>2026-05-03T06:52:29.318Z</time></trkpt><trkpt lat="43.8267762" lon="10.4868154"><ele>10.0</ele><time>2026-05-03T06:52:30.322Z</time></trkpt><trkpt lat="43.8270141" lon="10.4868693"><ele>10.0</ele><time>2026-05-03T06:52:31.33Z</time></trkpt><trkpt lat="43.827232" lon="10.4869039"><ele>10.0</ele><time>2026-05-03T06:52:32.324Z</time></trkpt><trkpt lat="43.8274408" lon="10.4869423"><ele>10.0</ele><time>2026-05-03T06:52:33.325Z</time></trkpt><trkpt lat="43.8276455" lon="10.4869884"><ele>10.0</ele><time>2026-05-03T06:52:34.323Z</time></trkpt><trkpt lat="43.827885" lon="10.4871004"><ele>10.333333333333334</ele><time>2026-05-03T06:52:35.323Z</time></trkpt><trkpt lat="43.8280905" lon="10.4871606"><ele>10.666666666666666</ele><time>2026-05-03T06:52:36.322Z</time></trkpt><trkpt lat="43.8282848" lon="10.4872081"><ele>11.0</ele><time>2026-05-03T06:52:37.317Z</time></trkpt><trkpt lat="43.8284459" lon="10.4872459"><ele>11.0</ele><time>2026-05-03T06:52:38.321Z</time></trkpt><trkpt lat="43.8285961" lon="10.4872609"><ele>11.0</ele><time>2026-05-03T06:52:39.319Z</time></trkpt><trkpt lat="43.828774" lon="10.4873159"><ele>11.0</ele><time>2026-05-03T06:52:40.312Z</time></trkpt><trkpt lat="43.8289449" lon="10.4874275"><ele>11.0</ele><time>2026-05-03T06:52:41.313Z</time></trkpt><trkpt lat="43.8291019" lon="10.4875512"><ele>11.0</ele><time>2026-05-03T06:52:42.314Z</time></trkpt><trkpt lat="43.8292714" lon="10.4876939"><ele>11.0</ele><time>2026-05-03T06:52:43.318Z</time></trkpt><trkpt lat="43.8294046" lon="10.487887"><ele>11.666666666666666</ele><time>2026-05-03T06:52:44.314Z</time></trkpt><trkpt lat="43.8295868" lon="10.4881071"><ele>12.333333333333332</ele><time>2026-05-03T06:52:45.309Z</time></trkpt><trkpt lat="43.8297073" lon="10.488333"><ele>13.0</ele><time>2026-05-03T06:52:46.313Z</time></trkpt><trkpt lat="43.829844" lon="10.4885649"><ele>12.333333333333332</ele><time>2026-05-03T06:52:47.305Z</time></trkpt><trkpt lat="43.8299556" lon="10.4888431"><ele>11.666666666666666</ele><time>2026-05-03T06:52:48.305Z</time></trkpt><trkpt lat="43.8300428" lon="10.4890723"><ele>11.0</ele><time>2026-05-03T06:52:49.307Z</time></trkpt><trkpt lat="43.8301329" lon="10.4893054"><ele>11.0</ele><time>2026-05-03T06:52:50.31Z</time></trkpt><trkpt lat="43.8301689" lon="10.4895282"><ele>11.0</ele><time>2026-05-03T06:52:51.318Z</time></trkpt><trkpt lat="43.8302113" lon="10.4897954"><ele>11.0</ele><time>2026-05-03T06:52:52.312Z</time></trkpt><trkpt lat="43.8302421" lon="10.4900873"><ele>11.333333333333332</ele><time>2026-05-03T06:52:53.302Z</time></trkpt><trkpt lat="43.8302528" lon="10.4903621"><ele>11.666666666666666</ele><time>2026-05-03T06:52:54.305Z</time></trkpt><trkpt lat="43.8302784" lon="10.4906411"><ele>12.0</ele><time>2026-05-03T06:52:55.306Z</time></trkpt><trkpt lat="43.8302637" lon="10.4908812"><ele>12.0</ele><time>2026-05-03T06:52:56.306Z</time></trkpt><trkpt lat="43.8302683" lon="10.4911289"><ele>12.0</ele><time>2026-05-03T06:52:57.304Z</time></trkpt><trkpt lat="43.8302353" lon="10.4913427"><ele>12.0</ele><time>2026-05-03T06:52:58.296Z</time></trkpt><trkpt lat="43.8301832" lon="10.4915624"><ele>11.666666666666666</ele><time>2026-05-03T06:52:59.298Z</time></trkpt><trkpt lat="43.8300783" lon="10.491751"><ele>11.333333333333332</ele><time>2026-05-03T06:53:00.302Z</time></trkpt><trkpt lat="43.8299783" lon="10.4919037"><ele>11.0</ele><time>2026-05-03T06:53:01.3Z</time></trkpt><trkpt lat="43.8298756" lon="10.4920407"><ele>10.75</ele><time>2026-05-03T06:53:02.314Z</time></trkpt><trkpt lat="43.8298173" lon="10.4921979"><ele>10.5</ele><time>2026-05-03T06:53:03.296Z</time></trkpt><trkpt lat="43.8297358" lon="10.4923621"><ele>10.25</ele><time>2026-05-03T06:53:04.293Z</time></trkpt><trkpt lat="43.8297024" lon="10.4925037"><ele>10.0</ele><time>2026-05-03T06:53:05.295Z</time></trkpt><trkpt lat="43.8296848" lon="10.4926465"><ele>10.0</ele><time>2026-05-03T06:53:06.292Z</time></trkpt><trkpt lat="43.8297969" lon="10.4927991"><ele>10.0</ele><time>2026-05-03T06:53:07.29Z</time></trkpt><trkpt lat="43.8299348" lon="10.4929094"><ele>10.0</ele><time>2026-05-03T06:53:08.293Z</time></trkpt><trkpt lat="43.8300198" lon="10.4929539"><ele>10.0</ele><time>2026-05-03T06:53:09.3Z</time></trkpt><trkpt lat="43.8301218" lon="10.4929833"><ele>10.4</ele><time>2026-05-03T06:53:10.304Z</time></trkpt><trkpt lat="43.8302775" lon="10.4929881"><ele>10.8</ele><time>2026-05-03T06:53:11.305Z</time></trkpt><trkpt lat="43.8303775" lon="10.4930247"><ele>11.2</ele><time>2026-05-03T06:53:12.305Z</time></trkpt><trkpt lat="43.830461" lon="10.4930977"><ele>11.6</ele><time>2026-05-03T06:53:13.31Z</time></trkpt><trkpt lat="43.8305158" lon="10.4931578"><ele>12.0</ele><time>2026-05-03T06:53:14.307Z</time></trkpt><trkpt lat="43.830548" lon="10.4932542"><ele>12.0</ele><time>2026-05-03T06:53:16.309Z</time></trkpt><trkpt lat="43.8305715" lon="10.4933651"><ele>12.0</ele><time>2026-05-03T06:53:18.303Z</time></trkpt><trkpt lat="43.8305902" lon="10.493507"><ele>12.0</ele><time>2026-05-03T06:53:19.299Z</time></trkpt><trkpt lat="43.8305953" lon="10.4936453"><ele>12.0</ele><time>2026-05-03T06:53:20.301Z</time></trkpt><trkpt lat="43.8306221" lon="10.493837"><ele>12.0</ele><time>2026-05-03T06:53:21.302Z</time></trkpt><trkpt lat="43.8306536" lon="10.4940373"><ele>12.0</ele><time>2026-05-03T06:53:22.3Z</time></trkpt><trkpt lat="43.8307085" lon="10.4941961"><ele>12.0</ele><time>2026-05-03T06:53:23.305Z</time></trkpt><trkpt lat="43.8307754" lon="10.4943658"><ele>12.0</ele><time>2026-05-03T06:53:24.303Z</time></trkpt><trkpt lat="43.8308454" lon="10.4944951"><ele>12.0</ele><time>2026-05-03T06:53:25.304Z</time></trkpt><trkpt lat="43.8309194" lon="10.494614"><ele>12.0</ele><time>2026-05-03T06:53:26.306Z</time></trkpt><trkpt lat="43.8310005" lon="10.4946213"><ele>12.0</ele><time>2026-05-03T06:53:27.308Z</time></trkpt><trkpt lat="43.8311082" lon="10.4945939"><ele>12.0</ele><time>2026-05-03T06:53:28.308Z</time></trkpt><trkpt lat="43.8312385" lon="10.494528"><ele>12.0</ele><time>2026-05-03T06:53:29.308Z</time></trkpt><trkpt lat="43.8313758" lon="10.4944776"><ele>12.0</ele><time>2026-05-03T06:53:30.315Z</time></trkpt><trkpt lat="43.8315064" lon="10.4944456"><ele>12.0</ele><time>2026-05-03T06:53:31.318Z</time></trkpt><trkpt lat="43.8316722" lon="10.4944371"><ele>12.0</ele><time>2026-05-03T06:53:32.314Z</time></trkpt><trkpt lat="43.8318424" lon="10.4944234"><ele>12.333333333333332</ele><time>2026-05-03T06:53:33.315Z</time></trkpt><trkpt lat="43.8320442" lon="10.494407"><ele>12.666666666666666</ele><time>2026-05-03T06:53:34.31Z</time></trkpt><trkpt lat="43.8322229" lon="10.4944197"><ele>13.0</ele><time>2026-05-03T06:53:35.31Z</time></trkpt><trkpt lat="43.8324011" lon="10.4944201"><ele>13.0</ele><time>2026-05-03T06:53:36.305Z</time></trkpt><trkpt lat="43.8325427" lon="10.4944348"><ele>13.0</ele><time>2026-05-03T06:53:37.309Z</time></trkpt><trkpt lat="43.8326732" lon="10.4944411"><ele>13.0</ele><time>2026-05-03T06:53:38.308Z</time></trkpt><trkpt lat="43.8328169" lon="10.4944343"><ele>13.0</ele><time>2026-05-03T06:53:39.309Z</time></trkpt><trkpt lat="43.8329397" lon="10.4944169"><ele>13.0</ele><time>2026-05-03T06:53:40.312Z</time></trkpt><trkpt lat="43.8330609" lon="10.4944341"><ele>13.0</ele><time>2026-05-03T06:53:41.311Z</time></trkpt><trkpt lat="43.8331956" lon="10.4944688"><ele>13.0</ele><time>2026-05-03T06:53:42.311Z</time></trkpt><trkpt lat="43.8333339" lon="10.4944511"><ele>13.0</ele><time>2026-05-03T06:53:43.306Z</time></trkpt><trkpt lat="43.8334777" lon="10.4944681"><ele>13.0</ele><time>2026-05-03T06:53:44.318Z</time></trkpt><trkpt lat="43.83359" lon="10.494451"><ele>13.0</ele><time>2026-05-03T06:53:45.317Z</time></trkpt><trkpt lat="43.8337072" lon="10.4944826"><ele>13.0</ele><time>2026-05-03T06:53:46.315Z</time></trkpt><trkpt lat="43.8338071" lon="10.4944702"><ele>13.0</ele><time>2026-05-03T06:53:47.319Z</time></trkpt><trkpt lat="43.8339623" lon="10.4945105"><ele>13.0</ele><time>2026-05-03T06:53:48.32Z</time></trkpt><trkpt lat="43.8340767" lon="10.4945137"><ele>13.0</ele><time>2026-05-03T06:53:49.317Z</time></trkpt><trkpt lat="43.8341852" lon="10.4945133"><ele>13.0</ele><time>2026-05-03T06:53:50.319Z</time></trkpt><trkpt lat="43.8343032" lon="10.4945369"><ele>13.0</ele><time>2026-05-03T06:53:51.318Z</time></trkpt><trkpt lat="43.8344335" lon="10.4945663"><ele>13.25</ele><time>2026-05-03T06:53:52.318Z</time></trkpt><trkpt lat="43.8345695" lon="10.4945854"><ele>13.5</ele><time>2026-05-03T06:53:53.312Z</time></trkpt><trkpt lat="43.8347109" lon="10.4946154"><ele>13.75</ele><time>2026-05-03T06:53:54.312Z</time></trkpt><trkpt lat="43.8348297" lon="10.4946266"><ele>14.0</ele><time>2026-05-03T06:53:55.307Z</time></trkpt><trkpt lat="43.8349533" lon="10.4946382"><ele>14.0</ele><time>2026-05-03T06:53:56.307Z</time></trkpt><trkpt lat="43.8350565" lon="10.4946265"><ele>14.0</ele><time>2026-05-03T06:53:57.303Z</time></trkpt><trkpt lat="43.835173" lon="10.4946576"><ele>14.0</ele><time>2026-05-03T06:53:58.306Z</time></trkpt><trkpt lat="43.8353235" lon="10.494673"><ele>14.0</ele><time>2026-05-03T06:53:59.307Z</time></trkpt><trkpt lat="43.8354445" lon="10.4946789"><ele>14.0</ele><time>2026-05-03T06:54:00.307Z</time></trkpt><trkpt lat="43.8355643" lon="10.4946996"><ele>14.0</ele><time>2026-05-03T06:54:01.309Z</time></trkpt><trkpt lat="43.8356892" lon="10.4947193"><ele>14.0</ele><time>2026-05-03T06:54:02.313Z</time></trkpt><trkpt lat="43.8358005" lon="10.4947392"><ele>14.0</ele><time>2026-05-03T06:54:03.311Z</time></trkpt><trkpt lat="43.8359128" lon="10.494764"><ele>14.399999999999999</ele><time>2026-05-03T06:54:04.321Z</time></trkpt><trkpt lat="43.8360205" lon="10.4947826"><ele>14.799999999999999</ele><time>2026-05-03T06:54:05.313Z</time></trkpt><trkpt lat="43.8361197" lon="10.4948061"><ele>15.200000000000001</ele><time>2026-05-03T06:54:06.307Z</time></trkpt><trkpt lat="43.8362196" lon="10.4948294"><ele>15.600000000000001</ele><time>2026-05-03T06:54:07.313Z</time></trkpt><trkpt lat="43.8363335" lon="10.4948432"><ele>16.0</ele><time>2026-05-03T06:54:08.316Z</time></trkpt><trkpt lat="43.8364318" lon="10.4948744"><ele>16.0</ele><time>2026-05-03T06:54:09.317Z</time></trkpt><trkpt lat="43.8365306" lon="10.4948919"><ele>16.0</ele><time>2026-05-03T06:54:10.305Z</time></trkpt><trkpt lat="43.8366381" lon="10.4949171"><ele>16.0</ele><time>2026-05-03T06:54:11.309Z</time></trkpt><trkpt lat="43.8367447" lon="10.4949488"><ele>16.0</ele><time>2026-05-03T06:54:12.309Z</time></trkpt><trkpt lat="43.8368489" lon="10.4949704"><ele>16.0</ele><time>2026-05-03T06:54:13.309Z</time></trkpt><trkpt lat="43.8369493" lon="10.4949972"><ele>16.0</ele><time>2026-05-03T06:54:14.31Z</time></trkpt><trkpt lat="43.8370529" lon="10.4950099"><ele>16.0</ele><time>2026-05-03T06:54:15.311Z</time></trkpt><trkpt lat="43.8371581" lon="10.4950144"><ele>16.0</ele><time>2026-05-03T06:54:16.301Z</time></trkpt><trkpt lat="43.8372595" lon="10.4950167"><ele>16.0</ele><time>2026-05-03T06:54:17.308Z</time></trkpt><trkpt lat="43.8373677" lon="10.4950239"><ele>16.0</ele><time>2026-05-03T06:54:18.309Z</time></trkpt><trkpt lat="43.837468" lon="10.4950339"><ele>16.0</ele><time>2026-05-03T06:54:19.313Z</time></trkpt><trkpt lat="43.8375697" lon="10.4950533"><ele>16.0</ele><time>2026-05-03T06:54:20.317Z</time></trkpt><trkpt lat="43.8376656" lon="10.4950573"><ele>16.0</ele><time>2026-05-03T06:54:21.311Z</time></trkpt><trkpt lat="43.8377741" lon="10.4950769"><ele>16.0</ele><time>2026-05-03T06:54:22.311Z</time></trkpt><trkpt lat="43.8378855" lon="10.4950931"><ele>16.0</ele><time>2026-05-03T06:54:23.31Z</time></trkpt><trkpt lat="43.8379957" lon="10.4951101"><ele>16.0</ele><time>2026-05-03T06:54:24.314Z</time></trkpt><trkpt lat="43.8380925" lon="10.49512"><ele>16.0</ele><time>2026-05-03T06:54:25.315Z</time></trkpt><trkpt lat="43.8381935" lon="10.495129"><ele>16.0</ele><time>2026-05-03T06:54:26.312Z</time></trkpt><trkpt lat="43.8382905" lon="10.4951396"><ele>16.0</ele><time>2026-05-03T06:54:27.319Z</time></trkpt><trkpt lat="43.8383943" lon="10.4951543"><ele>16.0</ele><time>2026-05-03T06:54:28.316Z</time></trkpt><trkpt lat="43.8384924" lon="10.4951714"><ele>15.999999999999998</ele><time>2026-05-03T06:54:29.321Z</time></trkpt><trkpt lat="43.8385902" lon="10.4951837"><ele>16.0</ele><time>2026-05-03T06:54:30.32Z</time></trkpt><trkpt lat="43.8386779" lon="10.4951894"><ele>16.0</ele><time>2026-05-03T06:54:31.322Z</time></trkpt><trkpt lat="43.8387577" lon="10.4952014"><ele>16.0</ele><time>2026-05-03T06:54:32.316Z</time></trkpt><trkpt lat="43.8388361" lon="10.4952305"><ele>15.999999999999998</ele><time>2026-05-03T06:54:33.315Z</time></trkpt><trkpt lat="43.8389046" lon="10.4952332"><ele>16.0</ele><time>2026-05-03T06:54:34.315Z</time></trkpt><trkpt lat="43.8389696" lon="10.4952389"><ele>16.0</ele><time>2026-05-03T06:54:35.321Z</time></trkpt><trkpt lat="43.8390582" lon="10.4952395"><ele>16.0</ele><time>2026-05-03T06:54:36.312Z</time></trkpt><trkpt lat="43.839163" lon="10.4952342"><ele>16.0</ele><time>2026-05-03T06:54:37.313Z</time></trkpt><trkpt lat="43.8392756" lon="10.4952281"><ele>16.0</ele><time>2026-05-03T06:54:38.323Z</time></trkpt><trkpt lat="43.8393739" lon="10.4952269"><ele>16.0</ele><time>2026-05-03T06:54:39.319Z</time></trkpt><trkpt lat="43.8394599" lon="10.4952307"><ele>16.166666666666664</ele><time>2026-05-03T06:54:40.318Z</time></trkpt><trkpt lat="43.8395276" lon="10.4952349"><ele>16.333333333333332</ele><time>2026-05-03T06:54:41.311Z</time></trkpt><trkpt lat="43.8396243" lon="10.4952753"><ele>16.5</ele><time>2026-05-03T06:54:43.311Z</time></trkpt><trkpt lat="43.839699" lon="10.4953531"><ele>16.666666666666668</ele><time>2026-05-03T06:54:45.314Z</time></trkpt><trkpt lat="43.8397838" lon="10.495393"><ele>16.833333333333336</ele><time>2026-05-03T06:54:47.315Z</time></trkpt><trkpt lat="43.8398616" lon="10.4953798"><ele>17.0</ele><time>2026-05-03T06:54:49.322Z</time></trkpt><trkpt lat="43.8399275" lon="10.4953447"><ele>17.0</ele><time>2026-05-03T06:54:52.318Z</time></trkpt><trkpt lat="43.8399469" lon="10.4952338"><ele>17.0</ele><time>2026-05-03T06:54:56.321Z</time></trkpt><trkpt lat="43.8398984" lon="10.4951468"><ele>17.0</ele><time>2026-05-03T06:54:58.313Z</time></trkpt><trkpt lat="43.8398398" lon="10.4949961"><ele>17.0</ele><time>2026-05-03T06:55:00.315Z</time></trkpt><trkpt lat="43.8398298" lon="10.4948971"><ele>17.0</ele><time>2026-05-03T06:55:01.318Z</time></trkpt><trkpt lat="43.8398339" lon="10.4947548"><ele>17.0</ele><time>2026-05-03T06:55:02.316Z</time></trkpt><trkpt lat="43.8398709" lon="10.4945976"><ele>17.0</ele><time>2026-05-03T06:55:03.312Z</time></trkpt><trkpt lat="43.8399232" lon="10.4944424"><ele>17.0</ele><time>2026-05-03T06:55:04.308Z</time></trkpt><trkpt lat="43.8399749" lon="10.4942974"><ele>17.0</ele><time>2026-05-03T06:55:05.318Z</time></trkpt><trkpt lat="43.8400259" lon="10.4941595"><ele>17.0</ele><time>2026-05-03T06:55:06.315Z</time></trkpt><trkpt lat="43.8400718" lon="10.494039"><ele>17.0</ele><time>2026-05-03T06:55:07.307Z</time></trkpt><trkpt lat="43.8401161" lon="10.4939209"><ele>17.0</ele><time>2026-05-03T06:55:08.313Z</time></trkpt><trkpt lat="43.8401658" lon="10.4938255"><ele>17.0</ele><time>2026-05-03T06:55:09.313Z</time></trkpt><trkpt lat="43.8402094" lon="10.4937402"><ele>17.0</ele><time>2026-05-03T06:55:10.313Z</time></trkpt><trkpt lat="43.8402354" lon="10.493652"><ele>17.0</ele><time>2026-05-03T06:55:11.318Z</time></trkpt><trkpt lat="43.8402746" lon="10.493573"><ele>17.0</ele><time>2026-05-03T06:55:12.318Z</time></trkpt><trkpt lat="43.840318" lon="10.4935071"><ele>17.0</ele><time>2026-05-03T06:55:13.31Z</time></trkpt><trkpt lat="43.8403591" lon="10.4934077"><ele>17.0</ele><time>2026-05-03T06:55:15.314Z</time></trkpt><trkpt lat="43.8404055" lon="10.4932868"><ele>17.0</ele><time>2026-05-03T06:55:28.313Z</time></trkpt><trkpt lat="43.840443" lon="10.4932049"><ele>17.0</ele><time>2026-05-03T06:55:29.309Z</time></trkpt><trkpt lat="43.8405235" lon="10.4930873"><ele>17.0</ele><time>2026-05-03T06:55:30.312Z</time></trkpt><trkpt lat="43.8406005" lon="10.4929474"><ele>16.75</ele><time>2026-05-03T06:55:31.319Z</time></trkpt><trkpt lat="43.8406718" lon="10.4927704"><ele>16.5</ele><time>2026-05-03T06:55:32.316Z</time></trkpt><trkpt lat="43.8407388" lon="10.4925802"><ele>16.25</ele><time>2026-05-03T06:55:33.327Z</time></trkpt><trkpt lat="43.840819" lon="10.4924166"><ele>16.0</ele><time>2026-05-03T06:55:34.32Z</time></trkpt><trkpt lat="43.8408906" lon="10.4922751"><ele>15.999999999999998</ele><time>2026-05-03T06:55:35.313Z</time></trkpt><trkpt lat="43.8409458" lon="10.492166"><ele>16.0</ele><time>2026-05-03T06:55:36.313Z</time></trkpt><trkpt lat="43.8410004" lon="10.4920933"><ele>16.0</ele><time>2026-05-03T06:55:37.317Z</time></trkpt><trkpt lat="43.8410662" lon="10.492063"><ele>16.0</ele><time>2026-05-03T06:55:38.31Z</time></trkpt><trkpt lat="43.8411305" lon="10.4920519"><ele>15.999999999999998</ele><time>2026-05-03T06:55:39.306Z</time></trkpt><trkpt lat="43.8412109" lon="10.4920389"><ele>16.0</ele><time>2026-05-03T06:55:40.31Z</time></trkpt><trkpt lat="43.841304" lon="10.4920149"><ele>15.999999999999998</ele><time>2026-05-03T06:55:41.313Z</time></trkpt><trkpt lat="43.841392" lon="10.4919738"><ele>16.0</ele><time>2026-05-03T06:55:42.314Z</time></trkpt><trkpt lat="43.8414842" lon="10.4919524"><ele>16.0</ele><time>2026-05-03T06:55:43.318Z</time></trkpt><trkpt lat="43.8415523" lon="10.4918928"><ele>16.0</ele><time>2026-05-03T06:55:44.317Z</time></trkpt><trkpt lat="43.8416175" lon="10.4918489"><ele>15.999999999999998</ele><time>2026-05-03T06:55:45.32Z</time></trkpt><trkpt lat="43.8416862" lon="10.4918418"><ele>16.0</ele><time>2026-05-03T06:55:46.309Z</time></trkpt><trkpt lat="43.8417596" lon="10.491842"><ele>16.2</ele><time>2026-05-03T06:55:47.306Z</time></trkpt><trkpt lat="43.8418351" lon="10.4918712"><ele>16.400000000000002</ele><time>2026-05-03T06:55:48.308Z</time></trkpt><trkpt lat="43.8419153" lon="10.4919252"><ele>16.6</ele><time>2026-05-03T06:55:49.314Z</time></trkpt><trkpt lat="43.8420305" lon="10.4919666"><ele>16.8</ele><time>2026-05-03T06:55:50.311Z</time></trkpt><trkpt lat="43.8421457" lon="10.4920216"><ele>17.0</ele><time>2026-05-03T06:55:51.308Z</time></trkpt><trkpt lat="43.8422578" lon="10.4920688"><ele>16.8</ele><time>2026-05-03T06:55:52.31Z</time></trkpt><trkpt lat="43.8423639" lon="10.4921282"><ele>16.6</ele><time>2026-05-03T06:55:53.308Z</time></trkpt><trkpt lat="43.8424837" lon="10.4921794"><ele>16.400000000000002</ele><time>2026-05-03T06:55:54.311Z</time></trkpt><trkpt lat="43.8425931" lon="10.4922194"><ele>16.2</ele><time>2026-05-03T06:55:55.308Z</time></trkpt><trkpt lat="43.8426843" lon="10.4922415"><ele>16.0</ele><time>2026-05-03T06:55:56.301Z</time></trkpt><trkpt lat="43.8427561" lon="10.4922759"><ele>16.0</ele><time>2026-05-03T06:55:57.301Z</time></trkpt><trkpt lat="43.842867" lon="10.4923254"><ele>16.0</ele><time>2026-05-03T06:55:59.302Z</time></trkpt><trkpt lat="43.8428905" lon="10.4924476"><ele>16.0</ele><time>2026-05-03T06:56:01.306Z</time></trkpt><trkpt lat="43.8428683" lon="10.4925416"><ele>16.0</ele><time>2026-05-03T06:56:02.306Z</time></trkpt><trkpt lat="43.8428283" lon="10.4926827"><ele>16.0</ele><time>2026-05-03T06:56:03.311Z</time></trkpt><trkpt lat="43.8427894" lon="10.4928152"><ele>15.8</ele><time>2026-05-03T06:56:04.313Z</time></trkpt><trkpt lat="43.842744" lon="10.4929355"><ele>15.600000000000001</ele><time>2026-05-03T06:56:05.302Z</time></trkpt><trkpt lat="43.8427037" lon="10.4930597"><ele>15.4</ele><time>2026-05-03T06:56:06.299Z</time></trkpt><trkpt lat="43.8426653" lon="10.4931977"><ele>15.2</ele><time>2026-05-03T06:56:07.307Z</time></trkpt><trkpt lat="43.8426222" lon="10.493328"><ele>15.0</ele><time>2026-05-03T06:56:08.312Z</time></trkpt><trkpt lat="43.842571" lon="10.493474"><ele>15.0</ele><time>2026-05-03T06:56:09.304Z</time></trkpt><trkpt lat="43.8425473" lon="10.4936248"><ele>15.0</ele><time>2026-05-03T06:56:10.306Z</time></trkpt><trkpt lat="43.8425137" lon="10.4937656"><ele>15.0</ele><time>2026-05-03T06:56:11.306Z</time></trkpt><trkpt lat="43.8424848" lon="10.4938715"><ele>15.0</ele><time>2026-05-03T06:56:12.299Z</time></trkpt><trkpt lat="43.8424537" lon="10.4939656"><ele>15.0</ele><time>2026-05-03T06:56:13.3Z</time></trkpt><trkpt lat="43.8424345" lon="10.4940516"><ele>15.0</ele><time>2026-05-03T06:56:14.3Z</time></trkpt><trkpt lat="43.8424004" lon="10.4941357"><ele>15.25</ele><time>2026-05-03T06:56:16.3Z</time></trkpt><trkpt lat="43.8423256" lon="10.4941634"><ele>15.5</ele><time>2026-05-03T06:56:28.312Z</time></trkpt><trkpt lat="43.8421225" lon="10.4942645"><ele>15.75</ele><time>2026-05-03T06:56:31.308Z</time></trkpt><trkpt lat="43.8420306" lon="10.4942799"><ele>16.0</ele><time>2026-05-03T06:56:32.307Z</time></trkpt><trkpt lat="43.8419658" lon="10.4942433"><ele>16.0</ele><time>2026-05-03T06:56:33.303Z</time></trkpt><trkpt lat="43.8418627" lon="10.4939913"><ele>16.0</ele><time>2026-05-03T06:56:35.3Z</time></trkpt><trkpt lat="43.8418108" lon="10.4938128"><ele>16.0</ele><time>2026-05-03T06:56:36.298Z</time></trkpt><trkpt lat="43.8417584" lon="10.4936312"><ele>16.5</ele><time>2026-05-03T06:56:37.295Z</time></trkpt><trkpt lat="43.8417168" lon="10.4934448"><ele>17.0</ele><time>2026-05-03T06:56:38.295Z</time></trkpt><trkpt lat="43.8416662" lon="10.4932779"><ele>17.5</ele><time>2026-05-03T06:56:39.3Z</time></trkpt><trkpt lat="43.841635" lon="10.4931369"><ele>18.0</ele><time>2026-05-03T06:56:40.294Z</time></trkpt><trkpt lat="43.8416" lon="10.4929971"><ele>17.6</ele><time>2026-05-03T06:56:41.294Z</time></trkpt><trkpt lat="43.8415727" lon="10.4928674"><ele>17.200000000000003</ele><time>2026-05-03T06:56:42.303Z</time></trkpt><trkpt lat="43.8415493" lon="10.492745"><ele>16.8</ele><time>2026-05-03T06:56:43.302Z</time></trkpt><trkpt lat="43.8415319" lon="10.492633"><ele>16.400000000000002</ele><time>2026-05-03T06:56:44.305Z</time></trkpt><trkpt lat="43.8415058" lon="10.4925185"><ele>16.0</ele><time>2026-05-03T06:56:45.307Z</time></trkpt><trkpt lat="43.8414733" lon="10.492399"><ele>15.999999999999998</ele><time>2026-05-03T06:56:46.308Z</time></trkpt><trkpt lat="43.8414456" lon="10.492289"><ele>16.0</ele><time>2026-05-03T06:56:47.309Z</time></trkpt><trkpt lat="43.8414443" lon="10.4921778"><ele>16.0</ele><time>2026-05-03T06:56:48.309Z</time></trkpt><trkpt lat="43.841461" lon="10.4920728"><ele>16.0</ele><time>2026-05-03T06:56:49.307Z</time></trkpt><trkpt lat="43.8414711" lon="10.4919626"><ele>15.999999999999998</ele><time>2026-05-03T06:56:50.312Z</time></trkpt><trkpt lat="43.8415064" lon="10.4918628"><ele>16.0</ele><time>2026-05-03T06:56:51.317Z</time></trkpt><trkpt lat="43.8415609" lon="10.4917716"><ele>15.999999999999998</ele><time>2026-05-03T06:56:52.31Z</time></trkpt><trkpt lat="43.8416114" lon="10.4917133"><ele>16.0</ele><time>2026-05-03T06:56:53.308Z</time></trkpt><trkpt lat="43.8416714" lon="10.491682"><ele>16.0</ele><time>2026-05-03T06:56:54.31Z</time></trkpt><trkpt lat="43.8417517" lon="10.4916871"><ele>16.0</ele><time>2026-05-03T06:56:55.305Z</time></trkpt><trkpt lat="43.8418244" lon="10.4917337"><ele>15.999999999999998</ele><time>2026-05-03T06:56:56.308Z</time></trkpt><trkpt lat="43.8419157" lon="10.491796"><ele>16.0</ele><time>2026-05-03T06:56:57.314Z</time></trkpt><trkpt lat="43.8420082" lon="10.4918564"><ele>16.0</ele><time>2026-05-03T06:56:58.308Z</time></trkpt><trkpt lat="43.842096" lon="10.4918985"><ele>16.0</ele><time>2026-05-03T06:56:59.314Z</time></trkpt><trkpt lat="43.8422031" lon="10.4919633"><ele>16.0</ele><time>2026-05-03T06:57:00.308Z</time></trkpt><trkpt lat="43.8423069" lon="10.4920164"><ele>16.0</ele><time>2026-05-03T06:57:01.31Z</time></trkpt><trkpt lat="43.8424126" lon="10.4920769"><ele>16.0</ele><time>2026-05-03T06:57:02.312Z</time></trkpt><trkpt lat="43.8425023" lon="10.4921214"><ele>15.999999999999998</ele><time>2026-05-03T06:57:03.314Z</time></trkpt><trkpt lat="43.8425864" lon="10.4921614"><ele>16.0</ele><time>2026-05-03T06:57:04.31Z</time></trkpt><trkpt lat="43.8426504" lon="10.4921927"><ele>16.0</ele><time>2026-05-03T06:57:05.306Z</time></trkpt><trkpt lat="43.8427397" lon="10.4922233"><ele>16.0</ele><time>2026-05-03T06:57:07.303Z</time></trkpt><trkpt lat="43.8428041" lon="10.4922109"><ele>15.999999999999998</ele><time>2026-05-03T06:57:10.316Z</time></trkpt><trkpt lat="43.8428648" lon="10.4920721"><ele>16.0</ele><time>2026-05-03T06:57:12.303Z</time></trkpt><trkpt lat="43.8428977" lon="10.4919251"><ele>16.2</ele><time>2026-05-03T06:57:13.316Z</time></trkpt><trkpt lat="43.8429361" lon="10.4917754"><ele>16.400000000000002</ele><time>2026-05-03T06:57:14.32Z</time></trkpt><trkpt lat="43.842987" lon="10.4916349"><ele>16.6</ele><time>2026-05-03T06:57:15.318Z</time></trkpt><trkpt lat="43.8430185" lon="10.4915228"><ele>16.8</ele><time>2026-05-03T06:57:16.324Z</time></trkpt><trkpt lat="43.843055" lon="10.4914296"><ele>17.0</ele><time>2026-05-03T06:57:17.323Z</time></trkpt><trkpt lat="43.84308" lon="10.491344"><ele>17.0</ele><time>2026-05-03T06:57:18.314Z</time></trkpt><trkpt lat="43.8431486" lon="10.491288"><ele>17.0</ele><time>2026-05-03T06:57:21.315Z</time></trkpt><trkpt lat="43.8432403" lon="10.491282"><ele>17.0</ele><time>2026-05-03T06:57:23.325Z</time></trkpt><trkpt lat="43.8433409" lon="10.4912824"><ele>17.0</ele><time>2026-05-03T06:57:25.317Z</time></trkpt><trkpt lat="43.8434425" lon="10.4912534"><ele>17.0</ele><time>2026-05-03T06:57:27.314Z</time></trkpt><trkpt lat="43.8435257" lon="10.4912151"><ele>17.0</ele><time>2026-05-03T06:57:29.31Z</time></trkpt><trkpt lat="43.8436054" lon="10.4911846"><ele>17.0</ele><time>2026-05-03T06:57:31.314Z</time></trkpt><trkpt lat="43.8437106" lon="10.491239"><ele>17.0</ele><time>2026-05-03T06:57:36.313Z</time></trkpt><trkpt lat="43.8437824" lon="10.49133"><ele>17.0</ele><time>2026-05-03T06:57:38.299Z</time></trkpt><trkpt lat="43.8438426" lon="10.4915165"><ele>17.0</ele><time>2026-05-03T06:57:40.294Z</time></trkpt><trkpt lat="43.8438667" lon="10.4916466"><ele>17.0</ele><time>2026-05-03T06:57:41.302Z</time></trkpt><trkpt lat="43.8438974" lon="10.491772"><ele>17.0</ele><time>2026-05-03T06:57:42.296Z</time></trkpt><trkpt lat="43.8439473" lon="10.491903"><ele>17.0</ele><time>2026-05-03T06:57:43.304Z</time></trkpt><trkpt lat="43.8440004" lon="10.4920463"><ele>17.0</ele><time>2026-05-03T06:57:44.3Z</time></trkpt><trkpt lat="43.8440512" lon="10.4921761"><ele>17.0</ele><time>2026-05-03T06:57:45.306Z</time></trkpt><trkpt lat="43.8440896" lon="10.4922986"><ele>17.0</ele><time>2026-05-03T06:57:46.303Z</time></trkpt><trkpt lat="43.8441149" lon="10.492405"><ele>17.0</ele><time>2026-05-03T06:57:47.303Z</time></trkpt><trkpt lat="43.8441525" lon="10.4925191"><ele>17.0</ele><time>2026-05-03T06:57:48.303Z</time></trkpt><trkpt lat="43.8441825" lon="10.4926099"><ele>17.0</ele><time>2026-05-03T06:57:49.298Z</time></trkpt><trkpt lat="43.8442207" lon="10.4926902"><ele>17.0</ele><time>2026-05-03T06:57:50.298Z</time></trkpt><trkpt lat="43.844256" lon="10.4927647"><ele>17.0</ele><time>2026-05-03T06:57:51.304Z</time></trkpt><trkpt lat="43.8443216" lon="10.4929031"><ele>17.2</ele><time>2026-05-03T06:57:53.307Z</time></trkpt><trkpt lat="43.8443706" lon="10.4929678"><ele>17.4</ele><time>2026-05-03T06:57:54.306Z</time></trkpt><trkpt lat="43.844418" lon="10.4930311"><ele>17.6</ele><time>2026-05-03T06:57:55.309Z</time></trkpt><trkpt lat="43.8445571" lon="10.4931246"><ele>17.8</ele><time>2026-05-03T06:57:57.311Z</time></trkpt><trkpt lat="43.8446619" lon="10.4931774"><ele>18.0</ele><time>2026-05-03T06:57:58.303Z</time></trkpt><trkpt lat="43.8447412" lon="10.4932203"><ele>18.0</ele><time>2026-05-03T06:57:59.306Z</time></trkpt><trkpt lat="43.8448239" lon="10.4932747"><ele>18.0</ele><time>2026-05-03T06:58:00.305Z</time></trkpt><trkpt lat="43.8449078" lon="10.4933171"><ele>18.0</ele><time>2026-05-03T06:58:01.307Z</time></trkpt><trkpt lat="43.8449867" lon="10.4933651"><ele>18.0</ele><time>2026-05-03T06:58:02.313Z</time></trkpt><trkpt lat="43.8450529" lon="10.493379"><ele>18.0</ele><time>2026-05-03T06:58:03.309Z</time></trkpt><trkpt lat="43.8451293" lon="10.4933956"><ele>18.0</ele><time>2026-05-03T06:58:04.31Z</time></trkpt><trkpt lat="43.8452047" lon="10.4934127"><ele>17.5</ele><time>2026-05-03T06:58:05.314Z</time></trkpt><trkpt lat="43.8452718" lon="10.4934325"><ele>17.0</ele><time>2026-05-03T06:58:06.31Z</time></trkpt><trkpt lat="43.8453354" lon="10.49345"><ele>16.5</ele><time>2026-05-03T06:58:07.316Z</time></trkpt><trkpt lat="43.8454375" lon="10.493471"><ele>16.0</ele><time>2026-05-03T06:58:09.303Z</time></trkpt><trkpt lat="43.8455239" lon="10.493472"><ele>15.5</ele><time>2026-05-03T06:58:12.313Z</time></trkpt><trkpt lat="43.8456103" lon="10.4935172"><ele>15.0</ele><time>2026-05-03T06:58:16.309Z</time></trkpt><trkpt lat="43.8455901" lon="10.4936159"><ele>15.0</ele><time>2026-05-03T06:58:18.299Z</time></trkpt><trkpt lat="43.8455972" lon="10.4937334"><ele>15.0</ele><time>2026-05-03T06:58:20.302Z</time></trkpt><trkpt lat="43.8455691" lon="10.4938488"><ele>15.0</ele><time>2026-05-03T06:58:27.301Z</time></trkpt><trkpt lat="43.8455276" lon="10.4939476"><ele>15.0</ele><time>2026-05-03T06:58:28.305Z</time></trkpt><trkpt lat="43.8454936" lon="10.4940429"><ele>15.0</ele><time>2026-05-03T06:58:29.301Z</time></trkpt><trkpt lat="43.8454485" lon="10.4941661"><ele>15.0</ele><time>2026-05-03T06:58:30.301Z</time></trkpt><trkpt lat="43.8453994" lon="10.494265"><ele>15.142857142857142</ele><time>2026-05-03T06:58:31.301Z</time></trkpt><trkpt lat="43.8453553" lon="10.4943516"><ele>15.285714285714285</ele><time>2026-05-03T06:58:32.297Z</time></trkpt><trkpt lat="43.8453136" lon="10.4944272"><ele>15.428571428571427</ele><time>2026-05-03T06:58:33.298Z</time></trkpt><trkpt lat="43.8452632" lon="10.4944914"><ele>15.571428571428571</ele><time>2026-05-03T06:58:34.295Z</time></trkpt><trkpt lat="43.8452132" lon="10.4945506"><ele>15.714285714285712</ele><time>2026-05-03T06:58:35.305Z</time></trkpt><trkpt lat="43.8451621" lon="10.4946194"><ele>15.857142857142856</ele><time>2026-05-03T06:58:36.3Z</time></trkpt><trkpt lat="43.8451018" lon="10.4946804"><ele>16.0</ele><time>2026-05-03T06:58:37.3Z</time></trkpt><trkpt lat="43.8450486" lon="10.4947689"><ele>16.166666666666664</ele><time>2026-05-03T06:58:38.299Z</time></trkpt><trkpt lat="43.8450046" lon="10.494849"><ele>16.333333333333332</ele><time>2026-05-03T06:58:39.298Z</time></trkpt><trkpt lat="43.8449224" lon="10.494929"><ele>16.5</ele><time>2026-05-03T06:58:41.295Z</time></trkpt><trkpt lat="43.8448708" lon="10.4950279"><ele>16.666666666666668</ele><time>2026-05-03T06:58:43.301Z</time></trkpt><trkpt lat="43.8448779" lon="10.495145"><ele>16.833333333333336</ele><time>2026-05-03T06:58:45.304Z</time></trkpt><trkpt lat="43.8449425" lon="10.4952266"><ele>17.0</ele><time>2026-05-03T06:58:47.301Z</time></trkpt><trkpt lat="43.8450721" lon="10.4952824"><ele>17.0</ele><time>2026-05-03T06:58:49.298Z</time></trkpt><trkpt lat="43.8451617" lon="10.4952987"><ele>17.0</ele><time>2026-05-03T06:58:50.301Z</time></trkpt><trkpt lat="43.8452649" lon="10.4953187"><ele>17.0</ele><time>2026-05-03T06:58:51.301Z</time></trkpt><trkpt lat="43.8453693" lon="10.4953259"><ele>17.0</ele><time>2026-05-03T06:58:52.3Z</time></trkpt><trkpt lat="43.8454862" lon="10.4953607"><ele>17.0</ele><time>2026-05-03T06:58:53.297Z</time></trkpt><trkpt lat="43.8456" lon="10.4954029"><ele>17.0</ele><time>2026-05-03T06:58:54.298Z</time></trkpt><trkpt lat="43.8457243" lon="10.4954438"><ele>17.0</ele><time>2026-05-03T06:58:55.3Z</time></trkpt><trkpt lat="43.8458838" lon="10.4955015"><ele>17.0</ele><time>2026-05-03T06:58:56.298Z</time></trkpt><trkpt lat="43.8460558" lon="10.4955589"><ele>17.333333333333336</ele><time>2026-05-03T06:58:57.299Z</time></trkpt><trkpt lat="43.8462159" lon="10.4955995"><ele>17.666666666666668</ele><time>2026-05-03T06:58:58.294Z</time></trkpt><trkpt lat="43.846367" lon="10.4956508"><ele>18.0</ele><time>2026-05-03T06:58:59.292Z</time></trkpt><trkpt lat="43.8465125" lon="10.4957163"><ele>18.0</ele><time>2026-05-03T06:59:00.292Z</time></trkpt><trkpt lat="43.8466738" lon="10.4957757"><ele>18.0</ele><time>2026-05-03T06:59:01.291Z</time></trkpt><trkpt lat="43.8468477" lon="10.4958514"><ele>18.0</ele><time>2026-05-03T06:59:02.294Z</time></trkpt><trkpt lat="43.8470069" lon="10.4959118"><ele>18.0</ele><time>2026-05-03T06:59:03.291Z</time></trkpt><trkpt lat="43.8471386" lon="10.4959453"><ele>18.0</ele><time>2026-05-03T06:59:04.29Z</time></trkpt><trkpt lat="43.847279" lon="10.4959805"><ele>18.0</ele><time>2026-05-03T06:59:05.288Z</time></trkpt><trkpt lat="43.8473858" lon="10.4960142"><ele>18.0</ele><time>2026-05-03T06:59:06.299Z</time></trkpt><trkpt lat="43.8475586" lon="10.4961225"><ele>18.0</ele><time>2026-05-03T06:59:07.296Z</time></trkpt><trkpt lat="43.8476602" lon="10.4962705"><ele>18.0</ele><time>2026-05-03T06:59:08.288Z</time></trkpt><trkpt lat="43.8477623" lon="10.4964364"><ele>18.0</ele><time>2026-05-03T06:59:09.292Z</time></trkpt><trkpt lat="43.8478466" lon="10.4966391"><ele>18.0</ele><time>2026-05-03T06:59:10.289Z</time></trkpt><trkpt lat="43.847887" lon="10.4968295"><ele>18.0</ele><time>2026-05-03T06:59:11.29Z</time></trkpt><trkpt lat="43.8479111" lon="10.4970058"><ele>18.0</ele><time>2026-05-03T06:59:12.284Z</time></trkpt><trkpt lat="43.8479117" lon="10.4971995"><ele>18.0</ele><time>2026-05-03T06:59:13.285Z</time></trkpt><trkpt lat="43.8479389" lon="10.4974303"><ele>18.0</ele><time>2026-05-03T06:59:14.274Z</time></trkpt><trkpt lat="43.847955" lon="10.4976917"><ele>18.0</ele><time>2026-05-03T06:59:15.255Z</time></trkpt><trkpt lat="43.8480017" lon="10.4979239"><ele>18.0</ele><time>2026-05-03T06:59:16.255Z</time></trkpt><trkpt lat="43.8480404" lon="10.4981401"><ele>18.0</ele><time>2026-05-03T06:59:17.258Z</time></trkpt><trkpt lat="43.8480768" lon="10.4983448"><ele>18.0</ele><time>2026-05-03T06:59:18.256Z</time></trkpt><trkpt lat="43.8481142" lon="10.4985482"><ele>18.0</ele><time>2026-05-03T06:59:19.249Z</time></trkpt><trkpt lat="43.8481507" lon="10.4987532"><ele>18.0</ele><time>2026-05-03T06:59:20.252Z</time></trkpt><trkpt lat="43.8481804" lon="10.4989523"><ele>18.0</ele><time>2026-05-03T06:59:21.259Z</time></trkpt><trkpt lat="43.8482125" lon="10.4991485"><ele>18.0</ele><time>2026-05-03T06:59:22.255Z</time></trkpt><trkpt lat="43.8482413" lon="10.499341"><ele>18.0</ele><time>2026-05-03T06:59:23.255Z</time></trkpt><trkpt lat="43.8482693" lon="10.4995369"><ele>18.25</ele><time>2026-05-03T06:59:24.249Z</time></trkpt><trkpt lat="43.848299" lon="10.499736"><ele>18.5</ele><time>2026-05-03T06:59:25.257Z</time></trkpt><trkpt lat="43.8483276" lon="10.4999358"><ele>18.75</ele><time>2026-05-03T06:59:26.255Z</time></trkpt><trkpt lat="43.8483576" lon="10.5001344"><ele>19.0</ele><time>2026-05-03T06:59:27.251Z</time></trkpt><trkpt lat="43.8483858" lon="10.5003275"><ele>19.0</ele><time>2026-05-03T06:59:28.258Z</time></trkpt><trkpt lat="43.8484162" lon="10.5005271"><ele>19.0</ele><time>2026-05-03T06:59:29.241Z</time></trkpt><trkpt lat="43.848445" lon="10.5007228"><ele>19.0</ele><time>2026-05-03T06:59:30.263Z</time></trkpt><trkpt lat="43.8484751" lon="10.5009233"><ele>19.0</ele><time>2026-05-03T06:59:31.247Z</time></trkpt><trkpt lat="43.8485039" lon="10.501119"><ele>19.0</ele><time>2026-05-03T06:59:32.261Z</time></trkpt><trkpt lat="43.8485384" lon="10.5013133"><ele>19.0</ele><time>2026-05-03T06:59:33.256Z</time></trkpt><trkpt lat="43.8485741" lon="10.501516"><ele>19.0</ele><time>2026-05-03T06:59:34.261Z</time></trkpt><trkpt lat="43.8486169" lon="10.5016966"><ele>19.0</ele><time>2026-05-03T06:59:35.274Z</time></trkpt><trkpt lat="43.8486657" lon="10.5018087"><ele>19.0</ele><time>2026-05-03T06:59:36.276Z</time></trkpt><trkpt lat="43.8487113" lon="10.5019812"><ele>19.0</ele><time>2026-05-03T06:59:37.268Z</time></trkpt><trkpt lat="43.8487708" lon="10.502156"><ele>19.0</ele><time>2026-05-03T06:59:38.255Z</time></trkpt><trkpt lat="43.8488425" lon="10.5023354"><ele>19.0</ele><time>2026-05-03T06:59:39.262Z</time></trkpt><trkpt lat="43.8489069" lon="10.5025276"><ele>19.0</ele><time>2026-05-03T06:59:40.261Z</time></trkpt><trkpt lat="43.8489678" lon="10.5027153"><ele>19.0</ele><time>2026-05-03T06:59:41.289Z</time></trkpt><trkpt lat="43.8490162" lon="10.502906"><ele>19.0</ele><time>2026-05-03T06:59:42.282Z</time></trkpt><trkpt lat="43.8490246" lon="10.5030273"><ele>19.0</ele><time>2026-05-03T06:59:44.29Z</time></trkpt><trkpt lat="43.849097" lon="10.503165"><ele>19.0</ele><time>2026-05-03T06:59:46.301Z</time></trkpt><trkpt lat="43.8491805" lon="10.5031796"><ele>19.0</ele><time>2026-05-03T06:59:47.293Z</time></trkpt><trkpt lat="43.8493185" lon="10.5032688"><ele>19.0</ele><time>2026-05-03T06:59:48.283Z</time></trkpt><trkpt lat="43.8494416" lon="10.5033232"><ele>19.0</ele><time>2026-05-03T06:59:49.275Z</time></trkpt><trkpt lat="43.8495833" lon="10.5033799"><ele>19.0</ele><time>2026-05-03T06:59:50.264Z</time></trkpt><trkpt lat="43.8497023" lon="10.5034229"><ele>19.0</ele><time>2026-05-03T06:59:51.275Z</time></trkpt><trkpt lat="43.8497956" lon="10.5034958"><ele>19.0</ele><time>2026-05-03T06:59:52.291Z</time></trkpt><trkpt lat="43.849893" lon="10.5034738"><ele>19.0</ele><time>2026-05-03T06:59:54.297Z</time></trkpt><trkpt lat="43.8499508" lon="10.5033244"><ele>19.0</ele><time>2026-05-03T06:59:56.314Z</time></trkpt><trkpt lat="43.850049" lon="10.5031645"><ele>19.0</ele><time>2026-05-03T06:59:57.29Z</time></trkpt><trkpt lat="43.8501291" lon="10.502991"><ele>19.0</ele><time>2026-05-03T06:59:58.287Z</time></trkpt><trkpt lat="43.8501902" lon="10.5028234"><ele>19.0</ele><time>2026-05-03T06:59:59.286Z</time></trkpt><trkpt lat="43.8502406" lon="10.5027064"><ele>18.599999999999998</ele><time>2026-05-03T07:00:00.296Z</time></trkpt><trkpt lat="43.8502851" lon="10.5025691"><ele>18.2</ele><time>2026-05-03T07:00:01.302Z</time></trkpt><trkpt lat="43.850328" lon="10.5024529"><ele>17.799999999999997</ele><time>2026-05-03T07:00:02.289Z</time></trkpt><trkpt lat="43.8503859" lon="10.5023768"><ele>17.4</ele><time>2026-05-03T07:00:03.291Z</time></trkpt><trkpt lat="43.850457" lon="10.5023201"><ele>17.0</ele><time>2026-05-03T07:00:04.291Z</time></trkpt><trkpt lat="43.8505898" lon="10.5023322"><ele>17.0</ele><time>2026-05-03T07:00:05.291Z</time></trkpt><trkpt lat="43.8507388" lon="10.5023853"><ele>17.0</ele><time>2026-05-03T07:00:06.304Z</time></trkpt><trkpt lat="43.8509517" lon="10.5024537"><ele>17.0</ele><time>2026-05-03T07:00:07.294Z</time></trkpt><trkpt lat="43.8511656" lon="10.502553"><ele>17.0</ele><time>2026-05-03T07:00:08.295Z</time></trkpt><trkpt lat="43.8513763" lon="10.5026439"><ele>17.0</ele><time>2026-05-03T07:00:09.292Z</time></trkpt><trkpt lat="43.8515797" lon="10.5027252"><ele>17.0</ele><time>2026-05-03T07:00:10.297Z</time></trkpt><trkpt lat="43.8517549" lon="10.5028446"><ele>17.333333333333336</ele><time>2026-05-03T07:00:11.293Z</time></trkpt><trkpt lat="43.8519129" lon="10.5029372"><ele>17.666666666666668</ele><time>2026-05-03T07:00:12.303Z</time></trkpt><trkpt lat="43.8520814" lon="10.5030561"><ele>18.0</ele><time>2026-05-03T07:00:13.292Z</time></trkpt><trkpt lat="43.8522795" lon="10.5031628"><ele>18.0</ele><time>2026-05-03T07:00:14.291Z</time></trkpt><trkpt lat="43.8524766" lon="10.5032649"><ele>18.0</ele><time>2026-05-03T07:00:15.287Z</time></trkpt><trkpt lat="43.8528683" lon="10.5034026"><ele>18.333333333333332</ele><time>2026-05-03T07:00:17.305Z</time></trkpt><trkpt lat="43.8530639" lon="10.5034923"><ele>18.666666666666664</ele><time>2026-05-03T07:00:18.29Z</time></trkpt><trkpt lat="43.8532445" lon="10.5035803"><ele>19.0</ele><time>2026-05-03T07:00:19.287Z</time></trkpt><trkpt lat="43.8533919" lon="10.5037011"><ele>19.75</ele><time>2026-05-03T07:00:20.294Z</time></trkpt><trkpt lat="43.8535041" lon="10.5038202"><ele>20.5</ele><time>2026-05-03T07:00:21.298Z</time></trkpt><trkpt lat="43.8535802" lon="10.5039424"><ele>21.25</ele><time>2026-05-03T07:00:22.309Z</time></trkpt><trkpt lat="43.8536501" lon="10.5040534"><ele>22.0</ele><time>2026-05-03T07:00:23.292Z</time></trkpt><trkpt lat="43.8537079" lon="10.5041686"><ele>22.0</ele><time>2026-05-03T07:00:24.297Z</time></trkpt><trkpt lat="43.8538054" lon="10.5043207"><ele>22.0</ele><time>2026-05-03T07:00:25.293Z</time></trkpt><trkpt lat="43.8538809" lon="10.5045045"><ele>22.0</ele><time>2026-05-03T07:00:26.287Z</time></trkpt><trkpt lat="43.853939" lon="10.5046832"><ele>22.0</ele><time>2026-05-03T07:00:27.304Z</time></trkpt><trkpt lat="43.8540273" lon="10.5048879"><ele>22.5</ele><time>2026-05-03T07:00:28.293Z</time></trkpt><trkpt lat="43.854126" lon="10.5050533"><ele>23.0</ele><time>2026-05-03T07:00:29.292Z</time></trkpt><trkpt lat="43.8541903" lon="10.5052104"><ele>23.5</ele><time>2026-05-03T07:00:30.288Z</time></trkpt><trkpt lat="43.8542738" lon="10.5053752"><ele>24.0</ele><time>2026-05-03T07:00:31.282Z</time></trkpt><trkpt lat="43.8543322" lon="10.5055667"><ele>24.0</ele><time>2026-05-03T07:00:32.294Z</time></trkpt><trkpt lat="43.8543487" lon="10.5057017"><ele>24.0</ele><time>2026-05-03T07:00:33.281Z</time></trkpt><trkpt lat="43.8544079" lon="10.5058454"><ele>24.0</ele><time>2026-05-03T07:00:34.28Z</time></trkpt><trkpt lat="43.8545007" lon="10.5060328"><ele>24.0</ele><time>2026-05-03T07:00:35.276Z</time></trkpt><trkpt lat="43.8546051" lon="10.5062799"><ele>23.25</ele><time>2026-05-03T07:00:36.279Z</time></trkpt><trkpt lat="43.8546708" lon="10.5064985"><ele>22.5</ele><time>2026-05-03T07:00:37.277Z</time></trkpt><trkpt lat="43.8547178" lon="10.5066764"><ele>21.75</ele><time>2026-05-03T07:00:38.265Z</time></trkpt><trkpt lat="43.8547521" lon="10.5068215"><ele>21.0</ele><time>2026-05-03T07:00:39.24Z</time></trkpt><trkpt lat="43.8550281" lon="10.5077956"><ele>21.0</ele><time>2026-05-03T07:00:46.298Z</time></trkpt><trkpt lat="43.8550563" lon="10.5078757"><ele>21.0</ele><time>2026-05-03T07:00:47.296Z</time></trkpt><trkpt lat="43.8551677" lon="10.5079364"><ele>21.0</ele><time>2026-05-03T07:00:49.296Z</time></trkpt><trkpt lat="43.8552442" lon="10.5079289"><ele>21.0</ele><time>2026-05-03T07:00:50.298Z</time></trkpt><trkpt lat="43.855337" lon="10.5079184"><ele>21.0</ele><time>2026-05-03T07:00:51.299Z</time></trkpt><trkpt lat="43.8554346" lon="10.5079056"><ele>22.0</ele><time>2026-05-03T07:00:52.298Z</time></trkpt><trkpt lat="43.8555524" lon="10.5078888"><ele>23.0</ele><time>2026-05-03T07:00:53.31Z</time></trkpt><trkpt lat="43.8556643" lon="10.5078623"><ele>24.0</ele><time>2026-05-03T07:00:54.289Z</time></trkpt><trkpt lat="43.8557802" lon="10.5078326"><ele>25.0</ele><time>2026-05-03T07:00:55.295Z</time></trkpt><trkpt lat="43.8558933" lon="10.5077977"><ele>24.75</ele><time>2026-05-03T07:00:56.296Z</time></trkpt><trkpt lat="43.8559876" lon="10.5077854"><ele>24.5</ele><time>2026-05-03T07:00:57.289Z</time></trkpt><trkpt lat="43.8561038" lon="10.5077707"><ele>24.25</ele><time>2026-05-03T07:00:58.301Z</time></trkpt><trkpt lat="43.8562273" lon="10.507765"><ele>24.0</ele><time>2026-05-03T07:00:59.287Z</time></trkpt><trkpt lat="43.8563498" lon="10.507762"><ele>24.0</ele><time>2026-05-03T07:01:00.29Z</time></trkpt><trkpt lat="43.8564628" lon="10.5077533"><ele>24.0</ele><time>2026-05-03T07:01:01.286Z</time></trkpt><trkpt lat="43.856576" lon="10.5077309"><ele>24.0</ele><time>2026-05-03T07:01:02.299Z</time></trkpt><trkpt lat="43.856697" lon="10.5076997"><ele>24.0</ele><time>2026-05-03T07:01:03.313Z</time></trkpt><trkpt lat="43.8568221" lon="10.5076542"><ele>23.0</ele><time>2026-05-03T07:01:04.296Z</time></trkpt><trkpt lat="43.8569192" lon="10.5075612"><ele>22.0</ele><time>2026-05-03T07:01:05.296Z</time></trkpt><trkpt lat="43.8569982" lon="10.5074535"><ele>21.0</ele><time>2026-05-03T07:01:06.297Z</time></trkpt><trkpt lat="43.8570866" lon="10.5073209"><ele>20.0</ele><time>2026-05-03T07:01:07.296Z</time></trkpt><trkpt lat="43.8571845" lon="10.5072162"><ele>20.0</ele><time>2026-05-03T07:01:08.312Z</time></trkpt><trkpt lat="43.8572804" lon="10.5070775"><ele>20.0</ele><time>2026-05-03T07:01:09.298Z</time></trkpt><trkpt lat="43.8573802" lon="10.5069319"><ele>20.0</ele><time>2026-05-03T07:01:10.3Z</time></trkpt><trkpt lat="43.8574824" lon="10.506795"><ele>20.0</ele><time>2026-05-03T07:01:11.297Z</time></trkpt><trkpt lat="43.8575704" lon="10.5066667"><ele>20.25</ele><time>2026-05-03T07:01:12.297Z</time></trkpt><trkpt lat="43.8576538" lon="10.5065283"><ele>20.5</ele><time>2026-05-03T07:01:13.314Z</time></trkpt><trkpt lat="43.8577417" lon="10.5063823"><ele>20.75</ele><time>2026-05-03T07:01:14.301Z</time></trkpt><trkpt lat="43.8577903" lon="10.5062088"><ele>21.0</ele><time>2026-05-03T07:01:15.299Z</time></trkpt><trkpt lat="43.8578541" lon="10.5060392"><ele>22.0</ele><time>2026-05-03T07:01:16.3Z</time></trkpt><trkpt lat="43.8579122" lon="10.5059333"><ele>23.0</ele><time>2026-05-03T07:01:17.303Z</time></trkpt><trkpt lat="43.8579601" lon="10.505849"><ele>24.0</ele><time>2026-05-03T07:01:18.318Z</time></trkpt><trkpt lat="43.8580511" lon="10.5058442"><ele>25.0</ele><time>2026-05-03T07:01:19.298Z</time></trkpt><trkpt lat="43.8581531" lon="10.5058279"><ele>26.0</ele><time>2026-05-03T07:01:20.298Z</time></trkpt><trkpt lat="43.8582637" lon="10.5059047"><ele>26.0</ele><time>2026-05-03T07:01:21.296Z</time></trkpt><trkpt lat="43.8583693" lon="10.5059143"><ele>26.0</ele><time>2026-05-03T07:01:22.292Z</time></trkpt><trkpt lat="43.8584652" lon="10.5059169"><ele>26.0</ele><time>2026-05-03T07:01:23.304Z</time></trkpt><trkpt lat="43.8585445" lon="10.5059329"><ele>26.0</ele><time>2026-05-03T07:01:24.294Z</time></trkpt><trkpt lat="43.8586389" lon="10.5059557"><ele>26.0</ele><time>2026-05-03T07:01:25.289Z</time></trkpt><trkpt lat="43.8587386" lon="10.5059907"><ele>26.0</ele><time>2026-05-03T07:01:26.298Z</time></trkpt><trkpt lat="43.8588392" lon="10.5060506"><ele>26.0</ele><time>2026-05-03T07:01:27.297Z</time></trkpt><trkpt lat="43.8589508" lon="10.5061377"><ele>26.0</ele><time>2026-05-03T07:01:28.312Z</time></trkpt><trkpt lat="43.8590553" lon="10.506232"><ele>26.0</ele><time>2026-05-03T07:01:29.286Z</time></trkpt><trkpt lat="43.8591748" lon="10.5063367"><ele>28.333333333333332</ele><time>2026-05-03T07:01:30.291Z</time></trkpt><trkpt lat="43.8593377" lon="10.5064473"><ele>30.666666666666664</ele><time>2026-05-03T07:01:31.299Z</time></trkpt><trkpt lat="43.8594644" lon="10.506594"><ele>33.0</ele><time>2026-05-03T07:01:32.302Z</time></trkpt><trkpt lat="43.8595883" lon="10.506742"><ele>33.0</ele><time>2026-05-03T07:01:33.31Z</time></trkpt><trkpt lat="43.8597162" lon="10.506836"><ele>33.0</ele><time>2026-05-03T07:01:34.299Z</time></trkpt><trkpt lat="43.8598545" lon="10.5069464"><ele>33.0</ele><time>2026-05-03T07:01:35.292Z</time></trkpt><trkpt lat="43.859968" lon="10.5070962"><ele>31.666666666666664</ele><time>2026-05-03T07:01:36.289Z</time></trkpt><trkpt lat="43.8600759" lon="10.5072479"><ele>30.333333333333332</ele><time>2026-05-03T07:01:37.287Z</time></trkpt><trkpt lat="43.8601969" lon="10.5073806"><ele>29.0</ele><time>2026-05-03T07:01:38.287Z</time></trkpt><trkpt lat="43.8603456" lon="10.507543"><ele>29.0</ele><time>2026-05-03T07:01:39.3Z</time></trkpt><trkpt lat="43.8604713" lon="10.5076647"><ele>29.0</ele><time>2026-05-03T07:01:40.287Z</time></trkpt><trkpt lat="43.8605917" lon="10.5077711"><ele>29.0</ele><time>2026-05-03T07:01:41.289Z</time></trkpt><trkpt lat="43.8606839" lon="10.507904"><ele>29.0</ele><time>2026-05-03T07:01:42.283Z</time></trkpt><trkpt lat="43.8608283" lon="10.5080457"><ele>29.0</ele><time>2026-05-03T07:01:43.283Z</time></trkpt><trkpt lat="43.8609832" lon="10.5081759"><ele>29.0</ele><time>2026-05-03T07:01:44.295Z</time></trkpt><trkpt lat="43.8611138" lon="10.5082646"><ele>29.0</ele><time>2026-05-03T07:01:45.294Z</time></trkpt><trkpt lat="43.8612699" lon="10.5083506"><ele>29.0</ele><time>2026-05-03T07:01:46.294Z</time></trkpt><trkpt lat="43.8614237" lon="10.5084618"><ele>29.0</ele><time>2026-05-03T07:01:47.295Z</time></trkpt><trkpt lat="43.8615522" lon="10.5085432"><ele>29.0</ele><time>2026-05-03T07:01:48.298Z</time></trkpt><trkpt lat="43.8617017" lon="10.5086361"><ele>29.75</ele><time>2026-05-03T07:01:49.305Z</time></trkpt><trkpt lat="43.8618358" lon="10.5087347"><ele>30.5</ele><time>2026-05-03T07:01:50.295Z</time></trkpt><trkpt lat="43.8619623" lon="10.5088342"><ele>31.25</ele><time>2026-05-03T07:01:51.298Z</time></trkpt><trkpt lat="43.8620669" lon="10.5089121"><ele>32.0</ele><time>2026-05-03T07:01:52.283Z</time></trkpt><trkpt lat="43.8621981" lon="10.508973"><ele>30.25</ele><time>2026-05-03T07:01:53.292Z</time></trkpt><trkpt lat="43.8623213" lon="10.5090592"><ele>28.5</ele><time>2026-05-03T07:01:54.305Z</time></trkpt><trkpt lat="43.8624715" lon="10.5091418"><ele>26.75</ele><time>2026-05-03T07:01:55.294Z</time></trkpt><trkpt lat="43.8626057" lon="10.509213"><ele>25.0</ele><time>2026-05-03T07:01:56.286Z</time></trkpt><trkpt lat="43.862711" lon="10.5092745"><ele>24.833333333333336</ele><time>2026-05-03T07:01:57.296Z</time></trkpt><trkpt lat="43.8628" lon="10.5093352"><ele>24.666666666666668</ele><time>2026-05-03T07:01:58.292Z</time></trkpt><trkpt lat="43.8628797" lon="10.5094089"><ele>24.5</ele><time>2026-05-03T07:01:59.313Z</time></trkpt><trkpt lat="43.8629431" lon="10.5094913"><ele>24.333333333333336</ele><time>2026-05-03T07:02:00.296Z</time></trkpt><trkpt lat="43.8629782" lon="10.5095874"><ele>24.166666666666668</ele><time>2026-05-03T07:02:01.29Z</time></trkpt><trkpt lat="43.8630062" lon="10.5096857"><ele>24.0</ele><time>2026-05-03T07:02:02.291Z</time></trkpt><trkpt lat="43.8630567" lon="10.5097923"><ele>24.0</ele><time>2026-05-03T07:02:03.289Z</time></trkpt><trkpt lat="43.8631103" lon="10.5098845"><ele>24.0</ele><time>2026-05-03T07:02:04.29Z</time></trkpt><trkpt lat="43.8632102" lon="10.5099609"><ele>24.0</ele><time>2026-05-03T07:02:06.291Z</time></trkpt><trkpt lat="43.8632876" lon="10.5098427"><ele>24.0</ele><time>2026-05-03T07:02:08.289Z</time></trkpt><trkpt lat="43.863324" lon="10.5097227"><ele>24.0</ele><time>2026-05-03T07:02:09.293Z</time></trkpt><trkpt lat="43.8633699" lon="10.5095495"><ele>24.0</ele><time>2026-05-03T07:02:10.301Z</time></trkpt><trkpt lat="43.8634291" lon="10.5093977"><ele>24.0</ele><time>2026-05-03T07:02:11.294Z</time></trkpt><trkpt lat="43.8636067" lon="10.5091947"><ele>24.0</ele><time>2026-05-03T07:02:13.29Z</time></trkpt><trkpt lat="43.8637148" lon="10.5091248"><ele>24.666666666666664</ele><time>2026-05-03T07:02:14.293Z</time></trkpt><trkpt lat="43.863861" lon="10.5091293"><ele>25.333333333333332</ele><time>2026-05-03T07:02:15.304Z</time></trkpt><trkpt lat="43.8640158" lon="10.5091084"><ele>26.0</ele><time>2026-05-03T07:02:16.296Z</time></trkpt><trkpt lat="43.864224" lon="10.5090909"><ele>25.666666666666664</ele><time>2026-05-03T07:02:17.295Z</time></trkpt><trkpt lat="43.8643941" lon="10.5090491"><ele>25.333333333333336</ele><time>2026-05-03T07:02:18.304Z</time></trkpt><trkpt lat="43.8645712" lon="10.5090052"><ele>25.0</ele><time>2026-05-03T07:02:19.292Z</time></trkpt><trkpt lat="43.8647455" lon="10.5089329"><ele>25.0</ele><time>2026-05-03T07:02:20.293Z</time></trkpt><trkpt lat="43.864877" lon="10.5088881"><ele>25.0</ele><time>2026-05-03T07:02:21.301Z</time></trkpt><trkpt lat="43.8649777" lon="10.508859"><ele>25.0</ele><time>2026-05-03T07:02:22.288Z</time></trkpt><trkpt lat="43.8650561" lon="10.5088853"><ele>25.0</ele><time>2026-05-03T07:02:23.283Z</time></trkpt><trkpt lat="43.8651123" lon="10.5089317"><ele>25.0</ele><time>2026-05-03T07:02:24.289Z</time></trkpt><trkpt lat="43.8651739" lon="10.5090242"><ele>25.0</ele><time>2026-05-03T07:02:25.292Z</time></trkpt><trkpt lat="43.8652423" lon="10.5091273"><ele>25.0</ele><time>2026-05-03T07:02:26.306Z</time></trkpt><trkpt lat="43.8653232" lon="10.5092763"><ele>25.0</ele><time>2026-05-03T07:02:27.282Z</time></trkpt><trkpt lat="43.8653663" lon="10.5094551"><ele>25.0</ele><time>2026-05-03T07:02:28.281Z</time></trkpt><trkpt lat="43.8654067" lon="10.5096485"><ele>24.666666666666668</ele><time>2026-05-03T07:02:29.292Z</time></trkpt><trkpt lat="43.8654711" lon="10.5097973"><ele>24.333333333333336</ele><time>2026-05-03T07:02:30.288Z</time></trkpt><trkpt lat="43.8655554" lon="10.5100196"><ele>24.0</ele><time>2026-05-03T07:02:31.304Z</time></trkpt><trkpt lat="43.8656655" lon="10.5101679"><ele>24.0</ele><time>2026-05-03T07:02:32.285Z</time></trkpt><trkpt lat="43.8658174" lon="10.5102579"><ele>24.0</ele><time>2026-05-03T07:02:33.293Z</time></trkpt><trkpt lat="43.8659732" lon="10.5103162"><ele>24.0</ele><time>2026-05-03T07:02:34.287Z</time></trkpt><trkpt lat="43.8661185" lon="10.510384"><ele>23.666666666666668</ele><time>2026-05-03T07:02:35.301Z</time></trkpt><trkpt lat="43.8662628" lon="10.5104756"><ele>23.333333333333336</ele><time>2026-05-03T07:02:36.312Z</time></trkpt><trkpt lat="43.8663963" lon="10.5105924"><ele>23.0</ele><time>2026-05-03T07:02:37.296Z</time></trkpt><trkpt lat="43.8665569" lon="10.5107206"><ele>23.0</ele><time>2026-05-03T07:02:38.296Z</time></trkpt><trkpt lat="43.8667135" lon="10.510837"><ele>23.0</ele><time>2026-05-03T07:02:39.299Z</time></trkpt><trkpt lat="43.8668665" lon="10.5109544"><ele>23.0</ele><time>2026-05-03T07:02:40.298Z</time></trkpt><trkpt lat="43.8670349" lon="10.5110784"><ele>22.666666666666668</ele><time>2026-05-03T07:02:41.311Z</time></trkpt><trkpt lat="43.8672152" lon="10.5112181"><ele>22.333333333333332</ele><time>2026-05-03T07:02:42.296Z</time></trkpt><trkpt lat="43.8673486" lon="10.5113308"><ele>22.0</ele><time>2026-05-03T07:02:43.3Z</time></trkpt><trkpt lat="43.8674675" lon="10.5114494"><ele>22.333333333333332</ele><time>2026-05-03T07:02:44.295Z</time></trkpt><trkpt lat="43.8675829" lon="10.5115793"><ele>22.666666666666668</ele><time>2026-05-03T07:02:45.3Z</time></trkpt><trkpt lat="43.867703" lon="10.511696"><ele>23.0</ele><time>2026-05-03T07:02:46.312Z</time></trkpt><trkpt lat="43.8678367" lon="10.511817"><ele>23.0</ele><time>2026-05-03T07:02:47.295Z</time></trkpt><trkpt lat="43.867957" lon="10.5119258"><ele>23.0</ele><time>2026-05-03T07:02:48.297Z</time></trkpt><trkpt lat="43.8680786" lon="10.512073"><ele>23.0</ele><time>2026-05-03T07:02:49.295Z</time></trkpt><trkpt lat="43.8681888" lon="10.5122089"><ele>23.0</ele><time>2026-05-03T07:02:50.299Z</time></trkpt><trkpt lat="43.868308" lon="10.5123676"><ele>23.0</ele><time>2026-05-03T07:02:51.309Z</time></trkpt><trkpt lat="43.8684375" lon="10.5125253"><ele>23.0</ele><time>2026-05-03T07:02:52.296Z</time></trkpt><trkpt lat="43.8685529" lon="10.5126715"><ele>23.0</ele><time>2026-05-03T07:02:53.301Z</time></trkpt><trkpt lat="43.8686998" lon="10.5128478"><ele>23.0</ele><time>2026-05-03T07:02:54.297Z</time></trkpt><trkpt lat="43.8688225" lon="10.5130171"><ele>23.0</ele><time>2026-05-03T07:02:55.293Z</time></trkpt><trkpt lat="43.868946" lon="10.5131838"><ele>23.0</ele><time>2026-05-03T07:02:56.301Z</time></trkpt><trkpt lat="43.8690481" lon="10.5133573"><ele>23.0</ele><time>2026-05-03T07:02:57.294Z</time></trkpt><trkpt lat="43.8691514" lon="10.5135123"><ele>23.0</ele><time>2026-05-03T07:02:58.292Z</time></trkpt><trkpt lat="43.8692525" lon="10.513709"><ele>23.333333333333336</ele><time>2026-05-03T07:02:59.294Z</time></trkpt><trkpt lat="43.8693371" lon="10.5138815"><ele>23.666666666666668</ele><time>2026-05-03T07:03:00.298Z</time></trkpt><trkpt lat="43.8694509" lon="10.5141019"><ele>24.0</ele><time>2026-05-03T07:03:01.313Z</time></trkpt><trkpt lat="43.8695118" lon="10.5143123"><ele>24.0</ele><time>2026-05-03T07:03:02.299Z</time></trkpt><trkpt lat="43.8695872" lon="10.5145179"><ele>24.0</ele><time>2026-05-03T07:03:03.301Z</time></trkpt><trkpt lat="43.8696245" lon="10.5147322"><ele>24.0</ele><time>2026-05-03T07:03:04.3Z</time></trkpt><trkpt lat="43.8696633" lon="10.5149418"><ele>24.0</ele><time>2026-05-03T07:03:05.292Z</time></trkpt><trkpt lat="43.8696956" lon="10.5151508"><ele>24.0</ele><time>2026-05-03T07:03:06.297Z</time></trkpt><trkpt lat="43.8697246" lon="10.5154046"><ele>24.0</ele><time>2026-05-03T07:03:07.284Z</time></trkpt><trkpt lat="43.8697456" lon="10.5156652"><ele>24.0</ele><time>2026-05-03T07:03:08.285Z</time></trkpt><trkpt lat="43.8697864" lon="10.5159153"><ele>24.0</ele><time>2026-05-03T07:03:09.282Z</time></trkpt><trkpt lat="43.8698322" lon="10.516181"><ele>24.0</ele><time>2026-05-03T07:03:10.278Z</time></trkpt><trkpt lat="43.8698921" lon="10.5164375"><ele>24.0</ele><time>2026-05-03T07:03:11.294Z</time></trkpt><trkpt lat="43.8699683" lon="10.5167001"><ele>24.0</ele><time>2026-05-03T07:03:12.278Z</time></trkpt><trkpt lat="43.8700435" lon="10.5169464"><ele>24.0</ele><time>2026-05-03T07:03:13.277Z</time></trkpt><trkpt lat="43.870082" lon="10.5171674"><ele>24.666666666666664</ele><time>2026-05-03T07:03:14.279Z</time></trkpt><trkpt lat="43.8701133" lon="10.5173674"><ele>25.333333333333332</ele><time>2026-05-03T07:03:15.28Z</time></trkpt><trkpt lat="43.8701522" lon="10.5175618"><ele>26.0</ele><time>2026-05-03T07:03:16.293Z</time></trkpt><trkpt lat="43.8702219" lon="10.5177889"><ele>26.333333333333332</ele><time>2026-05-03T07:03:17.281Z</time></trkpt><trkpt lat="43.8703171" lon="10.5180312"><ele>26.666666666666664</ele><time>2026-05-03T07:03:18.285Z</time></trkpt><trkpt lat="43.8704103" lon="10.5182716"><ele>27.0</ele><time>2026-05-03T07:03:19.284Z</time></trkpt><trkpt lat="43.8705271" lon="10.5184842"><ele>27.0</ele><time>2026-05-03T07:03:20.292Z</time></trkpt><trkpt lat="43.8706103" lon="10.5186311"><ele>27.0</ele><time>2026-05-03T07:03:21.308Z</time></trkpt><trkpt lat="43.8706942" lon="10.5188496"><ele>27.0</ele><time>2026-05-03T07:03:22.295Z</time></trkpt><trkpt lat="43.8707485" lon="10.519033"><ele>27.25</ele><time>2026-05-03T07:03:23.294Z</time></trkpt><trkpt lat="43.8708087" lon="10.5192271"><ele>27.5</ele><time>2026-05-03T07:03:24.289Z</time></trkpt><trkpt lat="43.8708639" lon="10.5194062"><ele>27.75</ele><time>2026-05-03T07:03:25.288Z</time></trkpt><trkpt lat="43.8709459" lon="10.519579"><ele>28.0</ele><time>2026-05-03T07:03:26.298Z</time></trkpt><trkpt lat="43.8710314" lon="10.5197862"><ele>32.0</ele><time>2026-05-03T07:03:27.29Z</time></trkpt><trkpt lat="43.8711296" lon="10.5199736"><ele>36.0</ele><time>2026-05-03T07:03:28.292Z</time></trkpt><trkpt lat="43.8712545" lon="10.5201655"><ele>40.0</ele><time>2026-05-03T07:03:29.297Z</time></trkpt><trkpt lat="43.871386" lon="10.520318"><ele>36.333333333333336</ele><time>2026-05-03T07:03:30.292Z</time></trkpt><trkpt lat="43.8715241" lon="10.5204333"><ele>32.666666666666664</ele><time>2026-05-03T07:03:31.306Z</time></trkpt><trkpt lat="43.8716823" lon="10.5205533"><ele>29.0</ele><time>2026-05-03T07:03:32.3Z</time></trkpt><trkpt lat="43.8718503" lon="10.5206523"><ele>29.0</ele><time>2026-05-03T07:03:33.298Z</time></trkpt><trkpt lat="43.8720016" lon="10.5206888"><ele>29.0</ele><time>2026-05-03T07:03:34.298Z</time></trkpt><trkpt lat="43.872119" lon="10.5206314"><ele>29.0</ele><time>2026-05-03T07:03:35.296Z</time></trkpt><trkpt lat="43.872294" lon="10.5205603"><ele>29.0</ele><time>2026-05-03T07:03:36.31Z</time></trkpt><trkpt lat="43.8724587" lon="10.5204769"><ele>29.0</ele><time>2026-05-03T07:03:37.299Z</time></trkpt><trkpt lat="43.8726423" lon="10.5203717"><ele>29.0</ele><time>2026-05-03T07:03:38.295Z</time></trkpt><trkpt lat="43.8728496" lon="10.5203501"><ele>32.0</ele><time>2026-05-03T07:03:39.298Z</time></trkpt><trkpt lat="43.8730572" lon="10.5203659"><ele>35.0</ele><time>2026-05-03T07:03:40.296Z</time></trkpt><trkpt lat="43.8732357" lon="10.5203639"><ele>38.0</ele><time>2026-05-03T07:03:41.314Z</time></trkpt><trkpt lat="43.8734511" lon="10.5203821"><ele>34.0</ele><time>2026-05-03T07:03:42.298Z</time></trkpt><trkpt lat="43.8736728" lon="10.5205274"><ele>30.0</ele><time>2026-05-03T07:03:43.294Z</time></trkpt><trkpt lat="43.8738791" lon="10.5206383"><ele>30.0</ele><time>2026-05-03T07:03:44.295Z</time></trkpt><trkpt lat="43.8740657" lon="10.5207142"><ele>30.0</ele><time>2026-05-03T07:03:45.283Z</time></trkpt><trkpt lat="43.8742732" lon="10.5207606"><ele>30.0</ele><time>2026-05-03T07:03:46.311Z</time></trkpt><trkpt lat="43.8744605" lon="10.5207989"><ele>30.0</ele><time>2026-05-03T07:03:47.294Z</time></trkpt><trkpt lat="43.8746633" lon="10.5208896"><ele>30.0</ele><time>2026-05-03T07:03:48.302Z</time></trkpt><trkpt lat="43.8748449" lon="10.520976"><ele>30.0</ele><time>2026-05-03T07:03:49.295Z</time></trkpt><trkpt lat="43.8750388" lon="10.5210704"><ele>30.666666666666664</ele><time>2026-05-03T07:03:50.294Z</time></trkpt><trkpt lat="43.8752384" lon="10.5211443"><ele>31.333333333333332</ele><time>2026-05-03T07:03:51.312Z</time></trkpt><trkpt lat="43.8754454" lon="10.5212638"><ele>32.0</ele><time>2026-05-03T07:03:52.299Z</time></trkpt><trkpt lat="43.8756242" lon="10.5213561"><ele>32.0</ele><time>2026-05-03T07:03:53.307Z</time></trkpt><trkpt lat="43.8758158" lon="10.5214758"><ele>32.0</ele><time>2026-05-03T07:03:54.291Z</time></trkpt><trkpt lat="43.875998" lon="10.5216298"><ele>32.0</ele><time>2026-05-03T07:03:55.292Z</time></trkpt><trkpt lat="43.8761757" lon="10.5217603"><ele>34.33333333333333</ele><time>2026-05-03T07:03:56.31Z</time></trkpt><trkpt lat="43.8763788" lon="10.5218842"><ele>36.666666666666664</ele><time>2026-05-03T07:03:57.297Z</time></trkpt><trkpt lat="43.8765966" lon="10.521968"><ele>39.0</ele><time>2026-05-03T07:03:58.294Z</time></trkpt><trkpt lat="43.8768081" lon="10.5220262"><ele>40.0</ele><time>2026-05-03T07:03:59.302Z</time></trkpt><trkpt lat="43.8770071" lon="10.5220541"><ele>41.0</ele><time>2026-05-03T07:04:00.302Z</time></trkpt><trkpt lat="43.8772004" lon="10.5220886"><ele>42.0</ele><time>2026-05-03T07:04:01.291Z</time></trkpt><trkpt lat="43.877389" lon="10.5221206"><ele>38.0</ele><time>2026-05-03T07:04:02.294Z</time></trkpt><trkpt lat="43.8775612" lon="10.522083"><ele>34.0</ele><time>2026-05-03T07:04:03.297Z</time></trkpt><trkpt lat="43.8777071" lon="10.5220021"><ele>30.0</ele><time>2026-05-03T07:04:04.287Z</time></trkpt><trkpt lat="43.8778254" lon="10.5218502"><ele>29.333333333333336</ele><time>2026-05-03T07:04:05.293Z</time></trkpt><trkpt lat="43.8779476" lon="10.5216281"><ele>28.666666666666668</ele><time>2026-05-03T07:04:06.289Z</time></trkpt><trkpt lat="43.8780756" lon="10.5214324"><ele>28.0</ele><time>2026-05-03T07:04:07.289Z</time></trkpt><trkpt lat="43.8782474" lon="10.5212282"><ele>28.333333333333336</ele><time>2026-05-03T07:04:08.292Z</time></trkpt><trkpt lat="43.8783656" lon="10.5210895"><ele>28.666666666666664</ele><time>2026-05-03T07:04:09.29Z</time></trkpt><trkpt lat="43.8784847" lon="10.521001"><ele>29.0</ele><time>2026-05-03T07:04:10.286Z</time></trkpt><trkpt lat="43.8786679" lon="10.5208951"><ele>29.0</ele><time>2026-05-03T07:04:11.293Z</time></trkpt><trkpt lat="43.8788736" lon="10.5208352"><ele>29.0</ele><time>2026-05-03T07:04:12.296Z</time></trkpt><trkpt lat="43.8790732" lon="10.5207996"><ele>29.0</ele><time>2026-05-03T07:04:13.296Z</time></trkpt><trkpt lat="43.8792726" lon="10.5207816"><ele>29.666666666666664</ele><time>2026-05-03T07:04:14.288Z</time></trkpt><trkpt lat="43.8794679" lon="10.5207726"><ele>30.333333333333336</ele><time>2026-05-03T07:04:15.296Z</time></trkpt><trkpt lat="43.8796484" lon="10.5207824"><ele>31.0</ele><time>2026-05-03T07:04:16.291Z</time></trkpt><trkpt lat="43.8798192" lon="10.5207766"><ele>31.0</ele><time>2026-05-03T07:04:17.291Z</time></trkpt><trkpt lat="43.879993" lon="10.520812"><ele>31.0</ele><time>2026-05-03T07:04:18.288Z</time></trkpt><trkpt lat="43.8801787" lon="10.5208274"><ele>31.0</ele><time>2026-05-03T07:04:19.286Z</time></trkpt><trkpt lat="43.8803873" lon="10.5208981"><ele>30.666666666666668</ele><time>2026-05-03T07:04:20.291Z</time></trkpt><trkpt lat="43.8806011" lon="10.5209384"><ele>30.333333333333336</ele><time>2026-05-03T07:04:21.293Z</time></trkpt><trkpt lat="43.8808082" lon="10.5209917"><ele>30.0</ele><time>2026-05-03T07:04:22.292Z</time></trkpt><trkpt lat="43.8810083" lon="10.5210575"><ele>29.333333333333336</ele><time>2026-05-03T07:04:23.296Z</time></trkpt><trkpt lat="43.8812168" lon="10.5211564"><ele>28.666666666666668</ele><time>2026-05-03T07:04:24.294Z</time></trkpt><trkpt lat="43.881423" lon="10.5212531"><ele>28.0</ele><time>2026-05-03T07:04:25.282Z</time></trkpt><trkpt lat="43.8816116" lon="10.5212974"><ele>27.666666666666668</ele><time>2026-05-03T07:04:26.284Z</time></trkpt><trkpt lat="43.8818153" lon="10.5213443"><ele>27.333333333333336</ele><time>2026-05-03T07:04:27.285Z</time></trkpt><trkpt lat="43.8820469" lon="10.521349"><ele>27.0</ele><time>2026-05-03T07:04:28.285Z</time></trkpt><trkpt lat="43.8822675" lon="10.5212577"><ele>27.0</ele><time>2026-05-03T07:04:29.286Z</time></trkpt><trkpt lat="43.8824745" lon="10.52117"><ele>27.0</ele><time>2026-05-03T07:04:30.289Z</time></trkpt><trkpt lat="43.8826995" lon="10.5211121"><ele>27.0</ele><time>2026-05-03T07:04:31.289Z</time></trkpt><trkpt lat="43.8828807" lon="10.5209907"><ele>27.0</ele><time>2026-05-03T07:04:32.289Z</time></trkpt><trkpt lat="43.8830868" lon="10.520855"><ele>27.0</ele><time>2026-05-03T07:04:33.286Z</time></trkpt><trkpt lat="43.8832454" lon="10.5207476"><ele>27.0</ele><time>2026-05-03T07:04:34.286Z</time></trkpt><trkpt lat="43.8834302" lon="10.5205843"><ele>27.0</ele><time>2026-05-03T07:04:35.29Z</time></trkpt><trkpt lat="43.8836007" lon="10.520447"><ele>27.0</ele><time>2026-05-03T07:04:36.29Z</time></trkpt><trkpt lat="43.8837424" lon="10.5202739"><ele>27.0</ele><time>2026-05-03T07:04:37.29Z</time></trkpt><trkpt lat="43.8838717" lon="10.5200887"><ele>27.0</ele><time>2026-05-03T07:04:38.301Z</time></trkpt><trkpt lat="43.8840061" lon="10.5199167"><ele>27.0</ele><time>2026-05-03T07:04:39.301Z</time></trkpt><trkpt lat="43.884151" lon="10.5197517"><ele>27.0</ele><time>2026-05-03T07:04:40.3Z</time></trkpt><trkpt lat="43.8843224" lon="10.5196626"><ele>27.333333333333336</ele><time>2026-05-03T07:04:41.295Z</time></trkpt><trkpt lat="43.8844708" lon="10.5195411"><ele>27.666666666666668</ele><time>2026-05-03T07:04:42.295Z</time></trkpt><trkpt lat="43.8846303" lon="10.519516"><ele>28.0</ele><time>2026-05-03T07:04:43.296Z</time></trkpt><trkpt lat="43.8847866" lon="10.5194831"><ele>28.0</ele><time>2026-05-03T07:04:44.295Z</time></trkpt><trkpt lat="43.8849659" lon="10.5194649"><ele>28.0</ele><time>2026-05-03T07:04:45.296Z</time></trkpt><trkpt lat="43.8851408" lon="10.5194418"><ele>28.0</ele><time>2026-05-03T07:04:46.296Z</time></trkpt><trkpt lat="43.8852716" lon="10.5193928"><ele>28.0</ele><time>2026-05-03T07:04:47.297Z</time></trkpt><trkpt lat="43.8853747" lon="10.5193593"><ele>28.0</ele><time>2026-05-03T07:04:48.297Z</time></trkpt><trkpt lat="43.8855177" lon="10.5193196"><ele>28.0</ele><time>2026-05-03T07:04:49.293Z</time></trkpt><trkpt lat="43.8856674" lon="10.5193356"><ele>28.0</ele><time>2026-05-03T07:04:50.3Z</time></trkpt><trkpt lat="43.8857885" lon="10.5193791"><ele>28.0</ele><time>2026-05-03T07:04:51.297Z</time></trkpt><trkpt lat="43.885907" lon="10.5194128"><ele>27.999999999999996</ele><time>2026-05-03T07:04:52.292Z</time></trkpt><trkpt lat="43.8860048" lon="10.5194237"><ele>27.999999999999996</ele><time>2026-05-03T07:04:53.298Z</time></trkpt><trkpt lat="43.8860985" lon="10.5195022"><ele>28.0</ele><time>2026-05-03T07:04:54.297Z</time></trkpt><trkpt lat="43.8861886" lon="10.5195785"><ele>28.0</ele><time>2026-05-03T07:04:55.29Z</time></trkpt><trkpt lat="43.8862875" lon="10.5196817"><ele>27.75</ele><time>2026-05-03T07:04:56.289Z</time></trkpt><trkpt lat="43.8864381" lon="10.5197875"><ele>27.5</ele><time>2026-05-03T07:04:57.29Z</time></trkpt><trkpt lat="43.8865638" lon="10.5198875"><ele>27.25</ele><time>2026-05-03T07:04:58.289Z</time></trkpt><trkpt lat="43.88668" lon="10.5199515"><ele>27.0</ele><time>2026-05-03T07:04:59.293Z</time></trkpt><trkpt lat="43.8868217" lon="10.5199914"><ele>27.0</ele><time>2026-05-03T07:05:00.294Z</time></trkpt><trkpt lat="43.8869507" lon="10.5199867"><ele>27.0</ele><time>2026-05-03T07:05:01.295Z</time></trkpt><trkpt lat="43.8871017" lon="10.5199891"><ele>27.0</ele><time>2026-05-03T07:05:02.294Z</time></trkpt><trkpt lat="43.8872658" lon="10.520017"><ele>27.0</ele><time>2026-05-03T07:05:03.294Z</time></trkpt><trkpt lat="43.8874168" lon="10.5200266"><ele>27.0</ele><time>2026-05-03T07:05:04.294Z</time></trkpt><trkpt lat="43.8875332" lon="10.5199695"><ele>27.0</ele><time>2026-05-03T07:05:05.294Z</time></trkpt><trkpt lat="43.8876596" lon="10.5199379"><ele>27.0</ele><time>2026-05-03T07:05:06.299Z</time></trkpt><trkpt lat="43.8878286" lon="10.5199342"><ele>27.0</ele><time>2026-05-03T07:05:07.299Z</time></trkpt><trkpt lat="43.8879306" lon="10.5198978"><ele>27.5</ele><time>2026-05-03T07:05:08.296Z</time></trkpt><trkpt lat="43.8880266" lon="10.5199149"><ele>28.0</ele><time>2026-05-03T07:05:09.298Z</time></trkpt><trkpt lat="43.888154" lon="10.5198897"><ele>28.5</ele><time>2026-05-03T07:05:10.294Z</time></trkpt><trkpt lat="43.8883055" lon="10.5198355"><ele>29.0</ele><time>2026-05-03T07:05:11.297Z</time></trkpt><trkpt lat="43.8884693" lon="10.5198025"><ele>29.666666666666664</ele><time>2026-05-03T07:05:12.295Z</time></trkpt><trkpt lat="43.8886142" lon="10.5197443"><ele>30.333333333333336</ele><time>2026-05-03T07:05:13.295Z</time></trkpt><trkpt lat="43.8887954" lon="10.5196545"><ele>31.0</ele><time>2026-05-03T07:05:14.295Z</time></trkpt><trkpt lat="43.8889779" lon="10.5195861"><ele>31.0</ele><time>2026-05-03T07:05:15.29Z</time></trkpt><trkpt lat="43.8891573" lon="10.5195324"><ele>31.0</ele><time>2026-05-03T07:05:16.291Z</time></trkpt><trkpt lat="43.8893053" lon="10.519455"><ele>31.0</ele><time>2026-05-03T07:05:17.3Z</time></trkpt><trkpt lat="43.8894429" lon="10.5194139"><ele>30.333333333333336</ele><time>2026-05-03T07:05:18.293Z</time></trkpt><trkpt lat="43.8895864" lon="10.5194208"><ele>29.666666666666664</ele><time>2026-05-03T07:05:19.3Z</time></trkpt><trkpt lat="43.8897548" lon="10.5194354"><ele>29.0</ele><time>2026-05-03T07:05:20.29Z</time></trkpt><trkpt lat="43.8899351" lon="10.5194361"><ele>29.333333333333332</ele><time>2026-05-03T07:05:21.296Z</time></trkpt><trkpt lat="43.8901225" lon="10.5194613"><ele>29.666666666666664</ele><time>2026-05-03T07:05:22.293Z</time></trkpt><trkpt lat="43.8903393" lon="10.519551"><ele>30.0</ele><time>2026-05-03T07:05:23.301Z</time></trkpt><trkpt lat="43.8904862" lon="10.5196268"><ele>30.0</ele><time>2026-05-03T07:05:24.293Z</time></trkpt><trkpt lat="43.8906467" lon="10.5197476"><ele>30.0</ele><time>2026-05-03T07:05:25.295Z</time></trkpt><trkpt lat="43.8907826" lon="10.519837"><ele>30.0</ele><time>2026-05-03T07:05:26.299Z</time></trkpt><trkpt lat="43.8909178" lon="10.5199351"><ele>30.333333333333336</ele><time>2026-05-03T07:05:27.301Z</time></trkpt><trkpt lat="43.8910793" lon="10.5200743"><ele>30.666666666666668</ele><time>2026-05-03T07:05:28.298Z</time></trkpt><trkpt lat="43.8912223" lon="10.5202212"><ele>31.0</ele><time>2026-05-03T07:05:29.298Z</time></trkpt><trkpt lat="43.8913635" lon="10.5203127"><ele>31.0</ele><time>2026-05-03T07:05:30.291Z</time></trkpt><trkpt lat="43.8915186" lon="10.5204208"><ele>31.0</ele><time>2026-05-03T07:05:31.295Z</time></trkpt><trkpt lat="43.8916341" lon="10.5204974"><ele>31.0</ele><time>2026-05-03T07:05:32.292Z</time></trkpt><trkpt lat="43.8917583" lon="10.5205542"><ele>31.0</ele><time>2026-05-03T07:05:33.292Z</time></trkpt><trkpt lat="43.8918879" lon="10.5206779"><ele>31.5</ele><time>2026-05-03T07:05:34.291Z</time></trkpt><trkpt lat="43.8920169" lon="10.5207655"><ele>32.0</ele><time>2026-05-03T07:05:35.289Z</time></trkpt><trkpt lat="43.8921311" lon="10.5208214"><ele>32.5</ele><time>2026-05-03T07:05:36.289Z</time></trkpt><trkpt lat="43.8922176" lon="10.5209942"><ele>33.0</ele><time>2026-05-03T07:05:37.288Z</time></trkpt><trkpt lat="43.8923106" lon="10.5211243"><ele>32.666666666666664</ele><time>2026-05-03T07:05:38.29Z</time></trkpt><trkpt lat="43.892402" lon="10.5212547"><ele>32.33333333333333</ele><time>2026-05-03T07:05:39.288Z</time></trkpt><trkpt lat="43.8925328" lon="10.5214281"><ele>32.0</ele><time>2026-05-03T07:05:40.294Z</time></trkpt><trkpt lat="43.8926384" lon="10.5216054"><ele>32.0</ele><time>2026-05-03T07:05:41.292Z</time></trkpt><trkpt lat="43.8927461" lon="10.5217586"><ele>32.0</ele><time>2026-05-03T07:05:42.29Z</time></trkpt><trkpt lat="43.8928577" lon="10.5219025"><ele>32.0</ele><time>2026-05-03T07:05:43.293Z</time></trkpt><trkpt lat="43.8929695" lon="10.5220604"><ele>32.0</ele><time>2026-05-03T07:05:44.289Z</time></trkpt><trkpt lat="43.8930922" lon="10.5222504"><ele>32.0</ele><time>2026-05-03T07:05:45.294Z</time></trkpt><trkpt lat="43.893173" lon="10.5224051"><ele>32.0</ele><time>2026-05-03T07:05:46.281Z</time></trkpt><trkpt lat="43.8932901" lon="10.5225536"><ele>32.33333333333333</ele><time>2026-05-03T07:05:47.288Z</time></trkpt><trkpt lat="43.8934592" lon="10.5228979"><ele>32.666666666666664</ele><time>2026-05-03T07:05:49.282Z</time></trkpt><trkpt lat="43.8935376" lon="10.5230297"><ele>33.0</ele><time>2026-05-03T07:05:50.28Z</time></trkpt><trkpt lat="43.8936152" lon="10.5231879"><ele>33.0</ele><time>2026-05-03T07:05:51.291Z</time></trkpt><trkpt lat="43.8936733" lon="10.5232977"><ele>33.0</ele><time>2026-05-03T07:05:52.287Z</time></trkpt><trkpt lat="43.8937164" lon="10.5234124"><ele>33.0</ele><time>2026-05-03T07:05:53.289Z</time></trkpt><trkpt lat="43.893793" lon="10.5235429"><ele>33.0</ele><time>2026-05-03T07:05:54.287Z</time></trkpt><trkpt lat="43.8938878" lon="10.5236238"><ele>33.0</ele><time>2026-05-03T07:05:55.287Z</time></trkpt><trkpt lat="43.8939809" lon="10.5236767"><ele>33.0</ele><time>2026-05-03T07:05:56.298Z</time></trkpt><trkpt lat="43.8940936" lon="10.5237051"><ele>33.0</ele><time>2026-05-03T07:05:57.298Z</time></trkpt><trkpt lat="43.894206" lon="10.5237065"><ele>33.0</ele><time>2026-05-03T07:05:58.296Z</time></trkpt><trkpt lat="43.8943199" lon="10.5236992"><ele>33.0</ele><time>2026-05-03T07:05:59.293Z</time></trkpt><trkpt lat="43.8944362" lon="10.5236924"><ele>33.4</ele><time>2026-05-03T07:06:00.292Z</time></trkpt><trkpt lat="43.8945561" lon="10.52372"><ele>33.8</ele><time>2026-05-03T07:06:01.292Z</time></trkpt><trkpt lat="43.8946643" lon="10.523753"><ele>34.2</ele><time>2026-05-03T07:06:02.294Z</time></trkpt><trkpt lat="43.8947657" lon="10.5237674"><ele>34.6</ele><time>2026-05-03T07:06:03.298Z</time></trkpt><trkpt lat="43.8948627" lon="10.5238"><ele>35.0</ele><time>2026-05-03T07:06:04.293Z</time></trkpt><trkpt lat="43.8949617" lon="10.5238153"><ele>35.0</ele><time>2026-05-03T07:06:05.293Z</time></trkpt><trkpt lat="43.8950863" lon="10.5238096"><ele>35.0</ele><time>2026-05-03T07:06:06.296Z</time></trkpt><trkpt lat="43.8952228" lon="10.5238044"><ele>35.0</ele><time>2026-05-03T07:06:07.295Z</time></trkpt><trkpt lat="43.8953635" lon="10.523815"><ele>35.0</ele><time>2026-05-03T07:06:08.296Z</time></trkpt><trkpt lat="43.8955015" lon="10.523844"><ele>35.0</ele><time>2026-05-03T07:06:09.293Z</time></trkpt><trkpt lat="43.8956387" lon="10.5238929"><ele>35.0</ele><time>2026-05-03T07:06:10.293Z</time></trkpt><trkpt lat="43.8957619" lon="10.5239251"><ele>35.0</ele><time>2026-05-03T07:06:11.293Z</time></trkpt><trkpt lat="43.8958711" lon="10.5239498"><ele>35.0</ele><time>2026-05-03T07:06:12.294Z</time></trkpt><trkpt lat="43.89598" lon="10.5239696"><ele>36.2</ele><time>2026-05-03T07:06:13.296Z</time></trkpt><trkpt lat="43.896083" lon="10.5239748"><ele>37.4</ele><time>2026-05-03T07:06:14.301Z</time></trkpt><trkpt lat="43.8961939" lon="10.5239932"><ele>38.599999999999994</ele><time>2026-05-03T07:06:15.302Z</time></trkpt><trkpt lat="43.8962717" lon="10.5240121"><ele>39.8</ele><time>2026-05-03T07:06:16.303Z</time></trkpt><trkpt lat="43.8963637" lon="10.5240517"><ele>41.0</ele><time>2026-05-03T07:06:17.294Z</time></trkpt><trkpt lat="43.8964624" lon="10.5241174"><ele>41.0</ele><time>2026-05-03T07:06:18.298Z</time></trkpt><trkpt lat="43.8965547" lon="10.5242177"><ele>41.0</ele><time>2026-05-03T07:06:19.297Z</time></trkpt><trkpt lat="43.8966394" lon="10.5243463"><ele>41.0</ele><time>2026-05-03T07:06:20.295Z</time></trkpt><trkpt lat="43.8966922" lon="10.5245162"><ele>41.0</ele><time>2026-05-03T07:06:21.298Z</time></trkpt><trkpt lat="43.8966981" lon="10.5246834"><ele>40.75</ele><time>2026-05-03T07:06:22.291Z</time></trkpt><trkpt lat="43.8966986" lon="10.5248862"><ele>40.5</ele><time>2026-05-03T07:06:23.3Z</time></trkpt><trkpt lat="43.8967025" lon="10.5250726"><ele>40.25</ele><time>2026-05-03T07:06:24.294Z</time></trkpt><trkpt lat="43.8967147" lon="10.5252594"><ele>40.0</ele><time>2026-05-03T07:06:25.299Z</time></trkpt><trkpt lat="43.8967236" lon="10.5254283"><ele>40.0</ele><time>2026-05-03T07:06:26.294Z</time></trkpt><trkpt lat="43.8967082" lon="10.5256038"><ele>40.0</ele><time>2026-05-03T07:06:27.305Z</time></trkpt><trkpt lat="43.8966776" lon="10.5257538"><ele>40.0</ele><time>2026-05-03T07:06:28.298Z</time></trkpt><trkpt lat="43.8966505" lon="10.5259405"><ele>40.0</ele><time>2026-05-03T07:06:29.3Z</time></trkpt><trkpt lat="43.896626" lon="10.5261108"><ele>39.75</ele><time>2026-05-03T07:06:30.291Z</time></trkpt><trkpt lat="43.8966129" lon="10.52628"><ele>39.5</ele><time>2026-05-03T07:06:31.296Z</time></trkpt><trkpt lat="43.896574" lon="10.5264471"><ele>39.25</ele><time>2026-05-03T07:06:32.297Z</time></trkpt><trkpt lat="43.8965277" lon="10.5266063"><ele>39.0</ele><time>2026-05-03T07:06:33.294Z</time></trkpt><trkpt lat="43.8964792" lon="10.5267671"><ele>39.0</ele><time>2026-05-03T07:06:34.295Z</time></trkpt><trkpt lat="43.8964283" lon="10.5269361"><ele>39.0</ele><time>2026-05-03T07:06:35.293Z</time></trkpt><trkpt lat="43.8963793" lon="10.5270958"><ele>39.0</ele><time>2026-05-03T07:06:36.292Z</time></trkpt><trkpt lat="43.8963354" lon="10.5272628"><ele>39.0</ele><time>2026-05-03T07:06:37.285Z</time></trkpt><trkpt lat="43.8962941" lon="10.5274238"><ele>40.0</ele><time>2026-05-03T07:06:38.284Z</time></trkpt><trkpt lat="43.8962547" lon="10.5275915"><ele>41.0</ele><time>2026-05-03T07:06:39.285Z</time></trkpt><trkpt lat="43.8962257" lon="10.5277633"><ele>42.0</ele><time>2026-05-03T07:06:40.28Z</time></trkpt><trkpt lat="43.8962062" lon="10.527936"><ele>43.0</ele><time>2026-05-03T07:06:41.284Z</time></trkpt><trkpt lat="43.8962029" lon="10.5281141"><ele>43.25</ele><time>2026-05-03T07:06:42.282Z</time></trkpt><trkpt lat="43.896211" lon="10.5282836"><ele>43.5</ele><time>2026-05-03T07:06:43.281Z</time></trkpt><trkpt lat="43.8962329" lon="10.5284411"><ele>43.75</ele><time>2026-05-03T07:06:44.282Z</time></trkpt><trkpt lat="43.8962628" lon="10.5285939"><ele>44.0</ele><time>2026-05-03T07:06:45.283Z</time></trkpt><trkpt lat="43.8962995" lon="10.5287406"><ele>44.0</ele><time>2026-05-03T07:06:46.279Z</time></trkpt><trkpt lat="43.896346" lon="10.5288919"><ele>44.0</ele><time>2026-05-03T07:06:47.286Z</time></trkpt><trkpt lat="43.8963934" lon="10.5290384"><ele>44.0</ele><time>2026-05-03T07:06:48.288Z</time></trkpt><trkpt lat="43.8964351" lon="10.5291851"><ele>44.0</ele><time>2026-05-03T07:06:49.279Z</time></trkpt><trkpt lat="43.8964888" lon="10.5293431"><ele>44.0</ele><time>2026-05-03T07:06:50.281Z</time></trkpt><trkpt lat="43.8965596" lon="10.5294944"><ele>44.0</ele><time>2026-05-03T07:06:51.289Z</time></trkpt><trkpt lat="43.8966497" lon="10.5296409"><ele>44.0</ele><time>2026-05-03T07:06:52.284Z</time></trkpt><trkpt lat="43.8967344" lon="10.5297857"><ele>44.0</ele><time>2026-05-03T07:06:53.282Z</time></trkpt><trkpt lat="43.8968254" lon="10.5299548"><ele>44.0</ele><time>2026-05-03T07:06:54.286Z</time></trkpt><trkpt lat="43.8968946" lon="10.5300658"><ele>44.0</ele><time>2026-05-03T07:06:55.293Z</time></trkpt><trkpt lat="43.8969604" lon="10.5301776"><ele>44.0</ele><time>2026-05-03T07:06:56.29Z</time></trkpt><trkpt lat="43.8970165" lon="10.5302888"><ele>44.0</ele><time>2026-05-03T07:06:57.29Z</time></trkpt><trkpt lat="43.8971082" lon="10.5304016"><ele>44.0</ele><time>2026-05-03T07:06:58.281Z</time></trkpt><trkpt lat="43.8971977" lon="10.5305208"><ele>42.5</ele><time>2026-05-03T07:06:59.286Z</time></trkpt><trkpt lat="43.8972852" lon="10.5306332"><ele>41.0</ele><time>2026-05-03T07:07:00.298Z</time></trkpt><trkpt lat="43.8973679" lon="10.5307518"><ele>39.5</ele><time>2026-05-03T07:07:01.291Z</time></trkpt><trkpt lat="43.8974788" lon="10.530876"><ele>38.0</ele><time>2026-05-03T07:07:02.295Z</time></trkpt><trkpt lat="43.8975615" lon="10.5310048"><ele>38.25</ele><time>2026-05-03T07:07:03.295Z</time></trkpt><trkpt lat="43.8976518" lon="10.5311327"><ele>38.5</ele><time>2026-05-03T07:07:04.286Z</time></trkpt><trkpt lat="43.8977754" lon="10.5312231"><ele>38.75</ele><time>2026-05-03T07:07:05.287Z</time></trkpt><trkpt lat="43.8978983" lon="10.531334"><ele>39.0</ele><time>2026-05-03T07:07:06.288Z</time></trkpt><trkpt lat="43.8979993" lon="10.5314293"><ele>39.0</ele><time>2026-05-03T07:07:07.294Z</time></trkpt><trkpt lat="43.8980923" lon="10.5315607"><ele>39.0</ele><time>2026-05-03T07:07:08.291Z</time></trkpt><trkpt lat="43.8982251" lon="10.5316755"><ele>39.0</ele><time>2026-05-03T07:07:09.292Z</time></trkpt><trkpt lat="43.8983444" lon="10.5318103"><ele>39.0</ele><time>2026-05-03T07:07:10.291Z</time></trkpt><trkpt lat="43.898447" lon="10.5318869"><ele>38.6</ele><time>2026-05-03T07:07:11.291Z</time></trkpt><trkpt lat="43.8985428" lon="10.5319714"><ele>38.2</ele><time>2026-05-03T07:07:12.286Z</time></trkpt><trkpt lat="43.8986445" lon="10.5320424"><ele>37.800000000000004</ele><time>2026-05-03T07:07:13.301Z</time></trkpt><trkpt lat="43.8987441" lon="10.5320955"><ele>37.4</ele><time>2026-05-03T07:07:14.3Z</time></trkpt><trkpt lat="43.8988438" lon="10.5321466"><ele>37.0</ele><time>2026-05-03T07:07:15.301Z</time></trkpt><trkpt lat="43.8989349" lon="10.5321974"><ele>37.0</ele><time>2026-05-03T07:07:16.298Z</time></trkpt><trkpt lat="43.8990193" lon="10.5322445"><ele>37.0</ele><time>2026-05-03T07:07:17.298Z</time></trkpt><trkpt lat="43.899097" lon="10.5322809"><ele>37.0</ele><time>2026-05-03T07:07:18.296Z</time></trkpt><trkpt lat="43.8991668" lon="10.5323178"><ele>37.0</ele><time>2026-05-03T07:07:19.295Z</time></trkpt><trkpt lat="43.8992301" lon="10.5323666"><ele>37.0</ele><time>2026-05-03T07:07:20.287Z</time></trkpt><trkpt lat="43.8992783" lon="10.5324259"><ele>37.0</ele><time>2026-05-03T07:07:21.288Z</time></trkpt><trkpt lat="43.8993255" lon="10.5325326"><ele>37.0</ele><time>2026-05-03T07:07:23.281Z</time></trkpt><trkpt lat="43.8993064" lon="10.5326328"><ele>37.0</ele><time>2026-05-03T07:07:25.285Z</time></trkpt><trkpt lat="43.8993527" lon="10.5326961"><ele>37.0</ele><time>2026-05-03T07:07:37.303Z</time></trkpt><trkpt lat="43.8994515" lon="10.5326237"><ele>37.0</ele><time>2026-05-03T07:07:40.306Z</time></trkpt><trkpt lat="43.8995169" lon="10.532554"><ele>37.0</ele><time>2026-05-03T07:07:41.303Z</time></trkpt><trkpt lat="43.8996798" lon="10.532333"><ele>37.0</ele><time>2026-05-03T07:07:43.297Z</time></trkpt><trkpt lat="43.8997564" lon="10.5322448"><ele>37.0</ele><time>2026-05-03T07:07:44.302Z</time></trkpt><trkpt lat="43.8998905" lon="10.532164"><ele>37.0</ele><time>2026-05-03T07:07:45.303Z</time></trkpt><trkpt lat="43.9000627" lon="10.5320962"><ele>37.0</ele><time>2026-05-03T07:07:46.297Z</time></trkpt><trkpt lat="43.9002763" lon="10.5320089"><ele>39.0</ele><time>2026-05-03T07:07:47.295Z</time></trkpt><trkpt lat="43.9005084" lon="10.5319294"><ele>41.0</ele><time>2026-05-03T07:07:48.299Z</time></trkpt><trkpt lat="43.9007572" lon="10.5318555"><ele>42.5</ele><time>2026-05-03T07:07:49.298Z</time></trkpt><trkpt lat="43.9011117" lon="10.5318208"><ele>44.0</ele><time>2026-05-03T07:07:50.301Z</time></trkpt><trkpt lat="43.9014011" lon="10.5317761"><ele>44.0</ele><time>2026-05-03T07:07:51.301Z</time></trkpt><trkpt lat="43.9016854" lon="10.5317004"><ele>44.0</ele><time>2026-05-03T07:07:52.306Z</time></trkpt><trkpt lat="43.9018993" lon="10.5315892"><ele>39.5</ele><time>2026-05-03T07:07:53.302Z</time></trkpt><trkpt lat="43.9021339" lon="10.5314493"><ele>35.0</ele><time>2026-05-03T07:07:54.302Z</time></trkpt><trkpt lat="43.902342" lon="10.5313129"><ele>36.33333333333333</ele><time>2026-05-03T07:07:55.306Z</time></trkpt><trkpt lat="43.9025346" lon="10.5311635"><ele>37.666666666666664</ele><time>2026-05-03T07:07:56.303Z</time></trkpt><trkpt lat="43.9026932" lon="10.5310351"><ele>39.0</ele><time>2026-05-03T07:07:57.304Z</time></trkpt><trkpt lat="43.9028308" lon="10.5308892"><ele>39.0</ele><time>2026-05-03T07:07:58.296Z</time></trkpt><trkpt lat="43.9029839" lon="10.5307378"><ele>39.0</ele><time>2026-05-03T07:07:59.296Z</time></trkpt><trkpt lat="43.9031364" lon="10.5305977"><ele>39.0</ele><time>2026-05-03T07:08:00.296Z</time></trkpt><trkpt lat="43.903285" lon="10.5304594"><ele>40.0</ele><time>2026-05-03T07:08:01.294Z</time></trkpt><trkpt lat="43.9034289" lon="10.530325"><ele>41.0</ele><time>2026-05-03T07:08:02.296Z</time></trkpt><trkpt lat="43.903598" lon="10.5301486"><ele>42.0</ele><time>2026-05-03T07:08:03.29Z</time></trkpt><trkpt lat="43.9037665" lon="10.5299904"><ele>42.0</ele><time>2026-05-03T07:08:04.289Z</time></trkpt><trkpt lat="43.9039053" lon="10.5298648"><ele>42.0</ele><time>2026-05-03T07:08:05.286Z</time></trkpt><trkpt lat="43.9040443" lon="10.5297592"><ele>42.0</ele><time>2026-05-03T07:08:06.292Z</time></trkpt><trkpt lat="43.9041807" lon="10.5295816"><ele>41.0</ele><time>2026-05-03T07:08:07.294Z</time></trkpt><trkpt lat="43.9043026" lon="10.5294454"><ele>40.0</ele><time>2026-05-03T07:08:08.293Z</time></trkpt><trkpt lat="43.9044048" lon="10.529367"><ele>39.0</ele><time>2026-05-03T07:08:09.297Z</time></trkpt><trkpt lat="43.9045024" lon="10.5292587"><ele>38.0</ele><time>2026-05-03T07:08:10.288Z</time></trkpt><trkpt lat="43.9046338" lon="10.5291842"><ele>38.0</ele><time>2026-05-03T07:08:11.296Z</time></trkpt><trkpt lat="43.9047598" lon="10.5290727"><ele>38.0</ele><time>2026-05-03T07:08:12.292Z</time></trkpt><trkpt lat="43.9048857" lon="10.5289672"><ele>38.0</ele><time>2026-05-03T07:08:13.291Z</time></trkpt><trkpt lat="43.9050199" lon="10.5288919"><ele>38.0</ele><time>2026-05-03T07:08:14.295Z</time></trkpt><trkpt lat="43.9051714" lon="10.5288033"><ele>42.33333333333333</ele><time>2026-05-03T07:08:15.294Z</time></trkpt><trkpt lat="43.9053183" lon="10.528721"><ele>46.666666666666664</ele><time>2026-05-03T07:08:16.287Z</time></trkpt><trkpt lat="43.9055022" lon="10.5285987"><ele>51.0</ele><time>2026-05-03T07:08:17.287Z</time></trkpt><trkpt lat="43.9056771" lon="10.5284812"><ele>51.0</ele><time>2026-05-03T07:08:18.293Z</time></trkpt><trkpt lat="43.9058854" lon="10.5283744"><ele>51.0</ele><time>2026-05-03T07:08:19.298Z</time></trkpt><trkpt lat="43.9060883" lon="10.5282813"><ele>51.0</ele><time>2026-05-03T07:08:20.299Z</time></trkpt><trkpt lat="43.9062675" lon="10.5281876"><ele>47.0</ele><time>2026-05-03T07:08:21.307Z</time></trkpt><trkpt lat="43.9064559" lon="10.5280857"><ele>43.0</ele><time>2026-05-03T07:08:22.301Z</time></trkpt><trkpt lat="43.9066101" lon="10.5280017"><ele>39.0</ele><time>2026-05-03T07:08:23.3Z</time></trkpt><trkpt lat="43.9067818" lon="10.5279266"><ele>41.333333333333336</ele><time>2026-05-03T07:08:24.298Z</time></trkpt><trkpt lat="43.9069596" lon="10.5278555"><ele>43.66666666666667</ele><time>2026-05-03T07:08:25.297Z</time></trkpt><trkpt lat="43.9071276" lon="10.5277915"><ele>46.0</ele><time>2026-05-03T07:08:26.293Z</time></trkpt><trkpt lat="43.9072932" lon="10.5277491"><ele>46.0</ele><time>2026-05-03T07:08:27.298Z</time></trkpt><trkpt lat="43.907476" lon="10.527647"><ele>46.0</ele><time>2026-05-03T07:08:28.299Z</time></trkpt><trkpt lat="43.9076295" lon="10.527534"><ele>46.0</ele><time>2026-05-03T07:08:29.296Z</time></trkpt><trkpt lat="43.9077767" lon="10.5274432"><ele>44.66666666666667</ele><time>2026-05-03T07:08:30.3Z</time></trkpt><trkpt lat="43.9079178" lon="10.5273312"><ele>43.333333333333336</ele><time>2026-05-03T07:08:31.289Z</time></trkpt><trkpt lat="43.9080493" lon="10.5272075"><ele>42.0</ele><time>2026-05-03T07:08:32.298Z</time></trkpt><trkpt lat="43.9081833" lon="10.5270723"><ele>44.0</ele><time>2026-05-03T07:08:33.293Z</time></trkpt><trkpt lat="43.908342" lon="10.5269353"><ele>46.0</ele><time>2026-05-03T07:08:34.268Z</time></trkpt><trkpt lat="43.9084979" lon="10.5267985"><ele>48.0</ele><time>2026-05-03T07:08:35.252Z</time></trkpt><trkpt lat="43.9121596" lon="10.5240415"><ele>52.0</ele><time>2026-05-03T07:08:59.276Z</time></trkpt><trkpt lat="43.9126549" lon="10.5237602"><ele>58.0</ele><time>2026-05-03T07:09:01.268Z</time></trkpt><trkpt lat="43.912914" lon="10.5236766"><ele>64.0</ele><time>2026-05-03T07:09:02.283Z</time></trkpt><trkpt lat="43.9130842" lon="10.5235487"><ele>64.0</ele><time>2026-05-03T07:09:03.275Z</time></trkpt><trkpt lat="43.9133021" lon="10.5235463"><ele>64.0</ele><time>2026-05-03T07:09:04.277Z</time></trkpt><trkpt lat="43.9135265" lon="10.5235315"><ele>64.0</ele><time>2026-05-03T07:09:05.29Z</time></trkpt><trkpt lat="43.9136975" lon="10.5235307"><ele>64.0</ele><time>2026-05-03T07:09:06.292Z</time></trkpt><trkpt lat="43.9138844" lon="10.5235316"><ele>64.0</ele><time>2026-05-03T07:09:07.293Z</time></trkpt><trkpt lat="43.914041" lon="10.5235585"><ele>64.0</ele><time>2026-05-03T07:09:08.297Z</time></trkpt><trkpt lat="43.9142052" lon="10.5235497"><ele>60.33333333333333</ele><time>2026-05-03T07:09:09.293Z</time></trkpt><trkpt lat="43.9143744" lon="10.5235053"><ele>56.66666666666667</ele><time>2026-05-03T07:09:10.274Z</time></trkpt><trkpt lat="43.9145429" lon="10.5234604"><ele>53.0</ele><time>2026-05-03T07:09:11.247Z</time></trkpt><trkpt lat="43.9208737" lon="10.5259423"><ele>53.25</ele><time>2026-05-03T07:09:57.285Z</time></trkpt><trkpt lat="43.9209906" lon="10.5259828"><ele>53.5</ele><time>2026-05-03T07:09:58.282Z</time></trkpt><trkpt lat="43.9211431" lon="10.5260354"><ele>53.75</ele><time>2026-05-03T07:09:59.278Z</time></trkpt><trkpt lat="43.9212514" lon="10.5259868"><ele>54.0</ele><time>2026-05-03T07:10:00.292Z</time></trkpt><trkpt lat="43.9213313" lon="10.5259189"><ele>54.0</ele><time>2026-05-03T07:10:01.293Z</time></trkpt><trkpt lat="43.9214744" lon="10.5258808"><ele>54.0</ele><time>2026-05-03T07:10:02.29Z</time></trkpt><trkpt lat="43.9216033" lon="10.5258952"><ele>54.0</ele><time>2026-05-03T07:10:03.301Z</time></trkpt><trkpt lat="43.9217204" lon="10.5258134"><ele>54.0</ele><time>2026-05-03T07:10:04.299Z</time></trkpt><trkpt lat="43.9218747" lon="10.5257467"><ele>56.0</ele><time>2026-05-03T07:10:05.294Z</time></trkpt><trkpt lat="43.922041" lon="10.5257122"><ele>58.0</ele><time>2026-05-03T07:10:06.295Z</time></trkpt><trkpt lat="43.9221806" lon="10.525654"><ele>60.0</ele><time>2026-05-03T07:10:07.293Z</time></trkpt><trkpt lat="43.9223306" lon="10.5255887"><ele>60.0</ele><time>2026-05-03T07:10:08.297Z</time></trkpt><trkpt lat="43.9224558" lon="10.5255194"><ele>60.0</ele><time>2026-05-03T07:10:09.297Z</time></trkpt><trkpt lat="43.9225949" lon="10.5254087"><ele>60.0</ele><time>2026-05-03T07:10:10.294Z</time></trkpt><trkpt lat="43.9227222" lon="10.5253303"><ele>60.0</ele><time>2026-05-03T07:10:11.279Z</time></trkpt><trkpt lat="43.9228624" lon="10.5252696"><ele>56.0</ele><time>2026-05-03T07:10:12.289Z</time></trkpt><trkpt lat="43.9229781" lon="10.5252002"><ele>52.0</ele><time>2026-05-03T07:10:13.255Z</time></trkpt><trkpt lat="43.9255831" lon="10.5201495"><ele>52.0</ele><time>2026-05-03T07:10:41.282Z</time></trkpt><trkpt lat="43.9256893" lon="10.5199008"><ele>52.0</ele><time>2026-05-03T07:10:42.279Z</time></trkpt><trkpt lat="43.92576" lon="10.5196504"><ele>52.0</ele><time>2026-05-03T07:10:43.277Z</time></trkpt><trkpt lat="43.9258305" lon="10.5194834"><ele>59.0</ele><time>2026-05-03T07:10:44.28Z</time></trkpt><trkpt lat="43.9259044" lon="10.5192281"><ele>66.0</ele><time>2026-05-03T07:10:45.288Z</time></trkpt><trkpt lat="43.9260405" lon="10.5187207"><ele>66.0</ele><time>2026-05-03T07:10:47.278Z</time></trkpt><trkpt lat="43.9261336" lon="10.518495"><ele>66.0</ele><time>2026-05-03T07:10:48.291Z</time></trkpt><trkpt lat="43.9262294" lon="10.5182529"><ele>66.0</ele><time>2026-05-03T07:10:49.291Z</time></trkpt><trkpt lat="43.9263274" lon="10.5180324"><ele>61.33333333333333</ele><time>2026-05-03T07:10:50.292Z</time></trkpt><trkpt lat="43.9264605" lon="10.5178127"><ele>56.666666666666664</ele><time>2026-05-03T07:10:51.299Z</time></trkpt><trkpt lat="43.9266051" lon="10.5176176"><ele>52.0</ele><time>2026-05-03T07:10:52.299Z</time></trkpt><trkpt lat="43.9269425" lon="10.5172536"><ele>52.0</ele><time>2026-05-03T07:10:54.298Z</time></trkpt><trkpt lat="43.927086" lon="10.5171025"><ele>52.0</ele><time>2026-05-03T07:10:55.29Z</time></trkpt><trkpt lat="43.9272508" lon="10.5169271"><ele>52.0</ele><time>2026-05-03T07:10:56.294Z</time></trkpt><trkpt lat="43.9274362" lon="10.5168078"><ele>64.33333333333333</ele><time>2026-05-03T07:10:57.29Z</time></trkpt><trkpt lat="43.9276168" lon="10.516667"><ele>76.66666666666667</ele><time>2026-05-03T07:10:58.29Z</time></trkpt><trkpt lat="43.9278069" lon="10.5165157"><ele>89.0</ele><time>2026-05-03T07:10:59.292Z</time></trkpt><trkpt lat="43.9279622" lon="10.5163613"><ele>91.66666666666667</ele><time>2026-05-03T07:11:00.292Z</time></trkpt><trkpt lat="43.9281133" lon="10.5161709"><ele>94.33333333333334</ele><time>2026-05-03T07:11:01.292Z</time></trkpt><trkpt lat="43.9282804" lon="10.5159887"><ele>97.0</ele><time>2026-05-03T07:11:02.288Z</time></trkpt><trkpt lat="43.9284251" lon="10.5158021"><ele>97.0</ele><time>2026-05-03T07:11:03.296Z</time></trkpt><trkpt lat="43.9285611" lon="10.5156325"><ele>97.0</ele><time>2026-05-03T07:11:04.29Z</time></trkpt><trkpt lat="43.928722" lon="10.5154805"><ele>97.0</ele><time>2026-05-03T07:11:05.29Z</time></trkpt><trkpt lat="43.9288753" lon="10.5153036"><ele>81.0</ele><time>2026-05-03T07:11:06.29Z</time></trkpt><trkpt lat="43.9290213" lon="10.5151176"><ele>65.0</ele><time>2026-05-03T07:11:07.294Z</time></trkpt><trkpt lat="43.9291768" lon="10.5148128"><ele>73.0</ele><time>2026-05-03T07:11:08.292Z</time></trkpt><trkpt lat="43.9292979" lon="10.514568"><ele>81.0</ele><time>2026-05-03T07:11:09.293Z</time></trkpt><trkpt lat="43.9294127" lon="10.5142882"><ele>89.0</ele><time>2026-05-03T07:11:10.299Z</time></trkpt><trkpt lat="43.929533" lon="10.5140759"><ele>89.0</ele><time>2026-05-03T07:11:11.294Z</time></trkpt><trkpt lat="43.9296327" lon="10.5138826"><ele>89.0</ele><time>2026-05-03T07:11:12.293Z</time></trkpt><trkpt lat="43.9297142" lon="10.5136696"><ele>89.0</ele><time>2026-05-03T07:11:13.298Z</time></trkpt><trkpt lat="43.9297768" lon="10.5134746"><ele>85.25</ele><time>2026-05-03T07:11:14.293Z</time></trkpt><trkpt lat="43.9298144" lon="10.5133244"><ele>81.5</ele><time>2026-05-03T07:11:15.288Z</time></trkpt><trkpt lat="43.9298589" lon="10.5131244"><ele>77.75</ele><time>2026-05-03T07:11:16.286Z</time></trkpt><trkpt lat="43.9298975" lon="10.5128945"><ele>74.0</ele><time>2026-05-03T07:11:17.282Z</time></trkpt><trkpt lat="43.9299185" lon="10.5126916"><ele>73.66666666666667</ele><time>2026-05-03T07:11:18.278Z</time></trkpt><trkpt lat="43.929931" lon="10.512484"><ele>73.33333333333333</ele><time>2026-05-03T07:11:19.285Z</time></trkpt><trkpt lat="43.9299221" lon="10.5122538"><ele>73.0</ele><time>2026-05-03T07:11:20.281Z</time></trkpt><trkpt lat="43.929896" lon="10.5119901"><ele>75.5</ele><time>2026-05-03T07:11:21.28Z</time></trkpt><trkpt lat="43.9298242" lon="10.5116692"><ele>78.0</ele><time>2026-05-03T07:11:22.273Z</time></trkpt><trkpt lat="43.9297233" lon="10.5113491"><ele>80.5</ele><time>2026-05-03T07:11:23.288Z</time></trkpt><trkpt lat="43.9296371" lon="10.5110294"><ele>83.0</ele><time>2026-05-03T07:11:24.284Z</time></trkpt><trkpt lat="43.9295311" lon="10.5107695"><ele>83.0</ele><time>2026-05-03T07:11:25.282Z</time></trkpt><trkpt lat="43.9294241" lon="10.510516"><ele>83.0</ele><time>2026-05-03T07:11:26.283Z</time></trkpt><trkpt lat="43.9293472" lon="10.5102256"><ele>83.0</ele><time>2026-05-03T07:11:27.284Z</time></trkpt><trkpt lat="43.9292758" lon="10.5099708"><ele>76.0</ele><time>2026-05-03T07:11:28.28Z</time></trkpt><trkpt lat="43.9292182" lon="10.5097402"><ele>69.0</ele><time>2026-05-03T07:11:29.269Z</time></trkpt><trkpt lat="43.929192" lon="10.509534"><ele>62.0</ele><time>2026-05-03T07:11:30.271Z</time></trkpt><trkpt lat="43.929186" lon="10.5093107"><ele>62.0</ele><time>2026-05-03T07:11:31.279Z</time></trkpt><trkpt lat="43.9291762" lon="10.5091406"><ele>62.0</ele><time>2026-05-03T07:11:32.281Z</time></trkpt><trkpt lat="43.9292217" lon="10.5089176"><ele>62.0</ele><time>2026-05-03T07:11:33.278Z</time></trkpt><trkpt lat="43.9292808" lon="10.5086993"><ele>67.66666666666667</ele><time>2026-05-03T07:11:34.285Z</time></trkpt><trkpt lat="43.9293751" lon="10.5084948"><ele>73.33333333333333</ele><time>2026-05-03T07:11:35.296Z</time></trkpt><trkpt lat="43.9294339" lon="10.508301"><ele>79.0</ele><time>2026-05-03T07:11:36.3Z</time></trkpt><trkpt lat="43.9294982" lon="10.5081135"><ele>75.33333333333333</ele><time>2026-05-03T07:11:37.3Z</time></trkpt><trkpt lat="43.9295903" lon="10.507896"><ele>71.66666666666667</ele><time>2026-05-03T07:11:38.299Z</time></trkpt><trkpt lat="43.9296684" lon="10.5077341"><ele>68.0</ele><time>2026-05-03T07:11:39.299Z</time></trkpt><trkpt lat="43.9297548" lon="10.5075932"><ele>68.0</ele><time>2026-05-03T07:11:40.293Z</time></trkpt><trkpt lat="43.9298446" lon="10.5074839"><ele>68.0</ele><time>2026-05-03T07:11:41.296Z</time></trkpt><trkpt lat="43.9299553" lon="10.5073417"><ele>68.0</ele><time>2026-05-03T07:11:42.298Z</time></trkpt><trkpt lat="43.9300557" lon="10.5072117"><ele>68.0</ele><time>2026-05-03T07:11:43.301Z</time></trkpt><trkpt lat="43.9301588" lon="10.5071843"><ele>65.75</ele><time>2026-05-03T07:11:44.3Z</time></trkpt><trkpt lat="43.930265" lon="10.5070581"><ele>63.5</ele><time>2026-05-03T07:11:45.299Z</time></trkpt><trkpt lat="43.9303775" lon="10.5070021"><ele>61.25</ele><time>2026-05-03T07:11:46.286Z</time></trkpt><trkpt lat="43.9305067" lon="10.5069718"><ele>59.0</ele><time>2026-05-03T07:11:47.292Z</time></trkpt><trkpt lat="43.9306454" lon="10.5069647"><ele>59.0</ele><time>2026-05-03T07:11:48.29Z</time></trkpt><trkpt lat="43.9307873" lon="10.5069635"><ele>59.0</ele><time>2026-05-03T07:11:49.289Z</time></trkpt><trkpt lat="43.9309354" lon="10.507027"><ele>59.0</ele><time>2026-05-03T07:11:50.29Z</time></trkpt><trkpt lat="43.9311186" lon="10.5071057"><ele>57.75</ele><time>2026-05-03T07:11:51.28Z</time></trkpt><trkpt lat="43.931265" lon="10.5071862"><ele>56.5</ele><time>2026-05-03T07:11:52.287Z</time></trkpt><trkpt lat="43.9313732" lon="10.5072377"><ele>55.25</ele><time>2026-05-03T07:11:53.287Z</time></trkpt><trkpt lat="43.9315184" lon="10.5072644"><ele>54.0</ele><time>2026-05-03T07:11:54.287Z</time></trkpt><trkpt lat="43.9316635" lon="10.507328"><ele>55.5</ele><time>2026-05-03T07:11:55.283Z</time></trkpt><trkpt lat="43.931791" lon="10.5073829"><ele>57.0</ele><time>2026-05-03T07:11:56.284Z</time></trkpt><trkpt lat="43.9319499" lon="10.5074244"><ele>58.5</ele><time>2026-05-03T07:11:57.283Z</time></trkpt><trkpt lat="43.9320783" lon="10.5074784"><ele>60.0</ele><time>2026-05-03T07:11:58.287Z</time></trkpt><trkpt lat="43.9322541" lon="10.5075287"><ele>60.0</ele><time>2026-05-03T07:11:59.281Z</time></trkpt><trkpt lat="43.9324465" lon="10.5075827"><ele>60.0</ele><time>2026-05-03T07:12:00.285Z</time></trkpt><trkpt lat="43.9326137" lon="10.5076255"><ele>60.0</ele><time>2026-05-03T07:12:01.28Z</time></trkpt><trkpt lat="43.9327912" lon="10.5076558"><ele>66.0</ele><time>2026-05-03T07:12:02.288Z</time></trkpt><trkpt lat="43.9329712" lon="10.5076448"><ele>72.0</ele><time>2026-05-03T07:12:03.291Z</time></trkpt><trkpt lat="43.9331273" lon="10.5076664"><ele>78.0</ele><time>2026-05-03T07:12:04.283Z</time></trkpt><trkpt lat="43.933292" lon="10.5077001"><ele>73.33333333333333</ele><time>2026-05-03T07:12:05.288Z</time></trkpt><trkpt lat="43.9334551" lon="10.5077376"><ele>68.66666666666666</ele><time>2026-05-03T07:12:06.285Z</time></trkpt><trkpt lat="43.9336" lon="10.5077219"><ele>64.0</ele><time>2026-05-03T07:12:07.289Z</time></trkpt><trkpt lat="43.9337437" lon="10.5076859"><ele>64.0</ele><time>2026-05-03T07:12:08.282Z</time></trkpt><trkpt lat="43.9338763" lon="10.5075972"><ele>64.0</ele><time>2026-05-03T07:12:09.275Z</time></trkpt><trkpt lat="43.9340191" lon="10.5074844"><ele>64.0</ele><time>2026-05-03T07:12:10.275Z</time></trkpt><trkpt lat="43.934132" lon="10.5072737"><ele>61.33333333333333</ele><time>2026-05-03T07:12:11.281Z</time></trkpt><trkpt lat="43.9342145" lon="10.5070451"><ele>58.66666666666667</ele><time>2026-05-03T07:12:12.282Z</time></trkpt><trkpt lat="43.9343172" lon="10.5068316"><ele>56.0</ele><time>2026-05-03T07:12:13.283Z</time></trkpt><trkpt lat="43.9343562" lon="10.5065977"><ele>56.0</ele><time>2026-05-03T07:12:14.281Z</time></trkpt><trkpt lat="43.9343829" lon="10.5063401"><ele>56.0</ele><time>2026-05-03T07:12:15.281Z</time></trkpt><trkpt lat="43.934394" lon="10.5061143"><ele>56.0</ele><time>2026-05-03T07:12:16.262Z</time></trkpt><trkpt lat="43.9343305" lon="10.5058492"><ele>55.66666666666667</ele><time>2026-05-03T07:12:17.278Z</time></trkpt><trkpt lat="43.9343003" lon="10.5056137"><ele>55.33333333333333</ele><time>2026-05-03T07:12:18.276Z</time></trkpt><trkpt lat="43.9342878" lon="10.5053751"><ele>55.0</ele><time>2026-05-03T07:12:19.28Z</time></trkpt><trkpt lat="43.9342879" lon="10.5051692"><ele>55.0</ele><time>2026-05-03T07:12:20.281Z</time></trkpt><trkpt lat="43.9343124" lon="10.5049539"><ele>55.0</ele><time>2026-05-03T07:12:21.276Z</time></trkpt><trkpt lat="43.9343515" lon="10.504695"><ele>55.0</ele><time>2026-05-03T07:12:22.281Z</time></trkpt><trkpt lat="43.9343706" lon="10.5044807"><ele>54.666666666666664</ele><time>2026-05-03T07:12:23.283Z</time></trkpt><trkpt lat="43.9343834" lon="10.5042678"><ele>54.33333333333333</ele><time>2026-05-03T07:12:24.277Z</time></trkpt><trkpt lat="43.9343979" lon="10.5040598"><ele>54.0</ele><time>2026-05-03T07:12:25.276Z</time></trkpt><trkpt lat="43.9344213" lon="10.5038372"><ele>54.66666666666667</ele><time>2026-05-03T07:12:26.277Z</time></trkpt><trkpt lat="43.9344298" lon="10.5036042"><ele>55.333333333333336</ele><time>2026-05-03T07:12:27.286Z</time></trkpt><trkpt lat="43.934454" lon="10.5033726"><ele>56.0</ele><time>2026-05-03T07:12:28.278Z</time></trkpt><trkpt lat="43.9344946" lon="10.5029214"><ele>56.333333333333336</ele><time>2026-05-03T07:12:30.281Z</time></trkpt><trkpt lat="43.9345128" lon="10.5026645"><ele>56.66666666666667</ele><time>2026-05-03T07:12:31.259Z</time></trkpt><trkpt lat="43.9345206" lon="10.5023984"><ele>57.0</ele><time>2026-05-03T07:12:32.259Z</time></trkpt><trkpt lat="43.9345348" lon="10.5021548"><ele>58.0</ele><time>2026-05-03T07:12:33.273Z</time></trkpt><trkpt lat="43.9345608" lon="10.5019248"><ele>59.0</ele><time>2026-05-03T07:12:34.283Z</time></trkpt><trkpt lat="43.9345984" lon="10.5017207"><ele>60.0</ele><time>2026-05-03T07:12:35.278Z</time></trkpt><trkpt lat="43.9346227" lon="10.5014847"><ele>64.33333333333333</ele><time>2026-05-03T07:12:36.283Z</time></trkpt><trkpt lat="43.9346706" lon="10.5012463"><ele>68.66666666666666</ele><time>2026-05-03T07:12:37.281Z</time></trkpt><trkpt lat="43.9346982" lon="10.501022"><ele>73.0</ele><time>2026-05-03T07:12:38.273Z</time></trkpt><trkpt lat="43.9347335" lon="10.5007999"><ele>73.0</ele><time>2026-05-03T07:12:39.269Z</time></trkpt><trkpt lat="43.9347886" lon="10.5005946"><ele>73.0</ele><time>2026-05-03T07:12:40.272Z</time></trkpt><trkpt lat="43.9348731" lon="10.5003966"><ele>73.0</ele><time>2026-05-03T07:12:41.277Z</time></trkpt><trkpt lat="43.9349726" lon="10.5002026"><ele>68.33333333333333</ele><time>2026-05-03T07:12:42.284Z</time></trkpt><trkpt lat="43.9350914" lon="10.499983"><ele>63.66666666666667</ele><time>2026-05-03T07:12:43.287Z</time></trkpt><trkpt lat="43.9352215" lon="10.4997967"><ele>59.0</ele><time>2026-05-03T07:12:44.274Z</time></trkpt><trkpt lat="43.9353225" lon="10.4996317"><ele>63.66666666666667</ele><time>2026-05-03T07:12:45.275Z</time></trkpt><trkpt lat="43.9354172" lon="10.4994584"><ele>68.33333333333333</ele><time>2026-05-03T07:12:46.278Z</time></trkpt><trkpt lat="43.9355057" lon="10.4992879"><ele>73.0</ele><time>2026-05-03T07:12:47.276Z</time></trkpt><trkpt lat="43.9356039" lon="10.4991228"><ele>73.0</ele><time>2026-05-03T07:12:48.282Z</time></trkpt><trkpt lat="43.9357555" lon="10.4989803"><ele>73.0</ele><time>2026-05-03T07:12:49.273Z</time></trkpt><trkpt lat="43.9359126" lon="10.4987878"><ele>73.0</ele><time>2026-05-03T07:12:50.281Z</time></trkpt><trkpt lat="43.9360502" lon="10.4986104"><ele>71.33333333333333</ele><time>2026-05-03T07:12:51.284Z</time></trkpt><trkpt lat="43.9361767" lon="10.4984599"><ele>69.66666666666667</ele><time>2026-05-03T07:12:52.281Z</time></trkpt><trkpt lat="43.9363258" lon="10.4983009"><ele>68.0</ele><time>2026-05-03T07:12:53.282Z</time></trkpt><trkpt lat="43.9364664" lon="10.4981402"><ele>68.0</ele><time>2026-05-03T07:12:54.278Z</time></trkpt><trkpt lat="43.9366108" lon="10.4979524"><ele>68.0</ele><time>2026-05-03T07:12:55.283Z</time></trkpt><trkpt lat="43.9367627" lon="10.4978104"><ele>68.0</ele><time>2026-05-03T07:12:56.285Z</time></trkpt><trkpt lat="43.9368854" lon="10.4976377"><ele>68.5</ele><time>2026-05-03T07:12:57.284Z</time></trkpt><trkpt lat="43.9370384" lon="10.4974418"><ele>69.0</ele><time>2026-05-03T07:12:58.282Z</time></trkpt><trkpt lat="43.9372041" lon="10.4971821"><ele>78.5</ele><time>2026-05-03T07:12:59.282Z</time></trkpt><trkpt lat="43.937356" lon="10.4969221"><ele>88.0</ele><time>2026-05-03T07:13:00.285Z</time></trkpt><trkpt lat="43.9375378" lon="10.4966423"><ele>80.5</ele><time>2026-05-03T07:13:01.286Z</time></trkpt><trkpt lat="43.9377106" lon="10.4963916"><ele>73.0</ele><time>2026-05-03T07:13:02.29Z</time></trkpt><trkpt lat="43.9378663" lon="10.4961437"><ele>73.0</ele><time>2026-05-03T07:13:03.27Z</time></trkpt><trkpt lat="43.9379884" lon="10.4959458"><ele>73.0</ele><time>2026-05-03T07:13:04.275Z</time></trkpt><trkpt lat="43.9381343" lon="10.4957586"><ele>73.0</ele><time>2026-05-03T07:13:05.285Z</time></trkpt><trkpt lat="43.9382434" lon="10.4955787"><ele>71.33333333333333</ele><time>2026-05-03T07:13:06.288Z</time></trkpt><trkpt lat="43.938358" lon="10.4953944"><ele>69.66666666666667</ele><time>2026-05-03T07:13:07.28Z</time></trkpt><trkpt lat="43.9384684" lon="10.4952116"><ele>68.0</ele><time>2026-05-03T07:13:08.281Z</time></trkpt><trkpt lat="43.9385718" lon="10.4950151"><ele>68.0</ele><time>2026-05-03T07:13:09.282Z</time></trkpt><trkpt lat="43.9386821" lon="10.4948562"><ele>68.0</ele><time>2026-05-03T07:13:10.289Z</time></trkpt><trkpt lat="43.9388537" lon="10.4947791"><ele>68.0</ele><time>2026-05-03T07:13:11.282Z</time></trkpt><trkpt lat="43.9390647" lon="10.4946952"><ele>67.0</ele><time>2026-05-03T07:13:12.286Z</time></trkpt><trkpt lat="43.9392342" lon="10.4947326"><ele>66.0</ele><time>2026-05-03T07:13:13.286Z</time></trkpt><trkpt lat="43.9394064" lon="10.4947573"><ele>65.0</ele><time>2026-05-03T07:13:14.285Z</time></trkpt><trkpt lat="43.9395611" lon="10.4947449"><ele>65.0</ele><time>2026-05-03T07:13:15.286Z</time></trkpt><trkpt lat="43.939685" lon="10.4948503"><ele>65.0</ele><time>2026-05-03T07:13:16.293Z</time></trkpt><trkpt lat="43.9398284" lon="10.4949037"><ele>65.0</ele><time>2026-05-03T07:13:17.288Z</time></trkpt><trkpt lat="43.9400057" lon="10.4949933"><ele>64.33333333333334</ele><time>2026-05-03T07:13:18.288Z</time></trkpt><trkpt lat="43.9401674" lon="10.4950709"><ele>63.66666666666667</ele><time>2026-05-03T07:13:19.29Z</time></trkpt><trkpt lat="43.9403219" lon="10.4951852"><ele>63.0</ele><time>2026-05-03T07:13:20.293Z</time></trkpt><trkpt lat="43.9404348" lon="10.4952997"><ele>63.0</ele><time>2026-05-03T07:13:21.295Z</time></trkpt><trkpt lat="43.9405947" lon="10.495379"><ele>63.0</ele><time>2026-05-03T07:13:22.29Z</time></trkpt><trkpt lat="43.9407821" lon="10.4954531"><ele>63.0</ele><time>2026-05-03T07:13:23.294Z</time></trkpt><trkpt lat="43.9409746" lon="10.4955255"><ele>63.33333333333333</ele><time>2026-05-03T07:13:24.292Z</time></trkpt><trkpt lat="43.9411624" lon="10.4956154"><ele>63.666666666666664</ele><time>2026-05-03T07:13:25.291Z</time></trkpt><trkpt lat="43.941326" lon="10.4956928"><ele>64.0</ele><time>2026-05-03T07:13:26.294Z</time></trkpt><trkpt lat="43.9414593" lon="10.4957719"><ele>64.0</ele><time>2026-05-03T07:13:27.294Z</time></trkpt><trkpt lat="43.9415988" lon="10.4958343"><ele>64.0</ele><time>2026-05-03T07:13:28.294Z</time></trkpt><trkpt lat="43.9417477" lon="10.4958937"><ele>64.0</ele><time>2026-05-03T07:13:29.293Z</time></trkpt><trkpt lat="43.9419014" lon="10.4959832"><ele>63.666666666666664</ele><time>2026-05-03T07:13:30.288Z</time></trkpt><trkpt lat="43.942071" lon="10.4960725"><ele>63.33333333333333</ele><time>2026-05-03T07:13:31.298Z</time></trkpt><trkpt lat="43.9422545" lon="10.4961524"><ele>63.0</ele><time>2026-05-03T07:13:32.299Z</time></trkpt><trkpt lat="43.9424063" lon="10.4962485"><ele>63.33333333333333</ele><time>2026-05-03T07:13:33.293Z</time></trkpt><trkpt lat="43.9425469" lon="10.4963755"><ele>63.666666666666664</ele><time>2026-05-03T07:13:34.297Z</time></trkpt><trkpt lat="43.9426798" lon="10.4964878"><ele>64.0</ele><time>2026-05-03T07:13:35.295Z</time></trkpt><trkpt lat="43.9428004" lon="10.4965416"><ele>64.0</ele><time>2026-05-03T07:13:36.291Z</time></trkpt><trkpt lat="43.9429207" lon="10.4966452"><ele>64.0</ele><time>2026-05-03T07:13:37.289Z</time></trkpt><trkpt lat="43.9430188" lon="10.4967392"><ele>64.0</ele><time>2026-05-03T07:13:38.29Z</time></trkpt><trkpt lat="43.9431647" lon="10.4967413"><ele>64.0</ele><time>2026-05-03T07:13:39.289Z</time></trkpt><trkpt lat="43.9432962" lon="10.4967453"><ele>63.666666666666664</ele><time>2026-05-03T07:13:40.298Z</time></trkpt><trkpt lat="43.9434257" lon="10.4967405"><ele>63.33333333333333</ele><time>2026-05-03T07:13:41.297Z</time></trkpt><trkpt lat="43.9435886" lon="10.4967636"><ele>63.0</ele><time>2026-05-03T07:13:42.3Z</time></trkpt><trkpt lat="43.9437837" lon="10.4968577"><ele>63.0</ele><time>2026-05-03T07:13:43.296Z</time></trkpt><trkpt lat="43.9439824" lon="10.4969244"><ele>63.0</ele><time>2026-05-03T07:13:44.294Z</time></trkpt><trkpt lat="43.9442151" lon="10.4969857"><ele>63.0</ele><time>2026-05-03T07:13:45.298Z</time></trkpt><trkpt lat="43.9444117" lon="10.4970971"><ele>63.33333333333333</ele><time>2026-05-03T07:13:46.294Z</time></trkpt><trkpt lat="43.9446096" lon="10.4972096"><ele>63.666666666666664</ele><time>2026-05-03T07:13:47.305Z</time></trkpt><trkpt lat="43.9447993" lon="10.4972961"><ele>64.0</ele><time>2026-05-03T07:13:48.29Z</time></trkpt><trkpt lat="43.9450037" lon="10.4973889"><ele>68.33333333333333</ele><time>2026-05-03T07:13:49.292Z</time></trkpt><trkpt lat="43.9452031" lon="10.4974656"><ele>72.66666666666667</ele><time>2026-05-03T07:13:50.292Z</time></trkpt><trkpt lat="43.9454179" lon="10.4975458"><ele>77.0</ele><time>2026-05-03T07:13:51.294Z</time></trkpt><trkpt lat="43.9459074" lon="10.4977207"><ele>83.0</ele><time>2026-05-03T07:13:53.294Z</time></trkpt><trkpt lat="43.9461645" lon="10.4978499"><ele>89.0</ele><time>2026-05-03T07:13:54.287Z</time></trkpt><trkpt lat="43.946402" lon="10.4979698"><ele>82.0</ele><time>2026-05-03T07:13:55.273Z</time></trkpt><trkpt lat="43.9466093" lon="10.4980733"><ele>75.0</ele><time>2026-05-03T07:13:56.284Z</time></trkpt><trkpt lat="43.9468216" lon="10.4981624"><ele>68.0</ele><time>2026-05-03T07:13:57.305Z</time></trkpt><trkpt lat="43.947014" lon="10.4982501"><ele>68.0</ele><time>2026-05-03T07:13:58.294Z</time></trkpt><trkpt lat="43.9472171" lon="10.4983394"><ele>68.0</ele><time>2026-05-03T07:13:59.291Z</time></trkpt><trkpt lat="43.9474352" lon="10.4984132"><ele>68.0</ele><time>2026-05-03T07:14:00.288Z</time></trkpt><trkpt lat="43.9476442" lon="10.4984933"><ele>70.66666666666667</ele><time>2026-05-03T07:14:01.289Z</time></trkpt><trkpt lat="43.9478438" lon="10.498571"><ele>73.33333333333333</ele><time>2026-05-03T07:14:02.305Z</time></trkpt><trkpt lat="43.9480357" lon="10.4986524"><ele>76.0</ele><time>2026-05-03T07:14:03.292Z</time></trkpt><trkpt lat="43.9482365" lon="10.498724"><ele>72.33333333333333</ele><time>2026-05-03T07:14:04.29Z</time></trkpt><trkpt lat="43.9484279" lon="10.4988054"><ele>68.66666666666667</ele><time>2026-05-03T07:14:05.286Z</time></trkpt><trkpt lat="43.9486566" lon="10.4988948"><ele>65.0</ele><time>2026-05-03T07:14:06.288Z</time></trkpt><trkpt lat="43.9488747" lon="10.4989719"><ele>65.0</ele><time>2026-05-03T07:14:07.303Z</time></trkpt><trkpt lat="43.9490934" lon="10.4990499"><ele>65.0</ele><time>2026-05-03T07:14:08.291Z</time></trkpt><trkpt lat="43.9493166" lon="10.499138"><ele>65.0</ele><time>2026-05-03T07:14:09.289Z</time></trkpt><trkpt lat="43.9494979" lon="10.4992195"><ele>65.0</ele><time>2026-05-03T07:14:10.291Z</time></trkpt><trkpt lat="43.94969" lon="10.4992956"><ele>65.0</ele><time>2026-05-03T07:14:11.288Z</time></trkpt><trkpt lat="43.9498712" lon="10.4993833"><ele>64.66666666666667</ele><time>2026-05-03T07:14:12.304Z</time></trkpt><trkpt lat="43.9500774" lon="10.4994568"><ele>64.33333333333333</ele><time>2026-05-03T07:14:13.29Z</time></trkpt><trkpt lat="43.9502971" lon="10.4995429"><ele>64.0</ele><time>2026-05-03T07:14:14.293Z</time></trkpt><trkpt lat="43.950524" lon="10.4996372"><ele>64.0</ele><time>2026-05-03T07:14:15.292Z</time></trkpt><trkpt lat="43.9507278" lon="10.4997267"><ele>64.0</ele><time>2026-05-03T07:14:16.292Z</time></trkpt><trkpt lat="43.9509098" lon="10.4998018"><ele>64.0</ele><time>2026-05-03T07:14:17.288Z</time></trkpt><trkpt lat="43.9510731" lon="10.4998812"><ele>63.666666666666664</ele><time>2026-05-03T07:14:18.303Z</time></trkpt><trkpt lat="43.9512334" lon="10.4999555"><ele>63.33333333333333</ele><time>2026-05-03T07:14:19.292Z</time></trkpt><trkpt lat="43.9514097" lon="10.5000146"><ele>63.0</ele><time>2026-05-03T07:14:20.291Z</time></trkpt><trkpt lat="43.9516082" lon="10.5000872"><ele>63.33333333333333</ele><time>2026-05-03T07:14:21.292Z</time></trkpt><trkpt lat="43.9518085" lon="10.5001809"><ele>63.666666666666664</ele><time>2026-05-03T07:14:22.291Z</time></trkpt><trkpt lat="43.9519918" lon="10.5002814"><ele>64.0</ele><time>2026-05-03T07:14:23.305Z</time></trkpt><trkpt lat="43.9521727" lon="10.5003741"><ele>64.0</ele><time>2026-05-03T07:14:24.293Z</time></trkpt><trkpt lat="43.9523487" lon="10.5004727"><ele>64.0</ele><time>2026-05-03T07:14:25.291Z</time></trkpt><trkpt lat="43.9525229" lon="10.5005591"><ele>64.0</ele><time>2026-05-03T07:14:26.29Z</time></trkpt><trkpt lat="43.952686" lon="10.5006605"><ele>64.33333333333333</ele><time>2026-05-03T07:14:27.292Z</time></trkpt><trkpt lat="43.952863" lon="10.5007731"><ele>64.66666666666667</ele><time>2026-05-03T07:14:28.303Z</time></trkpt><trkpt lat="43.9530334" lon="10.500878"><ele>65.0</ele><time>2026-05-03T07:14:29.291Z</time></trkpt><trkpt lat="43.9531922" lon="10.5009699"><ele>65.0</ele><time>2026-05-03T07:14:30.29Z</time></trkpt><trkpt lat="43.9533211" lon="10.5010745"><ele>65.0</ele><time>2026-05-03T07:14:31.292Z</time></trkpt><trkpt lat="43.9534425" lon="10.5011823"><ele>65.0</ele><time>2026-05-03T07:14:32.292Z</time></trkpt><trkpt lat="43.9535887" lon="10.5012908"><ele>64.66666666666667</ele><time>2026-05-03T07:14:33.305Z</time></trkpt><trkpt lat="43.9537342" lon="10.5013657"><ele>64.33333333333333</ele><time>2026-05-03T07:14:34.293Z</time></trkpt><trkpt lat="43.9539133" lon="10.5014695"><ele>64.0</ele><time>2026-05-03T07:14:35.292Z</time></trkpt><trkpt lat="43.9540908" lon="10.5015867"><ele>64.33333333333333</ele><time>2026-05-03T07:14:36.291Z</time></trkpt><trkpt lat="43.9542911" lon="10.5017053"><ele>64.66666666666667</ele><time>2026-05-03T07:14:37.291Z</time></trkpt><trkpt lat="43.9544928" lon="10.5018291"><ele>65.0</ele><time>2026-05-03T07:14:38.305Z</time></trkpt><trkpt lat="43.9547078" lon="10.5019662"><ele>64.5</ele><time>2026-05-03T07:14:39.291Z</time></trkpt><trkpt lat="43.9548902" lon="10.50214"><ele>64.0</ele><time>2026-05-03T07:14:40.289Z</time></trkpt><trkpt lat="43.9550922" lon="10.5022932"><ele>64.0</ele><time>2026-05-03T07:14:41.291Z</time></trkpt><trkpt lat="43.955287" lon="10.5024241"><ele>64.0</ele><time>2026-05-03T07:14:42.29Z</time></trkpt><trkpt lat="43.9554992" lon="10.5025743"><ele>64.0</ele><time>2026-05-03T07:14:43.301Z</time></trkpt><trkpt lat="43.9556878" lon="10.5027157"><ele>64.0</ele><time>2026-05-03T07:14:44.291Z</time></trkpt><trkpt lat="43.9558772" lon="10.5028521"><ele>64.0</ele><time>2026-05-03T07:14:45.293Z</time></trkpt><trkpt lat="43.9560667" lon="10.5029936"><ele>64.66666666666666</ele><time>2026-05-03T07:14:46.293Z</time></trkpt><trkpt lat="43.9562623" lon="10.50313"><ele>65.33333333333333</ele><time>2026-05-03T07:14:47.294Z</time></trkpt><trkpt lat="43.9564353" lon="10.5032557"><ele>66.0</ele><time>2026-05-03T07:14:48.293Z</time></trkpt><trkpt lat="43.9565965" lon="10.5033961"><ele>66.66666666666667</ele><time>2026-05-03T07:14:49.308Z</time></trkpt><trkpt lat="43.9567428" lon="10.5035273"><ele>67.33333333333334</ele><time>2026-05-03T07:14:50.29Z</time></trkpt><trkpt lat="43.9569158" lon="10.5036573"><ele>68.0</ele><time>2026-05-03T07:14:51.291Z</time></trkpt><trkpt lat="43.957111" lon="10.5037977"><ele>68.33333333333334</ele><time>2026-05-03T07:14:52.29Z</time></trkpt><trkpt lat="43.9572993" lon="10.5039331"><ele>68.66666666666667</ele><time>2026-05-03T07:14:53.294Z</time></trkpt><trkpt lat="43.9574827" lon="10.5040559"><ele>69.0</ele><time>2026-05-03T07:14:54.301Z</time></trkpt><trkpt lat="43.9576387" lon="10.5041707"><ele>69.25</ele><time>2026-05-03T07:14:55.292Z</time></trkpt><trkpt lat="43.9577719" lon="10.5042615"><ele>69.5</ele><time>2026-05-03T07:14:56.292Z</time></trkpt><trkpt lat="43.9578934" lon="10.5043403"><ele>69.75</ele><time>2026-05-03T07:14:57.293Z</time></trkpt><trkpt lat="43.9579918" lon="10.5044141"><ele>70.0</ele><time>2026-05-03T07:14:58.292Z</time></trkpt><trkpt lat="43.9580826" lon="10.5044955"><ele>70.0</ele><time>2026-05-03T07:14:59.306Z</time></trkpt><trkpt lat="43.9581613" lon="10.5045747"><ele>70.0</ele><time>2026-05-03T07:15:00.291Z</time></trkpt><trkpt lat="43.9582281" lon="10.5046664"><ele>70.0</ele><time>2026-05-03T07:15:01.281Z</time></trkpt><trkpt lat="43.9582921" lon="10.50479"><ele>70.0</ele><time>2026-05-03T07:15:02.281Z</time></trkpt><trkpt lat="43.9583649" lon="10.5048985"><ele>70.0</ele><time>2026-05-03T07:15:03.28Z</time></trkpt><trkpt lat="43.9584671" lon="10.5049347"><ele>70.16666666666666</ele><time>2026-05-03T07:15:05.291Z</time></trkpt><trkpt lat="43.9585434" lon="10.504837"><ele>70.33333333333333</ele><time>2026-05-03T07:15:07.286Z</time></trkpt><trkpt lat="43.9585595" lon="10.5047489"><ele>70.5</ele><time>2026-05-03T07:15:08.287Z</time></trkpt><trkpt lat="43.9585484" lon="10.5046307"><ele>70.66666666666667</ele><time>2026-05-03T07:15:09.298Z</time></trkpt><trkpt lat="43.9585164" lon="10.5045441"><ele>70.83333333333334</ele><time>2026-05-03T07:15:10.287Z</time></trkpt><trkpt lat="43.9584523" lon="10.5044913"><ele>71.0</ele><time>2026-05-03T07:15:11.286Z</time></trkpt><trkpt lat="43.9583908" lon="10.504428"><ele>70.83333333333334</ele><time>2026-05-03T07:15:12.283Z</time></trkpt><trkpt lat="43.9583251" lon="10.5043978"><ele>70.66666666666667</ele><time>2026-05-03T07:15:13.28Z</time></trkpt><trkpt lat="43.9582557" lon="10.5044172"><ele>70.5</ele><time>2026-05-03T07:15:14.293Z</time></trkpt><trkpt lat="43.9581852" lon="10.504507"><ele>70.33333333333333</ele><time>2026-05-03T07:15:15.276Z</time></trkpt><trkpt lat="43.9581551" lon="10.5046068"><ele>70.16666666666666</ele><time>2026-05-03T07:15:16.281Z</time></trkpt><trkpt lat="43.9581688" lon="10.5047136"><ele>70.0</ele><time>2026-05-03T07:15:17.28Z</time></trkpt><trkpt lat="43.9582498" lon="10.5048219"><ele>70.0</ele><time>2026-05-03T07:15:18.278Z</time></trkpt><trkpt lat="43.9583323" lon="10.5048964"><ele>70.0</ele><time>2026-05-03T07:15:19.295Z</time></trkpt><trkpt lat="43.9584542" lon="10.5049413"><ele>70.0</ele><time>2026-05-03T07:15:20.29Z</time></trkpt><trkpt lat="43.9585436" lon="10.5049341"><ele>70.0</ele><time>2026-05-03T07:15:21.287Z</time></trkpt><trkpt lat="43.9586411" lon="10.5048055"><ele>70.0</ele><time>2026-05-03T07:15:23.292Z</time></trkpt><trkpt lat="43.9586718" lon="10.5046562"><ele>70.25</ele><time>2026-05-03T07:15:24.301Z</time></trkpt><trkpt lat="43.9587136" lon="10.5044858"><ele>70.5</ele><time>2026-05-03T07:15:25.291Z</time></trkpt><trkpt lat="43.9587658" lon="10.5043186"><ele>70.75</ele><time>2026-05-03T07:15:26.289Z</time></trkpt><trkpt lat="43.9588319" lon="10.5041939"><ele>71.0</ele><time>2026-05-03T07:15:27.29Z</time></trkpt><trkpt lat="43.9588987" lon="10.5041132"><ele>71.0</ele><time>2026-05-03T07:15:28.286Z</time></trkpt><trkpt lat="43.9589743" lon="10.5040641"><ele>71.0</ele><time>2026-05-03T07:15:29.3Z</time></trkpt><trkpt lat="43.9590396" lon="10.5040889"><ele>71.0</ele><time>2026-05-03T07:15:30.29Z</time></trkpt><trkpt lat="43.9590976" lon="10.504125"><ele>71.0</ele><time>2026-05-03T07:15:31.291Z</time></trkpt><trkpt lat="43.9591818" lon="10.5041666"><ele>71.0</ele><time>2026-05-03T07:15:33.29Z</time></trkpt><trkpt lat="43.9592421" lon="10.5042245"><ele>71.0</ele><time>2026-05-03T07:15:36.291Z</time></trkpt><trkpt lat="43.9591244" lon="10.5041658"><ele>71.0</ele><time>2026-05-03T07:15:56.289Z</time></trkpt><trkpt lat="43.9590361" lon="10.5041871"><ele>71.0</ele><time>2026-05-03T07:15:57.29Z</time></trkpt><trkpt lat="43.9589638" lon="10.5041923"><ele>71.0</ele><time>2026-05-03T07:15:58.287Z</time></trkpt><trkpt lat="43.95888" lon="10.5041685"><ele>71.0</ele><time>2026-05-03T07:15:59.305Z</time></trkpt><trkpt lat="43.9587794" lon="10.5041593"><ele>71.0</ele><time>2026-05-03T07:16:00.289Z</time></trkpt><trkpt lat="43.9586839" lon="10.5041827"><ele>71.0</ele><time>2026-05-03T07:16:01.288Z</time></trkpt><trkpt lat="43.958609" lon="10.5042518"><ele>71.0</ele><time>2026-05-03T07:16:02.287Z</time></trkpt><trkpt lat="43.9585387" lon="10.5043162"><ele>71.0</ele><time>2026-05-03T07:16:03.29Z</time></trkpt><trkpt lat="43.9584709" lon="10.5043615"><ele>71.0</ele><time>2026-05-03T07:16:04.3Z</time></trkpt><trkpt lat="43.958422" lon="10.5044183"><ele>71.0</ele><time>2026-05-03T07:16:05.289Z</time></trkpt><trkpt lat="43.9583622" lon="10.5044731"><ele>71.0</ele><time>2026-05-03T07:16:06.283Z</time></trkpt><trkpt lat="43.9583048" lon="10.5045461"><ele>71.0</ele><time>2026-05-03T07:16:07.283Z</time></trkpt><trkpt lat="43.9582657" lon="10.504637"><ele>71.0</ele><time>2026-05-03T07:16:08.281Z</time></trkpt><trkpt lat="43.9582541" lon="10.5047343"><ele>71.0</ele><time>2026-05-03T07:16:09.294Z</time></trkpt><trkpt lat="43.9582602" lon="10.5048355"><ele>71.0</ele><time>2026-05-03T07:16:10.286Z</time></trkpt><trkpt lat="43.9583033" lon="10.5049227"><ele>71.0</ele><time>2026-05-03T07:16:11.287Z</time></trkpt><trkpt lat="43.9583652" lon="10.5049842"><ele>71.0</ele><time>2026-05-03T07:16:12.289Z</time></trkpt><trkpt lat="43.9584723" lon="10.5050329"><ele>71.0</ele><time>2026-05-03T07:16:13.287Z</time></trkpt><trkpt lat="43.9585838" lon="10.5050859"><ele>71.0</ele><time>2026-05-03T07:16:14.298Z</time></trkpt><trkpt lat="43.9586891" lon="10.5051455"><ele>71.0</ele><time>2026-05-03T07:16:15.288Z</time></trkpt><trkpt lat="43.9588114" lon="10.5052117"><ele>71.0</ele><time>2026-05-03T07:16:16.292Z</time></trkpt><trkpt lat="43.9589089" lon="10.505317"><ele>71.0</ele><time>2026-05-03T07:16:17.282Z</time></trkpt><trkpt lat="43.9590002" lon="10.5054372"><ele>71.25</ele><time>2026-05-03T07:16:18.277Z</time></trkpt><trkpt lat="43.9590858" lon="10.5055654"><ele>71.5</ele><time>2026-05-03T07:16:19.296Z</time></trkpt><trkpt lat="43.959176" lon="10.5056885"><ele>71.75</ele><time>2026-05-03T07:16:20.284Z</time></trkpt><trkpt lat="43.9592938" lon="10.505817"><ele>72.0</ele><time>2026-05-03T07:16:21.286Z</time></trkpt><trkpt lat="43.9593848" lon="10.505924"><ele>72.5</ele><time>2026-05-03T07:16:22.282Z</time></trkpt><trkpt lat="43.9594472" lon="10.5060158"><ele>73.0</ele><time>2026-05-03T07:16:23.288Z</time></trkpt><trkpt lat="43.9595673" lon="10.5061675"><ele>73.5</ele><time>2026-05-03T07:16:24.292Z</time></trkpt><trkpt lat="43.9596838" lon="10.5063185"><ele>74.0</ele><time>2026-05-03T07:16:25.281Z</time></trkpt><trkpt lat="43.9597792" lon="10.5064411"><ele>74.0</ele><time>2026-05-03T07:16:26.279Z</time></trkpt><trkpt lat="43.9598899" lon="10.506583"><ele>74.0</ele><time>2026-05-03T07:16:27.282Z</time></trkpt><trkpt lat="43.9600067" lon="10.5067442"><ele>74.0</ele><time>2026-05-03T07:16:28.279Z</time></trkpt><trkpt lat="43.9601102" lon="10.5068774"><ele>74.0</ele><time>2026-05-03T07:16:29.294Z</time></trkpt><trkpt lat="43.9602163" lon="10.5070008"><ele>74.0</ele><time>2026-05-03T07:16:30.278Z</time></trkpt><trkpt lat="43.9603163" lon="10.5071085"><ele>74.0</ele><time>2026-05-03T07:16:31.283Z</time></trkpt><trkpt lat="43.9604139" lon="10.5072428"><ele>74.0</ele><time>2026-05-03T07:16:32.286Z</time></trkpt><trkpt lat="43.960527" lon="10.5073772"><ele>73.5</ele><time>2026-05-03T07:16:33.281Z</time></trkpt><trkpt lat="43.9606286" lon="10.5075374"><ele>73.0</ele><time>2026-05-03T07:16:34.292Z</time></trkpt><trkpt lat="43.9607223" lon="10.5076627"><ele>72.5</ele><time>2026-05-03T07:16:35.281Z</time></trkpt><trkpt lat="43.9608414" lon="10.5078074"><ele>72.0</ele><time>2026-05-03T07:16:36.285Z</time></trkpt><trkpt lat="43.9609559" lon="10.5079582"><ele>72.0</ele><time>2026-05-03T07:16:37.288Z</time></trkpt><trkpt lat="43.9610565" lon="10.5080934"><ele>72.0</ele><time>2026-05-03T07:16:38.282Z</time></trkpt><trkpt lat="43.9611595" lon="10.5082243"><ele>72.0</ele><time>2026-05-03T07:16:39.294Z</time></trkpt><trkpt lat="43.9612658" lon="10.5083737"><ele>72.0</ele><time>2026-05-03T07:16:40.282Z</time></trkpt><trkpt lat="43.9613913" lon="10.5085348"><ele>72.0</ele><time>2026-05-03T07:16:41.284Z</time></trkpt><trkpt lat="43.9615175" lon="10.5087134"><ele>72.0</ele><time>2026-05-03T07:16:42.28Z</time></trkpt><trkpt lat="43.9616564" lon="10.5088962"><ele>72.0</ele><time>2026-05-03T07:16:43.278Z</time></trkpt><trkpt lat="43.9617745" lon="10.5090468"><ele>72.0</ele><time>2026-05-03T07:16:44.294Z</time></trkpt><trkpt lat="43.9619074" lon="10.5091977"><ele>72.0</ele><time>2026-05-03T07:16:45.279Z</time></trkpt><trkpt lat="43.9620333" lon="10.5093393"><ele>72.0</ele><time>2026-05-03T07:16:46.278Z</time></trkpt><trkpt lat="43.9621587" lon="10.5094725"><ele>71.75</ele><time>2026-05-03T07:16:47.278Z</time></trkpt><trkpt lat="43.9622411" lon="10.5096093"><ele>71.5</ele><time>2026-05-03T07:16:48.276Z</time></trkpt><trkpt lat="43.9623494" lon="10.5097643"><ele>71.25</ele><time>2026-05-03T07:16:49.288Z</time></trkpt><trkpt lat="43.9624377" lon="10.5098877"><ele>71.0</ele><time>2026-05-03T07:16:50.275Z</time></trkpt><trkpt lat="43.9625555" lon="10.5100299"><ele>71.0</ele><time>2026-05-03T07:16:51.29Z</time></trkpt><trkpt lat="43.9626548" lon="10.5101832"><ele>71.0</ele><time>2026-05-03T07:16:52.281Z</time></trkpt><trkpt lat="43.9627813" lon="10.5103245"><ele>71.0</ele><time>2026-05-03T07:16:53.287Z</time></trkpt><trkpt lat="43.9629156" lon="10.5104741"><ele>71.0</ele><time>2026-05-03T07:16:54.291Z</time></trkpt><trkpt lat="43.9630439" lon="10.5106335"><ele>71.0</ele><time>2026-05-03T07:16:55.277Z</time></trkpt><trkpt lat="43.9631614" lon="10.5108024"><ele>71.0</ele><time>2026-05-03T07:16:56.281Z</time></trkpt><trkpt lat="43.9632648" lon="10.510946"><ele>71.0</ele><time>2026-05-03T07:16:57.282Z</time></trkpt><trkpt lat="43.9633442" lon="10.5110649"><ele>71.0</ele><time>2026-05-03T07:16:58.282Z</time></trkpt><trkpt lat="43.9634253" lon="10.5111695"><ele>71.0</ele><time>2026-05-03T07:16:59.294Z</time></trkpt><trkpt lat="43.9634967" lon="10.5112739"><ele>71.0</ele><time>2026-05-03T07:17:00.285Z</time></trkpt><trkpt lat="43.9635798" lon="10.5113783"><ele>71.0</ele><time>2026-05-03T07:17:01.287Z</time></trkpt><trkpt lat="43.9636653" lon="10.5114999"><ele>71.75</ele><time>2026-05-03T07:17:02.287Z</time></trkpt><trkpt lat="43.9637733" lon="10.5116341"><ele>72.5</ele><time>2026-05-03T07:17:03.285Z</time></trkpt><trkpt lat="43.9638774" lon="10.5117388"><ele>73.25</ele><time>2026-05-03T07:17:04.292Z</time></trkpt><trkpt lat="43.9639583" lon="10.5118606"><ele>74.0</ele><time>2026-05-03T07:17:05.281Z</time></trkpt><trkpt lat="43.9640673" lon="10.5119938"><ele>73.66666666666667</ele><time>2026-05-03T07:17:06.287Z</time></trkpt><trkpt lat="43.9641848" lon="10.5121524"><ele>73.33333333333333</ele><time>2026-05-03T07:17:07.287Z</time></trkpt><trkpt lat="43.9643092" lon="10.5123112"><ele>73.0</ele><time>2026-05-03T07:17:08.276Z</time></trkpt><trkpt lat="43.9644175" lon="10.5124854"><ele>73.0</ele><time>2026-05-03T07:17:09.292Z</time></trkpt><trkpt lat="43.9645385" lon="10.5126412"><ele>73.0</ele><time>2026-05-03T07:17:10.283Z</time></trkpt><trkpt lat="43.9646582" lon="10.512794"><ele>73.0</ele><time>2026-05-03T07:17:11.284Z</time></trkpt><trkpt lat="43.9647875" lon="10.5129428"><ele>73.0</ele><time>2026-05-03T07:17:12.284Z</time></trkpt><trkpt lat="43.9649134" lon="10.5130891"><ele>73.0</ele><time>2026-05-03T07:17:13.28Z</time></trkpt><trkpt lat="43.9650237" lon="10.513223"><ele>73.0</ele><time>2026-05-03T07:17:14.29Z</time></trkpt><trkpt lat="43.9651288" lon="10.5133747"><ele>73.0</ele><time>2026-05-03T07:17:15.281Z</time></trkpt><trkpt lat="43.9652626" lon="10.5135373"><ele>73.0</ele><time>2026-05-03T07:17:16.284Z</time></trkpt><trkpt lat="43.9653917" lon="10.5136934"><ele>73.0</ele><time>2026-05-03T07:17:17.285Z</time></trkpt><trkpt lat="43.9655023" lon="10.5138631"><ele>73.0</ele><time>2026-05-03T07:17:18.285Z</time></trkpt><trkpt lat="43.9655935" lon="10.514033"><ele>73.0</ele><time>2026-05-03T07:17:19.292Z</time></trkpt><trkpt lat="43.9656874" lon="10.514216"><ele>73.0</ele><time>2026-05-03T07:17:20.285Z</time></trkpt><trkpt lat="43.9658057" lon="10.5144252"><ele>79.0</ele><time>2026-05-03T07:17:21.287Z</time></trkpt><trkpt lat="43.9659339" lon="10.5146382"><ele>85.0</ele><time>2026-05-03T07:17:22.28Z</time></trkpt><trkpt lat="43.9660656" lon="10.5149016"><ele>91.0</ele><time>2026-05-03T07:17:23.29Z</time></trkpt><trkpt lat="43.9661837" lon="10.5151649"><ele>86.33333333333333</ele><time>2026-05-03T07:17:24.282Z</time></trkpt><trkpt lat="43.9662965" lon="10.515443"><ele>81.66666666666667</ele><time>2026-05-03T07:17:25.298Z</time></trkpt><trkpt lat="43.9664134" lon="10.5156974"><ele>77.0</ele><time>2026-05-03T07:17:26.281Z</time></trkpt><trkpt lat="43.9665439" lon="10.5159459"><ele>77.0</ele><time>2026-05-03T07:17:27.28Z</time></trkpt><trkpt lat="43.966672" lon="10.5161893"><ele>77.0</ele><time>2026-05-03T07:17:28.289Z</time></trkpt><trkpt lat="43.9667912" lon="10.5164409"><ele>77.0</ele><time>2026-05-03T07:17:29.283Z</time></trkpt><trkpt lat="43.9668851" lon="10.5166609"><ele>79.33333333333334</ele><time>2026-05-03T07:17:30.278Z</time></trkpt><trkpt lat="43.9670013" lon="10.5168348"><ele>81.66666666666667</ele><time>2026-05-03T07:17:31.271Z</time></trkpt><trkpt lat="43.967119" lon="10.5170353"><ele>84.0</ele><time>2026-05-03T07:17:32.278Z</time></trkpt><trkpt lat="43.9672207" lon="10.5172406"><ele>84.0</ele><time>2026-05-03T07:17:33.285Z</time></trkpt><trkpt lat="43.9673087" lon="10.5174428"><ele>84.0</ele><time>2026-05-03T07:17:34.278Z</time></trkpt><trkpt lat="43.9674266" lon="10.5176492"><ele>84.0</ele><time>2026-05-03T07:17:35.272Z</time></trkpt><trkpt lat="43.9675581" lon="10.5178882"><ele>87.33333333333333</ele><time>2026-05-03T07:17:36.272Z</time></trkpt><trkpt lat="43.9676861" lon="10.5181003"><ele>90.66666666666666</ele><time>2026-05-03T07:17:37.272Z</time></trkpt><trkpt lat="43.9678388" lon="10.5183339"><ele>94.0</ele><time>2026-05-03T07:17:38.274Z</time></trkpt><trkpt lat="43.9680397" lon="10.518602"><ele>94.5</ele><time>2026-05-03T07:17:39.274Z</time></trkpt><trkpt lat="43.9682638" lon="10.5188546"><ele>95.0</ele><time>2026-05-03T07:17:40.279Z</time></trkpt><trkpt lat="43.9685155" lon="10.5190603"><ele>95.0</ele><time>2026-05-03T07:17:41.279Z</time></trkpt><trkpt lat="43.9687591" lon="10.5192687"><ele>95.0</ele><time>2026-05-03T07:17:42.279Z</time></trkpt><trkpt lat="43.9690214" lon="10.5194626"><ele>92.0</ele><time>2026-05-03T07:17:43.285Z</time></trkpt><trkpt lat="43.9692757" lon="10.5196464"><ele>89.0</ele><time>2026-05-03T07:17:44.281Z</time></trkpt><trkpt lat="43.9695202" lon="10.5198185"><ele>89.0</ele><time>2026-05-03T07:17:45.282Z</time></trkpt><trkpt lat="43.9697838" lon="10.5199979"><ele>89.0</ele><time>2026-05-03T07:17:46.28Z</time></trkpt><trkpt lat="43.9700307" lon="10.5201791"><ele>90.5</ele><time>2026-05-03T07:17:47.281Z</time></trkpt><trkpt lat="43.9702709" lon="10.5203759"><ele>92.0</ele><time>2026-05-03T07:17:48.28Z</time></trkpt><trkpt lat="43.9705144" lon="10.5205923"><ele>92.0</ele><time>2026-05-03T07:17:49.28Z</time></trkpt><trkpt lat="43.9707397" lon="10.5208108"><ele>92.0</ele><time>2026-05-03T07:17:50.281Z</time></trkpt><trkpt lat="43.9709586" lon="10.5210402"><ele>97.5</ele><time>2026-05-03T07:17:51.283Z</time></trkpt><trkpt lat="43.9711451" lon="10.5212958"><ele>103.0</ele><time>2026-05-03T07:17:52.279Z</time></trkpt><trkpt lat="43.9713211" lon="10.5215729"><ele>103.0</ele><time>2026-05-03T07:17:53.28Z</time></trkpt><trkpt lat="43.9714676" lon="10.5218358"><ele>103.0</ele><time>2026-05-03T07:17:54.275Z</time></trkpt><trkpt lat="43.9716239" lon="10.5220803"><ele>113.0</ele><time>2026-05-03T07:17:55.278Z</time></trkpt><trkpt lat="43.9717779" lon="10.5223302"><ele>123.0</ele><time>2026-05-03T07:17:56.277Z</time></trkpt><trkpt lat="43.9719392" lon="10.5226187"><ele>123.0</ele><time>2026-05-03T07:17:57.279Z</time></trkpt><trkpt lat="43.9721072" lon="10.5228913"><ele>123.0</ele><time>2026-05-03T07:17:58.279Z</time></trkpt><trkpt lat="43.9722817" lon="10.5231604"><ele>120.5</ele><time>2026-05-03T07:17:59.281Z</time></trkpt><trkpt lat="43.9724396" lon="10.5234816"><ele>118.0</ele><time>2026-05-03T07:18:00.285Z</time></trkpt><trkpt lat="43.972548" lon="10.5237856"><ele>118.0</ele><time>2026-05-03T07:18:01.285Z</time></trkpt><trkpt lat="43.9726544" lon="10.5240994"><ele>118.0</ele><time>2026-05-03T07:18:02.286Z</time></trkpt><trkpt lat="43.9727445" lon="10.5244406"><ele>122.0</ele><time>2026-05-03T07:18:03.28Z</time></trkpt><trkpt lat="43.9728275" lon="10.5247836"><ele>126.0</ele><time>2026-05-03T07:18:04.28Z</time></trkpt><trkpt lat="43.9728998" lon="10.5251411"><ele>121.5</ele><time>2026-05-03T07:18:05.28Z</time></trkpt><trkpt lat="43.9729574" lon="10.5254962"><ele>117.0</ele><time>2026-05-03T07:18:06.28Z</time></trkpt><trkpt lat="43.9730021" lon="10.5258636"><ele>112.5</ele><time>2026-05-03T07:18:07.28Z</time></trkpt><trkpt lat="43.9730576" lon="10.5262472"><ele>108.0</ele><time>2026-05-03T07:18:08.279Z</time></trkpt><trkpt lat="43.9730946" lon="10.5266522"><ele>108.0</ele><time>2026-05-03T07:18:09.282Z</time></trkpt><trkpt lat="43.973131" lon="10.5270495"><ele>108.0</ele><time>2026-05-03T07:18:10.276Z</time></trkpt><trkpt lat="43.9731558" lon="10.5274029"><ele>103.0</ele><time>2026-05-03T07:18:11.273Z</time></trkpt><trkpt lat="43.973184" lon="10.5277523"><ele>98.0</ele><time>2026-05-03T07:18:12.279Z</time></trkpt><trkpt lat="43.9732579" lon="10.5281218"><ele>91.5</ele><time>2026-05-03T07:18:13.278Z</time></trkpt><trkpt lat="43.9732929" lon="10.5284843"><ele>85.0</ele><time>2026-05-03T07:18:14.28Z</time></trkpt><trkpt lat="43.9733226" lon="10.5287966"><ele>85.0</ele><time>2026-05-03T07:18:15.278Z</time></trkpt><trkpt lat="43.9733329" lon="10.529108"><ele>85.0</ele><time>2026-05-03T07:18:16.28Z</time></trkpt><trkpt lat="43.973361" lon="10.5294179"><ele>85.0</ele><time>2026-05-03T07:18:17.278Z</time></trkpt><trkpt lat="43.973375" lon="10.5297312"><ele>101.66666666666666</ele><time>2026-05-03T07:18:18.279Z</time></trkpt><trkpt lat="43.9734021" lon="10.5300421"><ele>118.33333333333333</ele><time>2026-05-03T07:18:19.282Z</time></trkpt><trkpt lat="43.9734182" lon="10.5303213"><ele>135.0</ele><time>2026-05-03T07:18:20.273Z</time></trkpt><trkpt lat="43.9734471" lon="10.530617"><ele>135.0</ele><time>2026-05-03T07:18:21.282Z</time></trkpt><trkpt lat="43.973473" lon="10.5309155"><ele>135.0</ele><time>2026-05-03T07:18:22.276Z</time></trkpt><trkpt lat="43.9734967" lon="10.5312108"><ele>135.0</ele><time>2026-05-03T07:18:23.279Z</time></trkpt><trkpt lat="43.9735251" lon="10.5315115"><ele>132.0</ele><time>2026-05-03T07:18:24.277Z</time></trkpt><trkpt lat="43.9735489" lon="10.5318193"><ele>129.0</ele><time>2026-05-03T07:18:25.274Z</time></trkpt><trkpt lat="43.9735899" lon="10.5321149"><ele>126.0</ele><time>2026-05-03T07:18:26.277Z</time></trkpt><trkpt lat="43.9736304" lon="10.5324154"><ele>123.0</ele><time>2026-05-03T07:18:27.279Z</time></trkpt><trkpt lat="43.9736624" lon="10.5327177"><ele>120.0</ele><time>2026-05-03T07:18:28.279Z</time></trkpt><trkpt lat="43.9737206" lon="10.5330116"><ele>117.0</ele><time>2026-05-03T07:18:29.278Z</time></trkpt><trkpt lat="43.9738161" lon="10.5333"><ele>110.0</ele><time>2026-05-03T07:18:30.279Z</time></trkpt><trkpt lat="43.9739155" lon="10.5336034"><ele>103.0</ele><time>2026-05-03T07:18:31.277Z</time></trkpt><trkpt lat="43.9740274" lon="10.5338877"><ele>96.5</ele><time>2026-05-03T07:18:32.282Z</time></trkpt><trkpt lat="43.974147" lon="10.5341504"><ele>90.0</ele><time>2026-05-03T07:18:33.283Z</time></trkpt><trkpt lat="43.9742992" lon="10.5344481"><ele>90.0</ele><time>2026-05-03T07:18:34.279Z</time></trkpt><trkpt lat="43.974471" lon="10.5347001"><ele>90.0</ele><time>2026-05-03T07:18:35.276Z</time></trkpt><trkpt lat="43.974614" lon="10.5349236"><ele>90.0</ele><time>2026-05-03T07:18:36.277Z</time></trkpt><trkpt lat="43.9747718" lon="10.5351406"><ele>90.0</ele><time>2026-05-03T07:18:37.276Z</time></trkpt><trkpt lat="43.9749509" lon="10.5353466"><ele>88.33333333333333</ele><time>2026-05-03T07:18:38.274Z</time></trkpt><trkpt lat="43.975137" lon="10.5355437"><ele>86.66666666666666</ele><time>2026-05-03T07:18:39.281Z</time></trkpt><trkpt lat="43.9753075" lon="10.535706"><ele>85.0</ele><time>2026-05-03T07:18:40.278Z</time></trkpt><trkpt lat="43.9756262" lon="10.5361406"><ele>83.33333333333333</ele><time>2026-05-03T07:18:42.277Z</time></trkpt><trkpt lat="43.9757523" lon="10.5363515"><ele>81.66666666666667</ele><time>2026-05-03T07:18:43.278Z</time></trkpt><trkpt lat="43.9758549" lon="10.5365623"><ele>80.0</ele><time>2026-05-03T07:18:44.277Z</time></trkpt><trkpt lat="43.9759516" lon="10.5367707"><ele>83.33333333333334</ele><time>2026-05-03T07:18:45.279Z</time></trkpt><trkpt lat="43.9760481" lon="10.5370511"><ele>86.66666666666667</ele><time>2026-05-03T07:18:46.28Z</time></trkpt><trkpt lat="43.976135" lon="10.5373242"><ele>90.0</ele><time>2026-05-03T07:18:47.279Z</time></trkpt><trkpt lat="43.9762094" lon="10.5376678"><ele>90.0</ele><time>2026-05-03T07:18:48.284Z</time></trkpt><trkpt lat="43.9762585" lon="10.5379972"><ele>90.0</ele><time>2026-05-03T07:18:49.283Z</time></trkpt><trkpt lat="43.9762783" lon="10.5383101"><ele>90.0</ele><time>2026-05-03T07:18:50.285Z</time></trkpt><trkpt lat="43.9762528" lon="10.538587"><ele>90.0</ele><time>2026-05-03T07:18:51.284Z</time></trkpt><trkpt lat="43.9762479" lon="10.538869"><ele>90.0</ele><time>2026-05-03T07:18:52.285Z</time></trkpt><trkpt lat="43.9762563" lon="10.5391581"><ele>90.0</ele><time>2026-05-03T07:18:53.285Z</time></trkpt><trkpt lat="43.9762636" lon="10.5394475"><ele>90.0</ele><time>2026-05-03T07:18:54.268Z</time></trkpt><trkpt lat="43.9762717" lon="10.5397243"><ele>90.0</ele><time>2026-05-03T07:18:55.27Z</time></trkpt><trkpt lat="43.9762671" lon="10.5400221"><ele>90.0</ele><time>2026-05-03T07:18:56.276Z</time></trkpt><trkpt lat="43.9762842" lon="10.5403052"><ele>90.0</ele><time>2026-05-03T07:18:57.272Z</time></trkpt><trkpt lat="43.9762989" lon="10.5406359"><ele>90.0</ele><time>2026-05-03T07:18:58.282Z</time></trkpt><trkpt lat="43.9763766" lon="10.5409747"><ele>88.0</ele><time>2026-05-03T07:18:59.269Z</time></trkpt><trkpt lat="43.976459" lon="10.5413036"><ele>86.0</ele><time>2026-05-03T07:19:00.281Z</time></trkpt><trkpt lat="43.9764877" lon="10.5415837"><ele>86.0</ele><time>2026-05-03T07:19:01.276Z</time></trkpt><trkpt lat="43.976517" lon="10.5418348"><ele>86.0</ele><time>2026-05-03T07:19:02.281Z</time></trkpt><trkpt lat="43.9765417" lon="10.5420498"><ele>86.0</ele><time>2026-05-03T07:19:03.283Z</time></trkpt><trkpt lat="43.9765852" lon="10.5422619"><ele>86.25</ele><time>2026-05-03T07:19:04.278Z</time></trkpt><trkpt lat="43.9765888" lon="10.5424487"><ele>86.5</ele><time>2026-05-03T07:19:05.282Z</time></trkpt><trkpt lat="43.9766036" lon="10.5426508"><ele>86.75</ele><time>2026-05-03T07:19:06.279Z</time></trkpt><trkpt lat="43.976641" lon="10.5428401"><ele>87.0</ele><time>2026-05-03T07:19:07.28Z</time></trkpt><trkpt lat="43.9766527" lon="10.5429956"><ele>87.0</ele><time>2026-05-03T07:19:08.276Z</time></trkpt><trkpt lat="43.9766662" lon="10.5431539"><ele>87.0</ele><time>2026-05-03T07:19:09.278Z</time></trkpt><trkpt lat="43.9766886" lon="10.5433132"><ele>87.0</ele><time>2026-05-03T07:19:10.279Z</time></trkpt><trkpt lat="43.9767021" lon="10.5434878"><ele>87.0</ele><time>2026-05-03T07:19:11.279Z</time></trkpt><trkpt lat="43.9767513" lon="10.5436691"><ele>87.0</ele><time>2026-05-03T07:19:12.277Z</time></trkpt><trkpt lat="43.9767773" lon="10.5439035"><ele>87.0</ele><time>2026-05-03T07:19:13.278Z</time></trkpt><trkpt lat="43.9767994" lon="10.5441193"><ele>87.0</ele><time>2026-05-03T07:19:14.275Z</time></trkpt><trkpt lat="43.9768421" lon="10.5443628"><ele>87.0</ele><time>2026-05-03T07:19:15.277Z</time></trkpt><trkpt lat="43.9768852" lon="10.5445784"><ele>87.0</ele><time>2026-05-03T07:19:16.276Z</time></trkpt><trkpt lat="43.9769234" lon="10.5447784"><ele>87.0</ele><time>2026-05-03T07:19:17.277Z</time></trkpt><trkpt lat="43.9769543" lon="10.544941"><ele>87.0</ele><time>2026-05-03T07:19:18.279Z</time></trkpt><trkpt lat="43.9769849" lon="10.5451205"><ele>87.0</ele><time>2026-05-03T07:19:19.278Z</time></trkpt><trkpt lat="43.9770313" lon="10.5453206"><ele>87.0</ele><time>2026-05-03T07:19:20.278Z</time></trkpt><trkpt lat="43.9770552" lon="10.5455144"><ele>87.0</ele><time>2026-05-03T07:19:21.281Z</time></trkpt><trkpt lat="43.9770846" lon="10.5457212"><ele>87.0</ele><time>2026-05-03T07:19:22.28Z</time></trkpt><trkpt lat="43.9771113" lon="10.5459492"><ele>87.0</ele><time>2026-05-03T07:19:23.287Z</time></trkpt><trkpt lat="43.9771725" lon="10.5461701"><ele>87.0</ele><time>2026-05-03T07:19:24.284Z</time></trkpt><trkpt lat="43.9772312" lon="10.5463496"><ele>87.0</ele><time>2026-05-03T07:19:25.28Z</time></trkpt><trkpt lat="43.9772981" lon="10.54652"><ele>87.25</ele><time>2026-05-03T07:19:26.28Z</time></trkpt><trkpt lat="43.9773554" lon="10.5466789"><ele>87.5</ele><time>2026-05-03T07:19:27.278Z</time></trkpt><trkpt lat="43.9774402" lon="10.5468601"><ele>87.75</ele><time>2026-05-03T07:19:28.276Z</time></trkpt><trkpt lat="43.9775154" lon="10.5470165"><ele>88.0</ele><time>2026-05-03T07:19:29.28Z</time></trkpt><trkpt lat="43.9776174" lon="10.5472166"><ele>89.0</ele><time>2026-05-03T07:19:30.281Z</time></trkpt><trkpt lat="43.9777128" lon="10.547421"><ele>90.0</ele><time>2026-05-03T07:19:31.283Z</time></trkpt><trkpt lat="43.9778245" lon="10.5476218"><ele>91.0</ele><time>2026-05-03T07:19:32.279Z</time></trkpt><trkpt lat="43.9779576" lon="10.5478099"><ele>91.0</ele><time>2026-05-03T07:19:33.275Z</time></trkpt><trkpt lat="43.9781132" lon="10.5480297"><ele>91.0</ele><time>2026-05-03T07:19:34.283Z</time></trkpt><trkpt lat="43.9782771" lon="10.5482182"><ele>91.0</ele><time>2026-05-03T07:19:35.277Z</time></trkpt><trkpt lat="43.978448" lon="10.5484102"><ele>92.0</ele><time>2026-05-03T07:19:36.284Z</time></trkpt><trkpt lat="43.9786346" lon="10.5486189"><ele>93.0</ele><time>2026-05-03T07:19:37.288Z</time></trkpt><trkpt lat="43.9787911" lon="10.5487604"><ele>94.0</ele><time>2026-05-03T07:19:38.288Z</time></trkpt><trkpt lat="43.9789407" lon="10.5489295"><ele>94.0</ele><time>2026-05-03T07:19:39.278Z</time></trkpt><trkpt lat="43.9790646" lon="10.5490682"><ele>94.0</ele><time>2026-05-03T07:19:40.282Z</time></trkpt><trkpt lat="43.9791769" lon="10.5491483"><ele>94.0</ele><time>2026-05-03T07:19:41.288Z</time></trkpt><trkpt lat="43.9792793" lon="10.5492095"><ele>94.0</ele><time>2026-05-03T07:19:42.287Z</time></trkpt><trkpt lat="43.9793736" lon="10.5493047"><ele>94.0</ele><time>2026-05-03T07:19:43.281Z</time></trkpt><trkpt lat="43.9794733" lon="10.549437"><ele>94.0</ele><time>2026-05-03T07:19:44.278Z</time></trkpt><trkpt lat="43.9795784" lon="10.5495408"><ele>94.0</ele><time>2026-05-03T07:19:45.279Z</time></trkpt><trkpt lat="43.9796849" lon="10.5496375"><ele>94.0</ele><time>2026-05-03T07:19:46.278Z</time></trkpt><trkpt lat="43.9797876" lon="10.549737"><ele>94.0</ele><time>2026-05-03T07:19:47.277Z</time></trkpt><trkpt lat="43.979885" lon="10.5498325"><ele>94.0</ele><time>2026-05-03T07:19:48.288Z</time></trkpt><trkpt lat="43.9799723" lon="10.5499235"><ele>94.0</ele><time>2026-05-03T07:19:49.28Z</time></trkpt><trkpt lat="43.9800511" lon="10.5500137"><ele>94.0</ele><time>2026-05-03T07:19:50.281Z</time></trkpt><trkpt lat="43.9801177" lon="10.5501006"><ele>94.0</ele><time>2026-05-03T07:19:51.284Z</time></trkpt><trkpt lat="43.9801732" lon="10.550171"><ele>93.5</ele><time>2026-05-03T07:19:52.282Z</time></trkpt><trkpt lat="43.9802188" lon="10.5502562"><ele>93.0</ele><time>2026-05-03T07:19:53.287Z</time></trkpt><trkpt lat="43.9802667" lon="10.5503367"><ele>92.5</ele><time>2026-05-03T07:19:54.281Z</time></trkpt><trkpt lat="43.9803335" lon="10.5504094"><ele>92.0</ele><time>2026-05-03T07:19:55.278Z</time></trkpt><trkpt lat="43.9804173" lon="10.5504614"><ele>91.5</ele><time>2026-05-03T07:19:56.279Z</time></trkpt><trkpt lat="43.9805134" lon="10.5504867"><ele>91.0</ele><time>2026-05-03T07:19:57.278Z</time></trkpt><trkpt lat="43.9806155" lon="10.5504966"><ele>91.0</ele><time>2026-05-03T07:19:58.283Z</time></trkpt><trkpt lat="43.9807549" lon="10.5504903"><ele>91.0</ele><time>2026-05-03T07:19:59.283Z</time></trkpt><trkpt lat="43.9808898" lon="10.5505175"><ele>91.0</ele><time>2026-05-03T07:20:00.282Z</time></trkpt><trkpt lat="43.9810853" lon="10.5505689"><ele>91.5</ele><time>2026-05-03T07:20:01.282Z</time></trkpt><trkpt lat="43.9813351" lon="10.5506261"><ele>92.0</ele><time>2026-05-03T07:20:02.284Z</time></trkpt><trkpt lat="43.9815736" lon="10.55071"><ele>94.33333333333334</ele><time>2026-05-03T07:20:03.283Z</time></trkpt><trkpt lat="43.9817674" lon="10.5507718"><ele>96.66666666666667</ele><time>2026-05-03T07:20:04.278Z</time></trkpt><trkpt lat="43.9819693" lon="10.550891"><ele>99.0</ele><time>2026-05-03T07:20:05.281Z</time></trkpt><trkpt lat="43.9821808" lon="10.5510152"><ele>99.0</ele><time>2026-05-03T07:20:06.279Z</time></trkpt><trkpt lat="43.9823782" lon="10.5510686"><ele>99.0</ele><time>2026-05-03T07:20:07.281Z</time></trkpt><trkpt lat="43.9825739" lon="10.5511224"><ele>99.0</ele><time>2026-05-03T07:20:08.277Z</time></trkpt><trkpt lat="43.9827516" lon="10.5511413"><ele>99.66666666666666</ele><time>2026-05-03T07:20:09.278Z</time></trkpt><trkpt lat="43.9829569" lon="10.5511316"><ele>100.33333333333333</ele><time>2026-05-03T07:20:10.283Z</time></trkpt><trkpt lat="43.9831358" lon="10.5510715"><ele>101.0</ele><time>2026-05-03T07:20:11.283Z</time></trkpt><trkpt lat="43.9833283" lon="10.550988"><ele>102.25</ele><time>2026-05-03T07:20:12.286Z</time></trkpt><trkpt lat="43.9834636" lon="10.5509013"><ele>103.5</ele><time>2026-05-03T07:20:13.284Z</time></trkpt><trkpt lat="43.983578" lon="10.5509096"><ele>104.75</ele><time>2026-05-03T07:20:14.281Z</time></trkpt><trkpt lat="43.983714" lon="10.5508323"><ele>106.0</ele><time>2026-05-03T07:20:15.284Z</time></trkpt><trkpt lat="43.9838749" lon="10.5508232"><ele>106.0</ele><time>2026-05-03T07:20:16.284Z</time></trkpt><trkpt lat="43.9840293" lon="10.5507602"><ele>106.0</ele><time>2026-05-03T07:20:17.285Z</time></trkpt><trkpt lat="43.9841665" lon="10.5507646"><ele>106.0</ele><time>2026-05-03T07:20:18.286Z</time></trkpt><trkpt lat="43.9842325" lon="10.5508347"><ele>106.0</ele><time>2026-05-03T07:20:19.29Z</time></trkpt><trkpt lat="43.9843717" lon="10.5509288"><ele>108.33333333333334</ele><time>2026-05-03T07:20:20.279Z</time></trkpt><trkpt lat="43.9845384" lon="10.5510143"><ele>110.66666666666666</ele><time>2026-05-03T07:20:21.274Z</time></trkpt><trkpt lat="43.9847017" lon="10.5510711"><ele>113.0</ele><time>2026-05-03T07:20:22.279Z</time></trkpt><trkpt lat="43.9848371" lon="10.5511667"><ele>109.75</ele><time>2026-05-03T07:20:23.276Z</time></trkpt><trkpt lat="43.9849682" lon="10.5512266"><ele>106.5</ele><time>2026-05-03T07:20:24.275Z</time></trkpt><trkpt lat="43.9850857" lon="10.5512609"><ele>103.25</ele><time>2026-05-03T07:20:25.278Z</time></trkpt><trkpt lat="43.985193" lon="10.551266"><ele>100.0</ele><time>2026-05-03T07:20:26.286Z</time></trkpt><trkpt lat="43.985311" lon="10.5512493"><ele>99.75</ele><time>2026-05-03T07:20:27.28Z</time></trkpt><trkpt lat="43.9854358" lon="10.5512237"><ele>99.5</ele><time>2026-05-03T07:20:28.286Z</time></trkpt><trkpt lat="43.9855646" lon="10.5511984"><ele>99.25</ele><time>2026-05-03T07:20:29.285Z</time></trkpt><trkpt lat="43.9856986" lon="10.5511885"><ele>99.0</ele><time>2026-05-03T07:20:30.282Z</time></trkpt><trkpt lat="43.9858384" lon="10.5511919"><ele>99.66666666666666</ele><time>2026-05-03T07:20:31.283Z</time></trkpt><trkpt lat="43.986002" lon="10.5511955"><ele>100.33333333333333</ele><time>2026-05-03T07:20:32.285Z</time></trkpt><trkpt lat="43.9861508" lon="10.5512047"><ele>101.0</ele><time>2026-05-03T07:20:33.283Z</time></trkpt><trkpt lat="43.9862826" lon="10.5512854"><ele>101.0</ele><time>2026-05-03T07:20:34.275Z</time></trkpt><trkpt lat="43.9864556" lon="10.5513874"><ele>101.0</ele><time>2026-05-03T07:20:35.279Z</time></trkpt><trkpt lat="43.9866235" lon="10.5514998"><ele>101.0</ele><time>2026-05-03T07:20:36.285Z</time></trkpt><trkpt lat="43.9867818" lon="10.5516126"><ele>103.5</ele><time>2026-05-03T07:20:37.284Z</time></trkpt><trkpt lat="43.9869157" lon="10.5516607"><ele>106.0</ele><time>2026-05-03T07:20:38.281Z</time></trkpt><trkpt lat="43.9870606" lon="10.5517317"><ele>108.5</ele><time>2026-05-03T07:20:39.282Z</time></trkpt><trkpt lat="43.9872022" lon="10.5517999"><ele>111.0</ele><time>2026-05-03T07:20:40.279Z</time></trkpt><trkpt lat="43.9873759" lon="10.551884"><ele>111.0</ele><time>2026-05-03T07:20:41.281Z</time></trkpt><trkpt lat="43.9875087" lon="10.5519519"><ele>111.0</ele><time>2026-05-03T07:20:42.275Z</time></trkpt><trkpt lat="43.9876665" lon="10.5519809"><ele>111.0</ele><time>2026-05-03T07:20:43.279Z</time></trkpt><trkpt lat="43.9878628" lon="10.5520009"><ele>114.66666666666666</ele><time>2026-05-03T07:20:44.282Z</time></trkpt><trkpt lat="43.9880771" lon="10.5519719"><ele>118.33333333333333</ele><time>2026-05-03T07:20:45.284Z</time></trkpt><trkpt lat="43.9882981" lon="10.551996"><ele>122.0</ele><time>2026-05-03T07:20:46.282Z</time></trkpt><trkpt lat="43.9885489" lon="10.5519757"><ele>122.5</ele><time>2026-05-03T07:20:47.284Z</time></trkpt><trkpt lat="43.9887993" lon="10.5519767"><ele>123.0</ele><time>2026-05-03T07:20:48.284Z</time></trkpt><trkpt lat="43.989044" lon="10.5519926"><ele>123.0</ele><time>2026-05-03T07:20:49.281Z</time></trkpt><trkpt lat="43.9893193" lon="10.55197"><ele>123.0</ele><time>2026-05-03T07:20:50.277Z</time></trkpt><trkpt lat="43.9895579" lon="10.5519915"><ele>123.0</ele><time>2026-05-03T07:20:51.28Z</time></trkpt><trkpt lat="43.9897769" lon="10.5519858"><ele>123.0</ele><time>2026-05-03T07:20:52.279Z</time></trkpt><trkpt lat="43.9900172" lon="10.5519908"><ele>125.0</ele><time>2026-05-03T07:20:53.269Z</time></trkpt><trkpt lat="43.9902615" lon="10.5519997"><ele>127.0</ele><time>2026-05-03T07:20:54.255Z</time></trkpt><trkpt lat="43.9905003" lon="10.5519992"><ele>116.0</ele><time>2026-05-03T07:20:55.27Z</time></trkpt><trkpt lat="43.9907213" lon="10.5520465"><ele>105.0</ele><time>2026-05-03T07:20:56.265Z</time></trkpt><trkpt lat="43.9909632" lon="10.5520735"><ele>102.0</ele><time>2026-05-03T07:20:57.25Z</time></trkpt><trkpt lat="43.9912447" lon="10.5521173"><ele>99.0</ele><time>2026-05-03T07:20:58.273Z</time></trkpt><trkpt lat="43.9915264" lon="10.5521823"><ele>100.66666666666666</ele><time>2026-05-03T07:20:59.283Z</time></trkpt><trkpt lat="43.9917367" lon="10.5522553"><ele>102.33333333333333</ele><time>2026-05-03T07:21:00.278Z</time></trkpt><trkpt lat="43.9919403" lon="10.5522684"><ele>104.0</ele><time>2026-05-03T07:21:01.277Z</time></trkpt><trkpt lat="43.9921305" lon="10.5523195"><ele>104.0</ele><time>2026-05-03T07:21:02.279Z</time></trkpt><trkpt lat="43.9923052" lon="10.5523598"><ele>104.0</ele><time>2026-05-03T07:21:03.28Z</time></trkpt><trkpt lat="43.9924961" lon="10.5524068"><ele>104.0</ele><time>2026-05-03T07:21:04.276Z</time></trkpt><trkpt lat="43.9927103" lon="10.5524188"><ele>107.5</ele><time>2026-05-03T07:21:05.276Z</time></trkpt><trkpt lat="43.9929528" lon="10.5524986"><ele>111.0</ele><time>2026-05-03T07:21:06.282Z</time></trkpt><trkpt lat="43.9931954" lon="10.5525851"><ele>120.0</ele><time>2026-05-03T07:21:07.276Z</time></trkpt><trkpt lat="43.9934643" lon="10.5526709"><ele>129.0</ele><time>2026-05-03T07:21:08.276Z</time></trkpt><trkpt lat="43.9937426" lon="10.5527287"><ele>129.0</ele><time>2026-05-03T07:21:09.275Z</time></trkpt><trkpt lat="43.9940226" lon="10.5527872"><ele>129.0</ele><time>2026-05-03T07:21:10.256Z</time></trkpt><trkpt lat="43.9943024" lon="10.5528504"><ele>113.5</ele><time>2026-05-03T07:21:11.266Z</time></trkpt><trkpt lat="43.9945596" lon="10.5529257"><ele>98.0</ele><time>2026-05-03T07:21:12.278Z</time></trkpt><trkpt lat="43.9948328" lon="10.5529618"><ele>99.5</ele><time>2026-05-03T07:21:13.261Z</time></trkpt><trkpt lat="43.9951019" lon="10.5529702"><ele>101.0</ele><time>2026-05-03T07:21:14.266Z</time></trkpt><trkpt lat="43.9953935" lon="10.5529868"><ele>101.0</ele><time>2026-05-03T07:21:15.262Z</time></trkpt><trkpt lat="43.9956729" lon="10.5530314"><ele>101.0</ele><time>2026-05-03T07:21:16.253Z</time></trkpt><trkpt lat="43.9959495" lon="10.5530707"><ele>103.5</ele><time>2026-05-03T07:21:17.269Z</time></trkpt><trkpt lat="43.9962141" lon="10.5531076"><ele>106.0</ele><time>2026-05-03T07:21:18.278Z</time></trkpt><trkpt lat="43.9964781" lon="10.5530851"><ele>104.0</ele><time>2026-05-03T07:21:19.278Z</time></trkpt><trkpt lat="43.9967326" lon="10.5530954"><ele>102.0</ele><time>2026-05-03T07:21:20.275Z</time></trkpt><trkpt lat="43.996972" lon="10.5531214"><ele>102.0</ele><time>2026-05-03T07:21:21.259Z</time></trkpt><trkpt lat="43.9972069" lon="10.5531158"><ele>102.0</ele><time>2026-05-03T07:21:22.25Z</time></trkpt><trkpt lat="43.9974527" lon="10.5530994"><ele>100.0</ele><time>2026-05-03T07:21:23.252Z</time></trkpt><trkpt lat="43.9976924" lon="10.553009"><ele>98.0</ele><time>2026-05-03T07:21:24.249Z</time></trkpt><trkpt lat="43.9979342" lon="10.5528015"><ele>101.33333333333333</ele><time>2026-05-03T07:21:25.273Z</time></trkpt><trkpt lat="43.998147" lon="10.5526468"><ele>104.66666666666666</ele><time>2026-05-03T07:21:26.285Z</time></trkpt><trkpt lat="43.9983391" lon="10.5525995"><ele>108.0</ele><time>2026-05-03T07:21:27.279Z</time></trkpt><trkpt lat="43.9985659" lon="10.552541"><ele>108.0</ele><time>2026-05-03T07:21:28.28Z</time></trkpt><trkpt lat="43.99879" lon="10.5524219"><ele>108.0</ele><time>2026-05-03T07:21:29.276Z</time></trkpt><trkpt lat="43.99896" lon="10.5523856"><ele>108.0</ele><time>2026-05-03T07:21:30.276Z</time></trkpt><trkpt lat="43.9991244" lon="10.5522982"><ele>109.0</ele><time>2026-05-03T07:21:31.277Z</time></trkpt><trkpt lat="43.9992981" lon="10.5522131"><ele>110.0</ele><time>2026-05-03T07:21:32.261Z</time></trkpt><trkpt lat="43.9994197" lon="10.5521357"><ele>111.0</ele><time>2026-05-03T07:21:33.269Z</time></trkpt><trkpt lat="43.9995569" lon="10.5520198"><ele>111.0</ele><time>2026-05-03T07:21:34.279Z</time></trkpt><trkpt lat="43.9996937" lon="10.5518719"><ele>111.0</ele><time>2026-05-03T07:21:35.277Z</time></trkpt><trkpt lat="43.9998436" lon="10.5517273"><ele>111.0</ele><time>2026-05-03T07:21:36.275Z</time></trkpt><trkpt lat="43.9999743" lon="10.5515067"><ele>111.0</ele><time>2026-05-03T07:21:37.276Z</time></trkpt><trkpt lat="44.0001219" lon="10.5512663"><ele>111.0</ele><time>2026-05-03T07:21:38.276Z</time></trkpt><trkpt lat="44.0002709" lon="10.5509992"><ele>119.0</ele><time>2026-05-03T07:21:39.277Z</time></trkpt><trkpt lat="44.0004134" lon="10.550794"><ele>127.0</ele><time>2026-05-03T07:21:40.278Z</time></trkpt><trkpt lat="44.0005678" lon="10.5505738"><ele>135.0</ele><time>2026-05-03T07:21:41.276Z</time></trkpt><trkpt lat="44.0007454" lon="10.5504123"><ele>125.5</ele><time>2026-05-03T07:21:42.283Z</time></trkpt><trkpt lat="44.0009336" lon="10.5501851"><ele>116.0</ele><time>2026-05-03T07:21:43.284Z</time></trkpt><trkpt lat="44.0011486" lon="10.5500423"><ele>116.0</ele><time>2026-05-03T07:21:44.282Z</time></trkpt><trkpt lat="44.0013619" lon="10.5499526"><ele>116.0</ele><time>2026-05-03T07:21:45.279Z</time></trkpt><trkpt lat="44.0016206" lon="10.549858"><ele>110.5</ele><time>2026-05-03T07:21:46.28Z</time></trkpt><trkpt lat="44.0018427" lon="10.5497921"><ele>105.0</ele><time>2026-05-03T07:21:47.286Z</time></trkpt><trkpt lat="44.0020613" lon="10.5496841"><ele>105.0</ele><time>2026-05-03T07:21:48.284Z</time></trkpt><trkpt lat="44.0023048" lon="10.5496104"><ele>105.0</ele><time>2026-05-03T07:21:49.278Z</time></trkpt><trkpt lat="44.0025252" lon="10.549517"><ele>105.33333333333334</ele><time>2026-05-03T07:21:50.279Z</time></trkpt><trkpt lat="44.0027472" lon="10.5494246"><ele>105.66666666666667</ele><time>2026-05-03T07:21:51.281Z</time></trkpt><trkpt lat="44.0029612" lon="10.5493884"><ele>106.0</ele><time>2026-05-03T07:21:52.281Z</time></trkpt><trkpt lat="44.0031637" lon="10.5493567"><ele>105.0</ele><time>2026-05-03T07:21:53.284Z</time></trkpt><trkpt lat="44.0034059" lon="10.5492319"><ele>104.0</ele><time>2026-05-03T07:21:54.281Z</time></trkpt><trkpt lat="44.0036376" lon="10.5491266"><ele>104.0</ele><time>2026-05-03T07:21:55.284Z</time></trkpt><trkpt lat="44.0038411" lon="10.5489925"><ele>104.0</ele><time>2026-05-03T07:21:56.285Z</time></trkpt><trkpt lat="44.004035" lon="10.5488898"><ele>104.0</ele><time>2026-05-03T07:21:57.283Z</time></trkpt><trkpt lat="44.0042309" lon="10.5487241"><ele>105.5</ele><time>2026-05-03T07:21:58.278Z</time></trkpt><trkpt lat="44.0044429" lon="10.5485341"><ele>107.0</ele><time>2026-05-03T07:21:59.276Z</time></trkpt><trkpt lat="44.0046616" lon="10.5482912"><ele>107.0</ele><time>2026-05-03T07:22:00.278Z</time></trkpt><trkpt lat="44.004881" lon="10.5480354"><ele>107.0</ele><time>2026-05-03T07:22:01.276Z</time></trkpt><trkpt lat="44.0051236" lon="10.5477881"><ele>108.5</ele><time>2026-05-03T07:22:02.261Z</time></trkpt><trkpt lat="44.0053836" lon="10.5475527"><ele>110.0</ele><time>2026-05-03T07:22:03.273Z</time></trkpt><trkpt lat="44.0056601" lon="10.5473165"><ele>110.0</ele><time>2026-05-03T07:22:04.282Z</time></trkpt><trkpt lat="44.0059241" lon="10.5471201"><ele>110.0</ele><time>2026-05-03T07:22:05.28Z</time></trkpt><trkpt lat="44.0061511" lon="10.5469986"><ele>109.0</ele><time>2026-05-03T07:22:06.281Z</time></trkpt><trkpt lat="44.0063438" lon="10.546812"><ele>108.0</ele><time>2026-05-03T07:22:07.286Z</time></trkpt><trkpt lat="44.0065704" lon="10.5466765"><ele>107.5</ele><time>2026-05-03T07:22:08.285Z</time></trkpt><trkpt lat="44.0067741" lon="10.5464692"><ele>107.0</ele><time>2026-05-03T07:22:09.285Z</time></trkpt><trkpt lat="44.0069689" lon="10.5462535"><ele>108.5</ele><time>2026-05-03T07:22:10.281Z</time></trkpt><trkpt lat="44.0071315" lon="10.5459827"><ele>110.0</ele><time>2026-05-03T07:22:11.286Z</time></trkpt><trkpt lat="44.0073275" lon="10.5457545"><ele>110.0</ele><time>2026-05-03T07:22:12.279Z</time></trkpt><trkpt lat="44.0074792" lon="10.5454809"><ele>110.0</ele><time>2026-05-03T07:22:13.283Z</time></trkpt><trkpt lat="44.007642" lon="10.5452331"><ele>109.5</ele><time>2026-05-03T07:22:14.284Z</time></trkpt><trkpt lat="44.0077357" lon="10.5448677"><ele>109.0</ele><time>2026-05-03T07:22:15.284Z</time></trkpt><trkpt lat="44.007825" lon="10.5445373"><ele>110.0</ele><time>2026-05-03T07:22:16.28Z</time></trkpt><trkpt lat="44.0079122" lon="10.544233"><ele>111.0</ele><time>2026-05-03T07:22:17.284Z</time></trkpt><trkpt lat="44.0080071" lon="10.5438928"><ele>111.33333333333334</ele><time>2026-05-03T07:22:18.284Z</time></trkpt><trkpt lat="44.0080901" lon="10.5436512"><ele>111.66666666666667</ele><time>2026-05-03T07:22:19.279Z</time></trkpt><trkpt lat="44.0082059" lon="10.5433809"><ele>112.0</ele><time>2026-05-03T07:22:20.28Z</time></trkpt><trkpt lat="44.0083392" lon="10.5431608"><ele>112.0</ele><time>2026-05-03T07:22:21.288Z</time></trkpt><trkpt lat="44.0084594" lon="10.542909"><ele>112.0</ele><time>2026-05-03T07:22:22.28Z</time></trkpt><trkpt lat="44.0086044" lon="10.5426745"><ele>112.0</ele><time>2026-05-03T07:22:23.289Z</time></trkpt><trkpt lat="44.0087837" lon="10.5424466"><ele>112.5</ele><time>2026-05-03T07:22:24.283Z</time></trkpt><trkpt lat="44.0090045" lon="10.5422726"><ele>113.0</ele><time>2026-05-03T07:22:25.283Z</time></trkpt><trkpt lat="44.0092295" lon="10.5421299"><ele>116.0</ele><time>2026-05-03T07:22:26.282Z</time></trkpt><trkpt lat="44.0094737" lon="10.5419361"><ele>119.0</ele><time>2026-05-03T07:22:27.284Z</time></trkpt><trkpt lat="44.009713" lon="10.5418313"><ele>119.0</ele><time>2026-05-03T07:22:28.278Z</time></trkpt><trkpt lat="44.0099393" lon="10.5418043"><ele>119.0</ele><time>2026-05-03T07:22:29.285Z</time></trkpt><trkpt lat="44.0101992" lon="10.5417675"><ele>119.5</ele><time>2026-05-03T07:22:30.285Z</time></trkpt><trkpt lat="44.0104826" lon="10.5416811"><ele>120.0</ele><time>2026-05-03T07:22:31.287Z</time></trkpt><trkpt lat="44.0107596" lon="10.5416524"><ele>119.5</ele><time>2026-05-03T07:22:32.285Z</time></trkpt><trkpt lat="44.0110373" lon="10.5415899"><ele>119.0</ele><time>2026-05-03T07:22:33.287Z</time></trkpt><trkpt lat="44.0112966" lon="10.541488"><ele>119.0</ele><time>2026-05-03T07:22:34.287Z</time></trkpt><trkpt lat="44.0115204" lon="10.541438"><ele>119.0</ele><time>2026-05-03T07:22:35.285Z</time></trkpt><trkpt lat="44.0117677" lon="10.5413388"><ele>119.5</ele><time>2026-05-03T07:22:36.282Z</time></trkpt><trkpt lat="44.0119892" lon="10.5412436"><ele>120.0</ele><time>2026-05-03T07:22:37.286Z</time></trkpt><trkpt lat="44.0122183" lon="10.5411602"><ele>123.5</ele><time>2026-05-03T07:22:38.283Z</time></trkpt><trkpt lat="44.0124452" lon="10.5410563"><ele>127.0</ele><time>2026-05-03T07:22:39.279Z</time></trkpt><trkpt lat="44.0126662" lon="10.5409529"><ele>127.5</ele><time>2026-05-03T07:22:40.284Z</time></trkpt><trkpt lat="44.0128918" lon="10.5408603"><ele>128.0</ele><time>2026-05-03T07:22:41.28Z</time></trkpt><trkpt lat="44.0131065" lon="10.5407693"><ele>128.0</ele><time>2026-05-03T07:22:42.28Z</time></trkpt><trkpt lat="44.013302" lon="10.5406794"><ele>128.0</ele><time>2026-05-03T07:22:43.282Z</time></trkpt><trkpt lat="44.0135368" lon="10.5406048"><ele>128.0</ele><time>2026-05-03T07:22:44.281Z</time></trkpt><trkpt lat="44.0137871" lon="10.5405054"><ele>133.5</ele><time>2026-05-03T07:22:45.276Z</time></trkpt><trkpt lat="44.0140354" lon="10.5403582"><ele>139.0</ele><time>2026-05-03T07:22:46.281Z</time></trkpt><trkpt lat="44.0142969" lon="10.5402027"><ele>139.0</ele><time>2026-05-03T07:22:47.279Z</time></trkpt><trkpt lat="44.0145648" lon="10.5400662"><ele>139.0</ele><time>2026-05-03T07:22:48.282Z</time></trkpt><trkpt lat="44.0148468" lon="10.5399306"><ele>131.0</ele><time>2026-05-03T07:22:49.28Z</time></trkpt><trkpt lat="44.01512" lon="10.539773"><ele>123.0</ele><time>2026-05-03T07:22:50.264Z</time></trkpt><trkpt lat="44.0154041" lon="10.5396161"><ele>136.0</ele><time>2026-05-03T07:22:51.249Z</time></trkpt><trkpt lat="44.0156797" lon="10.539477"><ele>149.0</ele><time>2026-05-03T07:22:52.249Z</time></trkpt><trkpt lat="44.0159532" lon="10.5393505"><ele>153.5</ele><time>2026-05-03T07:22:53.252Z</time></trkpt><trkpt lat="44.0162172" lon="10.539267"><ele>158.0</ele><time>2026-05-03T07:22:54.253Z</time></trkpt><trkpt lat="44.0164753" lon="10.5392223"><ele>150.0</ele><time>2026-05-03T07:22:55.251Z</time></trkpt><trkpt lat="44.0167284" lon="10.5391522"><ele>142.0</ele><time>2026-05-03T07:22:56.252Z</time></trkpt><trkpt lat="44.016956" lon="10.5390898"><ele>142.0</ele><time>2026-05-03T07:22:57.252Z</time></trkpt><trkpt lat="44.0171896" lon="10.5390055"><ele>142.0</ele><time>2026-05-03T07:22:58.254Z</time></trkpt><trkpt lat="44.0174074" lon="10.538914"><ele>134.5</ele><time>2026-05-03T07:22:59.256Z</time></trkpt><trkpt lat="44.0176591" lon="10.5388438"><ele>127.0</ele><time>2026-05-03T07:23:00.269Z</time></trkpt><trkpt lat="44.017889" lon="10.5387158"><ele>133.0</ele><time>2026-05-03T07:23:01.279Z</time></trkpt><trkpt lat="44.0181176" lon="10.5385721"><ele>139.0</ele><time>2026-05-03T07:23:02.281Z</time></trkpt><trkpt lat="44.0183716" lon="10.5384026"><ele>139.0</ele><time>2026-05-03T07:23:03.278Z</time></trkpt><trkpt lat="44.0186111" lon="10.5382463"><ele>139.0</ele><time>2026-05-03T07:23:04.277Z</time></trkpt><trkpt lat="44.0188209" lon="10.5381267"><ele>139.0</ele><time>2026-05-03T07:23:05.279Z</time></trkpt><trkpt lat="44.0190323" lon="10.5379393"><ele>139.0</ele><time>2026-05-03T07:23:06.262Z</time></trkpt><trkpt lat="44.0192411" lon="10.5376755"><ele>135.0</ele><time>2026-05-03T07:23:07.271Z</time></trkpt><trkpt lat="44.019605" lon="10.5370957"><ele>140.33333333333334</ele><time>2026-05-03T07:23:09.274Z</time></trkpt><trkpt lat="44.0197086" lon="10.536835"><ele>145.66666666666669</ele><time>2026-05-03T07:23:10.26Z</time></trkpt><trkpt lat="44.0197694" lon="10.5365768"><ele>151.0</ele><time>2026-05-03T07:23:11.266Z</time></trkpt><trkpt lat="44.0198072" lon="10.5363178"><ele>154.66666666666669</ele><time>2026-05-03T07:23:12.274Z</time></trkpt><trkpt lat="44.0198324" lon="10.5360271"><ele>158.33333333333334</ele><time>2026-05-03T07:23:13.276Z</time></trkpt><trkpt lat="44.0198284" lon="10.5357257"><ele>162.0</ele><time>2026-05-03T07:23:14.278Z</time></trkpt><trkpt lat="44.0197969" lon="10.5354431"><ele>159.0</ele><time>2026-05-03T07:23:15.277Z</time></trkpt><trkpt lat="44.0197735" lon="10.5351576"><ele>156.0</ele><time>2026-05-03T07:23:16.28Z</time></trkpt><trkpt lat="44.0197205" lon="10.534879"><ele>153.0</ele><time>2026-05-03T07:23:17.279Z</time></trkpt><trkpt lat="44.019621" lon="10.5345993"><ele>146.0</ele><time>2026-05-03T07:23:18.282Z</time></trkpt><trkpt lat="44.019466" lon="10.5343593"><ele>139.0</ele><time>2026-05-03T07:23:19.283Z</time></trkpt><trkpt lat="44.0193195" lon="10.5340833"><ele>139.0</ele><time>2026-05-03T07:23:20.284Z</time></trkpt><trkpt lat="44.0191798" lon="10.5338399"><ele>139.0</ele><time>2026-05-03T07:23:21.278Z</time></trkpt><trkpt lat="44.0190437" lon="10.5336012"><ele>139.0</ele><time>2026-05-03T07:23:22.266Z</time></trkpt><trkpt lat="44.0187601" lon="10.5331102"><ele>140.0</ele><time>2026-05-03T07:23:24.276Z</time></trkpt><trkpt lat="44.0186258" lon="10.5328309"><ele>141.0</ele><time>2026-05-03T07:23:25.259Z</time></trkpt><trkpt lat="44.0184481" lon="10.5322029"><ele>139.5</ele><time>2026-05-03T07:23:27.27Z</time></trkpt><trkpt lat="44.0183534" lon="10.5318852"><ele>138.0</ele><time>2026-05-03T07:23:28.261Z</time></trkpt><trkpt lat="44.0183114" lon="10.5315389"><ele>132.5</ele><time>2026-05-03T07:23:29.269Z</time></trkpt><trkpt lat="44.0182659" lon="10.531195"><ele>127.0</ele><time>2026-05-03T07:23:30.274Z</time></trkpt><trkpt lat="44.0181755" lon="10.5308615"><ele>127.0</ele><time>2026-05-03T07:23:31.275Z</time></trkpt><trkpt lat="44.0181" lon="10.5305308"><ele>127.0</ele><time>2026-05-03T07:23:32.277Z</time></trkpt><trkpt lat="44.0180045" lon="10.5301959"><ele>126.5</ele><time>2026-05-03T07:23:33.281Z</time></trkpt><trkpt lat="44.0178987" lon="10.5298728"><ele>126.0</ele><time>2026-05-03T07:23:34.282Z</time></trkpt><trkpt lat="44.0178385" lon="10.5295461"><ele>128.5</ele><time>2026-05-03T07:23:35.278Z</time></trkpt><trkpt lat="44.0177937" lon="10.5291899"><ele>131.0</ele><time>2026-05-03T07:23:36.289Z</time></trkpt><trkpt lat="44.0177338" lon="10.5288269"><ele>130.5</ele><time>2026-05-03T07:23:37.289Z</time></trkpt><trkpt lat="44.0176467" lon="10.5284786"><ele>130.0</ele><time>2026-05-03T07:23:38.289Z</time></trkpt><trkpt lat="44.0175773" lon="10.5281369"><ele>128.66666666666669</ele><time>2026-05-03T07:23:39.287Z</time></trkpt><trkpt lat="44.0175117" lon="10.5278688"><ele>127.33333333333334</ele><time>2026-05-03T07:23:40.282Z</time></trkpt><trkpt lat="44.0174481" lon="10.5275428"><ele>126.0</ele><time>2026-05-03T07:23:41.285Z</time></trkpt><trkpt lat="44.0173598" lon="10.5273059"><ele>127.66666666666666</ele><time>2026-05-03T07:23:42.285Z</time></trkpt><trkpt lat="44.0172969" lon="10.5270471"><ele>129.33333333333331</ele><time>2026-05-03T07:23:43.277Z</time></trkpt><trkpt lat="44.0172204" lon="10.5267814"><ele>131.0</ele><time>2026-05-03T07:23:44.286Z</time></trkpt><trkpt lat="44.0171508" lon="10.5265613"><ele>131.0</ele><time>2026-05-03T07:23:45.283Z</time></trkpt><trkpt lat="44.0170988" lon="10.5263454"><ele>131.0</ele><time>2026-05-03T07:23:46.285Z</time></trkpt><trkpt lat="44.0170785" lon="10.5261241"><ele>131.0</ele><time>2026-05-03T07:23:47.286Z</time></trkpt><trkpt lat="44.0170629" lon="10.5258916"><ele>132.33333333333331</ele><time>2026-05-03T07:23:48.284Z</time></trkpt><trkpt lat="44.0170589" lon="10.5256605"><ele>133.66666666666666</ele><time>2026-05-03T07:23:49.284Z</time></trkpt><trkpt lat="44.0169899" lon="10.5253777"><ele>135.0</ele><time>2026-05-03T07:23:50.283Z</time></trkpt><trkpt lat="44.0169147" lon="10.5250946"><ele>136.66666666666666</ele><time>2026-05-03T07:23:51.279Z</time></trkpt><trkpt lat="44.01688" lon="10.5248412"><ele>138.33333333333331</ele><time>2026-05-03T07:23:52.285Z</time></trkpt><trkpt lat="44.016866" lon="10.5245775"><ele>140.0</ele><time>2026-05-03T07:23:53.29Z</time></trkpt><trkpt lat="44.0168616" lon="10.5242824"><ele>141.33333333333331</ele><time>2026-05-03T07:23:54.286Z</time></trkpt><trkpt lat="44.0168621" lon="10.524002"><ele>142.66666666666666</ele><time>2026-05-03T07:23:55.283Z</time></trkpt><trkpt lat="44.0168762" lon="10.5237349"><ele>144.0</ele><time>2026-05-03T07:23:56.281Z</time></trkpt><trkpt lat="44.0168871" lon="10.5234629"><ele>145.5</ele><time>2026-05-03T07:23:57.284Z</time></trkpt><trkpt lat="44.0169196" lon="10.522911"><ele>147.0</ele><time>2026-05-03T07:23:59.275Z</time></trkpt><trkpt lat="44.0169686" lon="10.5226145"><ele>149.0</ele><time>2026-05-03T07:24:00.282Z</time></trkpt><trkpt lat="44.0170146" lon="10.5223207"><ele>151.0</ele><time>2026-05-03T07:24:01.287Z</time></trkpt><trkpt lat="44.0170598" lon="10.5220379"><ele>153.0</ele><time>2026-05-03T07:24:02.286Z</time></trkpt><trkpt lat="44.0171438" lon="10.5217095"><ele>161.0</ele><time>2026-05-03T07:24:03.29Z</time></trkpt><trkpt lat="44.0172486" lon="10.5213889"><ele>169.0</ele><time>2026-05-03T07:24:04.287Z</time></trkpt><trkpt lat="44.0173724" lon="10.5210506"><ele>161.5</ele><time>2026-05-03T07:24:05.288Z</time></trkpt><trkpt lat="44.0175465" lon="10.5207135"><ele>154.0</ele><time>2026-05-03T07:24:06.283Z</time></trkpt><trkpt lat="44.0177001" lon="10.5204011"><ele>162.0</ele><time>2026-05-03T07:24:07.284Z</time></trkpt><trkpt lat="44.0178607" lon="10.5200598"><ele>170.0</ele><time>2026-05-03T07:24:08.283Z</time></trkpt><trkpt lat="44.0180264" lon="10.519689"><ele>177.5</ele><time>2026-05-03T07:24:09.287Z</time></trkpt><trkpt lat="44.018163" lon="10.5193055"><ele>185.0</ele><time>2026-05-03T07:24:10.285Z</time></trkpt><trkpt lat="44.0183128" lon="10.5189506"><ele>169.5</ele><time>2026-05-03T07:24:11.284Z</time></trkpt><trkpt lat="44.0184757" lon="10.5185953"><ele>154.0</ele><time>2026-05-03T07:24:12.28Z</time></trkpt><trkpt lat="44.0186193" lon="10.5182501"><ele>154.0</ele><time>2026-05-03T07:24:13.284Z</time></trkpt><trkpt lat="44.0187623" lon="10.5179601"><ele>154.0</ele><time>2026-05-03T07:24:14.283Z</time></trkpt><trkpt lat="44.0189345" lon="10.5176245"><ele>152.0</ele><time>2026-05-03T07:24:15.287Z</time></trkpt><trkpt lat="44.0190613" lon="10.5172565"><ele>150.0</ele><time>2026-05-03T07:24:16.283Z</time></trkpt><trkpt lat="44.0191932" lon="10.5169039"><ele>150.0</ele><time>2026-05-03T07:24:17.285Z</time></trkpt><trkpt lat="44.0193311" lon="10.5166314"><ele>150.0</ele><time>2026-05-03T07:24:18.286Z</time></trkpt><trkpt lat="44.0194798" lon="10.5163328"><ele>159.0</ele><time>2026-05-03T07:24:19.286Z</time></trkpt><trkpt lat="44.0196271" lon="10.5160535"><ele>168.0</ele><time>2026-05-03T07:24:20.287Z</time></trkpt><trkpt lat="44.0197753" lon="10.5157279"><ele>171.0</ele><time>2026-05-03T07:24:21.286Z</time></trkpt><trkpt lat="44.0199065" lon="10.5153826"><ele>174.0</ele><time>2026-05-03T07:24:22.285Z</time></trkpt><trkpt lat="44.0200247" lon="10.5150494"><ele>168.5</ele><time>2026-05-03T07:24:23.287Z</time></trkpt><trkpt lat="44.0201578" lon="10.5147582"><ele>163.0</ele><time>2026-05-03T07:24:24.281Z</time></trkpt><trkpt lat="44.0202767" lon="10.5144452"><ele>163.0</ele><time>2026-05-03T07:24:25.285Z</time></trkpt><trkpt lat="44.0203637" lon="10.5141341"><ele>163.0</ele><time>2026-05-03T07:24:26.287Z</time></trkpt><trkpt lat="44.0204742" lon="10.5138557"><ele>181.0</ele><time>2026-05-03T07:24:27.282Z</time></trkpt><trkpt lat="44.0205623" lon="10.5135622"><ele>199.0</ele><time>2026-05-03T07:24:28.283Z</time></trkpt><trkpt lat="44.0206471" lon="10.5132705"><ele>199.0</ele><time>2026-05-03T07:24:29.28Z</time></trkpt><trkpt lat="44.0207387" lon="10.5129964"><ele>199.0</ele><time>2026-05-03T07:24:30.277Z</time></trkpt><trkpt lat="44.0208314" lon="10.5127424"><ele>199.0</ele><time>2026-05-03T07:24:31.277Z</time></trkpt><trkpt lat="44.0208861" lon="10.512562"><ele>193.25</ele><time>2026-05-03T07:24:32.28Z</time></trkpt><trkpt lat="44.0209725" lon="10.5123955"><ele>187.5</ele><time>2026-05-03T07:24:33.278Z</time></trkpt><trkpt lat="44.0210325" lon="10.5122469"><ele>181.75</ele><time>2026-05-03T07:24:34.282Z</time></trkpt><trkpt lat="44.0211367" lon="10.5120855"><ele>176.0</ele><time>2026-05-03T07:24:35.278Z</time></trkpt><trkpt lat="44.0212259" lon="10.5119133"><ele>176.0</ele><time>2026-05-03T07:24:36.281Z</time></trkpt><trkpt lat="44.0213203" lon="10.5117051"><ele>176.0</ele><time>2026-05-03T07:24:37.284Z</time></trkpt><trkpt lat="44.0215908" lon="10.5113471"><ele>167.33333333333331</ele><time>2026-05-03T07:24:39.284Z</time></trkpt><trkpt lat="44.0217299" lon="10.5111628"><ele>158.66666666666666</ele><time>2026-05-03T07:24:40.282Z</time></trkpt><trkpt lat="44.0218633" lon="10.5109927"><ele>150.0</ele><time>2026-05-03T07:24:41.284Z</time></trkpt><trkpt lat="44.0219628" lon="10.5108383"><ele>150.0</ele><time>2026-05-03T07:24:42.284Z</time></trkpt><trkpt lat="44.022078" lon="10.5106786"><ele>150.0</ele><time>2026-05-03T07:24:43.285Z</time></trkpt><trkpt lat="44.022157" lon="10.510506"><ele>150.0</ele><time>2026-05-03T07:24:44.286Z</time></trkpt><trkpt lat="44.02227" lon="10.5103296"><ele>148.0</ele><time>2026-05-03T07:24:45.285Z</time></trkpt><trkpt lat="44.0223947" lon="10.5101773"><ele>146.0</ele><time>2026-05-03T07:24:46.28Z</time></trkpt><trkpt lat="44.0225432" lon="10.5100226"><ele>144.0</ele><time>2026-05-03T07:24:47.287Z</time></trkpt><trkpt lat="44.0226612" lon="10.509833"><ele>144.0</ele><time>2026-05-03T07:24:48.291Z</time></trkpt><trkpt lat="44.0227518" lon="10.5096353"><ele>144.0</ele><time>2026-05-03T07:24:49.29Z</time></trkpt><trkpt lat="44.0228316" lon="10.5094544"><ele>144.0</ele><time>2026-05-03T07:24:50.288Z</time></trkpt><trkpt lat="44.0229098" lon="10.5092401"><ele>149.0</ele><time>2026-05-03T07:24:51.286Z</time></trkpt><trkpt lat="44.0229737" lon="10.5090055"><ele>154.0</ele><time>2026-05-03T07:24:52.286Z</time></trkpt><trkpt lat="44.0230586" lon="10.5087262"><ele>159.0</ele><time>2026-05-03T07:24:53.292Z</time></trkpt><trkpt lat="44.0231402" lon="10.5084342"><ele>163.0</ele><time>2026-05-03T07:24:54.28Z</time></trkpt><trkpt lat="44.0232293" lon="10.50808"><ele>167.0</ele><time>2026-05-03T07:24:55.289Z</time></trkpt><trkpt lat="44.023338" lon="10.5077336"><ele>157.0</ele><time>2026-05-03T07:24:56.278Z</time></trkpt><trkpt lat="44.0234322" lon="10.5073786"><ele>147.0</ele><time>2026-05-03T07:24:57.287Z</time></trkpt><trkpt lat="44.0235421" lon="10.5070041"><ele>147.0</ele><time>2026-05-03T07:24:58.289Z</time></trkpt><trkpt lat="44.0236621" lon="10.5066729"><ele>147.0</ele><time>2026-05-03T07:24:59.284Z</time></trkpt><trkpt lat="44.0237679" lon="10.5063537"><ele>150.0</ele><time>2026-05-03T07:25:00.285Z</time></trkpt><trkpt lat="44.0238972" lon="10.5060499"><ele>153.0</ele><time>2026-05-03T07:25:01.282Z</time></trkpt><trkpt lat="44.024004" lon="10.5057657"><ele>153.0</ele><time>2026-05-03T07:25:02.284Z</time></trkpt><trkpt lat="44.0241139" lon="10.5054752"><ele>153.0</ele><time>2026-05-03T07:25:03.28Z</time></trkpt><trkpt lat="44.0242367" lon="10.5052051"><ele>143.5</ele><time>2026-05-03T07:25:04.277Z</time></trkpt><trkpt lat="44.0243495" lon="10.5049173"><ele>134.0</ele><time>2026-05-03T07:25:05.277Z</time></trkpt><trkpt lat="44.0244625" lon="10.5046389"><ele>140.0</ele><time>2026-05-03T07:25:06.277Z</time></trkpt><trkpt lat="44.0245956" lon="10.5043498"><ele>146.0</ele><time>2026-05-03T07:25:07.28Z</time></trkpt><trkpt lat="44.0247186" lon="10.5040826"><ele>146.0</ele><time>2026-05-03T07:25:08.283Z</time></trkpt><trkpt lat="44.0248139" lon="10.5037887"><ele>146.0</ele><time>2026-05-03T07:25:09.281Z</time></trkpt><trkpt lat="44.0249384" lon="10.5034957"><ele>141.5</ele><time>2026-05-03T07:25:10.284Z</time></trkpt><trkpt lat="44.0250618" lon="10.5032107"><ele>137.0</ele><time>2026-05-03T07:25:11.284Z</time></trkpt><trkpt lat="44.0251672" lon="10.502915"><ele>142.5</ele><time>2026-05-03T07:25:12.283Z</time></trkpt><trkpt lat="44.0252801" lon="10.502608"><ele>148.0</ele><time>2026-05-03T07:25:13.284Z</time></trkpt><trkpt lat="44.0253929" lon="10.5023342"><ele>158.5</ele><time>2026-05-03T07:25:14.282Z</time></trkpt><trkpt lat="44.0255233" lon="10.5020571"><ele>169.0</ele><time>2026-05-03T07:25:15.285Z</time></trkpt><trkpt lat="44.0256598" lon="10.5017555"><ele>160.5</ele><time>2026-05-03T07:25:16.28Z</time></trkpt><trkpt lat="44.0258131" lon="10.5014848"><ele>152.0</ele><time>2026-05-03T07:25:17.286Z</time></trkpt><trkpt lat="44.0259619" lon="10.5012286"><ele>152.0</ele><time>2026-05-03T07:25:18.289Z</time></trkpt><trkpt lat="44.0260889" lon="10.5009679"><ele>152.0</ele><time>2026-05-03T07:25:19.285Z</time></trkpt><trkpt lat="44.0262208" lon="10.5006685"><ele>162.5</ele><time>2026-05-03T07:25:20.285Z</time></trkpt><trkpt lat="44.0263515" lon="10.5003729"><ele>173.0</ele><time>2026-05-03T07:25:21.283Z</time></trkpt><trkpt lat="44.0264776" lon="10.5000705"><ele>173.0</ele><time>2026-05-03T07:25:22.287Z</time></trkpt><trkpt lat="44.0265931" lon="10.4997751"><ele>173.0</ele><time>2026-05-03T07:25:23.287Z</time></trkpt><trkpt lat="44.0267261" lon="10.4994672"><ele>161.5</ele><time>2026-05-03T07:25:24.279Z</time></trkpt><trkpt lat="44.0268398" lon="10.4991406"><ele>150.0</ele><time>2026-05-03T07:25:25.281Z</time></trkpt><trkpt lat="44.0270001" lon="10.4989048"><ele>164.0</ele><time>2026-05-03T07:25:26.279Z</time></trkpt><trkpt lat="44.0271574" lon="10.4986266"><ele>178.0</ele><time>2026-05-03T07:25:27.291Z</time></trkpt><trkpt lat="44.0273216" lon="10.4983868"><ele>169.5</ele><time>2026-05-03T07:25:28.29Z</time></trkpt><trkpt lat="44.0274855" lon="10.498129"><ele>161.0</ele><time>2026-05-03T07:25:29.28Z</time></trkpt><trkpt lat="44.0276221" lon="10.4978975"><ele>161.0</ele><time>2026-05-03T07:25:30.278Z</time></trkpt><trkpt lat="44.0277385" lon="10.4976758"><ele>161.0</ele><time>2026-05-03T07:25:31.282Z</time></trkpt><trkpt lat="44.0278379" lon="10.4974134"><ele>161.0</ele><time>2026-05-03T07:25:32.28Z</time></trkpt><trkpt lat="44.0279677" lon="10.4971954"><ele>154.66666666666666</ele><time>2026-05-03T07:25:33.286Z</time></trkpt><trkpt lat="44.0281107" lon="10.4970054"><ele>148.33333333333334</ele><time>2026-05-03T07:25:34.283Z</time></trkpt><trkpt lat="44.028285" lon="10.4968072"><ele>142.0</ele><time>2026-05-03T07:25:35.278Z</time></trkpt><trkpt lat="44.0284621" lon="10.496644"><ele>142.0</ele><time>2026-05-03T07:25:36.282Z</time></trkpt><trkpt lat="44.0286292" lon="10.4965083"><ele>142.0</ele><time>2026-05-03T07:25:37.278Z</time></trkpt><trkpt lat="44.0287808" lon="10.4963671"><ele>142.0</ele><time>2026-05-03T07:25:38.28Z</time></trkpt><trkpt lat="44.0289472" lon="10.4962163"><ele>139.66666666666669</ele><time>2026-05-03T07:25:39.285Z</time></trkpt><trkpt lat="44.0291013" lon="10.4960815"><ele>137.33333333333334</ele><time>2026-05-03T07:25:40.289Z</time></trkpt><trkpt lat="44.0292627" lon="10.4958938"><ele>135.0</ele><time>2026-05-03T07:25:41.287Z</time></trkpt><trkpt lat="44.0294253" lon="10.4956382"><ele>145.5</ele><time>2026-05-03T07:25:42.284Z</time></trkpt><trkpt lat="44.029553" lon="10.4952999"><ele>156.0</ele><time>2026-05-03T07:25:43.285Z</time></trkpt><trkpt lat="44.0296425" lon="10.4949969"><ele>156.0</ele><time>2026-05-03T07:25:44.286Z</time></trkpt><trkpt lat="44.0297811" lon="10.4946665"><ele>156.0</ele><time>2026-05-03T07:25:45.285Z</time></trkpt><trkpt lat="44.0299228" lon="10.4942785"><ele>151.5</ele><time>2026-05-03T07:25:46.284Z</time></trkpt><trkpt lat="44.0300629" lon="10.4938989"><ele>147.0</ele><time>2026-05-03T07:25:47.282Z</time></trkpt><trkpt lat="44.030237" lon="10.4935253"><ele>147.0</ele><time>2026-05-03T07:25:48.29Z</time></trkpt><trkpt lat="44.0304049" lon="10.4931157"><ele>147.0</ele><time>2026-05-03T07:25:49.283Z</time></trkpt><trkpt lat="44.0305532" lon="10.4927877"><ele>140.5</ele><time>2026-05-03T07:25:50.282Z</time></trkpt><trkpt lat="44.0306852" lon="10.4924692"><ele>134.0</ele><time>2026-05-03T07:25:51.286Z</time></trkpt><trkpt lat="44.0308405" lon="10.492119"><ele>135.0</ele><time>2026-05-03T07:25:52.284Z</time></trkpt><trkpt lat="44.0309956" lon="10.4918015"><ele>136.0</ele><time>2026-05-03T07:25:53.288Z</time></trkpt><trkpt lat="44.0311351" lon="10.4915233"><ele>140.0</ele><time>2026-05-03T07:25:54.286Z</time></trkpt><trkpt lat="44.0312796" lon="10.4911928"><ele>144.0</ele><time>2026-05-03T07:25:55.285Z</time></trkpt><trkpt lat="44.0314235" lon="10.4908669"><ele>144.0</ele><time>2026-05-03T07:25:56.285Z</time></trkpt><trkpt lat="44.0315841" lon="10.4905775"><ele>144.0</ele><time>2026-05-03T07:25:57.281Z</time></trkpt><trkpt lat="44.0317903" lon="10.490306"><ele>139.0</ele><time>2026-05-03T07:25:58.281Z</time></trkpt><trkpt lat="44.0319786" lon="10.4900357"><ele>134.0</ele><time>2026-05-03T07:25:59.285Z</time></trkpt><trkpt lat="44.032176" lon="10.4898128"><ele>134.0</ele><time>2026-05-03T07:26:00.285Z</time></trkpt><trkpt lat="44.0324054" lon="10.489601"><ele>134.0</ele><time>2026-05-03T07:26:01.284Z</time></trkpt><trkpt lat="44.0326336" lon="10.4893995"><ele>133.0</ele><time>2026-05-03T07:26:02.285Z</time></trkpt><trkpt lat="44.0328628" lon="10.4891738"><ele>132.0</ele><time>2026-05-03T07:26:03.286Z</time></trkpt><trkpt lat="44.0331294" lon="10.4889661"><ele>131.5</ele><time>2026-05-03T07:26:04.284Z</time></trkpt><trkpt lat="44.0333545" lon="10.4887739"><ele>131.0</ele><time>2026-05-03T07:26:05.285Z</time></trkpt><trkpt lat="44.0335607" lon="10.4885485"><ele>136.0</ele><time>2026-05-03T07:26:06.286Z</time></trkpt><trkpt lat="44.0338169" lon="10.4883925"><ele>141.0</ele><time>2026-05-03T07:26:07.287Z</time></trkpt><trkpt lat="44.0340392" lon="10.4881589"><ele>139.0</ele><time>2026-05-03T07:26:08.288Z</time></trkpt><trkpt lat="44.0342708" lon="10.4879713"><ele>137.0</ele><time>2026-05-03T07:26:09.287Z</time></trkpt><trkpt lat="44.034484" lon="10.4877845"><ele>145.5</ele><time>2026-05-03T07:26:10.283Z</time></trkpt><trkpt lat="44.0346876" lon="10.4875827"><ele>154.0</ele><time>2026-05-03T07:26:11.285Z</time></trkpt><trkpt lat="44.0348937" lon="10.487349"><ele>154.0</ele><time>2026-05-03T07:26:12.284Z</time></trkpt><trkpt lat="44.035037" lon="10.4870719"><ele>154.0</ele><time>2026-05-03T07:26:13.277Z</time></trkpt><trkpt lat="44.0351672" lon="10.486814"><ele>154.0</ele><time>2026-05-03T07:26:14.281Z</time></trkpt><trkpt lat="44.0352738" lon="10.4865258"><ele>154.0</ele><time>2026-05-03T07:26:15.278Z</time></trkpt><trkpt lat="44.0353804" lon="10.4861868"><ele>158.5</ele><time>2026-05-03T07:26:16.28Z</time></trkpt><trkpt lat="44.0354549" lon="10.4858284"><ele>163.0</ele><time>2026-05-03T07:26:17.278Z</time></trkpt><trkpt lat="44.0355601" lon="10.4854368"><ele>164.5</ele><time>2026-05-03T07:26:18.281Z</time></trkpt><trkpt lat="44.0356006" lon="10.485075"><ele>166.0</ele><time>2026-05-03T07:26:19.277Z</time></trkpt><trkpt lat="44.0356118" lon="10.4847257"><ele>169.5</ele><time>2026-05-03T07:26:20.28Z</time></trkpt><trkpt lat="44.0356681" lon="10.484346"><ele>173.0</ele><time>2026-05-03T07:26:21.282Z</time></trkpt><trkpt lat="44.0357126" lon="10.4839644"><ele>176.5</ele><time>2026-05-03T07:26:22.281Z</time></trkpt><trkpt lat="44.0357354" lon="10.4835506"><ele>180.0</ele><time>2026-05-03T07:26:23.282Z</time></trkpt><trkpt lat="44.0357213" lon="10.483188"><ele>181.5</ele><time>2026-05-03T07:26:24.279Z</time></trkpt><trkpt lat="44.0357219" lon="10.4828059"><ele>183.0</ele><time>2026-05-03T07:26:25.277Z</time></trkpt><trkpt lat="44.0357723" lon="10.4824115"><ele>172.5</ele><time>2026-05-03T07:26:26.276Z</time></trkpt><trkpt lat="44.0358113" lon="10.4820596"><ele>162.0</ele><time>2026-05-03T07:26:27.278Z</time></trkpt><trkpt lat="44.0358549" lon="10.4817199"><ele>162.0</ele><time>2026-05-03T07:26:28.285Z</time></trkpt><trkpt lat="44.035909" lon="10.4813731"><ele>162.0</ele><time>2026-05-03T07:26:29.283Z</time></trkpt><trkpt lat="44.0359789" lon="10.4810363"><ele>163.66666666666666</ele><time>2026-05-03T07:26:30.283Z</time></trkpt><trkpt lat="44.036055" lon="10.4807672"><ele>165.33333333333331</ele><time>2026-05-03T07:26:31.29Z</time></trkpt><trkpt lat="44.0361342" lon="10.4804833"><ele>167.0</ele><time>2026-05-03T07:26:32.282Z</time></trkpt><trkpt lat="44.0362121" lon="10.4802277"><ele>169.66666666666666</ele><time>2026-05-03T07:26:33.284Z</time></trkpt><trkpt lat="44.0363007" lon="10.4799681"><ele>172.33333333333334</ele><time>2026-05-03T07:26:34.283Z</time></trkpt><trkpt lat="44.0363698" lon="10.4797651"><ele>175.0</ele><time>2026-05-03T07:26:35.281Z</time></trkpt><trkpt lat="44.0364736" lon="10.4795015"><ele>172.33333333333334</ele><time>2026-05-03T07:26:36.283Z</time></trkpt><trkpt lat="44.0365767" lon="10.4792598"><ele>169.66666666666666</ele><time>2026-05-03T07:26:37.279Z</time></trkpt><trkpt lat="44.0366616" lon="10.4789556"><ele>167.0</ele><time>2026-05-03T07:26:38.278Z</time></trkpt><trkpt lat="44.0367355" lon="10.4786296"><ele>167.0</ele><time>2026-05-03T07:26:39.278Z</time></trkpt><trkpt lat="44.0368442" lon="10.4782934"><ele>167.0</ele><time>2026-05-03T07:26:40.283Z</time></trkpt><trkpt lat="44.0369745" lon="10.4779912"><ele>173.0</ele><time>2026-05-03T07:26:41.285Z</time></trkpt><trkpt lat="44.0371103" lon="10.477617"><ele>179.0</ele><time>2026-05-03T07:26:42.284Z</time></trkpt><trkpt lat="44.037228" lon="10.4772687"><ele>189.5</ele><time>2026-05-03T07:26:43.283Z</time></trkpt><trkpt lat="44.0373439" lon="10.4769562"><ele>200.0</ele><time>2026-05-03T07:26:44.286Z</time></trkpt><trkpt lat="44.0374576" lon="10.476655"><ele>193.0</ele><time>2026-05-03T07:26:45.283Z</time></trkpt><trkpt lat="44.0375461" lon="10.4763797"><ele>186.0</ele><time>2026-05-03T07:26:46.283Z</time></trkpt><trkpt lat="44.0376566" lon="10.4761172"><ele>179.0</ele><time>2026-05-03T07:26:47.277Z</time></trkpt><trkpt lat="44.0377837" lon="10.4759035"><ele>179.0</ele><time>2026-05-03T07:26:48.277Z</time></trkpt><trkpt lat="44.0379061" lon="10.4757062"><ele>179.0</ele><time>2026-05-03T07:26:49.262Z</time></trkpt><trkpt lat="44.0380157" lon="10.475525"><ele>179.0</ele><time>2026-05-03T07:26:50.254Z</time></trkpt><trkpt lat="44.0381314" lon="10.4753287"><ele>180.66666666666666</ele><time>2026-05-03T07:26:51.269Z</time></trkpt><trkpt lat="44.0382426" lon="10.4751484"><ele>182.33333333333334</ele><time>2026-05-03T07:26:52.275Z</time></trkpt><trkpt lat="44.0383568" lon="10.4749889"><ele>184.0</ele><time>2026-05-03T07:26:53.279Z</time></trkpt><trkpt lat="44.0384678" lon="10.474843"><ele>179.0</ele><time>2026-05-03T07:26:54.274Z</time></trkpt><trkpt lat="44.0385898" lon="10.474715"><ele>174.0</ele><time>2026-05-03T07:26:55.278Z</time></trkpt><trkpt lat="44.0387109" lon="10.4746078"><ele>169.0</ele><time>2026-05-03T07:26:56.278Z</time></trkpt><trkpt lat="44.038846" lon="10.4745155"><ele>164.0</ele><time>2026-05-03T07:26:57.279Z</time></trkpt><trkpt lat="44.0389923" lon="10.4744254"><ele>160.0</ele><time>2026-05-03T07:26:58.28Z</time></trkpt><trkpt lat="44.0391431" lon="10.474319"><ele>156.0</ele><time>2026-05-03T07:26:59.28Z</time></trkpt><trkpt lat="44.0392897" lon="10.4741968"><ele>152.0</ele><time>2026-05-03T07:27:00.278Z</time></trkpt><trkpt lat="44.039431" lon="10.4740564"><ele>152.0</ele><time>2026-05-03T07:27:01.282Z</time></trkpt><trkpt lat="44.0395798" lon="10.4739072"><ele>152.0</ele><time>2026-05-03T07:27:02.282Z</time></trkpt><trkpt lat="44.0397306" lon="10.4737671"><ele>152.0</ele><time>2026-05-03T07:27:03.277Z</time></trkpt><trkpt lat="44.0398766" lon="10.4736197"><ele>152.66666666666666</ele><time>2026-05-03T07:27:04.276Z</time></trkpt><trkpt lat="44.0400264" lon="10.4734773"><ele>153.33333333333334</ele><time>2026-05-03T07:27:05.283Z</time></trkpt><trkpt lat="44.0401775" lon="10.4733392"><ele>154.0</ele><time>2026-05-03T07:27:06.28Z</time></trkpt><trkpt lat="44.0403409" lon="10.4732147"><ele>154.0</ele><time>2026-05-03T07:27:07.282Z</time></trkpt><trkpt lat="44.0404991" lon="10.4731013"><ele>154.0</ele><time>2026-05-03T07:27:08.285Z</time></trkpt><trkpt lat="44.0406687" lon="10.4729646"><ele>154.0</ele><time>2026-05-03T07:27:09.281Z</time></trkpt><trkpt lat="44.0408307" lon="10.4728152"><ele>153.66666666666669</ele><time>2026-05-03T07:27:10.282Z</time></trkpt><trkpt lat="44.0409589" lon="10.4726655"><ele>153.33333333333334</ele><time>2026-05-03T07:27:11.285Z</time></trkpt><trkpt lat="44.041083" lon="10.472473"><ele>153.0</ele><time>2026-05-03T07:27:12.29Z</time></trkpt><trkpt lat="44.0412028" lon="10.4722631"><ele>154.0</ele><time>2026-05-03T07:27:13.285Z</time></trkpt><trkpt lat="44.0413128" lon="10.472056"><ele>155.0</ele><time>2026-05-03T07:27:14.284Z</time></trkpt><trkpt lat="44.0413883" lon="10.4718421"><ele>156.0</ele><time>2026-05-03T07:27:15.287Z</time></trkpt><trkpt lat="44.0414464" lon="10.4716363"><ele>156.0</ele><time>2026-05-03T07:27:16.282Z</time></trkpt><trkpt lat="44.0415007" lon="10.4714177"><ele>156.0</ele><time>2026-05-03T07:27:17.286Z</time></trkpt><trkpt lat="44.0415495" lon="10.4711884"><ele>156.0</ele><time>2026-05-03T07:27:18.285Z</time></trkpt><trkpt lat="44.0416129" lon="10.470953"><ele>155.0</ele><time>2026-05-03T07:27:19.276Z</time></trkpt><trkpt lat="44.0416395" lon="10.4706855"><ele>154.0</ele><time>2026-05-03T07:27:20.283Z</time></trkpt><trkpt lat="44.0416573" lon="10.4703896"><ele>153.0</ele><time>2026-05-03T07:27:21.283Z</time></trkpt><trkpt lat="44.0416656" lon="10.4700689"><ele>153.0</ele><time>2026-05-03T07:27:22.279Z</time></trkpt><trkpt lat="44.0416756" lon="10.4697501"><ele>153.0</ele><time>2026-05-03T07:27:23.291Z</time></trkpt><trkpt lat="44.0416922" lon="10.4693509"><ele>153.5</ele><time>2026-05-03T07:27:24.281Z</time></trkpt><trkpt lat="44.041698" lon="10.4689489"><ele>154.0</ele><time>2026-05-03T07:27:25.272Z</time></trkpt><trkpt lat="44.0417144" lon="10.4685443"><ele>155.0</ele><time>2026-05-03T07:27:26.277Z</time></trkpt><trkpt lat="44.0417437" lon="10.4681662"><ele>156.0</ele><time>2026-05-03T07:27:27.277Z</time></trkpt><trkpt lat="44.041783" lon="10.4678175"><ele>158.5</ele><time>2026-05-03T07:27:28.277Z</time></trkpt><trkpt lat="44.0418427" lon="10.4674622"><ele>161.0</ele><time>2026-05-03T07:27:29.278Z</time></trkpt><trkpt lat="44.0419231" lon="10.4671003"><ele>166.5</ele><time>2026-05-03T07:27:30.283Z</time></trkpt><trkpt lat="44.042027" lon="10.466741"><ele>172.0</ele><time>2026-05-03T07:27:31.279Z</time></trkpt><trkpt lat="44.0421372" lon="10.4664098"><ele>174.5</ele><time>2026-05-03T07:27:32.28Z</time></trkpt><trkpt lat="44.0422975" lon="10.4661043"><ele>177.0</ele><time>2026-05-03T07:27:33.281Z</time></trkpt><trkpt lat="44.0424527" lon="10.4658287"><ele>182.5</ele><time>2026-05-03T07:27:34.278Z</time></trkpt><trkpt lat="44.0426079" lon="10.4655794"><ele>188.0</ele><time>2026-05-03T07:27:35.284Z</time></trkpt><trkpt lat="44.0429424" lon="10.4650733"><ele>188.0</ele><time>2026-05-03T07:27:37.277Z</time></trkpt><trkpt lat="44.043136" lon="10.4647961"><ele>188.0</ele><time>2026-05-03T07:27:38.284Z</time></trkpt><trkpt lat="44.0433242" lon="10.4645412"><ele>187.5</ele><time>2026-05-03T07:27:39.279Z</time></trkpt><trkpt lat="44.0435048" lon="10.4642913"><ele>187.0</ele><time>2026-05-03T07:27:40.286Z</time></trkpt><trkpt lat="44.0436709" lon="10.4640543"><ele>187.0</ele><time>2026-05-03T07:27:41.28Z</time></trkpt><trkpt lat="44.043827" lon="10.463813"><ele>187.0</ele><time>2026-05-03T07:27:42.281Z</time></trkpt><trkpt lat="44.0439724" lon="10.46361"><ele>187.0</ele><time>2026-05-03T07:27:43.28Z</time></trkpt><trkpt lat="44.044133" lon="10.4633594"><ele>182.0</ele><time>2026-05-03T07:27:44.282Z</time></trkpt><trkpt lat="44.0442958" lon="10.4631081"><ele>177.0</ele><time>2026-05-03T07:27:45.278Z</time></trkpt><trkpt lat="44.0444818" lon="10.4628549"><ele>195.5</ele><time>2026-05-03T07:27:46.278Z</time></trkpt><trkpt lat="44.0446613" lon="10.4625708"><ele>214.0</ele><time>2026-05-03T07:27:47.274Z</time></trkpt><trkpt lat="44.0448727" lon="10.4622843"><ele>208.0</ele><time>2026-05-03T07:27:48.286Z</time></trkpt><trkpt lat="44.0450841" lon="10.4619849"><ele>202.0</ele><time>2026-05-03T07:27:49.275Z</time></trkpt><trkpt lat="44.0452917" lon="10.4617167"><ele>202.0</ele><time>2026-05-03T07:27:50.252Z</time></trkpt><trkpt lat="44.0455007" lon="10.4614455"><ele>202.0</ele><time>2026-05-03T07:27:51.261Z</time></trkpt><trkpt lat="44.0456891" lon="10.4611806"><ele>193.0</ele><time>2026-05-03T07:27:52.272Z</time></trkpt><trkpt lat="44.0458747" lon="10.4608503"><ele>184.0</ele><time>2026-05-03T07:27:53.274Z</time></trkpt><trkpt lat="44.0460363" lon="10.4605525"><ele>192.0</ele><time>2026-05-03T07:27:54.273Z</time></trkpt><trkpt lat="44.0461985" lon="10.4603109"><ele>200.0</ele><time>2026-05-03T07:27:55.275Z</time></trkpt><trkpt lat="44.0462842" lon="10.4600109"><ele>200.0</ele><time>2026-05-03T07:27:56.277Z</time></trkpt><trkpt lat="44.0463523" lon="10.4597074"><ele>200.0</ele><time>2026-05-03T07:27:57.279Z</time></trkpt><trkpt lat="44.0464269" lon="10.4594571"><ele>200.0</ele><time>2026-05-03T07:27:58.277Z</time></trkpt><trkpt lat="44.0464874" lon="10.4592077"><ele>201.66666666666669</ele><time>2026-05-03T07:27:59.276Z</time></trkpt><trkpt lat="44.0465184" lon="10.4589584"><ele>203.33333333333331</ele><time>2026-05-03T07:28:00.277Z</time></trkpt><trkpt lat="44.0465476" lon="10.4587381"><ele>205.0</ele><time>2026-05-03T07:28:01.273Z</time></trkpt><trkpt lat="44.0465831" lon="10.4585329"><ele>195.33333333333331</ele><time>2026-05-03T07:28:02.28Z</time></trkpt><trkpt lat="44.0466538" lon="10.4583476"><ele>185.66666666666666</ele><time>2026-05-03T07:28:03.276Z</time></trkpt><trkpt lat="44.0467358" lon="10.4581214"><ele>176.0</ele><time>2026-05-03T07:28:04.285Z</time></trkpt><trkpt lat="44.0468143" lon="10.4579521"><ele>185.66666666666666</ele><time>2026-05-03T07:28:05.284Z</time></trkpt><trkpt lat="44.0469482" lon="10.4577656"><ele>195.33333333333331</ele><time>2026-05-03T07:28:06.277Z</time></trkpt><trkpt lat="44.0470964" lon="10.4575666"><ele>205.0</ele><time>2026-05-03T07:28:07.278Z</time></trkpt><trkpt lat="44.0472486" lon="10.4573696"><ele>205.0</ele><time>2026-05-03T07:28:08.283Z</time></trkpt><trkpt lat="44.047391" lon="10.4572361"><ele>205.0</ele><time>2026-05-03T07:28:09.284Z</time></trkpt><trkpt lat="44.0475522" lon="10.4570114"><ele>205.0</ele><time>2026-05-03T07:28:10.282Z</time></trkpt><trkpt lat="44.0477521" lon="10.4567602"><ele>198.0</ele><time>2026-05-03T07:28:11.285Z</time></trkpt><trkpt lat="44.0479256" lon="10.4565565"><ele>191.0</ele><time>2026-05-03T07:28:12.284Z</time></trkpt><trkpt lat="44.0481202" lon="10.4563573"><ele>188.5</ele><time>2026-05-03T07:28:13.281Z</time></trkpt><trkpt lat="44.0483147" lon="10.4560978"><ele>186.0</ele><time>2026-05-03T07:28:14.285Z</time></trkpt><trkpt lat="44.0485244" lon="10.4559041"><ele>186.0</ele><time>2026-05-03T07:28:15.281Z</time></trkpt><trkpt lat="44.0487284" lon="10.4557421"><ele>186.0</ele><time>2026-05-03T07:28:16.284Z</time></trkpt><trkpt lat="44.0489213" lon="10.4556157"><ele>186.0</ele><time>2026-05-03T07:28:17.284Z</time></trkpt><trkpt lat="44.049117" lon="10.4555021"><ele>185.33333333333334</ele><time>2026-05-03T07:28:18.29Z</time></trkpt><trkpt lat="44.0493267" lon="10.4553084"><ele>184.66666666666669</ele><time>2026-05-03T07:28:19.286Z</time></trkpt><trkpt lat="44.0494986" lon="10.4552105"><ele>184.0</ele><time>2026-05-03T07:28:20.28Z</time></trkpt><trkpt lat="44.0496651" lon="10.4551812"><ele>184.0</ele><time>2026-05-03T07:28:21.289Z</time></trkpt><trkpt lat="44.0498513" lon="10.4551026"><ele>184.0</ele><time>2026-05-03T07:28:22.288Z</time></trkpt><trkpt lat="44.0500212" lon="10.4550078"><ele>184.0</ele><time>2026-05-03T07:28:23.289Z</time></trkpt><trkpt lat="44.0501664" lon="10.454878"><ele>182.0</ele><time>2026-05-03T07:28:24.284Z</time></trkpt><trkpt lat="44.0502856" lon="10.454757"><ele>180.0</ele><time>2026-05-03T07:28:25.284Z</time></trkpt><trkpt lat="44.0504125" lon="10.4546034"><ele>178.0</ele><time>2026-05-03T07:28:26.282Z</time></trkpt><trkpt lat="44.0505525" lon="10.4543953"><ele>178.0</ele><time>2026-05-03T07:28:27.294Z</time></trkpt><trkpt lat="44.050678" lon="10.4541314"><ele>178.0</ele><time>2026-05-03T07:28:28.282Z</time></trkpt><trkpt lat="44.0507724" lon="10.4538951"><ele>178.0</ele><time>2026-05-03T07:28:29.279Z</time></trkpt><trkpt lat="44.0508824" lon="10.4536459"><ele>171.0</ele><time>2026-05-03T07:28:30.278Z</time></trkpt><trkpt lat="44.05099" lon="10.4533201"><ele>164.0</ele><time>2026-05-03T07:28:31.276Z</time></trkpt><trkpt lat="44.0511035" lon="10.4530327"><ele>165.33333333333331</ele><time>2026-05-03T07:28:32.297Z</time></trkpt><trkpt lat="44.0512077" lon="10.4527553"><ele>166.66666666666666</ele><time>2026-05-03T07:28:33.289Z</time></trkpt><trkpt lat="44.0513408" lon="10.4525536"><ele>168.0</ele><time>2026-05-03T07:28:34.283Z</time></trkpt><trkpt lat="44.051484" lon="10.4523342"><ele>167.33333333333334</ele><time>2026-05-03T07:28:35.281Z</time></trkpt><trkpt lat="44.0516268" lon="10.4521606"><ele>166.66666666666669</ele><time>2026-05-03T07:28:36.286Z</time></trkpt><trkpt lat="44.0517397" lon="10.4519943"><ele>166.0</ele><time>2026-05-03T07:28:37.284Z</time></trkpt><trkpt lat="44.05185" lon="10.4518222"><ele>166.0</ele><time>2026-05-03T07:28:38.297Z</time></trkpt><trkpt lat="44.0519818" lon="10.4516814"><ele>166.0</ele><time>2026-05-03T07:28:39.285Z</time></trkpt><trkpt lat="44.0521277" lon="10.4515433"><ele>166.0</ele><time>2026-05-03T07:28:40.287Z</time></trkpt><trkpt lat="44.0522595" lon="10.4514524"><ele>166.0</ele><time>2026-05-03T07:28:41.286Z</time></trkpt><trkpt lat="44.0523968" lon="10.4513942"><ele>166.0</ele><time>2026-05-03T07:28:42.282Z</time></trkpt><trkpt lat="44.0525282" lon="10.4513459"><ele>166.0</ele><time>2026-05-03T07:28:43.294Z</time></trkpt><trkpt lat="44.0526671" lon="10.4512864"><ele>166.0</ele><time>2026-05-03T07:28:44.285Z</time></trkpt><trkpt lat="44.0528175" lon="10.4512433"><ele>165.75</ele><time>2026-05-03T07:28:45.282Z</time></trkpt><trkpt lat="44.0529373" lon="10.4512499"><ele>165.5</ele><time>2026-05-03T07:28:46.281Z</time></trkpt><trkpt lat="44.0530687" lon="10.4512246"><ele>165.25</ele><time>2026-05-03T07:28:47.282Z</time></trkpt><trkpt lat="44.0531699" lon="10.4511816"><ele>165.0</ele><time>2026-05-03T07:28:48.301Z</time></trkpt><trkpt lat="44.0532997" lon="10.4511919"><ele>165.0</ele><time>2026-05-03T07:28:49.28Z</time></trkpt><trkpt lat="44.0534032" lon="10.4511906"><ele>165.0</ele><time>2026-05-03T07:28:50.281Z</time></trkpt><trkpt lat="44.0535369" lon="10.4511767"><ele>165.0</ele><time>2026-05-03T07:28:51.287Z</time></trkpt><trkpt lat="44.0536371" lon="10.4512151"><ele>165.0</ele><time>2026-05-03T07:28:52.283Z</time></trkpt><trkpt lat="44.053756" lon="10.4512662"><ele>164.33333333333334</ele><time>2026-05-03T07:28:53.303Z</time></trkpt><trkpt lat="44.0538674" lon="10.4513685"><ele>163.66666666666669</ele><time>2026-05-03T07:28:54.282Z</time></trkpt><trkpt lat="44.0539797" lon="10.4515161"><ele>163.0</ele><time>2026-05-03T07:28:55.282Z</time></trkpt><trkpt lat="44.0540927" lon="10.4516802"><ele>162.33333333333334</ele><time>2026-05-03T07:28:56.281Z</time></trkpt><trkpt lat="44.0542456" lon="10.4518858"><ele>161.66666666666666</ele><time>2026-05-03T07:28:57.276Z</time></trkpt><trkpt lat="44.0543299" lon="10.4521855"><ele>161.0</ele><time>2026-05-03T07:28:58.277Z</time></trkpt><trkpt lat="44.0543903" lon="10.4524946"><ele>160.0</ele><time>2026-05-03T07:28:59.291Z</time></trkpt><trkpt lat="44.0544631" lon="10.4529078"><ele>159.0</ele><time>2026-05-03T07:29:00.28Z</time></trkpt><trkpt lat="44.0545531" lon="10.453351"><ele>158.0</ele><time>2026-05-03T07:29:01.289Z</time></trkpt><trkpt lat="44.0546098" lon="10.4537621"><ele>157.0</ele><time>2026-05-03T07:29:02.283Z</time></trkpt><trkpt lat="44.0546656" lon="10.4541183"><ele>156.5</ele><time>2026-05-03T07:29:03.282Z</time></trkpt><trkpt lat="44.0547323" lon="10.4544379"><ele>156.0</ele><time>2026-05-03T07:29:04.29Z</time></trkpt><trkpt lat="44.0547884" lon="10.454751"><ele>155.33333333333334</ele><time>2026-05-03T07:29:05.282Z</time></trkpt><trkpt lat="44.054827" lon="10.4550331"><ele>154.66666666666669</ele><time>2026-05-03T07:29:06.282Z</time></trkpt><trkpt lat="44.0548523" lon="10.455304"><ele>154.0</ele><time>2026-05-03T07:29:07.286Z</time></trkpt><trkpt lat="44.0548797" lon="10.4555821"><ele>153.66666666666669</ele><time>2026-05-03T07:29:08.286Z</time></trkpt><trkpt lat="44.0549298" lon="10.4558524"><ele>153.33333333333334</ele><time>2026-05-03T07:29:09.294Z</time></trkpt><trkpt lat="44.054966" lon="10.4561173"><ele>153.0</ele><time>2026-05-03T07:29:10.286Z</time></trkpt><trkpt lat="44.054997" lon="10.456375"><ele>153.66666666666666</ele><time>2026-05-03T07:29:11.281Z</time></trkpt><trkpt lat="44.0550343" lon="10.4566494"><ele>154.33333333333331</ele><time>2026-05-03T07:29:12.285Z</time></trkpt><trkpt lat="44.0550994" lon="10.4569212"><ele>155.0</ele><time>2026-05-03T07:29:13.289Z</time></trkpt><trkpt lat="44.0551436" lon="10.4571738"><ele>155.33333333333331</ele><time>2026-05-03T07:29:14.298Z</time></trkpt><trkpt lat="44.0551985" lon="10.4574281"><ele>155.66666666666666</ele><time>2026-05-03T07:29:15.293Z</time></trkpt><trkpt lat="44.0552427" lon="10.457676"><ele>156.0</ele><time>2026-05-03T07:29:16.286Z</time></trkpt><trkpt lat="44.0552801" lon="10.4579159"><ele>155.5</ele><time>2026-05-03T07:29:17.285Z</time></trkpt><trkpt lat="44.0553215" lon="10.4581145"><ele>155.0</ele><time>2026-05-03T07:29:18.286Z</time></trkpt><trkpt lat="44.0553654" lon="10.4583225"><ele>154.5</ele><time>2026-05-03T07:29:19.295Z</time></trkpt><trkpt lat="44.0553967" lon="10.4584934"><ele>154.0</ele><time>2026-05-03T07:29:20.286Z</time></trkpt><trkpt lat="44.0554261" lon="10.4586409"><ele>154.0</ele><time>2026-05-03T07:29:21.281Z</time></trkpt><trkpt lat="44.0554491" lon="10.4588153"><ele>154.0</ele><time>2026-05-03T07:29:22.281Z</time></trkpt><trkpt lat="44.0554611" lon="10.458985"><ele>154.0</ele><time>2026-05-03T07:29:23.284Z</time></trkpt><trkpt lat="44.0554355" lon="10.4591604"><ele>154.0</ele><time>2026-05-03T07:29:24.294Z</time></trkpt><trkpt lat="44.0553963" lon="10.4593283"><ele>154.0</ele><time>2026-05-03T07:29:25.275Z</time></trkpt><trkpt lat="44.0553536" lon="10.4595082"><ele>154.0</ele><time>2026-05-03T07:29:26.281Z</time></trkpt><trkpt lat="44.0553775" lon="10.4596671"><ele>154.0</ele><time>2026-05-03T07:29:27.281Z</time></trkpt><trkpt lat="44.0553985" lon="10.459833"><ele>154.0</ele><time>2026-05-03T07:29:28.282Z</time></trkpt><trkpt lat="44.0554268" lon="10.4599861"><ele>154.16666666666669</ele><time>2026-05-03T07:29:29.293Z</time></trkpt><trkpt lat="44.0554623" lon="10.4601234"><ele>154.33333333333334</ele><time>2026-05-03T07:29:30.279Z</time></trkpt><trkpt lat="44.0554953" lon="10.4602233"><ele>154.5</ele><time>2026-05-03T07:29:31.279Z</time></trkpt><trkpt lat="44.0555318" lon="10.4602973"><ele>154.66666666666666</ele><time>2026-05-03T07:29:32.28Z</time></trkpt><trkpt lat="44.0556456" lon="10.4603611"><ele>154.83333333333331</ele><time>2026-05-03T07:29:34.298Z</time></trkpt><trkpt lat="44.0557181" lon="10.4603594"><ele>155.0</ele><time>2026-05-03T07:29:35.284Z</time></trkpt><trkpt lat="44.0558018" lon="10.4603051"><ele>158.33333333333331</ele><time>2026-05-03T07:29:36.281Z</time></trkpt><trkpt lat="44.05591" lon="10.4600993"><ele>161.66666666666666</ele><time>2026-05-03T07:29:37.286Z</time></trkpt><trkpt lat="44.0559998" lon="10.4598832"><ele>165.0</ele><time>2026-05-03T07:29:38.286Z</time></trkpt><trkpt lat="44.0560426" lon="10.4596636"><ele>163.33333333333334</ele><time>2026-05-03T07:29:39.297Z</time></trkpt><trkpt lat="44.056099" lon="10.4594692"><ele>161.66666666666669</ele><time>2026-05-03T07:29:40.285Z</time></trkpt><trkpt lat="44.0561193" lon="10.4592075"><ele>160.0</ele><time>2026-05-03T07:29:41.286Z</time></trkpt><trkpt lat="44.0561073" lon="10.4588891"><ele>159.33333333333334</ele><time>2026-05-03T07:29:42.285Z</time></trkpt><trkpt lat="44.0560876" lon="10.4586069"><ele>158.66666666666666</ele><time>2026-05-03T07:29:43.285Z</time></trkpt><trkpt lat="44.0561252" lon="10.4583312"><ele>158.0</ele><time>2026-05-03T07:29:44.3Z</time></trkpt><trkpt lat="44.0561472" lon="10.4580519"><ele>158.0</ele><time>2026-05-03T07:29:45.285Z</time></trkpt><trkpt lat="44.0561753" lon="10.4577665"><ele>158.0</ele><time>2026-05-03T07:29:46.283Z</time></trkpt><trkpt lat="44.0561842" lon="10.4575256"><ele>158.0</ele><time>2026-05-03T07:29:47.286Z</time></trkpt><trkpt lat="44.0561845" lon="10.4572964"><ele>158.0</ele><time>2026-05-03T07:29:48.286Z</time></trkpt><trkpt lat="44.0562174" lon="10.4570851"><ele>158.0</ele><time>2026-05-03T07:29:49.297Z</time></trkpt><trkpt lat="44.056234" lon="10.4568359"><ele>158.0</ele><time>2026-05-03T07:29:50.283Z</time></trkpt><trkpt lat="44.0562513" lon="10.4565965"><ele>158.0</ele><time>2026-05-03T07:29:51.287Z</time></trkpt><trkpt lat="44.0562697" lon="10.4563712"><ele>158.0</ele><time>2026-05-03T07:29:52.284Z</time></trkpt><trkpt lat="44.0563001" lon="10.4561338"><ele>158.0</ele><time>2026-05-03T07:29:53.288Z</time></trkpt><trkpt lat="44.0562764" lon="10.4559999"><ele>158.0</ele><time>2026-05-03T07:29:54.291Z</time></trkpt><trkpt lat="44.0562568" lon="10.4558701"><ele>158.0</ele><time>2026-05-03T07:29:55.28Z</time></trkpt><trkpt lat="44.0562721" lon="10.4557281"><ele>158.0</ele><time>2026-05-03T07:29:56.284Z</time></trkpt><trkpt lat="44.0563522" lon="10.4556367"><ele>158.0</ele><time>2026-05-03T07:29:57.29Z</time></trkpt><trkpt lat="44.0564952" lon="10.4556002"><ele>158.0</ele><time>2026-05-03T07:29:58.283Z</time></trkpt><trkpt lat="44.0567025" lon="10.4555049"><ele>158.33333333333331</ele><time>2026-05-03T07:29:59.294Z</time></trkpt><trkpt lat="44.056906" lon="10.4553964"><ele>158.66666666666666</ele><time>2026-05-03T07:30:00.286Z</time></trkpt><trkpt lat="44.0570679" lon="10.4553396"><ele>159.0</ele><time>2026-05-03T07:30:01.285Z</time></trkpt><trkpt lat="44.0572384" lon="10.4552621"><ele>159.0</ele><time>2026-05-03T07:30:02.283Z</time></trkpt><trkpt lat="44.0574177" lon="10.4551841"><ele>159.0</ele><time>2026-05-03T07:30:03.279Z</time></trkpt><trkpt lat="44.0576171" lon="10.4551051"><ele>159.0</ele><time>2026-05-03T07:30:04.299Z</time></trkpt><trkpt lat="44.0577961" lon="10.4549936"><ele>160.66666666666666</ele><time>2026-05-03T07:30:05.289Z</time></trkpt><trkpt lat="44.0580224" lon="10.4549213"><ele>162.33333333333331</ele><time>2026-05-03T07:30:06.286Z</time></trkpt><trkpt lat="44.0581882" lon="10.4548692"><ele>164.0</ele><time>2026-05-03T07:30:07.289Z</time></trkpt><trkpt lat="44.05839" lon="10.4548321"><ele>167.0</ele><time>2026-05-03T07:30:08.286Z</time></trkpt><trkpt lat="44.0585723" lon="10.4548245"><ele>170.0</ele><time>2026-05-03T07:30:09.295Z</time></trkpt><trkpt lat="44.0587608" lon="10.4548681"><ele>173.0</ele><time>2026-05-03T07:30:10.282Z</time></trkpt><trkpt lat="44.0589062" lon="10.4549112"><ele>173.0</ele><time>2026-05-03T07:30:11.284Z</time></trkpt><trkpt lat="44.0590169" lon="10.4549664"><ele>173.0</ele><time>2026-05-03T07:30:12.278Z</time></trkpt><trkpt lat="44.059123" lon="10.4550448"><ele>173.0</ele><time>2026-05-03T07:30:13.259Z</time></trkpt><trkpt lat="44.0592018" lon="10.4551636"><ele>173.0</ele><time>2026-05-03T07:30:14.261Z</time></trkpt><trkpt lat="44.0592753" lon="10.4552977"><ele>174.33333333333331</ele><time>2026-05-03T07:30:15.249Z</time></trkpt><trkpt lat="44.0594063" lon="10.4555157"><ele>175.66666666666666</ele><time>2026-05-03T07:30:16.261Z</time></trkpt><trkpt lat="44.0594811" lon="10.4556368"><ele>177.0</ele><time>2026-05-03T07:30:17.251Z</time></trkpt><trkpt lat="44.0595492" lon="10.4558096"><ele>177.0</ele><time>2026-05-03T07:30:18.245Z</time></trkpt><trkpt lat="44.0594263" lon="10.4561706"><ele>177.0</ele><time>2026-05-03T07:30:19.267Z</time></trkpt><trkpt lat="44.0592725" lon="10.4564818"><ele>183.0</ele><time>2026-05-03T07:30:20.263Z</time></trkpt><trkpt lat="44.0593796" lon="10.4567087"><ele>189.0</ele><time>2026-05-03T07:30:21.274Z</time></trkpt><trkpt lat="44.0594971" lon="10.4568328"><ele>195.0</ele><time>2026-05-03T07:30:22.271Z</time></trkpt><trkpt lat="44.0596176" lon="10.4570344"><ele>194.5</ele><time>2026-05-03T07:30:23.278Z</time></trkpt><trkpt lat="44.0597123" lon="10.4572104"><ele>194.0</ele><time>2026-05-03T07:30:24.283Z</time></trkpt><trkpt lat="44.0601259" lon="10.457434"><ele>194.0</ele><time>2026-05-03T07:30:26.278Z</time></trkpt><trkpt lat="44.0603276" lon="10.4576219"><ele>194.0</ele><time>2026-05-03T07:30:27.27Z</time></trkpt><trkpt lat="44.06052" lon="10.4577368"><ele>194.0</ele><time>2026-05-03T07:30:28.267Z</time></trkpt><trkpt lat="44.0607118" lon="10.4578094"><ele>194.0</ele><time>2026-05-03T07:30:29.291Z</time></trkpt><trkpt lat="44.0609036" lon="10.4578265"><ele>194.0</ele><time>2026-05-03T07:30:30.278Z</time></trkpt><trkpt lat="44.0610837" lon="10.4577896"><ele>194.0</ele><time>2026-05-03T07:30:31.273Z</time></trkpt><trkpt lat="44.06126" lon="10.457753"><ele>194.0</ele><time>2026-05-03T07:30:32.281Z</time></trkpt><trkpt lat="44.0614464" lon="10.4577009"><ele>194.0</ele><time>2026-05-03T07:30:33.282Z</time></trkpt><trkpt lat="44.061619" lon="10.4575793"><ele>194.0</ele><time>2026-05-03T07:30:34.279Z</time></trkpt><trkpt lat="44.0617113" lon="10.4573895"><ele>194.0</ele><time>2026-05-03T07:30:35.297Z</time></trkpt><trkpt lat="44.0618375" lon="10.4573128"><ele>194.0</ele><time>2026-05-03T07:30:36.28Z</time></trkpt><trkpt lat="44.0619534" lon="10.457169"><ele>194.0</ele><time>2026-05-03T07:30:37.285Z</time></trkpt><trkpt lat="44.0620713" lon="10.4571521"><ele>194.0</ele><time>2026-05-03T07:30:38.282Z</time></trkpt><trkpt lat="44.0621703" lon="10.4571987"><ele>194.0</ele><time>2026-05-03T07:30:39.283Z</time></trkpt><trkpt lat="44.0623106" lon="10.4572322"><ele>194.0</ele><time>2026-05-03T07:30:40.282Z</time></trkpt><trkpt lat="44.0624672" lon="10.4572439"><ele>190.33333333333334</ele><time>2026-05-03T07:30:41.275Z</time></trkpt><trkpt lat="44.0626327" lon="10.4571475"><ele>186.66666666666669</ele><time>2026-05-03T07:30:42.28Z</time></trkpt><trkpt lat="44.0627572" lon="10.4570647"><ele>183.0</ele><time>2026-05-03T07:30:43.281Z</time></trkpt><trkpt lat="44.0628842" lon="10.4568999"><ele>183.0</ele><time>2026-05-03T07:30:44.282Z</time></trkpt><trkpt lat="44.0629334" lon="10.4567422"><ele>183.0</ele><time>2026-05-03T07:30:45.301Z</time></trkpt><trkpt lat="44.0630209" lon="10.4566099"><ele>183.0</ele><time>2026-05-03T07:30:46.284Z</time></trkpt><trkpt lat="44.0631376" lon="10.4564891"><ele>183.0</ele><time>2026-05-03T07:30:47.282Z</time></trkpt><trkpt lat="44.063262" lon="10.4563743"><ele>182.33333333333334</ele><time>2026-05-03T07:30:48.282Z</time></trkpt><trkpt lat="44.0634012" lon="10.4561979"><ele>181.66666666666669</ele><time>2026-05-03T07:30:49.282Z</time></trkpt><trkpt lat="44.0635183" lon="10.4561235"><ele>181.0</ele><time>2026-05-03T07:30:50.273Z</time></trkpt><trkpt lat="44.063653" lon="10.4560566"><ele>181.0</ele><time>2026-05-03T07:30:51.285Z</time></trkpt><trkpt lat="44.0638054" lon="10.4560049"><ele>181.0</ele><time>2026-05-03T07:30:52.28Z</time></trkpt><trkpt lat="44.0639962" lon="10.455971"><ele>181.0</ele><time>2026-05-03T07:30:53.267Z</time></trkpt><trkpt lat="44.0642122" lon="10.4559956"><ele>181.66666666666669</ele><time>2026-05-03T07:30:54.276Z</time></trkpt><trkpt lat="44.0643769" lon="10.4559992"><ele>182.33333333333334</ele><time>2026-05-03T07:30:55.282Z</time></trkpt><trkpt lat="44.0645364" lon="10.4560299"><ele>183.0</ele><time>2026-05-03T07:30:56.299Z</time></trkpt><trkpt lat="44.0646741" lon="10.4560291"><ele>183.0</ele><time>2026-05-03T07:30:57.284Z</time></trkpt><trkpt lat="44.0647969" lon="10.455975"><ele>183.0</ele><time>2026-05-03T07:30:58.283Z</time></trkpt><trkpt lat="44.0648949" lon="10.4558975"><ele>183.0</ele><time>2026-05-03T07:30:59.292Z</time></trkpt><trkpt lat="44.0649583" lon="10.4558722"><ele>183.0</ele><time>2026-05-03T07:31:00.284Z</time></trkpt><trkpt lat="44.064983" lon="10.4557652"><ele>183.0</ele><time>2026-05-03T07:31:01.297Z</time></trkpt><trkpt lat="44.06506" lon="10.4556536"><ele>183.4</ele><time>2026-05-03T07:31:02.286Z</time></trkpt><trkpt lat="44.0651433" lon="10.4556281"><ele>183.8</ele><time>2026-05-03T07:31:03.283Z</time></trkpt><trkpt lat="44.0652227" lon="10.455588"><ele>184.2</ele><time>2026-05-03T07:31:04.281Z</time></trkpt><trkpt lat="44.0653372" lon="10.4556541"><ele>184.6</ele><time>2026-05-03T07:31:05.287Z</time></trkpt><trkpt lat="44.0654525" lon="10.455689"><ele>185.0</ele><time>2026-05-03T07:31:06.296Z</time></trkpt><trkpt lat="44.0655827" lon="10.455717"><ele>185.0</ele><time>2026-05-03T07:31:07.283Z</time></trkpt><trkpt lat="44.0657007" lon="10.4557222"><ele>185.0</ele><time>2026-05-03T07:31:08.283Z</time></trkpt><trkpt lat="44.0658183" lon="10.4557254"><ele>185.0</ele><time>2026-05-03T07:31:09.286Z</time></trkpt><trkpt lat="44.0659592" lon="10.455675"><ele>185.0</ele><time>2026-05-03T07:31:10.286Z</time></trkpt><trkpt lat="44.0661142" lon="10.4556306"><ele>185.5</ele><time>2026-05-03T07:31:11.298Z</time></trkpt><trkpt lat="44.0663318" lon="10.455583"><ele>186.0</ele><time>2026-05-03T07:31:12.286Z</time></trkpt><trkpt lat="44.066563" lon="10.45554"><ele>187.0</ele><time>2026-05-03T07:31:13.286Z</time></trkpt><trkpt lat="44.0667662" lon="10.4554771"><ele>188.0</ele><time>2026-05-03T07:31:14.284Z</time></trkpt><trkpt lat="44.0669613" lon="10.455415"><ele>189.0</ele><time>2026-05-03T07:31:15.288Z</time></trkpt><trkpt lat="44.0671428" lon="10.455362"><ele>186.66666666666666</ele><time>2026-05-03T07:31:16.298Z</time></trkpt><trkpt lat="44.0673219" lon="10.4552727"><ele>184.33333333333331</ele><time>2026-05-03T07:31:17.285Z</time></trkpt><trkpt lat="44.0674868" lon="10.4552284"><ele>182.0</ele><time>2026-05-03T07:31:18.282Z</time></trkpt><trkpt lat="44.0676739" lon="10.4551604"><ele>182.0</ele><time>2026-05-03T07:31:19.282Z</time></trkpt><trkpt lat="44.0678263" lon="10.4551067"><ele>182.0</ele><time>2026-05-03T07:31:20.285Z</time></trkpt><trkpt lat="44.0680156" lon="10.4550954"><ele>182.0</ele><time>2026-05-03T07:31:21.285Z</time></trkpt><trkpt lat="44.0681888" lon="10.4550694"><ele>183.33333333333331</ele><time>2026-05-03T07:31:22.298Z</time></trkpt><trkpt lat="44.0683559" lon="10.4550288"><ele>184.66666666666666</ele><time>2026-05-03T07:31:23.294Z</time></trkpt><trkpt lat="44.0685076" lon="10.4550032"><ele>186.0</ele><time>2026-05-03T07:31:24.283Z</time></trkpt><trkpt lat="44.0686582" lon="10.4549138"><ele>186.0</ele><time>2026-05-03T07:31:25.278Z</time></trkpt><trkpt lat="44.0687937" lon="10.4547277"><ele>186.0</ele><time>2026-05-03T07:31:26.282Z</time></trkpt><trkpt lat="44.0689087" lon="10.4545353"><ele>186.0</ele><time>2026-05-03T07:31:27.293Z</time></trkpt><trkpt lat="44.0690203" lon="10.454414"><ele>185.25</ele><time>2026-05-03T07:31:28.283Z</time></trkpt><trkpt lat="44.0691435" lon="10.454353"><ele>184.5</ele><time>2026-05-03T07:31:29.279Z</time></trkpt><trkpt lat="44.0692791" lon="10.4543225"><ele>183.75</ele><time>2026-05-03T07:31:30.283Z</time></trkpt><trkpt lat="44.0694348" lon="10.4543102"><ele>183.0</ele><time>2026-05-03T07:31:31.285Z</time></trkpt><trkpt lat="44.0695706" lon="10.4543854"><ele>183.0</ele><time>2026-05-03T07:31:32.299Z</time></trkpt><trkpt lat="44.0697234" lon="10.454447"><ele>183.0</ele><time>2026-05-03T07:31:33.282Z</time></trkpt><trkpt lat="44.0698864" lon="10.4544831"><ele>183.0</ele><time>2026-05-03T07:31:34.269Z</time></trkpt><trkpt lat="44.0700267" lon="10.454515"><ele>183.66666666666666</ele><time>2026-05-03T07:31:35.279Z</time></trkpt><trkpt lat="44.0701726" lon="10.4545262"><ele>184.33333333333331</ele><time>2026-05-03T07:31:36.281Z</time></trkpt><trkpt lat="44.0703678" lon="10.4543725"><ele>185.0</ele><time>2026-05-03T07:31:37.292Z</time></trkpt><trkpt lat="44.0705953" lon="10.4542073"><ele>184.66666666666666</ele><time>2026-05-03T07:31:38.274Z</time></trkpt><trkpt lat="44.0707766" lon="10.4540321"><ele>184.33333333333334</ele><time>2026-05-03T07:31:39.281Z</time></trkpt><trkpt lat="44.0709276" lon="10.4538193"><ele>184.0</ele><time>2026-05-03T07:31:40.283Z</time></trkpt><trkpt lat="44.0711839" lon="10.4534999"><ele>184.0</ele><time>2026-05-03T07:31:42.291Z</time></trkpt><trkpt lat="44.0713319" lon="10.4533022"><ele>184.0</ele><time>2026-05-03T07:31:43.281Z</time></trkpt><trkpt lat="44.0714933" lon="10.4531425"><ele>184.0</ele><time>2026-05-03T07:31:44.276Z</time></trkpt><trkpt lat="44.0716511" lon="10.4530004"><ele>187.33333333333334</ele><time>2026-05-03T07:31:45.276Z</time></trkpt><trkpt lat="44.0718001" lon="10.4529753"><ele>190.66666666666669</ele><time>2026-05-03T07:31:46.269Z</time></trkpt><trkpt lat="44.07195" lon="10.4530841"><ele>194.0</ele><time>2026-05-03T07:31:47.282Z</time></trkpt><trkpt lat="44.0721953" lon="10.4530297"><ele>194.0</ele><time>2026-05-03T07:31:49.279Z</time></trkpt><trkpt lat="44.0723766" lon="10.4529873"><ele>194.0</ele><time>2026-05-03T07:31:50.281Z</time></trkpt><trkpt lat="44.0725216" lon="10.4528672"><ele>194.0</ele><time>2026-05-03T07:31:51.281Z</time></trkpt><trkpt lat="44.0725325" lon="10.4525271"><ele>194.33333333333334</ele><time>2026-05-03T07:31:53.287Z</time></trkpt><trkpt lat="44.0725845" lon="10.4524334"><ele>194.66666666666669</ele><time>2026-05-03T07:31:54.28Z</time></trkpt><trkpt lat="44.0726214" lon="10.4523317"><ele>195.0</ele><time>2026-05-03T07:31:55.282Z</time></trkpt><trkpt lat="44.0726666" lon="10.4522445"><ele>195.33333333333331</ele><time>2026-05-03T07:31:57.301Z</time></trkpt><trkpt lat="44.072704" lon="10.45217"><ele>195.66666666666666</ele><time>2026-05-03T07:31:58.289Z</time></trkpt><trkpt lat="44.0727513" lon="10.4520596"><ele>196.0</ele><time>2026-05-03T07:31:59.289Z</time></trkpt><trkpt lat="44.0728459" lon="10.4519236"><ele>197.0</ele><time>2026-05-03T07:32:00.285Z</time></trkpt><trkpt lat="44.0729697" lon="10.4517916"><ele>198.0</ele><time>2026-05-03T07:32:01.287Z</time></trkpt><trkpt lat="44.0731024" lon="10.4516965"><ele>199.0</ele><time>2026-05-03T07:32:02.297Z</time></trkpt><trkpt lat="44.073224" lon="10.451589"><ele>200.0</ele><time>2026-05-03T07:32:03.28Z</time></trkpt><trkpt lat="44.0733326" lon="10.4514531"><ele>200.0</ele><time>2026-05-03T07:32:04.283Z</time></trkpt><trkpt lat="44.0733884" lon="10.4513006"><ele>200.0</ele><time>2026-05-03T07:32:05.289Z</time></trkpt><trkpt lat="44.0734674" lon="10.451105"><ele>200.0</ele><time>2026-05-03T07:32:06.288Z</time></trkpt><trkpt lat="44.0735983" lon="10.4508509"><ele>194.5</ele><time>2026-05-03T07:32:07.301Z</time></trkpt><trkpt lat="44.0736678" lon="10.4505107"><ele>189.0</ele><time>2026-05-03T07:32:08.289Z</time></trkpt><trkpt lat="44.0737288" lon="10.4502251"><ele>191.0</ele><time>2026-05-03T07:32:09.29Z</time></trkpt><trkpt lat="44.0738074" lon="10.4499946"><ele>193.0</ele><time>2026-05-03T07:32:10.285Z</time></trkpt><trkpt lat="44.0739556" lon="10.449843"><ele>195.0</ele><time>2026-05-03T07:32:11.288Z</time></trkpt><trkpt lat="44.0741209" lon="10.449698"><ele>191.0</ele><time>2026-05-03T07:32:12.293Z</time></trkpt><trkpt lat="44.0743317" lon="10.4495568"><ele>187.0</ele><time>2026-05-03T07:32:13.285Z</time></trkpt><trkpt lat="44.0745394" lon="10.4494357"><ele>187.0</ele><time>2026-05-03T07:32:14.285Z</time></trkpt><trkpt lat="44.0747753" lon="10.4494679"><ele>187.0</ele><time>2026-05-03T07:32:15.281Z</time></trkpt><trkpt lat="44.0749638" lon="10.4495022"><ele>187.0</ele><time>2026-05-03T07:32:16.278Z</time></trkpt><trkpt lat="44.0751679" lon="10.4495238"><ele>189.0</ele><time>2026-05-03T07:32:17.291Z</time></trkpt><trkpt lat="44.0753351" lon="10.4495069"><ele>191.0</ele><time>2026-05-03T07:32:18.282Z</time></trkpt><trkpt lat="44.0755304" lon="10.449558"><ele>193.0</ele><time>2026-05-03T07:32:19.283Z</time></trkpt><trkpt lat="44.0757445" lon="10.4494889"><ele>194.66666666666666</ele><time>2026-05-03T07:32:20.291Z</time></trkpt><trkpt lat="44.075886" lon="10.4494163"><ele>196.33333333333331</ele><time>2026-05-03T07:32:21.287Z</time></trkpt><trkpt lat="44.0760129" lon="10.4492738"><ele>198.0</ele><time>2026-05-03T07:32:22.303Z</time></trkpt><trkpt lat="44.0761238" lon="10.4491544"><ele>198.0</ele><time>2026-05-03T07:32:23.293Z</time></trkpt><trkpt lat="44.0762434" lon="10.4490486"><ele>198.0</ele><time>2026-05-03T07:32:24.285Z</time></trkpt><trkpt lat="44.0763606" lon="10.4489521"><ele>198.0</ele><time>2026-05-03T07:32:25.281Z</time></trkpt><trkpt lat="44.0764971" lon="10.4488984"><ele>198.0</ele><time>2026-05-03T07:32:26.281Z</time></trkpt><trkpt lat="44.0766121" lon="10.4489082"><ele>198.33333333333331</ele><time>2026-05-03T07:32:27.295Z</time></trkpt><trkpt lat="44.0767622" lon="10.448931"><ele>198.66666666666666</ele><time>2026-05-03T07:32:28.283Z</time></trkpt><trkpt lat="44.0769196" lon="10.4490884"><ele>199.0</ele><time>2026-05-03T07:32:29.28Z</time></trkpt><trkpt lat="44.0770547" lon="10.4492609"><ele>199.0</ele><time>2026-05-03T07:32:30.285Z</time></trkpt><trkpt lat="44.0771548" lon="10.4494291"><ele>199.0</ele><time>2026-05-03T07:32:31.272Z</time></trkpt><trkpt lat="44.0772852" lon="10.4496126"><ele>199.0</ele><time>2026-05-03T07:32:32.285Z</time></trkpt><trkpt lat="44.0774299" lon="10.4498724"><ele>201.66666666666666</ele><time>2026-05-03T07:32:33.274Z</time></trkpt><trkpt lat="44.0775421" lon="10.4500566"><ele>204.33333333333331</ele><time>2026-05-03T07:32:34.273Z</time></trkpt><trkpt lat="44.0776558" lon="10.4501985"><ele>207.0</ele><time>2026-05-03T07:32:35.274Z</time></trkpt><trkpt lat="44.0777969" lon="10.4503164"><ele>207.0</ele><time>2026-05-03T07:32:36.272Z</time></trkpt><trkpt lat="44.0779476" lon="10.4503835"><ele>207.0</ele><time>2026-05-03T07:32:37.27Z</time></trkpt><trkpt lat="44.0781204" lon="10.4504605"><ele>207.0</ele><time>2026-05-03T07:32:38.272Z</time></trkpt><trkpt lat="44.0782941" lon="10.4505009"><ele>206.66666666666669</ele><time>2026-05-03T07:32:39.278Z</time></trkpt><trkpt lat="44.078472" lon="10.4504792"><ele>206.33333333333334</ele><time>2026-05-03T07:32:40.283Z</time></trkpt><trkpt lat="44.078686" lon="10.4504112"><ele>206.0</ele><time>2026-05-03T07:32:41.286Z</time></trkpt><trkpt lat="44.0789019" lon="10.4503247"><ele>200.5</ele><time>2026-05-03T07:32:42.287Z</time></trkpt><trkpt lat="44.0791808" lon="10.4503328"><ele>195.0</ele><time>2026-05-03T07:32:43.283Z</time></trkpt><trkpt lat="44.0794479" lon="10.4503026"><ele>195.0</ele><time>2026-05-03T07:32:44.279Z</time></trkpt><trkpt lat="44.0796925" lon="10.4502252"><ele>195.0</ele><time>2026-05-03T07:32:45.287Z</time></trkpt><trkpt lat="44.079869" lon="10.4501233"><ele>195.0</ele><time>2026-05-03T07:32:46.28Z</time></trkpt><trkpt lat="44.0800207" lon="10.4500452"><ele>194.5</ele><time>2026-05-03T07:32:47.288Z</time></trkpt><trkpt lat="44.0801328" lon="10.4499258"><ele>194.0</ele><time>2026-05-03T07:32:48.281Z</time></trkpt><trkpt lat="44.0802392" lon="10.4498231"><ele>193.5</ele><time>2026-05-03T07:32:49.282Z</time></trkpt><trkpt lat="44.0803244" lon="10.4496924"><ele>193.0</ele><time>2026-05-03T07:32:50.281Z</time></trkpt><trkpt lat="44.0804225" lon="10.449564"><ele>193.0</ele><time>2026-05-03T07:32:51.281Z</time></trkpt><trkpt lat="44.080527" lon="10.449549"><ele>193.0</ele><time>2026-05-03T07:32:52.283Z</time></trkpt><trkpt lat="44.0806995" lon="10.4495891"><ele>193.0</ele><time>2026-05-03T07:32:54.269Z</time></trkpt><trkpt lat="44.0808148" lon="10.4497726"><ele>198.0</ele><time>2026-05-03T07:32:55.27Z</time></trkpt><trkpt lat="44.0809192" lon="10.4499131"><ele>203.0</ele><time>2026-05-03T07:32:56.254Z</time></trkpt><trkpt lat="44.0810664" lon="10.4501422"><ele>208.0</ele><time>2026-05-03T07:32:57.241Z</time></trkpt><trkpt lat="44.0812247" lon="10.4503027"><ele>212.5</ele><time>2026-05-03T07:32:58.229Z</time></trkpt><trkpt lat="44.081439" lon="10.4505554"><ele>217.0</ele><time>2026-05-03T07:32:59.248Z</time></trkpt><trkpt lat="44.0816892" lon="10.4506811"><ele>217.0</ele><time>2026-05-03T07:33:00.255Z</time></trkpt><trkpt lat="44.0819539" lon="10.4507422"><ele>217.0</ele><time>2026-05-03T07:33:01.27Z</time></trkpt><trkpt lat="44.0821706" lon="10.4507508"><ele>217.0</ele><time>2026-05-03T07:33:02.273Z</time></trkpt><trkpt lat="44.082341" lon="10.4507776"><ele>217.0</ele><time>2026-05-03T07:33:03.265Z</time></trkpt><trkpt lat="44.0824869" lon="10.4508269"><ele>217.0</ele><time>2026-05-03T07:33:04.267Z</time></trkpt><trkpt lat="44.0826453" lon="10.4509985"><ele>217.0</ele><time>2026-05-03T07:33:05.264Z</time></trkpt><trkpt lat="44.0827619" lon="10.4512103"><ele>217.0</ele><time>2026-05-03T07:33:06.262Z</time></trkpt><trkpt lat="44.0828342" lon="10.4514085"><ele>217.0</ele><time>2026-05-03T07:33:07.266Z</time></trkpt><trkpt lat="44.0828814" lon="10.4515817"><ele>217.0</ele><time>2026-05-03T07:33:08.263Z</time></trkpt><trkpt lat="44.0828518" lon="10.4518002"><ele>217.0</ele><time>2026-05-03T07:33:09.261Z</time></trkpt><trkpt lat="44.0828149" lon="10.4522513"><ele>218.0</ele><time>2026-05-03T07:33:11.245Z</time></trkpt><trkpt lat="44.0828253" lon="10.4523559"><ele>219.0</ele><time>2026-05-03T07:33:12.251Z</time></trkpt><trkpt lat="44.0828094" lon="10.4524878"><ele>220.0</ele><time>2026-05-03T07:33:13.258Z</time></trkpt><trkpt lat="44.0828406" lon="10.4526287"><ele>221.0</ele><time>2026-05-03T07:33:14.238Z</time></trkpt><trkpt lat="44.0829068" lon="10.4527319"><ele>222.0</ele><time>2026-05-03T07:33:15.249Z</time></trkpt><trkpt lat="44.0830553" lon="10.4527523"><ele>222.0</ele><time>2026-05-03T07:33:16.266Z</time></trkpt><trkpt lat="44.0831838" lon="10.4528092"><ele>222.0</ele><time>2026-05-03T07:33:17.274Z</time></trkpt><trkpt lat="44.0833119" lon="10.4528171"><ele>222.0</ele><time>2026-05-03T07:33:18.276Z</time></trkpt><trkpt lat="44.0834448" lon="10.4528352"><ele>222.0</ele><time>2026-05-03T07:33:19.272Z</time></trkpt><trkpt lat="44.083558" lon="10.4528585"><ele>219.5</ele><time>2026-05-03T07:33:20.281Z</time></trkpt><trkpt lat="44.083677" lon="10.4529002"><ele>217.0</ele><time>2026-05-03T07:33:21.274Z</time></trkpt><trkpt lat="44.0838317" lon="10.4528879"><ele>214.5</ele><time>2026-05-03T07:33:22.276Z</time></trkpt><trkpt lat="44.0839955" lon="10.4528595"><ele>212.0</ele><time>2026-05-03T07:33:23.281Z</time></trkpt><trkpt lat="44.0842123" lon="10.4529151"><ele>211.66666666666669</ele><time>2026-05-03T07:33:24.263Z</time></trkpt><trkpt lat="44.0844092" lon="10.4529513"><ele>211.33333333333331</ele><time>2026-05-03T07:33:25.267Z</time></trkpt><trkpt lat="44.0846293" lon="10.4529841"><ele>211.0</ele><time>2026-05-03T07:33:26.273Z</time></trkpt><trkpt lat="44.0847858" lon="10.4529787"><ele>213.25</ele><time>2026-05-03T07:33:27.268Z</time></trkpt><trkpt lat="44.0849455" lon="10.4530032"><ele>215.5</ele><time>2026-05-03T07:33:28.268Z</time></trkpt><trkpt lat="44.0850603" lon="10.4530421"><ele>217.75</ele><time>2026-05-03T07:33:29.27Z</time></trkpt><trkpt lat="44.085169" lon="10.4530897"><ele>220.0</ele><time>2026-05-03T07:33:30.273Z</time></trkpt><trkpt lat="44.0853375" lon="10.4532389"><ele>220.0</ele><time>2026-05-03T07:33:31.262Z</time></trkpt><trkpt lat="44.0855091" lon="10.4533303"><ele>220.0</ele><time>2026-05-03T07:33:32.263Z</time></trkpt><trkpt lat="44.0857186" lon="10.4534298"><ele>220.0</ele><time>2026-05-03T07:33:33.267Z</time></trkpt><trkpt lat="44.0859167" lon="10.4534905"><ele>217.0</ele><time>2026-05-03T07:33:34.267Z</time></trkpt><trkpt lat="44.0860858" lon="10.4535584"><ele>214.0</ele><time>2026-05-03T07:33:35.276Z</time></trkpt><trkpt lat="44.086285" lon="10.4535362"><ele>211.0</ele><time>2026-05-03T07:33:36.272Z</time></trkpt><trkpt lat="44.0864716" lon="10.4534711"><ele>211.0</ele><time>2026-05-03T07:33:37.276Z</time></trkpt><trkpt lat="44.0865868" lon="10.4534766"><ele>211.0</ele><time>2026-05-03T07:33:38.265Z</time></trkpt><trkpt lat="44.0866564" lon="10.4535295"><ele>211.0</ele><time>2026-05-03T07:33:39.268Z</time></trkpt><trkpt lat="44.086758" lon="10.4536167"><ele>211.0</ele><time>2026-05-03T07:33:40.27Z</time></trkpt><trkpt lat="44.0868461" lon="10.4537583"><ele>211.0</ele><time>2026-05-03T07:33:41.272Z</time></trkpt><trkpt lat="44.08696" lon="10.453859"><ele>211.0</ele><time>2026-05-03T07:33:42.271Z</time></trkpt><trkpt lat="44.0870286" lon="10.4539485"><ele>211.0</ele><time>2026-05-03T07:33:43.265Z</time></trkpt><trkpt lat="44.0871308" lon="10.4539726"><ele>211.0</ele><time>2026-05-03T07:33:44.265Z</time></trkpt><trkpt lat="44.0872407" lon="10.4539217"><ele>211.0</ele><time>2026-05-03T07:33:45.264Z</time></trkpt><trkpt lat="44.0873569" lon="10.4538306"><ele>211.0</ele><time>2026-05-03T07:33:46.266Z</time></trkpt><trkpt lat="44.0874732" lon="10.4537103"><ele>211.0</ele><time>2026-05-03T07:33:47.271Z</time></trkpt><trkpt lat="44.0875593" lon="10.4535179"><ele>211.0</ele><time>2026-05-03T07:33:48.269Z</time></trkpt><trkpt lat="44.0876279" lon="10.4533702"><ele>211.0</ele><time>2026-05-03T07:33:49.268Z</time></trkpt><trkpt lat="44.0876872" lon="10.4533095"><ele>211.0</ele><time>2026-05-03T07:33:50.27Z</time></trkpt><trkpt lat="44.0877959" lon="10.4531389"><ele>211.0</ele><time>2026-05-03T07:33:51.27Z</time></trkpt><trkpt lat="44.0879026" lon="10.4530567"><ele>211.0</ele><time>2026-05-03T07:33:52.266Z</time></trkpt><trkpt lat="44.0879985" lon="10.4529615"><ele>211.0</ele><time>2026-05-03T07:33:53.267Z</time></trkpt><trkpt lat="44.0882008" lon="10.4530894"><ele>209.0</ele><time>2026-05-03T07:33:54.267Z</time></trkpt><trkpt lat="44.0884602" lon="10.4532904"><ele>207.0</ele><time>2026-05-03T07:33:55.266Z</time></trkpt><trkpt lat="44.0887499" lon="10.4535196"><ele>207.0</ele><time>2026-05-03T07:33:56.268Z</time></trkpt><trkpt lat="44.0889613" lon="10.4536304"><ele>207.0</ele><time>2026-05-03T07:33:57.267Z</time></trkpt><trkpt lat="44.0891554" lon="10.4536999"><ele>207.0</ele><time>2026-05-03T07:33:58.265Z</time></trkpt><trkpt lat="44.0893107" lon="10.4537705"><ele>208.0</ele><time>2026-05-03T07:33:59.261Z</time></trkpt><trkpt lat="44.0893924" lon="10.4538136"><ele>209.0</ele><time>2026-05-03T07:34:00.268Z</time></trkpt><trkpt lat="44.0894549" lon="10.4537902"><ele>210.0</ele><time>2026-05-03T07:34:01.264Z</time></trkpt><trkpt lat="44.0895753" lon="10.4537668"><ele>211.0</ele><time>2026-05-03T07:34:02.271Z</time></trkpt><trkpt lat="44.0896941" lon="10.4536291"><ele>212.0</ele><time>2026-05-03T07:34:03.271Z</time></trkpt><trkpt lat="44.0897842" lon="10.4534755"><ele>207.66666666666669</ele><time>2026-05-03T07:34:04.265Z</time></trkpt><trkpt lat="44.0898215" lon="10.4532809"><ele>203.33333333333331</ele><time>2026-05-03T07:34:05.267Z</time></trkpt><trkpt lat="44.0898808" lon="10.4530742"><ele>199.0</ele><time>2026-05-03T07:34:06.27Z</time></trkpt><trkpt lat="44.089973" lon="10.4528361"><ele>198.33333333333331</ele><time>2026-05-03T07:34:07.27Z</time></trkpt><trkpt lat="44.0900606" lon="10.4526118"><ele>197.66666666666669</ele><time>2026-05-03T07:34:08.269Z</time></trkpt><trkpt lat="44.0901101" lon="10.4524412"><ele>197.0</ele><time>2026-05-03T07:34:09.269Z</time></trkpt><trkpt lat="44.0902187" lon="10.4522352"><ele>198.75</ele><time>2026-05-03T07:34:10.267Z</time></trkpt><trkpt lat="44.0903292" lon="10.4520598"><ele>200.5</ele><time>2026-05-03T07:34:11.27Z</time></trkpt><trkpt lat="44.0904365" lon="10.4518944"><ele>202.25</ele><time>2026-05-03T07:34:12.271Z</time></trkpt><trkpt lat="44.0904971" lon="10.451796"><ele>204.0</ele><time>2026-05-03T07:34:13.271Z</time></trkpt><trkpt lat="44.0905748" lon="10.4518046"><ele>204.0</ele><time>2026-05-03T07:34:18.259Z</time></trkpt><trkpt lat="44.0906386" lon="10.4519196"><ele>204.0</ele><time>2026-05-03T07:34:19.265Z</time></trkpt><trkpt lat="44.0907487" lon="10.451999"><ele>204.0</ele><time>2026-05-03T07:34:20.269Z</time></trkpt><trkpt lat="44.0908953" lon="10.452055"><ele>204.0</ele><time>2026-05-03T07:34:21.27Z</time></trkpt><trkpt lat="44.0910577" lon="10.4521015"><ele>204.33333333333331</ele><time>2026-05-03T07:34:22.272Z</time></trkpt><trkpt lat="44.0912629" lon="10.4521638"><ele>204.66666666666666</ele><time>2026-05-03T07:34:23.274Z</time></trkpt><trkpt lat="44.0914805" lon="10.4522104"><ele>205.0</ele><time>2026-05-03T07:34:24.268Z</time></trkpt><trkpt lat="44.0916584" lon="10.4522817"><ele>207.0</ele><time>2026-05-03T07:34:25.266Z</time></trkpt><trkpt lat="44.0918425" lon="10.4523599"><ele>209.0</ele><time>2026-05-03T07:34:26.263Z</time></trkpt><trkpt lat="44.0920578" lon="10.4524434"><ele>211.0</ele><time>2026-05-03T07:34:27.245Z</time></trkpt><trkpt lat="44.0922584" lon="10.4526584"><ele>211.0</ele><time>2026-05-03T07:34:28.241Z</time></trkpt><trkpt lat="44.0924319" lon="10.4528184"><ele>211.0</ele><time>2026-05-03T07:34:29.237Z</time></trkpt><trkpt lat="44.0925971" lon="10.4529999"><ele>211.0</ele><time>2026-05-03T07:34:30.236Z</time></trkpt><trkpt lat="44.0927232" lon="10.4532079"><ele>211.0</ele><time>2026-05-03T07:34:31.234Z</time></trkpt><trkpt lat="44.0928537" lon="10.453351"><ele>211.0</ele><time>2026-05-03T07:34:32.238Z</time></trkpt><trkpt lat="44.0930097" lon="10.4534675"><ele>211.0</ele><time>2026-05-03T07:34:33.251Z</time></trkpt><trkpt lat="44.0931009" lon="10.4537046"><ele>209.33333333333331</ele><time>2026-05-03T07:34:34.264Z</time></trkpt><trkpt lat="44.0930578" lon="10.4539859"><ele>207.66666666666669</ele><time>2026-05-03T07:34:35.258Z</time></trkpt><trkpt lat="44.0930143" lon="10.4542791"><ele>206.0</ele><time>2026-05-03T07:34:36.262Z</time></trkpt><trkpt lat="44.0929719" lon="10.4545948"><ele>205.66666666666669</ele><time>2026-05-03T07:34:37.263Z</time></trkpt><trkpt lat="44.0929521" lon="10.4548948"><ele>205.33333333333331</ele><time>2026-05-03T07:34:38.267Z</time></trkpt><trkpt lat="44.0929668" lon="10.455144"><ele>205.0</ele><time>2026-05-03T07:34:39.265Z</time></trkpt><trkpt lat="44.0930437" lon="10.4553994"><ele>203.33333333333331</ele><time>2026-05-03T07:34:40.258Z</time></trkpt><trkpt lat="44.0931228" lon="10.4556128"><ele>201.66666666666669</ele><time>2026-05-03T07:34:41.261Z</time></trkpt><trkpt lat="44.0932505" lon="10.4558093"><ele>200.0</ele><time>2026-05-03T07:34:42.261Z</time></trkpt><trkpt lat="44.0934117" lon="10.4560086"><ele>202.33333333333334</ele><time>2026-05-03T07:34:43.265Z</time></trkpt><trkpt lat="44.0935781" lon="10.4561717"><ele>204.66666666666669</ele><time>2026-05-03T07:34:44.265Z</time></trkpt><trkpt lat="44.0937593" lon="10.4563554"><ele>207.0</ele><time>2026-05-03T07:34:45.263Z</time></trkpt><trkpt lat="44.093958" lon="10.4565104"><ele>210.0</ele><time>2026-05-03T07:34:46.262Z</time></trkpt><trkpt lat="44.094212" lon="10.4566225"><ele>213.0</ele><time>2026-05-03T07:34:47.265Z</time></trkpt><trkpt lat="44.0944317" lon="10.4566982"><ele>213.0</ele><time>2026-05-03T07:34:48.271Z</time></trkpt><trkpt lat="44.0946621" lon="10.456747"><ele>213.0</ele><time>2026-05-03T07:34:49.269Z</time></trkpt><trkpt lat="44.0949008" lon="10.4567619"><ele>215.33333333333331</ele><time>2026-05-03T07:34:50.272Z</time></trkpt><trkpt lat="44.0951117" lon="10.456803"><ele>217.66666666666666</ele><time>2026-05-03T07:34:51.271Z</time></trkpt><trkpt lat="44.0953221" lon="10.4568179"><ele>220.0</ele><time>2026-05-03T07:34:52.274Z</time></trkpt><trkpt lat="44.095506" lon="10.4568265"><ele>220.0</ele><time>2026-05-03T07:34:53.275Z</time></trkpt><trkpt lat="44.0956594" lon="10.4568019"><ele>220.0</ele><time>2026-05-03T07:34:54.266Z</time></trkpt><trkpt lat="44.0958116" lon="10.4567762"><ele>220.0</ele><time>2026-05-03T07:34:55.289Z</time></trkpt><trkpt lat="44.0960074" lon="10.4567177"><ele>219.33333333333331</ele><time>2026-05-03T07:34:56.283Z</time></trkpt><trkpt lat="44.0961939" lon="10.4566624"><ele>218.66666666666669</ele><time>2026-05-03T07:34:57.288Z</time></trkpt><trkpt lat="44.0963847" lon="10.456583"><ele>218.0</ele><time>2026-05-03T07:34:58.283Z</time></trkpt><trkpt lat="44.0965582" lon="10.4565144"><ele>217.66666666666669</ele><time>2026-05-03T07:34:59.282Z</time></trkpt><trkpt lat="44.0967517" lon="10.4564298"><ele>217.33333333333331</ele><time>2026-05-03T07:35:00.292Z</time></trkpt><trkpt lat="44.096964" lon="10.456333"><ele>217.0</ele><time>2026-05-03T07:35:01.287Z</time></trkpt><trkpt lat="44.0971735" lon="10.4563017"><ele>217.0</ele><time>2026-05-03T07:35:02.289Z</time></trkpt><trkpt lat="44.0974049" lon="10.4563461"><ele>217.0</ele><time>2026-05-03T07:35:03.285Z</time></trkpt><trkpt lat="44.0975999" lon="10.4563562"><ele>217.0</ele><time>2026-05-03T07:35:04.289Z</time></trkpt><trkpt lat="44.0978168" lon="10.4563739"><ele>215.66666666666666</ele><time>2026-05-03T07:35:05.286Z</time></trkpt><trkpt lat="44.0979786" lon="10.4563528"><ele>214.33333333333331</ele><time>2026-05-03T07:35:06.283Z</time></trkpt><trkpt lat="44.0981429" lon="10.4563359"><ele>213.0</ele><time>2026-05-03T07:35:07.284Z</time></trkpt><trkpt lat="44.0983071" lon="10.4562997"><ele>224.33333333333331</ele><time>2026-05-03T07:35:08.289Z</time></trkpt><trkpt lat="44.0984644" lon="10.4562536"><ele>235.66666666666666</ele><time>2026-05-03T07:35:09.284Z</time></trkpt><trkpt lat="44.0986046" lon="10.456187"><ele>247.0</ele><time>2026-05-03T07:35:10.29Z</time></trkpt><trkpt lat="44.0988277" lon="10.4560993"><ele>247.0</ele><time>2026-05-03T07:35:11.282Z</time></trkpt><trkpt lat="44.0990485" lon="10.4560011"><ele>247.0</ele><time>2026-05-03T07:35:12.288Z</time></trkpt><trkpt lat="44.0992496" lon="10.4559162"><ele>247.0</ele><time>2026-05-03T07:35:13.288Z</time></trkpt><trkpt lat="44.0994538" lon="10.4558101"><ele>244.0</ele><time>2026-05-03T07:35:14.289Z</time></trkpt><trkpt lat="44.0996089" lon="10.4557683"><ele>241.0</ele><time>2026-05-03T07:35:15.291Z</time></trkpt><trkpt lat="44.0997824" lon="10.4556711"><ele>238.0</ele><time>2026-05-03T07:35:16.287Z</time></trkpt><trkpt lat="44.0999502" lon="10.4556707"><ele>236.66666666666666</ele><time>2026-05-03T07:35:17.289Z</time></trkpt><trkpt lat="44.1000839" lon="10.4556075"><ele>235.33333333333331</ele><time>2026-05-03T07:35:18.282Z</time></trkpt><trkpt lat="44.1002235" lon="10.4555245"><ele>234.0</ele><time>2026-05-03T07:35:19.284Z</time></trkpt><trkpt lat="44.1003838" lon="10.4553673"><ele>234.0</ele><time>2026-05-03T07:35:20.272Z</time></trkpt><trkpt lat="44.1005693" lon="10.4552033"><ele>234.0</ele><time>2026-05-03T07:35:21.282Z</time></trkpt><trkpt lat="44.1007337" lon="10.4550514"><ele>234.0</ele><time>2026-05-03T07:35:22.261Z</time></trkpt><trkpt lat="44.1008897" lon="10.4549133"><ele>234.0</ele><time>2026-05-03T07:35:23.268Z</time></trkpt><trkpt lat="44.1010363" lon="10.454723"><ele>234.0</ele><time>2026-05-03T07:35:24.26Z</time></trkpt><trkpt lat="44.1012065" lon="10.4544697"><ele>231.0</ele><time>2026-05-03T07:35:25.25Z</time></trkpt><trkpt lat="44.1013592" lon="10.4542591"><ele>228.0</ele><time>2026-05-03T07:35:26.267Z</time></trkpt><trkpt lat="44.1015156" lon="10.4540528"><ele>225.0</ele><time>2026-05-03T07:35:27.277Z</time></trkpt><trkpt lat="44.1016868" lon="10.4538342"><ele>239.5</ele><time>2026-05-03T07:35:28.276Z</time></trkpt><trkpt lat="44.1018695" lon="10.4535977"><ele>254.0</ele><time>2026-05-03T07:35:29.275Z</time></trkpt><trkpt lat="44.1020075" lon="10.453367"><ele>254.0</ele><time>2026-05-03T07:35:30.282Z</time></trkpt><trkpt lat="44.1021922" lon="10.4530954"><ele>254.0</ele><time>2026-05-03T07:35:31.28Z</time></trkpt><trkpt lat="44.1023809" lon="10.4528083"><ele>247.0</ele><time>2026-05-03T07:35:32.287Z</time></trkpt><trkpt lat="44.1025366" lon="10.4525768"><ele>240.0</ele><time>2026-05-03T07:35:33.292Z</time></trkpt><trkpt lat="44.1027191" lon="10.4522889"><ele>253.0</ele><time>2026-05-03T07:35:34.283Z</time></trkpt><trkpt lat="44.1028812" lon="10.451986"><ele>266.0</ele><time>2026-05-03T07:35:35.285Z</time></trkpt><trkpt lat="44.1030079" lon="10.4517473"><ele>266.0</ele><time>2026-05-03T07:35:36.285Z</time></trkpt><trkpt lat="44.1030747" lon="10.4514343"><ele>266.0</ele><time>2026-05-03T07:35:37.288Z</time></trkpt><trkpt lat="44.1031444" lon="10.4511356"><ele>278.0</ele><time>2026-05-03T07:35:38.288Z</time></trkpt><trkpt lat="44.1032397" lon="10.4508443"><ele>290.0</ele><time>2026-05-03T07:35:39.284Z</time></trkpt><trkpt lat="44.1033337" lon="10.450542"><ele>276.5</ele><time>2026-05-03T07:35:40.286Z</time></trkpt><trkpt lat="44.1034481" lon="10.4502347"><ele>263.0</ele><time>2026-05-03T07:35:41.286Z</time></trkpt><trkpt lat="44.1035843" lon="10.4499473"><ele>263.0</ele><time>2026-05-03T07:35:42.283Z</time></trkpt><trkpt lat="44.1037302" lon="10.4496856"><ele>263.0</ele><time>2026-05-03T07:35:43.271Z</time></trkpt><trkpt lat="44.1038918" lon="10.4494498"><ele>260.5</ele><time>2026-05-03T07:35:44.25Z</time></trkpt><trkpt lat="44.1040508" lon="10.449214"><ele>258.0</ele><time>2026-05-03T07:35:45.234Z</time></trkpt><trkpt lat="44.1057352" lon="10.4486652"><ele>257.6666666666667</ele><time>2026-05-03T07:35:52.282Z</time></trkpt><trkpt lat="44.1059192" lon="10.4486217"><ele>257.33333333333337</ele><time>2026-05-03T07:35:53.287Z</time></trkpt><trkpt lat="44.1060685" lon="10.4486248"><ele>257.0</ele><time>2026-05-03T07:35:54.284Z</time></trkpt><trkpt lat="44.1062411" lon="10.4486338"><ele>257.0</ele><time>2026-05-03T07:35:55.281Z</time></trkpt><trkpt lat="44.1064404" lon="10.4487237"><ele>257.0</ele><time>2026-05-03T07:35:56.291Z</time></trkpt><trkpt lat="44.1066859" lon="10.4487722"><ele>245.66666666666669</ele><time>2026-05-03T07:35:57.285Z</time></trkpt><trkpt lat="44.1068763" lon="10.4488695"><ele>234.33333333333331</ele><time>2026-05-03T07:35:58.281Z</time></trkpt><trkpt lat="44.1070679" lon="10.4489771"><ele>223.0</ele><time>2026-05-03T07:35:59.286Z</time></trkpt><trkpt lat="44.1072599" lon="10.4491448"><ele>235.0</ele><time>2026-05-03T07:36:00.288Z</time></trkpt><trkpt lat="44.1074497" lon="10.4493283"><ele>247.0</ele><time>2026-05-03T07:36:01.281Z</time></trkpt><trkpt lat="44.1076155" lon="10.4495554"><ele>236.0</ele><time>2026-05-03T07:36:02.277Z</time></trkpt><trkpt lat="44.1078059" lon="10.4497273"><ele>225.0</ele><time>2026-05-03T07:36:03.273Z</time></trkpt><trkpt lat="44.108001" lon="10.4499032"><ele>225.0</ele><time>2026-05-03T07:36:04.274Z</time></trkpt><trkpt lat="44.1082429" lon="10.4500429"><ele>225.0</ele><time>2026-05-03T07:36:05.254Z</time></trkpt><trkpt lat="44.1084689" lon="10.4501748"><ele>231.0</ele><time>2026-05-03T07:36:06.249Z</time></trkpt><trkpt lat="44.1086892" lon="10.4502857"><ele>237.0</ele><time>2026-05-03T07:36:07.27Z</time></trkpt><trkpt lat="44.1089234" lon="10.4503582"><ele>241.0</ele><time>2026-05-03T07:36:08.266Z</time></trkpt><trkpt lat="44.1091494" lon="10.4504055"><ele>245.0</ele><time>2026-05-03T07:36:09.274Z</time></trkpt><trkpt lat="44.1094117" lon="10.4504348"><ele>232.0</ele><time>2026-05-03T07:36:10.286Z</time></trkpt><trkpt lat="44.1099098" lon="10.450574"><ele>232.0</ele><time>2026-05-03T07:36:12.29Z</time></trkpt><trkpt lat="44.1101317" lon="10.4506348"><ele>232.0</ele><time>2026-05-03T07:36:13.283Z</time></trkpt><trkpt lat="44.1103528" lon="10.4507022"><ele>232.0</ele><time>2026-05-03T07:36:14.294Z</time></trkpt><trkpt lat="44.1105693" lon="10.4507228"><ele>232.0</ele><time>2026-05-03T07:36:15.293Z</time></trkpt><trkpt lat="44.1107676" lon="10.4507441"><ele>232.0</ele><time>2026-05-03T07:36:16.292Z</time></trkpt><trkpt lat="44.1109723" lon="10.450798"><ele>233.33333333333331</ele><time>2026-05-03T07:36:17.29Z</time></trkpt><trkpt lat="44.1111836" lon="10.4508343"><ele>234.66666666666669</ele><time>2026-05-03T07:36:18.295Z</time></trkpt><trkpt lat="44.1113572" lon="10.4508728"><ele>236.0</ele><time>2026-05-03T07:36:19.291Z</time></trkpt><trkpt lat="44.1115741" lon="10.4508952"><ele>239.33333333333334</ele><time>2026-05-03T07:36:20.29Z</time></trkpt><trkpt lat="44.1117347" lon="10.4509478"><ele>242.66666666666669</ele><time>2026-05-03T07:36:21.291Z</time></trkpt><trkpt lat="44.1118998" lon="10.4509472"><ele>246.0</ele><time>2026-05-03T07:36:22.292Z</time></trkpt><trkpt lat="44.1120591" lon="10.4509512"><ele>246.0</ele><time>2026-05-03T07:36:23.296Z</time></trkpt><trkpt lat="44.1121851" lon="10.4510025"><ele>246.0</ele><time>2026-05-03T07:36:24.293Z</time></trkpt><trkpt lat="44.1123588" lon="10.4509466"><ele>246.0</ele><time>2026-05-03T07:36:25.292Z</time></trkpt><trkpt lat="44.1124973" lon="10.4509237"><ele>246.0</ele><time>2026-05-03T07:36:26.284Z</time></trkpt><trkpt lat="44.1126524" lon="10.4508592"><ele>247.33333333333331</ele><time>2026-05-03T07:36:27.285Z</time></trkpt><trkpt lat="44.1128103" lon="10.4508015"><ele>248.66666666666666</ele><time>2026-05-03T07:36:28.292Z</time></trkpt><trkpt lat="44.1129935" lon="10.4506471"><ele>250.0</ele><time>2026-05-03T07:36:29.294Z</time></trkpt><trkpt lat="44.1131401" lon="10.4505486"><ele>252.0</ele><time>2026-05-03T07:36:30.29Z</time></trkpt><trkpt lat="44.1132734" lon="10.4504285"><ele>254.0</ele><time>2026-05-03T07:36:31.287Z</time></trkpt><trkpt lat="44.1134027" lon="10.4503287"><ele>256.0</ele><time>2026-05-03T07:36:32.289Z</time></trkpt><trkpt lat="44.1135158" lon="10.4502268"><ele>258.0</ele><time>2026-05-03T07:36:33.292Z</time></trkpt><trkpt lat="44.1136248" lon="10.4501349"><ele>258.0</ele><time>2026-05-03T07:36:34.289Z</time></trkpt><trkpt lat="44.1137202" lon="10.4500061"><ele>258.0</ele><time>2026-05-03T07:36:35.292Z</time></trkpt><trkpt lat="44.1137987" lon="10.4498659"><ele>258.0</ele><time>2026-05-03T07:36:36.3Z</time></trkpt><trkpt lat="44.1138683" lon="10.4497281"><ele>258.0</ele><time>2026-05-03T07:36:37.292Z</time></trkpt><trkpt lat="44.1139466" lon="10.4495359"><ele>264.0</ele><time>2026-05-03T07:36:38.288Z</time></trkpt><trkpt lat="44.1140616" lon="10.4493636"><ele>270.0</ele><time>2026-05-03T07:36:39.288Z</time></trkpt><trkpt lat="44.1140996" lon="10.4491246"><ele>276.0</ele><time>2026-05-03T07:36:40.284Z</time></trkpt><trkpt lat="44.1141293" lon="10.4489076"><ele>282.0</ele><time>2026-05-03T07:36:41.269Z</time></trkpt><trkpt lat="44.1141085" lon="10.4485983"><ele>288.0</ele><time>2026-05-03T07:36:42.269Z</time></trkpt><trkpt lat="44.1140615" lon="10.4483084"><ele>294.0</ele><time>2026-05-03T07:36:43.281Z</time></trkpt><trkpt lat="44.1140698" lon="10.4480726"><ele>299.0</ele><time>2026-05-03T07:36:44.282Z</time></trkpt><trkpt lat="44.1140644" lon="10.4478227"><ele>304.0</ele><time>2026-05-03T07:36:45.281Z</time></trkpt><trkpt lat="44.1140799" lon="10.4475624"><ele>309.0</ele><time>2026-05-03T07:36:46.279Z</time></trkpt><trkpt lat="44.1140925" lon="10.4473085"><ele>293.0</ele><time>2026-05-03T07:36:47.281Z</time></trkpt><trkpt lat="44.1140917" lon="10.4471139"><ele>277.0</ele><time>2026-05-03T07:36:48.283Z</time></trkpt><trkpt lat="44.1141131" lon="10.446855"><ele>261.0</ele><time>2026-05-03T07:36:49.286Z</time></trkpt><trkpt lat="44.1141945" lon="10.4466576"><ele>261.0</ele><time>2026-05-03T07:36:50.279Z</time></trkpt><trkpt lat="44.114307" lon="10.4464855"><ele>261.0</ele><time>2026-05-03T07:36:51.286Z</time></trkpt><trkpt lat="44.1143817" lon="10.4462722"><ele>261.0</ele><time>2026-05-03T07:36:52.278Z</time></trkpt><trkpt lat="44.1144904" lon="10.4460398"><ele>271.0</ele><time>2026-05-03T07:36:53.282Z</time></trkpt><trkpt lat="44.1145883" lon="10.4458743"><ele>281.0</ele><time>2026-05-03T07:36:54.281Z</time></trkpt><trkpt lat="44.1147321" lon="10.4457273"><ele>291.0</ele><time>2026-05-03T07:36:55.284Z</time></trkpt><trkpt lat="44.1148991" lon="10.4456062"><ele>288.3333333333333</ele><time>2026-05-03T07:36:56.293Z</time></trkpt><trkpt lat="44.1150829" lon="10.4454802"><ele>285.66666666666663</ele><time>2026-05-03T07:36:57.273Z</time></trkpt><trkpt lat="44.1152694" lon="10.4453661"><ele>283.0</ele><time>2026-05-03T07:36:58.252Z</time></trkpt><trkpt lat="44.1154414" lon="10.445247"><ele>283.0</ele><time>2026-05-03T07:36:59.252Z</time></trkpt><trkpt lat="44.1155901" lon="10.4452142"><ele>283.0</ele><time>2026-05-03T07:37:00.258Z</time></trkpt><trkpt lat="44.1157653" lon="10.445175"><ele>283.0</ele><time>2026-05-03T07:37:01.275Z</time></trkpt><trkpt lat="44.1158818" lon="10.445121"><ele>273.0</ele><time>2026-05-03T07:37:02.286Z</time></trkpt><trkpt lat="44.1160526" lon="10.445061"><ele>263.0</ele><time>2026-05-03T07:37:03.281Z</time></trkpt><trkpt lat="44.1161827" lon="10.4450108"><ele>253.0</ele><time>2026-05-03T07:37:04.286Z</time></trkpt><trkpt lat="44.1163555" lon="10.4449452"><ele>253.0</ele><time>2026-05-03T07:37:05.287Z</time></trkpt><trkpt lat="44.1165151" lon="10.4449263"><ele>253.0</ele><time>2026-05-03T07:37:06.284Z</time></trkpt><trkpt lat="44.1166722" lon="10.4448797"><ele>253.0</ele><time>2026-05-03T07:37:07.284Z</time></trkpt><trkpt lat="44.1168393" lon="10.444791"><ele>250.66666666666666</ele><time>2026-05-03T07:37:08.286Z</time></trkpt><trkpt lat="44.117003" lon="10.4446595"><ele>248.33333333333331</ele><time>2026-05-03T07:37:09.267Z</time></trkpt><trkpt lat="44.117163" lon="10.4445507"><ele>246.0</ele><time>2026-05-03T07:37:10.257Z</time></trkpt><trkpt lat="44.1173034" lon="10.4444786"><ele>248.25</ele><time>2026-05-03T07:37:11.276Z</time></trkpt><trkpt lat="44.117451" lon="10.4444298"><ele>250.5</ele><time>2026-05-03T07:37:12.286Z</time></trkpt><trkpt lat="44.1175849" lon="10.4443499"><ele>252.75</ele><time>2026-05-03T07:37:13.286Z</time></trkpt><trkpt lat="44.1177071" lon="10.4442431"><ele>255.0</ele><time>2026-05-03T07:37:14.269Z</time></trkpt><trkpt lat="44.1178297" lon="10.4440997"><ele>255.0</ele><time>2026-05-03T07:37:15.257Z</time></trkpt><trkpt lat="44.1179255" lon="10.4439012"><ele>255.0</ele><time>2026-05-03T07:37:16.25Z</time></trkpt><trkpt lat="44.1179874" lon="10.4436528"><ele>255.0</ele><time>2026-05-03T07:37:17.249Z</time></trkpt><trkpt lat="44.1180395" lon="10.4433761"><ele>267.0</ele><time>2026-05-03T07:37:18.265Z</time></trkpt><trkpt lat="44.1180805" lon="10.4430819"><ele>279.0</ele><time>2026-05-03T07:37:19.275Z</time></trkpt><trkpt lat="44.1181229" lon="10.4427843"><ele>291.0</ele><time>2026-05-03T07:37:20.278Z</time></trkpt><trkpt lat="44.1181257" lon="10.4424703"><ele>290.3333333333333</ele><time>2026-05-03T07:37:21.274Z</time></trkpt><trkpt lat="44.1181297" lon="10.4421586"><ele>289.66666666666663</ele><time>2026-05-03T07:37:22.276Z</time></trkpt><trkpt lat="44.1181222" lon="10.4418527"><ele>289.0</ele><time>2026-05-03T07:37:23.279Z</time></trkpt><trkpt lat="44.1181138" lon="10.4415999"><ele>280.66666666666663</ele><time>2026-05-03T07:37:24.258Z</time></trkpt><trkpt lat="44.1180869" lon="10.4412783"><ele>272.3333333333333</ele><time>2026-05-03T07:37:25.266Z</time></trkpt><trkpt lat="44.1180033" lon="10.4410284"><ele>264.0</ele><time>2026-05-03T07:37:26.262Z</time></trkpt><trkpt lat="44.1179197" lon="10.4407785"><ele>264.0</ele><time>2026-05-03T07:37:27.249Z</time></trkpt><trkpt lat="44.1177281" lon="10.440726"><ele>264.0</ele><time>2026-05-03T07:37:28.274Z</time></trkpt><trkpt lat="44.1175575" lon="10.4405121"><ele>264.0</ele><time>2026-05-03T07:37:29.266Z</time></trkpt><trkpt lat="44.1173899" lon="10.4402643"><ele>278.0</ele><time>2026-05-03T07:37:30.266Z</time></trkpt><trkpt lat="44.1169493" lon="10.439927"><ele>278.0</ele><time>2026-05-03T07:37:32.275Z</time></trkpt><trkpt lat="44.1167451" lon="10.4397305"><ele>278.0</ele><time>2026-05-03T07:37:33.275Z</time></trkpt><trkpt lat="44.1166042" lon="10.4394547"><ele>272.0</ele><time>2026-05-03T07:37:34.259Z</time></trkpt><trkpt lat="44.1164632" lon="10.4391789"><ele>266.0</ele><time>2026-05-03T07:37:35.243Z</time></trkpt><trkpt lat="44.1162757" lon="10.4377863"><ele>266.0</ele><time>2026-05-03T07:37:40.256Z</time></trkpt><trkpt lat="44.1163451" lon="10.4373848"><ele>266.0</ele><time>2026-05-03T07:37:41.277Z</time></trkpt><trkpt lat="44.1165889" lon="10.435711"><ele>253.5</ele><time>2026-05-03T07:37:42.278Z</time></trkpt><trkpt lat="44.1165842" lon="10.4363177"><ele>241.0</ele><time>2026-05-03T07:37:44.268Z</time></trkpt><trkpt lat="44.1166807" lon="10.4363104"><ele>267.0</ele><time>2026-05-03T07:37:45.279Z</time></trkpt><trkpt lat="44.1158325" lon="10.4364932"><ele>260.0</ele><time>2026-05-03T07:37:46.278Z</time></trkpt><trkpt lat="44.1155951" lon="10.4357944"><ele>260.0</ele><time>2026-05-03T07:37:50.267Z</time></trkpt><trkpt lat="44.1153074" lon="10.4356038"><ele>260.0</ele><time>2026-05-03T07:37:52.27Z</time></trkpt><trkpt lat="44.1155479" lon="10.4353063"><ele>255.0</ele><time>2026-05-03T07:37:53.287Z</time></trkpt><trkpt lat="44.1153151" lon="10.435302"><ele>250.0</ele><time>2026-05-03T07:37:54.281Z</time></trkpt><trkpt lat="44.1147841" lon="10.4354081"><ele>250.0</ele><time>2026-05-03T07:37:55.278Z</time></trkpt><trkpt lat="44.1144714" lon="10.4352795"><ele>250.0</ele><time>2026-05-03T07:37:57.263Z</time></trkpt><trkpt lat="44.1137796" lon="10.4354956"><ele>252.0</ele><time>2026-05-03T07:37:58.28Z</time></trkpt><trkpt lat="44.1135373" lon="10.4353437"><ele>254.0</ele><time>2026-05-03T07:38:00.27Z</time></trkpt><trkpt lat="44.1137589" lon="10.4348838"><ele>270.0</ele><time>2026-05-03T07:38:01.277Z</time></trkpt><trkpt lat="44.1126225" lon="10.4352258"><ele>299.0</ele><time>2026-05-03T07:38:03.264Z</time></trkpt><trkpt lat="44.1122424" lon="10.4346089"><ele>274.0</ele><time>2026-05-03T07:38:06.262Z</time></trkpt><trkpt lat="44.113034" lon="10.4309864"><ele>281.0</ele><time>2026-05-03T07:38:20.047Z</time></trkpt><trkpt lat="44.1148471" lon="10.4229757"><ele>281.0</ele><time>2026-05-03T07:38:48.273Z</time></trkpt><trkpt lat="44.1145684" lon="10.4228046"><ele>281.0</ele><time>2026-05-03T07:38:49.274Z</time></trkpt><trkpt lat="44.1146767" lon="10.4221198"><ele>291.0</ele><time>2026-05-03T07:38:51.275Z</time></trkpt><trkpt lat="44.1147411" lon="10.4212361"><ele>291.0</ele><time>2026-05-03T07:38:53.271Z</time></trkpt><trkpt lat="44.1145903" lon="10.4212205"><ele>291.0</ele><time>2026-05-03T07:38:55.268Z</time></trkpt><trkpt lat="44.1144985" lon="10.420618"><ele>291.0</ele><time>2026-05-03T07:38:57.272Z</time></trkpt><trkpt lat="44.1144823" lon="10.4202601"><ele>291.0</ele><time>2026-05-03T07:38:58.278Z</time></trkpt><trkpt lat="44.1152083" lon="10.4199244"><ele>282.5</ele><time>2026-05-03T07:39:00.263Z</time></trkpt><trkpt lat="44.1151621" lon="10.4196602"><ele>274.0</ele><time>2026-05-03T07:39:01.283Z</time></trkpt><trkpt lat="44.1145627" lon="10.4193007"><ele>274.0</ele><time>2026-05-03T07:39:02.283Z</time></trkpt><trkpt lat="44.1145242" lon="10.4196387"><ele>274.0</ele><time>2026-05-03T07:39:03.282Z</time></trkpt><trkpt lat="44.1146314" lon="10.4194821"><ele>274.0</ele><time>2026-05-03T07:39:04.286Z</time></trkpt><trkpt lat="44.1147737" lon="10.419406"><ele>274.0</ele><time>2026-05-03T07:39:05.29Z</time></trkpt><trkpt lat="44.1147601" lon="10.4192214"><ele>274.0</ele><time>2026-05-03T07:39:07.287Z</time></trkpt><trkpt lat="44.1145411" lon="10.4189324"><ele>274.0</ele><time>2026-05-03T07:39:09.29Z</time></trkpt><trkpt lat="44.1144397" lon="10.4187607"><ele>272.0</ele><time>2026-05-03T07:39:10.29Z</time></trkpt><trkpt lat="44.1143095" lon="10.4186131"><ele>270.0</ele><time>2026-05-03T07:39:11.286Z</time></trkpt><trkpt lat="44.114168" lon="10.4184862"><ele>268.0</ele><time>2026-05-03T07:39:12.283Z</time></trkpt><trkpt lat="44.1139762" lon="10.4183967"><ele>268.0</ele><time>2026-05-03T07:39:13.287Z</time></trkpt><trkpt lat="44.1137849" lon="10.4183487"><ele>268.0</ele><time>2026-05-03T07:39:14.275Z</time></trkpt><trkpt lat="44.1135691" lon="10.4183056"><ele>268.0</ele><time>2026-05-03T07:39:15.274Z</time></trkpt><trkpt lat="44.1133644" lon="10.4183632"><ele>270.3333333333333</ele><time>2026-05-03T07:39:16.272Z</time></trkpt><trkpt lat="44.1131678" lon="10.4184156"><ele>272.6666666666667</ele><time>2026-05-03T07:39:17.282Z</time></trkpt><trkpt lat="44.1129631" lon="10.4184987"><ele>275.0</ele><time>2026-05-03T07:39:18.278Z</time></trkpt><trkpt lat="44.1127734" lon="10.4186002"><ele>275.0</ele><time>2026-05-03T07:39:19.274Z</time></trkpt><trkpt lat="44.1125919" lon="10.418639"><ele>275.0</ele><time>2026-05-03T07:39:20.286Z</time></trkpt><trkpt lat="44.1123975" lon="10.4186827"><ele>275.0</ele><time>2026-05-03T07:39:21.284Z</time></trkpt><trkpt lat="44.1121963" lon="10.4186788"><ele>274.33333333333337</ele><time>2026-05-03T07:39:22.278Z</time></trkpt><trkpt lat="44.1119936" lon="10.4186313"><ele>273.6666666666667</ele><time>2026-05-03T07:39:23.286Z</time></trkpt><trkpt lat="44.1117874" lon="10.4185872"><ele>273.0</ele><time>2026-05-03T07:39:24.28Z</time></trkpt><trkpt lat="44.1115697" lon="10.4185345"><ele>273.0</ele><time>2026-05-03T07:39:25.285Z</time></trkpt><trkpt lat="44.1113825" lon="10.4185094"><ele>273.0</ele><time>2026-05-03T07:39:26.282Z</time></trkpt><trkpt lat="44.1111729" lon="10.4184144"><ele>273.0</ele><time>2026-05-03T07:39:27.283Z</time></trkpt><trkpt lat="44.1109635" lon="10.4183602"><ele>273.0</ele><time>2026-05-03T07:39:28.289Z</time></trkpt><trkpt lat="44.1107549" lon="10.4182526"><ele>273.0</ele><time>2026-05-03T07:39:29.277Z</time></trkpt><trkpt lat="44.1105613" lon="10.4181155"><ele>273.0</ele><time>2026-05-03T07:39:30.278Z</time></trkpt><trkpt lat="44.1104081" lon="10.4179559"><ele>279.0</ele><time>2026-05-03T07:39:31.281Z</time></trkpt><trkpt lat="44.1102844" lon="10.4177965"><ele>285.0</ele><time>2026-05-03T07:39:32.286Z</time></trkpt><trkpt lat="44.1101914" lon="10.4176064"><ele>291.0</ele><time>2026-05-03T07:39:33.253Z</time></trkpt><trkpt lat="44.110095" lon="10.4174183"><ele>291.0</ele><time>2026-05-03T07:39:34.245Z</time></trkpt><trkpt lat="44.1100111" lon="10.4172178"><ele>291.0</ele><time>2026-05-03T07:39:35.247Z</time></trkpt><trkpt lat="44.1100146" lon="10.4169918"><ele>291.0</ele><time>2026-05-03T07:39:36.262Z</time></trkpt><trkpt lat="44.1100158" lon="10.4167513"><ele>291.0</ele><time>2026-05-03T07:39:37.257Z</time></trkpt><trkpt lat="44.1099133" lon="10.4165173"><ele>291.0</ele><time>2026-05-03T07:39:38.273Z</time></trkpt><trkpt lat="44.1097929" lon="10.4163177"><ele>291.0</ele><time>2026-05-03T07:39:39.287Z</time></trkpt><trkpt lat="44.1096647" lon="10.4161329"><ele>291.0</ele><time>2026-05-03T07:39:40.269Z</time></trkpt><trkpt lat="44.1095191" lon="10.4159844"><ele>291.0</ele><time>2026-05-03T07:39:41.281Z</time></trkpt><trkpt lat="44.1093947" lon="10.4158342"><ele>291.0</ele><time>2026-05-03T07:39:42.264Z</time></trkpt><trkpt lat="44.109267" lon="10.4156955"><ele>291.0</ele><time>2026-05-03T07:39:43.277Z</time></trkpt><trkpt lat="44.1092049" lon="10.4155514"><ele>291.0</ele><time>2026-05-03T07:39:44.282Z</time></trkpt><trkpt lat="44.1091668" lon="10.4153911"><ele>291.0</ele><time>2026-05-03T07:39:45.286Z</time></trkpt><trkpt lat="44.1091351" lon="10.4152218"><ele>291.0</ele><time>2026-05-03T07:39:46.284Z</time></trkpt><trkpt lat="44.1091096" lon="10.4150221"><ele>297.25</ele><time>2026-05-03T07:39:47.285Z</time></trkpt><trkpt lat="44.109075" lon="10.4148555"><ele>303.5</ele><time>2026-05-03T07:39:48.292Z</time></trkpt><trkpt lat="44.1090604" lon="10.4146991"><ele>309.75</ele><time>2026-05-03T07:39:49.288Z</time></trkpt><trkpt lat="44.1090369" lon="10.4145414"><ele>316.0</ele><time>2026-05-03T07:39:50.289Z</time></trkpt><trkpt lat="44.1090261" lon="10.4143935"><ele>316.0</ele><time>2026-05-03T07:39:51.292Z</time></trkpt><trkpt lat="44.1090268" lon="10.4142529"><ele>316.0</ele><time>2026-05-03T07:39:52.294Z</time></trkpt><trkpt lat="44.1090446" lon="10.4141111"><ele>316.0</ele><time>2026-05-03T07:39:53.297Z</time></trkpt><trkpt lat="44.1090652" lon="10.4139737"><ele>316.0</ele><time>2026-05-03T07:39:54.293Z</time></trkpt><trkpt lat="44.1090971" lon="10.4138425"><ele>316.0</ele><time>2026-05-03T07:39:55.293Z</time></trkpt><trkpt lat="44.1091447" lon="10.4137152"><ele>308.6</ele><time>2026-05-03T07:39:56.285Z</time></trkpt><trkpt lat="44.1091996" lon="10.4135908"><ele>301.20000000000005</ele><time>2026-05-03T07:39:57.282Z</time></trkpt><trkpt lat="44.1092695" lon="10.4134695"><ele>293.79999999999995</ele><time>2026-05-03T07:39:58.284Z</time></trkpt><trkpt lat="44.1093365" lon="10.4133543"><ele>286.4</ele><time>2026-05-03T07:39:59.287Z</time></trkpt><trkpt lat="44.1093722" lon="10.4132177"><ele>279.0</ele><time>2026-05-03T07:40:00.291Z</time></trkpt><trkpt lat="44.1094275" lon="10.4131322"><ele>279.0</ele><time>2026-05-03T07:40:01.289Z</time></trkpt><trkpt lat="44.1094742" lon="10.4130473"><ele>279.0</ele><time>2026-05-03T07:40:02.301Z</time></trkpt><trkpt lat="44.1095208" lon="10.4129603"><ele>279.0</ele><time>2026-05-03T07:40:03.292Z</time></trkpt><trkpt lat="44.1095662" lon="10.4128835"><ele>279.0</ele><time>2026-05-03T07:40:04.294Z</time></trkpt><trkpt lat="44.1096237" lon="10.4128421"><ele>279.0</ele><time>2026-05-03T07:40:05.294Z</time></trkpt><trkpt lat="44.1097171" lon="10.4127775"><ele>279.0</ele><time>2026-05-03T07:40:07.289Z</time></trkpt><trkpt lat="44.1098633" lon="10.4127957"><ele>280.2</ele><time>2026-05-03T07:40:12.293Z</time></trkpt><trkpt lat="44.1099374" lon="10.4127925"><ele>281.4</ele><time>2026-05-03T07:40:22.296Z</time></trkpt><trkpt lat="44.1099664" lon="10.4127068"><ele>282.6</ele><time>2026-05-03T07:40:36.274Z</time></trkpt><trkpt lat="44.1100188" lon="10.4126108"><ele>283.8</ele><time>2026-05-03T07:40:44.276Z</time></trkpt><trkpt lat="44.1101442" lon="10.4125902"><ele>285.0</ele><time>2026-05-03T07:40:50.256Z</time></trkpt><trkpt lat="44.1102412" lon="10.4126628"><ele>285.0</ele><time>2026-05-03T07:40:51.279Z</time></trkpt><trkpt lat="44.1103521" lon="10.4126808"><ele>285.0</ele><time>2026-05-03T07:40:54.288Z</time></trkpt><trkpt lat="44.110425" lon="10.4126245"><ele>285.0</ele><time>2026-05-03T07:40:57.26Z</time></trkpt><trkpt lat="44.1104772" lon="10.4125638"><ele>285.0</ele><time>2026-05-03T07:41:00.246Z</time></trkpt><trkpt lat="44.110558" lon="10.4125069"><ele>285.0</ele><time>2026-05-03T07:41:06.259Z</time></trkpt><trkpt lat="44.110547" lon="10.4123932"><ele>285.0</ele><time>2026-05-03T07:41:08.282Z</time></trkpt><trkpt lat="44.110501" lon="10.4122558"><ele>285.2</ele><time>2026-05-03T07:41:10.273Z</time></trkpt><trkpt lat="44.1104704" lon="10.4121173"><ele>285.4</ele><time>2026-05-03T07:41:12.275Z</time></trkpt><trkpt lat="44.1104484" lon="10.4119825"><ele>285.6</ele><time>2026-05-03T07:41:14.264Z</time></trkpt><trkpt lat="44.1104251" lon="10.4118271"><ele>285.8</ele><time>2026-05-03T07:41:16.267Z</time></trkpt><trkpt lat="44.1103619" lon="10.4117833"><ele>286.0</ele><time>2026-05-03T07:41:18.286Z</time></trkpt><trkpt lat="44.1102645" lon="10.4118483"><ele>286.0</ele><time>2026-05-03T07:41:20.291Z</time></trkpt><trkpt lat="44.1101755" lon="10.4119252"><ele>286.0</ele><time>2026-05-03T07:41:22.262Z</time></trkpt><trkpt lat="44.1101029" lon="10.4120061"><ele>286.0</ele><time>2026-05-03T07:41:24.274Z</time></trkpt><trkpt lat="44.1100458" lon="10.4120751"><ele>286.0</ele><time>2026-05-03T07:41:29.286Z</time></trkpt><trkpt lat="44.1100917" lon="10.4121407"><ele>286.0</ele><time>2026-05-03T07:42:40.278Z</time></trkpt><trkpt lat="44.1101719" lon="10.412184"><ele>286.0</ele><time>2026-05-03T07:42:42.279Z</time></trkpt><trkpt lat="44.1102195" lon="10.4122834"><ele>285.8333333333333</ele><time>2026-05-03T07:42:44.271Z</time></trkpt><trkpt lat="44.1101969" lon="10.4123995"><ele>285.66666666666663</ele><time>2026-05-03T07:42:49.258Z</time></trkpt><trkpt lat="44.1101051" lon="10.4124767"><ele>285.5</ele><time>2026-05-03T07:42:51.256Z</time></trkpt><trkpt lat="44.1100401" lon="10.4125239"><ele>285.3333333333333</ele><time>2026-05-03T07:42:53.251Z</time></trkpt><trkpt lat="44.109974" lon="10.4125302"><ele>285.1666666666667</ele><time>2026-05-03T07:42:56.292Z</time></trkpt><trkpt lat="44.1099949" lon="10.4126587"><ele>285.0</ele><time>2026-05-03T07:42:58.274Z</time></trkpt><trkpt lat="44.1100287" lon="10.4127821"><ele>285.0</ele><time>2026-05-03T07:42:59.28Z</time></trkpt><trkpt lat="44.1100645" lon="10.4129571"><ele>285.0</ele><time>2026-05-03T07:43:01.294Z</time></trkpt><trkpt lat="44.1101055" lon="10.4130721"><ele>285.0</ele><time>2026-05-03T07:43:02.282Z</time></trkpt><trkpt lat="44.1101872" lon="10.4133086"><ele>285.0</ele><time>2026-05-03T07:43:04.279Z</time></trkpt><trkpt lat="44.1102322" lon="10.4134333"><ele>283.6666666666667</ele><time>2026-05-03T07:43:05.28Z</time></trkpt><trkpt lat="44.1102852" lon="10.4135519"><ele>282.3333333333333</ele><time>2026-05-03T07:43:06.288Z</time></trkpt><trkpt lat="44.1103345" lon="10.4136497"><ele>281.0</ele><time>2026-05-03T07:43:07.274Z</time></trkpt><trkpt lat="44.1103828" lon="10.4137291"><ele>279.66666666666663</ele><time>2026-05-03T07:43:08.276Z</time></trkpt><trkpt lat="44.1104517" lon="10.4137936"><ele>278.3333333333333</ele><time>2026-05-03T07:43:09.286Z</time></trkpt><trkpt lat="44.1105272" lon="10.4138153"><ele>277.0</ele><time>2026-05-03T07:43:10.273Z</time></trkpt><trkpt lat="44.110594" lon="10.4138424"><ele>277.0</ele><time>2026-05-03T07:43:11.29Z</time></trkpt><trkpt lat="44.1106756" lon="10.4138015"><ele>277.0</ele><time>2026-05-03T07:43:12.278Z</time></trkpt><trkpt lat="44.1107788" lon="10.4137159"><ele>277.0</ele><time>2026-05-03T07:43:13.277Z</time></trkpt><trkpt lat="44.1108899" lon="10.4136366"><ele>277.0</ele><time>2026-05-03T07:43:14.273Z</time></trkpt><trkpt lat="44.1110072" lon="10.4135488"><ele>277.75</ele><time>2026-05-03T07:43:15.271Z</time></trkpt><trkpt lat="44.1111282" lon="10.4134642"><ele>278.5</ele><time>2026-05-03T07:43:16.282Z</time></trkpt><trkpt lat="44.1112512" lon="10.4133802"><ele>279.25</ele><time>2026-05-03T07:43:17.272Z</time></trkpt><trkpt lat="44.1113755" lon="10.4132964"><ele>280.0</ele><time>2026-05-03T07:43:18.268Z</time></trkpt><trkpt lat="44.1115002" lon="10.4132088"><ele>277.75</ele><time>2026-05-03T07:43:19.27Z</time></trkpt><trkpt lat="44.1116242" lon="10.413124"><ele>275.5</ele><time>2026-05-03T07:43:20.27Z</time></trkpt><trkpt lat="44.1117474" lon="10.4130313"><ele>273.25</ele><time>2026-05-03T07:43:21.287Z</time></trkpt><trkpt lat="44.1118664" lon="10.4129384"><ele>271.0</ele><time>2026-05-03T07:43:22.274Z</time></trkpt><trkpt lat="44.1119859" lon="10.4128916"><ele>271.0</ele><time>2026-05-03T07:43:23.278Z</time></trkpt><trkpt lat="44.1120911" lon="10.4128402"><ele>271.0</ele><time>2026-05-03T07:43:24.272Z</time></trkpt><trkpt lat="44.1122056" lon="10.4127797"><ele>271.0</ele><time>2026-05-03T07:43:25.27Z</time></trkpt><trkpt lat="44.1123165" lon="10.4127129"><ele>271.0</ele><time>2026-05-03T07:43:26.282Z</time></trkpt><trkpt lat="44.1124275" lon="10.4126444"><ele>273.5</ele><time>2026-05-03T07:43:27.271Z</time></trkpt><trkpt lat="44.1125393" lon="10.4125762"><ele>276.0</ele><time>2026-05-03T07:43:28.271Z</time></trkpt><trkpt lat="44.1126585" lon="10.4125108"><ele>278.5</ele><time>2026-05-03T07:43:29.271Z</time></trkpt><trkpt lat="44.112778" lon="10.4124438"><ele>281.0</ele><time>2026-05-03T07:43:30.269Z</time></trkpt><trkpt lat="44.1129025" lon="10.4123787"><ele>281.0</ele><time>2026-05-03T07:43:31.281Z</time></trkpt><trkpt lat="44.1130213" lon="10.4123148"><ele>281.0</ele><time>2026-05-03T07:43:32.274Z</time></trkpt><trkpt lat="44.1131415" lon="10.4122336"><ele>281.0</ele><time>2026-05-03T07:43:33.272Z</time></trkpt><trkpt lat="44.1132626" lon="10.412147"><ele>281.0</ele><time>2026-05-03T07:43:34.269Z</time></trkpt><trkpt lat="44.1133756" lon="10.4120525"><ele>281.25</ele><time>2026-05-03T07:43:35.269Z</time></trkpt><trkpt lat="44.1134931" lon="10.4119686"><ele>281.5</ele><time>2026-05-03T07:43:36.282Z</time></trkpt><trkpt lat="44.1136135" lon="10.4118837"><ele>281.75</ele><time>2026-05-03T07:43:37.265Z</time></trkpt><trkpt lat="44.1137285" lon="10.4117735"><ele>282.0</ele><time>2026-05-03T07:43:38.267Z</time></trkpt><trkpt lat="44.113848" lon="10.4116844"><ele>282.0</ele><time>2026-05-03T07:43:39.277Z</time></trkpt><trkpt lat="44.1139524" lon="10.4115658"><ele>282.0</ele><time>2026-05-03T07:43:40.275Z</time></trkpt><trkpt lat="44.1140576" lon="10.4114467"><ele>282.0</ele><time>2026-05-03T07:43:41.287Z</time></trkpt><trkpt lat="44.1141565" lon="10.4113229"><ele>282.0</ele><time>2026-05-03T07:43:42.276Z</time></trkpt><trkpt lat="44.1142707" lon="10.4112291"><ele>281.0</ele><time>2026-05-03T07:43:43.278Z</time></trkpt><trkpt lat="44.1143837" lon="10.4111357"><ele>280.0</ele><time>2026-05-03T07:43:44.277Z</time></trkpt><trkpt lat="44.1144774" lon="10.4110435"><ele>279.0</ele><time>2026-05-03T07:43:45.274Z</time></trkpt><trkpt lat="44.1145946" lon="10.4109399"><ele>278.0</ele><time>2026-05-03T07:43:46.288Z</time></trkpt><trkpt lat="44.1146863" lon="10.4108694"><ele>278.0</ele><time>2026-05-03T07:43:47.277Z</time></trkpt><trkpt lat="44.1147867" lon="10.410805"><ele>278.0</ele><time>2026-05-03T07:43:48.273Z</time></trkpt><trkpt lat="44.1148888" lon="10.4107236"><ele>278.0</ele><time>2026-05-03T07:43:49.274Z</time></trkpt><trkpt lat="44.1150029" lon="10.4106609"><ele>278.0</ele><time>2026-05-03T07:43:50.274Z</time></trkpt><trkpt lat="44.115119" lon="10.4106042"><ele>278.5</ele><time>2026-05-03T07:43:51.27Z</time></trkpt><trkpt lat="44.1152401" lon="10.4105557"><ele>279.0</ele><time>2026-05-03T07:43:52.281Z</time></trkpt><trkpt lat="44.1153662" lon="10.4105195"><ele>279.5</ele><time>2026-05-03T07:43:53.273Z</time></trkpt><trkpt lat="44.1154974" lon="10.4104978"><ele>280.0</ele><time>2026-05-03T07:43:54.272Z</time></trkpt><trkpt lat="44.1156328" lon="10.4104842"><ele>281.75</ele><time>2026-05-03T07:43:55.271Z</time></trkpt><trkpt lat="44.1157696" lon="10.4104696"><ele>283.5</ele><time>2026-05-03T07:43:56.269Z</time></trkpt><trkpt lat="44.1158969" lon="10.4104216"><ele>285.25</ele><time>2026-05-03T07:43:57.281Z</time></trkpt><trkpt lat="44.1159999" lon="10.4103561"><ele>287.0</ele><time>2026-05-03T07:43:58.271Z</time></trkpt><trkpt lat="44.1160939" lon="10.4103122"><ele>287.0</ele><time>2026-05-03T07:43:59.271Z</time></trkpt><trkpt lat="44.1161729" lon="10.4102788"><ele>287.0</ele><time>2026-05-03T07:44:00.273Z</time></trkpt><trkpt lat="44.1162546" lon="10.4102316"><ele>287.0</ele><time>2026-05-03T07:44:01.268Z</time></trkpt><trkpt lat="44.1163293" lon="10.4101859"><ele>287.0</ele><time>2026-05-03T07:44:02.279Z</time></trkpt><trkpt lat="44.1164408" lon="10.4101173"><ele>287.0</ele><time>2026-05-03T07:44:04.268Z</time></trkpt><trkpt lat="44.1165078" lon="10.4100809"><ele>287.0</ele><time>2026-05-03T07:44:05.269Z</time></trkpt><trkpt lat="44.1165926" lon="10.4100435"><ele>288.0</ele><time>2026-05-03T07:44:06.27Z</time></trkpt><trkpt lat="44.1167033" lon="10.4099998"><ele>289.0</ele><time>2026-05-03T07:44:07.281Z</time></trkpt><trkpt lat="44.1168439" lon="10.4099511"><ele>290.0</ele><time>2026-05-03T07:44:08.274Z</time></trkpt><trkpt lat="44.1169895" lon="10.40991"><ele>291.0</ele><time>2026-05-03T07:44:09.272Z</time></trkpt><trkpt lat="44.1171281" lon="10.4098728"><ele>291.0</ele><time>2026-05-03T07:44:10.273Z</time></trkpt><trkpt lat="44.1172728" lon="10.4098251"><ele>291.0</ele><time>2026-05-03T07:44:11.273Z</time></trkpt><trkpt lat="44.1174456" lon="10.4097742"><ele>291.0</ele><time>2026-05-03T07:44:12.284Z</time></trkpt><trkpt lat="44.1175841" lon="10.4097053"><ele>290.40000000000003</ele><time>2026-05-03T07:44:13.27Z</time></trkpt><trkpt lat="44.1176765" lon="10.409672"><ele>289.8</ele><time>2026-05-03T07:44:14.276Z</time></trkpt><trkpt lat="44.1177573" lon="10.4096415"><ele>289.20000000000005</ele><time>2026-05-03T07:44:15.275Z</time></trkpt><trkpt lat="44.1178516" lon="10.4096664"><ele>288.6</ele><time>2026-05-03T07:44:16.269Z</time></trkpt><trkpt lat="44.1179619" lon="10.4097361"><ele>288.0</ele><time>2026-05-03T07:44:17.285Z</time></trkpt><trkpt lat="44.1180542" lon="10.4097628"><ele>288.0</ele><time>2026-05-03T07:44:18.274Z</time></trkpt><trkpt lat="44.1181481" lon="10.4098216"><ele>288.0</ele><time>2026-05-03T07:44:19.274Z</time></trkpt><trkpt lat="44.1182556" lon="10.4099186"><ele>288.0</ele><time>2026-05-03T07:44:20.275Z</time></trkpt><trkpt lat="44.1183501" lon="10.4100416"><ele>288.0</ele><time>2026-05-03T07:44:21.278Z</time></trkpt><trkpt lat="44.118415" lon="10.4101812"><ele>290.0</ele><time>2026-05-03T07:44:22.29Z</time></trkpt><trkpt lat="44.1184564" lon="10.4103383"><ele>292.0</ele><time>2026-05-03T07:44:23.278Z</time></trkpt><trkpt lat="44.1184846" lon="10.4105037"><ele>294.0</ele><time>2026-05-03T07:44:24.277Z</time></trkpt><trkpt lat="44.1185089" lon="10.4106524"><ele>296.0</ele><time>2026-05-03T07:44:25.271Z</time></trkpt><trkpt lat="44.1185241" lon="10.4107957"><ele>297.8</ele><time>2026-05-03T07:44:26.277Z</time></trkpt><trkpt lat="44.118557" lon="10.4109301"><ele>299.6</ele><time>2026-05-03T07:44:27.281Z</time></trkpt><trkpt lat="44.118628" lon="10.4110543"><ele>301.4</ele><time>2026-05-03T07:44:28.279Z</time></trkpt><trkpt lat="44.118705" lon="10.4111574"><ele>303.2</ele><time>2026-05-03T07:44:29.271Z</time></trkpt><trkpt lat="44.1187714" lon="10.4112182"><ele>305.0</ele><time>2026-05-03T07:44:30.274Z</time></trkpt><trkpt lat="44.1188534" lon="10.4112406"><ele>305.0</ele><time>2026-05-03T07:44:31.272Z</time></trkpt><trkpt lat="44.1189586" lon="10.4112164"><ele>305.0</ele><time>2026-05-03T07:44:32.286Z</time></trkpt><trkpt lat="44.1190592" lon="10.411201"><ele>305.0</ele><time>2026-05-03T07:44:33.253Z</time></trkpt><trkpt lat="44.1192033" lon="10.4112013"><ele>305.0</ele><time>2026-05-03T07:44:34.261Z</time></trkpt><trkpt lat="44.1193414" lon="10.4111775"><ele>306.0</ele><time>2026-05-03T07:44:35.275Z</time></trkpt><trkpt lat="44.1194526" lon="10.4111587"><ele>307.0</ele><time>2026-05-03T07:44:36.262Z</time></trkpt><trkpt lat="44.119572" lon="10.4111341"><ele>308.0</ele><time>2026-05-03T07:44:37.282Z</time></trkpt><trkpt lat="44.1196716" lon="10.4111289"><ele>309.0</ele><time>2026-05-03T07:44:38.278Z</time></trkpt><trkpt lat="44.1197751" lon="10.4111328"><ele>310.0</ele><time>2026-05-03T07:44:39.28Z</time></trkpt><trkpt lat="44.1198439" lon="10.4111638"><ele>310.0</ele><time>2026-05-03T07:44:40.283Z</time></trkpt><trkpt lat="44.1198962" lon="10.4112456"><ele>310.0</ele><time>2026-05-03T07:44:41.274Z</time></trkpt><trkpt lat="44.1198992" lon="10.411377"><ele>310.0</ele><time>2026-05-03T07:44:42.288Z</time></trkpt><trkpt lat="44.11989" lon="10.4114877"><ele>310.0</ele><time>2026-05-03T07:44:43.279Z</time></trkpt><trkpt lat="44.1198825" lon="10.4115787"><ele>310.0</ele><time>2026-05-03T07:44:44.276Z</time></trkpt><trkpt lat="44.1198855" lon="10.4117314"><ele>310.0</ele><time>2026-05-03T07:44:46.267Z</time></trkpt><trkpt lat="44.119953" lon="10.4117833"><ele>313.0</ele><time>2026-05-03T07:44:48.263Z</time></trkpt><trkpt lat="44.1200266" lon="10.4117825"><ele>316.0</ele><time>2026-05-03T07:44:50.264Z</time></trkpt><trkpt lat="44.1200202" lon="10.4116381"><ele>319.0</ele><time>2026-05-03T07:44:52.277Z</time></trkpt><trkpt lat="44.119977" lon="10.4114441"><ele>322.0</ele><time>2026-05-03T07:44:54.249Z</time></trkpt><trkpt lat="44.1199029" lon="10.4112915"><ele>319.0</ele><time>2026-05-03T07:44:55.235Z</time></trkpt><trkpt lat="44.1198169" lon="10.4111824"><ele>316.0</ele><time>2026-05-03T07:44:56.237Z</time></trkpt><trkpt lat="44.1197036" lon="10.411091"><ele>313.0</ele><time>2026-05-03T07:44:57.248Z</time></trkpt><trkpt lat="44.1195793" lon="10.4110447"><ele>310.0</ele><time>2026-05-03T07:44:58.235Z</time></trkpt><trkpt lat="44.1195036" lon="10.4109686"><ele>310.0</ele><time>2026-05-03T07:44:59.235Z</time></trkpt><trkpt lat="44.1194483" lon="10.4107595"><ele>310.0</ele><time>2026-05-03T07:45:00.242Z</time></trkpt><trkpt lat="44.1193725" lon="10.4106063"><ele>310.0</ele><time>2026-05-03T07:45:01.262Z</time></trkpt><trkpt lat="44.1192838" lon="10.4104666"><ele>310.0</ele><time>2026-05-03T07:45:02.266Z</time></trkpt><trkpt lat="44.1192194" lon="10.4102902"><ele>311.0</ele><time>2026-05-03T07:45:03.269Z</time></trkpt><trkpt lat="44.1191446" lon="10.4101444"><ele>312.0</ele><time>2026-05-03T07:45:04.274Z</time></trkpt><trkpt lat="44.1191221" lon="10.4100142"><ele>313.0</ele><time>2026-05-03T07:45:05.278Z</time></trkpt><trkpt lat="44.1191683" lon="10.4099005"><ele>314.0</ele><time>2026-05-03T07:45:06.273Z</time></trkpt><trkpt lat="44.1192612" lon="10.409815"><ele>315.0</ele><time>2026-05-03T07:45:07.289Z</time></trkpt><trkpt lat="44.1193789" lon="10.4097379"><ele>315.0</ele><time>2026-05-03T07:45:08.273Z</time></trkpt><trkpt lat="44.1194879" lon="10.4096695"><ele>315.0</ele><time>2026-05-03T07:45:09.273Z</time></trkpt><trkpt lat="44.1196117" lon="10.4095946"><ele>315.0</ele><time>2026-05-03T07:45:10.273Z</time></trkpt><trkpt lat="44.1197153" lon="10.4095294"><ele>315.0</ele><time>2026-05-03T07:45:11.276Z</time></trkpt><trkpt lat="44.1198503" lon="10.4094354"><ele>315.75</ele><time>2026-05-03T07:45:12.293Z</time></trkpt><trkpt lat="44.1199736" lon="10.4093501"><ele>316.5</ele><time>2026-05-03T07:45:13.28Z</time></trkpt><trkpt lat="44.1200849" lon="10.4092813"><ele>317.25</ele><time>2026-05-03T07:45:14.281Z</time></trkpt><trkpt lat="44.120186" lon="10.4092306"><ele>318.0</ele><time>2026-05-03T07:45:15.281Z</time></trkpt><trkpt lat="44.1203005" lon="10.4091738"><ele>318.0</ele><time>2026-05-03T07:45:16.288Z</time></trkpt><trkpt lat="44.1204098" lon="10.409115"><ele>318.0</ele><time>2026-05-03T07:45:17.292Z</time></trkpt><trkpt lat="44.1205198" lon="10.4090637"><ele>318.0</ele><time>2026-05-03T07:45:18.277Z</time></trkpt><trkpt lat="44.1206568" lon="10.4090548"><ele>318.0</ele><time>2026-05-03T07:45:19.278Z</time></trkpt><trkpt lat="44.1208022" lon="10.409059"><ele>321.0</ele><time>2026-05-03T07:45:20.285Z</time></trkpt><trkpt lat="44.1209503" lon="10.4090633"><ele>324.0</ele><time>2026-05-03T07:45:21.282Z</time></trkpt><trkpt lat="44.1210985" lon="10.4090783"><ele>327.0</ele><time>2026-05-03T07:45:22.29Z</time></trkpt><trkpt lat="44.1212619" lon="10.4090998"><ele>327.0</ele><time>2026-05-03T07:45:23.285Z</time></trkpt><trkpt lat="44.1214249" lon="10.4090603"><ele>327.0</ele><time>2026-05-03T07:45:24.284Z</time></trkpt><trkpt lat="44.1216219" lon="10.4090561"><ele>327.0</ele><time>2026-05-03T07:45:25.281Z</time></trkpt><trkpt lat="44.1218041" lon="10.4090926"><ele>328.0</ele><time>2026-05-03T07:45:26.283Z</time></trkpt><trkpt lat="44.1219705" lon="10.4090907"><ele>329.0</ele><time>2026-05-03T07:45:27.282Z</time></trkpt><trkpt lat="44.1221203" lon="10.4091421"><ele>330.0</ele><time>2026-05-03T07:45:28.293Z</time></trkpt><trkpt lat="44.1222659" lon="10.4091753"><ele>330.75</ele><time>2026-05-03T07:45:29.284Z</time></trkpt><trkpt lat="44.1223989" lon="10.4091842"><ele>331.5</ele><time>2026-05-03T07:45:30.286Z</time></trkpt><trkpt lat="44.1225147" lon="10.4092478"><ele>332.25</ele><time>2026-05-03T07:45:31.282Z</time></trkpt><trkpt lat="44.1226201" lon="10.4092912"><ele>333.0</ele><time>2026-05-03T07:45:32.282Z</time></trkpt><trkpt lat="44.1227065" lon="10.4093031"><ele>333.0</ele><time>2026-05-03T07:45:33.293Z</time></trkpt><trkpt lat="44.1227977" lon="10.40932"><ele>333.0</ele><time>2026-05-03T07:45:34.279Z</time></trkpt><trkpt lat="44.1228972" lon="10.4093316"><ele>333.0</ele><time>2026-05-03T07:45:35.28Z</time></trkpt><trkpt lat="44.1229828" lon="10.409361"><ele>333.0</ele><time>2026-05-03T07:45:36.278Z</time></trkpt><trkpt lat="44.123068" lon="10.4093906"><ele>333.0</ele><time>2026-05-03T07:45:37.278Z</time></trkpt><trkpt lat="44.1231911" lon="10.4094267"><ele>333.5</ele><time>2026-05-03T07:45:38.291Z</time></trkpt><trkpt lat="44.1233161" lon="10.4094493"><ele>334.0</ele><time>2026-05-03T07:45:39.28Z</time></trkpt><trkpt lat="44.1234367" lon="10.4094782"><ele>334.5</ele><time>2026-05-03T07:45:40.277Z</time></trkpt><trkpt lat="44.1235509" lon="10.4095106"><ele>335.0</ele><time>2026-05-03T07:45:41.283Z</time></trkpt><trkpt lat="44.1236626" lon="10.4095323"><ele>335.0</ele><time>2026-05-03T07:45:42.282Z</time></trkpt><trkpt lat="44.1237833" lon="10.4095709"><ele>335.0</ele><time>2026-05-03T07:45:43.293Z</time></trkpt><trkpt lat="44.1238952" lon="10.409609"><ele>335.0</ele><time>2026-05-03T07:45:44.279Z</time></trkpt><trkpt lat="44.1240062" lon="10.4096598"><ele>335.0</ele><time>2026-05-03T07:45:45.28Z</time></trkpt><trkpt lat="44.124122" lon="10.4097165"><ele>336.25</ele><time>2026-05-03T07:45:46.282Z</time></trkpt><trkpt lat="44.1242298" lon="10.4097617"><ele>337.5</ele><time>2026-05-03T07:45:47.278Z</time></trkpt><trkpt lat="44.124342" lon="10.4098339"><ele>338.75</ele><time>2026-05-03T07:45:48.289Z</time></trkpt><trkpt lat="44.1244429" lon="10.4098999"><ele>340.0</ele><time>2026-05-03T07:45:49.277Z</time></trkpt><trkpt lat="44.1245382" lon="10.4099613"><ele>340.0</ele><time>2026-05-03T07:45:50.276Z</time></trkpt><trkpt lat="44.1246247" lon="10.4100297"><ele>340.0</ele><time>2026-05-03T07:45:51.276Z</time></trkpt><trkpt lat="44.1246988" lon="10.4101143"><ele>340.0</ele><time>2026-05-03T07:45:52.276Z</time></trkpt><trkpt lat="44.1247556" lon="10.4102099"><ele>340.0</ele><time>2026-05-03T07:45:53.291Z</time></trkpt><trkpt lat="44.1248172" lon="10.4102943"><ele>340.0</ele><time>2026-05-03T07:45:54.28Z</time></trkpt><trkpt lat="44.1248792" lon="10.4103584"><ele>340.0</ele><time>2026-05-03T07:45:55.276Z</time></trkpt><trkpt lat="44.1249374" lon="10.4104088"><ele>340.8</ele><time>2026-05-03T07:45:56.278Z</time></trkpt><trkpt lat="44.1250554" lon="10.4104312"><ele>341.6</ele><time>2026-05-03T07:45:58.292Z</time></trkpt><trkpt lat="44.125088" lon="10.4103203"><ele>342.4</ele><time>2026-05-03T07:45:59.282Z</time></trkpt><trkpt lat="44.1250937" lon="10.4101639"><ele>343.2</ele><time>2026-05-03T07:46:00.276Z</time></trkpt><trkpt lat="44.1251061" lon="10.4100189"><ele>344.0</ele><time>2026-05-03T07:46:01.279Z</time></trkpt><trkpt lat="44.1251412" lon="10.4098247"><ele>342.33333333333337</ele><time>2026-05-03T07:46:02.281Z</time></trkpt><trkpt lat="44.1251727" lon="10.4096063"><ele>340.6666666666667</ele><time>2026-05-03T07:46:03.291Z</time></trkpt><trkpt lat="44.1252362" lon="10.4093536"><ele>339.0</ele><time>2026-05-03T07:46:04.276Z</time></trkpt><trkpt lat="44.1253029" lon="10.4090843"><ele>339.0</ele><time>2026-05-03T07:46:05.274Z</time></trkpt><trkpt lat="44.1254114" lon="10.4088478"><ele>339.0</ele><time>2026-05-03T07:46:06.28Z</time></trkpt><trkpt lat="44.1254666" lon="10.4085773"><ele>339.0</ele><time>2026-05-03T07:46:07.28Z</time></trkpt><trkpt lat="44.1255525" lon="10.4082778"><ele>338.5</ele><time>2026-05-03T07:46:08.291Z</time></trkpt><trkpt lat="44.1256298" lon="10.4079411"><ele>338.0</ele><time>2026-05-03T07:46:09.283Z</time></trkpt><trkpt lat="44.12573" lon="10.4075765"><ele>338.0</ele><time>2026-05-03T07:46:10.285Z</time></trkpt><trkpt lat="44.1258052" lon="10.4072545"><ele>338.0</ele><time>2026-05-03T07:46:11.287Z</time></trkpt><trkpt lat="44.125868" lon="10.4069459"><ele>336.0</ele><time>2026-05-03T07:46:12.284Z</time></trkpt><trkpt lat="44.1259046" lon="10.4066246"><ele>334.0</ele><time>2026-05-03T07:46:13.3Z</time></trkpt><trkpt lat="44.1259308" lon="10.4063193"><ele>333.3333333333333</ele><time>2026-05-03T07:46:14.284Z</time></trkpt><trkpt lat="44.1259491" lon="10.4060179"><ele>332.6666666666667</ele><time>2026-05-03T07:46:15.285Z</time></trkpt><trkpt lat="44.125966" lon="10.4057108"><ele>332.0</ele><time>2026-05-03T07:46:16.285Z</time></trkpt><trkpt lat="44.1259754" lon="10.4053935"><ele>332.0</ele><time>2026-05-03T07:46:17.285Z</time></trkpt><trkpt lat="44.1259719" lon="10.4050651"><ele>332.0</ele><time>2026-05-03T07:46:18.291Z</time></trkpt><trkpt lat="44.1259808" lon="10.4047575"><ele>331.6666666666667</ele><time>2026-05-03T07:46:19.283Z</time></trkpt><trkpt lat="44.1259961" lon="10.4044504"><ele>331.3333333333333</ele><time>2026-05-03T07:46:20.273Z</time></trkpt><trkpt lat="44.1259999" lon="10.4041874"><ele>331.0</ele><time>2026-05-03T07:46:21.284Z</time></trkpt><trkpt lat="44.126014" lon="10.4039208"><ele>330.0</ele><time>2026-05-03T07:46:22.277Z</time></trkpt><trkpt lat="44.1260218" lon="10.4036364"><ele>329.0</ele><time>2026-05-03T07:46:23.294Z</time></trkpt><trkpt lat="44.1260372" lon="10.4033677"><ele>328.0</ele><time>2026-05-03T07:46:24.276Z</time></trkpt><trkpt lat="44.126046" lon="10.4031017"><ele>327.66666666666663</ele><time>2026-05-03T07:46:25.27Z</time></trkpt><trkpt lat="44.1260566" lon="10.4028451"><ele>327.3333333333333</ele><time>2026-05-03T07:46:26.275Z</time></trkpt><trkpt lat="44.1260433" lon="10.4025841"><ele>327.0</ele><time>2026-05-03T07:46:27.276Z</time></trkpt><trkpt lat="44.1260352" lon="10.4022997"><ele>327.0</ele><time>2026-05-03T07:46:28.298Z</time></trkpt><trkpt lat="44.1259993" lon="10.4020049"><ele>327.0</ele><time>2026-05-03T07:46:29.284Z</time></trkpt><trkpt lat="44.1259843" lon="10.4016942"><ele>327.0</ele><time>2026-05-03T07:46:30.281Z</time></trkpt><trkpt lat="44.1259458" lon="10.4013503"><ele>325.6666666666667</ele><time>2026-05-03T07:46:31.286Z</time></trkpt><trkpt lat="44.1258809" lon="10.4010613"><ele>324.33333333333337</ele><time>2026-05-03T07:46:32.285Z</time></trkpt><trkpt lat="44.1257821" lon="10.4008231"><ele>323.0</ele><time>2026-05-03T07:46:33.284Z</time></trkpt><trkpt lat="44.1257458" lon="10.4005708"><ele>321.75</ele><time>2026-05-03T07:46:34.282Z</time></trkpt><trkpt lat="44.125694" lon="10.4003726"><ele>320.5</ele><time>2026-05-03T07:46:35.286Z</time></trkpt><trkpt lat="44.1256563" lon="10.4001763"><ele>319.25</ele><time>2026-05-03T07:46:36.284Z</time></trkpt><trkpt lat="44.1256265" lon="10.3999802"><ele>318.0</ele><time>2026-05-03T07:46:37.288Z</time></trkpt><trkpt lat="44.1256336" lon="10.3997463"><ele>317.3333333333333</ele><time>2026-05-03T07:46:38.287Z</time></trkpt><trkpt lat="44.1255968" lon="10.399612"><ele>316.66666666666663</ele><time>2026-05-03T07:46:39.287Z</time></trkpt><trkpt lat="44.1255934" lon="10.3994718"><ele>316.0</ele><time>2026-05-03T07:46:40.283Z</time></trkpt><trkpt lat="44.1256676" lon="10.3991298"><ele>316.0</ele><time>2026-05-03T07:46:42.277Z</time></trkpt><trkpt lat="44.1257335" lon="10.3989979"><ele>316.0</ele><time>2026-05-03T07:46:43.279Z</time></trkpt><trkpt lat="44.1257957" lon="10.3988681"><ele>316.0</ele><time>2026-05-03T07:46:44.279Z</time></trkpt><trkpt lat="44.1258641" lon="10.3987641"><ele>316.0</ele><time>2026-05-03T07:46:45.278Z</time></trkpt><trkpt lat="44.1259364" lon="10.398627"><ele>314.0</ele><time>2026-05-03T07:46:46.294Z</time></trkpt><trkpt lat="44.1259901" lon="10.3984716"><ele>312.0</ele><time>2026-05-03T07:46:47.284Z</time></trkpt><trkpt lat="44.1260588" lon="10.398324"><ele>310.0</ele><time>2026-05-03T07:46:48.286Z</time></trkpt><trkpt lat="44.1261687" lon="10.398175"><ele>308.0</ele><time>2026-05-03T07:46:49.287Z</time></trkpt><trkpt lat="44.1262771" lon="10.3980168"><ele>307.6666666666667</ele><time>2026-05-03T07:46:50.294Z</time></trkpt><trkpt lat="44.1263999" lon="10.3978088"><ele>307.3333333333333</ele><time>2026-05-03T07:46:51.286Z</time></trkpt><trkpt lat="44.1265402" lon="10.397582"><ele>307.0</ele><time>2026-05-03T07:46:52.284Z</time></trkpt><trkpt lat="44.1266827" lon="10.3973956"><ele>310.66666666666663</ele><time>2026-05-03T07:46:53.286Z</time></trkpt><trkpt lat="44.1267976" lon="10.3972053"><ele>314.3333333333333</ele><time>2026-05-03T07:46:54.286Z</time></trkpt><trkpt lat="44.1269486" lon="10.3969739"><ele>318.0</ele><time>2026-05-03T07:46:55.283Z</time></trkpt><trkpt lat="44.1270809" lon="10.3967205"><ele>318.0</ele><time>2026-05-03T07:46:56.287Z</time></trkpt><trkpt lat="44.1271972" lon="10.3964285"><ele>318.0</ele><time>2026-05-03T07:46:57.282Z</time></trkpt><trkpt lat="44.12731" lon="10.3961925"><ele>318.0</ele><time>2026-05-03T07:46:58.282Z</time></trkpt><trkpt lat="44.1274098" lon="10.3960405"><ele>320.3333333333333</ele><time>2026-05-03T07:46:59.287Z</time></trkpt><trkpt lat="44.1274864" lon="10.3958373"><ele>322.66666666666663</ele><time>2026-05-03T07:47:00.282Z</time></trkpt><trkpt lat="44.1275434" lon="10.3956772"><ele>325.0</ele><time>2026-05-03T07:47:01.282Z</time></trkpt><trkpt lat="44.1275942" lon="10.395459"><ele>325.0</ele><time>2026-05-03T07:47:02.28Z</time></trkpt><trkpt lat="44.1276797" lon="10.395216"><ele>325.0</ele><time>2026-05-03T07:47:03.282Z</time></trkpt><trkpt lat="44.1276844" lon="10.3949154"><ele>325.0</ele><time>2026-05-03T07:47:04.283Z</time></trkpt><trkpt lat="44.1276834" lon="10.3946362"><ele>324.66666666666663</ele><time>2026-05-03T07:47:05.277Z</time></trkpt><trkpt lat="44.1276922" lon="10.394398"><ele>324.3333333333333</ele><time>2026-05-03T07:47:06.28Z</time></trkpt><trkpt lat="44.1277113" lon="10.3941825"><ele>324.0</ele><time>2026-05-03T07:47:07.276Z</time></trkpt><trkpt lat="44.1277314" lon="10.3939677"><ele>323.75</ele><time>2026-05-03T07:47:08.279Z</time></trkpt><trkpt lat="44.1277931" lon="10.3938181"><ele>323.5</ele><time>2026-05-03T07:47:09.283Z</time></trkpt><trkpt lat="44.1278799" lon="10.3936885"><ele>323.25</ele><time>2026-05-03T07:47:10.276Z</time></trkpt><trkpt lat="44.1279932" lon="10.39359"><ele>323.0</ele><time>2026-05-03T07:47:11.285Z</time></trkpt><trkpt lat="44.1281406" lon="10.3935114"><ele>326.33333333333337</ele><time>2026-05-03T07:47:12.282Z</time></trkpt><trkpt lat="44.1283308" lon="10.3934507"><ele>329.6666666666667</ele><time>2026-05-03T07:47:13.282Z</time></trkpt><trkpt lat="44.1285063" lon="10.3933773"><ele>333.0</ele><time>2026-05-03T07:47:14.283Z</time></trkpt><trkpt lat="44.1286424" lon="10.3933604"><ele>333.0</ele><time>2026-05-03T07:47:15.285Z</time></trkpt><trkpt lat="44.1288233" lon="10.3933156"><ele>333.0</ele><time>2026-05-03T07:47:16.284Z</time></trkpt><trkpt lat="44.128998" lon="10.3932213"><ele>333.0</ele><time>2026-05-03T07:47:17.286Z</time></trkpt><trkpt lat="44.1291592" lon="10.3930793"><ele>333.6666666666667</ele><time>2026-05-03T07:47:18.278Z</time></trkpt><trkpt lat="44.1292837" lon="10.3929062"><ele>334.33333333333337</ele><time>2026-05-03T07:47:19.281Z</time></trkpt><trkpt lat="44.1294203" lon="10.3927217"><ele>335.0</ele><time>2026-05-03T07:47:20.282Z</time></trkpt><trkpt lat="44.129537" lon="10.3925075"><ele>335.0</ele><time>2026-05-03T07:47:21.283Z</time></trkpt><trkpt lat="44.1296344" lon="10.3923383"><ele>335.0</ele><time>2026-05-03T07:47:22.284Z</time></trkpt><trkpt lat="44.1297478" lon="10.3921103"><ele>335.0</ele><time>2026-05-03T07:47:23.284Z</time></trkpt><trkpt lat="44.1298741" lon="10.391975"><ele>336.0</ele><time>2026-05-03T07:47:24.281Z</time></trkpt><trkpt lat="44.1299957" lon="10.391881"><ele>337.0</ele><time>2026-05-03T07:47:25.284Z</time></trkpt><trkpt lat="44.1301834" lon="10.3918894"><ele>338.0</ele><time>2026-05-03T07:47:26.282Z</time></trkpt><trkpt lat="44.1303357" lon="10.3918872"><ele>338.0</ele><time>2026-05-03T07:47:27.284Z</time></trkpt><trkpt lat="44.1304768" lon="10.3919194"><ele>338.0</ele><time>2026-05-03T07:47:28.283Z</time></trkpt><trkpt lat="44.1305996" lon="10.3918826"><ele>338.0</ele><time>2026-05-03T07:47:29.281Z</time></trkpt><trkpt lat="44.1307292" lon="10.3918669"><ele>338.0</ele><time>2026-05-03T07:47:30.279Z</time></trkpt><trkpt lat="44.1308994" lon="10.3919341"><ele>339.33333333333337</ele><time>2026-05-03T07:47:31.281Z</time></trkpt><trkpt lat="44.1310807" lon="10.3919967"><ele>340.6666666666667</ele><time>2026-05-03T07:47:32.286Z</time></trkpt><trkpt lat="44.1312185" lon="10.3920518"><ele>342.0</ele><time>2026-05-03T07:47:33.286Z</time></trkpt><trkpt lat="44.1313767" lon="10.3921054"><ele>342.0</ele><time>2026-05-03T07:47:34.284Z</time></trkpt><trkpt lat="44.1315242" lon="10.3921701"><ele>342.0</ele><time>2026-05-03T07:47:35.277Z</time></trkpt><trkpt lat="44.1316851" lon="10.3922737"><ele>342.0</ele><time>2026-05-03T07:47:36.275Z</time></trkpt><trkpt lat="44.1318501" lon="10.3923923"><ele>347.0</ele><time>2026-05-03T07:47:37.276Z</time></trkpt><trkpt lat="44.1319991" lon="10.3924978"><ele>352.0</ele><time>2026-05-03T07:47:38.279Z</time></trkpt><trkpt lat="44.1321823" lon="10.3925804"><ele>357.0</ele><time>2026-05-03T07:47:39.279Z</time></trkpt><trkpt lat="44.132329" lon="10.3926417"><ele>354.0</ele><time>2026-05-03T07:47:40.28Z</time></trkpt><trkpt lat="44.1324651" lon="10.3926899"><ele>351.0</ele><time>2026-05-03T07:47:41.28Z</time></trkpt><trkpt lat="44.1326733" lon="10.3926775"><ele>348.0</ele><time>2026-05-03T07:47:42.281Z</time></trkpt><trkpt lat="44.1328491" lon="10.3926537"><ele>348.0</ele><time>2026-05-03T07:47:43.282Z</time></trkpt><trkpt lat="44.133024" lon="10.3926384"><ele>348.0</ele><time>2026-05-03T07:47:44.284Z</time></trkpt><trkpt lat="44.1331563" lon="10.392719"><ele>348.0</ele><time>2026-05-03T07:47:45.284Z</time></trkpt><trkpt lat="44.1333014" lon="10.3928491"><ele>348.3333333333333</ele><time>2026-05-03T07:47:46.279Z</time></trkpt><trkpt lat="44.1334523" lon="10.3929116"><ele>348.66666666666663</ele><time>2026-05-03T07:47:47.28Z</time></trkpt><trkpt lat="44.1336386" lon="10.3929999"><ele>349.0</ele><time>2026-05-03T07:47:48.281Z</time></trkpt><trkpt lat="44.1338152" lon="10.393116"><ele>349.0</ele><time>2026-05-03T07:47:49.28Z</time></trkpt><trkpt lat="44.1339679" lon="10.3931691"><ele>349.0</ele><time>2026-05-03T07:47:50.273Z</time></trkpt><trkpt lat="44.1340724" lon="10.3931572"><ele>349.0</ele><time>2026-05-03T07:47:51.277Z</time></trkpt><trkpt lat="44.1342265" lon="10.3931164"><ele>349.0</ele><time>2026-05-03T07:47:52.277Z</time></trkpt><trkpt lat="44.134355" lon="10.3929913"><ele>346.0</ele><time>2026-05-03T07:47:53.282Z</time></trkpt><trkpt lat="44.1344802" lon="10.3929021"><ele>343.0</ele><time>2026-05-03T07:47:54.279Z</time></trkpt><trkpt lat="44.1345981" lon="10.3927949"><ele>340.0</ele><time>2026-05-03T07:47:55.275Z</time></trkpt><trkpt lat="44.1347068" lon="10.3927309"><ele>337.0</ele><time>2026-05-03T07:47:56.276Z</time></trkpt><trkpt lat="44.1348414" lon="10.3927588"><ele>336.25</ele><time>2026-05-03T07:47:57.276Z</time></trkpt><trkpt lat="44.1349501" lon="10.3927663"><ele>335.5</ele><time>2026-05-03T07:47:58.277Z</time></trkpt><trkpt lat="44.135126" lon="10.3927553"><ele>334.75</ele><time>2026-05-03T07:47:59.281Z</time></trkpt><trkpt lat="44.1352409" lon="10.392671"><ele>334.0</ele><time>2026-05-03T07:48:00.278Z</time></trkpt><trkpt lat="44.1353509" lon="10.3925895"><ele>334.0</ele><time>2026-05-03T07:48:01.279Z</time></trkpt><trkpt lat="44.1354649" lon="10.3925401"><ele>334.0</ele><time>2026-05-03T07:48:02.284Z</time></trkpt><trkpt lat="44.1355688" lon="10.3924588"><ele>334.0</ele><time>2026-05-03T07:48:03.285Z</time></trkpt><trkpt lat="44.135587" lon="10.3922996"><ele>334.0</ele><time>2026-05-03T07:48:04.284Z</time></trkpt><trkpt lat="44.1355661" lon="10.3921191"><ele>333.66666666666663</ele><time>2026-05-03T07:48:05.283Z</time></trkpt><trkpt lat="44.1355346" lon="10.3919188"><ele>333.3333333333333</ele><time>2026-05-03T07:48:06.278Z</time></trkpt><trkpt lat="44.1354521" lon="10.3916961"><ele>333.0</ele><time>2026-05-03T07:48:07.28Z</time></trkpt><trkpt lat="44.1353628" lon="10.3915121"><ele>333.0</ele><time>2026-05-03T07:48:08.277Z</time></trkpt><trkpt lat="44.1352521" lon="10.3913467"><ele>333.0</ele><time>2026-05-03T07:48:09.281Z</time></trkpt><trkpt lat="44.1351535" lon="10.3912101"><ele>333.0</ele><time>2026-05-03T07:48:10.28Z</time></trkpt><trkpt lat="44.1350859" lon="10.3910732"><ele>333.0</ele><time>2026-05-03T07:48:11.281Z</time></trkpt><trkpt lat="44.1350542" lon="10.3909347"><ele>332.25</ele><time>2026-05-03T07:48:12.279Z</time></trkpt><trkpt lat="44.1350161" lon="10.3907837"><ele>331.5</ele><time>2026-05-03T07:48:13.285Z</time></trkpt><trkpt lat="44.1349621" lon="10.3906526"><ele>330.75</ele><time>2026-05-03T07:48:14.283Z</time></trkpt><trkpt lat="44.1348824" lon="10.3905163"><ele>330.0</ele><time>2026-05-03T07:48:15.285Z</time></trkpt><trkpt lat="44.1348199" lon="10.3903796"><ele>330.0</ele><time>2026-05-03T07:48:16.286Z</time></trkpt><trkpt lat="44.1347768" lon="10.3902627"><ele>330.0</ele><time>2026-05-03T07:48:17.283Z</time></trkpt><trkpt lat="44.1347354" lon="10.3901407"><ele>330.0</ele><time>2026-05-03T07:48:18.284Z</time></trkpt><trkpt lat="44.1346942" lon="10.3900122"><ele>330.0</ele><time>2026-05-03T07:48:19.284Z</time></trkpt><trkpt lat="44.1346558" lon="10.3898725"><ele>330.0</ele><time>2026-05-03T07:48:20.284Z</time></trkpt><trkpt lat="44.1346304" lon="10.3897285"><ele>331.8333333333333</ele><time>2026-05-03T07:48:21.287Z</time></trkpt><trkpt lat="44.13462" lon="10.3895946"><ele>333.6666666666667</ele><time>2026-05-03T07:48:22.287Z</time></trkpt><trkpt lat="44.1346251" lon="10.3894758"><ele>335.5</ele><time>2026-05-03T07:48:23.288Z</time></trkpt><trkpt lat="44.1346331" lon="10.3893551"><ele>337.33333333333337</ele><time>2026-05-03T07:48:24.286Z</time></trkpt><trkpt lat="44.1346489" lon="10.3892294"><ele>339.1666666666667</ele><time>2026-05-03T07:48:25.285Z</time></trkpt><trkpt lat="44.1346719" lon="10.389114"><ele>341.0</ele><time>2026-05-03T07:48:26.282Z</time></trkpt><trkpt lat="44.134711" lon="10.3889958"><ele>341.0</ele><time>2026-05-03T07:48:28.284Z</time></trkpt><trkpt lat="44.1346581" lon="10.389049"><ele>341.0</ele><time>2026-05-03T07:48:31.286Z</time></trkpt><trkpt lat="44.1345362" lon="10.3890355"><ele>341.0</ele><time>2026-05-03T07:48:33.291Z</time></trkpt><trkpt lat="44.1344657" lon="10.389021"><ele>341.0</ele><time>2026-05-03T07:48:34.282Z</time></trkpt><trkpt lat="44.1343613" lon="10.3889904"><ele>341.0</ele><time>2026-05-03T07:48:36.282Z</time></trkpt><trkpt lat="44.1342919" lon="10.3889629"><ele>341.0</ele><time>2026-05-03T07:48:39.289Z</time></trkpt><trkpt lat="44.1343544" lon="10.389101"><ele>341.0</ele><time>2026-05-03T07:49:11.282Z</time></trkpt><trkpt lat="44.1344034" lon="10.3891709"><ele>341.0</ele><time>2026-05-03T07:49:12.278Z</time></trkpt><trkpt lat="44.1344475" lon="10.3892563"><ele>341.0</ele><time>2026-05-03T07:49:13.282Z</time></trkpt><trkpt lat="44.1344771" lon="10.3893618"><ele>341.0</ele><time>2026-05-03T07:49:14.279Z</time></trkpt><trkpt lat="44.1344969" lon="10.3894866"><ele>341.0</ele><time>2026-05-03T07:49:15.278Z</time></trkpt><trkpt lat="44.1345453" lon="10.389597"><ele>341.0</ele><time>2026-05-03T07:49:16.272Z</time></trkpt><trkpt lat="44.1346133" lon="10.3896862"><ele>341.0</ele><time>2026-05-03T07:49:17.276Z</time></trkpt><trkpt lat="44.1346636" lon="10.3896059"><ele>341.0</ele><time>2026-05-03T07:49:25.284Z</time></trkpt><trkpt lat="44.1346898" lon="10.389503"><ele>341.0</ele><time>2026-05-03T07:49:26.282Z</time></trkpt><trkpt lat="44.1347343" lon="10.389387"><ele>341.0</ele><time>2026-05-03T07:49:27.277Z</time></trkpt><trkpt lat="44.1347674" lon="10.3892378"><ele>341.0</ele><time>2026-05-03T07:49:28.287Z</time></trkpt><trkpt lat="44.1348016" lon="10.3890825"><ele>341.0</ele><time>2026-05-03T07:49:29.285Z</time></trkpt><trkpt lat="44.1348341" lon="10.388909"><ele>341.0</ele><time>2026-05-03T07:49:30.285Z</time></trkpt><trkpt lat="44.1348448" lon="10.3887162"><ele>341.0</ele><time>2026-05-03T07:49:31.285Z</time></trkpt><trkpt lat="44.1348451" lon="10.3885267"><ele>341.0</ele><time>2026-05-03T07:49:32.29Z</time></trkpt><trkpt lat="44.1348494" lon="10.3883208"><ele>344.5</ele><time>2026-05-03T07:49:33.289Z</time></trkpt><trkpt lat="44.1348909" lon="10.3881284"><ele>348.0</ele><time>2026-05-03T07:49:34.284Z</time></trkpt><trkpt lat="44.1349514" lon="10.38796"><ele>351.5</ele><time>2026-05-03T07:49:35.291Z</time></trkpt><trkpt lat="44.1350068" lon="10.3877967"><ele>355.0</ele><time>2026-05-03T07:49:36.286Z</time></trkpt><trkpt lat="44.1350688" lon="10.387635"><ele>355.0</ele><time>2026-05-03T07:49:37.284Z</time></trkpt><trkpt lat="44.1351502" lon="10.3874944"><ele>355.0</ele><time>2026-05-03T07:49:38.282Z</time></trkpt><trkpt lat="44.1352005" lon="10.3873585"><ele>355.0</ele><time>2026-05-03T07:49:39.279Z</time></trkpt><trkpt lat="44.1352542" lon="10.3872066"><ele>355.0</ele><time>2026-05-03T07:49:40.281Z</time></trkpt><trkpt lat="44.1353369" lon="10.3870524"><ele>353.0</ele><time>2026-05-03T07:49:41.282Z</time></trkpt><trkpt lat="44.135407" lon="10.3869062"><ele>351.0</ele><time>2026-05-03T07:49:42.28Z</time></trkpt><trkpt lat="44.1357136" lon="10.3867062"><ele>353.6666666666667</ele><time>2026-05-03T07:49:44.282Z</time></trkpt><trkpt lat="44.1358329" lon="10.3866361"><ele>356.33333333333337</ele><time>2026-05-03T07:49:45.28Z</time></trkpt><trkpt lat="44.1360027" lon="10.3865984"><ele>359.0</ele><time>2026-05-03T07:49:46.284Z</time></trkpt><trkpt lat="44.1361788" lon="10.3865466"><ele>359.0</ele><time>2026-05-03T07:49:47.29Z</time></trkpt><trkpt lat="44.1363703" lon="10.3864896"><ele>359.0</ele><time>2026-05-03T07:49:48.282Z</time></trkpt><trkpt lat="44.1365115" lon="10.3864452"><ele>359.0</ele><time>2026-05-03T07:49:49.283Z</time></trkpt><trkpt lat="44.1366588" lon="10.3863951"><ele>360.25</ele><time>2026-05-03T07:49:50.284Z</time></trkpt><trkpt lat="44.1368008" lon="10.3863304"><ele>361.5</ele><time>2026-05-03T07:49:51.283Z</time></trkpt><trkpt lat="44.1369626" lon="10.386333"><ele>362.75</ele><time>2026-05-03T07:49:52.28Z</time></trkpt><trkpt lat="44.1370447" lon="10.3862227"><ele>364.0</ele><time>2026-05-03T07:49:53.285Z</time></trkpt><trkpt lat="44.1371246" lon="10.3861227"><ele>364.0</ele><time>2026-05-03T07:49:54.28Z</time></trkpt><trkpt lat="44.1371388" lon="10.3859612"><ele>364.0</ele><time>2026-05-03T07:49:55.278Z</time></trkpt><trkpt lat="44.1370175" lon="10.3856278"><ele>364.0</ele><time>2026-05-03T07:49:56.277Z</time></trkpt><trkpt lat="44.1369012" lon="10.3852673"><ele>366.0</ele><time>2026-05-03T07:49:57.275Z</time></trkpt><trkpt lat="44.1368093" lon="10.3849088"><ele>368.0</ele><time>2026-05-03T07:49:58.275Z</time></trkpt><trkpt lat="44.1367409" lon="10.3846305"><ele>370.0</ele><time>2026-05-03T07:49:59.276Z</time></trkpt><trkpt lat="44.1366965" lon="10.3843315"><ele>372.0</ele><time>2026-05-03T07:50:00.28Z</time></trkpt><trkpt lat="44.1366587" lon="10.3840381"><ele>374.0</ele><time>2026-05-03T07:50:01.284Z</time></trkpt><trkpt lat="44.136638" lon="10.3837701"><ele>374.0</ele><time>2026-05-03T07:50:02.289Z</time></trkpt><trkpt lat="44.1366259" lon="10.3835012"><ele>374.0</ele><time>2026-05-03T07:50:03.289Z</time></trkpt><trkpt lat="44.1366259" lon="10.383306"><ele>374.0</ele><time>2026-05-03T07:50:04.289Z</time></trkpt><trkpt lat="44.1366893" lon="10.3831473"><ele>372.25</ele><time>2026-05-03T07:50:05.283Z</time></trkpt><trkpt lat="44.1367644" lon="10.3829701"><ele>370.5</ele><time>2026-05-03T07:50:06.286Z</time></trkpt><trkpt lat="44.1368414" lon="10.3827963"><ele>368.75</ele><time>2026-05-03T07:50:07.281Z</time></trkpt><trkpt lat="44.136938" lon="10.3826649"><ele>367.0</ele><time>2026-05-03T07:50:08.285Z</time></trkpt><trkpt lat="44.1371205" lon="10.3826006"><ele>367.0</ele><time>2026-05-03T07:50:09.283Z</time></trkpt><trkpt lat="44.137287" lon="10.3825035"><ele>367.0</ele><time>2026-05-03T07:50:10.285Z</time></trkpt><trkpt lat="44.1374491" lon="10.3823865"><ele>367.0</ele><time>2026-05-03T07:50:11.286Z</time></trkpt><trkpt lat="44.1375806" lon="10.3822671"><ele>368.0</ele><time>2026-05-03T07:50:12.281Z</time></trkpt><trkpt lat="44.1377118" lon="10.3821178"><ele>369.0</ele><time>2026-05-03T07:50:13.279Z</time></trkpt><trkpt lat="44.1377974" lon="10.3818966"><ele>370.0</ele><time>2026-05-03T07:50:14.278Z</time></trkpt><trkpt lat="44.1378537" lon="10.3816677"><ele>370.0</ele><time>2026-05-03T07:50:15.28Z</time></trkpt><trkpt lat="44.1379446" lon="10.3814591"><ele>370.0</ele><time>2026-05-03T07:50:16.284Z</time></trkpt><trkpt lat="44.1380623" lon="10.38132"><ele>370.0</ele><time>2026-05-03T07:50:17.284Z</time></trkpt><trkpt lat="44.1381857" lon="10.3811262"><ele>373.0</ele><time>2026-05-03T07:50:18.284Z</time></trkpt><trkpt lat="44.1383395" lon="10.3809229"><ele>376.0</ele><time>2026-05-03T07:50:19.283Z</time></trkpt><trkpt lat="44.1384859" lon="10.3807238"><ele>379.0</ele><time>2026-05-03T07:50:20.285Z</time></trkpt><trkpt lat="44.1386493" lon="10.3806267"><ele>376.3333333333333</ele><time>2026-05-03T07:50:21.288Z</time></trkpt><trkpt lat="44.1388635" lon="10.3804596"><ele>373.6666666666667</ele><time>2026-05-03T07:50:22.286Z</time></trkpt><trkpt lat="44.1390013" lon="10.3802947"><ele>371.0</ele><time>2026-05-03T07:50:23.286Z</time></trkpt><trkpt lat="44.1391365" lon="10.3800907"><ele>375.0</ele><time>2026-05-03T07:50:24.282Z</time></trkpt><trkpt lat="44.1392367" lon="10.3798564"><ele>379.0</ele><time>2026-05-03T07:50:25.281Z</time></trkpt><trkpt lat="44.1393524" lon="10.3796851"><ele>383.0</ele><time>2026-05-03T07:50:26.282Z</time></trkpt><trkpt lat="44.1394704" lon="10.3794884"><ele>383.0</ele><time>2026-05-03T07:50:27.284Z</time></trkpt><trkpt lat="44.1396021" lon="10.3793006"><ele>383.0</ele><time>2026-05-03T07:50:28.284Z</time></trkpt><trkpt lat="44.1397431" lon="10.3791352"><ele>383.0</ele><time>2026-05-03T07:50:29.289Z</time></trkpt><trkpt lat="44.1398792" lon="10.3789823"><ele>387.6666666666667</ele><time>2026-05-03T07:50:30.284Z</time></trkpt><trkpt lat="44.1400128" lon="10.3788384"><ele>392.33333333333337</ele><time>2026-05-03T07:50:31.288Z</time></trkpt><trkpt lat="44.1401153" lon="10.378619"><ele>397.0</ele><time>2026-05-03T07:50:32.286Z</time></trkpt><trkpt lat="44.1401842" lon="10.3783924"><ele>397.0</ele><time>2026-05-03T07:50:33.287Z</time></trkpt><trkpt lat="44.1402364" lon="10.3781875"><ele>397.0</ele><time>2026-05-03T07:50:34.281Z</time></trkpt><trkpt lat="44.1403848" lon="10.3780245"><ele>397.0</ele><time>2026-05-03T07:50:35.277Z</time></trkpt><trkpt lat="44.1405235" lon="10.3778735"><ele>397.5</ele><time>2026-05-03T07:50:36.281Z</time></trkpt><trkpt lat="44.1406611" lon="10.3778355"><ele>398.0</ele><time>2026-05-03T07:50:37.275Z</time></trkpt><trkpt lat="44.140799" lon="10.3777374"><ele>398.5</ele><time>2026-05-03T07:50:38.276Z</time></trkpt><trkpt lat="44.1409476" lon="10.3777573"><ele>399.0</ele><time>2026-05-03T07:50:39.276Z</time></trkpt><trkpt lat="44.1411565" lon="10.3777213"><ele>399.0</ele><time>2026-05-03T07:50:40.281Z</time></trkpt><trkpt lat="44.1413415" lon="10.377671"><ele>399.0</ele><time>2026-05-03T07:50:41.282Z</time></trkpt><trkpt lat="44.1414904" lon="10.3775501"><ele>399.0</ele><time>2026-05-03T07:50:42.278Z</time></trkpt><trkpt lat="44.1416524" lon="10.377393"><ele>399.0</ele><time>2026-05-03T07:50:43.281Z</time></trkpt><trkpt lat="44.1417973" lon="10.3772414"><ele>399.0</ele><time>2026-05-03T07:50:44.283Z</time></trkpt><trkpt lat="44.1419404" lon="10.3771007"><ele>399.0</ele><time>2026-05-03T07:50:45.289Z</time></trkpt><trkpt lat="44.1419959" lon="10.3769814"><ele>399.0</ele><time>2026-05-03T07:50:46.29Z</time></trkpt><trkpt lat="44.1421092" lon="10.3767858"><ele>399.0</ele><time>2026-05-03T07:50:47.284Z</time></trkpt><trkpt lat="44.1422127" lon="10.3765476"><ele>399.0</ele><time>2026-05-03T07:50:48.283Z</time></trkpt><trkpt lat="44.1423122" lon="10.3763169"><ele>397.66666666666663</ele><time>2026-05-03T07:50:49.279Z</time></trkpt><trkpt lat="44.1423273" lon="10.3760459"><ele>396.3333333333333</ele><time>2026-05-03T07:50:50.278Z</time></trkpt><trkpt lat="44.1423436" lon="10.3757717"><ele>395.0</ele><time>2026-05-03T07:50:51.283Z</time></trkpt><trkpt lat="44.1423174" lon="10.3755271"><ele>394.66666666666663</ele><time>2026-05-03T07:50:52.284Z</time></trkpt><trkpt lat="44.1423142" lon="10.375292"><ele>394.33333333333337</ele><time>2026-05-03T07:50:53.288Z</time></trkpt><trkpt lat="44.1423813" lon="10.3750247"><ele>394.0</ele><time>2026-05-03T07:50:54.293Z</time></trkpt><trkpt lat="44.1424399" lon="10.3747225"><ele>402.0</ele><time>2026-05-03T07:50:55.292Z</time></trkpt><trkpt lat="44.1425657" lon="10.3743797"><ele>410.0</ele><time>2026-05-03T07:50:56.294Z</time></trkpt><trkpt lat="44.1426468" lon="10.374075"><ele>410.66666666666663</ele><time>2026-05-03T07:50:57.293Z</time></trkpt><trkpt lat="44.1427216" lon="10.3738157"><ele>411.33333333333337</ele><time>2026-05-03T07:50:58.292Z</time></trkpt><trkpt lat="44.142751" lon="10.3736322"><ele>412.0</ele><time>2026-05-03T07:50:59.285Z</time></trkpt><trkpt lat="44.1428629" lon="10.3734842"><ele>412.0</ele><time>2026-05-03T07:51:00.281Z</time></trkpt><trkpt lat="44.1429527" lon="10.3733358"><ele>412.0</ele><time>2026-05-03T07:51:01.279Z</time></trkpt><trkpt lat="44.1430534" lon="10.3732655"><ele>412.0</ele><time>2026-05-03T07:51:02.257Z</time></trkpt><trkpt lat="44.1431448" lon="10.3733196"><ele>412.0</ele><time>2026-05-03T07:51:03.265Z</time></trkpt><trkpt lat="44.1433216" lon="10.3734804"><ele>409.5</ele><time>2026-05-03T07:51:04.278Z</time></trkpt><trkpt lat="44.1435677" lon="10.3737064"><ele>407.0</ele><time>2026-05-03T07:51:05.279Z</time></trkpt><trkpt lat="44.1438013" lon="10.3737795"><ele>413.0</ele><time>2026-05-03T07:51:06.28Z</time></trkpt><trkpt lat="44.1440525" lon="10.373948"><ele>419.0</ele><time>2026-05-03T07:51:07.281Z</time></trkpt><trkpt lat="44.1442646" lon="10.3740715"><ele>419.0</ele><time>2026-05-03T07:51:08.275Z</time></trkpt><trkpt lat="44.1444988" lon="10.3741717"><ele>419.0</ele><time>2026-05-03T07:51:09.29Z</time></trkpt><trkpt lat="44.1446743" lon="10.3740473"><ele>419.0</ele><time>2026-05-03T07:51:10.285Z</time></trkpt><trkpt lat="44.1448406" lon="10.3738644"><ele>417.66666666666663</ele><time>2026-05-03T07:51:11.285Z</time></trkpt><trkpt lat="44.1450321" lon="10.3737008"><ele>416.33333333333337</ele><time>2026-05-03T07:51:12.291Z</time></trkpt><trkpt lat="44.1452152" lon="10.3735585"><ele>415.0</ele><time>2026-05-03T07:51:13.296Z</time></trkpt><trkpt lat="44.1454493" lon="10.373371"><ele>415.0</ele><time>2026-05-03T07:51:14.295Z</time></trkpt><trkpt lat="44.1456107" lon="10.3731958"><ele>415.0</ele><time>2026-05-03T07:51:15.296Z</time></trkpt><trkpt lat="44.1457312" lon="10.3730184"><ele>415.0</ele><time>2026-05-03T07:51:16.29Z</time></trkpt><trkpt lat="44.1458676" lon="10.3728754"><ele>414.5</ele><time>2026-05-03T07:51:17.284Z</time></trkpt><trkpt lat="44.1459758" lon="10.3727584"><ele>414.0</ele><time>2026-05-03T07:51:18.281Z</time></trkpt><trkpt lat="44.1460728" lon="10.3727194"><ele>413.5</ele><time>2026-05-03T07:51:19.282Z</time></trkpt><trkpt lat="44.1462612" lon="10.3728264"><ele>413.0</ele><time>2026-05-03T07:51:21.28Z</time></trkpt><trkpt lat="44.1464351" lon="10.3729815"><ele>414.25</ele><time>2026-05-03T07:51:22.286Z</time></trkpt><trkpt lat="44.1465621" lon="10.3729993"><ele>415.5</ele><time>2026-05-03T07:51:23.285Z</time></trkpt><trkpt lat="44.1466908" lon="10.3730145"><ele>416.75</ele><time>2026-05-03T07:51:24.29Z</time></trkpt><trkpt lat="44.1468179" lon="10.3730219"><ele>418.0</ele><time>2026-05-03T07:51:25.283Z</time></trkpt><trkpt lat="44.146913" lon="10.3730048"><ele>418.0</ele><time>2026-05-03T07:51:26.283Z</time></trkpt><trkpt lat="44.147013" lon="10.3729251"><ele>418.0</ele><time>2026-05-03T07:51:27.283Z</time></trkpt><trkpt lat="44.1471022" lon="10.3728263"><ele>418.0</ele><time>2026-05-03T07:51:28.282Z</time></trkpt><trkpt lat="44.1471507" lon="10.3726846"><ele>418.0</ele><time>2026-05-03T07:51:29.286Z</time></trkpt><trkpt lat="44.1471396" lon="10.3724484"><ele>418.0</ele><time>2026-05-03T07:51:30.281Z</time></trkpt><trkpt lat="44.1471075" lon="10.3722299"><ele>418.0</ele><time>2026-05-03T07:51:31.278Z</time></trkpt><trkpt lat="44.1470661" lon="10.3719528"><ele>418.0</ele><time>2026-05-03T07:51:32.287Z</time></trkpt><trkpt lat="44.1470027" lon="10.371683"><ele>418.0</ele><time>2026-05-03T07:51:33.287Z</time></trkpt><trkpt lat="44.146986" lon="10.3713915"><ele>418.0</ele><time>2026-05-03T07:51:34.287Z</time></trkpt><trkpt lat="44.1470325" lon="10.3711122"><ele>418.0</ele><time>2026-05-03T07:51:35.295Z</time></trkpt><trkpt lat="44.1470846" lon="10.3709059"><ele>418.33333333333337</ele><time>2026-05-03T07:51:36.284Z</time></trkpt><trkpt lat="44.1471879" lon="10.3707038"><ele>418.66666666666663</ele><time>2026-05-03T07:51:37.281Z</time></trkpt><trkpt lat="44.1473135" lon="10.3705058"><ele>419.0</ele><time>2026-05-03T07:51:38.288Z</time></trkpt><trkpt lat="44.1474307" lon="10.3703393"><ele>419.0</ele><time>2026-05-03T07:51:39.289Z</time></trkpt><trkpt lat="44.1475592" lon="10.3702032"><ele>419.0</ele><time>2026-05-03T07:51:40.281Z</time></trkpt><trkpt lat="44.1477341" lon="10.370135"><ele>419.0</ele><time>2026-05-03T07:51:41.288Z</time></trkpt><trkpt lat="44.1478718" lon="10.3700656"><ele>419.0</ele><time>2026-05-03T07:51:42.284Z</time></trkpt><trkpt lat="44.1480264" lon="10.3699648"><ele>419.0</ele><time>2026-05-03T07:51:43.282Z</time></trkpt><trkpt lat="44.1482091" lon="10.3699254"><ele>419.0</ele><time>2026-05-03T07:51:44.281Z</time></trkpt><trkpt lat="44.1483734" lon="10.3698778"><ele>419.0</ele><time>2026-05-03T07:51:45.282Z</time></trkpt><trkpt lat="44.1485275" lon="10.3697946"><ele>419.0</ele><time>2026-05-03T07:51:46.276Z</time></trkpt><trkpt lat="44.1486251" lon="10.3697154"><ele>419.0</ele><time>2026-05-03T07:51:47.278Z</time></trkpt><trkpt lat="44.1487391" lon="10.369557"><ele>419.0</ele><time>2026-05-03T07:51:48.279Z</time></trkpt><trkpt lat="44.1488042" lon="10.3693848"><ele>419.0</ele><time>2026-05-03T07:51:49.281Z</time></trkpt><trkpt lat="44.1488651" lon="10.3692275"><ele>419.0</ele><time>2026-05-03T07:51:50.277Z</time></trkpt><trkpt lat="44.1489453" lon="10.3691694"><ele>419.0</ele><time>2026-05-03T07:51:51.278Z</time></trkpt><trkpt lat="44.1489464" lon="10.3690553"><ele>419.0</ele><time>2026-05-03T07:51:52.273Z</time></trkpt><trkpt lat="44.1489326" lon="10.368877"><ele>419.0</ele><time>2026-05-03T07:51:54.288Z</time></trkpt><trkpt lat="44.1489101" lon="10.3687607"><ele>417.6</ele><time>2026-05-03T07:51:55.279Z</time></trkpt><trkpt lat="44.1488916" lon="10.3686583"><ele>416.2</ele><time>2026-05-03T07:51:56.283Z</time></trkpt><trkpt lat="44.1488827" lon="10.3685062"><ele>414.8</ele><time>2026-05-03T07:51:57.28Z</time></trkpt><trkpt lat="44.1488703" lon="10.3683297"><ele>413.40000000000003</ele><time>2026-05-03T07:51:58.283Z</time></trkpt><trkpt lat="44.148858" lon="10.3681804"><ele>412.0</ele><time>2026-05-03T07:51:59.283Z</time></trkpt><trkpt lat="44.1488463" lon="10.3680509"><ele>411.33333333333337</ele><time>2026-05-03T07:52:00.285Z</time></trkpt><trkpt lat="44.1488438" lon="10.3679268"><ele>410.6666666666667</ele><time>2026-05-03T07:52:01.285Z</time></trkpt><trkpt lat="44.1488535" lon="10.3678259"><ele>410.0</ele><time>2026-05-03T07:52:02.279Z</time></trkpt><trkpt lat="44.1489055" lon="10.3677493"><ele>409.33333333333337</ele><time>2026-05-03T07:52:03.283Z</time></trkpt><trkpt lat="44.1489625" lon="10.3676501"><ele>408.6666666666667</ele><time>2026-05-03T07:52:04.277Z</time></trkpt><trkpt lat="44.1490427" lon="10.3675786"><ele>408.0</ele><time>2026-05-03T07:52:05.272Z</time></trkpt><trkpt lat="44.1491774" lon="10.3675434"><ele>412.33333333333337</ele><time>2026-05-03T07:52:06.279Z</time></trkpt><trkpt lat="44.1493141" lon="10.3674584"><ele>416.6666666666667</ele><time>2026-05-03T07:52:07.277Z</time></trkpt><trkpt lat="44.1495028" lon="10.3673575"><ele>421.0</ele><time>2026-05-03T07:52:08.282Z</time></trkpt><trkpt lat="44.1497054" lon="10.3672609"><ele>418.33333333333337</ele><time>2026-05-03T07:52:09.284Z</time></trkpt><trkpt lat="44.1499218" lon="10.3671991"><ele>415.66666666666663</ele><time>2026-05-03T07:52:10.283Z</time></trkpt><trkpt lat="44.1501215" lon="10.3671057"><ele>413.0</ele><time>2026-05-03T07:52:11.282Z</time></trkpt><trkpt lat="44.1502927" lon="10.3670959"><ele>413.0</ele><time>2026-05-03T07:52:12.279Z</time></trkpt><trkpt lat="44.1504905" lon="10.3670698"><ele>413.0</ele><time>2026-05-03T07:52:13.277Z</time></trkpt><trkpt lat="44.1506545" lon="10.3670248"><ele>413.0</ele><time>2026-05-03T07:52:14.281Z</time></trkpt><trkpt lat="44.1508263" lon="10.3670031"><ele>416.0</ele><time>2026-05-03T07:52:15.281Z</time></trkpt><trkpt lat="44.1511946" lon="10.3667816"><ele>419.0</ele><time>2026-05-03T07:52:17.279Z</time></trkpt><trkpt lat="44.1514298" lon="10.3667214"><ele>423.3333333333333</ele><time>2026-05-03T07:52:18.277Z</time></trkpt><trkpt lat="44.1516118" lon="10.3666662"><ele>427.66666666666663</ele><time>2026-05-03T07:52:19.28Z</time></trkpt><trkpt lat="44.151805" lon="10.3666649"><ele>432.0</ele><time>2026-05-03T07:52:20.277Z</time></trkpt><trkpt lat="44.1519495" lon="10.3666697"><ele>432.0</ele><time>2026-05-03T07:52:21.283Z</time></trkpt><trkpt lat="44.1521244" lon="10.3666815"><ele>432.0</ele><time>2026-05-03T07:52:22.276Z</time></trkpt><trkpt lat="44.1522841" lon="10.3666051"><ele>432.0</ele><time>2026-05-03T07:52:23.278Z</time></trkpt><trkpt lat="44.1523756" lon="10.3664705"><ele>434.0</ele><time>2026-05-03T07:52:24.28Z</time></trkpt><trkpt lat="44.1525334" lon="10.3663908"><ele>436.0</ele><time>2026-05-03T07:52:25.279Z</time></trkpt><trkpt lat="44.1527096" lon="10.3662658"><ele>438.0</ele><time>2026-05-03T07:52:26.287Z</time></trkpt><trkpt lat="44.152897" lon="10.3662188"><ele>430.66666666666663</ele><time>2026-05-03T07:52:27.281Z</time></trkpt><trkpt lat="44.1531188" lon="10.3661856"><ele>423.3333333333333</ele><time>2026-05-03T07:52:28.282Z</time></trkpt><trkpt lat="44.1533203" lon="10.3662202"><ele>416.0</ele><time>2026-05-03T07:52:29.287Z</time></trkpt><trkpt lat="44.1535674" lon="10.3662744"><ele>416.0</ele><time>2026-05-03T07:52:30.283Z</time></trkpt><trkpt lat="44.1540265" lon="10.3663195"><ele>417.0</ele><time>2026-05-03T07:52:32.282Z</time></trkpt><trkpt lat="44.1542743" lon="10.3663551"><ele>418.0</ele><time>2026-05-03T07:52:33.281Z</time></trkpt><trkpt lat="44.1544801" lon="10.3664078"><ele>425.33333333333337</ele><time>2026-05-03T07:52:34.278Z</time></trkpt><trkpt lat="44.1546584" lon="10.3665068"><ele>432.66666666666663</ele><time>2026-05-03T07:52:35.284Z</time></trkpt><trkpt lat="44.1548073" lon="10.366644"><ele>440.0</ele><time>2026-05-03T07:52:36.28Z</time></trkpt><trkpt lat="44.1549362" lon="10.3667455"><ele>440.0</ele><time>2026-05-03T07:52:37.274Z</time></trkpt><trkpt lat="44.1550359" lon="10.3667718"><ele>440.0</ele><time>2026-05-03T07:52:38.281Z</time></trkpt><trkpt lat="44.155162" lon="10.3667161"><ele>440.0</ele><time>2026-05-03T07:52:39.275Z</time></trkpt><trkpt lat="44.1552666" lon="10.3665996"><ele>440.0</ele><time>2026-05-03T07:52:40.275Z</time></trkpt><trkpt lat="44.1553904" lon="10.3664304"><ele>439.3333333333333</ele><time>2026-05-03T07:52:41.273Z</time></trkpt><trkpt lat="44.1554917" lon="10.3662488"><ele>438.66666666666663</ele><time>2026-05-03T07:52:42.277Z</time></trkpt><trkpt lat="44.1556054" lon="10.3660983"><ele>438.0</ele><time>2026-05-03T07:52:43.278Z</time></trkpt><trkpt lat="44.1557256" lon="10.3659994"><ele>438.0</ele><time>2026-05-03T07:52:44.278Z</time></trkpt><trkpt lat="44.1558645" lon="10.3660079"><ele>438.0</ele><time>2026-05-03T07:52:45.279Z</time></trkpt><trkpt lat="44.1560163" lon="10.3660225"><ele>438.0</ele><time>2026-05-03T07:52:46.278Z</time></trkpt><trkpt lat="44.1561506" lon="10.3660361"><ele>438.0</ele><time>2026-05-03T07:52:47.277Z</time></trkpt><trkpt lat="44.1562844" lon="10.3660007"><ele>438.0</ele><time>2026-05-03T07:52:48.277Z</time></trkpt><trkpt lat="44.1563932" lon="10.3659382"><ele>438.0</ele><time>2026-05-03T07:52:49.278Z</time></trkpt><trkpt lat="44.1564815" lon="10.3658404"><ele>438.0</ele><time>2026-05-03T07:52:50.281Z</time></trkpt><trkpt lat="44.1565051" lon="10.3655698"><ele>438.0</ele><time>2026-05-03T07:52:51.287Z</time></trkpt><trkpt lat="44.156552" lon="10.3652878"><ele>437.25</ele><time>2026-05-03T07:52:52.281Z</time></trkpt><trkpt lat="44.1565486" lon="10.3650651"><ele>436.5</ele><time>2026-05-03T07:52:53.284Z</time></trkpt><trkpt lat="44.1564924" lon="10.3648959"><ele>435.75</ele><time>2026-05-03T07:52:54.278Z</time></trkpt><trkpt lat="44.1564181" lon="10.3647457"><ele>435.0</ele><time>2026-05-03T07:52:55.279Z</time></trkpt><trkpt lat="44.1563483" lon="10.3645688"><ele>434.66666666666663</ele><time>2026-05-03T07:52:56.281Z</time></trkpt><trkpt lat="44.1562868" lon="10.3643943"><ele>434.3333333333333</ele><time>2026-05-03T07:52:57.279Z</time></trkpt><trkpt lat="44.1562396" lon="10.3642051"><ele>434.0</ele><time>2026-05-03T07:52:58.278Z</time></trkpt><trkpt lat="44.1562455" lon="10.3639592"><ele>435.5</ele><time>2026-05-03T07:52:59.279Z</time></trkpt><trkpt lat="44.1563231" lon="10.3636573"><ele>437.0</ele><time>2026-05-03T07:53:00.278Z</time></trkpt><trkpt lat="44.1563959" lon="10.3633574"><ele>435.5</ele><time>2026-05-03T07:53:01.282Z</time></trkpt><trkpt lat="44.1564523" lon="10.3630032"><ele>434.0</ele><time>2026-05-03T07:53:02.288Z</time></trkpt><trkpt lat="44.1565031" lon="10.3626877"><ele>437.66666666666663</ele><time>2026-05-03T07:53:03.282Z</time></trkpt><trkpt lat="44.1565709" lon="10.3623997"><ele>441.33333333333337</ele><time>2026-05-03T07:53:04.277Z</time></trkpt><trkpt lat="44.1566468" lon="10.3621871"><ele>445.0</ele><time>2026-05-03T07:53:05.28Z</time></trkpt><trkpt lat="44.156689" lon="10.3620137"><ele>445.0</ele><time>2026-05-03T07:53:06.286Z</time></trkpt><trkpt lat="44.1567384" lon="10.361839"><ele>445.0</ele><time>2026-05-03T07:53:07.282Z</time></trkpt><trkpt lat="44.1568837" lon="10.3618339"><ele>445.0</ele><time>2026-05-03T07:53:08.274Z</time></trkpt><trkpt lat="44.1570625" lon="10.3618789"><ele>445.0</ele><time>2026-05-03T07:53:09.278Z</time></trkpt><trkpt lat="44.1572147" lon="10.3618966"><ele>445.0</ele><time>2026-05-03T07:53:10.272Z</time></trkpt><trkpt lat="44.1574398" lon="10.361977"><ele>445.0</ele><time>2026-05-03T07:53:11.284Z</time></trkpt><trkpt lat="44.1575711" lon="10.3618783"><ele>448.6666666666667</ele><time>2026-05-03T07:53:12.286Z</time></trkpt><trkpt lat="44.1577736" lon="10.3618278"><ele>452.33333333333337</ele><time>2026-05-03T07:53:13.289Z</time></trkpt><trkpt lat="44.1578539" lon="10.3616195"><ele>456.0</ele><time>2026-05-03T07:53:14.287Z</time></trkpt><trkpt lat="44.1579939" lon="10.3614696"><ele>453.66666666666663</ele><time>2026-05-03T07:53:15.286Z</time></trkpt><trkpt lat="44.1580753" lon="10.3612556"><ele>451.3333333333333</ele><time>2026-05-03T07:53:16.284Z</time></trkpt><trkpt lat="44.1581933" lon="10.361026"><ele>449.0</ele><time>2026-05-03T07:53:17.28Z</time></trkpt><trkpt lat="44.1582838" lon="10.3608262"><ele>453.3333333333333</ele><time>2026-05-03T07:53:18.28Z</time></trkpt><trkpt lat="44.1583262" lon="10.36055"><ele>457.66666666666663</ele><time>2026-05-03T07:53:19.284Z</time></trkpt><trkpt lat="44.1583502" lon="10.3603384"><ele>462.0</ele><time>2026-05-03T07:53:20.285Z</time></trkpt><trkpt lat="44.1583772" lon="10.3601226"><ele>462.0</ele><time>2026-05-03T07:53:21.282Z</time></trkpt><trkpt lat="44.1583964" lon="10.3599415"><ele>462.0</ele><time>2026-05-03T07:53:22.283Z</time></trkpt><trkpt lat="44.1584424" lon="10.3598064"><ele>462.0</ele><time>2026-05-03T07:53:23.288Z</time></trkpt><trkpt lat="44.158591" lon="10.3597439"><ele>462.0</ele><time>2026-05-03T07:53:24.285Z</time></trkpt><trkpt lat="44.1587555" lon="10.3596537"><ele>461.33333333333337</ele><time>2026-05-03T07:53:25.283Z</time></trkpt><trkpt lat="44.1589492" lon="10.3595331"><ele>460.6666666666667</ele><time>2026-05-03T07:53:26.282Z</time></trkpt><trkpt lat="44.1591566" lon="10.3594732"><ele>460.0</ele><time>2026-05-03T07:53:27.278Z</time></trkpt><trkpt lat="44.1593871" lon="10.3594034"><ele>460.0</ele><time>2026-05-03T07:53:28.278Z</time></trkpt><trkpt lat="44.1596157" lon="10.3593249"><ele>460.0</ele><time>2026-05-03T07:53:29.272Z</time></trkpt><trkpt lat="44.159844" lon="10.3592256"><ele>463.6666666666667</ele><time>2026-05-03T07:53:30.289Z</time></trkpt><trkpt lat="44.1600411" lon="10.359108"><ele>467.33333333333337</ele><time>2026-05-03T07:53:31.289Z</time></trkpt><trkpt lat="44.1602325" lon="10.3590429"><ele>471.0</ele><time>2026-05-03T07:53:32.284Z</time></trkpt><trkpt lat="44.1603325" lon="10.3588366"><ele>471.0</ele><time>2026-05-03T07:53:33.284Z</time></trkpt><trkpt lat="44.1604369" lon="10.3586511"><ele>471.0</ele><time>2026-05-03T07:53:34.293Z</time></trkpt><trkpt lat="44.1605747" lon="10.358467"><ele>471.0</ele><time>2026-05-03T07:53:35.29Z</time></trkpt><trkpt lat="44.1606842" lon="10.3582804"><ele>475.0</ele><time>2026-05-03T07:53:36.292Z</time></trkpt><trkpt lat="44.1607898" lon="10.3580625"><ele>479.0</ele><time>2026-05-03T07:53:37.29Z</time></trkpt><trkpt lat="44.1609035" lon="10.3578534"><ele>483.0</ele><time>2026-05-03T07:53:38.287Z</time></trkpt><trkpt lat="44.1610058" lon="10.3576509"><ele>483.0</ele><time>2026-05-03T07:53:39.282Z</time></trkpt><trkpt lat="44.1611072" lon="10.3574948"><ele>483.0</ele><time>2026-05-03T07:53:40.284Z</time></trkpt><trkpt lat="44.161142" lon="10.3572534"><ele>483.0</ele><time>2026-05-03T07:53:41.282Z</time></trkpt><trkpt lat="44.1611783" lon="10.3570071"><ele>481.33333333333337</ele><time>2026-05-03T07:53:42.284Z</time></trkpt><trkpt lat="44.161253" lon="10.3568019"><ele>479.6666666666667</ele><time>2026-05-03T07:53:43.28Z</time></trkpt><trkpt lat="44.1612883" lon="10.3566031"><ele>478.0</ele><time>2026-05-03T07:53:44.286Z</time></trkpt><trkpt lat="44.1613316" lon="10.3564011"><ele>479.6666666666667</ele><time>2026-05-03T07:53:45.284Z</time></trkpt><trkpt lat="44.1613794" lon="10.3561656"><ele>481.33333333333337</ele><time>2026-05-03T07:53:46.283Z</time></trkpt><trkpt lat="44.161429" lon="10.3559776"><ele>483.0</ele><time>2026-05-03T07:53:47.285Z</time></trkpt><trkpt lat="44.1614746" lon="10.3557919"><ele>483.0</ele><time>2026-05-03T07:53:48.285Z</time></trkpt><trkpt lat="44.1614915" lon="10.3556377"><ele>482.99999999999994</ele><time>2026-05-03T07:53:49.281Z</time></trkpt><trkpt lat="44.1614888" lon="10.3555296"><ele>482.99999999999994</ele><time>2026-05-03T07:53:50.279Z</time></trkpt><trkpt lat="44.1614299" lon="10.3554849"><ele>483.0</ele><time>2026-05-03T07:53:51.285Z</time></trkpt><trkpt lat="44.1613306" lon="10.3553902"><ele>483.0</ele><time>2026-05-03T07:53:52.279Z</time></trkpt><trkpt lat="44.1612302" lon="10.3552953"><ele>485.25</ele><time>2026-05-03T07:53:53.283Z</time></trkpt><trkpt lat="44.161103" lon="10.3551681"><ele>487.5</ele><time>2026-05-03T07:53:54.282Z</time></trkpt><trkpt lat="44.1609589" lon="10.3550365"><ele>489.75</ele><time>2026-05-03T07:53:55.281Z</time></trkpt><trkpt lat="44.1608754" lon="10.354951"><ele>492.0</ele><time>2026-05-03T07:53:56.281Z</time></trkpt><trkpt lat="44.1607681" lon="10.3548343"><ele>489.8</ele><time>2026-05-03T07:53:57.28Z</time></trkpt><trkpt lat="44.1606921" lon="10.3547043"><ele>487.6</ele><time>2026-05-03T07:53:58.284Z</time></trkpt><trkpt lat="44.1606329" lon="10.3545818"><ele>485.40000000000003</ele><time>2026-05-03T07:53:59.28Z</time></trkpt><trkpt lat="44.1606267" lon="10.3544402"><ele>483.20000000000005</ele><time>2026-05-03T07:54:00.281Z</time></trkpt><trkpt lat="44.1606374" lon="10.3542963"><ele>481.0</ele><time>2026-05-03T07:54:01.289Z</time></trkpt><trkpt lat="44.1606514" lon="10.3541667"><ele>482.75</ele><time>2026-05-03T07:54:02.286Z</time></trkpt><trkpt lat="44.1607338" lon="10.3540274"><ele>484.5</ele><time>2026-05-03T07:54:03.282Z</time></trkpt><trkpt lat="44.1608154" lon="10.3538808"><ele>486.25</ele><time>2026-05-03T07:54:04.284Z</time></trkpt><trkpt lat="44.1608882" lon="10.3537441"><ele>488.0</ele><time>2026-05-03T07:54:05.292Z</time></trkpt><trkpt lat="44.1609574" lon="10.3536334"><ele>488.0</ele><time>2026-05-03T07:54:06.289Z</time></trkpt><trkpt lat="44.1610355" lon="10.3535352"><ele>487.99999999999994</ele><time>2026-05-03T07:54:07.284Z</time></trkpt><trkpt lat="44.1611157" lon="10.3534395"><ele>487.99999999999994</ele><time>2026-05-03T07:54:08.287Z</time></trkpt><trkpt lat="44.1612044" lon="10.3534069"><ele>488.0</ele><time>2026-05-03T07:54:09.284Z</time></trkpt><trkpt lat="44.1612949" lon="10.3533905"><ele>488.0</ele><time>2026-05-03T07:54:10.281Z</time></trkpt><trkpt lat="44.1613649" lon="10.3534167"><ele>488.0</ele><time>2026-05-03T07:54:11.285Z</time></trkpt><trkpt lat="44.1614333" lon="10.3534705"><ele>488.0</ele><time>2026-05-03T07:54:12.282Z</time></trkpt><trkpt lat="44.1615139" lon="10.3535697"><ele>488.0</ele><time>2026-05-03T07:54:13.276Z</time></trkpt><trkpt lat="44.161618" lon="10.3537113"><ele>488.0</ele><time>2026-05-03T07:54:14.281Z</time></trkpt><trkpt lat="44.1617348" lon="10.3538482"><ele>493.0</ele><time>2026-05-03T07:54:15.278Z</time></trkpt><trkpt lat="44.1618458" lon="10.3539923"><ele>498.0</ele><time>2026-05-03T07:54:16.277Z</time></trkpt><trkpt lat="44.1619591" lon="10.3541216"><ele>503.0</ele><time>2026-05-03T07:54:17.277Z</time></trkpt><trkpt lat="44.1621974" lon="10.3543601"><ele>503.0</ele><time>2026-05-03T07:54:19.278Z</time></trkpt><trkpt lat="44.162311" lon="10.3544453"><ele>503.0</ele><time>2026-05-03T07:54:20.282Z</time></trkpt><trkpt lat="44.1624675" lon="10.3544623"><ele>503.0</ele><time>2026-05-03T07:54:21.275Z</time></trkpt><trkpt lat="44.1626686" lon="10.3544742"><ele>499.0</ele><time>2026-05-03T07:54:22.279Z</time></trkpt><trkpt lat="44.1629184" lon="10.3544333"><ele>495.0</ele><time>2026-05-03T07:54:23.277Z</time></trkpt><trkpt lat="44.1631181" lon="10.3544151"><ele>495.33333333333337</ele><time>2026-05-03T07:54:24.282Z</time></trkpt><trkpt lat="44.1632941" lon="10.3544079"><ele>495.6666666666667</ele><time>2026-05-03T07:54:25.278Z</time></trkpt><trkpt lat="44.1634351" lon="10.3544288"><ele>496.0</ele><time>2026-05-03T07:54:26.279Z</time></trkpt><trkpt lat="44.1635825" lon="10.3544425"><ele>496.0</ele><time>2026-05-03T07:54:27.278Z</time></trkpt><trkpt lat="44.1637273" lon="10.3544063"><ele>496.0</ele><time>2026-05-03T07:54:28.281Z</time></trkpt><trkpt lat="44.1638886" lon="10.3543414"><ele>496.0</ele><time>2026-05-03T07:54:29.282Z</time></trkpt><trkpt lat="44.1640358" lon="10.3542721"><ele>496.25</ele><time>2026-05-03T07:54:30.282Z</time></trkpt><trkpt lat="44.164165" lon="10.3541969"><ele>496.5</ele><time>2026-05-03T07:54:31.284Z</time></trkpt><trkpt lat="44.1642505" lon="10.3541378"><ele>496.75</ele><time>2026-05-03T07:54:32.286Z</time></trkpt><trkpt lat="44.1643819" lon="10.3540316"><ele>497.0</ele><time>2026-05-03T07:54:33.289Z</time></trkpt><trkpt lat="44.1644938" lon="10.3538572"><ele>493.0</ele><time>2026-05-03T07:54:34.284Z</time></trkpt><trkpt lat="44.1646107" lon="10.3537042"><ele>489.0</ele><time>2026-05-03T07:54:35.281Z</time></trkpt><trkpt lat="44.164716" lon="10.3535501"><ele>485.0</ele><time>2026-05-03T07:54:36.277Z</time></trkpt><trkpt lat="44.1648511" lon="10.3533818"><ele>486.3333333333333</ele><time>2026-05-03T07:54:37.284Z</time></trkpt><trkpt lat="44.1649629" lon="10.3531973"><ele>487.66666666666663</ele><time>2026-05-03T07:54:38.279Z</time></trkpt><trkpt lat="44.1651041" lon="10.3530493"><ele>489.0</ele><time>2026-05-03T07:54:39.277Z</time></trkpt><trkpt lat="44.1652071" lon="10.3528396"><ele>489.0</ele><time>2026-05-03T07:54:40.289Z</time></trkpt><trkpt lat="44.1653789" lon="10.3527798"><ele>489.0</ele><time>2026-05-03T07:54:41.287Z</time></trkpt><trkpt lat="44.1655728" lon="10.3527037"><ele>489.0</ele><time>2026-05-03T07:54:42.284Z</time></trkpt><trkpt lat="44.1657903" lon="10.3526781"><ele>491.0</ele><time>2026-05-03T07:54:43.287Z</time></trkpt><trkpt lat="44.1659997" lon="10.3526633"><ele>493.0</ele><time>2026-05-03T07:54:44.287Z</time></trkpt><trkpt lat="44.1662001" lon="10.3525892"><ele>495.0</ele><time>2026-05-03T07:54:45.292Z</time></trkpt><trkpt lat="44.1663934" lon="10.3525388"><ele>500.33333333333337</ele><time>2026-05-03T07:54:46.281Z</time></trkpt><trkpt lat="44.1665718" lon="10.3525052"><ele>505.6666666666667</ele><time>2026-05-03T07:54:47.285Z</time></trkpt><trkpt lat="44.1667414" lon="10.3524227"><ele>511.0</ele><time>2026-05-03T07:54:48.287Z</time></trkpt><trkpt lat="44.1668872" lon="10.3522993"><ele>503.0</ele><time>2026-05-03T07:54:49.274Z</time></trkpt><trkpt lat="44.1670215" lon="10.3521571"><ele>495.0</ele><time>2026-05-03T07:54:50.282Z</time></trkpt><trkpt lat="44.1671886" lon="10.3520287"><ele>487.0</ele><time>2026-05-03T07:54:51.281Z</time></trkpt><trkpt lat="44.1673435" lon="10.3518377"><ele>495.0</ele><time>2026-05-03T07:54:52.278Z</time></trkpt><trkpt lat="44.1674847" lon="10.3516837"><ele>503.0</ele><time>2026-05-03T07:54:53.282Z</time></trkpt><trkpt lat="44.1676211" lon="10.3515498"><ele>511.0</ele><time>2026-05-03T07:54:54.279Z</time></trkpt><trkpt lat="44.1677937" lon="10.3514698"><ele>511.0</ele><time>2026-05-03T07:54:55.282Z</time></trkpt><trkpt lat="44.1679391" lon="10.3514206"><ele>511.0</ele><time>2026-05-03T07:54:56.275Z</time></trkpt><trkpt lat="44.1680817" lon="10.3514085"><ele>511.0</ele><time>2026-05-03T07:54:57.279Z</time></trkpt><trkpt lat="44.1682176" lon="10.3514622"><ele>511.0</ele><time>2026-05-03T07:54:58.272Z</time></trkpt><trkpt lat="44.168323" lon="10.3514585"><ele>509.0</ele><time>2026-05-03T07:54:59.268Z</time></trkpt><trkpt lat="44.1684385" lon="10.3513905"><ele>507.0</ele><time>2026-05-03T07:55:00.268Z</time></trkpt><trkpt lat="44.1685184" lon="10.351272"><ele>505.0</ele><time>2026-05-03T07:55:01.278Z</time></trkpt><trkpt lat="44.1685397" lon="10.3511634"><ele>503.0</ele><time>2026-05-03T07:55:02.273Z</time></trkpt><trkpt lat="44.1685725" lon="10.3510584"><ele>501.0</ele><time>2026-05-03T07:55:03.281Z</time></trkpt><trkpt lat="44.1686994" lon="10.3510576"><ele>501.0</ele><time>2026-05-03T07:55:04.283Z</time></trkpt><trkpt lat="44.1687451" lon="10.3509315"><ele>501.0</ele><time>2026-05-03T07:55:05.273Z</time></trkpt><trkpt lat="44.1687604" lon="10.3507442"><ele>501.0</ele><time>2026-05-03T07:55:06.284Z</time></trkpt><trkpt lat="44.1687592" lon="10.3505396"><ele>501.0</ele><time>2026-05-03T07:55:07.285Z</time></trkpt><trkpt lat="44.1687395" lon="10.3503834"><ele>502.75</ele><time>2026-05-03T07:55:08.285Z</time></trkpt><trkpt lat="44.1687154" lon="10.3501999"><ele>504.5</ele><time>2026-05-03T07:55:09.281Z</time></trkpt><trkpt lat="44.1686636" lon="10.3500141"><ele>506.25</ele><time>2026-05-03T07:55:10.28Z</time></trkpt><trkpt lat="44.168605" lon="10.3498189"><ele>508.0</ele><time>2026-05-03T07:55:11.281Z</time></trkpt><trkpt lat="44.1685228" lon="10.3496984"><ele>508.2</ele><time>2026-05-03T07:55:12.283Z</time></trkpt><trkpt lat="44.168509" lon="10.3495416"><ele>508.4</ele><time>2026-05-03T07:55:13.289Z</time></trkpt><trkpt lat="44.1685757" lon="10.3494308"><ele>508.59999999999997</ele><time>2026-05-03T07:55:14.283Z</time></trkpt><trkpt lat="44.1685885" lon="10.3492604"><ele>508.79999999999995</ele><time>2026-05-03T07:55:15.278Z</time></trkpt><trkpt lat="44.1685948" lon="10.3491396"><ele>509.0</ele><time>2026-05-03T07:55:16.278Z</time></trkpt><trkpt lat="44.1686385" lon="10.3490371"><ele>509.0</ele><time>2026-05-03T07:55:19.279Z</time></trkpt><trkpt lat="44.1686798" lon="10.3489563"><ele>509.0</ele><time>2026-05-03T07:55:22.279Z</time></trkpt><trkpt lat="44.1687557" lon="10.3488284"><ele>509.0</ele><time>2026-05-03T07:55:24.282Z</time></trkpt><trkpt lat="44.1688045" lon="10.3487181"><ele>509.0</ele><time>2026-05-03T07:55:25.277Z</time></trkpt><trkpt lat="44.1688539" lon="10.3486114"><ele>509.0</ele><time>2026-05-03T07:55:26.274Z</time></trkpt><trkpt lat="44.1688977" lon="10.3484986"><ele>509.49999999999994</ele><time>2026-05-03T07:55:27.275Z</time></trkpt><trkpt lat="44.1689342" lon="10.3483941"><ele>510.0</ele><time>2026-05-03T07:55:28.278Z</time></trkpt><trkpt lat="44.1689792" lon="10.3483175"><ele>510.5</ele><time>2026-05-03T07:55:29.275Z</time></trkpt><trkpt lat="44.1690515" lon="10.3482537"><ele>511.0</ele><time>2026-05-03T07:55:31.277Z</time></trkpt><trkpt lat="44.1689808" lon="10.3482955"><ele>511.49999999999994</ele><time>2026-05-03T07:55:54.293Z</time></trkpt><trkpt lat="44.1689236" lon="10.3484228"><ele>512.0</ele><time>2026-05-03T07:55:58.282Z</time></trkpt><trkpt lat="44.1688469" lon="10.3485915"><ele>512.0</ele><time>2026-05-03T07:56:00.278Z</time></trkpt><trkpt lat="44.1688071" lon="10.3486984"><ele>512.0</ele><time>2026-05-03T07:56:01.285Z</time></trkpt><trkpt lat="44.1687789" lon="10.348803"><ele>512.0</ele><time>2026-05-03T07:56:02.278Z</time></trkpt><trkpt lat="44.168753" lon="10.3488982"><ele>512.0</ele><time>2026-05-03T07:56:03.279Z</time></trkpt><trkpt lat="44.1686958" lon="10.3490527"><ele>512.0</ele><time>2026-05-03T07:56:05.276Z</time></trkpt><trkpt lat="44.1686513" lon="10.3492108"><ele>512.0</ele><time>2026-05-03T07:56:07.283Z</time></trkpt><trkpt lat="44.1685749" lon="10.3491678"><ele>512.0</ele><time>2026-05-03T07:56:12.28Z</time></trkpt><trkpt lat="44.1685142" lon="10.3490539"><ele>512.0</ele><time>2026-05-03T07:56:13.277Z</time></trkpt><trkpt lat="44.1684627" lon="10.348917"><ele>512.0</ele><time>2026-05-03T07:56:14.279Z</time></trkpt><trkpt lat="44.1683797" lon="10.3487358"><ele>512.0</ele><time>2026-05-03T07:56:15.282Z</time></trkpt><trkpt lat="44.1683315" lon="10.3485706"><ele>512.0</ele><time>2026-05-03T07:56:16.277Z</time></trkpt><trkpt lat="44.1682986" lon="10.3484243"><ele>512.0</ele><time>2026-05-03T07:56:17.278Z</time></trkpt><trkpt lat="44.1682619" lon="10.3482897"><ele>512.0</ele><time>2026-05-03T07:56:18.279Z</time></trkpt><trkpt lat="44.1682282" lon="10.3481607"><ele>512.0</ele><time>2026-05-03T07:56:19.283Z</time></trkpt><trkpt lat="44.1681791" lon="10.348059"><ele>512.0</ele><time>2026-05-03T07:56:20.28Z</time></trkpt><trkpt lat="44.1681315" lon="10.3479542"><ele>511.3333333333333</ele><time>2026-05-03T07:56:21.281Z</time></trkpt><trkpt lat="44.1680728" lon="10.3478821"><ele>510.66666666666663</ele><time>2026-05-03T07:56:22.276Z</time></trkpt><trkpt lat="44.1680052" lon="10.3478194"><ele>510.0</ele><time>2026-05-03T07:56:23.287Z</time></trkpt><trkpt lat="44.1679562" lon="10.3477383"><ele>509.33333333333337</ele><time>2026-05-03T07:56:24.277Z</time></trkpt><trkpt lat="44.1678759" lon="10.3477107"><ele>508.6666666666667</ele><time>2026-05-03T07:56:25.255Z</time></trkpt><trkpt lat="44.1677664" lon="10.3477403"><ele>508.0</ele><time>2026-05-03T07:56:26.264Z</time></trkpt><trkpt lat="44.1676504" lon="10.3477753"><ele>508.0</ele><time>2026-05-03T07:56:27.273Z</time></trkpt><trkpt lat="44.1675237" lon="10.3478049"><ele>508.0</ele><time>2026-05-03T07:56:28.278Z</time></trkpt><trkpt lat="44.1673806" lon="10.3478245"><ele>508.0</ele><time>2026-05-03T07:56:29.277Z</time></trkpt><trkpt lat="44.1672665" lon="10.3477955"><ele>508.0</ele><time>2026-05-03T07:56:30.291Z</time></trkpt><trkpt lat="44.1671948" lon="10.3477027"><ele>505.83333333333337</ele><time>2026-05-03T07:56:31.287Z</time></trkpt><trkpt lat="44.16713" lon="10.3476048"><ele>503.6666666666667</ele><time>2026-05-03T07:56:32.278Z</time></trkpt><trkpt lat="44.1670831" lon="10.3474825"><ele>501.5</ele><time>2026-05-03T07:56:33.283Z</time></trkpt><trkpt lat="44.1670525" lon="10.3473987"><ele>499.33333333333337</ele><time>2026-05-03T07:56:34.284Z</time></trkpt><trkpt lat="44.1670654" lon="10.3473077"><ele>497.1666666666667</ele><time>2026-05-03T07:56:35.283Z</time></trkpt><trkpt lat="44.1670761" lon="10.3472137"><ele>495.0</ele><time>2026-05-03T07:56:36.284Z</time></trkpt><trkpt lat="44.167101" lon="10.3470639"><ele>495.0</ele><time>2026-05-03T07:56:37.283Z</time></trkpt><trkpt lat="44.167136" lon="10.3468923"><ele>495.0</ele><time>2026-05-03T07:56:38.285Z</time></trkpt><trkpt lat="44.1671482" lon="10.3467523"><ele>495.0</ele><time>2026-05-03T07:56:39.274Z</time></trkpt><trkpt lat="44.167147" lon="10.3466528"><ele>495.0</ele><time>2026-05-03T07:56:40.28Z</time></trkpt><trkpt lat="44.1670184" lon="10.3466256"><ele>495.0</ele><time>2026-05-03T07:56:42.28Z</time></trkpt><trkpt lat="44.1669082" lon="10.3466511"><ele>495.0</ele><time>2026-05-03T07:56:43.273Z</time></trkpt><trkpt lat="44.1667915" lon="10.3466811"><ele>495.0</ele><time>2026-05-03T07:56:44.278Z</time></trkpt><trkpt lat="44.1666677" lon="10.3467173"><ele>495.0</ele><time>2026-05-03T07:56:45.277Z</time></trkpt><trkpt lat="44.1665231" lon="10.3467598"><ele>495.0</ele><time>2026-05-03T07:56:46.286Z</time></trkpt><trkpt lat="44.1663728" lon="10.3467765"><ele>492.66666666666663</ele><time>2026-05-03T07:56:47.277Z</time></trkpt><trkpt lat="44.1661914" lon="10.3468362"><ele>490.3333333333333</ele><time>2026-05-03T07:56:48.274Z</time></trkpt><trkpt lat="44.165986" lon="10.3468718"><ele>488.0</ele><time>2026-05-03T07:56:49.282Z</time></trkpt><trkpt lat="44.1657922" lon="10.3468131"><ele>484.3333333333333</ele><time>2026-05-03T07:56:50.283Z</time></trkpt><trkpt lat="44.1656321" lon="10.3466967"><ele>480.66666666666663</ele><time>2026-05-03T07:56:51.286Z</time></trkpt><trkpt lat="44.1654854" lon="10.346556"><ele>477.0</ele><time>2026-05-03T07:56:52.282Z</time></trkpt><trkpt lat="44.1653559" lon="10.3464108"><ele>479.66666666666663</ele><time>2026-05-03T07:56:53.278Z</time></trkpt><trkpt lat="44.1652402" lon="10.3462712"><ele>482.3333333333333</ele><time>2026-05-03T07:56:54.287Z</time></trkpt><trkpt lat="44.1651329" lon="10.3461335"><ele>485.0</ele><time>2026-05-03T07:56:55.274Z</time></trkpt><trkpt lat="44.1650325" lon="10.3459759"><ele>485.0</ele><time>2026-05-03T07:56:56.283Z</time></trkpt><trkpt lat="44.1649632" lon="10.3458341"><ele>485.0</ele><time>2026-05-03T07:56:57.272Z</time></trkpt><trkpt lat="44.16491" lon="10.3456714"><ele>485.0</ele><time>2026-05-03T07:56:58.274Z</time></trkpt><trkpt lat="44.164948" lon="10.345503"><ele>485.0</ele><time>2026-05-03T07:57:00.279Z</time></trkpt><trkpt lat="44.1650306" lon="10.3453393"><ele>484.3333333333333</ele><time>2026-05-03T07:57:01.282Z</time></trkpt><trkpt lat="44.1650988" lon="10.3451869"><ele>483.66666666666663</ele><time>2026-05-03T07:57:02.274Z</time></trkpt><trkpt lat="44.1652038" lon="10.3450139"><ele>483.0</ele><time>2026-05-03T07:57:03.277Z</time></trkpt><trkpt lat="44.165298" lon="10.3447379"><ele>482.0</ele><time>2026-05-03T07:57:04.277Z</time></trkpt><trkpt lat="44.1653651" lon="10.3445248"><ele>481.0</ele><time>2026-05-03T07:57:05.28Z</time></trkpt><trkpt lat="44.1653299" lon="10.3443238"><ele>480.0</ele><time>2026-05-03T07:57:06.294Z</time></trkpt><trkpt lat="44.1652343" lon="10.3442001"><ele>479.0</ele><time>2026-05-03T07:57:07.286Z</time></trkpt><trkpt lat="44.1651092" lon="10.3440803"><ele>479.0</ele><time>2026-05-03T07:57:08.288Z</time></trkpt><trkpt lat="44.1649993" lon="10.3439492"><ele>479.0</ele><time>2026-05-03T07:57:09.284Z</time></trkpt><trkpt lat="44.164857" lon="10.3438682"><ele>479.0</ele><time>2026-05-03T07:57:10.284Z</time></trkpt><trkpt lat="44.1647487" lon="10.3438048"><ele>479.0</ele><time>2026-05-03T07:57:11.304Z</time></trkpt><trkpt lat="44.1646356" lon="10.3437354"><ele>477.2</ele><time>2026-05-03T07:57:12.289Z</time></trkpt><trkpt lat="44.1645271" lon="10.3436419"><ele>475.4</ele><time>2026-05-03T07:57:13.275Z</time></trkpt><trkpt lat="44.1644425" lon="10.3435409"><ele>473.6</ele><time>2026-05-03T07:57:14.276Z</time></trkpt><trkpt lat="44.1643683" lon="10.3434497"><ele>471.8</ele><time>2026-05-03T07:57:15.285Z</time></trkpt><trkpt lat="44.1642978" lon="10.3433597"><ele>470.0</ele><time>2026-05-03T07:57:16.283Z</time></trkpt><trkpt lat="44.164291" lon="10.3432295"><ele>470.0</ele><time>2026-05-03T07:57:17.282Z</time></trkpt><trkpt lat="44.164334" lon="10.3430614"><ele>470.0</ele><time>2026-05-03T07:57:18.271Z</time></trkpt><trkpt lat="44.1643848" lon="10.3428947"><ele>470.0</ele><time>2026-05-03T07:57:19.251Z</time></trkpt><trkpt lat="44.1644493" lon="10.3427148"><ele>470.0</ele><time>2026-05-03T07:57:20.263Z</time></trkpt><trkpt lat="44.1645682" lon="10.342572"><ele>467.5</ele><time>2026-05-03T07:57:21.286Z</time></trkpt><trkpt lat="44.1647351" lon="10.3424958"><ele>465.0</ele><time>2026-05-03T07:57:22.27Z</time></trkpt><trkpt lat="44.1650288" lon="10.3424354"><ele>465.0</ele><time>2026-05-03T07:57:23.289Z</time></trkpt><trkpt lat="44.1652164" lon="10.3423855"><ele>465.0</ele><time>2026-05-03T07:57:24.274Z</time></trkpt><trkpt lat="44.1655369" lon="10.3422244"><ele>457.5</ele><time>2026-05-03T07:57:25.28Z</time></trkpt><trkpt lat="44.1657672" lon="10.3420662"><ele>450.0</ele><time>2026-05-03T07:57:26.292Z</time></trkpt><trkpt lat="44.1659858" lon="10.3419445"><ele>450.0</ele><time>2026-05-03T07:57:27.283Z</time></trkpt><trkpt lat="44.1661354" lon="10.3417555"><ele>450.0</ele><time>2026-05-03T07:57:28.28Z</time></trkpt><trkpt lat="44.1662412" lon="10.3415945"><ele>450.0</ele><time>2026-05-03T07:57:29.285Z</time></trkpt><trkpt lat="44.1663506" lon="10.3414381"><ele>449.75</ele><time>2026-05-03T07:57:30.283Z</time></trkpt><trkpt lat="44.1664904" lon="10.3413338"><ele>449.5</ele><time>2026-05-03T07:57:31.298Z</time></trkpt><trkpt lat="44.1665663" lon="10.3411882"><ele>449.25</ele><time>2026-05-03T07:57:32.289Z</time></trkpt><trkpt lat="44.166636" lon="10.3410427"><ele>449.0</ele><time>2026-05-03T07:57:33.288Z</time></trkpt><trkpt lat="44.1666727" lon="10.3408836"><ele>449.0</ele><time>2026-05-03T07:57:34.282Z</time></trkpt><trkpt lat="44.1666491" lon="10.340671"><ele>449.0</ele><time>2026-05-03T07:57:35.287Z</time></trkpt><trkpt lat="44.1665793" lon="10.3404526"><ele>449.0</ele><time>2026-05-03T07:57:36.292Z</time></trkpt><trkpt lat="44.16656" lon="10.3402703"><ele>443.0</ele><time>2026-05-03T07:57:37.28Z</time></trkpt><trkpt lat="44.1664251" lon="10.3399841"><ele>437.0</ele><time>2026-05-03T07:57:39.287Z</time></trkpt><trkpt lat="44.1663103" lon="10.3398552"><ele>431.0</ele><time>2026-05-03T07:57:40.289Z</time></trkpt><trkpt lat="44.1661804" lon="10.3397774"><ele>429.25</ele><time>2026-05-03T07:57:41.302Z</time></trkpt><trkpt lat="44.1660603" lon="10.339688"><ele>427.5</ele><time>2026-05-03T07:57:42.29Z</time></trkpt><trkpt lat="44.1659299" lon="10.3395563"><ele>425.75</ele><time>2026-05-03T07:57:43.286Z</time></trkpt><trkpt lat="44.1658539" lon="10.3394173"><ele>424.0</ele><time>2026-05-03T07:57:44.285Z</time></trkpt><trkpt lat="44.1658516" lon="10.339266"><ele>424.0</ele><time>2026-05-03T07:57:45.28Z</time></trkpt><trkpt lat="44.165891" lon="10.3391014"><ele>424.0</ele><time>2026-05-03T07:57:46.293Z</time></trkpt><trkpt lat="44.1659025" lon="10.3389541"><ele>424.0</ele><time>2026-05-03T07:57:47.284Z</time></trkpt><trkpt lat="44.165966" lon="10.3388711"><ele>424.0</ele><time>2026-05-03T07:57:48.275Z</time></trkpt><trkpt lat="44.1660488" lon="10.3388298"><ele>424.0</ele><time>2026-05-03T07:57:49.275Z</time></trkpt><trkpt lat="44.1663254" lon="10.3390483"><ele>424.0</ele><time>2026-05-03T07:57:52.285Z</time></trkpt><trkpt lat="44.1664025" lon="10.3391918"><ele>424.0</ele><time>2026-05-03T07:57:53.286Z</time></trkpt><trkpt lat="44.1664726" lon="10.339313"><ele>424.0</ele><time>2026-05-03T07:57:54.281Z</time></trkpt><trkpt lat="44.1665304" lon="10.3394033"><ele>424.0</ele><time>2026-05-03T07:57:55.279Z</time></trkpt><trkpt lat="44.1665833" lon="10.3394847"><ele>424.0</ele><time>2026-05-03T07:57:56.287Z</time></trkpt><trkpt lat="44.1666344" lon="10.3395618"><ele>424.33333333333337</ele><time>2026-05-03T07:57:57.281Z</time></trkpt><trkpt lat="44.166706" lon="10.3395969"><ele>424.6666666666667</ele><time>2026-05-03T07:57:58.276Z</time></trkpt><trkpt lat="44.1667836" lon="10.3395994"><ele>425.0</ele><time>2026-05-03T07:57:59.282Z</time></trkpt><trkpt lat="44.1668656" lon="10.339563"><ele>425.33333333333337</ele><time>2026-05-03T07:58:00.277Z</time></trkpt><trkpt lat="44.1669431" lon="10.3395144"><ele>425.6666666666667</ele><time>2026-05-03T07:58:01.298Z</time></trkpt><trkpt lat="44.1669213" lon="10.3394095"><ele>426.0</ele><time>2026-05-03T07:58:02.293Z</time></trkpt><trkpt lat="44.166865" lon="10.3392778"><ele>426.0</ele><time>2026-05-03T07:58:03.285Z</time></trkpt><trkpt lat="44.1667958" lon="10.3391391"><ele>426.0</ele><time>2026-05-03T07:58:04.283Z</time></trkpt><trkpt lat="44.1666953" lon="10.3389703"><ele>426.0</ele><time>2026-05-03T07:58:05.282Z</time></trkpt><trkpt lat="44.1665872" lon="10.3387933"><ele>426.0</ele><time>2026-05-03T07:58:06.288Z</time></trkpt><trkpt lat="44.1664334" lon="10.3385459"><ele>422.66666666666663</ele><time>2026-05-03T07:58:07.28Z</time></trkpt><trkpt lat="44.1663453" lon="10.3383973"><ele>419.3333333333333</ele><time>2026-05-03T07:58:08.283Z</time></trkpt><trkpt lat="44.1662201" lon="10.338193"><ele>416.0</ele><time>2026-05-03T07:58:09.282Z</time></trkpt><trkpt lat="44.1661053" lon="10.3380259"><ele>416.0</ele><time>2026-05-03T07:58:10.28Z</time></trkpt><trkpt lat="44.1659935" lon="10.3379098"><ele>416.0</ele><time>2026-05-03T07:58:11.294Z</time></trkpt><trkpt lat="44.1658724" lon="10.3378696"><ele>416.0</ele><time>2026-05-03T07:58:13.277Z</time></trkpt><trkpt lat="44.1658051" lon="10.3379303"><ele>416.0</ele><time>2026-05-03T07:58:14.277Z</time></trkpt><trkpt lat="44.1657501" lon="10.3380099"><ele>416.0</ele><time>2026-05-03T07:58:15.275Z</time></trkpt><trkpt lat="44.1657001" lon="10.3381291"><ele>412.0</ele><time>2026-05-03T07:58:16.278Z</time></trkpt><trkpt lat="44.1656547" lon="10.3383097"><ele>408.0</ele><time>2026-05-03T07:58:17.298Z</time></trkpt><trkpt lat="44.1655712" lon="10.3384649"><ele>404.0</ele><time>2026-05-03T07:58:18.283Z</time></trkpt><trkpt lat="44.1655104" lon="10.3386033"><ele>400.0</ele><time>2026-05-03T07:58:19.283Z</time></trkpt><trkpt lat="44.1654409" lon="10.3387335"><ele>400.0</ele><time>2026-05-03T07:58:20.278Z</time></trkpt><trkpt lat="44.1654067" lon="10.3389196"><ele>400.0</ele><time>2026-05-03T07:58:21.281Z</time></trkpt><trkpt lat="44.1651995" lon="10.3388776"><ele>400.0</ele><time>2026-05-03T07:58:22.289Z</time></trkpt><trkpt lat="44.1650216" lon="10.3387358"><ele>394.0</ele><time>2026-05-03T07:58:23.284Z</time></trkpt><trkpt lat="44.1646782" lon="10.3385891"><ele>388.0</ele><time>2026-05-03T07:58:25.288Z</time></trkpt><trkpt lat="44.1645149" lon="10.3385703"><ele>388.0</ele><time>2026-05-03T07:58:26.288Z</time></trkpt><trkpt lat="44.1643081" lon="10.3385656"><ele>388.0</ele><time>2026-05-03T07:58:27.298Z</time></trkpt><trkpt lat="44.1641873" lon="10.3385804"><ele>388.0</ele><time>2026-05-03T07:58:28.283Z</time></trkpt><trkpt lat="44.1640476" lon="10.3386467"><ele>386.0</ele><time>2026-05-03T07:58:29.289Z</time></trkpt><trkpt lat="44.1638957" lon="10.3387362"><ele>384.0</ele><time>2026-05-03T07:58:30.281Z</time></trkpt><trkpt lat="44.1637411" lon="10.3388197"><ele>382.0</ele><time>2026-05-03T07:58:31.282Z</time></trkpt><trkpt lat="44.1635813" lon="10.3388205"><ele>382.0</ele><time>2026-05-03T07:58:32.303Z</time></trkpt><trkpt lat="44.1634444" lon="10.3388244"><ele>382.0</ele><time>2026-05-03T07:58:33.289Z</time></trkpt><trkpt lat="44.1631913" lon="10.3387608"><ele>382.0</ele><time>2026-05-03T07:58:35.288Z</time></trkpt><trkpt lat="44.163078" lon="10.3385969"><ele>385.5</ele><time>2026-05-03T07:58:36.28Z</time></trkpt><trkpt lat="44.1629432" lon="10.3384764"><ele>389.0</ele><time>2026-05-03T07:58:37.288Z</time></trkpt><trkpt lat="44.1627997" lon="10.3383535"><ele>392.5</ele><time>2026-05-03T07:58:38.274Z</time></trkpt><trkpt lat="44.1627788" lon="10.3381949"><ele>396.0</ele><time>2026-05-03T07:58:39.28Z</time></trkpt><trkpt lat="44.1627684" lon="10.3380443"><ele>397.8</ele><time>2026-05-03T07:58:40.278Z</time></trkpt><trkpt lat="44.1627847" lon="10.3379126"><ele>399.6</ele><time>2026-05-03T07:58:41.283Z</time></trkpt><trkpt lat="44.1628198" lon="10.3378011"><ele>401.4</ele><time>2026-05-03T07:58:42.295Z</time></trkpt><trkpt lat="44.1628673" lon="10.3376746"><ele>403.2</ele><time>2026-05-03T07:58:43.276Z</time></trkpt><trkpt lat="44.1629261" lon="10.3375349"><ele>405.0</ele><time>2026-05-03T07:58:44.277Z</time></trkpt><trkpt lat="44.162989" lon="10.337377"><ele>406.25</ele><time>2026-05-03T07:58:45.277Z</time></trkpt><trkpt lat="44.1630559" lon="10.3372119"><ele>407.5</ele><time>2026-05-03T07:58:46.286Z</time></trkpt><trkpt lat="44.1631135" lon="10.3370605"><ele>408.75</ele><time>2026-05-03T07:58:47.299Z</time></trkpt><trkpt lat="44.1631563" lon="10.3369156"><ele>410.0</ele><time>2026-05-03T07:58:48.274Z</time></trkpt><trkpt lat="44.1632037" lon="10.3367651"><ele>409.6</ele><time>2026-05-03T07:58:49.277Z</time></trkpt><trkpt lat="44.1632455" lon="10.3366065"><ele>409.2</ele><time>2026-05-03T07:58:50.275Z</time></trkpt><trkpt lat="44.1632699" lon="10.33646"><ele>408.79999999999995</ele><time>2026-05-03T07:58:51.268Z</time></trkpt><trkpt lat="44.1632723" lon="10.3363417"><ele>408.4</ele><time>2026-05-03T07:58:52.265Z</time></trkpt><trkpt lat="44.1632107" lon="10.3361792"><ele>408.0</ele><time>2026-05-03T07:58:54.278Z</time></trkpt><trkpt lat="44.1630419" lon="10.3362044"><ele>408.66666666666663</ele><time>2026-05-03T07:58:56.28Z</time></trkpt><trkpt lat="44.1629234" lon="10.3363277"><ele>409.3333333333333</ele><time>2026-05-03T07:58:57.281Z</time></trkpt><trkpt lat="44.1628112" lon="10.3364575"><ele>410.0</ele><time>2026-05-03T07:58:58.289Z</time></trkpt><trkpt lat="44.1626299" lon="10.3366718"><ele>410.0</ele><time>2026-05-03T07:58:59.279Z</time></trkpt><trkpt lat="44.1625315" lon="10.3368242"><ele>410.0</ele><time>2026-05-03T07:59:00.273Z</time></trkpt><trkpt lat="44.1623894" lon="10.3371319"><ele>410.0</ele><time>2026-05-03T07:59:01.285Z</time></trkpt><trkpt lat="44.1622386" lon="10.3374006"><ele>412.3333333333333</ele><time>2026-05-03T07:59:02.284Z</time></trkpt><trkpt lat="44.1620704" lon="10.3376216"><ele>414.66666666666663</ele><time>2026-05-03T07:59:03.294Z</time></trkpt><trkpt lat="44.1619198" lon="10.3377646"><ele>417.0</ele><time>2026-05-03T07:59:04.285Z</time></trkpt><trkpt lat="44.1617621" lon="10.3377862"><ele>417.0</ele><time>2026-05-03T07:59:05.288Z</time></trkpt><trkpt lat="44.1616335" lon="10.3377872"><ele>417.0</ele><time>2026-05-03T07:59:06.277Z</time></trkpt><trkpt lat="44.161468" lon="10.3377291"><ele>417.0</ele><time>2026-05-03T07:59:07.28Z</time></trkpt><trkpt lat="44.1613334" lon="10.3376944"><ele>417.0</ele><time>2026-05-03T07:59:08.288Z</time></trkpt><trkpt lat="44.1611969" lon="10.3376324"><ele>417.66666666666663</ele><time>2026-05-03T07:59:09.274Z</time></trkpt><trkpt lat="44.1610539" lon="10.3375278"><ele>418.3333333333333</ele><time>2026-05-03T07:59:10.28Z</time></trkpt><trkpt lat="44.1608928" lon="10.3374023"><ele>419.0</ele><time>2026-05-03T07:59:11.281Z</time></trkpt><trkpt lat="44.1607472" lon="10.3372863"><ele>425.25</ele><time>2026-05-03T07:59:12.285Z</time></trkpt><trkpt lat="44.1605906" lon="10.3371697"><ele>431.5</ele><time>2026-05-03T07:59:13.297Z</time></trkpt><trkpt lat="44.1604605" lon="10.3370844"><ele>437.75</ele><time>2026-05-03T07:59:14.275Z</time></trkpt><trkpt lat="44.1603444" lon="10.3370653"><ele>444.0</ele><time>2026-05-03T07:59:15.274Z</time></trkpt><trkpt lat="44.1602217" lon="10.3370839"><ele>444.0</ele><time>2026-05-03T07:59:16.277Z</time></trkpt><trkpt lat="44.1600969" lon="10.3371477"><ele>444.0</ele><time>2026-05-03T07:59:17.278Z</time></trkpt><trkpt lat="44.1599601" lon="10.3372419"><ele>444.0</ele><time>2026-05-03T07:59:18.288Z</time></trkpt><trkpt lat="44.1598141" lon="10.3373439"><ele>444.0</ele><time>2026-05-03T07:59:19.275Z</time></trkpt><trkpt lat="44.159671" lon="10.337463"><ele>444.0</ele><time>2026-05-03T07:59:20.283Z</time></trkpt><trkpt lat="44.1595479" lon="10.3375603"><ele>444.0</ele><time>2026-05-03T07:59:21.285Z</time></trkpt><trkpt lat="44.1594553" lon="10.3376604"><ele>444.0</ele><time>2026-05-03T07:59:22.287Z</time></trkpt><trkpt lat="44.1593638" lon="10.337718"><ele>444.0</ele><time>2026-05-03T07:59:23.297Z</time></trkpt><trkpt lat="44.1593078" lon="10.3376437"><ele>444.0</ele><time>2026-05-03T07:59:24.284Z</time></trkpt><trkpt lat="44.159283" lon="10.3375282"><ele>444.0</ele><time>2026-05-03T07:59:26.28Z</time></trkpt><trkpt lat="44.1593143" lon="10.3374479"><ele>444.0</ele><time>2026-05-03T07:59:27.275Z</time></trkpt><trkpt lat="44.1594543" lon="10.3372396"><ele>444.0</ele><time>2026-05-03T07:59:29.274Z</time></trkpt><trkpt lat="44.1595543" lon="10.3371336"><ele>444.0</ele><time>2026-05-03T07:59:30.273Z</time></trkpt><trkpt lat="44.1596511" lon="10.3369957"><ele>444.0</ele><time>2026-05-03T07:59:31.278Z</time></trkpt><trkpt lat="44.1597633" lon="10.3368679"><ele>444.0</ele><time>2026-05-03T07:59:32.283Z</time></trkpt><trkpt lat="44.159872" lon="10.3367613"><ele>444.0</ele><time>2026-05-03T07:59:33.295Z</time></trkpt><trkpt lat="44.1599601" lon="10.3366443"><ele>444.0</ele><time>2026-05-03T07:59:34.283Z</time></trkpt><trkpt lat="44.1600322" lon="10.3364899"><ele>446.5</ele><time>2026-05-03T07:59:35.278Z</time></trkpt><trkpt lat="44.1600787" lon="10.3363283"><ele>449.0</ele><time>2026-05-03T07:59:36.281Z</time></trkpt><trkpt lat="44.1601134" lon="10.3361635"><ele>451.5</ele><time>2026-05-03T07:59:37.279Z</time></trkpt><trkpt lat="44.1601186" lon="10.3360013"><ele>454.0</ele><time>2026-05-03T07:59:38.284Z</time></trkpt><trkpt lat="44.1601026" lon="10.3358369"><ele>454.00000000000006</ele><time>2026-05-03T07:59:39.278Z</time></trkpt><trkpt lat="44.1600916" lon="10.3356961"><ele>454.0</ele><time>2026-05-03T07:59:40.284Z</time></trkpt><trkpt lat="44.1600903" lon="10.3355575"><ele>454.0</ele><time>2026-05-03T07:59:41.285Z</time></trkpt><trkpt lat="44.1600901" lon="10.3354403"><ele>454.0</ele><time>2026-05-03T07:59:42.272Z</time></trkpt><trkpt lat="44.1600846" lon="10.3353523"><ele>454.00000000000006</ele><time>2026-05-03T07:59:43.293Z</time></trkpt><trkpt lat="44.1601371" lon="10.3354583"><ele>454.0</ele><time>2026-05-03T07:59:48.282Z</time></trkpt><trkpt lat="44.1601577" lon="10.3355883"><ele>454.0</ele><time>2026-05-03T07:59:49.271Z</time></trkpt><trkpt lat="44.1601454" lon="10.3357138"><ele>454.0</ele><time>2026-05-03T07:59:50.277Z</time></trkpt><trkpt lat="44.1601162" lon="10.3358447"><ele>454.0</ele><time>2026-05-03T07:59:51.282Z</time></trkpt><trkpt lat="44.1600489" lon="10.3359797"><ele>454.0</ele><time>2026-05-03T07:59:52.282Z</time></trkpt><trkpt lat="44.1599906" lon="10.3360878"><ele>454.0</ele><time>2026-05-03T07:59:53.295Z</time></trkpt><trkpt lat="44.1599298" lon="10.3361459"><ele>456.8571428571429</ele><time>2026-05-03T07:59:54.279Z</time></trkpt><trkpt lat="44.1598641" lon="10.3361612"><ele>459.7142857142858</ele><time>2026-05-03T07:59:55.279Z</time></trkpt><trkpt lat="44.1597969" lon="10.3361516"><ele>462.57142857142856</ele><time>2026-05-03T07:59:56.275Z</time></trkpt><trkpt lat="44.1597206" lon="10.3361291"><ele>465.42857142857144</ele><time>2026-05-03T07:59:57.265Z</time></trkpt><trkpt lat="44.1596497" lon="10.336106"><ele>468.2857142857143</ele><time>2026-05-03T07:59:58.28Z</time></trkpt><trkpt lat="44.1596644" lon="10.336018"><ele>471.1428571428571</ele><time>2026-05-03T07:59:59.283Z</time></trkpt><trkpt lat="44.1596798" lon="10.3359162"><ele>473.99999999999994</ele><time>2026-05-03T08:00:00.268Z</time></trkpt><trkpt lat="44.1597053" lon="10.3357861"><ele>474.0</ele><time>2026-05-03T08:00:01.275Z</time></trkpt><trkpt lat="44.1597211" lon="10.3356375"><ele>474.0</ele><time>2026-05-03T08:00:02.266Z</time></trkpt><trkpt lat="44.159734" lon="10.3354096"><ele>474.0</ele><time>2026-05-03T08:00:03.278Z</time></trkpt><trkpt lat="44.1597247" lon="10.3352316"><ele>474.0</ele><time>2026-05-03T08:00:04.245Z</time></trkpt><trkpt lat="44.1596647" lon="10.3350475"><ele>474.66666666666663</ele><time>2026-05-03T08:00:05.256Z</time></trkpt><trkpt lat="44.1596101" lon="10.3348354"><ele>475.3333333333333</ele><time>2026-05-03T08:00:06.266Z</time></trkpt><trkpt lat="44.159526" lon="10.3346028"><ele>476.0</ele><time>2026-05-03T08:00:07.249Z</time></trkpt><trkpt lat="44.159456" lon="10.3344152"><ele>476.25</ele><time>2026-05-03T08:00:08.232Z</time></trkpt><trkpt lat="44.1594494" lon="10.3342184"><ele>476.5</ele><time>2026-05-03T08:00:09.232Z</time></trkpt><trkpt lat="44.1594411" lon="10.3340328"><ele>476.75</ele><time>2026-05-03T08:00:10.248Z</time></trkpt><trkpt lat="44.1594335" lon="10.3338328"><ele>477.0</ele><time>2026-05-03T08:00:11.266Z</time></trkpt><trkpt lat="44.1594588" lon="10.3336349"><ele>477.75</ele><time>2026-05-03T08:00:12.256Z</time></trkpt><trkpt lat="44.1595281" lon="10.3334245"><ele>478.5</ele><time>2026-05-03T08:00:13.282Z</time></trkpt><trkpt lat="44.1595586" lon="10.3332722"><ele>479.25</ele><time>2026-05-03T08:00:14.268Z</time></trkpt><trkpt lat="44.1594935" lon="10.3332181"><ele>480.0</ele><time>2026-05-03T08:00:15.269Z</time></trkpt><trkpt lat="44.1594198" lon="10.3331161"><ele>480.8</ele><time>2026-05-03T08:00:17.269Z</time></trkpt><trkpt lat="44.1594251" lon="10.3330038"><ele>481.6</ele><time>2026-05-03T08:00:18.28Z</time></trkpt><trkpt lat="44.1594605" lon="10.332879"><ele>482.4</ele><time>2026-05-03T08:00:19.265Z</time></trkpt><trkpt lat="44.1595185" lon="10.3327607"><ele>483.2</ele><time>2026-05-03T08:00:20.264Z</time></trkpt><trkpt lat="44.1595922" lon="10.3326863"><ele>484.0</ele><time>2026-05-03T08:00:21.266Z</time></trkpt><trkpt lat="44.1596853" lon="10.3326443"><ele>484.0</ele><time>2026-05-03T08:00:22.264Z</time></trkpt><trkpt lat="44.1598016" lon="10.3326319"><ele>484.0</ele><time>2026-05-03T08:00:23.273Z</time></trkpt><trkpt lat="44.15996" lon="10.3326867"><ele>484.0</ele><time>2026-05-03T08:00:24.286Z</time></trkpt><trkpt lat="44.1601457" lon="10.3326895"><ele>482.6666666666667</ele><time>2026-05-03T08:00:25.267Z</time></trkpt><trkpt lat="44.1603187" lon="10.3326737"><ele>481.33333333333337</ele><time>2026-05-03T08:00:26.267Z</time></trkpt><trkpt lat="44.1604879" lon="10.3326585"><ele>480.0</ele><time>2026-05-03T08:00:27.267Z</time></trkpt><trkpt lat="44.1606237" lon="10.3326709"><ele>479.5</ele><time>2026-05-03T08:00:28.266Z</time></trkpt><trkpt lat="44.1607679" lon="10.3326175"><ele>479.0</ele><time>2026-05-03T08:00:29.278Z</time></trkpt><trkpt lat="44.1608988" lon="10.3325481"><ele>478.5</ele><time>2026-05-03T08:00:30.265Z</time></trkpt><trkpt lat="44.1610043" lon="10.3324668"><ele>478.0</ele><time>2026-05-03T08:00:31.269Z</time></trkpt><trkpt lat="44.1610978" lon="10.3323614"><ele>478.0</ele><time>2026-05-03T08:00:32.27Z</time></trkpt><trkpt lat="44.1611923" lon="10.3322261"><ele>478.0</ele><time>2026-05-03T08:00:33.269Z</time></trkpt><trkpt lat="44.1612982" lon="10.3320273"><ele>478.0</ele><time>2026-05-03T08:00:34.282Z</time></trkpt><trkpt lat="44.1613968" lon="10.3318276"><ele>477.6666666666667</ele><time>2026-05-03T08:00:35.27Z</time></trkpt><trkpt lat="44.1615268" lon="10.331636"><ele>477.33333333333337</ele><time>2026-05-03T08:00:36.269Z</time></trkpt><trkpt lat="44.161661" lon="10.3314641"><ele>477.0</ele><time>2026-05-03T08:00:37.27Z</time></trkpt><trkpt lat="44.1618315" lon="10.3312898"><ele>479.66666666666663</ele><time>2026-05-03T08:00:38.271Z</time></trkpt><trkpt lat="44.162002" lon="10.331102"><ele>482.3333333333333</ele><time>2026-05-03T08:00:39.281Z</time></trkpt><trkpt lat="44.1621049" lon="10.330903"><ele>485.0</ele><time>2026-05-03T08:00:40.276Z</time></trkpt><trkpt lat="44.1621763" lon="10.3306898"><ele>484.0</ele><time>2026-05-03T08:00:41.271Z</time></trkpt><trkpt lat="44.1622799" lon="10.3304532"><ele>483.0</ele><time>2026-05-03T08:00:42.274Z</time></trkpt><trkpt lat="44.1623812" lon="10.3302077"><ele>482.0</ele><time>2026-05-03T08:00:43.272Z</time></trkpt><trkpt lat="44.1624828" lon="10.3299856"><ele>482.0</ele><time>2026-05-03T08:00:44.269Z</time></trkpt><trkpt lat="44.1625871" lon="10.3298028"><ele>482.0</ele><time>2026-05-03T08:00:45.266Z</time></trkpt><trkpt lat="44.1626952" lon="10.3296433"><ele>482.0</ele><time>2026-05-03T08:00:46.263Z</time></trkpt><trkpt lat="44.1628119" lon="10.3295836"><ele>482.0</ele><time>2026-05-03T08:00:47.266Z</time></trkpt><trkpt lat="44.1629673" lon="10.3295356"><ele>483.0</ele><time>2026-05-03T08:00:48.267Z</time></trkpt><trkpt lat="44.1630922" lon="10.3294753"><ele>484.0</ele><time>2026-05-03T08:00:49.266Z</time></trkpt><trkpt lat="44.1632011" lon="10.3293294"><ele>485.0</ele><time>2026-05-03T08:00:50.268Z</time></trkpt><trkpt lat="44.1632911" lon="10.3291384"><ele>486.0</ele><time>2026-05-03T08:00:51.269Z</time></trkpt><trkpt lat="44.1633756" lon="10.3289217"><ele>489.33333333333337</ele><time>2026-05-03T08:00:52.264Z</time></trkpt><trkpt lat="44.1634655" lon="10.3287284"><ele>492.6666666666667</ele><time>2026-05-03T08:00:53.265Z</time></trkpt><trkpt lat="44.1635503" lon="10.3285438"><ele>496.0</ele><time>2026-05-03T08:00:54.266Z</time></trkpt><trkpt lat="44.1636616" lon="10.3283741"><ele>496.0</ele><time>2026-05-03T08:00:55.264Z</time></trkpt><trkpt lat="44.1637417" lon="10.3282026"><ele>496.0</ele><time>2026-05-03T08:00:56.258Z</time></trkpt><trkpt lat="44.1638558" lon="10.3280214"><ele>496.0</ele><time>2026-05-03T08:00:57.239Z</time></trkpt><trkpt lat="44.1640197" lon="10.3278947"><ele>497.6666666666667</ele><time>2026-05-03T08:00:58.25Z</time></trkpt><trkpt lat="44.1642323" lon="10.3278283"><ele>499.33333333333337</ele><time>2026-05-03T08:00:59.259Z</time></trkpt><trkpt lat="44.1644245" lon="10.3277422"><ele>501.0</ele><time>2026-05-03T08:01:00.262Z</time></trkpt><trkpt lat="44.1646175" lon="10.3276238"><ele>501.0</ele><time>2026-05-03T08:01:01.261Z</time></trkpt><trkpt lat="44.1648026" lon="10.3275083"><ele>501.0</ele><time>2026-05-03T08:01:02.261Z</time></trkpt><trkpt lat="44.1649706" lon="10.3273879"><ele>501.0</ele><time>2026-05-03T08:01:03.264Z</time></trkpt><trkpt lat="44.1651328" lon="10.3272764"><ele>502.66666666666663</ele><time>2026-05-03T08:01:04.263Z</time></trkpt><trkpt lat="44.1652991" lon="10.3271837"><ele>504.3333333333333</ele><time>2026-05-03T08:01:05.262Z</time></trkpt><trkpt lat="44.1654716" lon="10.3270969"><ele>506.0</ele><time>2026-05-03T08:01:06.264Z</time></trkpt><trkpt lat="44.1656424" lon="10.3270386"><ele>507.3333333333333</ele><time>2026-05-03T08:01:07.264Z</time></trkpt><trkpt lat="44.1658212" lon="10.3270292"><ele>508.66666666666663</ele><time>2026-05-03T08:01:08.262Z</time></trkpt><trkpt lat="44.1659921" lon="10.3270333"><ele>510.0</ele><time>2026-05-03T08:01:09.262Z</time></trkpt><trkpt lat="44.1661379" lon="10.3270871"><ele>510.0</ele><time>2026-05-03T08:01:10.262Z</time></trkpt><trkpt lat="44.1662547" lon="10.3271504"><ele>510.0</ele><time>2026-05-03T08:01:11.262Z</time></trkpt><trkpt lat="44.1663174" lon="10.3273296"><ele>510.0</ele><time>2026-05-03T08:01:12.261Z</time></trkpt><trkpt lat="44.1663907" lon="10.3275962"><ele>502.0</ele><time>2026-05-03T08:01:13.266Z</time></trkpt><trkpt lat="44.1665145" lon="10.3278564"><ele>494.0</ele><time>2026-05-03T08:01:14.264Z</time></trkpt><trkpt lat="44.1666115" lon="10.3281432"><ele>494.0</ele><time>2026-05-03T08:01:15.267Z</time></trkpt><trkpt lat="44.1666906" lon="10.3283945"><ele>494.0</ele><time>2026-05-03T08:01:16.262Z</time></trkpt><trkpt lat="44.1667872" lon="10.3286462"><ele>494.0</ele><time>2026-05-03T08:01:17.265Z</time></trkpt><trkpt lat="44.1669119" lon="10.3288847"><ele>494.66666666666663</ele><time>2026-05-03T08:01:18.263Z</time></trkpt><trkpt lat="44.1670951" lon="10.3290713"><ele>495.33333333333337</ele><time>2026-05-03T08:01:19.267Z</time></trkpt><trkpt lat="44.1672581" lon="10.3292466"><ele>496.0</ele><time>2026-05-03T08:01:20.262Z</time></trkpt><trkpt lat="44.1674048" lon="10.32936"><ele>496.0</ele><time>2026-05-03T08:01:21.265Z</time></trkpt><trkpt lat="44.1675339" lon="10.3294488"><ele>496.0</ele><time>2026-05-03T08:01:22.264Z</time></trkpt><trkpt lat="44.1676628" lon="10.3295127"><ele>496.0</ele><time>2026-05-03T08:01:23.271Z</time></trkpt><trkpt lat="44.1678685" lon="10.3295624"><ele>496.0</ele><time>2026-05-03T08:01:24.273Z</time></trkpt><trkpt lat="44.1680251" lon="10.3295533"><ele>496.0</ele><time>2026-05-03T08:01:25.27Z</time></trkpt><trkpt lat="44.1681346" lon="10.3295236"><ele>496.0</ele><time>2026-05-03T08:01:26.269Z</time></trkpt><trkpt lat="44.1682698" lon="10.3294011"><ele>496.0</ele><time>2026-05-03T08:01:27.269Z</time></trkpt><trkpt lat="44.1683812" lon="10.3293088"><ele>492.33333333333337</ele><time>2026-05-03T08:01:28.259Z</time></trkpt><trkpt lat="44.1685125" lon="10.3291462"><ele>488.66666666666663</ele><time>2026-05-03T08:01:29.26Z</time></trkpt><trkpt lat="44.1686184" lon="10.3289983"><ele>485.0</ele><time>2026-05-03T08:01:30.259Z</time></trkpt><trkpt lat="44.168713" lon="10.3288446"><ele>485.0</ele><time>2026-05-03T08:01:31.263Z</time></trkpt><trkpt lat="44.1687883" lon="10.3287658"><ele>485.0</ele><time>2026-05-03T08:01:32.262Z</time></trkpt><trkpt lat="44.1688034" lon="10.3286543"><ele>485.0</ele><time>2026-05-03T08:01:33.262Z</time></trkpt><trkpt lat="44.1687501" lon="10.328436"><ele>485.0</ele><time>2026-05-03T08:01:34.264Z</time></trkpt><trkpt lat="44.1686834" lon="10.3281946"><ele>483.0</ele><time>2026-05-03T08:01:35.264Z</time></trkpt><trkpt lat="44.1685567" lon="10.3279577"><ele>481.0</ele><time>2026-05-03T08:01:36.263Z</time></trkpt><trkpt lat="44.1684411" lon="10.3277444"><ele>479.0</ele><time>2026-05-03T08:01:37.258Z</time></trkpt><trkpt lat="44.168299" lon="10.3275126"><ele>479.0</ele><time>2026-05-03T08:01:38.26Z</time></trkpt><trkpt lat="44.1682038" lon="10.3273047"><ele>479.0</ele><time>2026-05-03T08:01:39.257Z</time></trkpt><trkpt lat="44.1681463" lon="10.3271191"><ele>479.0</ele><time>2026-05-03T08:01:40.26Z</time></trkpt><trkpt lat="44.1681341" lon="10.3269322"><ele>477.66666666666663</ele><time>2026-05-03T08:01:41.262Z</time></trkpt><trkpt lat="44.1681616" lon="10.3267275"><ele>476.33333333333337</ele><time>2026-05-03T08:01:42.263Z</time></trkpt><trkpt lat="44.1682281" lon="10.3264862"><ele>475.0</ele><time>2026-05-03T08:01:43.261Z</time></trkpt><trkpt lat="44.1682565" lon="10.3262042"><ele>472.6666666666667</ele><time>2026-05-03T08:01:44.264Z</time></trkpt><trkpt lat="44.1682705" lon="10.3259522"><ele>470.33333333333337</ele><time>2026-05-03T08:01:45.266Z</time></trkpt><trkpt lat="44.1682618" lon="10.3256913"><ele>468.0</ele><time>2026-05-03T08:01:46.264Z</time></trkpt><trkpt lat="44.168285" lon="10.3254452"><ele>467.33333333333337</ele><time>2026-05-03T08:01:47.274Z</time></trkpt><trkpt lat="44.1683419" lon="10.3252112"><ele>466.6666666666667</ele><time>2026-05-03T08:01:48.267Z</time></trkpt><trkpt lat="44.1684244" lon="10.3250087"><ele>466.0</ele><time>2026-05-03T08:01:49.269Z</time></trkpt><trkpt lat="44.1685186" lon="10.3248523"><ele>470.6666666666667</ele><time>2026-05-03T08:01:50.243Z</time></trkpt><trkpt lat="44.168609" lon="10.3247233"><ele>475.33333333333337</ele><time>2026-05-03T08:01:51.231Z</time></trkpt><trkpt lat="44.1687577" lon="10.3245796"><ele>480.0</ele><time>2026-05-03T08:01:52.232Z</time></trkpt><trkpt lat="44.1689086" lon="10.3244214"><ele>470.33333333333337</ele><time>2026-05-03T08:01:53.233Z</time></trkpt><trkpt lat="44.1690935" lon="10.3242243"><ele>460.6666666666667</ele><time>2026-05-03T08:01:54.231Z</time></trkpt><trkpt lat="44.1692457" lon="10.3240784"><ele>451.0</ele><time>2026-05-03T08:01:55.25Z</time></trkpt><trkpt lat="44.169355" lon="10.3238905"><ele>451.0</ele><time>2026-05-03T08:01:56.265Z</time></trkpt><trkpt lat="44.1694245" lon="10.3236523"><ele>451.0</ele><time>2026-05-03T08:01:57.266Z</time></trkpt><trkpt lat="44.1694898" lon="10.3234294"><ele>451.0</ele><time>2026-05-03T08:01:58.266Z</time></trkpt><trkpt lat="44.1695469" lon="10.3232182"><ele>453.0</ele><time>2026-05-03T08:01:59.261Z</time></trkpt><trkpt lat="44.1696218" lon="10.3230118"><ele>455.0</ele><time>2026-05-03T08:02:00.258Z</time></trkpt><trkpt lat="44.1697356" lon="10.3227884"><ele>457.0</ele><time>2026-05-03T08:02:01.267Z</time></trkpt><trkpt lat="44.1698515" lon="10.3226094"><ele>447.0</ele><time>2026-05-03T08:02:02.243Z</time></trkpt><trkpt lat="44.1699855" lon="10.3224276"><ele>437.0</ele><time>2026-05-03T08:02:03.25Z</time></trkpt><trkpt lat="44.1700862" lon="10.3222759"><ele>427.0</ele><time>2026-05-03T08:02:04.261Z</time></trkpt><trkpt lat="44.1701492" lon="10.32202"><ele>426.75</ele><time>2026-05-03T08:02:05.267Z</time></trkpt><trkpt lat="44.1701436" lon="10.3218311"><ele>426.5</ele><time>2026-05-03T08:02:06.265Z</time></trkpt><trkpt lat="44.1700481" lon="10.3217242"><ele>426.25</ele><time>2026-05-03T08:02:07.258Z</time></trkpt><trkpt lat="44.1699122" lon="10.3215857"><ele>426.0</ele><time>2026-05-03T08:02:08.26Z</time></trkpt><trkpt lat="44.1697869" lon="10.3214572"><ele>428.25</ele><time>2026-05-03T08:02:09.264Z</time></trkpt><trkpt lat="44.1696892" lon="10.3213309"><ele>430.5</ele><time>2026-05-03T08:02:10.26Z</time></trkpt><trkpt lat="44.1696166" lon="10.3211927"><ele>432.75</ele><time>2026-05-03T08:02:11.259Z</time></trkpt><trkpt lat="44.169597" lon="10.3210032"><ele>435.0</ele><time>2026-05-03T08:02:12.269Z</time></trkpt><trkpt lat="44.1695873" lon="10.3208056"><ele>435.0</ele><time>2026-05-03T08:02:13.268Z</time></trkpt><trkpt lat="44.1695967" lon="10.3206014"><ele>435.0</ele><time>2026-05-03T08:02:14.263Z</time></trkpt><trkpt lat="44.1695709" lon="10.3204447"><ele>435.0</ele><time>2026-05-03T08:02:15.259Z</time></trkpt><trkpt lat="44.1695493" lon="10.3202892"><ele>435.0</ele><time>2026-05-03T08:02:16.258Z</time></trkpt><trkpt lat="44.1695054" lon="10.3201569"><ele>433.75</ele><time>2026-05-03T08:02:17.254Z</time></trkpt><trkpt lat="44.169427" lon="10.320061"><ele>432.5</ele><time>2026-05-03T08:02:18.263Z</time></trkpt><trkpt lat="44.1693199" lon="10.3199876"><ele>431.25</ele><time>2026-05-03T08:02:19.258Z</time></trkpt><trkpt lat="44.1691791" lon="10.3199339"><ele>430.0</ele><time>2026-05-03T08:02:20.257Z</time></trkpt><trkpt lat="44.1690495" lon="10.3198779"><ele>434.5</ele><time>2026-05-03T08:02:21.243Z</time></trkpt><trkpt lat="44.1689408" lon="10.3198082"><ele>439.0</ele><time>2026-05-03T08:02:22.243Z</time></trkpt><trkpt lat="44.1688453" lon="10.3197299"><ele>443.5</ele><time>2026-05-03T08:02:23.25Z</time></trkpt><trkpt lat="44.1687192" lon="10.3195623"><ele>448.0</ele><time>2026-05-03T08:02:25.23Z</time></trkpt><trkpt lat="44.1686848" lon="10.3194732"><ele>447.2</ele><time>2026-05-03T08:02:26.23Z</time></trkpt><trkpt lat="44.168735" lon="10.3193785"><ele>446.4</ele><time>2026-05-03T08:02:27.258Z</time></trkpt><trkpt lat="44.1687908" lon="10.3192924"><ele>445.59999999999997</ele><time>2026-05-03T08:02:28.26Z</time></trkpt><trkpt lat="44.1689094" lon="10.3192018"><ele>444.79999999999995</ele><time>2026-05-03T08:02:29.26Z</time></trkpt><trkpt lat="44.1690415" lon="10.3191198"><ele>444.0</ele><time>2026-05-03T08:02:30.263Z</time></trkpt><trkpt lat="44.1692572" lon="10.3190321"><ele>444.0</ele><time>2026-05-03T08:02:31.271Z</time></trkpt><trkpt lat="44.169444" lon="10.3189218"><ele>444.0</ele><time>2026-05-03T08:02:32.262Z</time></trkpt><trkpt lat="44.1695538" lon="10.3187359"><ele>444.0</ele><time>2026-05-03T08:02:33.268Z</time></trkpt><trkpt lat="44.1696229" lon="10.3185942"><ele>450.33333333333337</ele><time>2026-05-03T08:02:34.264Z</time></trkpt><trkpt lat="44.1696451" lon="10.3183881"><ele>456.6666666666667</ele><time>2026-05-03T08:02:35.261Z</time></trkpt><trkpt lat="44.1696598" lon="10.3181464"><ele>463.0</ele><time>2026-05-03T08:02:36.262Z</time></trkpt><trkpt lat="44.1697238" lon="10.3178691"><ele>466.25</ele><time>2026-05-03T08:02:37.264Z</time></trkpt><trkpt lat="44.1698272" lon="10.3177354"><ele>469.5</ele><time>2026-05-03T08:02:38.264Z</time></trkpt><trkpt lat="44.1699235" lon="10.3176001"><ele>472.75</ele><time>2026-05-03T08:02:39.266Z</time></trkpt><trkpt lat="44.170019" lon="10.3174882"><ele>476.0</ele><time>2026-05-03T08:02:40.267Z</time></trkpt><trkpt lat="44.1700594" lon="10.3173458"><ele>470.75</ele><time>2026-05-03T08:02:41.268Z</time></trkpt><trkpt lat="44.170029" lon="10.3172065"><ele>465.5</ele><time>2026-05-03T08:02:42.268Z</time></trkpt><trkpt lat="44.1700151" lon="10.3170502"><ele>460.25</ele><time>2026-05-03T08:02:43.262Z</time></trkpt><trkpt lat="44.1699837" lon="10.3168299"><ele>455.0</ele><time>2026-05-03T08:02:44.27Z</time></trkpt><trkpt lat="44.1699749" lon="10.316622"><ele>455.0</ele><time>2026-05-03T08:02:45.269Z</time></trkpt><trkpt lat="44.1699865" lon="10.3164436"><ele>455.0</ele><time>2026-05-03T08:02:46.266Z</time></trkpt><trkpt lat="44.170042" lon="10.3162849"><ele>455.0</ele><time>2026-05-03T08:02:47.267Z</time></trkpt><trkpt lat="44.1701166" lon="10.316157"><ele>455.0</ele><time>2026-05-03T08:02:48.265Z</time></trkpt><trkpt lat="44.1702225" lon="10.3160648"><ele>454.75</ele><time>2026-05-03T08:02:49.268Z</time></trkpt><trkpt lat="44.1703078" lon="10.3159743"><ele>454.5</ele><time>2026-05-03T08:02:50.265Z</time></trkpt><trkpt lat="44.1704143" lon="10.3158916"><ele>454.25</ele><time>2026-05-03T08:02:51.269Z</time></trkpt><trkpt lat="44.1705598" lon="10.3159013"><ele>454.0</ele><time>2026-05-03T08:02:52.268Z</time></trkpt><trkpt lat="44.1707104" lon="10.3159303"><ele>454.0</ele><time>2026-05-03T08:02:53.271Z</time></trkpt><trkpt lat="44.170859" lon="10.3158899"><ele>454.0</ele><time>2026-05-03T08:02:54.27Z</time></trkpt><trkpt lat="44.1710316" lon="10.3158464"><ele>454.0</ele><time>2026-05-03T08:02:55.269Z</time></trkpt><trkpt lat="44.1712508" lon="10.3158022"><ele>454.0</ele><time>2026-05-03T08:02:56.264Z</time></trkpt><trkpt lat="44.1714661" lon="10.3157382"><ele>454.0</ele><time>2026-05-03T08:02:57.273Z</time></trkpt><trkpt lat="44.1716887" lon="10.3157241"><ele>454.0</ele><time>2026-05-03T08:02:58.266Z</time></trkpt><trkpt lat="44.1719066" lon="10.3157167"><ele>452.75</ele><time>2026-05-03T08:02:59.266Z</time></trkpt><trkpt lat="44.1720539" lon="10.3156374"><ele>451.5</ele><time>2026-05-03T08:03:00.268Z</time></trkpt><trkpt lat="44.1721639" lon="10.3155364"><ele>450.25</ele><time>2026-05-03T08:03:01.266Z</time></trkpt><trkpt lat="44.1722405" lon="10.3153951"><ele>449.0</ele><time>2026-05-03T08:03:02.263Z</time></trkpt><trkpt lat="44.1722914" lon="10.3152265"><ele>448.66666666666663</ele><time>2026-05-03T08:03:03.264Z</time></trkpt><trkpt lat="44.1724042" lon="10.315029"><ele>448.33333333333337</ele><time>2026-05-03T08:03:04.242Z</time></trkpt><trkpt lat="44.1725049" lon="10.3148084"><ele>448.0</ele><time>2026-05-03T08:03:05.231Z</time></trkpt><trkpt lat="44.1726136" lon="10.3145412"><ele>449.5</ele><time>2026-05-03T08:03:06.224Z</time></trkpt><trkpt lat="44.1727386" lon="10.3142016"><ele>451.0</ele><time>2026-05-03T08:03:07.233Z</time></trkpt><trkpt lat="44.1728423" lon="10.3139569"><ele>446.6666666666667</ele><time>2026-05-03T08:03:08.25Z</time></trkpt><trkpt lat="44.172964" lon="10.313744"><ele>442.33333333333337</ele><time>2026-05-03T08:03:09.263Z</time></trkpt><trkpt lat="44.1730591" lon="10.3135114"><ele>438.0</ele><time>2026-05-03T08:03:10.259Z</time></trkpt><trkpt lat="44.1731665" lon="10.3133442"><ele>438.25</ele><time>2026-05-03T08:03:11.26Z</time></trkpt><trkpt lat="44.1732746" lon="10.3131568"><ele>438.5</ele><time>2026-05-03T08:03:12.267Z</time></trkpt><trkpt lat="44.1733718" lon="10.3130197"><ele>438.75</ele><time>2026-05-03T08:03:13.259Z</time></trkpt><trkpt lat="44.1734855" lon="10.3129348"><ele>439.0</ele><time>2026-05-03T08:03:14.27Z</time></trkpt><trkpt lat="44.173617" lon="10.3129149"><ele>439.0</ele><time>2026-05-03T08:03:15.261Z</time></trkpt><trkpt lat="44.1737497" lon="10.3129287"><ele>439.0</ele><time>2026-05-03T08:03:16.267Z</time></trkpt><trkpt lat="44.1738359" lon="10.3129984"><ele>439.0</ele><time>2026-05-03T08:03:17.271Z</time></trkpt><trkpt lat="44.1739437" lon="10.3130723"><ele>439.0</ele><time>2026-05-03T08:03:18.269Z</time></trkpt><trkpt lat="44.1739992" lon="10.3131933"><ele>439.0</ele><time>2026-05-03T08:03:19.266Z</time></trkpt><trkpt lat="44.1740278" lon="10.3133524"><ele>439.0</ele><time>2026-05-03T08:03:20.265Z</time></trkpt><trkpt lat="44.1739998" lon="10.3135681"><ele>439.0</ele><time>2026-05-03T08:03:21.267Z</time></trkpt><trkpt lat="44.173961" lon="10.3137787"><ele>439.0</ele><time>2026-05-03T08:03:22.263Z</time></trkpt><trkpt lat="44.1739212" lon="10.3139944"><ele>437.6666666666667</ele><time>2026-05-03T08:03:23.267Z</time></trkpt><trkpt lat="44.1738778" lon="10.3142102"><ele>436.33333333333337</ele><time>2026-05-03T08:03:24.261Z</time></trkpt><trkpt lat="44.1737609" lon="10.3145135"><ele>435.0</ele><time>2026-05-03T08:03:25.265Z</time></trkpt><trkpt lat="44.1737431" lon="10.3147098"><ele>435.0</ele><time>2026-05-03T08:03:26.266Z</time></trkpt><trkpt lat="44.1737931" lon="10.3147959"><ele>435.0</ele><time>2026-05-03T08:03:28.265Z</time></trkpt><trkpt lat="44.173849" lon="10.314684"><ele>435.0</ele><time>2026-05-03T08:03:29.267Z</time></trkpt><trkpt lat="44.1738984" lon="10.3145719"><ele>435.0</ele><time>2026-05-03T08:03:30.267Z</time></trkpt><trkpt lat="44.1739643" lon="10.3144395"><ele>435.0</ele><time>2026-05-03T08:03:31.269Z</time></trkpt><trkpt lat="44.1740404" lon="10.3143074"><ele>438.75</ele><time>2026-05-03T08:03:32.269Z</time></trkpt><trkpt lat="44.1741268" lon="10.3141422"><ele>442.5</ele><time>2026-05-03T08:03:33.268Z</time></trkpt><trkpt lat="44.1742055" lon="10.3139698"><ele>446.25</ele><time>2026-05-03T08:03:34.265Z</time></trkpt><trkpt lat="44.174278" lon="10.3138008"><ele>450.0</ele><time>2026-05-03T08:03:35.262Z</time></trkpt><trkpt lat="44.1743613" lon="10.3136469"><ele>450.0</ele><time>2026-05-03T08:03:36.262Z</time></trkpt><trkpt lat="44.1744298" lon="10.3135102"><ele>450.0</ele><time>2026-05-03T08:03:37.263Z</time></trkpt><trkpt lat="44.174496" lon="10.3133547"><ele>450.0</ele><time>2026-05-03T08:03:38.268Z</time></trkpt><trkpt lat="44.1745622" lon="10.313207"><ele>450.0</ele><time>2026-05-03T08:03:39.266Z</time></trkpt><trkpt lat="44.1746196" lon="10.3130819"><ele>451.5</ele><time>2026-05-03T08:03:40.267Z</time></trkpt><trkpt lat="44.1746603" lon="10.3129712"><ele>453.0</ele><time>2026-05-03T08:03:41.265Z</time></trkpt><trkpt lat="44.174693" lon="10.3128263"><ele>454.5</ele><time>2026-05-03T08:03:43.267Z</time></trkpt><trkpt lat="44.174722" lon="10.3126569"><ele>456.0</ele><time>2026-05-03T08:03:45.272Z</time></trkpt><trkpt lat="44.1748172" lon="10.3124946"><ele>457.0</ele><time>2026-05-03T08:03:47.266Z</time></trkpt><trkpt lat="44.1749136" lon="10.3124168"><ele>458.0</ele><time>2026-05-03T08:03:48.272Z</time></trkpt><trkpt lat="44.1750249" lon="10.3123504"><ele>459.0</ele><time>2026-05-03T08:03:49.268Z</time></trkpt><trkpt lat="44.175137" lon="10.3122799"><ele>460.0</ele><time>2026-05-03T08:03:50.266Z</time></trkpt><trkpt lat="44.1752578" lon="10.3122312"><ele>460.0</ele><time>2026-05-03T08:03:51.269Z</time></trkpt><trkpt lat="44.1753766" lon="10.3122063"><ele>460.0</ele><time>2026-05-03T08:03:52.268Z</time></trkpt><trkpt lat="44.1754896" lon="10.3122283"><ele>460.0</ele><time>2026-05-03T08:03:53.272Z</time></trkpt><trkpt lat="44.1755989" lon="10.3122742"><ele>460.0</ele><time>2026-05-03T08:03:54.257Z</time></trkpt><trkpt lat="44.1756947" lon="10.3123258"><ele>461.2</ele><time>2026-05-03T08:03:55.257Z</time></trkpt><trkpt lat="44.1757838" lon="10.3123513"><ele>462.4</ele><time>2026-05-03T08:03:56.253Z</time></trkpt><trkpt lat="44.1758736" lon="10.312337"><ele>463.6</ele><time>2026-05-03T08:03:57.255Z</time></trkpt><trkpt lat="44.1759675" lon="10.312312"><ele>464.8</ele><time>2026-05-03T08:03:58.254Z</time></trkpt><trkpt lat="44.1760587" lon="10.3123147"><ele>466.0</ele><time>2026-05-03T08:03:59.255Z</time></trkpt><trkpt lat="44.1761519" lon="10.3123372"><ele>466.0</ele><time>2026-05-03T08:04:00.258Z</time></trkpt><trkpt lat="44.1762573" lon="10.3123819"><ele>466.0</ele><time>2026-05-03T08:04:01.257Z</time></trkpt><trkpt lat="44.1763714" lon="10.3124457"><ele>466.0</ele><time>2026-05-03T08:04:02.257Z</time></trkpt><trkpt lat="44.1764902" lon="10.3125114"><ele>466.0</ele><time>2026-05-03T08:04:03.257Z</time></trkpt><trkpt lat="44.1766024" lon="10.3125432"><ele>468.5</ele><time>2026-05-03T08:04:04.256Z</time></trkpt><trkpt lat="44.1767382" lon="10.3125403"><ele>471.0</ele><time>2026-05-03T08:04:05.265Z</time></trkpt><trkpt lat="44.1768575" lon="10.3125249"><ele>473.5</ele><time>2026-05-03T08:04:06.265Z</time></trkpt><trkpt lat="44.176958" lon="10.3124818"><ele>476.0</ele><time>2026-05-03T08:04:07.264Z</time></trkpt><trkpt lat="44.1770537" lon="10.3124353"><ele>476.0</ele><time>2026-05-03T08:04:08.265Z</time></trkpt><trkpt lat="44.1771268" lon="10.3123551"><ele>476.0</ele><time>2026-05-03T08:04:09.268Z</time></trkpt><trkpt lat="44.177142" lon="10.3122168"><ele>476.0</ele><time>2026-05-03T08:04:10.268Z</time></trkpt><trkpt lat="44.1771397" lon="10.3120335"><ele>476.0</ele><time>2026-05-03T08:04:11.265Z</time></trkpt><trkpt lat="44.177175" lon="10.3118178"><ele>472.3333333333333</ele><time>2026-05-03T08:04:12.261Z</time></trkpt><trkpt lat="44.1771688" lon="10.3115903"><ele>468.66666666666663</ele><time>2026-05-03T08:04:13.266Z</time></trkpt><trkpt lat="44.1771907" lon="10.3114071"><ele>465.0</ele><time>2026-05-03T08:04:14.267Z</time></trkpt><trkpt lat="44.1772975" lon="10.3111805"><ele>465.33333333333337</ele><time>2026-05-03T08:04:15.27Z</time></trkpt><trkpt lat="44.1773647" lon="10.3108944"><ele>465.6666666666667</ele><time>2026-05-03T08:04:16.265Z</time></trkpt><trkpt lat="44.177488" lon="10.3106722"><ele>466.0</ele><time>2026-05-03T08:04:17.265Z</time></trkpt><trkpt lat="44.1776588" lon="10.3104805"><ele>466.0</ele><time>2026-05-03T08:04:18.266Z</time></trkpt><trkpt lat="44.1778201" lon="10.3103343"><ele>466.0</ele><time>2026-05-03T08:04:19.266Z</time></trkpt><trkpt lat="44.1779801" lon="10.3101498"><ele>466.0</ele><time>2026-05-03T08:04:20.262Z</time></trkpt><trkpt lat="44.1781857" lon="10.3100366"><ele>476.0</ele><time>2026-05-03T08:04:21.266Z</time></trkpt><trkpt lat="44.1784009" lon="10.3100209"><ele>486.0</ele><time>2026-05-03T08:04:22.265Z</time></trkpt><trkpt lat="44.1786701" lon="10.3100064"><ele>486.0</ele><time>2026-05-03T08:04:23.269Z</time></trkpt><trkpt lat="44.1789717" lon="10.3099951"><ele>486.0</ele><time>2026-05-03T08:04:24.263Z</time></trkpt><trkpt lat="44.1792391" lon="10.3099615"><ele>490.33333333333337</ele><time>2026-05-03T08:04:25.265Z</time></trkpt><trkpt lat="44.1794768" lon="10.3099497"><ele>494.6666666666667</ele><time>2026-05-03T08:04:26.262Z</time></trkpt><trkpt lat="44.1796754" lon="10.3099351"><ele>499.0</ele><time>2026-05-03T08:04:27.261Z</time></trkpt><trkpt lat="44.1798648" lon="10.309885"><ele>499.0</ele><time>2026-05-03T08:04:28.259Z</time></trkpt><trkpt lat="44.1800491" lon="10.3098209"><ele>499.0</ele><time>2026-05-03T08:04:29.256Z</time></trkpt><trkpt lat="44.1801911" lon="10.3097128"><ele>499.0</ele><time>2026-05-03T08:04:30.266Z</time></trkpt><trkpt lat="44.1803582" lon="10.3095592"><ele>499.0</ele><time>2026-05-03T08:04:31.268Z</time></trkpt><trkpt lat="44.1805355" lon="10.309371"><ele>499.0</ele><time>2026-05-03T08:04:32.266Z</time></trkpt><trkpt lat="44.180724" lon="10.3091617"><ele>510.0</ele><time>2026-05-03T08:04:33.266Z</time></trkpt><trkpt lat="44.1809074" lon="10.3089655"><ele>521.0</ele><time>2026-05-03T08:04:34.267Z</time></trkpt><trkpt lat="44.181094" lon="10.308768"><ele>521.0</ele><time>2026-05-03T08:04:35.254Z</time></trkpt><trkpt lat="44.1812803" lon="10.3085743"><ele>521.0</ele><time>2026-05-03T08:04:36.204Z</time></trkpt><trkpt lat="44.1814665" lon="10.3083807"><ele>519.5</ele><time>2026-05-03T08:04:37.194Z</time></trkpt><trkpt lat="44.1816509" lon="10.3082383"><ele>518.0</ele><time>2026-05-03T08:04:38.219Z</time></trkpt><trkpt lat="44.1820491" lon="10.3084709"><ele>510.5</ele><time>2026-05-03T08:04:39.234Z</time></trkpt><trkpt lat="44.182349" lon="10.3085921"><ele>503.0</ele><time>2026-05-03T08:04:40.255Z</time></trkpt><trkpt lat="44.182488" lon="10.3086105"><ele>503.0</ele><time>2026-05-03T08:04:41.264Z</time></trkpt><trkpt lat="44.1826251" lon="10.3086168"><ele>503.0</ele><time>2026-05-03T08:04:42.268Z</time></trkpt><trkpt lat="44.1827752" lon="10.3086398"><ele>503.0</ele><time>2026-05-03T08:04:43.265Z</time></trkpt><trkpt lat="44.1828873" lon="10.3086409"><ele>503.0</ele><time>2026-05-03T08:04:44.265Z</time></trkpt><trkpt lat="44.1830167" lon="10.3085853"><ele>503.0</ele><time>2026-05-03T08:04:45.264Z</time></trkpt><trkpt lat="44.1831376" lon="10.3084835"><ele>503.0</ele><time>2026-05-03T08:04:46.265Z</time></trkpt><trkpt lat="44.1832305" lon="10.3083655"><ele>503.0</ele><time>2026-05-03T08:04:47.263Z</time></trkpt><trkpt lat="44.1833428" lon="10.3081685"><ele>503.0</ele><time>2026-05-03T08:04:48.269Z</time></trkpt><trkpt lat="44.1834655" lon="10.307906"><ele>505.3333333333333</ele><time>2026-05-03T08:04:49.265Z</time></trkpt><trkpt lat="44.1835671" lon="10.3076522"><ele>507.66666666666663</ele><time>2026-05-03T08:04:50.263Z</time></trkpt><trkpt lat="44.183636" lon="10.3073662"><ele>510.0</ele><time>2026-05-03T08:04:51.265Z</time></trkpt><trkpt lat="44.1836895" lon="10.3070485"><ele>506.0</ele><time>2026-05-03T08:04:52.261Z</time></trkpt><trkpt lat="44.1837417" lon="10.3067121"><ele>502.0</ele><time>2026-05-03T08:04:53.264Z</time></trkpt><trkpt lat="44.1837666" lon="10.3064036"><ele>502.0</ele><time>2026-05-03T08:04:54.261Z</time></trkpt><trkpt lat="44.1837876" lon="10.3061019"><ele>502.0</ele><time>2026-05-03T08:04:55.26Z</time></trkpt><trkpt lat="44.1837927" lon="10.3057997"><ele>502.0</ele><time>2026-05-03T08:04:56.258Z</time></trkpt><trkpt lat="44.1838606" lon="10.3054737"><ele>506.5</ele><time>2026-05-03T08:04:57.254Z</time></trkpt><trkpt lat="44.1839074" lon="10.3051881"><ele>511.0</ele><time>2026-05-03T08:04:58.261Z</time></trkpt><trkpt lat="44.1839958" lon="10.3046679"><ele>513.3333333333334</ele><time>2026-05-03T08:05:00.242Z</time></trkpt><trkpt lat="44.1840517" lon="10.3044465"><ele>515.6666666666666</ele><time>2026-05-03T08:05:01.225Z</time></trkpt><trkpt lat="44.1841049" lon="10.3042272"><ele>518.0</ele><time>2026-05-03T08:05:02.224Z</time></trkpt><trkpt lat="44.1841564" lon="10.3040326"><ele>518.0</ele><time>2026-05-03T08:05:03.26Z</time></trkpt><trkpt lat="44.1842344" lon="10.3039385"><ele>518.0</ele><time>2026-05-03T08:05:04.262Z</time></trkpt><trkpt lat="44.1842936" lon="10.3038161"><ele>518.0</ele><time>2026-05-03T08:05:05.258Z</time></trkpt><trkpt lat="44.1842338" lon="10.3037405"><ele>518.0</ele><time>2026-05-03T08:05:06.262Z</time></trkpt><trkpt lat="44.1841368" lon="10.303655"><ele>518.0</ele><time>2026-05-03T08:05:07.26Z</time></trkpt><trkpt lat="44.1840353" lon="10.3035672"><ele>518.25</ele><time>2026-05-03T08:05:08.242Z</time></trkpt><trkpt lat="44.1839297" lon="10.3034487"><ele>518.5</ele><time>2026-05-03T08:05:09.254Z</time></trkpt><trkpt lat="44.1838084" lon="10.3033287"><ele>518.75</ele><time>2026-05-03T08:05:10.265Z</time></trkpt><trkpt lat="44.1836762" lon="10.3032123"><ele>519.0</ele><time>2026-05-03T08:05:11.268Z</time></trkpt><trkpt lat="44.1835711" lon="10.3030713"><ele>519.0</ele><time>2026-05-03T08:05:12.265Z</time></trkpt><trkpt lat="44.1834738" lon="10.3029154"><ele>519.0</ele><time>2026-05-03T08:05:13.276Z</time></trkpt><trkpt lat="44.1833883" lon="10.3027686"><ele>519.0</ele><time>2026-05-03T08:05:14.268Z</time></trkpt><trkpt lat="44.1833027" lon="10.3025753"><ele>519.0</ele><time>2026-05-03T08:05:15.268Z</time></trkpt><trkpt lat="44.1832546" lon="10.3023321"><ele>520.0</ele><time>2026-05-03T08:05:16.265Z</time></trkpt><trkpt lat="44.1832033" lon="10.3021556"><ele>521.0</ele><time>2026-05-03T08:05:17.268Z</time></trkpt><trkpt lat="44.183181" lon="10.3019563"><ele>522.0</ele><time>2026-05-03T08:05:18.265Z</time></trkpt><trkpt lat="44.1831772" lon="10.301783"><ele>523.0</ele><time>2026-05-03T08:05:19.271Z</time></trkpt><trkpt lat="44.1832116" lon="10.3016103"><ele>523.0</ele><time>2026-05-03T08:05:20.267Z</time></trkpt><trkpt lat="44.1832733" lon="10.3014716"><ele>523.0</ele><time>2026-05-03T08:05:21.274Z</time></trkpt><trkpt lat="44.1833377" lon="10.3013251"><ele>523.0</ele><time>2026-05-03T08:05:22.268Z</time></trkpt><trkpt lat="44.1834164" lon="10.3011893"><ele>523.0</ele><time>2026-05-03T08:05:23.269Z</time></trkpt><trkpt lat="44.1834666" lon="10.3010688"><ele>522.75</ele><time>2026-05-03T08:05:24.271Z</time></trkpt><trkpt lat="44.1835183" lon="10.3009301"><ele>522.5</ele><time>2026-05-03T08:05:25.269Z</time></trkpt><trkpt lat="44.1835751" lon="10.3007875"><ele>522.25</ele><time>2026-05-03T08:05:26.267Z</time></trkpt><trkpt lat="44.1836378" lon="10.3006539"><ele>522.0</ele><time>2026-05-03T08:05:27.264Z</time></trkpt><trkpt lat="44.1836884" lon="10.3005043"><ele>521.5</ele><time>2026-05-03T08:05:28.271Z</time></trkpt><trkpt lat="44.1837522" lon="10.3003782"><ele>521.0</ele><time>2026-05-03T08:05:29.267Z</time></trkpt><trkpt lat="44.1838001" lon="10.3002351"><ele>520.5</ele><time>2026-05-03T08:05:30.267Z</time></trkpt><trkpt lat="44.1838646" lon="10.3000936"><ele>520.0</ele><time>2026-05-03T08:05:31.267Z</time></trkpt><trkpt lat="44.1839338" lon="10.2999481"><ele>520.0</ele><time>2026-05-03T08:05:32.263Z</time></trkpt><trkpt lat="44.183998" lon="10.2998075"><ele>520.0</ele><time>2026-05-03T08:05:33.27Z</time></trkpt><trkpt lat="44.1840308" lon="10.2996606"><ele>520.0</ele><time>2026-05-03T08:05:34.267Z</time></trkpt><trkpt lat="44.1840585" lon="10.2995106"><ele>520.0</ele><time>2026-05-03T08:05:35.267Z</time></trkpt><trkpt lat="44.1840898" lon="10.2993483"><ele>522.0</ele><time>2026-05-03T08:05:36.262Z</time></trkpt><trkpt lat="44.1841133" lon="10.2991952"><ele>524.0</ele><time>2026-05-03T08:05:37.27Z</time></trkpt><trkpt lat="44.1841517" lon="10.2990328"><ele>526.0</ele><time>2026-05-03T08:05:38.27Z</time></trkpt><trkpt lat="44.1841928" lon="10.2988815"><ele>528.0</ele><time>2026-05-03T08:05:39.263Z</time></trkpt><trkpt lat="44.1842433" lon="10.2987351"><ele>528.0</ele><time>2026-05-03T08:05:40.269Z</time></trkpt><trkpt lat="44.1842978" lon="10.2985998"><ele>528.0</ele><time>2026-05-03T08:05:41.269Z</time></trkpt><trkpt lat="44.1843863" lon="10.29846"><ele>528.0</ele><time>2026-05-03T08:05:42.266Z</time></trkpt><trkpt lat="44.1845252" lon="10.2983584"><ele>528.0</ele><time>2026-05-03T08:05:43.267Z</time></trkpt><trkpt lat="44.1846619" lon="10.2982548"><ele>528.0</ele><time>2026-05-03T08:05:44.267Z</time></trkpt><trkpt lat="44.1847777" lon="10.2981612"><ele>528.0</ele><time>2026-05-03T08:05:45.266Z</time></trkpt><trkpt lat="44.1848832" lon="10.2980647"><ele>528.0</ele><time>2026-05-03T08:05:46.263Z</time></trkpt><trkpt lat="44.1849567" lon="10.2979499"><ele>528.0</ele><time>2026-05-03T08:05:47.289Z</time></trkpt><trkpt lat="44.1850007" lon="10.2978096"><ele>528.5</ele><time>2026-05-03T08:05:48.263Z</time></trkpt><trkpt lat="44.1850227" lon="10.2976226"><ele>529.0</ele><time>2026-05-03T08:05:49.262Z</time></trkpt><trkpt lat="44.1850429" lon="10.2974455"><ele>529.5</ele><time>2026-05-03T08:05:50.259Z</time></trkpt><trkpt lat="44.1850501" lon="10.2972622"><ele>530.0</ele><time>2026-05-03T08:05:51.261Z</time></trkpt><trkpt lat="44.1850433" lon="10.297076"><ele>530.0</ele><time>2026-05-03T08:05:52.259Z</time></trkpt><trkpt lat="44.1850385" lon="10.2968978"><ele>530.0</ele><time>2026-05-03T08:05:53.264Z</time></trkpt><trkpt lat="44.185044" lon="10.2967292"><ele>530.0</ele><time>2026-05-03T08:05:54.26Z</time></trkpt><trkpt lat="44.1850669" lon="10.296568"><ele>530.0</ele><time>2026-05-03T08:05:55.263Z</time></trkpt><trkpt lat="44.185111" lon="10.2964294"><ele>528.6</ele><time>2026-05-03T08:05:56.259Z</time></trkpt><trkpt lat="44.1851812" lon="10.2963293"><ele>527.2</ele><time>2026-05-03T08:05:57.262Z</time></trkpt><trkpt lat="44.1852801" lon="10.2962542"><ele>525.8</ele><time>2026-05-03T08:05:58.263Z</time></trkpt><trkpt lat="44.1853852" lon="10.2961988"><ele>524.4</ele><time>2026-05-03T08:05:59.268Z</time></trkpt><trkpt lat="44.1854911" lon="10.2961531"><ele>523.0</ele><time>2026-05-03T08:06:00.267Z</time></trkpt><trkpt lat="44.1855624" lon="10.2960667"><ele>523.0</ele><time>2026-05-03T08:06:01.271Z</time></trkpt><trkpt lat="44.1856424" lon="10.2959225"><ele>523.0</ele><time>2026-05-03T08:06:02.269Z</time></trkpt><trkpt lat="44.1857163" lon="10.2957564"><ele>523.0</ele><time>2026-05-03T08:06:03.268Z</time></trkpt><trkpt lat="44.1857946" lon="10.2955851"><ele>523.0</ele><time>2026-05-03T08:06:04.265Z</time></trkpt><trkpt lat="44.1858777" lon="10.2953437"><ele>527.0</ele><time>2026-05-03T08:06:05.259Z</time></trkpt><trkpt lat="44.1859631" lon="10.2951403"><ele>531.0</ele><time>2026-05-03T08:06:06.258Z</time></trkpt><trkpt lat="44.1860406" lon="10.29496"><ele>535.0</ele><time>2026-05-03T08:06:07.26Z</time></trkpt><trkpt lat="44.1861274" lon="10.2947785"><ele>533.6666666666667</ele><time>2026-05-03T08:06:08.26Z</time></trkpt><trkpt lat="44.1861914" lon="10.2945754"><ele>532.3333333333334</ele><time>2026-05-03T08:06:09.26Z</time></trkpt><trkpt lat="44.1862525" lon="10.2943564"><ele>531.0</ele><time>2026-05-03T08:06:10.265Z</time></trkpt><trkpt lat="44.1862919" lon="10.2941598"><ele>531.0</ele><time>2026-05-03T08:06:11.267Z</time></trkpt><trkpt lat="44.1863616" lon="10.2939376"><ele>531.0</ele><time>2026-05-03T08:06:12.271Z</time></trkpt><trkpt lat="44.1864226" lon="10.2937408"><ele>531.0</ele><time>2026-05-03T08:06:13.269Z</time></trkpt><trkpt lat="44.1865069" lon="10.2935788"><ele>534.0</ele><time>2026-05-03T08:06:14.272Z</time></trkpt><trkpt lat="44.1866032" lon="10.2934198"><ele>537.0</ele><time>2026-05-03T08:06:15.275Z</time></trkpt><trkpt lat="44.1866509" lon="10.2933018"><ele>540.0</ele><time>2026-05-03T08:06:16.276Z</time></trkpt><trkpt lat="44.186677" lon="10.2931707"><ele>543.0</ele><time>2026-05-03T08:06:17.271Z</time></trkpt><trkpt lat="44.1867676" lon="10.292967"><ele>543.0</ele><time>2026-05-03T08:06:18.271Z</time></trkpt><trkpt lat="44.1868322" lon="10.2927536"><ele>543.0</ele><time>2026-05-03T08:06:19.273Z</time></trkpt><trkpt lat="44.1868706" lon="10.2925522"><ele>543.0</ele><time>2026-05-03T08:06:20.271Z</time></trkpt><trkpt lat="44.1868724" lon="10.2923959"><ele>543.0</ele><time>2026-05-03T08:06:21.276Z</time></trkpt><trkpt lat="44.1869169" lon="10.2922099"><ele>543.1999999999999</ele><time>2026-05-03T08:06:22.274Z</time></trkpt><trkpt lat="44.1869557" lon="10.2920036"><ele>543.4</ele><time>2026-05-03T08:06:23.273Z</time></trkpt><trkpt lat="44.1869829" lon="10.2918825"><ele>543.5999999999999</ele><time>2026-05-03T08:06:24.27Z</time></trkpt><trkpt lat="44.186976" lon="10.2917938"><ele>543.8</ele><time>2026-05-03T08:06:25.267Z</time></trkpt><trkpt lat="44.186949" lon="10.291714"><ele>544.0</ele><time>2026-05-03T08:06:26.276Z</time></trkpt><trkpt lat="44.1868734" lon="10.2916487"><ele>544.0</ele><time>2026-05-03T08:06:27.273Z</time></trkpt><trkpt lat="44.1867892" lon="10.2915674"><ele>544.0</ele><time>2026-05-03T08:06:28.273Z</time></trkpt><trkpt lat="44.1866808" lon="10.2914902"><ele>544.0</ele><time>2026-05-03T08:06:29.263Z</time></trkpt><trkpt lat="44.1865535" lon="10.2914124"><ele>544.0</ele><time>2026-05-03T08:06:30.26Z</time></trkpt><trkpt lat="44.1864095" lon="10.2913234"><ele>543.6666666666667</ele><time>2026-05-03T08:06:31.267Z</time></trkpt><trkpt lat="44.1862419" lon="10.2911778"><ele>543.3333333333334</ele><time>2026-05-03T08:06:32.269Z</time></trkpt><trkpt lat="44.1860807" lon="10.291086"><ele>543.0</ele><time>2026-05-03T08:06:33.275Z</time></trkpt><trkpt lat="44.1859694" lon="10.2910252"><ele>543.0</ele><time>2026-05-03T08:06:34.275Z</time></trkpt><trkpt lat="44.1858238" lon="10.2909512"><ele>543.0</ele><time>2026-05-03T08:06:35.276Z</time></trkpt><trkpt lat="44.1856858" lon="10.290864"><ele>543.0</ele><time>2026-05-03T08:06:36.272Z</time></trkpt><trkpt lat="44.1855904" lon="10.2907752"><ele>543.0</ele><time>2026-05-03T08:06:37.271Z</time></trkpt><trkpt lat="44.1855215" lon="10.2906627"><ele>542.0</ele><time>2026-05-03T08:06:38.272Z</time></trkpt><trkpt lat="44.1854709" lon="10.2905272"><ele>541.0</ele><time>2026-05-03T08:06:39.259Z</time></trkpt><trkpt lat="44.1854476" lon="10.2903322"><ele>540.0</ele><time>2026-05-03T08:06:40.267Z</time></trkpt><trkpt lat="44.1853824" lon="10.2901287"><ele>539.0</ele><time>2026-05-03T08:06:41.259Z</time></trkpt><trkpt lat="44.1853414" lon="10.2899327"><ele>540.5</ele><time>2026-05-03T08:06:42.263Z</time></trkpt><trkpt lat="44.1852994" lon="10.289737"><ele>542.0</ele><time>2026-05-03T08:06:43.265Z</time></trkpt><trkpt lat="44.1852164" lon="10.2895739"><ele>543.5</ele><time>2026-05-03T08:06:44.268Z</time></trkpt><trkpt lat="44.1851632" lon="10.289436"><ele>545.0</ele><time>2026-05-03T08:06:45.265Z</time></trkpt><trkpt lat="44.1850711" lon="10.2893659"><ele>545.0</ele><time>2026-05-03T08:06:46.265Z</time></trkpt><trkpt lat="44.1849955" lon="10.2892939"><ele>545.0</ele><time>2026-05-03T08:06:47.26Z</time></trkpt><trkpt lat="44.1848645" lon="10.2892957"><ele>545.0</ele><time>2026-05-03T08:06:48.26Z</time></trkpt><trkpt lat="44.1847586" lon="10.289293"><ele>545.0</ele><time>2026-05-03T08:06:49.26Z</time></trkpt><trkpt lat="44.1846537" lon="10.2892734"><ele>545.0</ele><time>2026-05-03T08:06:50.258Z</time></trkpt><trkpt lat="44.1845813" lon="10.2891944"><ele>542.2</ele><time>2026-05-03T08:06:51.249Z</time></trkpt><trkpt lat="44.1845434" lon="10.2891156"><ele>539.4</ele><time>2026-05-03T08:06:52.258Z</time></trkpt><trkpt lat="44.1845532" lon="10.2889947"><ele>536.6</ele><time>2026-05-03T08:06:53.265Z</time></trkpt><trkpt lat="44.1845692" lon="10.2888612"><ele>533.8</ele><time>2026-05-03T08:06:54.265Z</time></trkpt><trkpt lat="44.184608" lon="10.2887052"><ele>531.0</ele><time>2026-05-03T08:06:55.256Z</time></trkpt><trkpt lat="44.1846859" lon="10.2885159"><ele>529.0</ele><time>2026-05-03T08:06:56.257Z</time></trkpt><trkpt lat="44.1847903" lon="10.2883121"><ele>527.0</ele><time>2026-05-03T08:06:57.26Z</time></trkpt><trkpt lat="44.1849268" lon="10.2880857"><ele>525.0</ele><time>2026-05-03T08:06:58.266Z</time></trkpt><trkpt lat="44.1851144" lon="10.2878564"><ele>528.0</ele><time>2026-05-03T08:06:59.262Z</time></trkpt><trkpt lat="44.1852291" lon="10.2876344"><ele>531.0</ele><time>2026-05-03T08:07:00.258Z</time></trkpt><trkpt lat="44.1853529" lon="10.2873869"><ele>534.0</ele><time>2026-05-03T08:07:01.269Z</time></trkpt><trkpt lat="44.1854301" lon="10.2871976"><ele>534.0</ele><time>2026-05-03T08:07:02.267Z</time></trkpt><trkpt lat="44.1854885" lon="10.2869995"><ele>534.0</ele><time>2026-05-03T08:07:03.244Z</time></trkpt><trkpt lat="44.1855501" lon="10.286827"><ele>534.0</ele><time>2026-05-03T08:07:04.255Z</time></trkpt><trkpt lat="44.1856715" lon="10.2866623"><ele>537.0</ele><time>2026-05-03T08:07:05.265Z</time></trkpt><trkpt lat="44.1858303" lon="10.2865016"><ele>540.0</ele><time>2026-05-03T08:07:06.268Z</time></trkpt><trkpt lat="44.1860133" lon="10.2863651"><ele>543.0</ele><time>2026-05-03T08:07:07.268Z</time></trkpt><trkpt lat="44.1861386" lon="10.2861629"><ele>543.0</ele><time>2026-05-03T08:07:08.272Z</time></trkpt><trkpt lat="44.186256" lon="10.2859791"><ele>543.0</ele><time>2026-05-03T08:07:09.267Z</time></trkpt><trkpt lat="44.1865265" lon="10.2856734"><ele>544.5</ele><time>2026-05-03T08:07:11.265Z</time></trkpt><trkpt lat="44.1866806" lon="10.2856856"><ele>546.0</ele><time>2026-05-03T08:07:12.263Z</time></trkpt><trkpt lat="44.1868108" lon="10.2856853"><ele>547.5</ele><time>2026-05-03T08:07:13.257Z</time></trkpt><trkpt lat="44.1869145" lon="10.2856002"><ele>549.0</ele><time>2026-05-03T08:07:15.269Z</time></trkpt><trkpt lat="44.1869692" lon="10.2853978"><ele>549.0</ele><time>2026-05-03T08:07:16.266Z</time></trkpt><trkpt lat="44.187021" lon="10.2851796"><ele>549.0</ele><time>2026-05-03T08:07:17.261Z</time></trkpt><trkpt lat="44.1870655" lon="10.2849186"><ele>549.0</ele><time>2026-05-03T08:07:18.26Z</time></trkpt><trkpt lat="44.1871216" lon="10.2846677"><ele>545.6666666666666</ele><time>2026-05-03T08:07:19.261Z</time></trkpt><trkpt lat="44.1871755" lon="10.2844581"><ele>542.3333333333333</ele><time>2026-05-03T08:07:20.264Z</time></trkpt><trkpt lat="44.1872371" lon="10.2842233"><ele>539.0</ele><time>2026-05-03T08:07:21.263Z</time></trkpt><trkpt lat="44.187334" lon="10.2839288"><ele>547.5</ele><time>2026-05-03T08:07:22.26Z</time></trkpt><trkpt lat="44.1874744" lon="10.2836768"><ele>556.0</ele><time>2026-05-03T08:07:23.265Z</time></trkpt><trkpt lat="44.1876348" lon="10.2833745"><ele>556.0</ele><time>2026-05-03T08:07:24.261Z</time></trkpt><trkpt lat="44.1878163" lon="10.2831735"><ele>556.0</ele><time>2026-05-03T08:07:25.263Z</time></trkpt><trkpt lat="44.1879999" lon="10.2829609"><ele>557.0</ele><time>2026-05-03T08:07:26.264Z</time></trkpt><trkpt lat="44.188169" lon="10.2827748"><ele>558.0</ele><time>2026-05-03T08:07:27.261Z</time></trkpt><trkpt lat="44.1883475" lon="10.2826295"><ele>559.0</ele><time>2026-05-03T08:07:28.267Z</time></trkpt><trkpt lat="44.1885372" lon="10.2824894"><ele>559.0</ele><time>2026-05-03T08:07:29.266Z</time></trkpt><trkpt lat="44.1887182" lon="10.2825222"><ele>559.0</ele><time>2026-05-03T08:07:30.268Z</time></trkpt><trkpt lat="44.1888672" lon="10.2825863"><ele>559.0</ele><time>2026-05-03T08:07:31.254Z</time></trkpt><trkpt lat="44.1890517" lon="10.2827226"><ele>558.6666666666667</ele><time>2026-05-03T08:07:32.252Z</time></trkpt><trkpt lat="44.1892546" lon="10.2828603"><ele>558.3333333333334</ele><time>2026-05-03T08:07:33.267Z</time></trkpt><trkpt lat="44.1894436" lon="10.2829503"><ele>558.0</ele><time>2026-05-03T08:07:34.268Z</time></trkpt><trkpt lat="44.1896092" lon="10.2829549"><ele>558.0</ele><time>2026-05-03T08:07:35.272Z</time></trkpt><trkpt lat="44.1897958" lon="10.2829822"><ele>558.0</ele><time>2026-05-03T08:07:36.266Z</time></trkpt><trkpt lat="44.1900113" lon="10.2829445"><ele>558.0</ele><time>2026-05-03T08:07:37.268Z</time></trkpt><trkpt lat="44.1902194" lon="10.2829138"><ele>559.0</ele><time>2026-05-03T08:07:38.266Z</time></trkpt><trkpt lat="44.1904286" lon="10.2829521"><ele>560.0</ele><time>2026-05-03T08:07:39.272Z</time></trkpt><trkpt lat="44.1905756" lon="10.2829523"><ele>561.0</ele><time>2026-05-03T08:07:40.265Z</time></trkpt><trkpt lat="44.1906938" lon="10.2829383"><ele>563.75</ele><time>2026-05-03T08:07:41.27Z</time></trkpt><trkpt lat="44.1908113" lon="10.2828729"><ele>566.5</ele><time>2026-05-03T08:07:42.262Z</time></trkpt><trkpt lat="44.1909452" lon="10.282828"><ele>569.25</ele><time>2026-05-03T08:07:43.267Z</time></trkpt><trkpt lat="44.1910216" lon="10.2826239"><ele>572.0</ele><time>2026-05-03T08:07:44.267Z</time></trkpt><trkpt lat="44.1911705" lon="10.2824438"><ele>573.0</ele><time>2026-05-03T08:07:45.266Z</time></trkpt><trkpt lat="44.1913118" lon="10.2822188"><ele>574.0</ele><time>2026-05-03T08:07:46.268Z</time></trkpt><trkpt lat="44.1914665" lon="10.2819998"><ele>575.0</ele><time>2026-05-03T08:07:47.269Z</time></trkpt><trkpt lat="44.1916181" lon="10.281827"><ele>575.0</ele><time>2026-05-03T08:07:48.268Z</time></trkpt><trkpt lat="44.1917377" lon="10.2816392"><ele>575.0</ele><time>2026-05-03T08:07:49.269Z</time></trkpt><trkpt lat="44.1918582" lon="10.2814776"><ele>575.0</ele><time>2026-05-03T08:07:50.272Z</time></trkpt><trkpt lat="44.1919876" lon="10.2813483"><ele>570.3333333333333</ele><time>2026-05-03T08:07:51.272Z</time></trkpt><trkpt lat="44.1921311" lon="10.281265"><ele>565.6666666666666</ele><time>2026-05-03T08:07:52.268Z</time></trkpt><trkpt lat="44.1923291" lon="10.2812063"><ele>561.0</ele><time>2026-05-03T08:07:53.273Z</time></trkpt><trkpt lat="44.1925795" lon="10.2811844"><ele>561.0</ele><time>2026-05-03T08:07:54.272Z</time></trkpt><trkpt lat="44.1927954" lon="10.2811482"><ele>561.0</ele><time>2026-05-03T08:07:55.269Z</time></trkpt><trkpt lat="44.1929698" lon="10.2811142"><ele>561.0</ele><time>2026-05-03T08:07:56.269Z</time></trkpt><trkpt lat="44.1931135" lon="10.2810981"><ele>562.3333333333334</ele><time>2026-05-03T08:07:57.269Z</time></trkpt><trkpt lat="44.1932855" lon="10.2810935"><ele>563.6666666666667</ele><time>2026-05-03T08:07:58.268Z</time></trkpt><trkpt lat="44.1934352" lon="10.2810832"><ele>565.0</ele><time>2026-05-03T08:07:59.268Z</time></trkpt><trkpt lat="44.1935635" lon="10.2811243"><ele>565.0</ele><time>2026-05-03T08:08:00.271Z</time></trkpt><trkpt lat="44.1936817" lon="10.2812336"><ele>565.0</ele><time>2026-05-03T08:08:01.269Z</time></trkpt><trkpt lat="44.1937344" lon="10.2814139"><ele>565.0</ele><time>2026-05-03T08:08:02.262Z</time></trkpt><trkpt lat="44.1938067" lon="10.2816366"><ele>569.6666666666667</ele><time>2026-05-03T08:08:03.262Z</time></trkpt><trkpt lat="44.1939034" lon="10.2819142"><ele>574.3333333333334</ele><time>2026-05-03T08:08:04.264Z</time></trkpt><trkpt lat="44.1940648" lon="10.2820644"><ele>579.0</ele><time>2026-05-03T08:08:05.262Z</time></trkpt><trkpt lat="44.1942882" lon="10.2823586"><ele>579.0</ele><time>2026-05-03T08:08:07.263Z</time></trkpt><trkpt lat="44.1944032" lon="10.2824711"><ele>579.0</ele><time>2026-05-03T08:08:08.258Z</time></trkpt><trkpt lat="44.194519" lon="10.2824354"><ele>579.0</ele><time>2026-05-03T08:08:09.259Z</time></trkpt><trkpt lat="44.1946" lon="10.2823342"><ele>579.0</ele><time>2026-05-03T08:08:10.259Z</time></trkpt><trkpt lat="44.1947024" lon="10.2822127"><ele>579.0</ele><time>2026-05-03T08:08:11.262Z</time></trkpt><trkpt lat="44.1947678" lon="10.282088"><ele>579.0</ele><time>2026-05-03T08:08:12.258Z</time></trkpt><trkpt lat="44.194722" lon="10.2818875"><ele>579.0</ele><time>2026-05-03T08:08:13.258Z</time></trkpt><trkpt lat="44.1947152" lon="10.2817172"><ele>579.0</ele><time>2026-05-03T08:08:14.26Z</time></trkpt><trkpt lat="44.1947608" lon="10.2815586"><ele>580.5</ele><time>2026-05-03T08:08:15.259Z</time></trkpt><trkpt lat="44.1948336" lon="10.28141"><ele>582.0</ele><time>2026-05-03T08:08:16.262Z</time></trkpt><trkpt lat="44.1949699" lon="10.2812917"><ele>583.5</ele><time>2026-05-03T08:08:17.258Z</time></trkpt><trkpt lat="44.1950905" lon="10.2811565"><ele>585.0</ele><time>2026-05-03T08:08:18.265Z</time></trkpt><trkpt lat="44.1951883" lon="10.2809908"><ele>585.0</ele><time>2026-05-03T08:08:19.263Z</time></trkpt><trkpt lat="44.1952762" lon="10.2807876"><ele>585.0</ele><time>2026-05-03T08:08:20.26Z</time></trkpt><trkpt lat="44.1953132" lon="10.2805574"><ele>585.0</ele><time>2026-05-03T08:08:21.262Z</time></trkpt><trkpt lat="44.1953154" lon="10.2802926"><ele>582.6666666666666</ele><time>2026-05-03T08:08:22.261Z</time></trkpt><trkpt lat="44.1953217" lon="10.2800445"><ele>580.3333333333333</ele><time>2026-05-03T08:08:23.261Z</time></trkpt><trkpt lat="44.195341" lon="10.2798316"><ele>578.0</ele><time>2026-05-03T08:08:24.262Z</time></trkpt><trkpt lat="44.1953793" lon="10.2796365"><ele>579.0</ele><time>2026-05-03T08:08:25.265Z</time></trkpt><trkpt lat="44.1955018" lon="10.2795517"><ele>580.0</ele><time>2026-05-03T08:08:26.265Z</time></trkpt><trkpt lat="44.1955689" lon="10.2794595"><ele>581.0</ele><time>2026-05-03T08:08:27.269Z</time></trkpt><trkpt lat="44.1956889" lon="10.2794151"><ele>582.0</ele><time>2026-05-03T08:08:28.273Z</time></trkpt><trkpt lat="44.1957876" lon="10.2794258"><ele>582.0</ele><time>2026-05-03T08:08:29.258Z</time></trkpt><trkpt lat="44.1958945" lon="10.2795198"><ele>582.0</ele><time>2026-05-03T08:08:30.262Z</time></trkpt><trkpt lat="44.1960713" lon="10.279607"><ele>582.0</ele><time>2026-05-03T08:08:31.27Z</time></trkpt><trkpt lat="44.1962262" lon="10.279724"><ele>582.0</ele><time>2026-05-03T08:08:32.267Z</time></trkpt><trkpt lat="44.1963155" lon="10.2797506"><ele>582.0</ele><time>2026-05-03T08:08:33.263Z</time></trkpt><trkpt lat="44.1964341" lon="10.2796644"><ele>582.0</ele><time>2026-05-03T08:08:34.264Z</time></trkpt><trkpt lat="44.1965558" lon="10.2795165"><ele>582.0</ele><time>2026-05-03T08:08:35.263Z</time></trkpt><trkpt lat="44.1965828" lon="10.2793797"><ele>582.75</ele><time>2026-05-03T08:08:36.271Z</time></trkpt><trkpt lat="44.1966479" lon="10.2792727"><ele>583.5</ele><time>2026-05-03T08:08:37.271Z</time></trkpt><trkpt lat="44.1967553" lon="10.2791597"><ele>584.25</ele><time>2026-05-03T08:08:38.267Z</time></trkpt><trkpt lat="44.1968236" lon="10.2790525"><ele>585.0</ele><time>2026-05-03T08:08:39.277Z</time></trkpt><trkpt lat="44.1968934" lon="10.2789062"><ele>585.0</ele><time>2026-05-03T08:08:40.269Z</time></trkpt><trkpt lat="44.1969346" lon="10.2787413"><ele>585.0</ele><time>2026-05-03T08:08:41.271Z</time></trkpt><trkpt lat="44.1970051" lon="10.2786156"><ele>585.0</ele><time>2026-05-03T08:08:42.269Z</time></trkpt><trkpt lat="44.1970247" lon="10.2784436"><ele>585.0</ele><time>2026-05-03T08:08:43.27Z</time></trkpt><trkpt lat="44.1970279" lon="10.2782394"><ele>582.5</ele><time>2026-05-03T08:08:44.266Z</time></trkpt><trkpt lat="44.1970344" lon="10.2780394"><ele>580.0</ele><time>2026-05-03T08:08:45.273Z</time></trkpt><trkpt lat="44.1970605" lon="10.2778617"><ele>577.5</ele><time>2026-05-03T08:08:46.269Z</time></trkpt><trkpt lat="44.1971177" lon="10.2777015"><ele>575.0</ele><time>2026-05-03T08:08:47.271Z</time></trkpt><trkpt lat="44.1972248" lon="10.2775897"><ele>578.6666666666666</ele><time>2026-05-03T08:08:48.265Z</time></trkpt><trkpt lat="44.1973429" lon="10.2774872"><ele>582.3333333333334</ele><time>2026-05-03T08:08:49.259Z</time></trkpt><trkpt lat="44.1974875" lon="10.2774112"><ele>586.0</ele><time>2026-05-03T08:08:50.257Z</time></trkpt><trkpt lat="44.1976868" lon="10.2773576"><ele>586.0</ele><time>2026-05-03T08:08:51.258Z</time></trkpt><trkpt lat="44.1978874" lon="10.2773171"><ele>586.0</ele><time>2026-05-03T08:08:52.257Z</time></trkpt><trkpt lat="44.1980752" lon="10.277279"><ele>586.0</ele><time>2026-05-03T08:08:53.261Z</time></trkpt><trkpt lat="44.1982409" lon="10.2772679"><ele>586.0</ele><time>2026-05-03T08:08:54.262Z</time></trkpt><trkpt lat="44.1983687" lon="10.2772258"><ele>586.0</ele><time>2026-05-03T08:08:55.245Z</time></trkpt><trkpt lat="44.1984525" lon="10.2771271"><ele>586.0</ele><time>2026-05-03T08:08:56.23Z</time></trkpt><trkpt lat="44.1985064" lon="10.2769795"><ele>586.0</ele><time>2026-05-03T08:08:57.228Z</time></trkpt><trkpt lat="44.1985359" lon="10.2768186"><ele>586.0</ele><time>2026-05-03T08:08:58.23Z</time></trkpt><trkpt lat="44.1985565" lon="10.2766627"><ele>586.0</ele><time>2026-05-03T08:08:59.245Z</time></trkpt><trkpt lat="44.1986151" lon="10.2765105"><ele>586.0</ele><time>2026-05-03T08:09:00.238Z</time></trkpt><trkpt lat="44.1986913" lon="10.2763532"><ele>586.0</ele><time>2026-05-03T08:09:01.244Z</time></trkpt><trkpt lat="44.198729" lon="10.2762194"><ele>589.0</ele><time>2026-05-03T08:09:02.254Z</time></trkpt><trkpt lat="44.1987481" lon="10.2760861"><ele>592.0</ele><time>2026-05-03T08:09:03.257Z</time></trkpt><trkpt lat="44.1988034" lon="10.2759882"><ele>595.0</ele><time>2026-05-03T08:09:04.261Z</time></trkpt><trkpt lat="44.1988489" lon="10.2758892"><ele>598.0</ele><time>2026-05-03T08:09:05.261Z</time></trkpt><trkpt lat="44.1988866" lon="10.2757696"><ele>601.0</ele><time>2026-05-03T08:09:06.263Z</time></trkpt><trkpt lat="44.1989224" lon="10.2756579"><ele>601.0</ele><time>2026-05-03T08:09:07.259Z</time></trkpt><trkpt lat="44.1989513" lon="10.2755538"><ele>601.0</ele><time>2026-05-03T08:09:08.24Z</time></trkpt><trkpt lat="44.1988771" lon="10.2756532"><ele>601.0</ele><time>2026-05-03T08:09:09.228Z</time></trkpt><trkpt lat="44.1987776" lon="10.2757847"><ele>601.0</ele><time>2026-05-03T08:09:10.228Z</time></trkpt><trkpt lat="44.1986716" lon="10.2759283"><ele>601.0</ele><time>2026-05-03T08:09:11.229Z</time></trkpt><trkpt lat="44.1985578" lon="10.276046"><ele>601.0</ele><time>2026-05-03T08:09:12.229Z</time></trkpt><trkpt lat="44.1984207" lon="10.2761439"><ele>601.0</ele><time>2026-05-03T08:09:13.229Z</time></trkpt><trkpt lat="44.1982754" lon="10.2761673"><ele>601.0</ele><time>2026-05-03T08:09:14.228Z</time></trkpt><trkpt lat="44.1980876" lon="10.2761674"><ele>604.0</ele><time>2026-05-03T08:09:15.246Z</time></trkpt><trkpt lat="44.1979335" lon="10.2761466"><ele>607.0</ele><time>2026-05-03T08:09:16.262Z</time></trkpt><trkpt lat="44.197801" lon="10.2761782"><ele>610.0</ele><time>2026-05-03T08:09:17.246Z</time></trkpt><trkpt lat="44.1976238" lon="10.2762677"><ele>610.0</ele><time>2026-05-03T08:09:18.229Z</time></trkpt><trkpt lat="44.1974599" lon="10.2763808"><ele>610.0</ele><time>2026-05-03T08:09:19.235Z</time></trkpt><trkpt lat="44.1972691" lon="10.2765494"><ele>610.0</ele><time>2026-05-03T08:09:20.247Z</time></trkpt><trkpt lat="44.1971004" lon="10.276698"><ele>604.0</ele><time>2026-05-03T08:09:21.242Z</time></trkpt><trkpt lat="44.1969112" lon="10.2768133"><ele>598.0</ele><time>2026-05-03T08:09:22.247Z</time></trkpt><trkpt lat="44.1967071" lon="10.2768786"><ele>592.0</ele><time>2026-05-03T08:09:23.262Z</time></trkpt><trkpt lat="44.1965726" lon="10.2768261"><ele>593.6666666666667</ele><time>2026-05-03T08:09:24.259Z</time></trkpt><trkpt lat="44.1964546" lon="10.2767019"><ele>595.3333333333334</ele><time>2026-05-03T08:09:25.26Z</time></trkpt><trkpt lat="44.196332" lon="10.2765216"><ele>597.0</ele><time>2026-05-03T08:09:26.263Z</time></trkpt><trkpt lat="44.1962204" lon="10.2762795"><ele>597.0</ele><time>2026-05-03T08:09:27.259Z</time></trkpt><trkpt lat="44.1960953" lon="10.2760393"><ele>597.0</ele><time>2026-05-03T08:09:28.265Z</time></trkpt><trkpt lat="44.195997" lon="10.2758308"><ele>597.0</ele><time>2026-05-03T08:09:29.261Z</time></trkpt><trkpt lat="44.1958958" lon="10.2756243"><ele>600.6666666666666</ele><time>2026-05-03T08:09:30.259Z</time></trkpt><trkpt lat="44.1958158" lon="10.2754152"><ele>604.3333333333333</ele><time>2026-05-03T08:09:31.267Z</time></trkpt><trkpt lat="44.1956815" lon="10.2753317"><ele>608.0</ele><time>2026-05-03T08:09:32.262Z</time></trkpt><trkpt lat="44.1955145" lon="10.275268"><ele>608.0</ele><time>2026-05-03T08:09:33.26Z</time></trkpt><trkpt lat="44.195309" lon="10.275248"><ele>608.0</ele><time>2026-05-03T08:09:34.263Z</time></trkpt><trkpt lat="44.1950874" lon="10.2752592"><ele>608.0</ele><time>2026-05-03T08:09:35.263Z</time></trkpt><trkpt lat="44.1948153" lon="10.2753545"><ele>609.25</ele><time>2026-05-03T08:09:36.266Z</time></trkpt><trkpt lat="44.1946292" lon="10.2753102"><ele>610.5</ele><time>2026-05-03T08:09:37.264Z</time></trkpt><trkpt lat="44.1945248" lon="10.2753047"><ele>611.75</ele><time>2026-05-03T08:09:38.263Z</time></trkpt><trkpt lat="44.1944481" lon="10.2752544"><ele>613.0</ele><time>2026-05-03T08:09:39.262Z</time></trkpt><trkpt lat="44.1943692" lon="10.2751698"><ele>613.0</ele><time>2026-05-03T08:09:40.259Z</time></trkpt><trkpt lat="44.1943601" lon="10.2750478"><ele>613.0</ele><time>2026-05-03T08:09:41.259Z</time></trkpt><trkpt lat="44.1943416" lon="10.2749251"><ele>613.0</ele><time>2026-05-03T08:09:42.256Z</time></trkpt><trkpt lat="44.1943521" lon="10.2747417"><ele>613.0</ele><time>2026-05-03T08:09:43.253Z</time></trkpt><trkpt lat="44.1943772" lon="10.2745225"><ele>613.0</ele><time>2026-05-03T08:09:44.257Z</time></trkpt><trkpt lat="44.1944019" lon="10.2743081"><ele>613.0</ele><time>2026-05-03T08:09:45.256Z</time></trkpt><trkpt lat="44.1944673" lon="10.2740583"><ele>613.0</ele><time>2026-05-03T08:09:46.26Z</time></trkpt><trkpt lat="44.1945267" lon="10.2738681"><ele>615.0</ele><time>2026-05-03T08:09:47.262Z</time></trkpt><trkpt lat="44.1946245" lon="10.2736407"><ele>617.0</ele><time>2026-05-03T08:09:48.262Z</time></trkpt><trkpt lat="44.1947088" lon="10.2734559"><ele>619.0</ele><time>2026-05-03T08:09:49.261Z</time></trkpt><trkpt lat="44.1948017" lon="10.2733179"><ele>620.0</ele><time>2026-05-03T08:09:50.267Z</time></trkpt><trkpt lat="44.1949047" lon="10.2732246"><ele>621.0</ele><time>2026-05-03T08:09:51.265Z</time></trkpt><trkpt lat="44.195048" lon="10.2731489"><ele>622.0</ele><time>2026-05-03T08:09:52.266Z</time></trkpt><trkpt lat="44.1952198" lon="10.2731478"><ele>623.0</ele><time>2026-05-03T08:09:53.271Z</time></trkpt><trkpt lat="44.1953421" lon="10.2731708"><ele>623.0</ele><time>2026-05-03T08:09:54.268Z</time></trkpt><trkpt lat="44.19548" lon="10.2732095"><ele>623.0</ele><time>2026-05-03T08:09:55.263Z</time></trkpt><trkpt lat="44.1955824" lon="10.2732257"><ele>623.0</ele><time>2026-05-03T08:09:56.269Z</time></trkpt><trkpt lat="44.1956514" lon="10.2732357"><ele>623.0</ele><time>2026-05-03T08:09:57.265Z</time></trkpt><trkpt lat="44.1957185" lon="10.2731705"><ele>623.0</ele><time>2026-05-03T08:09:59.267Z</time></trkpt><trkpt lat="44.1957279" lon="10.2730675"><ele>625.0</ele><time>2026-05-03T08:10:00.266Z</time></trkpt><trkpt lat="44.1957289" lon="10.2729623"><ele>627.0</ele><time>2026-05-03T08:10:01.267Z</time></trkpt><trkpt lat="44.1957064" lon="10.2728309"><ele>629.0</ele><time>2026-05-03T08:10:02.266Z</time></trkpt><trkpt lat="44.1956299" lon="10.272663"><ele>631.0</ele><time>2026-05-03T08:10:03.264Z</time></trkpt><trkpt lat="44.1955383" lon="10.2724857"><ele>631.0</ele><time>2026-05-03T08:10:04.265Z</time></trkpt><trkpt lat="44.1954409" lon="10.2723325"><ele>631.0</ele><time>2026-05-03T08:10:05.263Z</time></trkpt><trkpt lat="44.1953515" lon="10.2721996"><ele>631.0</ele><time>2026-05-03T08:10:06.27Z</time></trkpt><trkpt lat="44.1952765" lon="10.2720933"><ele>631.0</ele><time>2026-05-03T08:10:07.264Z</time></trkpt><trkpt lat="44.1952062" lon="10.271979"><ele>631.0</ele><time>2026-05-03T08:10:08.258Z</time></trkpt><trkpt lat="44.1951377" lon="10.2718738"><ele>631.0</ele><time>2026-05-03T08:10:09.271Z</time></trkpt><trkpt lat="44.1951188" lon="10.2717447"><ele>631.0</ele><time>2026-05-03T08:10:10.264Z</time></trkpt><trkpt lat="44.1951384" lon="10.2715896"><ele>631.0</ele><time>2026-05-03T08:10:11.265Z</time></trkpt><trkpt lat="44.1951558" lon="10.2714326"><ele>631.0</ele><time>2026-05-03T08:10:12.262Z</time></trkpt><trkpt lat="44.1951888" lon="10.2712682"><ele>631.0</ele><time>2026-05-03T08:10:13.26Z</time></trkpt><trkpt lat="44.1952344" lon="10.2711029"><ele>631.0</ele><time>2026-05-03T08:10:14.26Z</time></trkpt><trkpt lat="44.1952796" lon="10.2709408"><ele>631.0</ele><time>2026-05-03T08:10:15.261Z</time></trkpt><trkpt lat="44.1953362" lon="10.2707664"><ele>631.0</ele><time>2026-05-03T08:10:16.271Z</time></trkpt><trkpt lat="44.1953681" lon="10.270552"><ele>633.6666666666667</ele><time>2026-05-03T08:10:17.276Z</time></trkpt><trkpt lat="44.1953227" lon="10.2703682"><ele>636.3333333333334</ele><time>2026-05-03T08:10:18.268Z</time></trkpt><trkpt lat="44.1952488" lon="10.2701723"><ele>639.0</ele><time>2026-05-03T08:10:19.273Z</time></trkpt><trkpt lat="44.1951194" lon="10.2699883"><ele>639.0</ele><time>2026-05-03T08:10:20.274Z</time></trkpt><trkpt lat="44.1950168" lon="10.269802"><ele>639.0</ele><time>2026-05-03T08:10:21.276Z</time></trkpt><trkpt lat="44.1949655" lon="10.269655"><ele>639.0</ele><time>2026-05-03T08:10:22.273Z</time></trkpt><trkpt lat="44.1949264" lon="10.2695061"><ele>639.0</ele><time>2026-05-03T08:10:23.267Z</time></trkpt><trkpt lat="44.1949285" lon="10.2693046"><ele>639.25</ele><time>2026-05-03T08:10:24.262Z</time></trkpt><trkpt lat="44.1949267" lon="10.2690735"><ele>639.5</ele><time>2026-05-03T08:10:25.261Z</time></trkpt><trkpt lat="44.1949242" lon="10.2689157"><ele>639.75</ele><time>2026-05-03T08:10:26.261Z</time></trkpt><trkpt lat="44.1949475" lon="10.2687406"><ele>640.0</ele><time>2026-05-03T08:10:27.262Z</time></trkpt><trkpt lat="44.1950476" lon="10.2685795"><ele>639.0</ele><time>2026-05-03T08:10:28.268Z</time></trkpt><trkpt lat="44.1952235" lon="10.2684982"><ele>638.0</ele><time>2026-05-03T08:10:29.273Z</time></trkpt><trkpt lat="44.1953735" lon="10.268287"><ele>637.0</ele><time>2026-05-03T08:10:30.274Z</time></trkpt><trkpt lat="44.195486" lon="10.2681353"><ele>638.3333333333334</ele><time>2026-05-03T08:10:31.276Z</time></trkpt><trkpt lat="44.1956023" lon="10.2679228"><ele>639.6666666666666</ele><time>2026-05-03T08:10:32.269Z</time></trkpt><trkpt lat="44.1955827" lon="10.267668"><ele>641.0</ele><time>2026-05-03T08:10:33.27Z</time></trkpt><trkpt lat="44.1955768" lon="10.2674488"><ele>642.6666666666666</ele><time>2026-05-03T08:10:34.272Z</time></trkpt><trkpt lat="44.1954938" lon="10.2670715"><ele>644.3333333333334</ele><time>2026-05-03T08:10:36.268Z</time></trkpt><trkpt lat="44.1955455" lon="10.2668518"><ele>646.0</ele><time>2026-05-03T08:10:37.27Z</time></trkpt><trkpt lat="44.1956411" lon="10.2665875"><ele>653.0</ele><time>2026-05-03T08:10:38.272Z</time></trkpt><trkpt lat="44.1957118" lon="10.2662941"><ele>660.0</ele><time>2026-05-03T08:10:39.272Z</time></trkpt><trkpt lat="44.1957388" lon="10.266086"><ele>667.0</ele><time>2026-05-03T08:10:40.283Z</time></trkpt><trkpt lat="44.1957236" lon="10.2659102"><ele>667.0</ele><time>2026-05-03T08:10:41.271Z</time></trkpt><trkpt lat="44.1957263" lon="10.265766"><ele>667.0</ele><time>2026-05-03T08:10:42.267Z</time></trkpt><trkpt lat="44.1957468" lon="10.2656201"><ele>667.0</ele><time>2026-05-03T08:10:43.267Z</time></trkpt><trkpt lat="44.195797" lon="10.2655214"><ele>667.0</ele><time>2026-05-03T08:10:44.268Z</time></trkpt><trkpt lat="44.1958455" lon="10.2654004"><ele>667.0</ele><time>2026-05-03T08:10:45.28Z</time></trkpt><trkpt lat="44.1958917" lon="10.2652559"><ele>666.75</ele><time>2026-05-03T08:10:46.27Z</time></trkpt><trkpt lat="44.1959095" lon="10.2650703"><ele>666.5</ele><time>2026-05-03T08:10:47.272Z</time></trkpt><trkpt lat="44.1959584" lon="10.2649206"><ele>666.25</ele><time>2026-05-03T08:10:48.269Z</time></trkpt><trkpt lat="44.1960061" lon="10.2647915"><ele>666.0</ele><time>2026-05-03T08:10:49.269Z</time></trkpt><trkpt lat="44.1960773" lon="10.2646867"><ele>665.3333333333334</ele><time>2026-05-03T08:10:50.283Z</time></trkpt><trkpt lat="44.1961838" lon="10.264606"><ele>664.6666666666667</ele><time>2026-05-03T08:10:51.267Z</time></trkpt><trkpt lat="44.1963387" lon="10.2645102"><ele>664.0</ele><time>2026-05-03T08:10:52.267Z</time></trkpt><trkpt lat="44.1965461" lon="10.2644128"><ele>668.0</ele><time>2026-05-03T08:10:53.268Z</time></trkpt><trkpt lat="44.1966795" lon="10.2642985"><ele>672.0</ele><time>2026-05-03T08:10:54.271Z</time></trkpt><trkpt lat="44.1967946" lon="10.264152"><ele>676.0</ele><time>2026-05-03T08:10:55.28Z</time></trkpt><trkpt lat="44.1968829" lon="10.2639741"><ele>673.6666666666667</ele><time>2026-05-03T08:10:56.268Z</time></trkpt><trkpt lat="44.1970124" lon="10.2638189"><ele>671.3333333333334</ele><time>2026-05-03T08:10:57.267Z</time></trkpt><trkpt lat="44.1971484" lon="10.263694"><ele>669.0</ele><time>2026-05-03T08:10:58.264Z</time></trkpt><trkpt lat="44.1972789" lon="10.263607"><ele>673.3333333333334</ele><time>2026-05-03T08:10:59.264Z</time></trkpt><trkpt lat="44.1974468" lon="10.2635678"><ele>677.6666666666667</ele><time>2026-05-03T08:11:00.279Z</time></trkpt><trkpt lat="44.1976613" lon="10.2635726"><ele>682.0</ele><time>2026-05-03T08:11:01.27Z</time></trkpt><trkpt lat="44.1978851" lon="10.2635714"><ele>682.0</ele><time>2026-05-03T08:11:02.27Z</time></trkpt><trkpt lat="44.1980522" lon="10.2635604"><ele>682.0</ele><time>2026-05-03T08:11:03.266Z</time></trkpt><trkpt lat="44.1982189" lon="10.2635928"><ele>682.0</ele><time>2026-05-03T08:11:04.27Z</time></trkpt><trkpt lat="44.1983147" lon="10.2637048"><ele>682.0</ele><time>2026-05-03T08:11:05.284Z</time></trkpt><trkpt lat="44.1983396" lon="10.2638423"><ele>682.0</ele><time>2026-05-03T08:11:06.264Z</time></trkpt><trkpt lat="44.198283" lon="10.2639984"><ele>682.0</ele><time>2026-05-03T08:11:07.266Z</time></trkpt><trkpt lat="44.1982369" lon="10.264089"><ele>682.0</ele><time>2026-05-03T08:11:08.266Z</time></trkpt><trkpt lat="44.1981174" lon="10.2641569"><ele>682.0</ele><time>2026-05-03T08:11:09.271Z</time></trkpt><trkpt lat="44.1979973" lon="10.2642153"><ele>682.5</ele><time>2026-05-03T08:11:10.279Z</time></trkpt><trkpt lat="44.197875" lon="10.2642862"><ele>683.0</ele><time>2026-05-03T08:11:11.267Z</time></trkpt><trkpt lat="44.1977728" lon="10.2643507"><ele>683.5</ele><time>2026-05-03T08:11:12.265Z</time></trkpt><trkpt lat="44.1976762" lon="10.2643996"><ele>684.0</ele><time>2026-05-03T08:11:13.259Z</time></trkpt><trkpt lat="44.1975621" lon="10.264544"><ele>684.0</ele><time>2026-05-03T08:11:14.262Z</time></trkpt><trkpt lat="44.1975375" lon="10.2646352"><ele>684.0</ele><time>2026-05-03T08:11:15.277Z</time></trkpt><trkpt lat="44.1975977" lon="10.2647744"><ele>684.0</ele><time>2026-05-03T08:11:16.263Z</time></trkpt><trkpt lat="44.1977047" lon="10.2649599"><ele>684.0</ele><time>2026-05-03T08:11:17.265Z</time></trkpt><trkpt lat="44.1977965" lon="10.2650886"><ele>685.5</ele><time>2026-05-03T08:11:18.265Z</time></trkpt><trkpt lat="44.1978426" lon="10.2652673"><ele>687.0</ele><time>2026-05-03T08:11:19.27Z</time></trkpt><trkpt lat="44.1979286" lon="10.2653828"><ele>688.5</ele><time>2026-05-03T08:11:20.279Z</time></trkpt><trkpt lat="44.1980381" lon="10.2654654"><ele>690.0</ele><time>2026-05-03T08:11:21.298Z</time></trkpt><trkpt lat="44.1981348" lon="10.2655264"><ele>692.3333333333334</ele><time>2026-05-03T08:11:22.269Z</time></trkpt><trkpt lat="44.1982712" lon="10.2655229"><ele>694.6666666666667</ele><time>2026-05-03T08:11:23.272Z</time></trkpt><trkpt lat="44.1984161" lon="10.2655196"><ele>697.0</ele><time>2026-05-03T08:11:24.263Z</time></trkpt><trkpt lat="44.1986186" lon="10.2655088"><ele>697.0</ele><time>2026-05-03T08:11:25.274Z</time></trkpt><trkpt lat="44.1988246" lon="10.2654914"><ele>697.0</ele><time>2026-05-03T08:11:26.26Z</time></trkpt><trkpt lat="44.1989905" lon="10.2654466"><ele>697.0</ele><time>2026-05-03T08:11:27.238Z</time></trkpt><trkpt lat="44.1991007" lon="10.2654176"><ele>698.2</ele><time>2026-05-03T08:11:28.226Z</time></trkpt><trkpt lat="44.1991961" lon="10.2653874"><ele>699.4000000000001</ele><time>2026-05-03T08:11:29.25Z</time></trkpt><trkpt lat="44.1992428" lon="10.2653048"><ele>700.5999999999999</ele><time>2026-05-03T08:11:30.272Z</time></trkpt><trkpt lat="44.1993067" lon="10.2651647"><ele>701.8</ele><time>2026-05-03T08:11:32.266Z</time></trkpt><trkpt lat="44.1993483" lon="10.2650283"><ele>703.0</ele><time>2026-05-03T08:11:33.272Z</time></trkpt><trkpt lat="44.1994173" lon="10.2648791"><ele>702.25</ele><time>2026-05-03T08:11:34.27Z</time></trkpt><trkpt lat="44.1994879" lon="10.2647196"><ele>701.5</ele><time>2026-05-03T08:11:35.288Z</time></trkpt><trkpt lat="44.1995469" lon="10.264548"><ele>700.75</ele><time>2026-05-03T08:11:36.263Z</time></trkpt><trkpt lat="44.199587" lon="10.2643336"><ele>700.0</ele><time>2026-05-03T08:11:37.265Z</time></trkpt><trkpt lat="44.1996162" lon="10.2640506"><ele>698.0</ele><time>2026-05-03T08:11:38.262Z</time></trkpt><trkpt lat="44.1996046" lon="10.2638182"><ele>696.0</ele><time>2026-05-03T08:11:39.265Z</time></trkpt><trkpt lat="44.1996741" lon="10.2635599"><ele>694.0</ele><time>2026-05-03T08:11:40.273Z</time></trkpt><trkpt lat="44.1997969" lon="10.2633307"><ele>703.0</ele><time>2026-05-03T08:11:41.268Z</time></trkpt><trkpt lat="44.199948" lon="10.2631193"><ele>712.0</ele><time>2026-05-03T08:11:42.264Z</time></trkpt><trkpt lat="44.2000318" lon="10.2628903"><ele>721.0</ele><time>2026-05-03T08:11:43.265Z</time></trkpt><trkpt lat="44.2000663" lon="10.2626309"><ele>721.0</ele><time>2026-05-03T08:11:44.265Z</time></trkpt><trkpt lat="44.2000904" lon="10.2624139"><ele>721.0</ele><time>2026-05-03T08:11:45.272Z</time></trkpt><trkpt lat="44.2000933" lon="10.2622222"><ele>721.0</ele><time>2026-05-03T08:11:46.261Z</time></trkpt><trkpt lat="44.2000949" lon="10.2620039"><ele>719.3333333333334</ele><time>2026-05-03T08:11:47.262Z</time></trkpt><trkpt lat="44.2000699" lon="10.261758"><ele>717.6666666666666</ele><time>2026-05-03T08:11:48.265Z</time></trkpt><trkpt lat="44.2000572" lon="10.2615873"><ele>716.0</ele><time>2026-05-03T08:11:49.266Z</time></trkpt><trkpt lat="44.2001815" lon="10.2612314"><ele>714.0</ele><time>2026-05-03T08:11:51.267Z</time></trkpt><trkpt lat="44.2003359" lon="10.26119"><ele>712.0</ele><time>2026-05-03T08:11:52.268Z</time></trkpt><trkpt lat="44.2004693" lon="10.2611678"><ele>710.0</ele><time>2026-05-03T08:11:53.276Z</time></trkpt><trkpt lat="44.2006314" lon="10.2612382"><ele>708.6666666666666</ele><time>2026-05-03T08:11:54.271Z</time></trkpt><trkpt lat="44.2008178" lon="10.2613325"><ele>707.3333333333334</ele><time>2026-05-03T08:11:55.279Z</time></trkpt><trkpt lat="44.2009814" lon="10.2614315"><ele>706.0</ele><time>2026-05-03T08:11:56.266Z</time></trkpt><trkpt lat="44.2011669" lon="10.2614441"><ele>709.0</ele><time>2026-05-03T08:11:57.261Z</time></trkpt><trkpt lat="44.2013063" lon="10.2614551"><ele>712.0</ele><time>2026-05-03T08:11:58.259Z</time></trkpt><trkpt lat="44.2014317" lon="10.2614917"><ele>715.0</ele><time>2026-05-03T08:11:59.264Z</time></trkpt><trkpt lat="44.2015428" lon="10.2615646"><ele>718.0</ele><time>2026-05-03T08:12:00.273Z</time></trkpt><trkpt lat="44.2016367" lon="10.261747"><ele>718.0</ele><time>2026-05-03T08:12:01.266Z</time></trkpt><trkpt lat="44.2016683" lon="10.2619291"><ele>718.0</ele><time>2026-05-03T08:12:02.262Z</time></trkpt><trkpt lat="44.2016026" lon="10.262109"><ele>718.0</ele><time>2026-05-03T08:12:03.265Z</time></trkpt><trkpt lat="44.201513" lon="10.2622948"><ele>718.0</ele><time>2026-05-03T08:12:04.265Z</time></trkpt><trkpt lat="44.2014715" lon="10.2624788"><ele>721.5</ele><time>2026-05-03T08:12:05.267Z</time></trkpt><trkpt lat="44.2014838" lon="10.2626493"><ele>725.0</ele><time>2026-05-03T08:12:06.258Z</time></trkpt><trkpt lat="44.2015338" lon="10.2627943"><ele>728.5</ele><time>2026-05-03T08:12:07.255Z</time></trkpt><trkpt lat="44.2015919" lon="10.2629311"><ele>732.0</ele><time>2026-05-03T08:12:08.24Z</time></trkpt><trkpt lat="44.2016788" lon="10.2630168"><ele>732.0</ele><time>2026-05-03T08:12:09.251Z</time></trkpt><trkpt lat="44.2017911" lon="10.2630725"><ele>732.0</ele><time>2026-05-03T08:12:10.273Z</time></trkpt><trkpt lat="44.2019243" lon="10.2630846"><ele>732.0</ele><time>2026-05-03T08:12:11.264Z</time></trkpt><trkpt lat="44.2020719" lon="10.2630594"><ele>732.0</ele><time>2026-05-03T08:12:12.269Z</time></trkpt><trkpt lat="44.2021964" lon="10.2630423"><ele>732.0</ele><time>2026-05-03T08:12:13.266Z</time></trkpt><trkpt lat="44.2022731" lon="10.2630772"><ele>732.0</ele><time>2026-05-03T08:12:14.264Z</time></trkpt><trkpt lat="44.2024113" lon="10.2632241"><ele>732.0</ele><time>2026-05-03T08:12:16.264Z</time></trkpt><trkpt lat="44.2024684" lon="10.2633396"><ele>732.0</ele><time>2026-05-03T08:12:17.268Z</time></trkpt><trkpt lat="44.2025407" lon="10.263433"><ele>734.8333333333334</ele><time>2026-05-03T08:12:18.261Z</time></trkpt><trkpt lat="44.2025917" lon="10.2635283"><ele>737.6666666666666</ele><time>2026-05-03T08:12:19.261Z</time></trkpt><trkpt lat="44.2026503" lon="10.2635835"><ele>740.5</ele><time>2026-05-03T08:12:20.277Z</time></trkpt><trkpt lat="44.2027189" lon="10.2636106"><ele>743.3333333333333</ele><time>2026-05-03T08:12:21.268Z</time></trkpt><trkpt lat="44.2027995" lon="10.2635564"><ele>746.1666666666666</ele><time>2026-05-03T08:12:22.267Z</time></trkpt><trkpt lat="44.2028903" lon="10.2634554"><ele>749.0</ele><time>2026-05-03T08:12:23.266Z</time></trkpt><trkpt lat="44.2029749" lon="10.2633186"><ele>749.0</ele><time>2026-05-03T08:12:24.267Z</time></trkpt><trkpt lat="44.2030699" lon="10.2631734"><ele>749.0</ele><time>2026-05-03T08:12:25.278Z</time></trkpt><trkpt lat="44.2031467" lon="10.2630683"><ele>749.0</ele><time>2026-05-03T08:12:26.264Z</time></trkpt><trkpt lat="44.2032403" lon="10.262987"><ele>749.0</ele><time>2026-05-03T08:12:27.263Z</time></trkpt><trkpt lat="44.203342" lon="10.2629277"><ele>749.0</ele><time>2026-05-03T08:12:28.263Z</time></trkpt><trkpt lat="44.2034348" lon="10.2628707"><ele>749.0</ele><time>2026-05-03T08:12:29.263Z</time></trkpt><trkpt lat="44.2035354" lon="10.2627818"><ele>749.0</ele><time>2026-05-03T08:12:30.274Z</time></trkpt><trkpt lat="44.2035566" lon="10.262606"><ele>749.0</ele><time>2026-05-03T08:12:31.273Z</time></trkpt><trkpt lat="44.2036064" lon="10.2623911"><ele>745.6666666666666</ele><time>2026-05-03T08:12:32.266Z</time></trkpt><trkpt lat="44.2036633" lon="10.2621906"><ele>742.3333333333334</ele><time>2026-05-03T08:12:33.265Z</time></trkpt><trkpt lat="44.2037131" lon="10.2619876"><ele>739.0</ele><time>2026-05-03T08:12:34.266Z</time></trkpt><trkpt lat="44.2037769" lon="10.2617487"><ele>739.0</ele><time>2026-05-03T08:12:35.28Z</time></trkpt><trkpt lat="44.2038655" lon="10.2615799"><ele>739.0</ele><time>2026-05-03T08:12:36.263Z</time></trkpt><trkpt lat="44.2039326" lon="10.2613519"><ele>739.0</ele><time>2026-05-03T08:12:37.263Z</time></trkpt><trkpt lat="44.204026" lon="10.2611543"><ele>746.0</ele><time>2026-05-03T08:12:38.259Z</time></trkpt><trkpt lat="44.2041169" lon="10.2609468"><ele>753.0</ele><time>2026-05-03T08:12:39.261Z</time></trkpt><trkpt lat="44.204188" lon="10.2607035"><ele>760.0</ele><time>2026-05-03T08:12:40.275Z</time></trkpt><trkpt lat="44.2042616" lon="10.2604865"><ele>760.0</ele><time>2026-05-03T08:12:41.261Z</time></trkpt><trkpt lat="44.2043646" lon="10.2600765"><ele>760.0</ele><time>2026-05-03T08:12:43.265Z</time></trkpt><trkpt lat="44.204465" lon="10.2599602"><ele>760.0</ele><time>2026-05-03T08:12:44.265Z</time></trkpt><trkpt lat="44.2046179" lon="10.2598423"><ele>760.0</ele><time>2026-05-03T08:12:45.273Z</time></trkpt><trkpt lat="44.204771" lon="10.2597661"><ele>760.0</ele><time>2026-05-03T08:12:46.266Z</time></trkpt><trkpt lat="44.2049147" lon="10.259708"><ele>760.0</ele><time>2026-05-03T08:12:47.257Z</time></trkpt><trkpt lat="44.2050951" lon="10.2596116"><ele>761.0</ele><time>2026-05-03T08:12:48.264Z</time></trkpt><trkpt lat="44.2052728" lon="10.2595206"><ele>762.0</ele><time>2026-05-03T08:12:49.262Z</time></trkpt><trkpt lat="44.2054355" lon="10.2594447"><ele>763.0</ele><time>2026-05-03T08:12:50.274Z</time></trkpt><trkpt lat="44.2055682" lon="10.2593392"><ele>766.0</ele><time>2026-05-03T08:12:51.263Z</time></trkpt><trkpt lat="44.2056747" lon="10.2592444"><ele>769.0</ele><time>2026-05-03T08:12:52.264Z</time></trkpt><trkpt lat="44.2057125" lon="10.259042"><ele>772.0</ele><time>2026-05-03T08:12:53.263Z</time></trkpt><trkpt lat="44.2057457" lon="10.2587757"><ele>772.0</ele><time>2026-05-03T08:12:54.26Z</time></trkpt><trkpt lat="44.2057711" lon="10.2585579"><ele>772.0</ele><time>2026-05-03T08:12:55.268Z</time></trkpt><trkpt lat="44.205851" lon="10.2583834"><ele>772.0</ele><time>2026-05-03T08:12:56.257Z</time></trkpt><trkpt lat="44.2059133" lon="10.2581973"><ele>774.0</ele><time>2026-05-03T08:12:57.258Z</time></trkpt><trkpt lat="44.2060208" lon="10.2579893"><ele>776.0</ele><time>2026-05-03T08:12:58.26Z</time></trkpt><trkpt lat="44.2061283" lon="10.2577573"><ele>778.0</ele><time>2026-05-03T08:12:59.254Z</time></trkpt><trkpt lat="44.2062498" lon="10.2574986"><ele>781.3333333333333</ele><time>2026-05-03T08:13:00.26Z</time></trkpt><trkpt lat="44.2063558" lon="10.2572324"><ele>784.6666666666667</ele><time>2026-05-03T08:13:01.272Z</time></trkpt><trkpt lat="44.2064446" lon="10.2570025"><ele>788.0</ele><time>2026-05-03T08:13:02.259Z</time></trkpt><trkpt lat="44.2064811" lon="10.2567899"><ele>787.75</ele><time>2026-05-03T08:13:03.262Z</time></trkpt><trkpt lat="44.2065434" lon="10.2565744"><ele>787.5</ele><time>2026-05-03T08:13:04.264Z</time></trkpt><trkpt lat="44.2065842" lon="10.2564008"><ele>787.25</ele><time>2026-05-03T08:13:06.275Z</time></trkpt><trkpt lat="44.2065959" lon="10.2563002"><ele>787.0</ele><time>2026-05-03T08:13:07.269Z</time></trkpt><trkpt lat="44.2065142" lon="10.2561988"><ele>789.0</ele><time>2026-05-03T08:13:08.261Z</time></trkpt><trkpt lat="44.206384" lon="10.2561395"><ele>791.0</ele><time>2026-05-03T08:13:09.265Z</time></trkpt><trkpt lat="44.2062302" lon="10.2560552"><ele>793.0</ele><time>2026-05-03T08:13:10.262Z</time></trkpt><trkpt lat="44.2060827" lon="10.2559935"><ele>793.0</ele><time>2026-05-03T08:13:11.267Z</time></trkpt><trkpt lat="44.2059437" lon="10.2559169"><ele>793.0</ele><time>2026-05-03T08:13:12.255Z</time></trkpt><trkpt lat="44.2058305" lon="10.2558118"><ele>793.0</ele><time>2026-05-03T08:13:13.254Z</time></trkpt><trkpt lat="44.2057278" lon="10.2556996"><ele>793.0</ele><time>2026-05-03T08:13:14.25Z</time></trkpt><trkpt lat="44.2057115" lon="10.2555488"><ele>793.0</ele><time>2026-05-03T08:13:15.256Z</time></trkpt><trkpt lat="44.205745" lon="10.2553308"><ele>793.0</ele><time>2026-05-03T08:13:16.26Z</time></trkpt><trkpt lat="44.2058299" lon="10.2550251"><ele>793.0</ele><time>2026-05-03T08:13:17.26Z</time></trkpt><trkpt lat="44.2059257" lon="10.2547481"><ele>793.0</ele><time>2026-05-03T08:13:18.257Z</time></trkpt><trkpt lat="44.2059966" lon="10.2544966"><ele>793.0</ele><time>2026-05-03T08:13:19.253Z</time></trkpt><trkpt lat="44.2060489" lon="10.2542804"><ele>793.0</ele><time>2026-05-03T08:13:20.255Z</time></trkpt><trkpt lat="44.2060823" lon="10.254061"><ele>795.3333333333333</ele><time>2026-05-03T08:13:21.267Z</time></trkpt><trkpt lat="44.2060539" lon="10.2538252"><ele>797.6666666666667</ele><time>2026-05-03T08:13:22.256Z</time></trkpt><trkpt lat="44.2060001" lon="10.2535512"><ele>800.0</ele><time>2026-05-03T08:13:23.257Z</time></trkpt><trkpt lat="44.2059252" lon="10.2533337"><ele>802.0</ele><time>2026-05-03T08:13:24.26Z</time></trkpt><trkpt lat="44.2058452" lon="10.2530896"><ele>804.0</ele><time>2026-05-03T08:13:25.258Z</time></trkpt><trkpt lat="44.2057583" lon="10.2528321"><ele>806.0</ele><time>2026-05-03T08:13:26.268Z</time></trkpt><trkpt lat="44.2056903" lon="10.2525749"><ele>798.0</ele><time>2026-05-03T08:13:27.263Z</time></trkpt><trkpt lat="44.2056311" lon="10.2523647"><ele>790.0</ele><time>2026-05-03T08:13:28.259Z</time></trkpt><trkpt lat="44.205584" lon="10.2521264"><ele>782.0</ele><time>2026-05-03T08:13:29.261Z</time></trkpt><trkpt lat="44.2055505" lon="10.2519053"><ele>782.0</ele><time>2026-05-03T08:13:30.241Z</time></trkpt><trkpt lat="44.2056138" lon="10.2517606"><ele>782.0</ele><time>2026-05-03T08:13:31.267Z</time></trkpt><trkpt lat="44.2056996" lon="10.2515813"><ele>782.0</ele><time>2026-05-03T08:13:32.26Z</time></trkpt><trkpt lat="44.2058413" lon="10.2514597"><ele>782.0</ele><time>2026-05-03T08:13:33.262Z</time></trkpt><trkpt lat="44.2059383" lon="10.2513365"><ele>787.4000000000001</ele><time>2026-05-03T08:13:34.264Z</time></trkpt><trkpt lat="44.2060015" lon="10.2512584"><ele>792.8000000000001</ele><time>2026-05-03T08:13:35.262Z</time></trkpt><trkpt lat="44.206055" lon="10.2511534"><ele>798.2</ele><time>2026-05-03T08:13:36.27Z</time></trkpt><trkpt lat="44.2060306" lon="10.2510156"><ele>803.6</ele><time>2026-05-03T08:13:37.258Z</time></trkpt><trkpt lat="44.2059063" lon="10.250861"><ele>809.0</ele><time>2026-05-03T08:13:38.259Z</time></trkpt><trkpt lat="44.2057914" lon="10.2507129"><ele>809.5</ele><time>2026-05-03T08:13:39.253Z</time></trkpt><trkpt lat="44.2057014" lon="10.2505339"><ele>810.0</ele><time>2026-05-03T08:13:40.26Z</time></trkpt><trkpt lat="44.2056252" lon="10.2503494"><ele>810.5</ele><time>2026-05-03T08:13:41.279Z</time></trkpt><trkpt lat="44.205594" lon="10.2501637"><ele>811.0</ele><time>2026-05-03T08:13:42.268Z</time></trkpt><trkpt lat="44.2055944" lon="10.249988"><ele>811.0</ele><time>2026-05-03T08:13:43.275Z</time></trkpt><trkpt lat="44.2056087" lon="10.2498614"><ele>811.0</ele><time>2026-05-03T08:13:44.272Z</time></trkpt><trkpt lat="44.2056941" lon="10.2497252"><ele>811.0</ele><time>2026-05-03T08:13:45.276Z</time></trkpt><trkpt lat="44.2058294" lon="10.2496399"><ele>811.0</ele><time>2026-05-03T08:13:46.284Z</time></trkpt><trkpt lat="44.205977" lon="10.2496378"><ele>811.6666666666666</ele><time>2026-05-03T08:13:47.277Z</time></trkpt><trkpt lat="44.2061448" lon="10.2496362"><ele>812.3333333333333</ele><time>2026-05-03T08:13:48.274Z</time></trkpt><trkpt lat="44.2063403" lon="10.2496307"><ele>813.0</ele><time>2026-05-03T08:13:49.271Z</time></trkpt><trkpt lat="44.2065" lon="10.2496589"><ele>813.0</ele><time>2026-05-03T08:13:50.269Z</time></trkpt><trkpt lat="44.2066704" lon="10.2495695"><ele>813.0</ele><time>2026-05-03T08:13:51.28Z</time></trkpt><trkpt lat="44.2068175" lon="10.2494721"><ele>813.0</ele><time>2026-05-03T08:13:52.271Z</time></trkpt><trkpt lat="44.2069226" lon="10.2493479"><ele>813.0</ele><time>2026-05-03T08:13:53.269Z</time></trkpt><trkpt lat="44.2070412" lon="10.2491834"><ele>813.0</ele><time>2026-05-03T08:13:54.274Z</time></trkpt><trkpt lat="44.2071883" lon="10.2490077"><ele>813.0</ele><time>2026-05-03T08:13:55.27Z</time></trkpt><trkpt lat="44.2072839" lon="10.248866"><ele>815.75</ele><time>2026-05-03T08:13:56.281Z</time></trkpt><trkpt lat="44.2073676" lon="10.2486967"><ele>818.5</ele><time>2026-05-03T08:13:57.268Z</time></trkpt><trkpt lat="44.2073794" lon="10.2485047"><ele>821.25</ele><time>2026-05-03T08:13:58.269Z</time></trkpt><trkpt lat="44.2074134" lon="10.2482831"><ele>824.0</ele><time>2026-05-03T08:13:59.266Z</time></trkpt><trkpt lat="44.2074587" lon="10.2480216"><ele>824.0</ele><time>2026-05-03T08:14:00.268Z</time></trkpt><trkpt lat="44.2074958" lon="10.2477179"><ele>824.0</ele><time>2026-05-03T08:14:01.272Z</time></trkpt><trkpt lat="44.2075296" lon="10.2475218"><ele>824.0</ele><time>2026-05-03T08:14:02.277Z</time></trkpt><trkpt lat="44.2075608" lon="10.2472632"><ele>823.25</ele><time>2026-05-03T08:14:03.266Z</time></trkpt><trkpt lat="44.2075432" lon="10.2471007"><ele>822.5</ele><time>2026-05-03T08:14:04.268Z</time></trkpt><trkpt lat="44.2075216" lon="10.2469488"><ele>821.75</ele><time>2026-05-03T08:14:05.283Z</time></trkpt><trkpt lat="44.2076029" lon="10.2468271"><ele>821.0</ele><time>2026-05-03T08:14:07.289Z</time></trkpt><trkpt lat="44.2076871" lon="10.2467295"><ele>821.0</ele><time>2026-05-03T08:14:08.27Z</time></trkpt><trkpt lat="44.207797" lon="10.2465988"><ele>821.0</ele><time>2026-05-03T08:14:09.262Z</time></trkpt><trkpt lat="44.2078956" lon="10.2464623"><ele>821.0</ele><time>2026-05-03T08:14:10.265Z</time></trkpt><trkpt lat="44.2079607" lon="10.2463381"><ele>821.0</ele><time>2026-05-03T08:14:11.273Z</time></trkpt><trkpt lat="44.2079937" lon="10.2461495"><ele>821.0</ele><time>2026-05-03T08:14:12.279Z</time></trkpt><trkpt lat="44.2079741" lon="10.2459019"><ele>821.0</ele><time>2026-05-03T08:14:13.263Z</time></trkpt><trkpt lat="44.2079973" lon="10.2456947"><ele>821.0</ele><time>2026-05-03T08:14:14.259Z</time></trkpt><trkpt lat="44.2080192" lon="10.2455149"><ele>821.0</ele><time>2026-05-03T08:14:15.267Z</time></trkpt><trkpt lat="44.208036" lon="10.2453615"><ele>821.0</ele><time>2026-05-03T08:14:16.261Z</time></trkpt><trkpt lat="44.2080287" lon="10.2451971"><ele>821.0</ele><time>2026-05-03T08:14:17.259Z</time></trkpt><trkpt lat="44.2079935" lon="10.2450241"><ele>821.0</ele><time>2026-05-03T08:14:18.268Z</time></trkpt><trkpt lat="44.2079224" lon="10.2449083"><ele>821.0</ele><time>2026-05-03T08:14:19.262Z</time></trkpt><trkpt lat="44.2078361" lon="10.2448504"><ele>821.0</ele><time>2026-05-03T08:14:20.264Z</time></trkpt><trkpt lat="44.2077459" lon="10.2448129"><ele>821.0</ele><time>2026-05-03T08:14:21.24Z</time></trkpt><trkpt lat="44.2076558" lon="10.2447867"><ele>821.0</ele><time>2026-05-03T08:14:22.248Z</time></trkpt><trkpt lat="44.2075541" lon="10.2447774"><ele>821.0</ele><time>2026-05-03T08:14:23.241Z</time></trkpt><trkpt lat="44.2074393" lon="10.2448005"><ele>820.5</ele><time>2026-05-03T08:14:24.233Z</time></trkpt><trkpt lat="44.2073027" lon="10.2448241"><ele>820.0</ele><time>2026-05-03T08:14:25.228Z</time></trkpt><trkpt lat="44.2071778" lon="10.2448155"><ele>819.5</ele><time>2026-05-03T08:14:26.254Z</time></trkpt><trkpt lat="44.2071291" lon="10.2446666"><ele>819.0</ele><time>2026-05-03T08:14:28.268Z</time></trkpt><trkpt lat="44.2071247" lon="10.2445368"><ele>819.0</ele><time>2026-05-03T08:14:29.259Z</time></trkpt><trkpt lat="44.207156" lon="10.2443776"><ele>819.0</ele><time>2026-05-03T08:14:30.262Z</time></trkpt><trkpt lat="44.2072209" lon="10.2441912"><ele>819.0</ele><time>2026-05-03T08:14:31.268Z</time></trkpt><trkpt lat="44.2072738" lon="10.2440098"><ele>819.0</ele><time>2026-05-03T08:14:32.26Z</time></trkpt><trkpt lat="44.2073305" lon="10.2438302"><ele>821.8000000000001</ele><time>2026-05-03T08:14:33.264Z</time></trkpt><trkpt lat="44.2073334" lon="10.2436607"><ele>824.6</ele><time>2026-05-03T08:14:34.271Z</time></trkpt><trkpt lat="44.2072929" lon="10.2435202"><ele>827.4</ele><time>2026-05-03T08:14:35.265Z</time></trkpt><trkpt lat="44.2072488" lon="10.2433863"><ele>830.2</ele><time>2026-05-03T08:14:36.259Z</time></trkpt><trkpt lat="44.2071745" lon="10.2433158"><ele>833.0</ele><time>2026-05-03T08:14:37.264Z</time></trkpt><trkpt lat="44.2071061" lon="10.2432844"><ele>834.8</ele><time>2026-05-03T08:14:38.259Z</time></trkpt><trkpt lat="44.2070166" lon="10.2433056"><ele>836.5999999999999</ele><time>2026-05-03T08:14:39.261Z</time></trkpt><trkpt lat="44.2069228" lon="10.243365"><ele>838.4000000000001</ele><time>2026-05-03T08:14:40.261Z</time></trkpt><trkpt lat="44.2068418" lon="10.2434655"><ele>840.2</ele><time>2026-05-03T08:14:41.261Z</time></trkpt><trkpt lat="44.2067684" lon="10.2435936"><ele>842.0</ele><time>2026-05-03T08:14:42.26Z</time></trkpt><trkpt lat="44.2067024" lon="10.2437228"><ele>842.0</ele><time>2026-05-03T08:14:43.262Z</time></trkpt><trkpt lat="44.2065891" lon="10.2438145"><ele>842.0</ele><time>2026-05-03T08:14:44.257Z</time></trkpt><trkpt lat="44.2064676" lon="10.2438877"><ele>842.0</ele><time>2026-05-03T08:14:45.256Z</time></trkpt><trkpt lat="44.206336" lon="10.2439356"><ele>842.0</ele><time>2026-05-03T08:14:46.239Z</time></trkpt><trkpt lat="44.2061635" lon="10.2438726"><ele>840.6666666666667</ele><time>2026-05-03T08:14:47.231Z</time></trkpt><trkpt lat="44.2059844" lon="10.2437966"><ele>839.3333333333333</ele><time>2026-05-03T08:14:48.235Z</time></trkpt><trkpt lat="44.205776" lon="10.2437536"><ele>838.0</ele><time>2026-05-03T08:14:49.231Z</time></trkpt><trkpt lat="44.2055924" lon="10.2436885"><ele>833.0</ele><time>2026-05-03T08:14:50.232Z</time></trkpt><trkpt lat="44.2054091" lon="10.2436276"><ele>828.0</ele><time>2026-05-03T08:14:51.232Z</time></trkpt><trkpt lat="44.2052445" lon="10.2435832"><ele>823.0</ele><time>2026-05-03T08:14:52.234Z</time></trkpt><trkpt lat="44.2050729" lon="10.2435284"><ele>823.0</ele><time>2026-05-03T08:14:53.257Z</time></trkpt><trkpt lat="44.2049827" lon="10.2434534"><ele>823.0</ele><time>2026-05-03T08:14:54.271Z</time></trkpt><trkpt lat="44.2049899" lon="10.2433607"><ele>823.0</ele><time>2026-05-03T08:14:55.268Z</time></trkpt><trkpt lat="44.2051208" lon="10.2432114"><ele>823.0</ele><time>2026-05-03T08:14:57.266Z</time></trkpt><trkpt lat="44.2052565" lon="10.2430954"><ele>824.25</ele><time>2026-05-03T08:14:58.269Z</time></trkpt><trkpt lat="44.2053669" lon="10.2429506"><ele>825.5</ele><time>2026-05-03T08:14:59.268Z</time></trkpt><trkpt lat="44.2054538" lon="10.2427901"><ele>826.75</ele><time>2026-05-03T08:15:00.268Z</time></trkpt><trkpt lat="44.205501" lon="10.2426266"><ele>828.0</ele><time>2026-05-03T08:15:01.245Z</time></trkpt><trkpt lat="44.2055212" lon="10.2424606"><ele>828.0</ele><time>2026-05-03T08:15:02.251Z</time></trkpt><trkpt lat="44.2055169" lon="10.2423053"><ele>828.0</ele><time>2026-05-03T08:15:03.263Z</time></trkpt><trkpt lat="44.2054625" lon="10.2421668"><ele>828.0</ele><time>2026-05-03T08:15:04.264Z</time></trkpt><trkpt lat="44.2054099" lon="10.2420303"><ele>828.0</ele><time>2026-05-03T08:15:05.257Z</time></trkpt><trkpt lat="44.2053583" lon="10.2419163"><ele>828.0</ele><time>2026-05-03T08:15:06.246Z</time></trkpt><trkpt lat="44.2052637" lon="10.2418139"><ele>829.0</ele><time>2026-05-03T08:15:07.23Z</time></trkpt><trkpt lat="44.2051442" lon="10.2417361"><ele>830.0</ele><time>2026-05-03T08:15:08.227Z</time></trkpt><trkpt lat="44.2049959" lon="10.2416552"><ele>831.0</ele><time>2026-05-03T08:15:09.249Z</time></trkpt><trkpt lat="44.2048589" lon="10.2416237"><ele>832.0</ele><time>2026-05-03T08:15:10.257Z</time></trkpt><trkpt lat="44.2047298" lon="10.2416162"><ele>832.0</ele><time>2026-05-03T08:15:11.263Z</time></trkpt><trkpt lat="44.2046072" lon="10.2416009"><ele>832.0</ele><time>2026-05-03T08:15:12.264Z</time></trkpt><trkpt lat="44.2044993" lon="10.2415787"><ele>832.0</ele><time>2026-05-03T08:15:13.262Z</time></trkpt><trkpt lat="44.2043935" lon="10.2415291"><ele>832.0</ele><time>2026-05-03T08:15:14.243Z</time></trkpt><trkpt lat="44.2042827" lon="10.2414575"><ele>834.25</ele><time>2026-05-03T08:15:15.251Z</time></trkpt><trkpt lat="44.2042031" lon="10.2413424"><ele>836.5</ele><time>2026-05-03T08:15:16.264Z</time></trkpt><trkpt lat="44.2041568" lon="10.2411963"><ele>838.75</ele><time>2026-05-03T08:15:17.262Z</time></trkpt><trkpt lat="44.2041443" lon="10.2409907"><ele>841.0</ele><time>2026-05-03T08:15:18.267Z</time></trkpt><trkpt lat="44.2041224" lon="10.2407743"><ele>837.0</ele><time>2026-05-03T08:15:19.262Z</time></trkpt><trkpt lat="44.2040787" lon="10.240533"><ele>833.0</ele><time>2026-05-03T08:15:20.261Z</time></trkpt><trkpt lat="44.2040388" lon="10.2402919"><ele>829.0</ele><time>2026-05-03T08:15:21.259Z</time></trkpt><trkpt lat="44.203963" lon="10.2400828"><ele>829.0</ele><time>2026-05-03T08:15:22.264Z</time></trkpt><trkpt lat="44.2038818" lon="10.2398829"><ele>829.0</ele><time>2026-05-03T08:15:23.265Z</time></trkpt><trkpt lat="44.2037907" lon="10.2397044"><ele>829.0</ele><time>2026-05-03T08:15:24.27Z</time></trkpt><trkpt lat="44.2036858" lon="10.2396148"><ele>829.0</ele><time>2026-05-03T08:15:25.262Z</time></trkpt><trkpt lat="44.2035979" lon="10.2396262"><ele>829.5</ele><time>2026-05-03T08:15:26.266Z</time></trkpt><trkpt lat="44.2034907" lon="10.2396292"><ele>830.0</ele><time>2026-05-03T08:15:27.263Z</time></trkpt><trkpt lat="44.2033526" lon="10.2396382"><ele>830.5</ele><time>2026-05-03T08:15:28.265Z</time></trkpt><trkpt lat="44.2032335" lon="10.2396101"><ele>831.0</ele><time>2026-05-03T08:15:29.269Z</time></trkpt><trkpt lat="44.203091" lon="10.2395342"><ele>831.0</ele><time>2026-05-03T08:15:30.263Z</time></trkpt><trkpt lat="44.2029483" lon="10.2394493"><ele>831.0</ele><time>2026-05-03T08:15:31.26Z</time></trkpt><trkpt lat="44.202856" lon="10.2393199"><ele>831.0</ele><time>2026-05-03T08:15:32.261Z</time></trkpt><trkpt lat="44.2027588" lon="10.2391638"><ele>831.0</ele><time>2026-05-03T08:15:33.263Z</time></trkpt><trkpt lat="44.2027075" lon="10.2389661"><ele>835.25</ele><time>2026-05-03T08:15:34.264Z</time></trkpt><trkpt lat="44.2027261" lon="10.2387292"><ele>839.5</ele><time>2026-05-03T08:15:35.261Z</time></trkpt><trkpt lat="44.2026547" lon="10.238579"><ele>843.75</ele><time>2026-05-03T08:15:36.274Z</time></trkpt><trkpt lat="44.2025439" lon="10.23845"><ele>848.0</ele><time>2026-05-03T08:15:37.266Z</time></trkpt><trkpt lat="44.2024144" lon="10.2383264"><ele>842.6666666666667</ele><time>2026-05-03T08:15:38.257Z</time></trkpt><trkpt lat="44.202305" lon="10.2381802"><ele>837.3333333333333</ele><time>2026-05-03T08:15:39.263Z</time></trkpt><trkpt lat="44.2022066" lon="10.2380132"><ele>832.0</ele><time>2026-05-03T08:15:40.262Z</time></trkpt><trkpt lat="44.2020877" lon="10.2378769"><ele>832.0</ele><time>2026-05-03T08:15:41.258Z</time></trkpt><trkpt lat="44.2020008" lon="10.2377018"><ele>832.0</ele><time>2026-05-03T08:15:42.262Z</time></trkpt><trkpt lat="44.2019852" lon="10.237518"><ele>832.0</ele><time>2026-05-03T08:15:43.261Z</time></trkpt><trkpt lat="44.202075" lon="10.2372663"><ele>834.6</ele><time>2026-05-03T08:15:44.265Z</time></trkpt><trkpt lat="44.2021179" lon="10.237064"><ele>837.2</ele><time>2026-05-03T08:15:45.262Z</time></trkpt><trkpt lat="44.2021289" lon="10.2369076"><ele>839.8</ele><time>2026-05-03T08:15:46.263Z</time></trkpt><trkpt lat="44.2021374" lon="10.2367957"><ele>842.4</ele><time>2026-05-03T08:15:47.257Z</time></trkpt><trkpt lat="44.20219" lon="10.2366918"><ele>845.0</ele><time>2026-05-03T08:15:48.258Z</time></trkpt><trkpt lat="44.2021766" lon="10.2365121"><ele>847.6</ele><time>2026-05-03T08:15:50.23Z</time></trkpt><trkpt lat="44.2021667" lon="10.2363933"><ele>850.2</ele><time>2026-05-03T08:15:51.223Z</time></trkpt><trkpt lat="44.2021582" lon="10.2362705"><ele>852.8</ele><time>2026-05-03T08:15:52.224Z</time></trkpt><trkpt lat="44.2021038" lon="10.2361639"><ele>855.4</ele><time>2026-05-03T08:15:53.234Z</time></trkpt><trkpt lat="44.2020144" lon="10.2360791"><ele>858.0</ele><time>2026-05-03T08:15:54.231Z</time></trkpt><trkpt lat="44.2019459" lon="10.2359852"><ele>858.0</ele><time>2026-05-03T08:15:55.245Z</time></trkpt><trkpt lat="44.2018544" lon="10.2359396"><ele>858.0</ele><time>2026-05-03T08:15:56.26Z</time></trkpt><trkpt lat="44.2017517" lon="10.2358397"><ele>858.0</ele><time>2026-05-03T08:15:57.256Z</time></trkpt><trkpt lat="44.2016255" lon="10.235674"><ele>858.0</ele><time>2026-05-03T08:15:58.259Z</time></trkpt><trkpt lat="44.2014872" lon="10.2354772"><ele>851.0</ele><time>2026-05-03T08:15:59.257Z</time></trkpt><trkpt lat="44.201347" lon="10.2353184"><ele>844.0</ele><time>2026-05-03T08:16:00.262Z</time></trkpt><trkpt lat="44.2011559" lon="10.2352072"><ele>837.0</ele><time>2026-05-03T08:16:01.268Z</time></trkpt><trkpt lat="44.2010955" lon="10.2350775"><ele>837.0</ele><time>2026-05-03T08:16:02.258Z</time></trkpt><trkpt lat="44.2010951" lon="10.2348312"><ele>837.0</ele><time>2026-05-03T08:16:03.262Z</time></trkpt><trkpt lat="44.2010411" lon="10.2346098"><ele>837.0</ele><time>2026-05-03T08:16:04.261Z</time></trkpt><trkpt lat="44.201032" lon="10.2343874"><ele>837.5</ele><time>2026-05-03T08:16:05.255Z</time></trkpt><trkpt lat="44.20105" lon="10.2341517"><ele>838.0</ele><time>2026-05-03T08:16:06.26Z</time></trkpt><trkpt lat="44.20101" lon="10.234011"><ele>838.5</ele><time>2026-05-03T08:16:07.258Z</time></trkpt><trkpt lat="44.2010697" lon="10.2338884"><ele>839.0</ele><time>2026-05-03T08:16:08.256Z</time></trkpt><trkpt lat="44.2011284" lon="10.2337383"><ele>839.6666666666667</ele><time>2026-05-03T08:16:09.26Z</time></trkpt><trkpt lat="44.2012535" lon="10.2335931"><ele>840.3333333333333</ele><time>2026-05-03T08:16:10.258Z</time></trkpt><trkpt lat="44.2014177" lon="10.2334312"><ele>841.0</ele><time>2026-05-03T08:16:11.263Z</time></trkpt><trkpt lat="44.2015583" lon="10.2332761"><ele>842.3333333333333</ele><time>2026-05-03T08:16:12.253Z</time></trkpt><trkpt lat="44.2016531" lon="10.2330858"><ele>843.6666666666667</ele><time>2026-05-03T08:16:13.262Z</time></trkpt><trkpt lat="44.201667" lon="10.2328446"><ele>845.0</ele><time>2026-05-03T08:16:14.256Z</time></trkpt><trkpt lat="44.2017215" lon="10.2326523"><ele>845.0</ele><time>2026-05-03T08:16:15.254Z</time></trkpt><trkpt lat="44.2017781" lon="10.2325105"><ele>845.0</ele><time>2026-05-03T08:16:16.256Z</time></trkpt><trkpt lat="44.2019439" lon="10.232361"><ele>845.0</ele><time>2026-05-03T08:16:17.241Z</time></trkpt><trkpt lat="44.2020427" lon="10.2322401"><ele>845.0</ele><time>2026-05-03T08:16:18.249Z</time></trkpt><trkpt lat="44.2021119" lon="10.2321258"><ele>846.2</ele><time>2026-05-03T08:16:19.26Z</time></trkpt><trkpt lat="44.2021921" lon="10.2320416"><ele>847.4</ele><time>2026-05-03T08:16:20.257Z</time></trkpt><trkpt lat="44.2021523" lon="10.2319603"><ele>848.5999999999999</ele><time>2026-05-03T08:16:21.258Z</time></trkpt><trkpt lat="44.2020974" lon="10.2318884"><ele>849.8</ele><time>2026-05-03T08:16:22.259Z</time></trkpt><trkpt lat="44.2020189" lon="10.2318475"><ele>851.0</ele><time>2026-05-03T08:16:23.26Z</time></trkpt><trkpt lat="44.2018957" lon="10.2318733"><ele>851.0</ele><time>2026-05-03T08:16:24.261Z</time></trkpt><trkpt lat="44.2017794" lon="10.2319267"><ele>851.0</ele><time>2026-05-03T08:16:25.262Z</time></trkpt><trkpt lat="44.2016329" lon="10.2319877"><ele>851.0</ele><time>2026-05-03T08:16:26.236Z</time></trkpt><trkpt lat="44.2014716" lon="10.2320572"><ele>851.0</ele><time>2026-05-03T08:16:27.241Z</time></trkpt><trkpt lat="44.2013097" lon="10.2320966"><ele>849.25</ele><time>2026-05-03T08:16:28.258Z</time></trkpt><trkpt lat="44.2011482" lon="10.2320803"><ele>847.5</ele><time>2026-05-03T08:16:29.266Z</time></trkpt><trkpt lat="44.2010028" lon="10.2320368"><ele>845.75</ele><time>2026-05-03T08:16:30.262Z</time></trkpt><trkpt lat="44.2008856" lon="10.2319409"><ele>844.0</ele><time>2026-05-03T08:16:31.266Z</time></trkpt><trkpt lat="44.2007847" lon="10.2318246"><ele>844.0</ele><time>2026-05-03T08:16:32.258Z</time></trkpt><trkpt lat="44.2007274" lon="10.2317334"><ele>844.0</ele><time>2026-05-03T08:16:33.261Z</time></trkpt><trkpt lat="44.2006484" lon="10.2316419"><ele>844.0</ele><time>2026-05-03T08:16:34.265Z</time></trkpt><trkpt lat="44.2005644" lon="10.2315667"><ele>844.0</ele><time>2026-05-03T08:16:35.268Z</time></trkpt><trkpt lat="44.2004731" lon="10.2314871"><ele>844.0</ele><time>2026-05-03T08:16:36.262Z</time></trkpt><trkpt lat="44.2004042" lon="10.231387"><ele>841.4999999999999</ele><time>2026-05-03T08:16:37.261Z</time></trkpt><trkpt lat="44.2003578" lon="10.231295"><ele>839.0</ele><time>2026-05-03T08:16:38.257Z</time></trkpt><trkpt lat="44.2003246" lon="10.2312035"><ele>836.5</ele><time>2026-05-03T08:16:39.258Z</time></trkpt><trkpt lat="44.2003331" lon="10.231107"><ele>834.0</ele><time>2026-05-03T08:16:40.257Z</time></trkpt><trkpt lat="44.2003637" lon="10.2310002"><ele>831.4999999999999</ele><time>2026-05-03T08:16:41.24Z</time></trkpt><trkpt lat="44.200427" lon="10.2309045"><ele>829.0</ele><time>2026-05-03T08:16:42.246Z</time></trkpt><trkpt lat="44.2004896" lon="10.2308087"><ele>829.0</ele><time>2026-05-03T08:16:43.258Z</time></trkpt><trkpt lat="44.2005674" lon="10.230725"><ele>829.0</ele><time>2026-05-03T08:16:44.241Z</time></trkpt><trkpt lat="44.2006613" lon="10.2306525"><ele>829.0</ele><time>2026-05-03T08:16:45.247Z</time></trkpt><trkpt lat="44.2007432" lon="10.2305534"><ele>829.0</ele><time>2026-05-03T08:16:46.256Z</time></trkpt><trkpt lat="44.2007826" lon="10.2304338"><ele>829.0</ele><time>2026-05-03T08:16:47.263Z</time></trkpt><trkpt lat="44.2007696" lon="10.2302932"><ele>828.4000000000001</ele><time>2026-05-03T08:16:48.263Z</time></trkpt><trkpt lat="44.2007465" lon="10.2301362"><ele>827.8</ele><time>2026-05-03T08:16:49.262Z</time></trkpt><trkpt lat="44.2006977" lon="10.2300103"><ele>827.2</ele><time>2026-05-03T08:16:50.261Z</time></trkpt><trkpt lat="44.2006174" lon="10.2299028"><ele>826.5999999999999</ele><time>2026-05-03T08:16:51.262Z</time></trkpt><trkpt lat="44.2005341" lon="10.2297966"><ele>826.0</ele><time>2026-05-03T08:16:52.262Z</time></trkpt><trkpt lat="44.2004663" lon="10.22969"><ele>825.6666666666666</ele><time>2026-05-03T08:16:53.259Z</time></trkpt><trkpt lat="44.2004041" lon="10.2295892"><ele>825.3333333333333</ele><time>2026-05-03T08:16:54.254Z</time></trkpt><trkpt lat="44.2003636" lon="10.2294857"><ele>825.0</ele><time>2026-05-03T08:16:55.236Z</time></trkpt><trkpt lat="44.2003368" lon="10.2293841"><ele>824.6666666666667</ele><time>2026-05-03T08:16:56.246Z</time></trkpt><trkpt lat="44.2003177" lon="10.229277"><ele>824.3333333333334</ele><time>2026-05-03T08:16:57.263Z</time></trkpt><trkpt lat="44.2002914" lon="10.2291713"><ele>824.0</ele><time>2026-05-03T08:16:58.258Z</time></trkpt><trkpt lat="44.2003021" lon="10.2290503"><ele>823.6</ele><time>2026-05-03T08:16:59.258Z</time></trkpt><trkpt lat="44.2003232" lon="10.2289081"><ele>823.2</ele><time>2026-05-03T08:17:00.257Z</time></trkpt><trkpt lat="44.2003482" lon="10.2287588"><ele>822.8000000000001</ele><time>2026-05-03T08:17:01.243Z</time></trkpt><trkpt lat="44.2003567" lon="10.2286074"><ele>822.4000000000001</ele><time>2026-05-03T08:17:02.249Z</time></trkpt><trkpt lat="44.2003692" lon="10.2284596"><ele>822.0</ele><time>2026-05-03T08:17:03.254Z</time></trkpt><trkpt lat="44.2003649" lon="10.2283215"><ele>822.0</ele><time>2026-05-03T08:17:04.259Z</time></trkpt><trkpt lat="44.2003361" lon="10.2281748"><ele>822.0</ele><time>2026-05-03T08:17:05.26Z</time></trkpt><trkpt lat="44.2002932" lon="10.2280232"><ele>822.0</ele><time>2026-05-03T08:17:06.256Z</time></trkpt><trkpt lat="44.200261" lon="10.2278623"><ele>822.0</ele><time>2026-05-03T08:17:07.26Z</time></trkpt><trkpt lat="44.2002428" lon="10.2276527"><ele>822.0</ele><time>2026-05-03T08:17:08.261Z</time></trkpt><trkpt lat="44.2002171" lon="10.2274429"><ele>822.0</ele><time>2026-05-03T08:17:09.264Z</time></trkpt><trkpt lat="44.2002037" lon="10.2272003"><ele>822.0</ele><time>2026-05-03T08:17:10.266Z</time></trkpt><trkpt lat="44.2001508" lon="10.2269839"><ele>822.0</ele><time>2026-05-03T08:17:11.266Z</time></trkpt><trkpt lat="44.2000729" lon="10.2267972"><ele>822.0</ele><time>2026-05-03T08:17:12.267Z</time></trkpt><trkpt lat="44.2000011" lon="10.226664"><ele>822.0</ele><time>2026-05-03T08:17:13.258Z</time></trkpt><trkpt lat="44.1999464" lon="10.2264924"><ele>822.0</ele><time>2026-05-03T08:17:15.264Z</time></trkpt><trkpt lat="44.19999" lon="10.2264184"><ele>817.75</ele><time>2026-05-03T08:17:16.257Z</time></trkpt><trkpt lat="44.2000455" lon="10.2263425"><ele>813.5</ele><time>2026-05-03T08:17:17.261Z</time></trkpt><trkpt lat="44.2001376" lon="10.2262766"><ele>809.25</ele><time>2026-05-03T08:17:18.262Z</time></trkpt><trkpt lat="44.2003023" lon="10.2262483"><ele>805.0</ele><time>2026-05-03T08:17:19.255Z</time></trkpt><trkpt lat="44.2004776" lon="10.226254"><ele>805.0</ele><time>2026-05-03T08:17:20.256Z</time></trkpt><trkpt lat="44.200641" lon="10.226249"><ele>805.0</ele><time>2026-05-03T08:17:21.256Z</time></trkpt><trkpt lat="44.2007921" lon="10.2262626"><ele>805.0</ele><time>2026-05-03T08:17:22.241Z</time></trkpt><trkpt lat="44.2009257" lon="10.2263218"><ele>803.6666666666666</ele><time>2026-05-03T08:17:23.231Z</time></trkpt><trkpt lat="44.2010564" lon="10.2264227"><ele>802.3333333333333</ele><time>2026-05-03T08:17:24.25Z</time></trkpt><trkpt lat="44.2011995" lon="10.2265243"><ele>801.0</ele><time>2026-05-03T08:17:25.238Z</time></trkpt><trkpt lat="44.2013506" lon="10.2266293"><ele>808.0</ele><time>2026-05-03T08:17:26.228Z</time></trkpt><trkpt lat="44.2015339" lon="10.2268177"><ele>815.0</ele><time>2026-05-03T08:17:27.245Z</time></trkpt><trkpt lat="44.2016985" lon="10.2269879"><ele>822.0</ele><time>2026-05-03T08:17:28.256Z</time></trkpt><trkpt lat="44.2018255" lon="10.2271218"><ele>822.0</ele><time>2026-05-03T08:17:29.257Z</time></trkpt><trkpt lat="44.2019342" lon="10.2271915"><ele>822.0</ele><time>2026-05-03T08:17:30.256Z</time></trkpt><trkpt lat="44.2020485" lon="10.2271749"><ele>822.0</ele><time>2026-05-03T08:17:31.259Z</time></trkpt><trkpt lat="44.2021485" lon="10.2271033"><ele>822.0</ele><time>2026-05-03T08:17:32.26Z</time></trkpt><trkpt lat="44.2022948" lon="10.2269562"><ele>820.3333333333333</ele><time>2026-05-03T08:17:33.256Z</time></trkpt><trkpt lat="44.202421" lon="10.226886"><ele>818.6666666666666</ele><time>2026-05-03T08:17:34.253Z</time></trkpt><trkpt lat="44.2025794" lon="10.2267687"><ele>817.0</ele><time>2026-05-03T08:17:35.257Z</time></trkpt><trkpt lat="44.2027158" lon="10.2266745"><ele>817.0</ele><time>2026-05-03T08:17:36.26Z</time></trkpt><trkpt lat="44.2028523" lon="10.2265888"><ele>817.0</ele><time>2026-05-03T08:17:37.256Z</time></trkpt><trkpt lat="44.2029579" lon="10.2264991"><ele>817.0</ele><time>2026-05-03T08:17:38.241Z</time></trkpt><trkpt lat="44.2030807" lon="10.2263847"><ele>817.0</ele><time>2026-05-03T08:17:39.224Z</time></trkpt><trkpt lat="44.2031904" lon="10.2262663"><ele>813.75</ele><time>2026-05-03T08:17:40.229Z</time></trkpt><trkpt lat="44.2033221" lon="10.2261698"><ele>810.5</ele><time>2026-05-03T08:17:41.229Z</time></trkpt><trkpt lat="44.2034467" lon="10.2260952"><ele>807.25</ele><time>2026-05-03T08:17:42.226Z</time></trkpt><trkpt lat="44.2035666" lon="10.2259906"><ele>804.0</ele><time>2026-05-03T08:17:43.241Z</time></trkpt><trkpt lat="44.2036535" lon="10.225914"><ele>804.0</ele><time>2026-05-03T08:17:44.256Z</time></trkpt><trkpt lat="44.2037253" lon="10.2257894"><ele>804.0</ele><time>2026-05-03T08:17:45.262Z</time></trkpt><trkpt lat="44.2038156" lon="10.2256467"><ele>804.0</ele><time>2026-05-03T08:17:46.238Z</time></trkpt><trkpt lat="44.2039286" lon="10.2255768"><ele>804.0</ele><time>2026-05-03T08:17:47.243Z</time></trkpt><trkpt lat="44.2040479" lon="10.2254588"><ele>802.3333333333333</ele><time>2026-05-03T08:17:48.256Z</time></trkpt><trkpt lat="44.2042023" lon="10.2253482"><ele>800.6666666666666</ele><time>2026-05-03T08:17:49.253Z</time></trkpt><trkpt lat="44.2043184" lon="10.2252152"><ele>799.0</ele><time>2026-05-03T08:17:50.238Z</time></trkpt><trkpt lat="44.204459" lon="10.225112"><ele>799.0</ele><time>2026-05-03T08:17:51.246Z</time></trkpt><trkpt lat="44.2045522" lon="10.224977"><ele>799.0</ele><time>2026-05-03T08:17:52.26Z</time></trkpt><trkpt lat="44.2046821" lon="10.2248585"><ele>799.0</ele><time>2026-05-03T08:17:53.23Z</time></trkpt><trkpt lat="44.2048185" lon="10.2247778"><ele>799.0</ele><time>2026-05-03T08:17:54.222Z</time></trkpt><trkpt lat="44.2049575" lon="10.2247117"><ele>799.0</ele><time>2026-05-03T08:17:55.226Z</time></trkpt><trkpt lat="44.2051171" lon="10.2247743"><ele>799.0</ele><time>2026-05-03T08:17:56.248Z</time></trkpt><trkpt lat="44.205282" lon="10.2249192"><ele>799.0</ele><time>2026-05-03T08:17:57.257Z</time></trkpt><trkpt lat="44.2054538" lon="10.2249586"><ele>799.0</ele><time>2026-05-03T08:17:58.259Z</time></trkpt><trkpt lat="44.2056055" lon="10.2249409"><ele>799.0</ele><time>2026-05-03T08:17:59.261Z</time></trkpt><trkpt lat="44.2057564" lon="10.2249175"><ele>799.0</ele><time>2026-05-03T08:18:00.257Z</time></trkpt><trkpt lat="44.2059016" lon="10.2248677"><ele>798.25</ele><time>2026-05-03T08:18:01.24Z</time></trkpt><trkpt lat="44.2060414" lon="10.2248473"><ele>797.5</ele><time>2026-05-03T08:18:02.229Z</time></trkpt><trkpt lat="44.2061828" lon="10.2248736"><ele>796.75</ele><time>2026-05-03T08:18:03.218Z</time></trkpt><trkpt lat="44.2062985" lon="10.2249511"><ele>796.0</ele><time>2026-05-03T08:18:04.226Z</time></trkpt><trkpt lat="44.2063981" lon="10.2250398"><ele>798.0</ele><time>2026-05-03T08:18:05.229Z</time></trkpt><trkpt lat="44.2065039" lon="10.2251054"><ele>800.0</ele><time>2026-05-03T08:18:06.23Z</time></trkpt><trkpt lat="44.2066298" lon="10.2251388"><ele>802.0</ele><time>2026-05-03T08:18:07.226Z</time></trkpt><trkpt lat="44.2067335" lon="10.2251087"><ele>804.0</ele><time>2026-05-03T08:18:08.226Z</time></trkpt><trkpt lat="44.2067927" lon="10.225056"><ele>806.0</ele><time>2026-05-03T08:18:09.227Z</time></trkpt><trkpt lat="44.2068661" lon="10.2249881"><ele>805.5</ele><time>2026-05-03T08:18:10.228Z</time></trkpt><trkpt lat="44.2068369" lon="10.2247864"><ele>805.0</ele><time>2026-05-03T08:18:11.243Z</time></trkpt><trkpt lat="44.2067615" lon="10.2245761"><ele>804.5</ele><time>2026-05-03T08:18:12.257Z</time></trkpt><trkpt lat="44.2067074" lon="10.2244404"><ele>804.0</ele><time>2026-05-03T08:18:13.242Z</time></trkpt><trkpt lat="44.2066452" lon="10.2243305"><ele>804.0</ele><time>2026-05-03T08:18:14.227Z</time></trkpt><trkpt lat="44.2065006" lon="10.2242087"><ele>804.0</ele><time>2026-05-03T08:18:15.245Z</time></trkpt><trkpt lat="44.2063065" lon="10.224107"><ele>804.0</ele><time>2026-05-03T08:18:16.258Z</time></trkpt><trkpt lat="44.2061439" lon="10.2239737"><ele>796.6666666666667</ele><time>2026-05-03T08:18:17.265Z</time></trkpt><trkpt lat="44.2059888" lon="10.2237702"><ele>789.3333333333334</ele><time>2026-05-03T08:18:18.262Z</time></trkpt><trkpt lat="44.2058218" lon="10.2235365"><ele>782.0</ele><time>2026-05-03T08:18:19.265Z</time></trkpt><trkpt lat="44.2057241" lon="10.2232694"><ele>767.6666666666667</ele><time>2026-05-03T08:18:20.262Z</time></trkpt><trkpt lat="44.2056563" lon="10.2230085"><ele>753.3333333333334</ele><time>2026-05-03T08:18:21.262Z</time></trkpt><trkpt lat="44.2056537" lon="10.222803"><ele>739.0</ele><time>2026-05-03T08:18:22.263Z</time></trkpt><trkpt lat="44.2056558" lon="10.2226182"><ele>747.6666666666667</ele><time>2026-05-03T08:18:23.255Z</time></trkpt><trkpt lat="44.2057794" lon="10.2224885"><ele>756.3333333333334</ele><time>2026-05-03T08:18:24.256Z</time></trkpt><trkpt lat="44.2059526" lon="10.2223966"><ele>765.0</ele><time>2026-05-03T08:18:25.238Z</time></trkpt><trkpt lat="44.2061484" lon="10.2223166"><ele>759.5</ele><time>2026-05-03T08:18:26.227Z</time></trkpt><trkpt lat="44.2063878" lon="10.2222332"><ele>754.0</ele><time>2026-05-03T08:18:27.229Z</time></trkpt><trkpt lat="44.2066587" lon="10.2222296"><ele>754.0</ele><time>2026-05-03T08:18:28.245Z</time></trkpt><trkpt lat="44.2068623" lon="10.2222575"><ele>754.0</ele><time>2026-05-03T08:18:29.256Z</time></trkpt><trkpt lat="44.2070241" lon="10.22225"><ele>754.0</ele><time>2026-05-03T08:18:30.24Z</time></trkpt><trkpt lat="44.2071766" lon="10.2222606"><ele>762.3333333333334</ele><time>2026-05-03T08:18:31.248Z</time></trkpt><trkpt lat="44.2073464" lon="10.2221685"><ele>770.6666666666667</ele><time>2026-05-03T08:18:32.256Z</time></trkpt><trkpt lat="44.2075041" lon="10.2220194"><ele>779.0</ele><time>2026-05-03T08:18:33.253Z</time></trkpt><trkpt lat="44.2076082" lon="10.2219247"><ele>779.0</ele><time>2026-05-03T08:18:34.255Z</time></trkpt><trkpt lat="44.2076741" lon="10.2217902"><ele>779.0</ele><time>2026-05-03T08:18:35.24Z</time></trkpt><trkpt lat="44.20769" lon="10.2216205"><ele>779.0</ele><time>2026-05-03T08:18:36.249Z</time></trkpt><trkpt lat="44.2076234" lon="10.2214558"><ele>779.0</ele><time>2026-05-03T08:18:37.254Z</time></trkpt><trkpt lat="44.2075252" lon="10.2213032"><ele>778.5</ele><time>2026-05-03T08:18:38.256Z</time></trkpt><trkpt lat="44.2074066" lon="10.221185"><ele>778.0</ele><time>2026-05-03T08:18:39.264Z</time></trkpt><trkpt lat="44.2073072" lon="10.2210983"><ele>777.5</ele><time>2026-05-03T08:18:40.261Z</time></trkpt><trkpt lat="44.2072153" lon="10.221037"><ele>777.0</ele><time>2026-05-03T08:18:41.258Z</time></trkpt><trkpt lat="44.2072676" lon="10.2208236"><ele>776.75</ele><time>2026-05-03T08:18:43.254Z</time></trkpt><trkpt lat="44.2073208" lon="10.2206821"><ele>776.5</ele><time>2026-05-03T08:18:44.255Z</time></trkpt><trkpt lat="44.2073623" lon="10.220533"><ele>776.25</ele><time>2026-05-03T08:18:45.258Z</time></trkpt><trkpt lat="44.2073451" lon="10.2203678"><ele>776.0</ele><time>2026-05-03T08:18:46.24Z</time></trkpt><trkpt lat="44.2072535" lon="10.2201299"><ele>763.3333333333334</ele><time>2026-05-03T08:18:47.25Z</time></trkpt><trkpt lat="44.2072284" lon="10.2199022"><ele>750.6666666666667</ele><time>2026-05-03T08:18:48.26Z</time></trkpt><trkpt lat="44.2071783" lon="10.2196782"><ele>738.0</ele><time>2026-05-03T08:18:49.26Z</time></trkpt><trkpt lat="44.2071603" lon="10.2194192"><ele>737.6666666666666</ele><time>2026-05-03T08:18:50.261Z</time></trkpt><trkpt lat="44.2070886" lon="10.219202"><ele>737.3333333333333</ele><time>2026-05-03T08:18:51.258Z</time></trkpt><trkpt lat="44.2070563" lon="10.2189593"><ele>737.0</ele><time>2026-05-03T08:18:52.261Z</time></trkpt><trkpt lat="44.2070129" lon="10.2187455"><ele>736.6666666666666</ele><time>2026-05-03T08:18:53.26Z</time></trkpt><trkpt lat="44.2070227" lon="10.2185082"><ele>736.3333333333334</ele><time>2026-05-03T08:18:54.262Z</time></trkpt><trkpt lat="44.2070097" lon="10.2182997"><ele>736.0</ele><time>2026-05-03T08:18:55.258Z</time></trkpt><trkpt lat="44.2070023" lon="10.2181163"><ele>735.75</ele><time>2026-05-03T08:18:56.26Z</time></trkpt><trkpt lat="44.2070321" lon="10.2179029"><ele>735.5</ele><time>2026-05-03T08:18:57.26Z</time></trkpt><trkpt lat="44.2070624" lon="10.2177055"><ele>735.25</ele><time>2026-05-03T08:18:58.256Z</time></trkpt><trkpt lat="44.2070955" lon="10.2175052"><ele>735.0</ele><time>2026-05-03T08:18:59.256Z</time></trkpt><trkpt lat="44.2071734" lon="10.2173695"><ele>733.5</ele><time>2026-05-03T08:19:00.255Z</time></trkpt><trkpt lat="44.2072434" lon="10.2172502"><ele>732.0</ele><time>2026-05-03T08:19:01.263Z</time></trkpt><trkpt lat="44.2073794" lon="10.2170938"><ele>730.5</ele><time>2026-05-03T08:19:02.263Z</time></trkpt><trkpt lat="44.2074848" lon="10.2169315"><ele>729.0</ele><time>2026-05-03T08:19:03.258Z</time></trkpt><trkpt lat="44.2076159" lon="10.2167685"><ele>731.0</ele><time>2026-05-03T08:19:04.26Z</time></trkpt><trkpt lat="44.2077395" lon="10.2165899"><ele>733.0</ele><time>2026-05-03T08:19:05.255Z</time></trkpt><trkpt lat="44.2078562" lon="10.2164202"><ele>735.0</ele><time>2026-05-03T08:19:06.258Z</time></trkpt><trkpt lat="44.2079127" lon="10.2162198"><ele>735.0</ele><time>2026-05-03T08:19:07.254Z</time></trkpt><trkpt lat="44.207953" lon="10.2160157"><ele>735.0</ele><time>2026-05-03T08:19:08.252Z</time></trkpt><trkpt lat="44.2079761" lon="10.2157689"><ele>735.0</ele><time>2026-05-03T08:19:09.255Z</time></trkpt><trkpt lat="44.2080095" lon="10.215552"><ele>735.3333333333334</ele><time>2026-05-03T08:19:10.255Z</time></trkpt><trkpt lat="44.2080715" lon="10.215338"><ele>735.6666666666667</ele><time>2026-05-03T08:19:11.238Z</time></trkpt><trkpt lat="44.2081315" lon="10.2150757"><ele>736.0</ele><time>2026-05-03T08:19:12.245Z</time></trkpt><trkpt lat="44.2081769" lon="10.2148737"><ele>733.5</ele><time>2026-05-03T08:19:13.251Z</time></trkpt><trkpt lat="44.2082694" lon="10.2147863"><ele>731.0</ele><time>2026-05-03T08:19:14.256Z</time></trkpt><trkpt lat="44.2081797" lon="10.2146736"><ele>728.5</ele><time>2026-05-03T08:19:17.257Z</time></trkpt><trkpt lat="44.20809" lon="10.2147039"><ele>726.0</ele><time>2026-05-03T08:19:18.258Z</time></trkpt><trkpt lat="44.2079749" lon="10.2147836"><ele>727.25</ele><time>2026-05-03T08:19:19.256Z</time></trkpt><trkpt lat="44.2078631" lon="10.2148863"><ele>728.5</ele><time>2026-05-03T08:19:20.255Z</time></trkpt><trkpt lat="44.2077518" lon="10.2150361"><ele>729.75</ele><time>2026-05-03T08:19:21.262Z</time></trkpt><trkpt lat="44.2076318" lon="10.2151686"><ele>731.0</ele><time>2026-05-03T08:19:22.258Z</time></trkpt><trkpt lat="44.2075194" lon="10.2153353"><ele>731.0</ele><time>2026-05-03T08:19:23.26Z</time></trkpt><trkpt lat="44.2074067" lon="10.2155433"><ele>731.0</ele><time>2026-05-03T08:19:24.261Z</time></trkpt><trkpt lat="44.207314" lon="10.2157327"><ele>731.0</ele><time>2026-05-03T08:19:25.26Z</time></trkpt><trkpt lat="44.2072231" lon="10.2158557"><ele>729.5999999999999</ele><time>2026-05-03T08:19:26.262Z</time></trkpt><trkpt lat="44.2071407" lon="10.2159647"><ele>728.2</ele><time>2026-05-03T08:19:27.257Z</time></trkpt><trkpt lat="44.2070692" lon="10.2159821"><ele>726.8</ele><time>2026-05-03T08:19:28.254Z</time></trkpt><trkpt lat="44.2070003" lon="10.2159279"><ele>725.4000000000001</ele><time>2026-05-03T08:19:29.256Z</time></trkpt><trkpt lat="44.2069017" lon="10.2159106"><ele>724.0</ele><time>2026-05-03T08:19:30.237Z</time></trkpt><trkpt lat="44.2067632" lon="10.2157909"><ele>724.0</ele><time>2026-05-03T08:19:31.246Z</time></trkpt><trkpt lat="44.2066353" lon="10.215667"><ele>724.0</ele><time>2026-05-03T08:19:32.261Z</time></trkpt><trkpt lat="44.2065046" lon="10.2155401"><ele>724.0</ele><time>2026-05-03T08:19:33.259Z</time></trkpt><trkpt lat="44.2063676" lon="10.2154128"><ele>721.6666666666667</ele><time>2026-05-03T08:19:34.259Z</time></trkpt><trkpt lat="44.206218" lon="10.2153272"><ele>719.3333333333334</ele><time>2026-05-03T08:19:35.259Z</time></trkpt><trkpt lat="44.2060665" lon="10.2152471"><ele>717.0</ele><time>2026-05-03T08:19:36.256Z</time></trkpt><trkpt lat="44.2059251" lon="10.2152073"><ele>717.0</ele><time>2026-05-03T08:19:37.257Z</time></trkpt><trkpt lat="44.2057239" lon="10.2150945"><ele>717.0</ele><time>2026-05-03T08:19:38.262Z</time></trkpt><trkpt lat="44.2055963" lon="10.2149955"><ele>717.0</ele><time>2026-05-03T08:19:39.259Z</time></trkpt><trkpt lat="44.2055157" lon="10.2148816"><ele>711.3333333333334</ele><time>2026-05-03T08:19:40.256Z</time></trkpt><trkpt lat="44.2055086" lon="10.2146867"><ele>705.6666666666667</ele><time>2026-05-03T08:19:41.259Z</time></trkpt><trkpt lat="44.2055598" lon="10.2144693"><ele>700.0</ele><time>2026-05-03T08:19:42.259Z</time></trkpt><trkpt lat="44.2056164" lon="10.2142477"><ele>699.5</ele><time>2026-05-03T08:19:43.257Z</time></trkpt><trkpt lat="44.2056709" lon="10.2140782"><ele>699.0</ele><time>2026-05-03T08:19:44.257Z</time></trkpt><trkpt lat="44.2057023" lon="10.2139138"><ele>698.5</ele><time>2026-05-03T08:19:45.262Z</time></trkpt><trkpt lat="44.2057275" lon="10.2137719"><ele>698.0</ele><time>2026-05-03T08:19:46.265Z</time></trkpt><trkpt lat="44.2058214" lon="10.213669"><ele>698.0</ele><time>2026-05-03T08:19:47.264Z</time></trkpt><trkpt lat="44.2059808" lon="10.2135773"><ele>698.0</ele><time>2026-05-03T08:19:48.258Z</time></trkpt><trkpt lat="44.2061157" lon="10.2135914"><ele>698.0</ele><time>2026-05-03T08:19:49.254Z</time></trkpt><trkpt lat="44.2062404" lon="10.2136212"><ele>698.0</ele><time>2026-05-03T08:19:50.239Z</time></trkpt><trkpt lat="44.2063522" lon="10.2136902"><ele>698.0</ele><time>2026-05-03T08:19:51.244Z</time></trkpt><trkpt lat="44.2064396" lon="10.2136869"><ele>698.0</ele><time>2026-05-03T08:19:52.256Z</time></trkpt><trkpt lat="44.2065499" lon="10.2136214"><ele>698.0</ele><time>2026-05-03T08:19:53.255Z</time></trkpt><trkpt lat="44.2066365" lon="10.2135157"><ele>698.0</ele><time>2026-05-03T08:19:54.258Z</time></trkpt><trkpt lat="44.2066796" lon="10.2133722"><ele>698.0</ele><time>2026-05-03T08:19:55.257Z</time></trkpt><trkpt lat="44.2066821" lon="10.2132228"><ele>696.8</ele><time>2026-05-03T08:19:56.258Z</time></trkpt><trkpt lat="44.2066997" lon="10.2130802"><ele>695.5999999999999</ele><time>2026-05-03T08:19:57.257Z</time></trkpt><trkpt lat="44.2067598" lon="10.2129662"><ele>694.4000000000001</ele><time>2026-05-03T08:19:58.253Z</time></trkpt><trkpt lat="44.2068373" lon="10.2128899"><ele>693.2</ele><time>2026-05-03T08:19:59.261Z</time></trkpt><trkpt lat="44.2069303" lon="10.2128325"><ele>692.0</ele><time>2026-05-03T08:20:00.24Z</time></trkpt><trkpt lat="44.2070339" lon="10.2128016"><ele>692.0</ele><time>2026-05-03T08:20:01.244Z</time></trkpt><trkpt lat="44.2071165" lon="10.2127676"><ele>692.0</ele><time>2026-05-03T08:20:02.256Z</time></trkpt><trkpt lat="44.2071812" lon="10.2126888"><ele>692.0</ele><time>2026-05-03T08:20:03.257Z</time></trkpt><trkpt lat="44.2072515" lon="10.2125862"><ele>692.0</ele><time>2026-05-03T08:20:04.258Z</time></trkpt><trkpt lat="44.2072775" lon="10.2124488"><ele>692.0</ele><time>2026-05-03T08:20:05.259Z</time></trkpt><trkpt lat="44.2072702" lon="10.2122915"><ele>690.25</ele><time>2026-05-03T08:20:06.258Z</time></trkpt><trkpt lat="44.207213" lon="10.2121216"><ele>688.5</ele><time>2026-05-03T08:20:07.257Z</time></trkpt><trkpt lat="44.2071272" lon="10.2119352"><ele>686.75</ele><time>2026-05-03T08:20:08.254Z</time></trkpt><trkpt lat="44.2070339" lon="10.2117668"><ele>685.0</ele><time>2026-05-03T08:20:09.254Z</time></trkpt><trkpt lat="44.2069267" lon="10.2116074"><ele>684.3333333333334</ele><time>2026-05-03T08:20:10.256Z</time></trkpt><trkpt lat="44.2068072" lon="10.2114645"><ele>683.6666666666666</ele><time>2026-05-03T08:20:11.253Z</time></trkpt><trkpt lat="44.2066484" lon="10.2113608"><ele>683.0</ele><time>2026-05-03T08:20:12.252Z</time></trkpt><trkpt lat="44.2064439" lon="10.2112851"><ele>683.0</ele><time>2026-05-03T08:20:13.256Z</time></trkpt><trkpt lat="44.2062277" lon="10.2112433"><ele>683.0</ele><time>2026-05-03T08:20:14.254Z</time></trkpt><trkpt lat="44.2060097" lon="10.2112311"><ele>683.0</ele><time>2026-05-03T08:20:15.249Z</time></trkpt><trkpt lat="44.2058306" lon="10.2111916"><ele>683.0</ele><time>2026-05-03T08:20:16.246Z</time></trkpt><trkpt lat="44.2056675" lon="10.2111231"><ele>683.0</ele><time>2026-05-03T08:20:17.247Z</time></trkpt><trkpt lat="44.205542" lon="10.211012"><ele>683.0</ele><time>2026-05-03T08:20:18.247Z</time></trkpt><trkpt lat="44.2054833" lon="10.2108318"><ele>671.6666666666666</ele><time>2026-05-03T08:20:19.252Z</time></trkpt><trkpt lat="44.2054404" lon="10.210615"><ele>660.3333333333334</ele><time>2026-05-03T08:20:20.252Z</time></trkpt><trkpt lat="44.2054081" lon="10.2104061"><ele>649.0</ele><time>2026-05-03T08:20:21.251Z</time></trkpt><trkpt lat="44.2053837" lon="10.2101723"><ele>649.0</ele><time>2026-05-03T08:20:22.253Z</time></trkpt><trkpt lat="44.205431" lon="10.2099225"><ele>649.0</ele><time>2026-05-03T08:20:23.253Z</time></trkpt><trkpt lat="44.2054963" lon="10.2096832"><ele>649.0</ele><time>2026-05-03T08:20:24.255Z</time></trkpt><trkpt lat="44.2055615" lon="10.2094348"><ele>652.5</ele><time>2026-05-03T08:20:25.25Z</time></trkpt><trkpt lat="44.2056357" lon="10.2091373"><ele>656.0</ele><time>2026-05-03T08:20:26.246Z</time></trkpt><trkpt lat="44.2057403" lon="10.2088359"><ele>656.0</ele><time>2026-05-03T08:20:27.25Z</time></trkpt><trkpt lat="44.2058518" lon="10.2085603"><ele>656.0</ele><time>2026-05-03T08:20:28.251Z</time></trkpt><trkpt lat="44.2059629" lon="10.2083403"><ele>656.0</ele><time>2026-05-03T08:20:29.258Z</time></trkpt><trkpt lat="44.2060461" lon="10.2081938"><ele>656.0</ele><time>2026-05-03T08:20:30.25Z</time></trkpt><trkpt lat="44.2061384" lon="10.2081366"><ele>656.0</ele><time>2026-05-03T08:20:31.253Z</time></trkpt><trkpt lat="44.2062538" lon="10.2081225"><ele>656.0</ele><time>2026-05-03T08:20:32.264Z</time></trkpt><trkpt lat="44.2063738" lon="10.2081433"><ele>656.0</ele><time>2026-05-03T08:20:33.23Z</time></trkpt><trkpt lat="44.2064768" lon="10.2082157"><ele>658.0</ele><time>2026-05-03T08:20:34.246Z</time></trkpt><trkpt lat="44.2065955" lon="10.2082511"><ele>660.0</ele><time>2026-05-03T08:20:35.253Z</time></trkpt><trkpt lat="44.2066607" lon="10.2081987"><ele>662.0</ele><time>2026-05-03T08:20:36.254Z</time></trkpt><trkpt lat="44.2068475" lon="10.2080439"><ele>664.0</ele><time>2026-05-03T08:20:37.256Z</time></trkpt><trkpt lat="44.2069777" lon="10.2078841"><ele>658.0</ele><time>2026-05-03T08:20:38.237Z</time></trkpt><trkpt lat="44.2071257" lon="10.2076853"><ele>652.0</ele><time>2026-05-03T08:20:39.242Z</time></trkpt><trkpt lat="44.2072213" lon="10.2075154"><ele>646.0</ele><time>2026-05-03T08:20:40.255Z</time></trkpt><trkpt lat="44.2072778" lon="10.2073272"><ele>642.0</ele><time>2026-05-03T08:20:41.26Z</time></trkpt><trkpt lat="44.2073076" lon="10.207143"><ele>638.0</ele><time>2026-05-03T08:20:42.256Z</time></trkpt><trkpt lat="44.2072812" lon="10.2069369"><ele>634.0</ele><time>2026-05-03T08:20:43.257Z</time></trkpt><trkpt lat="44.2072011" lon="10.2067332"><ele>634.0</ele><time>2026-05-03T08:20:44.235Z</time></trkpt><trkpt lat="44.2071505" lon="10.2065304"><ele>634.0</ele><time>2026-05-03T08:20:45.225Z</time></trkpt><trkpt lat="44.2071318" lon="10.2063252"><ele>634.0</ele><time>2026-05-03T08:20:46.246Z</time></trkpt><trkpt lat="44.2071037" lon="10.2061408"><ele>634.0</ele><time>2026-05-03T08:20:47.258Z</time></trkpt><trkpt lat="44.2071074" lon="10.2059641"><ele>635.25</ele><time>2026-05-03T08:20:48.253Z</time></trkpt><trkpt lat="44.2070798" lon="10.2058503"><ele>636.5</ele><time>2026-05-03T08:20:49.25Z</time></trkpt><trkpt lat="44.2069925" lon="10.2057433"><ele>637.75</ele><time>2026-05-03T08:20:50.251Z</time></trkpt><trkpt lat="44.2068968" lon="10.2055666"><ele>639.0</ele><time>2026-05-03T08:20:51.254Z</time></trkpt><trkpt lat="44.2067559" lon="10.2054153"><ele>640.75</ele><time>2026-05-03T08:20:52.26Z</time></trkpt><trkpt lat="44.2066306" lon="10.2052867"><ele>642.5</ele><time>2026-05-03T08:20:53.258Z</time></trkpt><trkpt lat="44.2065222" lon="10.2051578"><ele>644.25</ele><time>2026-05-03T08:20:54.254Z</time></trkpt><trkpt lat="44.2064437" lon="10.2050426"><ele>646.0</ele><time>2026-05-03T08:20:55.233Z</time></trkpt><trkpt lat="44.2063854" lon="10.204925"><ele>639.1999999999999</ele><time>2026-05-03T08:20:56.242Z</time></trkpt><trkpt lat="44.2063252" lon="10.2048135"><ele>632.4</ele><time>2026-05-03T08:20:57.238Z</time></trkpt><trkpt lat="44.2062863" lon="10.2047158"><ele>625.6</ele><time>2026-05-03T08:20:58.242Z</time></trkpt><trkpt lat="44.2062626" lon="10.2046033"><ele>618.8</ele><time>2026-05-03T08:20:59.238Z</time></trkpt><trkpt lat="44.2063071" lon="10.2044665"><ele>612.0</ele><time>2026-05-03T08:21:00.243Z</time></trkpt><trkpt lat="44.2063612" lon="10.2043129"><ele>612.0</ele><time>2026-05-03T08:21:01.254Z</time></trkpt><trkpt lat="44.2064439" lon="10.2041588"><ele>612.0</ele><time>2026-05-03T08:21:02.259Z</time></trkpt><trkpt lat="44.2065266" lon="10.2039868"><ele>612.0</ele><time>2026-05-03T08:21:03.254Z</time></trkpt><trkpt lat="44.2066137" lon="10.2038004"><ele>612.0</ele><time>2026-05-03T08:21:04.255Z</time></trkpt><trkpt lat="44.2067152" lon="10.2035719"><ele>612.0</ele><time>2026-05-03T08:21:05.254Z</time></trkpt><trkpt lat="44.2067851" lon="10.2033295"><ele>612.0</ele><time>2026-05-03T08:21:06.254Z</time></trkpt><trkpt lat="44.2068455" lon="10.2030638"><ele>612.0</ele><time>2026-05-03T08:21:07.254Z</time></trkpt><trkpt lat="44.2069412" lon="10.202818"><ele>612.0</ele><time>2026-05-03T08:21:08.252Z</time></trkpt><trkpt lat="44.2070236" lon="10.2025662"><ele>612.0</ele><time>2026-05-03T08:21:09.253Z</time></trkpt><trkpt lat="44.2070875" lon="10.2023101"><ele>612.0</ele><time>2026-05-03T08:21:10.253Z</time></trkpt><trkpt lat="44.2071137" lon="10.2020698"><ele>613.0</ele><time>2026-05-03T08:21:11.253Z</time></trkpt><trkpt lat="44.2072779" lon="10.2014987"><ele>614.0</ele><time>2026-05-03T08:21:13.227Z</time></trkpt><trkpt lat="44.2073885" lon="10.2013696"><ele>614.0</ele><time>2026-05-03T08:21:14.229Z</time></trkpt><trkpt lat="44.2073845" lon="10.2012105"><ele>614.0</ele><time>2026-05-03T08:21:15.225Z</time></trkpt><trkpt lat="44.2072771" lon="10.2010157"><ele>614.0</ele><time>2026-05-03T08:21:16.246Z</time></trkpt><trkpt lat="44.207261" lon="10.2009189"><ele>614.0</ele><time>2026-05-03T08:21:17.258Z</time></trkpt><trkpt lat="44.2073328" lon="10.2008611"><ele>614.0</ele><time>2026-05-03T08:21:18.257Z</time></trkpt><trkpt lat="44.2074646" lon="10.2008467"><ele>614.0</ele><time>2026-05-03T08:21:19.259Z</time></trkpt><trkpt lat="44.2075716" lon="10.2008793"><ele>614.0</ele><time>2026-05-03T08:21:20.259Z</time></trkpt><trkpt lat="44.2076845" lon="10.2009362"><ele>614.0</ele><time>2026-05-03T08:21:21.254Z</time></trkpt><trkpt lat="44.207813" lon="10.2010179"><ele>614.0</ele><time>2026-05-03T08:21:22.256Z</time></trkpt><trkpt lat="44.2079562" lon="10.2010965"><ele>614.0</ele><time>2026-05-03T08:21:23.254Z</time></trkpt><trkpt lat="44.2081466" lon="10.201138"><ele>614.0</ele><time>2026-05-03T08:21:24.257Z</time></trkpt><trkpt lat="44.2083441" lon="10.2011746"><ele>614.0</ele><time>2026-05-03T08:21:25.236Z</time></trkpt><trkpt lat="44.2085177" lon="10.2012271"><ele>613.0</ele><time>2026-05-03T08:21:26.245Z</time></trkpt><trkpt lat="44.2087205" lon="10.2012988"><ele>612.0</ele><time>2026-05-03T08:21:27.251Z</time></trkpt><trkpt lat="44.2088781" lon="10.2013605"><ele>611.0</ele><time>2026-05-03T08:21:28.252Z</time></trkpt><trkpt lat="44.2090686" lon="10.2012809"><ele>610.0</ele><time>2026-05-03T08:21:29.252Z</time></trkpt><trkpt lat="44.2092567" lon="10.201133"><ele>609.0</ele><time>2026-05-03T08:21:30.254Z</time></trkpt><trkpt lat="44.2094059" lon="10.2009383"><ele>608.0</ele><time>2026-05-03T08:21:31.252Z</time></trkpt><trkpt lat="44.2094533" lon="10.2007251"><ele>607.0</ele><time>2026-05-03T08:21:32.255Z</time></trkpt><trkpt lat="44.2094688" lon="10.2005045"><ele>606.0</ele><time>2026-05-03T08:21:33.235Z</time></trkpt><trkpt lat="44.2094948" lon="10.2002942"><ele>605.0</ele><time>2026-05-03T08:21:34.224Z</time></trkpt><trkpt lat="44.209484" lon="10.2000798"><ele>603.5</ele><time>2026-05-03T08:21:35.224Z</time></trkpt><trkpt lat="44.2093555" lon="10.1998125"><ele>602.0</ele><time>2026-05-03T08:21:36.225Z</time></trkpt><trkpt lat="44.2092271" lon="10.1995277"><ele>602.0</ele><time>2026-05-03T08:21:37.226Z</time></trkpt><trkpt lat="44.2090947" lon="10.1992315"><ele>602.0</ele><time>2026-05-03T08:21:38.221Z</time></trkpt><trkpt lat="44.2090139" lon="10.1989608"><ele>598.6666666666666</ele><time>2026-05-03T08:21:39.221Z</time></trkpt><trkpt lat="44.2089267" lon="10.198713"><ele>595.3333333333334</ele><time>2026-05-03T08:21:40.223Z</time></trkpt><trkpt lat="44.2088254" lon="10.1984801"><ele>592.0</ele><time>2026-05-03T08:21:41.223Z</time></trkpt><trkpt lat="44.208728" lon="10.1982929"><ele>591.0</ele><time>2026-05-03T08:21:42.225Z</time></trkpt><trkpt lat="44.2086565" lon="10.1981197"><ele>590.0</ele><time>2026-05-03T08:21:43.217Z</time></trkpt><trkpt lat="44.2085768" lon="10.1979764"><ele>589.0</ele><time>2026-05-03T08:21:44.225Z</time></trkpt><trkpt lat="44.2084902" lon="10.1978627"><ele>588.0</ele><time>2026-05-03T08:21:45.218Z</time></trkpt><trkpt lat="44.2083714" lon="10.1977262"><ele>588.0</ele><time>2026-05-03T08:21:46.244Z</time></trkpt><trkpt lat="44.2082742" lon="10.1976999"><ele>588.0</ele><time>2026-05-03T08:21:47.254Z</time></trkpt><trkpt lat="44.2081638" lon="10.1978398"><ele>588.0</ele><time>2026-05-03T08:21:48.257Z</time></trkpt><trkpt lat="44.2079619" lon="10.1980938"><ele>586.6666666666666</ele><time>2026-05-03T08:21:49.258Z</time></trkpt><trkpt lat="44.2077829" lon="10.198302"><ele>585.3333333333333</ele><time>2026-05-03T08:21:50.258Z</time></trkpt><trkpt lat="44.207631" lon="10.1984747"><ele>584.0</ele><time>2026-05-03T08:21:51.258Z</time></trkpt><trkpt lat="44.2074922" lon="10.1986258"><ele>584.0</ele><time>2026-05-03T08:21:52.255Z</time></trkpt><trkpt lat="44.2073779" lon="10.1987506"><ele>584.0</ele><time>2026-05-03T08:21:53.253Z</time></trkpt><trkpt lat="44.2072915" lon="10.1988396"><ele>584.0</ele><time>2026-05-03T08:21:54.257Z</time></trkpt><trkpt lat="44.2072014" lon="10.1988406"><ele>584.0</ele><time>2026-05-03T08:21:56.254Z</time></trkpt><trkpt lat="44.2071132" lon="10.1987046"><ele>585.0</ele><time>2026-05-03T08:21:57.257Z</time></trkpt><trkpt lat="44.2070392" lon="10.1985984"><ele>586.0</ele><time>2026-05-03T08:21:58.261Z</time></trkpt><trkpt lat="44.2069913" lon="10.1984816"><ele>587.0</ele><time>2026-05-03T08:21:59.256Z</time></trkpt><trkpt lat="44.2069607" lon="10.1983523"><ele>588.0</ele><time>2026-05-03T08:22:00.236Z</time></trkpt><trkpt lat="44.2069458" lon="10.1981928"><ele>589.0</ele><time>2026-05-03T08:22:01.241Z</time></trkpt><trkpt lat="44.2069513" lon="10.1980041"><ele>589.0</ele><time>2026-05-03T08:22:02.24Z</time></trkpt><trkpt lat="44.2069665" lon="10.1978184"><ele>589.0</ele><time>2026-05-03T08:22:03.221Z</time></trkpt><trkpt lat="44.2069856" lon="10.1976321"><ele>589.0</ele><time>2026-05-03T08:22:04.227Z</time></trkpt><trkpt lat="44.2070253" lon="10.1974545"><ele>589.0</ele><time>2026-05-03T08:22:05.228Z</time></trkpt><trkpt lat="44.2070494" lon="10.1972786"><ele>594.0</ele><time>2026-05-03T08:22:06.219Z</time></trkpt><trkpt lat="44.2070942" lon="10.1970958"><ele>599.0</ele><time>2026-05-03T08:22:07.216Z</time></trkpt><trkpt lat="44.2071636" lon="10.1969079"><ele>604.0</ele><time>2026-05-03T08:22:08.216Z</time></trkpt><trkpt lat="44.2072567" lon="10.196714"><ele>597.0</ele><time>2026-05-03T08:22:09.222Z</time></trkpt><trkpt lat="44.207352" lon="10.1965193"><ele>590.0</ele><time>2026-05-03T08:22:10.217Z</time></trkpt><trkpt lat="44.2074588" lon="10.1963202"><ele>583.0</ele><time>2026-05-03T08:22:11.24Z</time></trkpt><trkpt lat="44.2075832" lon="10.1961258"><ele>579.5</ele><time>2026-05-03T08:22:12.249Z</time></trkpt><trkpt lat="44.2076851" lon="10.1959535"><ele>576.0</ele><time>2026-05-03T08:22:13.256Z</time></trkpt><trkpt lat="44.2077945" lon="10.1958111"><ele>572.5</ele><time>2026-05-03T08:22:14.252Z</time></trkpt><trkpt lat="44.2078934" lon="10.1956953"><ele>569.0</ele><time>2026-05-03T08:22:15.251Z</time></trkpt><trkpt lat="44.2080137" lon="10.1956709"><ele>567.0</ele><time>2026-05-03T08:22:16.226Z</time></trkpt><trkpt lat="44.2082988" lon="10.195786"><ele>565.0</ele><time>2026-05-03T08:22:18.215Z</time></trkpt><trkpt lat="44.2084489" lon="10.1958827"><ele>565.0</ele><time>2026-05-03T08:22:19.216Z</time></trkpt><trkpt lat="44.2085983" lon="10.1959784"><ele>565.0</ele><time>2026-05-03T08:22:20.216Z</time></trkpt><trkpt lat="44.2087456" lon="10.196075"><ele>565.0</ele><time>2026-05-03T08:22:21.214Z</time></trkpt><trkpt lat="44.2089114" lon="10.1961742"><ele>566.6666666666667</ele><time>2026-05-03T08:22:22.224Z</time></trkpt><trkpt lat="44.2090781" lon="10.1963222"><ele>568.3333333333334</ele><time>2026-05-03T08:22:23.223Z</time></trkpt><trkpt lat="44.2092347" lon="10.1964782"><ele>570.0</ele><time>2026-05-03T08:22:24.243Z</time></trkpt><trkpt lat="44.2093542" lon="10.1966504"><ele>570.0</ele><time>2026-05-03T08:22:25.251Z</time></trkpt><trkpt lat="44.2094317" lon="10.1968708"><ele>570.0</ele><time>2026-05-03T08:22:26.232Z</time></trkpt><trkpt lat="44.2095009" lon="10.1970925"><ele>570.0</ele><time>2026-05-03T08:22:27.221Z</time></trkpt><trkpt lat="44.209583" lon="10.1975147"><ele>574.75</ele><time>2026-05-03T08:22:29.218Z</time></trkpt><trkpt lat="44.209621" lon="10.1977198"><ele>579.5</ele><time>2026-05-03T08:22:30.218Z</time></trkpt><trkpt lat="44.2096539" lon="10.1979165"><ele>584.25</ele><time>2026-05-03T08:22:31.219Z</time></trkpt><trkpt lat="44.2096776" lon="10.1981095"><ele>589.0</ele><time>2026-05-03T08:22:32.222Z</time></trkpt><trkpt lat="44.2096886" lon="10.198293"><ele>591.5</ele><time>2026-05-03T08:22:33.218Z</time></trkpt><trkpt lat="44.2097163" lon="10.1984798"><ele>594.0</ele><time>2026-05-03T08:22:34.224Z</time></trkpt><trkpt lat="44.2097439" lon="10.1986677"><ele>596.5</ele><time>2026-05-03T08:22:35.22Z</time></trkpt><trkpt lat="44.2097667" lon="10.19885"><ele>599.0</ele><time>2026-05-03T08:22:36.221Z</time></trkpt><trkpt lat="44.2097926" lon="10.1990326"><ele>599.75</ele><time>2026-05-03T08:22:37.219Z</time></trkpt><trkpt lat="44.2098236" lon="10.199216"><ele>600.5</ele><time>2026-05-03T08:22:38.219Z</time></trkpt><trkpt lat="44.2098538" lon="10.1994004"><ele>601.25</ele><time>2026-05-03T08:22:39.209Z</time></trkpt><trkpt lat="44.2098805" lon="10.1995834"><ele>602.0</ele><time>2026-05-03T08:22:40.237Z</time></trkpt><trkpt lat="44.2099067" lon="10.1997593"><ele>597.75</ele><time>2026-05-03T08:22:41.233Z</time></trkpt><trkpt lat="44.2100108" lon="10.1996383"><ele>593.5</ele><time>2026-05-03T08:22:43.236Z</time></trkpt><trkpt lat="44.2101254" lon="10.1995757"><ele>589.25</ele><time>2026-05-03T08:22:44.243Z</time></trkpt><trkpt lat="44.2102449" lon="10.1994969"><ele>585.0</ele><time>2026-05-03T08:22:45.237Z</time></trkpt><trkpt lat="44.2103796" lon="10.1993947"><ele>585.0</ele><time>2026-05-03T08:22:46.236Z</time></trkpt><trkpt lat="44.210512" lon="10.1993123"><ele>585.0</ele><time>2026-05-03T08:22:47.226Z</time></trkpt><trkpt lat="44.2106456" lon="10.1992565"><ele>585.0</ele><time>2026-05-03T08:22:48.22Z</time></trkpt><trkpt lat="44.2107598" lon="10.1992551"><ele>585.0</ele><time>2026-05-03T08:22:49.226Z</time></trkpt><trkpt lat="44.2108534" lon="10.1993004"><ele>586.3333333333334</ele><time>2026-05-03T08:22:50.225Z</time></trkpt><trkpt lat="44.2109872" lon="10.199417"><ele>587.6666666666667</ele><time>2026-05-03T08:22:51.226Z</time></trkpt><trkpt lat="44.2111239" lon="10.1995383"><ele>589.0</ele><time>2026-05-03T08:22:52.228Z</time></trkpt><trkpt lat="44.2112711" lon="10.199646"><ele>589.0</ele><time>2026-05-03T08:22:53.228Z</time></trkpt><trkpt lat="44.2114142" lon="10.1997518"><ele>589.0</ele><time>2026-05-03T08:22:54.23Z</time></trkpt><trkpt lat="44.2115576" lon="10.1998508"><ele>589.0</ele><time>2026-05-03T08:22:55.225Z</time></trkpt><trkpt lat="44.2117045" lon="10.1999406"><ele>593.25</ele><time>2026-05-03T08:22:56.223Z</time></trkpt><trkpt lat="44.2118587" lon="10.2000365"><ele>597.5</ele><time>2026-05-03T08:22:57.224Z</time></trkpt><trkpt lat="44.2119865" lon="10.2000925"><ele>601.75</ele><time>2026-05-03T08:22:58.227Z</time></trkpt><trkpt lat="44.2121278" lon="10.2000978"><ele>606.0</ele><time>2026-05-03T08:22:59.24Z</time></trkpt><trkpt lat="44.2122765" lon="10.2000901"><ele>583.0</ele><time>2026-05-03T08:23:00.249Z</time></trkpt><trkpt lat="44.2126783" lon="10.199675"><ele>583.0</ele><time>2026-05-03T08:23:02.242Z</time></trkpt><trkpt lat="44.2128365" lon="10.1992221"><ele>583.0</ele><time>2026-05-03T08:23:03.252Z</time></trkpt><trkpt lat="44.2130787" lon="10.1988647"><ele>568.5</ele><time>2026-05-03T08:23:04.253Z</time></trkpt><trkpt lat="44.2133169" lon="10.1986543"><ele>554.0</ele><time>2026-05-03T08:23:05.253Z</time></trkpt><trkpt lat="44.2135024" lon="10.1986039"><ele>554.0</ele><time>2026-05-03T08:23:06.252Z</time></trkpt><trkpt lat="44.2135698" lon="10.1986302"><ele>554.0</ele><time>2026-05-03T08:23:07.253Z</time></trkpt><trkpt lat="44.2136826" lon="10.1986052"><ele>554.0</ele><time>2026-05-03T08:23:08.252Z</time></trkpt><trkpt lat="44.2138339" lon="10.198625"><ele>554.0</ele><time>2026-05-03T08:23:09.243Z</time></trkpt><trkpt lat="44.213974" lon="10.1986834"><ele>549.4</ele><time>2026-05-03T08:23:10.243Z</time></trkpt><trkpt lat="44.2140755" lon="10.198758"><ele>544.8</ele><time>2026-05-03T08:23:11.241Z</time></trkpt><trkpt lat="44.2141501" lon="10.1988107"><ele>540.2</ele><time>2026-05-03T08:23:12.227Z</time></trkpt><trkpt lat="44.2142605" lon="10.1988278"><ele>535.6</ele><time>2026-05-03T08:23:13.242Z</time></trkpt><trkpt lat="44.214322" lon="10.1988478"><ele>531.0</ele><time>2026-05-03T08:23:14.253Z</time></trkpt><trkpt lat="44.2144772" lon="10.1988209"><ele>531.0</ele><time>2026-05-03T08:23:21.221Z</time></trkpt><trkpt lat="44.2144928" lon="10.1986901"><ele>531.0</ele><time>2026-05-03T08:23:23.241Z</time></trkpt><trkpt lat="44.2144833" lon="10.198554"><ele>531.0</ele><time>2026-05-03T08:23:25.238Z</time></trkpt><trkpt lat="44.2145065" lon="10.1984154"><ele>531.0</ele><time>2026-05-03T08:23:27.258Z</time></trkpt><trkpt lat="44.2145446" lon="10.1983421"><ele>531.0</ele><time>2026-05-03T08:23:28.254Z</time></trkpt><trkpt lat="44.2146154" lon="10.1982836"><ele>531.0</ele><time>2026-05-03T08:23:29.256Z</time></trkpt><trkpt lat="44.2147123" lon="10.1982588"><ele>531.0</ele><time>2026-05-03T08:23:30.256Z</time></trkpt><trkpt lat="44.2148146" lon="10.1982462"><ele>531.0</ele><time>2026-05-03T08:23:31.25Z</time></trkpt><trkpt lat="44.2149016" lon="10.1982216"><ele>531.0</ele><time>2026-05-03T08:23:32.252Z</time></trkpt><trkpt lat="44.2149625" lon="10.1981574"><ele>531.0</ele><time>2026-05-03T08:23:33.254Z</time></trkpt><trkpt lat="44.2150129" lon="10.1980351"><ele>531.0</ele><time>2026-05-03T08:23:34.259Z</time></trkpt><trkpt lat="44.2150612" lon="10.1979083"><ele>526.8</ele><time>2026-05-03T08:23:35.253Z</time></trkpt><trkpt lat="44.2151272" lon="10.1977869"><ele>522.6</ele><time>2026-05-03T08:23:36.26Z</time></trkpt><trkpt lat="44.2152132" lon="10.1976914"><ele>518.4</ele><time>2026-05-03T08:23:37.256Z</time></trkpt><trkpt lat="44.2152986" lon="10.1976265"><ele>514.2</ele><time>2026-05-03T08:23:38.234Z</time></trkpt><trkpt lat="44.2153895" lon="10.1976038"><ele>510.0</ele><time>2026-05-03T08:23:39.224Z</time></trkpt><trkpt lat="44.2154782" lon="10.1976532"><ele>510.0</ele><time>2026-05-03T08:23:40.222Z</time></trkpt><trkpt lat="44.2155569" lon="10.1976895"><ele>510.0</ele><time>2026-05-03T08:23:41.223Z</time></trkpt><trkpt lat="44.2156434" lon="10.1977306"><ele>510.0</ele><time>2026-05-03T08:23:42.223Z</time></trkpt><trkpt lat="44.2157379" lon="10.1977992"><ele>510.0</ele><time>2026-05-03T08:23:43.24Z</time></trkpt><trkpt lat="44.2158533" lon="10.1978706"><ele>510.0</ele><time>2026-05-03T08:23:44.251Z</time></trkpt><trkpt lat="44.215987" lon="10.1979304"><ele>507.0</ele><time>2026-05-03T08:23:45.251Z</time></trkpt><trkpt lat="44.2161123" lon="10.197921"><ele>504.0</ele><time>2026-05-03T08:23:46.25Z</time></trkpt><trkpt lat="44.2162548" lon="10.1979071"><ele>501.0</ele><time>2026-05-03T08:23:47.25Z</time></trkpt><trkpt lat="44.2164031" lon="10.1978787"><ele>498.0</ele><time>2026-05-03T08:23:48.256Z</time></trkpt><trkpt lat="44.2165704" lon="10.1978994"><ele>496.33333333333337</ele><time>2026-05-03T08:23:49.257Z</time></trkpt><trkpt lat="44.2167493" lon="10.197916"><ele>494.6666666666667</ele><time>2026-05-03T08:23:50.256Z</time></trkpt><trkpt lat="44.2169329" lon="10.1979238"><ele>493.0</ele><time>2026-05-03T08:23:51.251Z</time></trkpt><trkpt lat="44.2171048" lon="10.1979436"><ele>493.0</ele><time>2026-05-03T08:23:52.254Z</time></trkpt><trkpt lat="44.2172596" lon="10.1979626"><ele>493.0</ele><time>2026-05-03T08:23:53.252Z</time></trkpt><trkpt lat="44.21741" lon="10.1979426"><ele>493.0</ele><time>2026-05-03T08:23:54.253Z</time></trkpt><trkpt lat="44.21753" lon="10.1978711"><ele>493.0</ele><time>2026-05-03T08:23:55.25Z</time></trkpt><trkpt lat="44.2176473" lon="10.1977705"><ele>493.0</ele><time>2026-05-03T08:23:56.236Z</time></trkpt><trkpt lat="44.2177525" lon="10.1976658"><ele>492.99999999999994</ele><time>2026-05-03T08:23:57.237Z</time></trkpt><trkpt lat="44.2178045" lon="10.1975686"><ele>492.99999999999994</ele><time>2026-05-03T08:23:58.249Z</time></trkpt><trkpt lat="44.2178376" lon="10.1974865"><ele>493.0</ele><time>2026-05-03T08:23:59.233Z</time></trkpt><trkpt lat="44.2179164" lon="10.1973882"><ele>493.0</ele><time>2026-05-03T08:24:01.222Z</time></trkpt><trkpt lat="44.2180784" lon="10.1971767"><ele>488.5</ele><time>2026-05-03T08:24:04.215Z</time></trkpt><trkpt lat="44.2181555" lon="10.1971482"><ele>484.0</ele><time>2026-05-03T08:24:05.215Z</time></trkpt><trkpt lat="44.2183396" lon="10.1971236"><ele>479.5</ele><time>2026-05-03T08:24:07.218Z</time></trkpt><trkpt lat="44.2184389" lon="10.1971181"><ele>475.0</ele><time>2026-05-03T08:24:08.224Z</time></trkpt><trkpt lat="44.2185324" lon="10.197122"><ele>475.0</ele><time>2026-05-03T08:24:09.224Z</time></trkpt><trkpt lat="44.2186157" lon="10.197099"><ele>475.0</ele><time>2026-05-03T08:24:10.223Z</time></trkpt><trkpt lat="44.2186901" lon="10.1970702"><ele>475.0</ele><time>2026-05-03T08:24:11.224Z</time></trkpt><trkpt lat="44.2187862" lon="10.1970282"><ele>475.0</ele><time>2026-05-03T08:24:12.237Z</time></trkpt><trkpt lat="44.2188734" lon="10.1969483"><ele>475.0</ele><time>2026-05-03T08:24:13.246Z</time></trkpt><trkpt lat="44.2189473" lon="10.1968479"><ele>479.0</ele><time>2026-05-03T08:24:14.232Z</time></trkpt><trkpt lat="44.2190112" lon="10.1967389"><ele>483.0</ele><time>2026-05-03T08:24:15.241Z</time></trkpt><trkpt lat="44.2190451" lon="10.1966202"><ele>487.0</ele><time>2026-05-03T08:24:16.232Z</time></trkpt><trkpt lat="44.2190744" lon="10.1964944"><ele>491.0</ele><time>2026-05-03T08:24:17.237Z</time></trkpt><trkpt lat="44.2190975" lon="10.1963639"><ele>495.0</ele><time>2026-05-03T08:24:18.231Z</time></trkpt><trkpt lat="44.2190887" lon="10.1962323"><ele>497.8333333333333</ele><time>2026-05-03T08:24:19.217Z</time></trkpt><trkpt lat="44.2190857" lon="10.1961056"><ele>500.66666666666663</ele><time>2026-05-03T08:24:20.218Z</time></trkpt><trkpt lat="44.2190786" lon="10.1959824"><ele>503.5</ele><time>2026-05-03T08:24:21.217Z</time></trkpt><trkpt lat="44.2190686" lon="10.1958654"><ele>506.3333333333333</ele><time>2026-05-03T08:24:22.225Z</time></trkpt><trkpt lat="44.2190559" lon="10.1957431"><ele>509.16666666666663</ele><time>2026-05-03T08:24:23.241Z</time></trkpt><trkpt lat="44.2190247" lon="10.1956161"><ele>512.0</ele><time>2026-05-03T08:24:24.254Z</time></trkpt><trkpt lat="44.2189857" lon="10.1954701"><ele>509.5</ele><time>2026-05-03T08:24:25.252Z</time></trkpt><trkpt lat="44.2189347" lon="10.1953321"><ele>507.0</ele><time>2026-05-03T08:24:26.253Z</time></trkpt><trkpt lat="44.2188565" lon="10.1951579"><ele>504.5</ele><time>2026-05-03T08:24:27.254Z</time></trkpt><trkpt lat="44.218774" lon="10.1949515"><ele>502.0</ele><time>2026-05-03T08:24:28.253Z</time></trkpt><trkpt lat="44.2186711" lon="10.19471"><ele>502.0</ele><time>2026-05-03T08:24:29.252Z</time></trkpt><trkpt lat="44.2185717" lon="10.1945112"><ele>502.0</ele><time>2026-05-03T08:24:30.237Z</time></trkpt><trkpt lat="44.2184783" lon="10.1943295"><ele>502.0</ele><time>2026-05-03T08:24:31.239Z</time></trkpt><trkpt lat="44.2183807" lon="10.1942145"><ele>502.0</ele><time>2026-05-03T08:24:32.255Z</time></trkpt><trkpt lat="44.2182724" lon="10.194116"><ele>502.0</ele><time>2026-05-03T08:24:33.251Z</time></trkpt><trkpt lat="44.2180782" lon="10.1940547"><ele>502.0</ele><time>2026-05-03T08:24:34.253Z</time></trkpt><trkpt lat="44.217994" lon="10.1939601"><ele>502.0</ele><time>2026-05-03T08:24:35.252Z</time></trkpt><trkpt lat="44.2178006" lon="10.1938405"><ele>500.0</ele><time>2026-05-03T08:24:36.252Z</time></trkpt><trkpt lat="44.2176983" lon="10.1936601"><ele>498.0</ele><time>2026-05-03T08:24:37.253Z</time></trkpt><trkpt lat="44.2175613" lon="10.1934522"><ele>496.0</ele><time>2026-05-03T08:24:38.253Z</time></trkpt><trkpt lat="44.2174315" lon="10.1932384"><ele>485.5</ele><time>2026-05-03T08:24:39.253Z</time></trkpt><trkpt lat="44.2172693" lon="10.1930311"><ele>475.0</ele><time>2026-05-03T08:24:40.252Z</time></trkpt><trkpt lat="44.2170926" lon="10.1928205"><ele>475.0</ele><time>2026-05-03T08:24:41.252Z</time></trkpt><trkpt lat="44.2168893" lon="10.1926552"><ele>475.0</ele><time>2026-05-03T08:24:42.25Z</time></trkpt><trkpt lat="44.2166678" lon="10.1925223"><ele>478.6666666666667</ele><time>2026-05-03T08:24:43.252Z</time></trkpt><trkpt lat="44.2164395" lon="10.1924348"><ele>482.33333333333337</ele><time>2026-05-03T08:24:44.251Z</time></trkpt><trkpt lat="44.2163123" lon="10.1923177"><ele>486.0</ele><time>2026-05-03T08:24:45.235Z</time></trkpt><trkpt lat="44.2161355" lon="10.1922755"><ele>486.0</ele><time>2026-05-03T08:24:46.241Z</time></trkpt><trkpt lat="44.2161196" lon="10.1921339"><ele>486.0</ele><time>2026-05-03T08:24:47.258Z</time></trkpt><trkpt lat="44.2161047" lon="10.1920278"><ele>486.0</ele><time>2026-05-03T08:24:48.253Z</time></trkpt><trkpt lat="44.2160192" lon="10.1919182"><ele>486.0</ele><time>2026-05-03T08:24:50.218Z</time></trkpt><trkpt lat="44.2159697" lon="10.1918528"><ele>486.0</ele><time>2026-05-03T08:24:51.208Z</time></trkpt><trkpt lat="44.2159188" lon="10.1917892"><ele>486.0</ele><time>2026-05-03T08:24:52.21Z</time></trkpt><trkpt lat="44.2158666" lon="10.1917225"><ele>486.0</ele><time>2026-05-03T08:24:53.207Z</time></trkpt><trkpt lat="44.2158163" lon="10.1916577"><ele>486.0</ele><time>2026-05-03T08:24:54.216Z</time></trkpt><trkpt lat="44.2157644" lon="10.1915907"><ele>486.0</ele><time>2026-05-03T08:24:55.21Z</time></trkpt><trkpt lat="44.2157119" lon="10.1915237"><ele>486.0</ele><time>2026-05-03T08:24:56.211Z</time></trkpt><trkpt lat="44.2156589" lon="10.1914552"><ele>486.0</ele><time>2026-05-03T08:24:57.213Z</time></trkpt><trkpt lat="44.2155894" lon="10.1913869"><ele>486.0</ele><time>2026-05-03T08:24:58.222Z</time></trkpt><trkpt lat="44.2154827" lon="10.1913108"><ele>489.25</ele><time>2026-05-03T08:24:59.251Z</time></trkpt><trkpt lat="44.2153865" lon="10.1912194"><ele>492.5</ele><time>2026-05-03T08:25:00.248Z</time></trkpt><trkpt lat="44.2153161" lon="10.1911281"><ele>495.75</ele><time>2026-05-03T08:25:01.232Z</time></trkpt><trkpt lat="44.2152318" lon="10.1910284"><ele>499.0</ele><time>2026-05-03T08:25:02.25Z</time></trkpt><trkpt lat="44.2151576" lon="10.1908825"><ele>499.0</ele><time>2026-05-03T08:25:03.257Z</time></trkpt><trkpt lat="44.2150809" lon="10.1907161"><ele>499.0</ele><time>2026-05-03T08:25:04.266Z</time></trkpt><trkpt lat="44.2149378" lon="10.1904793"><ele>499.0</ele><time>2026-05-03T08:25:05.25Z</time></trkpt><trkpt lat="44.214666" lon="10.190268"><ele>478.5</ele><time>2026-05-03T08:25:06.255Z</time></trkpt><trkpt lat="44.214553" lon="10.189788"><ele>458.0</ele><time>2026-05-03T08:25:07.255Z</time></trkpt><trkpt lat="44.2144945" lon="10.1894779"><ele>458.0</ele><time>2026-05-03T08:25:08.251Z</time></trkpt><trkpt lat="44.214353" lon="10.1892754"><ele>458.0</ele><time>2026-05-03T08:25:09.263Z</time></trkpt><trkpt lat="44.2142267" lon="10.189108"><ele>458.0</ele><time>2026-05-03T08:25:10.254Z</time></trkpt><trkpt lat="44.2141654" lon="10.1889957"><ele>457.5</ele><time>2026-05-03T08:25:11.254Z</time></trkpt><trkpt lat="44.2142141" lon="10.1888464"><ele>457.0</ele><time>2026-05-03T08:25:12.253Z</time></trkpt><trkpt lat="44.2142962" lon="10.1887341"><ele>456.5</ele><time>2026-05-03T08:25:13.251Z</time></trkpt><trkpt lat="44.214453" lon="10.1886522"><ele>456.0</ele><time>2026-05-03T08:25:14.265Z</time></trkpt><trkpt lat="44.2146036" lon="10.1885512"><ele>460.33333333333337</ele><time>2026-05-03T08:25:15.254Z</time></trkpt><trkpt lat="44.2149104" lon="10.1884466"><ele>464.6666666666667</ele><time>2026-05-03T08:25:17.243Z</time></trkpt><trkpt lat="44.214998" lon="10.1884281"><ele>469.0</ele><time>2026-05-03T08:25:18.248Z</time></trkpt><trkpt lat="44.2150841" lon="10.1882131"><ele>467.79999999999995</ele><time>2026-05-03T08:25:20.254Z</time></trkpt><trkpt lat="44.2150683" lon="10.1880999"><ele>466.59999999999997</ele><time>2026-05-03T08:25:21.253Z</time></trkpt><trkpt lat="44.2149846" lon="10.1880055"><ele>465.4</ele><time>2026-05-03T08:25:22.251Z</time></trkpt><trkpt lat="44.2149373" lon="10.1879291"><ele>464.2</ele><time>2026-05-03T08:25:23.251Z</time></trkpt><trkpt lat="44.2148553" lon="10.1878522"><ele>463.0</ele><time>2026-05-03T08:25:24.264Z</time></trkpt><trkpt lat="44.2147387" lon="10.1877961"><ele>463.0</ele><time>2026-05-03T08:25:25.257Z</time></trkpt><trkpt lat="44.214604" lon="10.1877326"><ele>463.0</ele><time>2026-05-03T08:25:26.257Z</time></trkpt><trkpt lat="44.2144496" lon="10.1876352"><ele>463.0</ele><time>2026-05-03T08:25:27.258Z</time></trkpt><trkpt lat="44.2142829" lon="10.1875289"><ele>463.0</ele><time>2026-05-03T08:25:28.254Z</time></trkpt><trkpt lat="44.2141164" lon="10.1874046"><ele>463.0</ele><time>2026-05-03T08:25:29.264Z</time></trkpt><trkpt lat="44.2139461" lon="10.187382"><ele>463.0</ele><time>2026-05-03T08:25:30.257Z</time></trkpt><trkpt lat="44.2137796" lon="10.1874199"><ele>459.0</ele><time>2026-05-03T08:25:31.257Z</time></trkpt><trkpt lat="44.2136387" lon="10.1874703"><ele>455.0</ele><time>2026-05-03T08:25:32.259Z</time></trkpt><trkpt lat="44.2135007" lon="10.1875702"><ele>451.0</ele><time>2026-05-03T08:25:33.255Z</time></trkpt><trkpt lat="44.2133552" lon="10.1876928"><ele>451.0</ele><time>2026-05-03T08:25:34.257Z</time></trkpt><trkpt lat="44.2132075" lon="10.1877622"><ele>451.0</ele><time>2026-05-03T08:25:35.243Z</time></trkpt><trkpt lat="44.2130793" lon="10.1877377"><ele>451.0</ele><time>2026-05-03T08:25:36.244Z</time></trkpt><trkpt lat="44.212954" lon="10.187692"><ele>451.0</ele><time>2026-05-03T08:25:37.242Z</time></trkpt><trkpt lat="44.2128221" lon="10.18759"><ele>448.33333333333337</ele><time>2026-05-03T08:25:38.242Z</time></trkpt><trkpt lat="44.212688" lon="10.1874288"><ele>445.66666666666663</ele><time>2026-05-03T08:25:39.242Z</time></trkpt><trkpt lat="44.2125333" lon="10.1872877"><ele>443.0</ele><time>2026-05-03T08:25:40.238Z</time></trkpt><trkpt lat="44.2123841" lon="10.1871718"><ele>438.66666666666663</ele><time>2026-05-03T08:25:41.238Z</time></trkpt><trkpt lat="44.212247" lon="10.1870485"><ele>434.33333333333337</ele><time>2026-05-03T08:25:42.239Z</time></trkpt><trkpt lat="44.2121283" lon="10.1869271"><ele>430.0</ele><time>2026-05-03T08:25:43.236Z</time></trkpt><trkpt lat="44.2120463" lon="10.1867504"><ele>430.0</ele><time>2026-05-03T08:25:44.236Z</time></trkpt><trkpt lat="44.211926" lon="10.1865852"><ele>430.0</ele><time>2026-05-03T08:25:45.237Z</time></trkpt><trkpt lat="44.2118291" lon="10.1863927"><ele>430.0</ele><time>2026-05-03T08:25:46.237Z</time></trkpt><trkpt lat="44.2117342" lon="10.1861915"><ele>430.6666666666667</ele><time>2026-05-03T08:25:47.237Z</time></trkpt><trkpt lat="44.2116743" lon="10.1859782"><ele>431.33333333333337</ele><time>2026-05-03T08:25:48.235Z</time></trkpt><trkpt lat="44.2116272" lon="10.1857583"><ele>432.0</ele><time>2026-05-03T08:25:49.241Z</time></trkpt><trkpt lat="44.2115883" lon="10.1855381"><ele>432.0</ele><time>2026-05-03T08:25:50.243Z</time></trkpt><trkpt lat="44.2115517" lon="10.1853317"><ele>432.0</ele><time>2026-05-03T08:25:51.241Z</time></trkpt><trkpt lat="44.2115031" lon="10.1851284"><ele>432.0</ele><time>2026-05-03T08:25:52.237Z</time></trkpt><trkpt lat="44.2114479" lon="10.1849225"><ele>427.66666666666663</ele><time>2026-05-03T08:25:53.237Z</time></trkpt><trkpt lat="44.211392" lon="10.1847139"><ele>423.3333333333333</ele><time>2026-05-03T08:25:54.24Z</time></trkpt><trkpt lat="44.2113447" lon="10.1844998"><ele>419.0</ele><time>2026-05-03T08:25:55.242Z</time></trkpt><trkpt lat="44.2113202" lon="10.1842938"><ele>419.0</ele><time>2026-05-03T08:25:56.237Z</time></trkpt><trkpt lat="44.2113308" lon="10.1841275"><ele>419.0</ele><time>2026-05-03T08:25:57.221Z</time></trkpt><trkpt lat="44.2113054" lon="10.1839998"><ele>419.0</ele><time>2026-05-03T08:25:58.231Z</time></trkpt><trkpt lat="44.2112825" lon="10.1838901"><ele>419.0</ele><time>2026-05-03T08:25:59.244Z</time></trkpt><trkpt lat="44.2113116" lon="10.1837751"><ele>419.0</ele><time>2026-05-03T08:26:00.224Z</time></trkpt><trkpt lat="44.2113759" lon="10.1836693"><ele>419.0</ele><time>2026-05-03T08:26:01.214Z</time></trkpt><trkpt lat="44.2113882" lon="10.1835364"><ele>419.0</ele><time>2026-05-03T08:26:02.231Z</time></trkpt><trkpt lat="44.211411" lon="10.1834125"><ele>419.0</ele><time>2026-05-03T08:26:03.239Z</time></trkpt><trkpt lat="44.2114276" lon="10.183288"><ele>419.0</ele><time>2026-05-03T08:26:04.239Z</time></trkpt><trkpt lat="44.2114695" lon="10.183163"><ele>419.0</ele><time>2026-05-03T08:26:05.239Z</time></trkpt><trkpt lat="44.2115354" lon="10.1830518"><ele>418.4</ele><time>2026-05-03T08:26:06.224Z</time></trkpt><trkpt lat="44.2116045" lon="10.1829685"><ele>417.79999999999995</ele><time>2026-05-03T08:26:07.233Z</time></trkpt><trkpt lat="44.2116791" lon="10.1828895"><ele>417.20000000000005</ele><time>2026-05-03T08:26:08.226Z</time></trkpt><trkpt lat="44.2117695" lon="10.1827813"><ele>416.6</ele><time>2026-05-03T08:26:09.231Z</time></trkpt><trkpt lat="44.2118293" lon="10.1826709"><ele>416.0</ele><time>2026-05-03T08:26:10.224Z</time></trkpt><trkpt lat="44.2118517" lon="10.1825331"><ele>416.0</ele><time>2026-05-03T08:26:11.231Z</time></trkpt><trkpt lat="44.2118719" lon="10.1823865"><ele>416.0</ele><time>2026-05-03T08:26:12.242Z</time></trkpt><trkpt lat="44.2119182" lon="10.1822336"><ele>416.0</ele><time>2026-05-03T08:26:13.242Z</time></trkpt><trkpt lat="44.2119957" lon="10.1820526"><ele>416.0</ele><time>2026-05-03T08:26:14.241Z</time></trkpt><trkpt lat="44.2120782" lon="10.1818345"><ele>412.66666666666663</ele><time>2026-05-03T08:26:15.24Z</time></trkpt><trkpt lat="44.2121563" lon="10.1815879"><ele>409.33333333333337</ele><time>2026-05-03T08:26:16.246Z</time></trkpt><trkpt lat="44.212211" lon="10.1813894"><ele>406.0</ele><time>2026-05-03T08:26:17.244Z</time></trkpt><trkpt lat="44.2122944" lon="10.1811607"><ele>406.6666666666667</ele><time>2026-05-03T08:26:18.245Z</time></trkpt><trkpt lat="44.2123836" lon="10.1809311"><ele>407.33333333333337</ele><time>2026-05-03T08:26:19.245Z</time></trkpt><trkpt lat="44.2124673" lon="10.1807082"><ele>408.0</ele><time>2026-05-03T08:26:20.246Z</time></trkpt><trkpt lat="44.2125452" lon="10.1805132"><ele>404.66666666666663</ele><time>2026-05-03T08:26:21.243Z</time></trkpt><trkpt lat="44.2126377" lon="10.1802994"><ele>401.3333333333333</ele><time>2026-05-03T08:26:22.24Z</time></trkpt><trkpt lat="44.2127283" lon="10.1800905"><ele>398.0</ele><time>2026-05-03T08:26:23.239Z</time></trkpt><trkpt lat="44.2128187" lon="10.179895"><ele>399.0</ele><time>2026-05-03T08:26:24.238Z</time></trkpt><trkpt lat="44.2128842" lon="10.1797356"><ele>400.0</ele><time>2026-05-03T08:26:25.244Z</time></trkpt><trkpt lat="44.2129541" lon="10.1795909"><ele>401.0</ele><time>2026-05-03T08:26:26.242Z</time></trkpt><trkpt lat="44.2130384" lon="10.1794723"><ele>402.0</ele><time>2026-05-03T08:26:27.247Z</time></trkpt><trkpt lat="44.2131561" lon="10.1793867"><ele>398.0</ele><time>2026-05-03T08:26:29.245Z</time></trkpt><trkpt lat="44.2130662" lon="10.1793001"><ele>394.0</ele><time>2026-05-03T08:26:32.247Z</time></trkpt><trkpt lat="44.2129919" lon="10.1793187"><ele>390.0</ele><time>2026-05-03T08:26:33.249Z</time></trkpt><trkpt lat="44.2128649" lon="10.1793445"><ele>386.0</ele><time>2026-05-03T08:26:34.251Z</time></trkpt><trkpt lat="44.2127256" lon="10.179431"><ele>386.0</ele><time>2026-05-03T08:26:35.247Z</time></trkpt><trkpt lat="44.2125818" lon="10.1795357"><ele>386.0</ele><time>2026-05-03T08:26:36.247Z</time></trkpt><trkpt lat="44.2124221" lon="10.1796432"><ele>386.0</ele><time>2026-05-03T08:26:37.244Z</time></trkpt><trkpt lat="44.2122166" lon="10.1797689"><ele>385.0</ele><time>2026-05-03T08:26:38.257Z</time></trkpt><trkpt lat="44.2120269" lon="10.1799096"><ele>384.0</ele><time>2026-05-03T08:26:39.243Z</time></trkpt><trkpt lat="44.2118244" lon="10.1800374"><ele>383.0</ele><time>2026-05-03T08:26:40.246Z</time></trkpt><trkpt lat="44.2116224" lon="10.1801659"><ele>381.5</ele><time>2026-05-03T08:26:41.249Z</time></trkpt><trkpt lat="44.211467" lon="10.1803848"><ele>380.0</ele><time>2026-05-03T08:26:42.243Z</time></trkpt><trkpt lat="44.2112733" lon="10.1805711"><ele>379.0</ele><time>2026-05-03T08:26:43.257Z</time></trkpt><trkpt lat="44.2110692" lon="10.1807481"><ele>378.0</ele><time>2026-05-03T08:26:44.246Z</time></trkpt><trkpt lat="44.2108687" lon="10.1809066"><ele>378.0</ele><time>2026-05-03T08:26:45.225Z</time></trkpt><trkpt lat="44.2106785" lon="10.1810286"><ele>378.0</ele><time>2026-05-03T08:26:46.216Z</time></trkpt><trkpt lat="44.2104852" lon="10.1811299"><ele>378.0</ele><time>2026-05-03T08:26:47.209Z</time></trkpt><trkpt lat="44.2103215" lon="10.1812097"><ele>375.6666666666667</ele><time>2026-05-03T08:26:48.231Z</time></trkpt><trkpt lat="44.2101427" lon="10.1812722"><ele>373.33333333333337</ele><time>2026-05-03T08:26:49.209Z</time></trkpt><trkpt lat="44.2099662" lon="10.1813349"><ele>371.0</ele><time>2026-05-03T08:26:50.217Z</time></trkpt><trkpt lat="44.2097819" lon="10.1813729"><ele>368.33333333333337</ele><time>2026-05-03T08:26:51.207Z</time></trkpt><trkpt lat="44.2095905" lon="10.1814112"><ele>365.6666666666667</ele><time>2026-05-03T08:26:52.21Z</time></trkpt><trkpt lat="44.2094172" lon="10.1813991"><ele>363.0</ele><time>2026-05-03T08:26:53.229Z</time></trkpt><trkpt lat="44.2092587" lon="10.1813839"><ele>363.0</ele><time>2026-05-03T08:26:54.215Z</time></trkpt><trkpt lat="44.2091747" lon="10.1813426"><ele>363.0</ele><time>2026-05-03T08:26:55.216Z</time></trkpt><trkpt lat="44.2090852" lon="10.1812829"><ele>363.0</ele><time>2026-05-03T08:26:56.208Z</time></trkpt><trkpt lat="44.2090253" lon="10.181205"><ele>363.0</ele><time>2026-05-03T08:26:57.213Z</time></trkpt><trkpt lat="44.208951" lon="10.1811803"><ele>363.0</ele><time>2026-05-03T08:26:58.226Z</time></trkpt><trkpt lat="44.2088667" lon="10.1813045"><ele>361.79999999999995</ele><time>2026-05-03T08:26:59.213Z</time></trkpt><trkpt lat="44.2088321" lon="10.1814208"><ele>360.6</ele><time>2026-05-03T08:27:00.215Z</time></trkpt><trkpt lat="44.2088267" lon="10.1815717"><ele>359.4</ele><time>2026-05-03T08:27:01.232Z</time></trkpt><trkpt lat="44.2088046" lon="10.1816646"><ele>358.20000000000005</ele><time>2026-05-03T08:27:02.247Z</time></trkpt><trkpt lat="44.2087576" lon="10.1817424"><ele>357.0</ele><time>2026-05-03T08:27:03.255Z</time></trkpt><trkpt lat="44.2086422" lon="10.1817799"><ele>357.0</ele><time>2026-05-03T08:27:04.242Z</time></trkpt><trkpt lat="44.2085176" lon="10.1817932"><ele>357.0</ele><time>2026-05-03T08:27:05.222Z</time></trkpt><trkpt lat="44.2084283" lon="10.1817771"><ele>357.0</ele><time>2026-05-03T08:27:06.209Z</time></trkpt><trkpt lat="44.2083474" lon="10.1817248"><ele>357.0</ele><time>2026-05-03T08:27:07.209Z</time></trkpt><trkpt lat="44.2082613" lon="10.1816544"><ele>357.0</ele><time>2026-05-03T08:27:08.201Z</time></trkpt><trkpt lat="44.2081697" lon="10.1815738"><ele>357.20000000000005</ele><time>2026-05-03T08:27:09.222Z</time></trkpt><trkpt lat="44.2080792" lon="10.1815065"><ele>357.4</ele><time>2026-05-03T08:27:10.201Z</time></trkpt><trkpt lat="44.2079875" lon="10.1814403"><ele>357.6</ele><time>2026-05-03T08:27:11.2Z</time></trkpt><trkpt lat="44.2078969" lon="10.1813733"><ele>357.79999999999995</ele><time>2026-05-03T08:27:12.197Z</time></trkpt><trkpt lat="44.207807" lon="10.181306"><ele>358.0</ele><time>2026-05-03T08:27:13.197Z</time></trkpt><trkpt lat="44.2077181" lon="10.1812394"><ele>358.0</ele><time>2026-05-03T08:27:14.211Z</time></trkpt><trkpt lat="44.2075368" lon="10.1811071"><ele>358.0</ele><time>2026-05-03T08:27:16.199Z</time></trkpt><trkpt lat="44.2072558" lon="10.180913"><ele>360.0</ele><time>2026-05-03T08:27:19.222Z</time></trkpt><trkpt lat="44.2071518" lon="10.1808009"><ele>362.0</ele><time>2026-05-03T08:27:20.212Z</time></trkpt><trkpt lat="44.2069997" lon="10.1806581"><ele>364.0</ele><time>2026-05-03T08:27:21.211Z</time></trkpt><trkpt lat="44.2068314" lon="10.180474"><ele>363.5</ele><time>2026-05-03T08:27:22.207Z</time></trkpt><trkpt lat="44.2066394" lon="10.1802894"><ele>363.0</ele><time>2026-05-03T08:27:23.207Z</time></trkpt><trkpt lat="44.2064601" lon="10.1800839"><ele>340.0</ele><time>2026-05-03T08:27:24.217Z</time></trkpt><trkpt lat="44.2051372" lon="10.1782982"><ele>340.0</ele><time>2026-05-03T08:27:31.236Z</time></trkpt><trkpt lat="44.2048831" lon="10.1782637"><ele>340.0</ele><time>2026-05-03T08:27:32.243Z</time></trkpt><trkpt lat="44.2045709" lon="10.1783745"><ele>342.5</ele><time>2026-05-03T08:27:33.236Z</time></trkpt><trkpt lat="44.2042656" lon="10.1783322"><ele>345.0</ele><time>2026-05-03T08:27:34.249Z</time></trkpt><trkpt lat="44.2040087" lon="10.1782436"><ele>347.0</ele><time>2026-05-03T08:27:35.242Z</time></trkpt><trkpt lat="44.2037601" lon="10.1782444"><ele>349.0</ele><time>2026-05-03T08:27:36.246Z</time></trkpt><trkpt lat="44.2035689" lon="10.1781992"><ele>351.0</ele><time>2026-05-03T08:27:37.247Z</time></trkpt><trkpt lat="44.203381" lon="10.1781557"><ele>347.6666666666667</ele><time>2026-05-03T08:27:38.247Z</time></trkpt><trkpt lat="44.2032094" lon="10.1781052"><ele>344.33333333333337</ele><time>2026-05-03T08:27:39.257Z</time></trkpt><trkpt lat="44.2030503" lon="10.1780543"><ele>341.0</ele><time>2026-05-03T08:27:40.242Z</time></trkpt><trkpt lat="44.2029269" lon="10.1779937"><ele>341.0</ele><time>2026-05-03T08:27:41.245Z</time></trkpt><trkpt lat="44.202803" lon="10.1779237"><ele>341.0</ele><time>2026-05-03T08:27:42.227Z</time></trkpt><trkpt lat="44.2026679" lon="10.1778561"><ele>341.0</ele><time>2026-05-03T08:27:43.228Z</time></trkpt><trkpt lat="44.2025258" lon="10.1778054"><ele>341.0</ele><time>2026-05-03T08:27:44.255Z</time></trkpt><trkpt lat="44.2023967" lon="10.1776583"><ele>342.5</ele><time>2026-05-03T08:27:45.244Z</time></trkpt><trkpt lat="44.2022704" lon="10.1775197"><ele>344.0</ele><time>2026-05-03T08:27:46.246Z</time></trkpt><trkpt lat="44.20216" lon="10.1774156"><ele>345.5</ele><time>2026-05-03T08:27:47.249Z</time></trkpt><trkpt lat="44.2020455" lon="10.1773324"><ele>347.0</ele><time>2026-05-03T08:27:48.247Z</time></trkpt><trkpt lat="44.2019567" lon="10.1771927"><ele>344.0</ele><time>2026-05-03T08:27:49.245Z</time></trkpt><trkpt lat="44.2019145" lon="10.1770112"><ele>341.0</ele><time>2026-05-03T08:27:50.261Z</time></trkpt><trkpt lat="44.2018944" lon="10.1768261"><ele>338.0</ele><time>2026-05-03T08:27:51.243Z</time></trkpt><trkpt lat="44.2018975" lon="10.1766245"><ele>335.0</ele><time>2026-05-03T08:27:52.249Z</time></trkpt><trkpt lat="44.2019017" lon="10.176416"><ele>330.6666666666667</ele><time>2026-05-03T08:27:53.245Z</time></trkpt><trkpt lat="44.2019024" lon="10.1761873"><ele>326.3333333333333</ele><time>2026-05-03T08:27:54.224Z</time></trkpt><trkpt lat="44.201914" lon="10.1759078"><ele>322.0</ele><time>2026-05-03T08:27:55.249Z</time></trkpt><trkpt lat="44.2018578" lon="10.1756782"><ele>318.66666666666663</ele><time>2026-05-03T08:27:56.246Z</time></trkpt><trkpt lat="44.2017725" lon="10.1754846"><ele>315.3333333333333</ele><time>2026-05-03T08:27:57.245Z</time></trkpt><trkpt lat="44.2016327" lon="10.1752923"><ele>312.0</ele><time>2026-05-03T08:27:58.247Z</time></trkpt><trkpt lat="44.2014632" lon="10.1751253"><ele>311.6666666666667</ele><time>2026-05-03T08:27:59.241Z</time></trkpt><trkpt lat="44.2012747" lon="10.1749921"><ele>311.33333333333337</ele><time>2026-05-03T08:28:00.251Z</time></trkpt><trkpt lat="44.2010947" lon="10.1748665"><ele>311.0</ele><time>2026-05-03T08:28:01.236Z</time></trkpt><trkpt lat="44.2009407" lon="10.174748"><ele>310.0</ele><time>2026-05-03T08:28:02.246Z</time></trkpt><trkpt lat="44.200793" lon="10.1746235"><ele>309.0</ele><time>2026-05-03T08:28:03.244Z</time></trkpt><trkpt lat="44.2006257" lon="10.1744778"><ele>308.0</ele><time>2026-05-03T08:28:04.242Z</time></trkpt><trkpt lat="44.2005245" lon="10.1742609"><ele>305.33333333333337</ele><time>2026-05-03T08:28:05.253Z</time></trkpt><trkpt lat="44.2005126" lon="10.1740104"><ele>302.6666666666667</ele><time>2026-05-03T08:28:06.245Z</time></trkpt><trkpt lat="44.20053" lon="10.1737475"><ele>300.0</ele><time>2026-05-03T08:28:07.244Z</time></trkpt><trkpt lat="44.2005511" lon="10.1734941"><ele>300.0</ele><time>2026-05-03T08:28:08.243Z</time></trkpt><trkpt lat="44.2005675" lon="10.17322"><ele>300.0</ele><time>2026-05-03T08:28:09.249Z</time></trkpt><trkpt lat="44.2006015" lon="10.1729504"><ele>300.0</ele><time>2026-05-03T08:28:10.26Z</time></trkpt><trkpt lat="44.2005699" lon="10.172741"><ele>300.0</ele><time>2026-05-03T08:28:11.248Z</time></trkpt><trkpt lat="44.2005558" lon="10.1725504"><ele>300.0</ele><time>2026-05-03T08:28:12.251Z</time></trkpt><trkpt lat="44.2005476" lon="10.1724015"><ele>300.0</ele><time>2026-05-03T08:28:13.246Z</time></trkpt><trkpt lat="44.2005381" lon="10.1722519"><ele>300.0</ele><time>2026-05-03T08:28:14.243Z</time></trkpt><trkpt lat="44.2004555" lon="10.1721031"><ele>302.3333333333333</ele><time>2026-05-03T08:28:15.235Z</time></trkpt><trkpt lat="44.2003608" lon="10.1719372"><ele>304.66666666666663</ele><time>2026-05-03T08:28:16.238Z</time></trkpt><trkpt lat="44.2002677" lon="10.1717504"><ele>307.0</ele><time>2026-05-03T08:28:17.265Z</time></trkpt><trkpt lat="44.2001658" lon="10.1715511"><ele>310.66666666666663</ele><time>2026-05-03T08:28:18.256Z</time></trkpt><trkpt lat="44.2000576" lon="10.1713274"><ele>314.3333333333333</ele><time>2026-05-03T08:28:19.238Z</time></trkpt><trkpt lat="44.1999579" lon="10.1710932"><ele>318.0</ele><time>2026-05-03T08:28:20.229Z</time></trkpt><trkpt lat="44.1998534" lon="10.1708968"><ele>314.0</ele><time>2026-05-03T08:28:21.245Z</time></trkpt><trkpt lat="44.1997213" lon="10.1707309"><ele>310.0</ele><time>2026-05-03T08:28:22.257Z</time></trkpt><trkpt lat="44.1995806" lon="10.170575"><ele>306.0</ele><time>2026-05-03T08:28:23.259Z</time></trkpt><trkpt lat="44.1994193" lon="10.1704626"><ele>306.0</ele><time>2026-05-03T08:28:24.256Z</time></trkpt><trkpt lat="44.199284" lon="10.1703501"><ele>306.0</ele><time>2026-05-03T08:28:25.27Z</time></trkpt><trkpt lat="44.1991611" lon="10.1702612"><ele>306.0</ele><time>2026-05-03T08:28:26.257Z</time></trkpt><trkpt lat="44.199045" lon="10.1701532"><ele>306.0</ele><time>2026-05-03T08:28:27.259Z</time></trkpt><trkpt lat="44.1989684" lon="10.1699762"><ele>299.3333333333333</ele><time>2026-05-03T08:28:28.252Z</time></trkpt><trkpt lat="44.1989335" lon="10.1697589"><ele>292.66666666666663</ele><time>2026-05-03T08:28:29.263Z</time></trkpt><trkpt lat="44.1989311" lon="10.1695032"><ele>286.0</ele><time>2026-05-03T08:28:30.253Z</time></trkpt><trkpt lat="44.1989499" lon="10.1692371"><ele>285.66666666666663</ele><time>2026-05-03T08:28:31.251Z</time></trkpt><trkpt lat="44.1989526" lon="10.1689783"><ele>285.3333333333333</ele><time>2026-05-03T08:28:32.254Z</time></trkpt><trkpt lat="44.198979" lon="10.1686928"><ele>285.0</ele><time>2026-05-03T08:28:33.25Z</time></trkpt><trkpt lat="44.1989649" lon="10.1684083"><ele>285.0</ele><time>2026-05-03T08:28:34.251Z</time></trkpt><trkpt lat="44.1989357" lon="10.1681353"><ele>285.0</ele><time>2026-05-03T08:28:35.251Z</time></trkpt><trkpt lat="44.1988936" lon="10.1678377"><ele>285.0</ele><time>2026-05-03T08:28:36.252Z</time></trkpt><trkpt lat="44.198796" lon="10.1675541"><ele>286.3333333333333</ele><time>2026-05-03T08:28:37.236Z</time></trkpt><trkpt lat="44.1987245" lon="10.1672497"><ele>287.66666666666663</ele><time>2026-05-03T08:28:38.226Z</time></trkpt><trkpt lat="44.198646" lon="10.1669894"><ele>289.0</ele><time>2026-05-03T08:28:39.241Z</time></trkpt><trkpt lat="44.1985846" lon="10.1667044"><ele>289.3333333333333</ele><time>2026-05-03T08:28:40.257Z</time></trkpt><trkpt lat="44.1985118" lon="10.1664477"><ele>289.6666666666667</ele><time>2026-05-03T08:28:41.26Z</time></trkpt><trkpt lat="44.1984281" lon="10.1662735"><ele>290.0</ele><time>2026-05-03T08:28:42.254Z</time></trkpt><trkpt lat="44.1983567" lon="10.1661185"><ele>290.0</ele><time>2026-05-03T08:28:43.236Z</time></trkpt><trkpt lat="44.1983029" lon="10.1659528"><ele>290.0</ele><time>2026-05-03T08:28:44.243Z</time></trkpt><trkpt lat="44.1982749" lon="10.1657816"><ele>290.0</ele><time>2026-05-03T08:28:45.255Z</time></trkpt><trkpt lat="44.198275" lon="10.165588"><ele>290.0</ele><time>2026-05-03T08:28:46.238Z</time></trkpt><trkpt lat="44.1982961" lon="10.1653755"><ele>289.0</ele><time>2026-05-03T08:28:47.242Z</time></trkpt><trkpt lat="44.198284" lon="10.1651581"><ele>288.0</ele><time>2026-05-03T08:28:48.256Z</time></trkpt><trkpt lat="44.1982749" lon="10.1648915"><ele>287.0</ele><time>2026-05-03T08:28:49.256Z</time></trkpt><trkpt lat="44.1982066" lon="10.1646449"><ele>283.0</ele><time>2026-05-03T08:28:50.256Z</time></trkpt><trkpt lat="44.1981274" lon="10.1643762"><ele>279.0</ele><time>2026-05-03T08:28:51.254Z</time></trkpt><trkpt lat="44.1980382" lon="10.1640999"><ele>275.0</ele><time>2026-05-03T08:28:52.256Z</time></trkpt><trkpt lat="44.1979511" lon="10.1638518"><ele>275.0</ele><time>2026-05-03T08:28:53.256Z</time></trkpt><trkpt lat="44.1979378" lon="10.163573"><ele>275.0</ele><time>2026-05-03T08:28:54.256Z</time></trkpt><trkpt lat="44.1979191" lon="10.1633101"><ele>275.0</ele><time>2026-05-03T08:28:55.257Z</time></trkpt><trkpt lat="44.1979131" lon="10.1630572"><ele>272.6666666666667</ele><time>2026-05-03T08:28:56.257Z</time></trkpt><trkpt lat="44.1978802" lon="10.1627909"><ele>270.3333333333333</ele><time>2026-05-03T08:28:57.255Z</time></trkpt><trkpt lat="44.1978724" lon="10.1625035"><ele>268.0</ele><time>2026-05-03T08:28:58.254Z</time></trkpt><trkpt lat="44.1978071" lon="10.1622628"><ele>267.66666666666663</ele><time>2026-05-03T08:28:59.255Z</time></trkpt><trkpt lat="44.1977305" lon="10.1619859"><ele>267.3333333333333</ele><time>2026-05-03T08:29:00.237Z</time></trkpt><trkpt lat="44.1976643" lon="10.1617256"><ele>267.0</ele><time>2026-05-03T08:29:01.222Z</time></trkpt><trkpt lat="44.1976143" lon="10.1614533"><ele>266.6666666666667</ele><time>2026-05-03T08:29:02.219Z</time></trkpt><trkpt lat="44.1975655" lon="10.161184"><ele>266.33333333333337</ele><time>2026-05-03T08:29:03.219Z</time></trkpt><trkpt lat="44.1975296" lon="10.160909"><ele>266.0</ele><time>2026-05-03T08:29:04.215Z</time></trkpt><trkpt lat="44.1974824" lon="10.1606342"><ele>266.0</ele><time>2026-05-03T08:29:05.214Z</time></trkpt><trkpt lat="44.1974567" lon="10.1603642"><ele>266.0</ele><time>2026-05-03T08:29:06.209Z</time></trkpt><trkpt lat="44.1974287" lon="10.1600996"><ele>266.0</ele><time>2026-05-03T08:29:07.216Z</time></trkpt><trkpt lat="44.1974073" lon="10.1598558"><ele>266.0</ele><time>2026-05-03T08:29:08.219Z</time></trkpt><trkpt lat="44.197379" lon="10.1596203"><ele>266.0</ele><time>2026-05-03T08:29:09.217Z</time></trkpt><trkpt lat="44.1973445" lon="10.1593849"><ele>266.0</ele><time>2026-05-03T08:29:10.224Z</time></trkpt><trkpt lat="44.1973108" lon="10.1591517"><ele>262.6666666666667</ele><time>2026-05-03T08:29:11.219Z</time></trkpt><trkpt lat="44.1972458" lon="10.1589459"><ele>259.3333333333333</ele><time>2026-05-03T08:29:12.222Z</time></trkpt><trkpt lat="44.1971519" lon="10.1587713"><ele>256.0</ele><time>2026-05-03T08:29:13.222Z</time></trkpt><trkpt lat="44.1970836" lon="10.158559"><ele>256.0</ele><time>2026-05-03T08:29:14.223Z</time></trkpt><trkpt lat="44.1970007" lon="10.1583429"><ele>256.0</ele><time>2026-05-03T08:29:15.224Z</time></trkpt><trkpt lat="44.1969763" lon="10.1580832"><ele>256.0</ele><time>2026-05-03T08:29:16.224Z</time></trkpt><trkpt lat="44.1969478" lon="10.157816"><ele>255.66666666666666</ele><time>2026-05-03T08:29:17.224Z</time></trkpt><trkpt lat="44.19693" lon="10.1575288"><ele>255.33333333333331</ele><time>2026-05-03T08:29:18.222Z</time></trkpt><trkpt lat="44.1968953" lon="10.1572692"><ele>255.0</ele><time>2026-05-03T08:29:19.22Z</time></trkpt><trkpt lat="44.1968262" lon="10.1570066"><ele>257.0</ele><time>2026-05-03T08:29:20.241Z</time></trkpt><trkpt lat="44.1967528" lon="10.1567584"><ele>259.0</ele><time>2026-05-03T08:29:21.255Z</time></trkpt><trkpt lat="44.1966901" lon="10.1565297"><ele>261.0</ele><time>2026-05-03T08:29:22.254Z</time></trkpt><trkpt lat="44.1966254" lon="10.1563011"><ele>261.6666666666667</ele><time>2026-05-03T08:29:23.254Z</time></trkpt><trkpt lat="44.1965478" lon="10.1560773"><ele>262.33333333333337</ele><time>2026-05-03T08:29:24.253Z</time></trkpt><trkpt lat="44.1964668" lon="10.1558619"><ele>263.0</ele><time>2026-05-03T08:29:25.257Z</time></trkpt><trkpt lat="44.1964158" lon="10.1556564"><ele>263.0</ele><time>2026-05-03T08:29:26.237Z</time></trkpt><trkpt lat="44.1963732" lon="10.1554651"><ele>263.0</ele><time>2026-05-03T08:29:27.223Z</time></trkpt><trkpt lat="44.1963085" lon="10.1553468"><ele>263.0</ele><time>2026-05-03T08:29:28.221Z</time></trkpt><trkpt lat="44.1961817" lon="10.15529"><ele>263.0</ele><time>2026-05-03T08:29:29.221Z</time></trkpt><trkpt lat="44.1960427" lon="10.1552412"><ele>263.0</ele><time>2026-05-03T08:29:30.221Z</time></trkpt><trkpt lat="44.1958784" lon="10.1552035"><ele>263.0</ele><time>2026-05-03T08:29:31.223Z</time></trkpt><trkpt lat="44.1957415" lon="10.1551882"><ele>263.0</ele><time>2026-05-03T08:29:32.218Z</time></trkpt><trkpt lat="44.1955735" lon="10.1551826"><ele>264.0</ele><time>2026-05-03T08:29:33.214Z</time></trkpt><trkpt lat="44.195388" lon="10.1551824"><ele>265.0</ele><time>2026-05-03T08:29:34.214Z</time></trkpt><trkpt lat="44.1951998" lon="10.1551973"><ele>266.0</ele><time>2026-05-03T08:29:35.214Z</time></trkpt><trkpt lat="44.1950098" lon="10.1552127"><ele>266.0</ele><time>2026-05-03T08:29:36.223Z</time></trkpt><trkpt lat="44.1948427" lon="10.1552024"><ele>266.0</ele><time>2026-05-03T08:29:37.217Z</time></trkpt><trkpt lat="44.1946585" lon="10.1551136"><ele>266.0</ele><time>2026-05-03T08:29:38.223Z</time></trkpt><trkpt lat="44.1944961" lon="10.1550039"><ele>265.33333333333337</ele><time>2026-05-03T08:29:39.225Z</time></trkpt><trkpt lat="44.194321" lon="10.1549274"><ele>264.6666666666667</ele><time>2026-05-03T08:29:40.226Z</time></trkpt><trkpt lat="44.1941404" lon="10.1548664"><ele>264.0</ele><time>2026-05-03T08:29:41.22Z</time></trkpt><trkpt lat="44.1939492" lon="10.1548271"><ele>257.3333333333333</ele><time>2026-05-03T08:29:42.228Z</time></trkpt><trkpt lat="44.1937695" lon="10.154776"><ele>250.66666666666666</ele><time>2026-05-03T08:29:43.219Z</time></trkpt><trkpt lat="44.1935958" lon="10.1547202"><ele>244.0</ele><time>2026-05-03T08:29:44.214Z</time></trkpt><trkpt lat="44.1934152" lon="10.154662"><ele>244.0</ele><time>2026-05-03T08:29:45.217Z</time></trkpt><trkpt lat="44.1932379" lon="10.1546"><ele>244.0</ele><time>2026-05-03T08:29:46.222Z</time></trkpt><trkpt lat="44.1931758" lon="10.1544584"><ele>244.0</ele><time>2026-05-03T08:29:47.223Z</time></trkpt><trkpt lat="44.1931771" lon="10.1542757"><ele>244.0</ele><time>2026-05-03T08:29:48.217Z</time></trkpt><trkpt lat="44.1931758" lon="10.1540602"><ele>242.33333333333331</ele><time>2026-05-03T08:29:49.222Z</time></trkpt><trkpt lat="44.1931181" lon="10.1538252"><ele>240.66666666666669</ele><time>2026-05-03T08:29:50.221Z</time></trkpt><trkpt lat="44.1931254" lon="10.1535951"><ele>239.0</ele><time>2026-05-03T08:29:51.222Z</time></trkpt><trkpt lat="44.1931718" lon="10.153333"><ele>240.0</ele><time>2026-05-03T08:29:52.221Z</time></trkpt><trkpt lat="44.1932816" lon="10.153028"><ele>241.0</ele><time>2026-05-03T08:29:53.242Z</time></trkpt><trkpt lat="44.1933153" lon="10.1527598"><ele>242.0</ele><time>2026-05-03T08:29:54.258Z</time></trkpt><trkpt lat="44.1933086" lon="10.1525378"><ele>242.33333333333334</ele><time>2026-05-03T08:29:55.235Z</time></trkpt><trkpt lat="44.1933185" lon="10.1523011"><ele>242.66666666666669</ele><time>2026-05-03T08:29:56.227Z</time></trkpt><trkpt lat="44.1933272" lon="10.1520843"><ele>243.0</ele><time>2026-05-03T08:29:57.245Z</time></trkpt><trkpt lat="44.193331" lon="10.1518888"><ele>243.0</ele><time>2026-05-03T08:29:58.24Z</time></trkpt><trkpt lat="44.1933781" lon="10.1516809"><ele>243.0</ele><time>2026-05-03T08:29:59.247Z</time></trkpt><trkpt lat="44.1933786" lon="10.151514"><ele>243.0</ele><time>2026-05-03T08:30:00.238Z</time></trkpt><trkpt lat="44.1933641" lon="10.1513592"><ele>243.0</ele><time>2026-05-03T08:30:01.22Z</time></trkpt><trkpt lat="44.1933459" lon="10.1512205"><ele>242.5</ele><time>2026-05-03T08:30:02.223Z</time></trkpt><trkpt lat="44.1933219" lon="10.1510898"><ele>242.0</ele><time>2026-05-03T08:30:03.229Z</time></trkpt><trkpt lat="44.1933093" lon="10.1509702"><ele>241.5</ele><time>2026-05-03T08:30:04.227Z</time></trkpt><trkpt lat="44.1932532" lon="10.1509232"><ele>241.0</ele><time>2026-05-03T08:30:05.245Z</time></trkpt><trkpt lat="44.1932107" lon="10.1508455"><ele>240.5</ele><time>2026-05-03T08:30:06.258Z</time></trkpt><trkpt lat="44.1931465" lon="10.1507762"><ele>240.0</ele><time>2026-05-03T08:30:07.257Z</time></trkpt><trkpt lat="44.1930852" lon="10.1507067"><ele>240.0</ele><time>2026-05-03T08:30:08.252Z</time></trkpt><trkpt lat="44.1930336" lon="10.1506223"><ele>240.0</ele><time>2026-05-03T08:30:09.256Z</time></trkpt><trkpt lat="44.1929802" lon="10.1505366"><ele>240.0</ele><time>2026-05-03T08:30:10.257Z</time></trkpt><trkpt lat="44.1929094" lon="10.1504417"><ele>240.0</ele><time>2026-05-03T08:30:11.252Z</time></trkpt><trkpt lat="44.1928294" lon="10.1503403"><ele>240.0</ele><time>2026-05-03T08:30:12.252Z</time></trkpt><trkpt lat="44.1927402" lon="10.1502585"><ele>240.0</ele><time>2026-05-03T08:30:13.231Z</time></trkpt><trkpt lat="44.1926643" lon="10.1501732"><ele>240.0</ele><time>2026-05-03T08:30:14.24Z</time></trkpt><trkpt lat="44.1925844" lon="10.150087"><ele>240.0</ele><time>2026-05-03T08:30:15.251Z</time></trkpt><trkpt lat="44.1925112" lon="10.1499777"><ele>240.0</ele><time>2026-05-03T08:30:16.234Z</time></trkpt><trkpt lat="44.1924478" lon="10.1498517"><ele>240.0</ele><time>2026-05-03T08:30:17.223Z</time></trkpt><trkpt lat="44.1924064" lon="10.1497003"><ele>241.75</ele><time>2026-05-03T08:30:18.24Z</time></trkpt><trkpt lat="44.1923452" lon="10.1495592"><ele>243.5</ele><time>2026-05-03T08:30:19.25Z</time></trkpt><trkpt lat="44.1922735" lon="10.149428"><ele>245.25</ele><time>2026-05-03T08:30:20.255Z</time></trkpt><trkpt lat="44.1922098" lon="10.1493016"><ele>247.0</ele><time>2026-05-03T08:30:21.256Z</time></trkpt><trkpt lat="44.1921497" lon="10.1491842"><ele>243.25</ele><time>2026-05-03T08:30:22.257Z</time></trkpt><trkpt lat="44.1921013" lon="10.1490465"><ele>239.5</ele><time>2026-05-03T08:30:23.257Z</time></trkpt><trkpt lat="44.1920709" lon="10.148894"><ele>235.75</ele><time>2026-05-03T08:30:24.252Z</time></trkpt><trkpt lat="44.1920522" lon="10.1487253"><ele>232.0</ele><time>2026-05-03T08:30:25.233Z</time></trkpt><trkpt lat="44.1920239" lon="10.1485483"><ele>231.66666666666666</ele><time>2026-05-03T08:30:26.22Z</time></trkpt><trkpt lat="44.1919998" lon="10.1483542"><ele>231.33333333333331</ele><time>2026-05-03T08:30:27.222Z</time></trkpt><trkpt lat="44.191962" lon="10.1481475"><ele>231.0</ele><time>2026-05-03T08:30:28.238Z</time></trkpt><trkpt lat="44.1919113" lon="10.1479252"><ele>231.0</ele><time>2026-05-03T08:30:29.249Z</time></trkpt><trkpt lat="44.1918592" lon="10.1477154"><ele>231.0</ele><time>2026-05-03T08:30:30.231Z</time></trkpt><trkpt lat="44.191825" lon="10.1475205"><ele>231.0</ele><time>2026-05-03T08:30:31.221Z</time></trkpt><trkpt lat="44.1918039" lon="10.1473433"><ele>231.0</ele><time>2026-05-03T08:30:32.224Z</time></trkpt><trkpt lat="44.19176" lon="10.1471757"><ele>232.75</ele><time>2026-05-03T08:30:33.22Z</time></trkpt><trkpt lat="44.1917771" lon="10.1469652"><ele>234.5</ele><time>2026-05-03T08:30:34.242Z</time></trkpt><trkpt lat="44.1917433" lon="10.1468215"><ele>236.25</ele><time>2026-05-03T08:30:35.253Z</time></trkpt><trkpt lat="44.1917313" lon="10.1466791"><ele>238.0</ele><time>2026-05-03T08:30:36.255Z</time></trkpt><trkpt lat="44.1916733" lon="10.1465687"><ele>236.60000000000002</ele><time>2026-05-03T08:30:37.252Z</time></trkpt><trkpt lat="44.1916031" lon="10.1464807"><ele>235.20000000000002</ele><time>2026-05-03T08:30:38.237Z</time></trkpt><trkpt lat="44.1915149" lon="10.1464236"><ele>233.8</ele><time>2026-05-03T08:30:39.223Z</time></trkpt><trkpt lat="44.1914193" lon="10.1463646"><ele>232.4</ele><time>2026-05-03T08:30:40.226Z</time></trkpt><trkpt lat="44.1913398" lon="10.1463096"><ele>231.0</ele><time>2026-05-03T08:30:41.221Z</time></trkpt><trkpt lat="44.1912589" lon="10.1462365"><ele>231.0</ele><time>2026-05-03T08:30:42.222Z</time></trkpt><trkpt lat="44.1911919" lon="10.1461404"><ele>231.0</ele><time>2026-05-03T08:30:43.24Z</time></trkpt><trkpt lat="44.1911095" lon="10.1460102"><ele>231.0</ele><time>2026-05-03T08:30:44.234Z</time></trkpt><trkpt lat="44.1910045" lon="10.1458894"><ele>231.0</ele><time>2026-05-03T08:30:45.221Z</time></trkpt><trkpt lat="44.1909273" lon="10.1456807"><ele>232.66666666666669</ele><time>2026-05-03T08:30:46.222Z</time></trkpt><trkpt lat="44.1908317" lon="10.1454283"><ele>234.33333333333334</ele><time>2026-05-03T08:30:47.222Z</time></trkpt><trkpt lat="44.1907761" lon="10.1451344"><ele>236.0</ele><time>2026-05-03T08:30:48.226Z</time></trkpt><trkpt lat="44.1907285" lon="10.1448433"><ele>233.33333333333334</ele><time>2026-05-03T08:30:49.222Z</time></trkpt><trkpt lat="44.1906669" lon="10.1445778"><ele>230.66666666666669</ele><time>2026-05-03T08:30:50.221Z</time></trkpt><trkpt lat="44.1906034" lon="10.1443214"><ele>228.0</ele><time>2026-05-03T08:30:51.24Z</time></trkpt><trkpt lat="44.190563" lon="10.1440991"><ele>228.75</ele><time>2026-05-03T08:30:52.252Z</time></trkpt><trkpt lat="44.1905082" lon="10.1438948"><ele>229.5</ele><time>2026-05-03T08:30:53.237Z</time></trkpt><trkpt lat="44.1904169" lon="10.1437744"><ele>230.25</ele><time>2026-05-03T08:30:54.215Z</time></trkpt><trkpt lat="44.1903127" lon="10.1436262"><ele>231.0</ele><time>2026-05-03T08:30:55.244Z</time></trkpt><trkpt lat="44.1901856" lon="10.1434767"><ele>231.0</ele><time>2026-05-03T08:30:56.253Z</time></trkpt><trkpt lat="44.1900739" lon="10.1432921"><ele>231.0</ele><time>2026-05-03T08:30:57.253Z</time></trkpt><trkpt lat="44.1900371" lon="10.14307"><ele>231.0</ele><time>2026-05-03T08:30:58.252Z</time></trkpt><trkpt lat="44.1900261" lon="10.1428366"><ele>231.66666666666669</ele><time>2026-05-03T08:30:59.253Z</time></trkpt><trkpt lat="44.1900409" lon="10.142615"><ele>232.33333333333334</ele><time>2026-05-03T08:31:00.254Z</time></trkpt><trkpt lat="44.1900433" lon="10.142401"><ele>233.0</ele><time>2026-05-03T08:31:01.251Z</time></trkpt><trkpt lat="44.1900911" lon="10.1421704"><ele>234.0</ele><time>2026-05-03T08:31:02.255Z</time></trkpt><trkpt lat="44.1901301" lon="10.1419731"><ele>235.0</ele><time>2026-05-03T08:31:03.253Z</time></trkpt><trkpt lat="44.1901302" lon="10.141804"><ele>236.0</ele><time>2026-05-03T08:31:04.25Z</time></trkpt><trkpt lat="44.1901274" lon="10.14163"><ele>237.0</ele><time>2026-05-03T08:31:05.25Z</time></trkpt><trkpt lat="44.1900926" lon="10.1414978"><ele>238.5</ele><time>2026-05-03T08:31:06.252Z</time></trkpt><trkpt lat="44.1900588" lon="10.141376"><ele>240.0</ele><time>2026-05-03T08:31:07.233Z</time></trkpt><trkpt lat="44.190005" lon="10.1412872"><ele>241.5</ele><time>2026-05-03T08:31:08.222Z</time></trkpt><trkpt lat="44.189956" lon="10.1412007"><ele>243.0</ele><time>2026-05-03T08:31:09.237Z</time></trkpt><trkpt lat="44.1899215" lon="10.1410926"><ele>244.5</ele><time>2026-05-03T08:31:10.249Z</time></trkpt><trkpt lat="44.1898949" lon="10.1409716"><ele>246.0</ele><time>2026-05-03T08:31:11.249Z</time></trkpt><trkpt lat="44.1898714" lon="10.140848"><ele>240.25</ele><time>2026-05-03T08:31:12.248Z</time></trkpt><trkpt lat="44.1898408" lon="10.1407235"><ele>234.5</ele><time>2026-05-03T08:31:13.249Z</time></trkpt><trkpt lat="44.1897873" lon="10.1405436"><ele>228.75</ele><time>2026-05-03T08:31:14.232Z</time></trkpt><trkpt lat="44.1897316" lon="10.1403409"><ele>223.0</ele><time>2026-05-03T08:31:15.238Z</time></trkpt><trkpt lat="44.189673" lon="10.1401161"><ele>223.0</ele><time>2026-05-03T08:31:16.235Z</time></trkpt><trkpt lat="44.189568" lon="10.1399187"><ele>223.0</ele><time>2026-05-03T08:31:17.223Z</time></trkpt><trkpt lat="44.1894055" lon="10.1397605"><ele>223.0</ele><time>2026-05-03T08:31:18.241Z</time></trkpt><trkpt lat="44.1892245" lon="10.1395834"><ele>226.0</ele><time>2026-05-03T08:31:19.238Z</time></trkpt><trkpt lat="44.1890361" lon="10.1394436"><ele>229.0</ele><time>2026-05-03T08:31:20.217Z</time></trkpt><trkpt lat="44.1888195" lon="10.1393105"><ele>225.33333333333331</ele><time>2026-05-03T08:31:21.223Z</time></trkpt><trkpt lat="44.1886937" lon="10.1390915"><ele>221.66666666666669</ele><time>2026-05-03T08:31:22.225Z</time></trkpt><trkpt lat="44.1886121" lon="10.1388659"><ele>218.0</ele><time>2026-05-03T08:31:23.242Z</time></trkpt><trkpt lat="44.1885981" lon="10.1385916"><ele>218.0</ele><time>2026-05-03T08:31:24.236Z</time></trkpt><trkpt lat="44.1885923" lon="10.1383371"><ele>218.0</ele><time>2026-05-03T08:31:25.245Z</time></trkpt><trkpt lat="44.1886318" lon="10.1380417"><ele>218.0</ele><time>2026-05-03T08:31:26.253Z</time></trkpt><trkpt lat="44.1886594" lon="10.1377798"><ele>217.0</ele><time>2026-05-03T08:31:27.253Z</time></trkpt><trkpt lat="44.1887633" lon="10.1375121"><ele>216.0</ele><time>2026-05-03T08:31:28.247Z</time></trkpt><trkpt lat="44.1889134" lon="10.1372548"><ele>214.66666666666669</ele><time>2026-05-03T08:31:29.254Z</time></trkpt><trkpt lat="44.1889921" lon="10.137029"><ele>213.33333333333334</ele><time>2026-05-03T08:31:30.253Z</time></trkpt><trkpt lat="44.1890599" lon="10.136816"><ele>212.0</ele><time>2026-05-03T08:31:31.256Z</time></trkpt><trkpt lat="44.1891235" lon="10.1366015"><ele>213.5</ele><time>2026-05-03T08:31:32.239Z</time></trkpt><trkpt lat="44.1891284" lon="10.1364421"><ele>215.0</ele><time>2026-05-03T08:31:33.225Z</time></trkpt><trkpt lat="44.1891348" lon="10.136269"><ele>216.5</ele><time>2026-05-03T08:31:34.222Z</time></trkpt><trkpt lat="44.1891673" lon="10.1360952"><ele>218.0</ele><time>2026-05-03T08:31:35.222Z</time></trkpt><trkpt lat="44.189198" lon="10.1359164"><ele>218.0</ele><time>2026-05-03T08:31:36.223Z</time></trkpt><trkpt lat="44.1892103" lon="10.1357264"><ele>218.0</ele><time>2026-05-03T08:31:37.22Z</time></trkpt><trkpt lat="44.1892907" lon="10.1355206"><ele>218.0</ele><time>2026-05-03T08:31:38.212Z</time></trkpt><trkpt lat="44.1893631" lon="10.1353141"><ele>216.33333333333334</ele><time>2026-05-03T08:31:39.208Z</time></trkpt><trkpt lat="44.1894354" lon="10.1351087"><ele>214.66666666666669</ele><time>2026-05-03T08:31:40.21Z</time></trkpt><trkpt lat="44.1895085" lon="10.134909"><ele>213.0</ele><time>2026-05-03T08:31:41.216Z</time></trkpt><trkpt lat="44.1895833" lon="10.1347257"><ele>213.0</ele><time>2026-05-03T08:31:42.221Z</time></trkpt><trkpt lat="44.1896452" lon="10.1345592"><ele>213.0</ele><time>2026-05-03T08:31:43.222Z</time></trkpt><trkpt lat="44.1897154" lon="10.1343979"><ele>213.0</ele><time>2026-05-03T08:31:44.216Z</time></trkpt><trkpt lat="44.1897861" lon="10.134236"><ele>213.0</ele><time>2026-05-03T08:31:45.221Z</time></trkpt><trkpt lat="44.1899084" lon="10.1340762"><ele>211.33333333333331</ele><time>2026-05-03T08:31:46.219Z</time></trkpt><trkpt lat="44.190037" lon="10.1339148"><ele>209.66666666666666</ele><time>2026-05-03T08:31:47.211Z</time></trkpt><trkpt lat="44.1901688" lon="10.1337546"><ele>208.0</ele><time>2026-05-03T08:31:48.214Z</time></trkpt><trkpt lat="44.1903005" lon="10.1335945"><ele>208.0</ele><time>2026-05-03T08:31:49.214Z</time></trkpt><trkpt lat="44.190429" lon="10.133434"><ele>208.0</ele><time>2026-05-03T08:31:50.208Z</time></trkpt><trkpt lat="44.1905567" lon="10.1332739"><ele>208.0</ele><time>2026-05-03T08:31:51.217Z</time></trkpt><trkpt lat="44.1906836" lon="10.1331138"><ele>207.0</ele><time>2026-05-03T08:31:52.208Z</time></trkpt><trkpt lat="44.190811" lon="10.1329537"><ele>206.0</ele><time>2026-05-03T08:31:53.208Z</time></trkpt><trkpt lat="44.190938" lon="10.1327932"><ele>205.0</ele><time>2026-05-03T08:31:54.209Z</time></trkpt><trkpt lat="44.1910647" lon="10.1326323"><ele>205.0</ele><time>2026-05-03T08:31:55.218Z</time></trkpt><trkpt lat="44.191177" lon="10.1324716"><ele>205.0</ele><time>2026-05-03T08:31:56.209Z</time></trkpt><trkpt lat="44.1912985" lon="10.1323124"><ele>205.0</ele><time>2026-05-03T08:31:57.221Z</time></trkpt><trkpt lat="44.1914195" lon="10.1321613"><ele>203.66666666666666</ele><time>2026-05-03T08:31:58.221Z</time></trkpt><trkpt lat="44.1915312" lon="10.1319783"><ele>202.33333333333331</ele><time>2026-05-03T08:31:59.214Z</time></trkpt><trkpt lat="44.19163" lon="10.1317688"><ele>201.0</ele><time>2026-05-03T08:32:00.219Z</time></trkpt><trkpt lat="44.1917306" lon="10.1315869"><ele>202.75</ele><time>2026-05-03T08:32:01.22Z</time></trkpt><trkpt lat="44.1918294" lon="10.1314295"><ele>204.5</ele><time>2026-05-03T08:32:02.227Z</time></trkpt><trkpt lat="44.1918814" lon="10.1312586"><ele>206.25</ele><time>2026-05-03T08:32:03.221Z</time></trkpt><trkpt lat="44.1919066" lon="10.1311094"><ele>208.0</ele><time>2026-05-03T08:32:04.225Z</time></trkpt><trkpt lat="44.1920028" lon="10.1309696"><ele>208.0</ele><time>2026-05-03T08:32:05.222Z</time></trkpt><trkpt lat="44.1920976" lon="10.1308064"><ele>208.0</ele><time>2026-05-03T08:32:06.223Z</time></trkpt><trkpt lat="44.19222" lon="10.130581"><ele>208.0</ele><time>2026-05-03T08:32:07.225Z</time></trkpt><trkpt lat="44.1923371" lon="10.1304024"><ele>204.33333333333331</ele><time>2026-05-03T08:32:08.222Z</time></trkpt><trkpt lat="44.1924278" lon="10.130233"><ele>200.66666666666669</ele><time>2026-05-03T08:32:09.222Z</time></trkpt><trkpt lat="44.1925041" lon="10.1300514"><ele>197.0</ele><time>2026-05-03T08:32:10.225Z</time></trkpt><trkpt lat="44.1926057" lon="10.129855"><ele>196.0</ele><time>2026-05-03T08:32:11.214Z</time></trkpt><trkpt lat="44.1927448" lon="10.1296934"><ele>195.0</ele><time>2026-05-03T08:32:12.22Z</time></trkpt><trkpt lat="44.1928742" lon="10.1295482"><ele>194.0</ele><time>2026-05-03T08:32:13.215Z</time></trkpt><trkpt lat="44.193011" lon="10.1294327"><ele>194.0</ele><time>2026-05-03T08:32:14.216Z</time></trkpt><trkpt lat="44.1931474" lon="10.1293167"><ele>194.0</ele><time>2026-05-03T08:32:15.216Z</time></trkpt><trkpt lat="44.1932748" lon="10.129217"><ele>194.0</ele><time>2026-05-03T08:32:16.215Z</time></trkpt><trkpt lat="44.1933903" lon="10.1291332"><ele>194.0</ele><time>2026-05-03T08:32:17.214Z</time></trkpt><trkpt lat="44.1934955" lon="10.1290609"><ele>193.6</ele><time>2026-05-03T08:32:18.215Z</time></trkpt><trkpt lat="44.1935865" lon="10.1289988"><ele>193.2</ele><time>2026-05-03T08:32:19.215Z</time></trkpt><trkpt lat="44.1936778" lon="10.1289402"><ele>192.79999999999998</ele><time>2026-05-03T08:32:20.214Z</time></trkpt><trkpt lat="44.1937676" lon="10.1288776"><ele>192.39999999999998</ele><time>2026-05-03T08:32:21.214Z</time></trkpt><trkpt lat="44.1938573" lon="10.1288141"><ele>192.0</ele><time>2026-05-03T08:32:22.213Z</time></trkpt><trkpt lat="44.193947" lon="10.1287499"><ele>192.0</ele><time>2026-05-03T08:32:23.216Z</time></trkpt><trkpt lat="44.1940365" lon="10.1286855"><ele>192.0</ele><time>2026-05-03T08:32:24.213Z</time></trkpt><trkpt lat="44.1941246" lon="10.1286274"><ele>192.0</ele><time>2026-05-03T08:32:25.228Z</time></trkpt><trkpt lat="44.1942155" lon="10.1285708"><ele>192.0</ele><time>2026-05-03T08:32:26.226Z</time></trkpt><trkpt lat="44.1943094" lon="10.1285238"><ele>192.0</ele><time>2026-05-03T08:32:27.225Z</time></trkpt><trkpt lat="44.194411" lon="10.1284677"><ele>192.0</ele><time>2026-05-03T08:32:28.242Z</time></trkpt><trkpt lat="44.1945064" lon="10.1283974"><ele>192.0</ele><time>2026-05-03T08:32:29.237Z</time></trkpt><trkpt lat="44.1946033" lon="10.1283234"><ele>192.0</ele><time>2026-05-03T08:32:30.241Z</time></trkpt><trkpt lat="44.1947016" lon="10.1282551"><ele>192.0</ele><time>2026-05-03T08:32:31.253Z</time></trkpt><trkpt lat="44.1948058" lon="10.1281761"><ele>192.0</ele><time>2026-05-03T08:32:32.256Z</time></trkpt><trkpt lat="44.1948723" lon="10.1280822"><ele>193.5</ele><time>2026-05-03T08:32:33.251Z</time></trkpt><trkpt lat="44.1949176" lon="10.1279828"><ele>195.0</ele><time>2026-05-03T08:32:34.236Z</time></trkpt><trkpt lat="44.1949694" lon="10.1278578"><ele>196.5</ele><time>2026-05-03T08:32:35.24Z</time></trkpt><trkpt lat="44.195014" lon="10.1276714"><ele>198.0</ele><time>2026-05-03T08:32:36.251Z</time></trkpt><trkpt lat="44.1950814" lon="10.1274723"><ele>196.33333333333331</ele><time>2026-05-03T08:32:37.252Z</time></trkpt><trkpt lat="44.1951449" lon="10.1272529"><ele>194.66666666666666</ele><time>2026-05-03T08:32:38.252Z</time></trkpt><trkpt lat="44.195214" lon="10.1270452"><ele>193.0</ele><time>2026-05-03T08:32:39.251Z</time></trkpt><trkpt lat="44.1952373" lon="10.1268264"><ele>193.0</ele><time>2026-05-03T08:32:40.252Z</time></trkpt><trkpt lat="44.1952198" lon="10.1266599"><ele>193.0</ele><time>2026-05-03T08:32:41.252Z</time></trkpt><trkpt lat="44.1951962" lon="10.1264835"><ele>193.0</ele><time>2026-05-03T08:32:42.252Z</time></trkpt><trkpt lat="44.1951775" lon="10.1263219"><ele>193.0</ele><time>2026-05-03T08:32:43.238Z</time></trkpt><trkpt lat="44.1952175" lon="10.1261863"><ele>191.0</ele><time>2026-05-03T08:32:44.221Z</time></trkpt><trkpt lat="44.195491" lon="10.1260235"><ele>189.0</ele><time>2026-05-03T08:32:46.22Z</time></trkpt><trkpt lat="44.1957099" lon="10.1260771"><ele>187.0</ele><time>2026-05-03T08:32:47.225Z</time></trkpt><trkpt lat="44.1960647" lon="10.1256534"><ele>186.0</ele><time>2026-05-03T08:32:50.225Z</time></trkpt><trkpt lat="44.1973939" lon="10.1244785"><ele>186.0</ele><time>2026-05-03T08:33:00.699Z</time></trkpt><trkpt lat="44.1974948" lon="10.1242406"><ele>186.0</ele><time>2026-05-03T08:33:07.961Z</time></trkpt><trkpt lat="44.1978301" lon="10.123931"><ele>165.0</ele><time>2026-05-03T08:33:15.25Z</time></trkpt><trkpt lat="44.1949433" lon="10.1101162"><ele>163.0</ele><time>2026-05-03T08:34:21.474Z</time></trkpt><trkpt lat="44.2044067" lon="10.0945571"><ele>142.0</ele><time>2026-05-03T08:35:20.123Z</time></trkpt><trkpt lat="44.2031081" lon="10.0965052"><ele>142.0</ele><time>2026-05-03T08:35:25.236Z</time></trkpt><trkpt lat="44.2030493" lon="10.096197"><ele>142.0</ele><time>2026-05-03T08:35:26.238Z</time></trkpt><trkpt lat="44.2031859" lon="10.0957194"><ele>143.5</ele><time>2026-05-03T08:35:27.237Z</time></trkpt><trkpt lat="44.2032325" lon="10.0952994"><ele>145.0</ele><time>2026-05-03T08:35:28.234Z</time></trkpt><trkpt lat="44.203235" lon="10.094916"><ele>144.0</ele><time>2026-05-03T08:35:29.237Z</time></trkpt><trkpt lat="44.2031514" lon="10.0945699"><ele>143.0</ele><time>2026-05-03T08:35:30.237Z</time></trkpt><trkpt lat="44.2030811" lon="10.0941617"><ele>142.5</ele><time>2026-05-03T08:35:31.234Z</time></trkpt><trkpt lat="44.2030453" lon="10.0937339"><ele>142.0</ele><time>2026-05-03T08:35:32.24Z</time></trkpt><trkpt lat="44.2027176" lon="10.0931412"><ele>142.0</ele><time>2026-05-03T08:35:34.226Z</time></trkpt><trkpt lat="44.202593" lon="10.0927854"><ele>142.0</ele><time>2026-05-03T08:35:35.239Z</time></trkpt><trkpt lat="44.2025899" lon="10.0923941"><ele>142.5</ele><time>2026-05-03T08:35:36.239Z</time></trkpt><trkpt lat="44.202559" lon="10.0920749"><ele>143.0</ele><time>2026-05-03T08:35:37.238Z</time></trkpt><trkpt lat="44.2024768" lon="10.091751"><ele>137.0</ele><time>2026-05-03T08:35:38.24Z</time></trkpt><trkpt lat="44.2022979" lon="10.0911441"><ele>137.0</ele><time>2026-05-03T08:35:40.228Z</time></trkpt><trkpt lat="44.2022384" lon="10.090812"><ele>137.0</ele><time>2026-05-03T08:35:41.239Z</time></trkpt><trkpt lat="44.2021278" lon="10.090488"><ele>137.5</ele><time>2026-05-03T08:35:42.24Z</time></trkpt><trkpt lat="44.2020986" lon="10.0901231"><ele>138.0</ele><time>2026-05-03T08:35:43.24Z</time></trkpt><trkpt lat="44.2019568" lon="10.0898269"><ele>138.0</ele><time>2026-05-03T08:35:44.238Z</time></trkpt><trkpt lat="44.2019389" lon="10.0894371"><ele>138.0</ele><time>2026-05-03T08:35:45.237Z</time></trkpt><trkpt lat="44.2019016" lon="10.0890867"><ele>136.66666666666666</ele><time>2026-05-03T08:35:46.237Z</time></trkpt><trkpt lat="44.2018211" lon="10.088812"><ele>135.33333333333331</ele><time>2026-05-03T08:35:47.236Z</time></trkpt><trkpt lat="44.2017992" lon="10.0885044"><ele>134.0</ele><time>2026-05-03T08:35:48.244Z</time></trkpt><trkpt lat="44.2017766" lon="10.0882068"><ele>133.5</ele><time>2026-05-03T08:35:49.237Z</time></trkpt><trkpt lat="44.2016991" lon="10.08798"><ele>133.0</ele><time>2026-05-03T08:35:50.237Z</time></trkpt><trkpt lat="44.2016937" lon="10.08751"><ele>132.0</ele><time>2026-05-03T08:35:52.23Z</time></trkpt><trkpt lat="44.2016518" lon="10.0873324"><ele>131.0</ele><time>2026-05-03T08:35:53.239Z</time></trkpt><trkpt lat="44.2007618" lon="10.0886102"><ele>130.33333333333331</ele><time>2026-05-03T08:36:04.227Z</time></trkpt><trkpt lat="44.2008263" lon="10.0885952"><ele>129.66666666666666</ele><time>2026-05-03T08:36:05.241Z</time></trkpt><trkpt lat="44.2010628" lon="10.0887231"><ele>129.0</ele><time>2026-05-03T08:36:06.242Z</time></trkpt><trkpt lat="44.2012167" lon="10.0887031"><ele>134.0</ele><time>2026-05-03T08:36:07.238Z</time></trkpt><trkpt lat="44.2018043" lon="10.0885967"><ele>134.0</ele><time>2026-05-03T08:36:08.239Z</time></trkpt><trkpt lat="44.2017219" lon="10.0884529"><ele>134.0</ele><time>2026-05-03T08:36:10.228Z</time></trkpt><trkpt lat="44.2020693" lon="10.0887349"><ele>129.0</ele><time>2026-05-03T08:36:12.222Z</time></trkpt><trkpt lat="44.2010084" lon="10.0862991"><ele>140.0</ele><time>2026-05-03T08:36:22.224Z</time></trkpt><trkpt lat="44.2025109" lon="10.084177"><ele>143.0</ele><time>2026-05-03T08:36:35.239Z</time></trkpt><trkpt lat="44.2024829" lon="10.0839278"><ele>146.0</ele><time>2026-05-03T08:36:36.241Z</time></trkpt><trkpt lat="44.2027113" lon="10.0829294"><ele>147.0</ele><time>2026-05-03T08:36:37.239Z</time></trkpt><trkpt lat="44.2026241" lon="10.0829536"><ele>148.0</ele><time>2026-05-03T08:36:38.243Z</time></trkpt><trkpt lat="44.2026964" lon="10.0827193"><ele>149.0</ele><time>2026-05-03T08:36:39.24Z</time></trkpt><trkpt lat="44.2028095" lon="10.0823588"><ele>149.0</ele><time>2026-05-03T08:36:40.236Z</time></trkpt><trkpt lat="44.2026933" lon="10.0828106"><ele>149.0</ele><time>2026-05-03T08:36:41.238Z</time></trkpt><trkpt lat="44.203279" lon="10.0824727"><ele>155.5</ele><time>2026-05-03T08:36:43.229Z</time></trkpt><trkpt lat="44.203506" lon="10.082374"><ele>162.0</ele><time>2026-05-03T08:36:44.242Z</time></trkpt><trkpt lat="44.2039339" lon="10.0827087"><ele>165.33333333333334</ele><time>2026-05-03T08:36:47.229Z</time></trkpt><trkpt lat="44.2041493" lon="10.0827204"><ele>168.66666666666669</ele><time>2026-05-03T08:36:48.244Z</time></trkpt><trkpt lat="44.2043017" lon="10.0828579"><ele>172.0</ele><time>2026-05-03T08:36:49.238Z</time></trkpt><trkpt lat="44.2045508" lon="10.0829059"><ele>171.0</ele><time>2026-05-03T08:36:50.236Z</time></trkpt><trkpt lat="44.204885" lon="10.0830909"><ele>170.0</ele><time>2026-05-03T08:36:52.225Z</time></trkpt><trkpt lat="44.2064626" lon="10.0808225"><ele>147.0</ele><time>2026-05-03T08:37:13.936Z</time></trkpt><trkpt lat="44.2059457" lon="10.0809718"><ele>164.0</ele><time>2026-05-03T08:37:21.495Z</time></trkpt><trkpt lat="44.2053771" lon="10.0812645"><ele>164.0</ele><time>2026-05-03T08:37:25.243Z</time></trkpt><trkpt lat="44.205392" lon="10.0811114"><ele>164.0</ele><time>2026-05-03T08:37:26.222Z</time></trkpt><trkpt lat="44.2053231" lon="10.081103"><ele>164.0</ele><time>2026-05-03T08:37:27.211Z</time></trkpt><trkpt lat="44.2057518" lon="10.0807717"><ele>158.66666666666666</ele><time>2026-05-03T08:37:28.209Z</time></trkpt><trkpt lat="44.2059789" lon="10.080671"><ele>153.33333333333334</ele><time>2026-05-03T08:37:30.215Z</time></trkpt><trkpt lat="44.2060165" lon="10.0804992"><ele>148.0</ele><time>2026-05-03T08:37:32.213Z</time></trkpt><trkpt lat="44.2059087" lon="10.0804034"><ele>148.0</ele><time>2026-05-03T08:37:33.214Z</time></trkpt><trkpt lat="44.2058843" lon="10.080238"><ele>148.0</ele><time>2026-05-03T08:37:34.212Z</time></trkpt><trkpt lat="44.2058456" lon="10.0794969"><ele>125.0</ele><time>2026-05-03T08:37:37.216Z</time></trkpt><trkpt lat="44.2061633" lon="10.0720201"><ele>126.0</ele><time>2026-05-03T08:38:00.712Z</time></trkpt><trkpt lat="44.2043938" lon="10.0675082"><ele>132.0</ele><time>2026-05-03T08:38:29.098Z</time></trkpt><trkpt lat="44.2033098" lon="10.0624719"><ele>126.0</ele><time>2026-05-03T08:38:58.386Z</time></trkpt><trkpt lat="44.2027979" lon="10.0615346"><ele>140.0</ele><time>2026-05-03T08:39:06.469Z</time></trkpt><trkpt lat="44.2024412" lon="10.0603038"><ele>130.0</ele><time>2026-05-03T08:39:13.974Z</time></trkpt><trkpt lat="44.2019516" lon="10.0593921"><ele>152.0</ele><time>2026-05-03T08:39:21.119Z</time></trkpt><trkpt lat="44.2015522" lon="10.0590311"><ele>141.0</ele><time>2026-05-03T08:39:26.237Z</time></trkpt><trkpt lat="44.2013278" lon="10.0590367"><ele>130.0</ele><time>2026-05-03T08:39:27.238Z</time></trkpt><trkpt lat="44.2012046" lon="10.0589454"><ele>119.0</ele><time>2026-05-03T08:39:28.245Z</time></trkpt><trkpt lat="44.2011517" lon="10.0587808"><ele>119.0</ele><time>2026-05-03T08:39:29.236Z</time></trkpt><trkpt lat="44.2011454" lon="10.0585619"><ele>119.0</ele><time>2026-05-03T08:39:30.236Z</time></trkpt><trkpt lat="44.2011572" lon="10.0583359"><ele>119.0</ele><time>2026-05-03T08:39:31.231Z</time></trkpt><trkpt lat="44.2010773" lon="10.0582176"><ele>119.0</ele><time>2026-05-03T08:39:32.241Z</time></trkpt><trkpt lat="44.2010642" lon="10.0580757"><ele>120.5</ele><time>2026-05-03T08:39:33.246Z</time></trkpt><trkpt lat="44.2010155" lon="10.057923"><ele>122.0</ele><time>2026-05-03T08:39:34.221Z</time></trkpt><trkpt lat="44.2009231" lon="10.0578132"><ele>123.5</ele><time>2026-05-03T08:39:35.212Z</time></trkpt><trkpt lat="44.2008321" lon="10.0576679"><ele>125.0</ele><time>2026-05-03T08:39:36.212Z</time></trkpt><trkpt lat="44.2006938" lon="10.057326"><ele>121.5</ele><time>2026-05-03T08:39:38.223Z</time></trkpt><trkpt lat="44.2006649" lon="10.0571456"><ele>118.0</ele><time>2026-05-03T08:39:39.213Z</time></trkpt><trkpt lat="44.2006468" lon="10.0569412"><ele>114.5</ele><time>2026-05-03T08:39:40.214Z</time></trkpt><trkpt lat="44.2006096" lon="10.0568033"><ele>111.0</ele><time>2026-05-03T08:39:41.212Z</time></trkpt><trkpt lat="44.2006332" lon="10.056645"><ele>111.83333333333333</ele><time>2026-05-03T08:39:42.212Z</time></trkpt><trkpt lat="44.2006245" lon="10.0565268"><ele>112.66666666666666</ele><time>2026-05-03T08:39:43.217Z</time></trkpt><trkpt lat="44.2005897" lon="10.0563802"><ele>113.5</ele><time>2026-05-03T08:39:44.221Z</time></trkpt><trkpt lat="44.2005595" lon="10.0562657"><ele>114.33333333333333</ele><time>2026-05-03T08:39:45.231Z</time></trkpt><trkpt lat="44.2005293" lon="10.0561643"><ele>115.16666666666666</ele><time>2026-05-03T08:39:46.228Z</time></trkpt><trkpt lat="44.2005005" lon="10.0560637"><ele>116.0</ele><time>2026-05-03T08:39:47.228Z</time></trkpt><trkpt lat="44.2004575" lon="10.0559785"><ele>116.0</ele><time>2026-05-03T08:39:48.238Z</time></trkpt><trkpt lat="44.2005556" lon="10.0555867"><ele>116.0</ele><time>2026-05-03T08:39:50.227Z</time></trkpt><trkpt lat="44.2005033" lon="10.0554785"><ele>116.0</ele><time>2026-05-03T08:39:51.237Z</time></trkpt><trkpt lat="44.2005067" lon="10.055289"><ele>116.0</ele><time>2026-05-03T08:39:52.238Z</time></trkpt><trkpt lat="44.2005054" lon="10.0551367"><ele>116.0</ele><time>2026-05-03T08:39:53.25Z</time></trkpt><trkpt lat="44.2005066" lon="10.0548955"><ele>116.0</ele><time>2026-05-03T08:39:54.223Z</time></trkpt><trkpt lat="44.2004888" lon="10.0547835"><ele>116.0</ele><time>2026-05-03T08:39:55.214Z</time></trkpt><trkpt lat="44.2005261" lon="10.0546181"><ele>115.6</ele><time>2026-05-03T08:39:56.225Z</time></trkpt><trkpt lat="44.2005538" lon="10.0544778"><ele>115.19999999999999</ele><time>2026-05-03T08:39:57.233Z</time></trkpt><trkpt lat="44.2005249" lon="10.0543498"><ele>114.80000000000001</ele><time>2026-05-03T08:39:58.245Z</time></trkpt><trkpt lat="44.2005493" lon="10.054184"><ele>114.4</ele><time>2026-05-03T08:39:59.231Z</time></trkpt><trkpt lat="44.200556" lon="10.0540293"><ele>114.0</ele><time>2026-05-03T08:40:00.236Z</time></trkpt><trkpt lat="44.200596" lon="10.053732"><ele>114.0</ele><time>2026-05-03T08:40:02.236Z</time></trkpt><trkpt lat="44.2006204" lon="10.0535768"><ele>114.0</ele><time>2026-05-03T08:40:03.248Z</time></trkpt><trkpt lat="44.2006277" lon="10.0534326"><ele>114.0</ele><time>2026-05-03T08:40:04.234Z</time></trkpt><trkpt lat="44.2006405" lon="10.0532166"><ele>114.0</ele><time>2026-05-03T08:40:05.236Z</time></trkpt><trkpt lat="44.2006681" lon="10.05312"><ele>114.0</ele><time>2026-05-03T08:40:06.236Z</time></trkpt><trkpt lat="44.2008448" lon="10.0525545"><ele>114.2</ele><time>2026-05-03T08:40:09.228Z</time></trkpt><trkpt lat="44.2008688" lon="10.0524445"><ele>114.4</ele><time>2026-05-03T08:40:10.239Z</time></trkpt><trkpt lat="44.2008788" lon="10.0522448"><ele>114.6</ele><time>2026-05-03T08:40:11.235Z</time></trkpt><trkpt lat="44.2008589" lon="10.0520769"><ele>114.8</ele><time>2026-05-03T08:40:12.236Z</time></trkpt><trkpt lat="44.2008391" lon="10.0519861"><ele>115.0</ele><time>2026-05-03T08:40:13.246Z</time></trkpt><trkpt lat="44.2009218" lon="10.0517584"><ele>113.0</ele><time>2026-05-03T08:40:14.235Z</time></trkpt><trkpt lat="44.2004086" lon="10.0510091"><ele>113.0</ele><time>2026-05-03T08:40:21.235Z</time></trkpt><trkpt lat="44.2003253" lon="10.0508991"><ele>113.0</ele><time>2026-05-03T08:40:22.233Z</time></trkpt><trkpt lat="44.2002653" lon="10.0507596"><ele>113.0</ele><time>2026-05-03T08:40:23.233Z</time></trkpt><trkpt lat="44.2002149" lon="10.0506083"><ele>113.0</ele><time>2026-05-03T08:40:24.209Z</time></trkpt><trkpt lat="44.2001862" lon="10.0504572"><ele>112.75</ele><time>2026-05-03T08:40:25.211Z</time></trkpt><trkpt lat="44.2001622" lon="10.0503386"><ele>112.5</ele><time>2026-05-03T08:40:26.21Z</time></trkpt><trkpt lat="44.2000139" lon="10.0501722"><ele>112.25</ele><time>2026-05-03T08:40:28.224Z</time></trkpt><trkpt lat="44.1999183" lon="10.0501397"><ele>112.0</ele><time>2026-05-03T08:40:29.228Z</time></trkpt><trkpt lat="44.1998701" lon="10.0499329"><ele>112.5</ele><time>2026-05-03T08:40:30.24Z</time></trkpt><trkpt lat="44.1997981" lon="10.0500007"><ele>113.0</ele><time>2026-05-03T08:40:31.234Z</time></trkpt><trkpt lat="44.1998832" lon="10.0498323"><ele>113.5</ele><time>2026-05-03T08:40:32.234Z</time></trkpt><trkpt lat="44.1998266" lon="10.0496634"><ele>114.0</ele><time>2026-05-03T08:40:33.244Z</time></trkpt><trkpt lat="44.1996738" lon="10.049628"><ele>111.0</ele><time>2026-05-03T08:40:34.233Z</time></trkpt><trkpt lat="44.1995282" lon="10.0495745"><ele>108.0</ele><time>2026-05-03T08:40:35.234Z</time></trkpt><trkpt lat="44.1993687" lon="10.0496237"><ele>105.0</ele><time>2026-05-03T08:40:36.237Z</time></trkpt><trkpt lat="44.1992905" lon="10.0494393"><ele>105.0</ele><time>2026-05-03T08:40:37.236Z</time></trkpt><trkpt lat="44.1991692" lon="10.0492719"><ele>105.0</ele><time>2026-05-03T08:40:38.243Z</time></trkpt><trkpt lat="44.1990533" lon="10.0488622"><ele>105.25</ele><time>2026-05-03T08:40:40.226Z</time></trkpt><trkpt lat="44.1990162" lon="10.0486717"><ele>105.5</ele><time>2026-05-03T08:40:41.236Z</time></trkpt><trkpt lat="44.1989564" lon="10.0484874"><ele>105.75</ele><time>2026-05-03T08:40:42.238Z</time></trkpt><trkpt lat="44.1988666" lon="10.0483363"><ele>106.0</ele><time>2026-05-03T08:40:43.248Z</time></trkpt><trkpt lat="44.1988549" lon="10.0481331"><ele>105.25</ele><time>2026-05-03T08:40:44.233Z</time></trkpt><trkpt lat="44.1988399" lon="10.0479761"><ele>104.5</ele><time>2026-05-03T08:40:45.235Z</time></trkpt><trkpt lat="44.1987923" lon="10.0478613"><ele>103.75</ele><time>2026-05-03T08:40:46.235Z</time></trkpt><trkpt lat="44.1987103" lon="10.0477126"><ele>103.0</ele><time>2026-05-03T08:40:47.236Z</time></trkpt><trkpt lat="44.1986886" lon="10.0472193"><ele>103.0</ele><time>2026-05-03T08:40:49.212Z</time></trkpt><trkpt lat="44.1985808" lon="10.0470638"><ele>103.0</ele><time>2026-05-03T08:40:50.212Z</time></trkpt><trkpt lat="44.1985345" lon="10.0468642"><ele>103.0</ele><time>2026-05-03T08:40:51.214Z</time></trkpt><trkpt lat="44.1984868" lon="10.0466592"><ele>103.0</ele><time>2026-05-03T08:40:52.212Z</time></trkpt><trkpt lat="44.198443" lon="10.0464394"><ele>103.0</ele><time>2026-05-03T08:40:53.222Z</time></trkpt><trkpt lat="44.1983575" lon="10.0460235"><ele>103.0</ele><time>2026-05-03T08:40:55.215Z</time></trkpt><trkpt lat="44.1982938" lon="10.045705"><ele>103.0</ele><time>2026-05-03T08:40:57.212Z</time></trkpt><trkpt lat="44.198285" lon="10.0455274"><ele>103.0</ele><time>2026-05-03T08:40:58.219Z</time></trkpt><trkpt lat="44.1980398" lon="10.045194"><ele>103.0</ele><time>2026-05-03T08:40:59.21Z</time></trkpt><trkpt lat="44.198092" lon="10.0450648"><ele>103.0</ele><time>2026-05-03T08:41:00.214Z</time></trkpt><trkpt lat="44.1983623" lon="10.044794"><ele>103.0</ele><time>2026-05-03T08:41:01.209Z</time></trkpt><trkpt lat="44.1983859" lon="10.0446545"><ele>103.33333333333334</ele><time>2026-05-03T08:41:02.213Z</time></trkpt><trkpt lat="44.1984137" lon="10.0445489"><ele>103.66666666666666</ele><time>2026-05-03T08:41:03.235Z</time></trkpt><trkpt lat="44.1984449" lon="10.0443872"><ele>104.0</ele><time>2026-05-03T08:41:04.236Z</time></trkpt><trkpt lat="44.1985183" lon="10.0439971"><ele>104.33333333333333</ele><time>2026-05-03T08:41:05.235Z</time></trkpt><trkpt lat="44.1984414" lon="10.04389"><ele>104.66666666666666</ele><time>2026-05-03T08:41:06.235Z</time></trkpt><trkpt lat="44.1983483" lon="10.043892"><ele>105.0</ele><time>2026-05-03T08:41:07.236Z</time></trkpt><trkpt lat="44.1982982" lon="10.0434665"><ele>104.66666666666666</ele><time>2026-05-03T08:41:09.21Z</time></trkpt><trkpt lat="44.1982891" lon="10.0432381"><ele>104.33333333333333</ele><time>2026-05-03T08:41:10.211Z</time></trkpt><trkpt lat="44.198307" lon="10.0430335"><ele>104.0</ele><time>2026-05-03T08:41:11.229Z</time></trkpt><trkpt lat="44.1983651" lon="10.0428343"><ele>104.0</ele><time>2026-05-03T08:41:12.239Z</time></trkpt><trkpt lat="44.1983899" lon="10.0426801"><ele>104.0</ele><time>2026-05-03T08:41:13.245Z</time></trkpt><trkpt lat="44.1983161" lon="10.0428018"><ele>104.0</ele><time>2026-05-03T08:41:14.237Z</time></trkpt><trkpt lat="44.1984132" lon="10.0424502"><ele>103.0</ele><time>2026-05-03T08:41:15.238Z</time></trkpt><trkpt lat="44.1984876" lon="10.0421801"><ele>102.0</ele><time>2026-05-03T08:41:16.236Z</time></trkpt><trkpt lat="44.1984829" lon="10.0420827"><ele>101.0</ele><time>2026-05-03T08:41:17.236Z</time></trkpt><trkpt lat="44.1988418" lon="10.0415537"><ele>101.0</ele><time>2026-05-03T08:41:19.228Z</time></trkpt><trkpt lat="44.1988958" lon="10.0414307"><ele>101.0</ele><time>2026-05-03T08:41:20.24Z</time></trkpt><trkpt lat="44.1989508" lon="10.0409616"><ele>101.0</ele><time>2026-05-03T08:41:21.233Z</time></trkpt><trkpt lat="44.199062" lon="10.0408679"><ele>101.0</ele><time>2026-05-03T08:41:22.233Z</time></trkpt><trkpt lat="44.1987884" lon="10.0406321"><ele>101.0</ele><time>2026-05-03T08:41:23.253Z</time></trkpt><trkpt lat="44.1989558" lon="10.0403414"><ele>101.0</ele><time>2026-05-03T08:41:24.236Z</time></trkpt><trkpt lat="44.1989967" lon="10.0401511"><ele>101.0</ele><time>2026-05-03T08:41:25.236Z</time></trkpt><trkpt lat="44.199037" lon="10.0399757"><ele>101.0</ele><time>2026-05-03T08:41:26.237Z</time></trkpt><trkpt lat="44.1990856" lon="10.0398282"><ele>101.0</ele><time>2026-05-03T08:41:27.232Z</time></trkpt><trkpt lat="44.1991387" lon="10.0396484"><ele>100.5</ele><time>2026-05-03T08:41:28.246Z</time></trkpt><trkpt lat="44.1991649" lon="10.0394999"><ele>100.0</ele><time>2026-05-03T08:41:29.231Z</time></trkpt><trkpt lat="44.1994155" lon="10.0391248"><ele>99.4</ele><time>2026-05-03T08:41:31.226Z</time></trkpt><trkpt lat="44.1994817" lon="10.0389973"><ele>98.8</ele><time>2026-05-03T08:41:32.239Z</time></trkpt><trkpt lat="44.1995489" lon="10.0388236"><ele>98.19999999999999</ele><time>2026-05-03T08:41:33.247Z</time></trkpt><trkpt lat="44.1996193" lon="10.0387089"><ele>97.6</ele><time>2026-05-03T08:41:34.24Z</time></trkpt><trkpt lat="44.1995572" lon="10.0386618"><ele>97.0</ele><time>2026-05-03T08:41:35.239Z</time></trkpt><trkpt lat="44.1996719" lon="10.0384903"><ele>98.0</ele><time>2026-05-03T08:41:36.237Z</time></trkpt><trkpt lat="44.2001955" lon="10.0381497"><ele>98.0</ele><time>2026-05-03T08:41:39.227Z</time></trkpt><trkpt lat="44.2003247" lon="10.0380289"><ele>98.0</ele><time>2026-05-03T08:41:40.237Z</time></trkpt><trkpt lat="44.2004133" lon="10.0378249"><ele>98.0</ele><time>2026-05-03T08:41:41.234Z</time></trkpt><trkpt lat="44.2004969" lon="10.0376662"><ele>98.0</ele><time>2026-05-03T08:41:42.24Z</time></trkpt><trkpt lat="44.2005508" lon="10.0374972"><ele>98.0</ele><time>2026-05-03T08:41:43.241Z</time></trkpt><trkpt lat="44.2006188" lon="10.0372967"><ele>98.0</ele><time>2026-05-03T08:41:44.246Z</time></trkpt><trkpt lat="44.2007154" lon="10.0371397"><ele>98.0</ele><time>2026-05-03T08:41:45.238Z</time></trkpt><trkpt lat="44.200809" lon="10.036972"><ele>98.25</ele><time>2026-05-03T08:41:46.243Z</time></trkpt><trkpt lat="44.200853" lon="10.036808"><ele>98.5</ele><time>2026-05-03T08:41:47.242Z</time></trkpt><trkpt lat="44.2008929" lon="10.0366923"><ele>98.75</ele><time>2026-05-03T08:41:48.243Z</time></trkpt><trkpt lat="44.2009753" lon="10.0365759"><ele>99.0</ele><time>2026-05-03T08:41:49.245Z</time></trkpt><trkpt lat="44.2011597" lon="10.0362807"><ele>99.0</ele><time>2026-05-03T08:41:51.229Z</time></trkpt><trkpt lat="44.2011955" lon="10.0361064"><ele>99.0</ele><time>2026-05-03T08:41:52.24Z</time></trkpt><trkpt lat="44.2012614" lon="10.035935"><ele>99.0</ele><time>2026-05-03T08:41:53.241Z</time></trkpt><trkpt lat="44.2013462" lon="10.035756"><ele>99.0</ele><time>2026-05-03T08:41:54.255Z</time></trkpt><trkpt lat="44.2013208" lon="10.0356275"><ele>99.0</ele><time>2026-05-03T08:41:55.239Z</time></trkpt><trkpt lat="44.201355" lon="10.0355058"><ele>99.0</ele><time>2026-05-03T08:41:56.238Z</time></trkpt><trkpt lat="44.2016202" lon="10.0350555"><ele>98.33333333333334</ele><time>2026-05-03T08:41:58.218Z</time></trkpt><trkpt lat="44.2015854" lon="10.0348243"><ele>97.66666666666667</ele><time>2026-05-03T08:41:59.228Z</time></trkpt><trkpt lat="44.201632" lon="10.0346164"><ele>97.0</ele><time>2026-05-03T08:42:00.233Z</time></trkpt><trkpt lat="44.2017774" lon="10.0345253"><ele>97.0</ele><time>2026-05-03T08:42:01.224Z</time></trkpt><trkpt lat="44.2018261" lon="10.0343133"><ele>97.0</ele><time>2026-05-03T08:42:02.23Z</time></trkpt><trkpt lat="44.2018405" lon="10.0341347"><ele>97.0</ele><time>2026-05-03T08:42:03.239Z</time></trkpt><trkpt lat="44.2019061" lon="10.0339231"><ele>96.66666666666667</ele><time>2026-05-03T08:42:04.254Z</time></trkpt><trkpt lat="44.2019206" lon="10.0337259"><ele>96.33333333333334</ele><time>2026-05-03T08:42:05.234Z</time></trkpt><trkpt lat="44.2019997" lon="10.0334889"><ele>96.0</ele><time>2026-05-03T08:42:06.244Z</time></trkpt><trkpt lat="44.2021298" lon="10.0332177"><ele>96.5</ele><time>2026-05-03T08:42:07.244Z</time></trkpt><trkpt lat="44.2022204" lon="10.0329871"><ele>97.0</ele><time>2026-05-03T08:42:08.237Z</time></trkpt><trkpt lat="44.2023662" lon="10.0325474"><ele>96.66666666666667</ele><time>2026-05-03T08:42:10.228Z</time></trkpt><trkpt lat="44.2024913" lon="10.0322698"><ele>96.33333333333334</ele><time>2026-05-03T08:42:11.239Z</time></trkpt><trkpt lat="44.2025419" lon="10.0320194"><ele>96.0</ele><time>2026-05-03T08:42:12.244Z</time></trkpt><trkpt lat="44.2026642" lon="10.0318489"><ele>95.33333333333333</ele><time>2026-05-03T08:42:13.234Z</time></trkpt><trkpt lat="44.2026685" lon="10.0316077"><ele>94.66666666666666</ele><time>2026-05-03T08:42:14.248Z</time></trkpt><trkpt lat="44.202716" lon="10.0313821"><ele>94.0</ele><time>2026-05-03T08:42:15.237Z</time></trkpt><trkpt lat="44.2027844" lon="10.0311561"><ele>94.0</ele><time>2026-05-03T08:42:16.237Z</time></trkpt><trkpt lat="44.202843" lon="10.0310016"><ele>94.0</ele><time>2026-05-03T08:42:17.238Z</time></trkpt><trkpt lat="44.2028888" lon="10.0308144"><ele>94.0</ele><time>2026-05-03T08:42:18.241Z</time></trkpt><trkpt lat="44.2029506" lon="10.0306381"><ele>94.0</ele><time>2026-05-03T08:42:19.249Z</time></trkpt><trkpt lat="44.2031306" lon="10.0304146"><ele>93.75</ele><time>2026-05-03T08:42:20.244Z</time></trkpt><trkpt lat="44.2031852" lon="10.0302612"><ele>93.5</ele><time>2026-05-03T08:42:21.252Z</time></trkpt><trkpt lat="44.2032396" lon="10.0300924"><ele>93.25</ele><time>2026-05-03T08:42:22.257Z</time></trkpt><trkpt lat="44.2033126" lon="10.0299243"><ele>93.0</ele><time>2026-05-03T08:42:23.251Z</time></trkpt><trkpt lat="44.2033321" lon="10.0297417"><ele>93.0</ele><time>2026-05-03T08:42:24.257Z</time></trkpt><trkpt lat="44.2033492" lon="10.0295712"><ele>93.0</ele><time>2026-05-03T08:42:25.254Z</time></trkpt><trkpt lat="44.2033384" lon="10.0294071"><ele>93.0</ele><time>2026-05-03T08:42:26.25Z</time></trkpt><trkpt lat="44.2033187" lon="10.0292546"><ele>93.0</ele><time>2026-05-03T08:42:27.247Z</time></trkpt><trkpt lat="44.2032922" lon="10.0290893"><ele>92.60000000000001</ele><time>2026-05-03T08:42:28.248Z</time></trkpt><trkpt lat="44.2032618" lon="10.0289261"><ele>92.2</ele><time>2026-05-03T08:42:29.255Z</time></trkpt><trkpt lat="44.2032055" lon="10.0288108"><ele>91.8</ele><time>2026-05-03T08:42:30.244Z</time></trkpt><trkpt lat="44.2031496" lon="10.0286948"><ele>91.4</ele><time>2026-05-03T08:42:31.241Z</time></trkpt><trkpt lat="44.2030897" lon="10.0285891"><ele>91.0</ele><time>2026-05-03T08:42:32.244Z</time></trkpt><trkpt lat="44.2030205" lon="10.0285147"><ele>90.5</ele><time>2026-05-03T08:42:33.225Z</time></trkpt><trkpt lat="44.2029534" lon="10.0284324"><ele>90.0</ele><time>2026-05-03T08:42:34.215Z</time></trkpt><trkpt lat="44.2028855" lon="10.028347"><ele>89.5</ele><time>2026-05-03T08:42:35.214Z</time></trkpt><trkpt lat="44.2027776" lon="10.0281431"><ele>89.0</ele><time>2026-05-03T08:42:37.219Z</time></trkpt><trkpt lat="44.2027074" lon="10.0280618"><ele>89.0</ele><time>2026-05-03T08:42:38.225Z</time></trkpt><trkpt lat="44.2026187" lon="10.0279749"><ele>89.0</ele><time>2026-05-03T08:42:39.225Z</time></trkpt><trkpt lat="44.2025237" lon="10.0278683"><ele>89.0</ele><time>2026-05-03T08:42:40.222Z</time></trkpt><trkpt lat="44.2024123" lon="10.0277545"><ele>89.0</ele><time>2026-05-03T08:42:41.226Z</time></trkpt><trkpt lat="44.2023045" lon="10.027632"><ele>93.66666666666667</ele><time>2026-05-03T08:42:42.223Z</time></trkpt><trkpt lat="44.2021663" lon="10.0275136"><ele>98.33333333333334</ele><time>2026-05-03T08:42:43.241Z</time></trkpt><trkpt lat="44.2021173" lon="10.0273422"><ele>103.0</ele><time>2026-05-03T08:42:44.253Z</time></trkpt><trkpt lat="44.2021274" lon="10.0270418"><ele>105.25</ele><time>2026-05-03T08:42:45.237Z</time></trkpt><trkpt lat="44.2021624" lon="10.026897"><ele>107.5</ele><time>2026-05-03T08:42:46.233Z</time></trkpt><trkpt lat="44.2022146" lon="10.02677"><ele>109.75</ele><time>2026-05-03T08:42:47.233Z</time></trkpt><trkpt lat="44.2022843" lon="10.0266518"><ele>112.0</ele><time>2026-05-03T08:42:48.236Z</time></trkpt><trkpt lat="44.2023139" lon="10.0264783"><ele>107.0</ele><time>2026-05-03T08:42:49.228Z</time></trkpt><trkpt lat="44.2023603" lon="10.0263266"><ele>102.0</ele><time>2026-05-03T08:42:50.22Z</time></trkpt><trkpt lat="44.2023876" lon="10.0261709"><ele>97.0</ele><time>2026-05-03T08:42:51.218Z</time></trkpt><trkpt lat="44.2023617" lon="10.0259867"><ele>92.0</ele><time>2026-05-03T08:42:52.238Z</time></trkpt><trkpt lat="44.2023572" lon="10.0258234"><ele>92.0</ele><time>2026-05-03T08:42:53.229Z</time></trkpt><trkpt lat="44.202339" lon="10.025678"><ele>92.0</ele><time>2026-05-03T08:42:54.233Z</time></trkpt><trkpt lat="44.2023184" lon="10.0255566"><ele>92.0</ele><time>2026-05-03T08:42:55.246Z</time></trkpt><trkpt lat="44.2022774" lon="10.025431"><ele>92.0</ele><time>2026-05-03T08:42:56.247Z</time></trkpt><trkpt lat="44.202239" lon="10.0253148"><ele>92.0</ele><time>2026-05-03T08:42:57.246Z</time></trkpt><trkpt lat="44.2022176" lon="10.0251808"><ele>95.0</ele><time>2026-05-03T08:42:58.226Z</time></trkpt><trkpt lat="44.2021604" lon="10.0250649"><ele>98.0</ele><time>2026-05-03T08:42:59.238Z</time></trkpt><trkpt lat="44.2021069" lon="10.0249111"><ele>101.0</ele><time>2026-05-03T08:43:00.251Z</time></trkpt><trkpt lat="44.2020552" lon="10.024749"><ele>104.0</ele><time>2026-05-03T08:43:01.242Z</time></trkpt><trkpt lat="44.2020193" lon="10.0245782"><ele>104.0</ele><time>2026-05-03T08:43:02.235Z</time></trkpt><trkpt lat="44.2019887" lon="10.0244211"><ele>104.0</ele><time>2026-05-03T08:43:03.22Z</time></trkpt><trkpt lat="44.2019564" lon="10.0242547"><ele>104.0</ele><time>2026-05-03T08:43:04.213Z</time></trkpt><trkpt lat="44.201822" lon="10.0236592"><ele>103.0</ele><time>2026-05-03T08:43:09.251Z</time></trkpt><trkpt lat="44.2017826" lon="10.0235735"><ele>102.0</ele><time>2026-05-03T08:43:10.247Z</time></trkpt><trkpt lat="44.2017502" lon="10.023457"><ele>101.0</ele><time>2026-05-03T08:43:11.231Z</time></trkpt><trkpt lat="44.2017127" lon="10.0233375"><ele>100.0</ele><time>2026-05-03T08:43:12.239Z</time></trkpt><trkpt lat="44.2016847" lon="10.0231828"><ele>99.0</ele><time>2026-05-03T08:43:13.229Z</time></trkpt><trkpt lat="44.2016614" lon="10.0230156"><ele>98.25</ele><time>2026-05-03T08:43:14.222Z</time></trkpt><trkpt lat="44.2016424" lon="10.0228542"><ele>97.5</ele><time>2026-05-03T08:43:15.236Z</time></trkpt><trkpt lat="44.2016246" lon="10.0226787"><ele>96.75</ele><time>2026-05-03T08:43:16.25Z</time></trkpt><trkpt lat="44.2015996" lon="10.0224939"><ele>96.0</ele><time>2026-05-03T08:43:17.229Z</time></trkpt><trkpt lat="44.2015811" lon="10.0223014"><ele>96.0</ele><time>2026-05-03T08:43:18.223Z</time></trkpt><trkpt lat="44.2015743" lon="10.0220441"><ele>96.0</ele><time>2026-05-03T08:43:19.225Z</time></trkpt><trkpt lat="44.2015604" lon="10.0217634"><ele>96.0</ele><time>2026-05-03T08:43:20.225Z</time></trkpt><trkpt lat="44.2015556" lon="10.0214916"><ele>95.33333333333333</ele><time>2026-05-03T08:43:21.22Z</time></trkpt><trkpt lat="44.2015607" lon="10.0212278"><ele>94.66666666666666</ele><time>2026-05-03T08:43:22.224Z</time></trkpt><trkpt lat="44.2015789" lon="10.0209748"><ele>94.0</ele><time>2026-05-03T08:43:23.221Z</time></trkpt><trkpt lat="44.2016288" lon="10.0207237"><ele>93.33333333333333</ele><time>2026-05-03T08:43:24.231Z</time></trkpt><trkpt lat="44.201603" lon="10.0205146"><ele>92.66666666666667</ele><time>2026-05-03T08:43:25.246Z</time></trkpt><trkpt lat="44.2016197" lon="10.0203028"><ele>92.0</ele><time>2026-05-03T08:43:26.224Z</time></trkpt><trkpt lat="44.2015824" lon="10.020075"><ele>91.66666666666667</ele><time>2026-05-03T08:43:27.23Z</time></trkpt><trkpt lat="44.2015673" lon="10.0198691"><ele>91.33333333333333</ele><time>2026-05-03T08:43:28.253Z</time></trkpt><trkpt lat="44.201522" lon="10.019617"><ele>91.0</ele><time>2026-05-03T08:43:29.247Z</time></trkpt><trkpt lat="44.201524" lon="10.0193595"><ele>90.66666666666666</ele><time>2026-05-03T08:43:30.25Z</time></trkpt><trkpt lat="44.201506" lon="10.0190865"><ele>90.33333333333333</ele><time>2026-05-03T08:43:31.25Z</time></trkpt><trkpt lat="44.2015019" lon="10.0188543"><ele>90.0</ele><time>2026-05-03T08:43:32.244Z</time></trkpt><trkpt lat="44.2014749" lon="10.0186051"><ele>91.66666666666667</ele><time>2026-05-03T08:43:33.23Z</time></trkpt><trkpt lat="44.20147" lon="10.0183667"><ele>93.33333333333334</ele><time>2026-05-03T08:43:34.225Z</time></trkpt><trkpt lat="44.201468" lon="10.018155"><ele>95.0</ele><time>2026-05-03T08:43:35.237Z</time></trkpt><trkpt lat="44.2014763" lon="10.0179312"><ele>95.0</ele><time>2026-05-03T08:43:36.249Z</time></trkpt><trkpt lat="44.2014811" lon="10.0177282"><ele>95.0</ele><time>2026-05-03T08:43:37.232Z</time></trkpt><trkpt lat="44.201483" lon="10.0175355"><ele>95.0</ele><time>2026-05-03T08:43:38.24Z</time></trkpt><trkpt lat="44.201468" lon="10.0173798"><ele>95.0</ele><time>2026-05-03T08:43:39.246Z</time></trkpt><trkpt lat="44.201461" lon="10.0172123"><ele>95.0</ele><time>2026-05-03T08:43:40.238Z</time></trkpt><trkpt lat="44.2015039" lon="10.017103"><ele>95.0</ele><time>2026-05-03T08:43:41.227Z</time></trkpt><trkpt lat="44.2015955" lon="10.0170689"><ele>95.0</ele><time>2026-05-03T08:43:42.218Z</time></trkpt><trkpt lat="44.2016701" lon="10.0170526"><ele>95.0</ele><time>2026-05-03T08:43:44.235Z</time></trkpt><trkpt lat="44.2017712" lon="10.0171023"><ele>95.0</ele><time>2026-05-03T08:43:46.244Z</time></trkpt><trkpt lat="44.2018606" lon="10.0170745"><ele>95.0</ele><time>2026-05-03T08:43:47.228Z</time></trkpt><trkpt lat="44.2019594" lon="10.017043"><ele>95.0</ele><time>2026-05-03T08:43:48.234Z</time></trkpt><trkpt lat="44.202081" lon="10.0169919"><ele>95.0</ele><time>2026-05-03T08:43:49.253Z</time></trkpt><trkpt lat="44.2021907" lon="10.0169538"><ele>95.0</ele><time>2026-05-03T08:43:50.25Z</time></trkpt><trkpt lat="44.2023244" lon="10.016912"><ele>93.8</ele><time>2026-05-03T08:43:51.248Z</time></trkpt><trkpt lat="44.2024441" lon="10.0168714"><ele>92.6</ele><time>2026-05-03T08:43:52.257Z</time></trkpt><trkpt lat="44.2025517" lon="10.0168444"><ele>91.4</ele><time>2026-05-03T08:43:53.253Z</time></trkpt><trkpt lat="44.2026464" lon="10.0168177"><ele>90.2</ele><time>2026-05-03T08:43:54.255Z</time></trkpt><trkpt lat="44.2027365" lon="10.0167957"><ele>89.0</ele><time>2026-05-03T08:43:55.255Z</time></trkpt><trkpt lat="44.2028152" lon="10.0167679"><ele>89.0</ele><time>2026-05-03T08:43:56.253Z</time></trkpt><trkpt lat="44.2028988" lon="10.0167222"><ele>89.0</ele><time>2026-05-03T08:43:57.253Z</time></trkpt><trkpt lat="44.2029808" lon="10.0166755"><ele>89.0</ele><time>2026-05-03T08:43:58.254Z</time></trkpt><trkpt lat="44.2030634" lon="10.0166271"><ele>89.0</ele><time>2026-05-03T08:43:59.25Z</time></trkpt><trkpt lat="44.2031492" lon="10.0165785"><ele>89.0</ele><time>2026-05-03T08:44:00.249Z</time></trkpt><trkpt lat="44.2032284" lon="10.0165457"><ele>89.0</ele><time>2026-05-03T08:44:01.252Z</time></trkpt><trkpt lat="44.2032984" lon="10.0165158"><ele>88.66666666666667</ele><time>2026-05-03T08:44:03.248Z</time></trkpt><trkpt lat="44.2033794" lon="10.0164807"><ele>88.33333333333334</ele><time>2026-05-03T08:44:07.251Z</time></trkpt><trkpt lat="44.2034519" lon="10.0164521"><ele>88.0</ele><time>2026-05-03T08:44:09.249Z</time></trkpt><trkpt lat="44.2035148" lon="10.0164387"><ele>87.66666666666667</ele><time>2026-05-03T08:44:11.246Z</time></trkpt><trkpt lat="44.2035893" lon="10.0164044"><ele>87.33333333333333</ele><time>2026-05-03T08:44:13.251Z</time></trkpt><trkpt lat="44.2036601" lon="10.0163568"><ele>87.0</ele><time>2026-05-03T08:44:14.253Z</time></trkpt><trkpt lat="44.2037555" lon="10.0163101"><ele>87.0</ele><time>2026-05-03T08:44:15.251Z</time></trkpt><trkpt lat="44.2038865" lon="10.0162679"><ele>87.0</ele><time>2026-05-03T08:44:16.254Z</time></trkpt><trkpt lat="44.2040379" lon="10.0162102"><ele>87.0</ele><time>2026-05-03T08:44:17.252Z</time></trkpt><trkpt lat="44.2042038" lon="10.0161406"><ele>86.33333333333333</ele><time>2026-05-03T08:44:18.254Z</time></trkpt><trkpt lat="44.2044326" lon="10.0160415"><ele>85.66666666666666</ele><time>2026-05-03T08:44:19.258Z</time></trkpt><trkpt lat="44.2046302" lon="10.0159543"><ele>85.0</ele><time>2026-05-03T08:44:20.257Z</time></trkpt><trkpt lat="44.2048361" lon="10.0158679"><ele>84.33333333333333</ele><time>2026-05-03T08:44:21.252Z</time></trkpt><trkpt lat="44.2050214" lon="10.0158059"><ele>83.66666666666667</ele><time>2026-05-03T08:44:22.253Z</time></trkpt><trkpt lat="44.2051867" lon="10.0157504"><ele>83.0</ele><time>2026-05-03T08:44:23.25Z</time></trkpt><trkpt lat="44.2053517" lon="10.0156869"><ele>83.0</ele><time>2026-05-03T08:44:24.254Z</time></trkpt><trkpt lat="44.2055251" lon="10.015621"><ele>83.0</ele><time>2026-05-03T08:44:25.253Z</time></trkpt><trkpt lat="44.2057006" lon="10.0155244"><ele>83.0</ele><time>2026-05-03T08:44:26.247Z</time></trkpt><trkpt lat="44.2058633" lon="10.015408"><ele>82.66666666666667</ele><time>2026-05-03T08:44:27.25Z</time></trkpt><trkpt lat="44.2060179" lon="10.0152803"><ele>82.33333333333333</ele><time>2026-05-03T08:44:28.248Z</time></trkpt><trkpt lat="44.2061304" lon="10.0151061"><ele>82.0</ele><time>2026-05-03T08:44:29.252Z</time></trkpt><trkpt lat="44.2062498" lon="10.0149133"><ele>82.0</ele><time>2026-05-03T08:44:30.247Z</time></trkpt><trkpt lat="44.2063668" lon="10.0147533"><ele>82.0</ele><time>2026-05-03T08:44:31.251Z</time></trkpt><trkpt lat="44.2064534" lon="10.014551"><ele>82.0</ele><time>2026-05-03T08:44:32.249Z</time></trkpt><trkpt lat="44.206464" lon="10.0142983"><ele>81.66666666666666</ele><time>2026-05-03T08:44:33.253Z</time></trkpt><trkpt lat="44.206437" lon="10.0140447"><ele>81.33333333333333</ele><time>2026-05-03T08:44:34.25Z</time></trkpt><trkpt lat="44.2064293" lon="10.0137836"><ele>81.0</ele><time>2026-05-03T08:44:35.244Z</time></trkpt><trkpt lat="44.206398" lon="10.0135498"><ele>81.0</ele><time>2026-05-03T08:44:36.251Z</time></trkpt><trkpt lat="44.206336" lon="10.0133229"><ele>81.0</ele><time>2026-05-03T08:44:37.249Z</time></trkpt><trkpt lat="44.2063098" lon="10.0131094"><ele>81.0</ele><time>2026-05-03T08:44:38.248Z</time></trkpt><trkpt lat="44.2062754" lon="10.0128895"><ele>81.0</ele><time>2026-05-03T08:44:39.251Z</time></trkpt><trkpt lat="44.2062514" lon="10.0126797"><ele>81.0</ele><time>2026-05-03T08:44:40.247Z</time></trkpt><trkpt lat="44.2062196" lon="10.0124739"><ele>81.0</ele><time>2026-05-03T08:44:41.248Z</time></trkpt><trkpt lat="44.2062659" lon="10.0122887"><ele>81.0</ele><time>2026-05-03T08:44:42.249Z</time></trkpt><trkpt lat="44.2063238" lon="10.0121037"><ele>81.33333333333333</ele><time>2026-05-03T08:44:43.249Z</time></trkpt><trkpt lat="44.2064172" lon="10.0118922"><ele>81.66666666666666</ele><time>2026-05-03T08:44:44.249Z</time></trkpt><trkpt lat="44.206473" lon="10.0116677"><ele>82.0</ele><time>2026-05-03T08:44:45.249Z</time></trkpt><trkpt lat="44.2064956" lon="10.0114292"><ele>81.33333333333333</ele><time>2026-05-03T08:44:46.249Z</time></trkpt><trkpt lat="44.2065311" lon="10.0111967"><ele>80.66666666666667</ele><time>2026-05-03T08:44:47.248Z</time></trkpt><trkpt lat="44.2065502" lon="10.0109546"><ele>80.0</ele><time>2026-05-03T08:44:48.25Z</time></trkpt><trkpt lat="44.2065373" lon="10.0107122"><ele>80.33333333333334</ele><time>2026-05-03T08:44:49.249Z</time></trkpt><trkpt lat="44.2064855" lon="10.0104851"><ele>80.66666666666667</ele><time>2026-05-03T08:44:50.249Z</time></trkpt><trkpt lat="44.2064553" lon="10.0102547"><ele>81.0</ele><time>2026-05-03T08:44:51.251Z</time></trkpt><trkpt lat="44.2064227" lon="10.0100174"><ele>80.66666666666667</ele><time>2026-05-03T08:44:52.25Z</time></trkpt><trkpt lat="44.2063869" lon="10.0097892"><ele>80.33333333333334</ele><time>2026-05-03T08:44:53.246Z</time></trkpt><trkpt lat="44.2063386" lon="10.0095576"><ele>80.0</ele><time>2026-05-03T08:44:54.249Z</time></trkpt><trkpt lat="44.206307" lon="10.0093141"><ele>80.0</ele><time>2026-05-03T08:44:55.248Z</time></trkpt><trkpt lat="44.2062784" lon="10.0090672"><ele>80.0</ele><time>2026-05-03T08:44:56.253Z</time></trkpt><trkpt lat="44.2062389" lon="10.0088214"><ele>80.0</ele><time>2026-05-03T08:44:57.245Z</time></trkpt><trkpt lat="44.2062014" lon="10.0086031"><ele>80.0</ele><time>2026-05-03T08:44:58.254Z</time></trkpt><trkpt lat="44.2061686" lon="10.0083764"><ele>80.0</ele><time>2026-05-03T08:44:59.248Z</time></trkpt><trkpt lat="44.2061295" lon="10.0081485"><ele>80.0</ele><time>2026-05-03T08:45:00.256Z</time></trkpt><trkpt lat="44.2060793" lon="10.0079141"><ele>80.0</ele><time>2026-05-03T08:45:01.245Z</time></trkpt><trkpt lat="44.2060295" lon="10.0076853"><ele>80.0</ele><time>2026-05-03T08:45:02.246Z</time></trkpt><trkpt lat="44.2060057" lon="10.0074656"><ele>80.0</ele><time>2026-05-03T08:45:03.247Z</time></trkpt><trkpt lat="44.2059805" lon="10.0072175"><ele>80.0</ele><time>2026-05-03T08:45:04.247Z</time></trkpt><trkpt lat="44.2059893" lon="10.0070055"><ele>80.0</ele><time>2026-05-03T08:45:05.242Z</time></trkpt><trkpt lat="44.2059711" lon="10.0067798"><ele>80.0</ele><time>2026-05-03T08:45:06.243Z</time></trkpt><trkpt lat="44.2059444" lon="10.0065719"><ele>80.0</ele><time>2026-05-03T08:45:07.241Z</time></trkpt><trkpt lat="44.2059314" lon="10.0063694"><ele>80.0</ele><time>2026-05-03T08:45:08.242Z</time></trkpt><trkpt lat="44.2059102" lon="10.0061765"><ele>80.0</ele><time>2026-05-03T08:45:09.246Z</time></trkpt><trkpt lat="44.2058751" lon="10.0059644"><ele>80.0</ele><time>2026-05-03T08:45:10.244Z</time></trkpt><trkpt lat="44.2058218" lon="10.0057336"><ele>79.66666666666667</ele><time>2026-05-03T08:45:11.244Z</time></trkpt><trkpt lat="44.2058014" lon="10.0055291"><ele>79.33333333333333</ele><time>2026-05-03T08:45:12.246Z</time></trkpt><trkpt lat="44.2057569" lon="10.0052807"><ele>79.0</ele><time>2026-05-03T08:45:13.242Z</time></trkpt><trkpt lat="44.2057468" lon="10.0050989"><ele>79.0</ele><time>2026-05-03T08:45:14.246Z</time></trkpt><trkpt lat="44.2057638" lon="10.0048851"><ele>79.0</ele><time>2026-05-03T08:45:15.242Z</time></trkpt><trkpt lat="44.2057585" lon="10.0047402"><ele>79.0</ele><time>2026-05-03T08:45:16.243Z</time></trkpt><trkpt lat="44.2057202" lon="10.0045925"><ele>79.0</ele><time>2026-05-03T08:45:17.239Z</time></trkpt><trkpt lat="44.205655" lon="10.0044869"><ele>79.0</ele><time>2026-05-03T08:45:18.242Z</time></trkpt><trkpt lat="44.2055579" lon="10.0043977"><ele>79.0</ele><time>2026-05-03T08:45:19.238Z</time></trkpt><trkpt lat="44.2054503" lon="10.0042908"><ele>79.0</ele><time>2026-05-03T08:45:20.227Z</time></trkpt><trkpt lat="44.2052756" lon="10.0042585"><ele>79.0</ele><time>2026-05-03T08:45:21.23Z</time></trkpt><trkpt lat="44.2051698" lon="10.0041798"><ele>78.75</ele><time>2026-05-03T08:45:22.244Z</time></trkpt><trkpt lat="44.2050705" lon="10.0040885"><ele>78.5</ele><time>2026-05-03T08:45:23.241Z</time></trkpt><trkpt lat="44.2050841" lon="10.003916"><ele>78.25</ele><time>2026-05-03T08:45:24.245Z</time></trkpt><trkpt lat="44.205151" lon="10.0037076"><ele>78.0</ele><time>2026-05-03T08:45:25.245Z</time></trkpt><trkpt lat="44.2051803" lon="10.0035282"><ele>78.0</ele><time>2026-05-03T08:45:26.244Z</time></trkpt><trkpt lat="44.2052176" lon="10.0033621"><ele>78.0</ele><time>2026-05-03T08:45:27.241Z</time></trkpt><trkpt lat="44.2052597" lon="10.0032147"><ele>78.0</ele><time>2026-05-03T08:45:28.241Z</time></trkpt><trkpt lat="44.20532" lon="10.0030654"><ele>78.0</ele><time>2026-05-03T08:45:29.239Z</time></trkpt><trkpt lat="44.2053407" lon="10.0029319"><ele>78.0</ele><time>2026-05-03T08:45:30.241Z</time></trkpt><trkpt lat="44.205368" lon="10.0028074"><ele>78.0</ele><time>2026-05-03T08:45:31.237Z</time></trkpt><trkpt lat="44.205384" lon="10.0026792"><ele>78.0</ele><time>2026-05-03T08:45:32.244Z</time></trkpt><trkpt lat="44.2053994" lon="10.002551"><ele>78.0</ele><time>2026-05-03T08:45:33.215Z</time></trkpt><trkpt lat="44.2054152" lon="10.0024245"><ele>78.0</ele><time>2026-05-03T08:45:34.206Z</time></trkpt><trkpt lat="44.2045597" lon="10.0015667"><ele>74.0</ele><time>2026-05-03T08:45:42.352Z</time></trkpt><trkpt lat="44.2044457" lon="10.0002913"><ele>74.0</ele><time>2026-05-03T08:45:49.621Z</time></trkpt><trkpt lat="44.2043351" lon="9.9996368"><ele>74.0</ele><time>2026-05-03T08:45:53.245Z</time></trkpt><trkpt lat="44.2042892" lon="9.9994093"><ele>74.0</ele><time>2026-05-03T08:45:54.239Z</time></trkpt><trkpt lat="44.2042815" lon="9.9991827"><ele>74.0</ele><time>2026-05-03T08:45:55.239Z</time></trkpt><trkpt lat="44.2042455" lon="9.9989659"><ele>73.66666666666667</ele><time>2026-05-03T08:45:56.236Z</time></trkpt><trkpt lat="44.204202" lon="9.9987657"><ele>73.33333333333333</ele><time>2026-05-03T08:45:57.24Z</time></trkpt><trkpt lat="44.2041537" lon="9.9985379"><ele>73.0</ele><time>2026-05-03T08:45:58.235Z</time></trkpt><trkpt lat="44.2040992" lon="9.9983002"><ele>73.0</ele><time>2026-05-03T08:45:59.236Z</time></trkpt><trkpt lat="44.2040638" lon="9.9980554"><ele>73.0</ele><time>2026-05-03T08:46:00.238Z</time></trkpt><trkpt lat="44.2039792" lon="9.9978455"><ele>73.0</ele><time>2026-05-03T08:46:01.24Z</time></trkpt><trkpt lat="44.2039217" lon="9.9976025"><ele>72.5</ele><time>2026-05-03T08:46:02.241Z</time></trkpt><trkpt lat="44.2037048" lon="9.9971882"><ele>72.0</ele><time>2026-05-03T08:46:04.239Z</time></trkpt><trkpt lat="44.2036142" lon="9.9969679"><ele>72.0</ele><time>2026-05-03T08:46:05.238Z</time></trkpt><trkpt lat="44.2035539" lon="9.9967303"><ele>72.0</ele><time>2026-05-03T08:46:06.24Z</time></trkpt><trkpt lat="44.2034559" lon="9.9964957"><ele>72.0</ele><time>2026-05-03T08:46:07.241Z</time></trkpt><trkpt lat="44.2033316" lon="9.9962527"><ele>72.0</ele><time>2026-05-03T08:46:08.239Z</time></trkpt><trkpt lat="44.20321" lon="9.9960113"><ele>72.0</ele><time>2026-05-03T08:46:09.238Z</time></trkpt><trkpt lat="44.2031203" lon="9.9958078"><ele>72.0</ele><time>2026-05-03T08:46:10.238Z</time></trkpt><trkpt lat="44.2030251" lon="9.9955639"><ele>72.33333333333333</ele><time>2026-05-03T08:46:11.241Z</time></trkpt><trkpt lat="44.2029343" lon="9.9953392"><ele>72.66666666666666</ele><time>2026-05-03T08:46:12.243Z</time></trkpt><trkpt lat="44.2028642" lon="9.9951203"><ele>73.0</ele><time>2026-05-03T08:46:13.241Z</time></trkpt><trkpt lat="44.2027712" lon="9.9949012"><ele>72.33333333333333</ele><time>2026-05-03T08:46:14.237Z</time></trkpt><trkpt lat="44.2027019" lon="9.9947021"><ele>71.66666666666667</ele><time>2026-05-03T08:46:15.238Z</time></trkpt><trkpt lat="44.2026167" lon="9.9944865"><ele>71.0</ele><time>2026-05-03T08:46:16.239Z</time></trkpt><trkpt lat="44.2025186" lon="9.9942829"><ele>71.0</ele><time>2026-05-03T08:46:17.222Z</time></trkpt><trkpt lat="44.2024397" lon="9.9940907"><ele>71.0</ele><time>2026-05-03T08:46:18.23Z</time></trkpt><trkpt lat="44.2023574" lon="9.9938964"><ele>71.0</ele><time>2026-05-03T08:46:19.243Z</time></trkpt><trkpt lat="44.2023122" lon="9.9937211"><ele>71.0</ele><time>2026-05-03T08:46:20.241Z</time></trkpt><trkpt lat="44.2022748" lon="9.9935734"><ele>71.0</ele><time>2026-05-03T08:46:21.226Z</time></trkpt><trkpt lat="44.2022498" lon="9.993428"><ele>71.0</ele><time>2026-05-03T08:46:22.224Z</time></trkpt><trkpt lat="44.2022318" lon="9.9932854"><ele>71.0</ele><time>2026-05-03T08:46:23.218Z</time></trkpt><trkpt lat="44.2022189" lon="9.9931415"><ele>71.0</ele><time>2026-05-03T08:46:24.216Z</time></trkpt><trkpt lat="44.2022074" lon="9.993005"><ele>70.6</ele><time>2026-05-03T08:46:25.239Z</time></trkpt><trkpt lat="44.2022115" lon="9.9928676"><ele>70.19999999999999</ele><time>2026-05-03T08:46:26.244Z</time></trkpt><trkpt lat="44.2022245" lon="9.9927241"><ele>69.80000000000001</ele><time>2026-05-03T08:46:27.242Z</time></trkpt><trkpt lat="44.2022453" lon="9.9925793"><ele>69.4</ele><time>2026-05-03T08:46:28.239Z</time></trkpt><trkpt lat="44.2022709" lon="9.9924214"><ele>69.0</ele><time>2026-05-03T08:46:29.239Z</time></trkpt><trkpt lat="44.202306" lon="9.9922542"><ele>68.75</ele><time>2026-05-03T08:46:30.246Z</time></trkpt><trkpt lat="44.202339" lon="9.9920739"><ele>68.5</ele><time>2026-05-03T08:46:31.244Z</time></trkpt><trkpt lat="44.2023782" lon="9.9918952"><ele>68.25</ele><time>2026-05-03T08:46:32.248Z</time></trkpt><trkpt lat="44.2024128" lon="9.9917177"><ele>68.0</ele><time>2026-05-03T08:46:33.242Z</time></trkpt><trkpt lat="44.2024396" lon="9.9915438"><ele>67.6</ele><time>2026-05-03T08:46:34.24Z</time></trkpt><trkpt lat="44.2024689" lon="9.9913931"><ele>67.19999999999999</ele><time>2026-05-03T08:46:35.242Z</time></trkpt><trkpt lat="44.2024896" lon="9.9912553"><ele>66.8</ele><time>2026-05-03T08:46:36.238Z</time></trkpt><trkpt lat="44.2025051" lon="9.99112"><ele>66.39999999999999</ele><time>2026-05-03T08:46:37.24Z</time></trkpt><trkpt lat="44.2025136" lon="9.9909984"><ele>66.0</ele><time>2026-05-03T08:46:38.237Z</time></trkpt><trkpt lat="44.2024973" lon="9.9908762"><ele>65.75</ele><time>2026-05-03T08:46:39.236Z</time></trkpt><trkpt lat="44.2024589" lon="9.9907538"><ele>65.5</ele><time>2026-05-03T08:46:40.241Z</time></trkpt><trkpt lat="44.2024012" lon="9.9906384"><ele>65.25</ele><time>2026-05-03T08:46:41.243Z</time></trkpt><trkpt lat="44.2022887" lon="9.9904883"><ele>65.0</ele><time>2026-05-03T08:46:42.239Z</time></trkpt><trkpt lat="44.2021508" lon="9.9903231"><ele>65.0</ele><time>2026-05-03T08:46:43.238Z</time></trkpt><trkpt lat="44.2019738" lon="9.9901273"><ele>65.0</ele><time>2026-05-03T08:46:44.238Z</time></trkpt><trkpt lat="44.2017543" lon="9.9900117"><ele>65.0</ele><time>2026-05-03T08:46:45.236Z</time></trkpt><trkpt lat="44.2016494" lon="9.989884"><ele>65.0</ele><time>2026-05-03T08:46:46.241Z</time></trkpt><trkpt lat="44.2015622" lon="9.9897235"><ele>65.0</ele><time>2026-05-03T08:46:47.241Z</time></trkpt><trkpt lat="44.2015101" lon="9.989566"><ele>65.0</ele><time>2026-05-03T08:46:48.24Z</time></trkpt><trkpt lat="44.201481" lon="9.9894111"><ele>65.0</ele><time>2026-05-03T08:46:49.242Z</time></trkpt><trkpt lat="44.2014652" lon="9.9892682"><ele>65.0</ele><time>2026-05-03T08:46:50.237Z</time></trkpt><trkpt lat="44.2014461" lon="9.9891286"><ele>65.0</ele><time>2026-05-03T08:46:51.239Z</time></trkpt><trkpt lat="44.2014369" lon="9.9889777"><ele>65.0</ele><time>2026-05-03T08:46:52.243Z</time></trkpt><trkpt lat="44.2014304" lon="9.9888246"><ele>65.0</ele><time>2026-05-03T08:46:53.226Z</time></trkpt><trkpt lat="44.2014093" lon="9.9886789"><ele>65.0</ele><time>2026-05-03T08:46:54.216Z</time></trkpt><trkpt lat="44.2013917" lon="9.9885213"><ele>65.0</ele><time>2026-05-03T08:46:55.217Z</time></trkpt><trkpt lat="44.2013658" lon="9.9883641"><ele>65.0</ele><time>2026-05-03T08:46:56.208Z</time></trkpt><trkpt lat="44.2013145" lon="9.9880511"><ele>65.5</ele><time>2026-05-03T08:46:58.214Z</time></trkpt><trkpt lat="44.2012929" lon="9.987886"><ele>66.0</ele><time>2026-05-03T08:46:59.213Z</time></trkpt><trkpt lat="44.20127" lon="9.9877211"><ele>66.5</ele><time>2026-05-03T08:47:00.219Z</time></trkpt><trkpt lat="44.2012567" lon="9.9875465"><ele>67.0</ele><time>2026-05-03T08:47:01.234Z</time></trkpt><trkpt lat="44.2012407" lon="9.9873343"><ele>67.0</ele><time>2026-05-03T08:47:02.242Z</time></trkpt><trkpt lat="44.2012896" lon="9.9869841"><ele>67.0</ele><time>2026-05-03T08:47:03.234Z</time></trkpt><trkpt lat="44.2012843" lon="9.9865642"><ele>66.5</ele><time>2026-05-03T08:47:04.224Z</time></trkpt><trkpt lat="44.201316" lon="9.9862281"><ele>66.0</ele><time>2026-05-03T08:47:05.215Z</time></trkpt><trkpt lat="44.2012826" lon="9.9858944"><ele>65.66666666666667</ele><time>2026-05-03T08:47:06.219Z</time></trkpt><trkpt lat="44.2012759" lon="9.9856064"><ele>65.33333333333334</ele><time>2026-05-03T08:47:07.221Z</time></trkpt><trkpt lat="44.201312" lon="9.9853482"><ele>65.0</ele><time>2026-05-03T08:47:08.218Z</time></trkpt><trkpt lat="44.2013514" lon="9.9850897"><ele>65.33333333333334</ele><time>2026-05-03T08:47:09.212Z</time></trkpt><trkpt lat="44.2013804" lon="9.984831"><ele>65.66666666666667</ele><time>2026-05-03T08:47:10.213Z</time></trkpt><trkpt lat="44.2013959" lon="9.9845703"><ele>66.0</ele><time>2026-05-03T08:47:11.231Z</time></trkpt><trkpt lat="44.2013691" lon="9.9843329"><ele>66.0</ele><time>2026-05-03T08:47:12.239Z</time></trkpt><trkpt lat="44.2013212" lon="9.9840945"><ele>66.0</ele><time>2026-05-03T08:47:13.239Z</time></trkpt><trkpt lat="44.2012228" lon="9.9838676"><ele>66.0</ele><time>2026-05-03T08:47:14.238Z</time></trkpt><trkpt lat="44.2011176" lon="9.9837027"><ele>66.0</ele><time>2026-05-03T08:47:15.236Z</time></trkpt><trkpt lat="44.201016" lon="9.9835093"><ele>66.0</ele><time>2026-05-03T08:47:16.238Z</time></trkpt><trkpt lat="44.2010155" lon="9.9832694"><ele>66.0</ele><time>2026-05-03T08:47:17.242Z</time></trkpt><trkpt lat="44.2011515" lon="9.9830349"><ele>65.0</ele><time>2026-05-03T08:47:18.239Z</time></trkpt><trkpt lat="44.2012958" lon="9.9827616"><ele>64.0</ele><time>2026-05-03T08:47:19.239Z</time></trkpt><trkpt lat="44.2014395" lon="9.9824701"><ele>66.33333333333333</ele><time>2026-05-03T08:47:20.236Z</time></trkpt><trkpt lat="44.2016126" lon="9.9822653"><ele>68.66666666666667</ele><time>2026-05-03T08:47:21.221Z</time></trkpt><trkpt lat="44.2017628" lon="9.982055"><ele>71.0</ele><time>2026-05-03T08:47:22.216Z</time></trkpt><trkpt lat="44.201918" lon="9.9818493"><ele>68.0</ele><time>2026-05-03T08:47:23.215Z</time></trkpt><trkpt lat="44.202067" lon="9.9816615"><ele>65.0</ele><time>2026-05-03T08:47:24.214Z</time></trkpt><trkpt lat="44.2021799" lon="9.9815089"><ele>62.0</ele><time>2026-05-03T08:47:25.213Z</time></trkpt><trkpt lat="44.2022992" lon="9.9813877"><ele>63.25</ele><time>2026-05-03T08:47:26.21Z</time></trkpt><trkpt lat="44.2024132" lon="9.9812752"><ele>64.5</ele><time>2026-05-03T08:47:27.217Z</time></trkpt><trkpt lat="44.2025285" lon="9.9811592"><ele>65.75</ele><time>2026-05-03T08:47:28.214Z</time></trkpt><trkpt lat="44.2026458" lon="9.9810415"><ele>67.0</ele><time>2026-05-03T08:47:29.214Z</time></trkpt><trkpt lat="44.2027636" lon="9.9809293"><ele>66.5</ele><time>2026-05-03T08:47:30.219Z</time></trkpt><trkpt lat="44.202883" lon="9.9808187"><ele>66.0</ele><time>2026-05-03T08:47:31.216Z</time></trkpt><trkpt lat="44.2030038" lon="9.9807059"><ele>65.5</ele><time>2026-05-03T08:47:32.212Z</time></trkpt><trkpt lat="44.2031185" lon="9.9805954"><ele>65.0</ele><time>2026-05-03T08:47:33.215Z</time></trkpt><trkpt lat="44.2032378" lon="9.9804842"><ele>65.0</ele><time>2026-05-03T08:47:34.205Z</time></trkpt><trkpt lat="44.2036883" lon="9.9805414"><ele>65.0</ele><time>2026-05-03T08:47:37.221Z</time></trkpt><trkpt lat="44.2039071" lon="9.9805494"><ele>65.0</ele><time>2026-05-03T08:47:38.21Z</time></trkpt><trkpt lat="44.204139" lon="9.9805199"><ele>64.5</ele><time>2026-05-03T08:47:39.215Z</time></trkpt><trkpt lat="44.2043246" lon="9.9804688"><ele>64.0</ele><time>2026-05-03T08:47:40.212Z</time></trkpt><trkpt lat="44.20442" lon="9.9803896"><ele>63.5</ele><time>2026-05-03T08:47:41.211Z</time></trkpt><trkpt lat="44.2045401" lon="9.980338"><ele>63.0</ele><time>2026-05-03T08:47:42.231Z</time></trkpt><trkpt lat="44.204698" lon="9.9804267"><ele>63.0</ele><time>2026-05-03T08:47:43.237Z</time></trkpt><trkpt lat="44.2048602" lon="9.9803469"><ele>63.0</ele><time>2026-05-03T08:47:44.238Z</time></trkpt><trkpt lat="44.2050154" lon="9.9802064"><ele>63.0</ele><time>2026-05-03T08:47:45.236Z</time></trkpt><trkpt lat="44.2051967" lon="9.9800989"><ele>62.66666666666667</ele><time>2026-05-03T08:47:46.235Z</time></trkpt><trkpt lat="44.2053477" lon="9.9800119"><ele>62.333333333333336</ele><time>2026-05-03T08:47:47.239Z</time></trkpt><trkpt lat="44.2055232" lon="9.9799204"><ele>62.0</ele><time>2026-05-03T08:47:48.241Z</time></trkpt><trkpt lat="44.2056895" lon="9.9798149"><ele>62.0</ele><time>2026-05-03T08:47:49.239Z</time></trkpt><trkpt lat="44.2058215" lon="9.9796805"><ele>62.0</ele><time>2026-05-03T08:47:50.234Z</time></trkpt><trkpt lat="44.2059642" lon="9.9795561"><ele>62.0</ele><time>2026-05-03T08:47:51.234Z</time></trkpt><trkpt lat="44.2061186" lon="9.9795041"><ele>62.0</ele><time>2026-05-03T08:47:52.241Z</time></trkpt><trkpt lat="44.2062264" lon="9.9794909"><ele>62.0</ele><time>2026-05-03T08:47:53.239Z</time></trkpt><trkpt lat="44.2063647" lon="9.9794686"><ele>62.0</ele><time>2026-05-03T08:47:54.239Z</time></trkpt><trkpt lat="44.2064737" lon="9.9793863"><ele>62.0</ele><time>2026-05-03T08:47:55.24Z</time></trkpt><trkpt lat="44.2065477" lon="9.9792389"><ele>62.0</ele><time>2026-05-03T08:47:56.236Z</time></trkpt><trkpt lat="44.2066095" lon="9.9790689"><ele>62.0</ele><time>2026-05-03T08:47:57.235Z</time></trkpt><trkpt lat="44.2066839" lon="9.9789241"><ele>62.0</ele><time>2026-05-03T08:47:58.239Z</time></trkpt><trkpt lat="44.2067833" lon="9.9788104"><ele>62.0</ele><time>2026-05-03T08:47:59.235Z</time></trkpt><trkpt lat="44.2068097" lon="9.9786512"><ele>62.0</ele><time>2026-05-03T08:48:00.242Z</time></trkpt><trkpt lat="44.2068383" lon="9.9784881"><ele>62.0</ele><time>2026-05-03T08:48:01.234Z</time></trkpt><trkpt lat="44.2069258" lon="9.9783933"><ele>62.0</ele><time>2026-05-03T08:48:02.227Z</time></trkpt><trkpt lat="44.2070104" lon="9.9783045"><ele>62.0</ele><time>2026-05-03T08:48:03.234Z</time></trkpt><trkpt lat="44.2070606" lon="9.9781837"><ele>62.0</ele><time>2026-05-03T08:48:04.245Z</time></trkpt><trkpt lat="44.2071204" lon="9.9780531"><ele>61.5</ele><time>2026-05-03T08:48:05.24Z</time></trkpt><trkpt lat="44.2071996" lon="9.977929"><ele>61.0</ele><time>2026-05-03T08:48:06.228Z</time></trkpt><trkpt lat="44.2072925" lon="9.9778169"><ele>60.5</ele><time>2026-05-03T08:48:07.234Z</time></trkpt><trkpt lat="44.2073778" lon="9.9777024"><ele>60.0</ele><time>2026-05-03T08:48:08.237Z</time></trkpt><trkpt lat="44.2074491" lon="9.9775744"><ele>60.2</ele><time>2026-05-03T08:48:09.227Z</time></trkpt><trkpt lat="44.2075204" lon="9.9774528"><ele>60.4</ele><time>2026-05-03T08:48:10.213Z</time></trkpt><trkpt lat="44.2075913" lon="9.9773437"><ele>60.599999999999994</ele><time>2026-05-03T08:48:11.214Z</time></trkpt><trkpt lat="44.207659" lon="9.9772417"><ele>60.8</ele><time>2026-05-03T08:48:12.217Z</time></trkpt><trkpt lat="44.2077321" lon="9.9771477"><ele>61.0</ele><time>2026-05-03T08:48:13.214Z</time></trkpt><trkpt lat="44.2077906" lon="9.9770442"><ele>61.0</ele><time>2026-05-03T08:48:14.237Z</time></trkpt><trkpt lat="44.2078628" lon="9.976963"><ele>60.99999999999999</ele><time>2026-05-03T08:48:15.238Z</time></trkpt><trkpt lat="44.2079636" lon="9.9769328"><ele>60.99999999999999</ele><time>2026-05-03T08:48:16.24Z</time></trkpt><trkpt lat="44.2080571" lon="9.9769012"><ele>61.0</ele><time>2026-05-03T08:48:17.249Z</time></trkpt><trkpt lat="44.2081502" lon="9.976855"><ele>61.0</ele><time>2026-05-03T08:48:18.25Z</time></trkpt><trkpt lat="44.2082419" lon="9.976796"><ele>61.4</ele><time>2026-05-03T08:48:19.238Z</time></trkpt><trkpt lat="44.2083274" lon="9.9767357"><ele>61.8</ele><time>2026-05-03T08:48:20.243Z</time></trkpt><trkpt lat="44.2084044" lon="9.976668"><ele>62.199999999999996</ele><time>2026-05-03T08:48:21.243Z</time></trkpt><trkpt lat="44.2084888" lon="9.9766087"><ele>62.599999999999994</ele><time>2026-05-03T08:48:22.237Z</time></trkpt><trkpt lat="44.2085973" lon="9.9765798"><ele>63.0</ele><time>2026-05-03T08:48:23.244Z</time></trkpt><trkpt lat="44.2087223" lon="9.9765794"><ele>63.0</ele><time>2026-05-03T08:48:24.243Z</time></trkpt><trkpt lat="44.2088461" lon="9.9765851"><ele>63.0</ele><time>2026-05-03T08:48:25.23Z</time></trkpt><trkpt lat="44.2089742" lon="9.9766045"><ele>63.0</ele><time>2026-05-03T08:48:26.213Z</time></trkpt><trkpt lat="44.2091024" lon="9.9766264"><ele>63.0</ele><time>2026-05-03T08:48:27.217Z</time></trkpt><trkpt lat="44.2092287" lon="9.9766469"><ele>68.66666666666667</ele><time>2026-05-03T08:48:28.217Z</time></trkpt><trkpt lat="44.209474" lon="9.9766924"><ele>74.33333333333334</ele><time>2026-05-03T08:48:30.221Z</time></trkpt><trkpt lat="44.2096069" lon="9.9767209"><ele>80.0</ele><time>2026-05-03T08:48:31.216Z</time></trkpt><trkpt lat="44.209864" lon="9.9768349"><ele>80.0</ele><time>2026-05-03T08:48:32.233Z</time></trkpt><trkpt lat="44.2102686" lon="9.9770097"><ele>80.0</ele><time>2026-05-03T08:48:33.245Z</time></trkpt><trkpt lat="44.210564" lon="9.9771527"><ele>80.33333333333334</ele><time>2026-05-03T08:48:34.235Z</time></trkpt><trkpt lat="44.2107399" lon="9.9772459"><ele>80.66666666666667</ele><time>2026-05-03T08:48:35.226Z</time></trkpt><trkpt lat="44.2108475" lon="9.9774026"><ele>81.0</ele><time>2026-05-03T08:48:36.214Z</time></trkpt><trkpt lat="44.2109456" lon="9.9775404"><ele>81.0</ele><time>2026-05-03T08:48:37.214Z</time></trkpt><trkpt lat="44.211039" lon="9.9776703"><ele>81.0</ele><time>2026-05-03T08:48:38.226Z</time></trkpt><trkpt lat="44.2111593" lon="9.9776607"><ele>81.0</ele><time>2026-05-03T08:48:39.241Z</time></trkpt><trkpt lat="44.2113302" lon="9.9776021"><ele>81.0</ele><time>2026-05-03T08:48:40.234Z</time></trkpt><trkpt lat="44.2114759" lon="9.9775684"><ele>77.5</ele><time>2026-05-03T08:48:41.223Z</time></trkpt><trkpt lat="44.2117993" lon="9.9775539"><ele>74.0</ele><time>2026-05-03T08:48:43.21Z</time></trkpt><trkpt lat="44.2119418" lon="9.9775245"><ele>72.33333333333334</ele><time>2026-05-03T08:48:44.211Z</time></trkpt><trkpt lat="44.2120867" lon="9.9774961"><ele>70.66666666666667</ele><time>2026-05-03T08:48:45.212Z</time></trkpt><trkpt lat="44.2122511" lon="9.9774675"><ele>69.0</ele><time>2026-05-03T08:48:46.218Z</time></trkpt><trkpt lat="44.2124345" lon="9.9774608"><ele>69.0</ele><time>2026-05-03T08:48:47.221Z</time></trkpt><trkpt lat="44.2126467" lon="9.9774629"><ele>69.0</ele><time>2026-05-03T08:48:48.235Z</time></trkpt><trkpt lat="44.2128707" lon="9.9774944"><ele>69.0</ele><time>2026-05-03T08:48:49.227Z</time></trkpt><trkpt lat="44.2130848" lon="9.9774931"><ele>68.66666666666667</ele><time>2026-05-03T08:48:50.217Z</time></trkpt><trkpt lat="44.213312" lon="9.9774906"><ele>68.33333333333334</ele><time>2026-05-03T08:48:51.229Z</time></trkpt><trkpt lat="44.2134931" lon="9.977466"><ele>68.0</ele><time>2026-05-03T08:48:52.24Z</time></trkpt><trkpt lat="44.2136584" lon="9.9774484"><ele>68.0</ele><time>2026-05-03T08:48:53.242Z</time></trkpt><trkpt lat="44.213852" lon="9.9774304"><ele>68.0</ele><time>2026-05-03T08:48:54.247Z</time></trkpt><trkpt lat="44.2141265" lon="9.977325"><ele>68.0</ele><time>2026-05-03T08:48:55.245Z</time></trkpt><trkpt lat="44.2143487" lon="9.9772592"><ele>68.0</ele><time>2026-05-03T08:48:56.242Z</time></trkpt><trkpt lat="44.214561" lon="9.9772256"><ele>68.0</ele><time>2026-05-03T08:48:57.239Z</time></trkpt><trkpt lat="44.2147055" lon="9.9772507"><ele>68.0</ele><time>2026-05-03T08:48:58.244Z</time></trkpt><trkpt lat="44.2148797" lon="9.9772846"><ele>68.0</ele><time>2026-05-03T08:48:59.24Z</time></trkpt><trkpt lat="44.2150622" lon="9.9773273"><ele>68.0</ele><time>2026-05-03T08:49:00.246Z</time></trkpt><trkpt lat="44.2152604" lon="9.9773433"><ele>68.0</ele><time>2026-05-03T08:49:01.242Z</time></trkpt><trkpt lat="44.2154465" lon="9.9773445"><ele>68.0</ele><time>2026-05-03T08:49:02.24Z</time></trkpt><trkpt lat="44.2156578" lon="9.9773218"><ele>68.0</ele><time>2026-05-03T08:49:03.246Z</time></trkpt><trkpt lat="44.2158489" lon="9.9772871"><ele>68.66666666666667</ele><time>2026-05-03T08:49:04.241Z</time></trkpt><trkpt lat="44.2160265" lon="9.9772473"><ele>69.33333333333333</ele><time>2026-05-03T08:49:05.245Z</time></trkpt><trkpt lat="44.2162188" lon="9.9771883"><ele>70.0</ele><time>2026-05-03T08:49:06.246Z</time></trkpt><trkpt lat="44.2164229" lon="9.9771036"><ele>70.66666666666666</ele><time>2026-05-03T08:49:07.24Z</time></trkpt><trkpt lat="44.2166176" lon="9.9770422"><ele>71.33333333333333</ele><time>2026-05-03T08:49:08.241Z</time></trkpt><trkpt lat="44.2168202" lon="9.976975"><ele>72.0</ele><time>2026-05-03T08:49:09.242Z</time></trkpt><trkpt lat="44.2170374" lon="9.9769106"><ele>72.0</ele><time>2026-05-03T08:49:10.241Z</time></trkpt><trkpt lat="44.2172502" lon="9.9768371"><ele>72.0</ele><time>2026-05-03T08:49:11.245Z</time></trkpt><trkpt lat="44.2174537" lon="9.9767849"><ele>72.0</ele><time>2026-05-03T08:49:12.238Z</time></trkpt><trkpt lat="44.2176187" lon="9.976735"><ele>74.0</ele><time>2026-05-03T08:49:13.239Z</time></trkpt><trkpt lat="44.2179237" lon="9.976636"><ele>76.0</ele><time>2026-05-03T08:49:15.247Z</time></trkpt><trkpt lat="44.2180547" lon="9.976577"><ele>76.39999999999999</ele><time>2026-05-03T08:49:16.246Z</time></trkpt><trkpt lat="44.218176" lon="9.97654"><ele>76.8</ele><time>2026-05-03T08:49:17.25Z</time></trkpt><trkpt lat="44.2183014" lon="9.9764853"><ele>77.19999999999999</ele><time>2026-05-03T08:49:18.249Z</time></trkpt><trkpt lat="44.2183924" lon="9.9764443"><ele>77.6</ele><time>2026-05-03T08:49:19.248Z</time></trkpt><trkpt lat="44.2184815" lon="9.9764085"><ele>78.0</ele><time>2026-05-03T08:49:20.249Z</time></trkpt><trkpt lat="44.2185869" lon="9.9763684"><ele>78.0</ele><time>2026-05-03T08:49:21.244Z</time></trkpt><trkpt lat="44.218696" lon="9.9763246"><ele>78.0</ele><time>2026-05-03T08:49:22.251Z</time></trkpt><trkpt lat="44.2188069" lon="9.9762869"><ele>78.0</ele><time>2026-05-03T08:49:23.252Z</time></trkpt><trkpt lat="44.2188987" lon="9.9762549"><ele>78.0</ele><time>2026-05-03T08:49:24.251Z</time></trkpt><trkpt lat="44.2189979" lon="9.976227"><ele>78.0</ele><time>2026-05-03T08:49:25.253Z</time></trkpt><trkpt lat="44.2190879" lon="9.9761866"><ele>78.25</ele><time>2026-05-03T08:49:26.249Z</time></trkpt><trkpt lat="44.2191889" lon="9.9761548"><ele>78.5</ele><time>2026-05-03T08:49:27.243Z</time></trkpt><trkpt lat="44.2192992" lon="9.976109"><ele>78.75</ele><time>2026-05-03T08:49:28.249Z</time></trkpt><trkpt lat="44.2194239" lon="9.9760709"><ele>79.0</ele><time>2026-05-03T08:49:29.241Z</time></trkpt><trkpt lat="44.2195578" lon="9.9760298"><ele>79.0</ele><time>2026-05-03T08:49:30.243Z</time></trkpt><trkpt lat="44.2196985" lon="9.9759933"><ele>79.0</ele><time>2026-05-03T08:49:31.248Z</time></trkpt><trkpt lat="44.219848" lon="9.9759668"><ele>79.0</ele><time>2026-05-03T08:49:32.248Z</time></trkpt><trkpt lat="44.2199744" lon="9.9759408"><ele>79.0</ele><time>2026-05-03T08:49:33.243Z</time></trkpt><trkpt lat="44.2200817" lon="9.9759122"><ele>77.33333333333333</ele><time>2026-05-03T08:49:34.242Z</time></trkpt><trkpt lat="44.2201753" lon="9.9758784"><ele>75.66666666666666</ele><time>2026-05-03T08:49:35.242Z</time></trkpt><trkpt lat="44.2202588" lon="9.9758251"><ele>74.0</ele><time>2026-05-03T08:49:36.238Z</time></trkpt><trkpt lat="44.2203053" lon="9.9757561"><ele>72.33333333333333</ele><time>2026-05-03T08:49:37.239Z</time></trkpt><trkpt lat="44.2203113" lon="9.9756605"><ele>70.66666666666667</ele><time>2026-05-03T08:49:38.225Z</time></trkpt><trkpt lat="44.2202774" lon="9.9755551"><ele>69.0</ele><time>2026-05-03T08:49:39.224Z</time></trkpt><trkpt lat="44.2202068" lon="9.9754214"><ele>68.33333333333333</ele><time>2026-05-03T08:49:40.226Z</time></trkpt><trkpt lat="44.2200947" lon="9.9752893"><ele>67.66666666666666</ele><time>2026-05-03T08:49:41.227Z</time></trkpt><trkpt lat="44.2199479" lon="9.9751632"><ele>67.0</ele><time>2026-05-03T08:49:42.23Z</time></trkpt><trkpt lat="44.219793" lon="9.9750412"><ele>68.33333333333333</ele><time>2026-05-03T08:49:43.229Z</time></trkpt><trkpt lat="44.2196415" lon="9.9748966"><ele>69.66666666666667</ele><time>2026-05-03T08:49:44.231Z</time></trkpt><trkpt lat="44.2194767" lon="9.9747731"><ele>71.0</ele><time>2026-05-03T08:49:45.233Z</time></trkpt><trkpt lat="44.2193243" lon="9.9746446"><ele>71.0</ele><time>2026-05-03T08:49:46.233Z</time></trkpt><trkpt lat="44.2192246" lon="9.9745182"><ele>71.0</ele><time>2026-05-03T08:49:47.21Z</time></trkpt><trkpt lat="44.2191403" lon="9.9743548"><ele>71.0</ele><time>2026-05-03T08:49:48.221Z</time></trkpt><trkpt lat="44.2190714" lon="9.9741759"><ele>71.0</ele><time>2026-05-03T08:49:49.235Z</time></trkpt><trkpt lat="44.2189913" lon="9.9740178"><ele>71.8</ele><time>2026-05-03T08:49:50.231Z</time></trkpt><trkpt lat="44.2189262" lon="9.9738595"><ele>72.6</ele><time>2026-05-03T08:49:51.226Z</time></trkpt><trkpt lat="44.2188667" lon="9.9737135"><ele>73.4</ele><time>2026-05-03T08:49:52.224Z</time></trkpt><trkpt lat="44.2188167" lon="9.9735957"><ele>74.2</ele><time>2026-05-03T08:49:53.213Z</time></trkpt><trkpt lat="44.2187589" lon="9.973485"><ele>75.0</ele><time>2026-05-03T08:49:54.202Z</time></trkpt><trkpt lat="44.218702" lon="9.9733815"><ele>72.75</ele><time>2026-05-03T08:49:55.211Z</time></trkpt><trkpt lat="44.2186436" lon="9.9732798"><ele>70.5</ele><time>2026-05-03T08:49:56.194Z</time></trkpt><trkpt lat="44.2185269" lon="9.9730791"><ele>68.25</ele><time>2026-05-03T08:49:58.219Z</time></trkpt><trkpt lat="44.2184683" lon="9.9729663"><ele>66.0</ele><time>2026-05-03T08:49:59.226Z</time></trkpt><trkpt lat="44.2184193" lon="9.9728235"><ele>66.0</ele><time>2026-05-03T08:50:00.228Z</time></trkpt><trkpt lat="44.2183851" lon="9.972613"><ele>66.0</ele><time>2026-05-03T08:50:01.224Z</time></trkpt><trkpt lat="44.2185117" lon="9.9721996"><ele>64.66666666666667</ele><time>2026-05-03T08:50:02.228Z</time></trkpt><trkpt lat="44.218425" lon="9.971881"><ele>63.333333333333336</ele><time>2026-05-03T08:50:03.222Z</time></trkpt><trkpt lat="44.2183252" lon="9.9716543"><ele>62.0</ele><time>2026-05-03T08:50:04.228Z</time></trkpt><trkpt lat="44.2183108" lon="9.9714825"><ele>61.66666666666667</ele><time>2026-05-03T08:50:05.224Z</time></trkpt><trkpt lat="44.21825" lon="9.9712832"><ele>61.33333333333333</ele><time>2026-05-03T08:50:06.213Z</time></trkpt><trkpt lat="44.2181922" lon="9.9710882"><ele>61.0</ele><time>2026-05-03T08:50:07.209Z</time></trkpt><trkpt lat="44.2181474" lon="9.9708903"><ele>63.25</ele><time>2026-05-03T08:50:08.217Z</time></trkpt><trkpt lat="44.2181082" lon="9.9707505"><ele>65.5</ele><time>2026-05-03T08:50:09.226Z</time></trkpt><trkpt lat="44.2180678" lon="9.9705819"><ele>67.75</ele><time>2026-05-03T08:50:10.222Z</time></trkpt><trkpt lat="44.2180059" lon="9.9704373"><ele>70.0</ele><time>2026-05-03T08:50:11.223Z</time></trkpt><trkpt lat="44.2179339" lon="9.9703037"><ele>70.0</ele><time>2026-05-03T08:50:12.229Z</time></trkpt><trkpt lat="44.2178834" lon="9.9701805"><ele>70.0</ele><time>2026-05-03T08:50:13.223Z</time></trkpt><trkpt lat="44.2178428" lon="9.9700668"><ele>70.0</ele><time>2026-05-03T08:50:14.225Z</time></trkpt><trkpt lat="44.2178187" lon="9.9699455"><ele>70.0</ele><time>2026-05-03T08:50:15.226Z</time></trkpt><trkpt lat="44.217859" lon="9.9698657"><ele>70.0</ele><time>2026-05-03T08:50:16.227Z</time></trkpt><trkpt lat="44.2179578" lon="9.9698288"><ele>69.8</ele><time>2026-05-03T08:50:17.228Z</time></trkpt><trkpt lat="44.2180588" lon="9.9698112"><ele>69.6</ele><time>2026-05-03T08:50:18.236Z</time></trkpt><trkpt lat="44.2181312" lon="9.9697832"><ele>69.4</ele><time>2026-05-03T08:50:19.215Z</time></trkpt><trkpt lat="44.2182112" lon="9.969685"><ele>69.2</ele><time>2026-05-03T08:50:21.207Z</time></trkpt><trkpt lat="44.2183456" lon="9.9696625"><ele>69.0</ele><time>2026-05-03T08:50:23.235Z</time></trkpt><trkpt lat="44.2184546" lon="9.9696873"><ele>67.8</ele><time>2026-05-03T08:50:24.234Z</time></trkpt><trkpt lat="44.2185652" lon="9.9697138"><ele>66.60000000000001</ele><time>2026-05-03T08:50:25.244Z</time></trkpt><trkpt lat="44.2186806" lon="9.9697258"><ele>65.4</ele><time>2026-05-03T08:50:26.24Z</time></trkpt><trkpt lat="44.2187611" lon="9.9697353"><ele>64.2</ele><time>2026-05-03T08:50:27.229Z</time></trkpt><trkpt lat="44.2188871" lon="9.9697361"><ele>63.0</ele><time>2026-05-03T08:50:28.238Z</time></trkpt><trkpt lat="44.2190147" lon="9.9697302"><ele>62.75</ele><time>2026-05-03T08:50:29.22Z</time></trkpt><trkpt lat="44.2191477" lon="9.9697264"><ele>62.5</ele><time>2026-05-03T08:50:30.229Z</time></trkpt><trkpt lat="44.2192563" lon="9.9696899"><ele>62.25</ele><time>2026-05-03T08:50:31.22Z</time></trkpt><trkpt lat="44.2193568" lon="9.9696462"><ele>62.0</ele><time>2026-05-03T08:50:32.218Z</time></trkpt><trkpt lat="44.2194922" lon="9.9695865"><ele>62.0</ele><time>2026-05-03T08:50:33.218Z</time></trkpt><trkpt lat="44.2196232" lon="9.9695269"><ele>62.0</ele><time>2026-05-03T08:50:34.235Z</time></trkpt><trkpt lat="44.2197704" lon="9.9694674"><ele>62.0</ele><time>2026-05-03T08:50:35.226Z</time></trkpt><trkpt lat="44.2199103" lon="9.9693571"><ele>62.0</ele><time>2026-05-03T08:50:36.238Z</time></trkpt><trkpt lat="44.220076" lon="9.969297"><ele>62.0</ele><time>2026-05-03T08:50:37.235Z</time></trkpt><trkpt lat="44.2202395" lon="9.9693223"><ele>62.0</ele><time>2026-05-03T08:50:38.235Z</time></trkpt><trkpt lat="44.2203817" lon="9.9693681"><ele>62.0</ele><time>2026-05-03T08:50:39.235Z</time></trkpt><trkpt lat="44.2205142" lon="9.9694409"><ele>62.0</ele><time>2026-05-03T08:50:40.234Z</time></trkpt><trkpt lat="44.2206373" lon="9.9695266"><ele>62.0</ele><time>2026-05-03T08:50:41.235Z</time></trkpt><trkpt lat="44.2207793" lon="9.9696176"><ele>62.0</ele><time>2026-05-03T08:50:42.231Z</time></trkpt><trkpt lat="44.2209067" lon="9.9696969"><ele>62.333333333333336</ele><time>2026-05-03T08:50:43.239Z</time></trkpt><trkpt lat="44.2210443" lon="9.9697842"><ele>62.66666666666667</ele><time>2026-05-03T08:50:44.233Z</time></trkpt><trkpt lat="44.2212092" lon="9.9698635"><ele>63.0</ele><time>2026-05-03T08:50:45.234Z</time></trkpt><trkpt lat="44.2213285" lon="9.9699415"><ele>63.33333333333333</ele><time>2026-05-03T08:50:46.24Z</time></trkpt><trkpt lat="44.2215345" lon="9.9700026"><ele>63.666666666666664</ele><time>2026-05-03T08:50:47.236Z</time></trkpt><trkpt lat="44.2217556" lon="9.9700168"><ele>64.0</ele><time>2026-05-03T08:50:48.236Z</time></trkpt><trkpt lat="44.2219351" lon="9.9700346"><ele>64.33333333333333</ele><time>2026-05-03T08:50:49.229Z</time></trkpt><trkpt lat="44.2221094" lon="9.9700345"><ele>64.66666666666667</ele><time>2026-05-03T08:50:50.23Z</time></trkpt><trkpt lat="44.2222801" lon="9.9700602"><ele>65.0</ele><time>2026-05-03T08:50:51.23Z</time></trkpt><trkpt lat="44.2224537" lon="9.9700696"><ele>65.0</ele><time>2026-05-03T08:50:52.23Z</time></trkpt><trkpt lat="44.222635" lon="9.9700465"><ele>65.0</ele><time>2026-05-03T08:50:53.236Z</time></trkpt><trkpt lat="44.2227702" lon="9.969963"><ele>65.0</ele><time>2026-05-03T08:50:54.232Z</time></trkpt><trkpt lat="44.2228843" lon="9.9698892"><ele>65.0</ele><time>2026-05-03T08:50:55.234Z</time></trkpt><trkpt lat="44.22298" lon="9.9698228"><ele>65.0</ele><time>2026-05-03T08:50:56.238Z</time></trkpt><trkpt lat="44.2231135" lon="9.9697701"><ele>65.0</ele><time>2026-05-03T08:50:57.231Z</time></trkpt><trkpt lat="44.223234" lon="9.9697523"><ele>65.0</ele><time>2026-05-03T08:50:58.238Z</time></trkpt><trkpt lat="44.2233606" lon="9.9695986"><ele>65.66666666666667</ele><time>2026-05-03T08:50:59.235Z</time></trkpt><trkpt lat="44.2234821" lon="9.9695086"><ele>66.33333333333333</ele><time>2026-05-03T08:51:00.236Z</time></trkpt><trkpt lat="44.2236397" lon="9.9694511"><ele>67.0</ele><time>2026-05-03T08:51:01.235Z</time></trkpt><trkpt lat="44.2237838" lon="9.9693907"><ele>67.0</ele><time>2026-05-03T08:51:02.238Z</time></trkpt><trkpt lat="44.2239178" lon="9.9693382"><ele>67.0</ele><time>2026-05-03T08:51:03.231Z</time></trkpt><trkpt lat="44.2240573" lon="9.9692881"><ele>67.0</ele><time>2026-05-03T08:51:04.231Z</time></trkpt><trkpt lat="44.22419" lon="9.9692469"><ele>67.0</ele><time>2026-05-03T08:51:05.237Z</time></trkpt><trkpt lat="44.2243232" lon="9.9692114"><ele>67.0</ele><time>2026-05-03T08:51:06.232Z</time></trkpt><trkpt lat="44.2244492" lon="9.9691601"><ele>67.0</ele><time>2026-05-03T08:51:07.236Z</time></trkpt><trkpt lat="44.2245704" lon="9.9691129"><ele>67.0</ele><time>2026-05-03T08:51:08.236Z</time></trkpt><trkpt lat="44.2247011" lon="9.9690198"><ele>67.0</ele><time>2026-05-03T08:51:09.233Z</time></trkpt><trkpt lat="44.2248342" lon="9.968931"><ele>67.0</ele><time>2026-05-03T08:51:10.231Z</time></trkpt><trkpt lat="44.2249574" lon="9.9688159"><ele>67.0</ele><time>2026-05-03T08:51:11.233Z</time></trkpt><trkpt lat="44.2250843" lon="9.9687221"><ele>67.0</ele><time>2026-05-03T08:51:12.235Z</time></trkpt><trkpt lat="44.2252063" lon="9.968584"><ele>67.0</ele><time>2026-05-03T08:51:13.222Z</time></trkpt><trkpt lat="44.2253034" lon="9.9684564"><ele>67.0</ele><time>2026-05-03T08:51:14.237Z</time></trkpt><trkpt lat="44.2254212" lon="9.9683427"><ele>67.0</ele><time>2026-05-03T08:51:15.235Z</time></trkpt><trkpt lat="44.2255129" lon="9.9682417"><ele>67.0</ele><time>2026-05-03T08:51:16.232Z</time></trkpt><trkpt lat="44.2256004" lon="9.9681497"><ele>67.0</ele><time>2026-05-03T08:51:17.234Z</time></trkpt><trkpt lat="44.2257155" lon="9.9680496"><ele>67.0</ele><time>2026-05-03T08:51:18.241Z</time></trkpt><trkpt lat="44.2258189" lon="9.9679502"><ele>67.0</ele><time>2026-05-03T08:51:19.236Z</time></trkpt><trkpt lat="44.225908" lon="9.9678397"><ele>67.0</ele><time>2026-05-03T08:51:20.235Z</time></trkpt><trkpt lat="44.2260046" lon="9.9677108"><ele>67.0</ele><time>2026-05-03T08:51:21.236Z</time></trkpt><trkpt lat="44.2261033" lon="9.9675826"><ele>66.66666666666666</ele><time>2026-05-03T08:51:22.236Z</time></trkpt><trkpt lat="44.2262176" lon="9.9674281"><ele>66.33333333333333</ele><time>2026-05-03T08:51:23.231Z</time></trkpt><trkpt lat="44.2263241" lon="9.9672691"><ele>66.0</ele><time>2026-05-03T08:51:24.239Z</time></trkpt><trkpt lat="44.2264297" lon="9.9671001"><ele>66.0</ele><time>2026-05-03T08:51:25.242Z</time></trkpt><trkpt lat="44.2265333" lon="9.9669462"><ele>66.0</ele><time>2026-05-03T08:51:26.238Z</time></trkpt><trkpt lat="44.2266291" lon="9.9668024"><ele>66.0</ele><time>2026-05-03T08:51:27.235Z</time></trkpt><trkpt lat="44.2267174" lon="9.9666487"><ele>66.0</ele><time>2026-05-03T08:51:28.242Z</time></trkpt><trkpt lat="44.2268103" lon="9.9664897"><ele>65.5</ele><time>2026-05-03T08:51:29.234Z</time></trkpt><trkpt lat="44.2269052" lon="9.9663359"><ele>65.0</ele><time>2026-05-03T08:51:30.229Z</time></trkpt><trkpt lat="44.2269928" lon="9.9661972"><ele>64.5</ele><time>2026-05-03T08:51:31.234Z</time></trkpt><trkpt lat="44.227107" lon="9.9660566"><ele>64.0</ele><time>2026-05-03T08:51:32.235Z</time></trkpt><trkpt lat="44.2272234" lon="9.9659111"><ele>64.5</ele><time>2026-05-03T08:51:33.232Z</time></trkpt><trkpt lat="44.2273585" lon="9.9657747"><ele>65.0</ele><time>2026-05-03T08:51:34.238Z</time></trkpt><trkpt lat="44.2274923" lon="9.9656926"><ele>65.5</ele><time>2026-05-03T08:51:35.234Z</time></trkpt><trkpt lat="44.2275987" lon="9.9656333"><ele>66.0</ele><time>2026-05-03T08:51:36.241Z</time></trkpt><trkpt lat="44.2277126" lon="9.9656045"><ele>66.0</ele><time>2026-05-03T08:51:37.232Z</time></trkpt><trkpt lat="44.227837" lon="9.965567"><ele>66.0</ele><time>2026-05-03T08:51:38.237Z</time></trkpt><trkpt lat="44.2279318" lon="9.9655326"><ele>66.0</ele><time>2026-05-03T08:51:39.242Z</time></trkpt><trkpt lat="44.2280501" lon="9.9655058"><ele>66.0</ele><time>2026-05-03T08:51:40.235Z</time></trkpt><trkpt lat="44.2281803" lon="9.9654662"><ele>66.2</ele><time>2026-05-03T08:51:41.231Z</time></trkpt><trkpt lat="44.2283056" lon="9.96546"><ele>66.39999999999999</ele><time>2026-05-03T08:51:42.228Z</time></trkpt><trkpt lat="44.2284132" lon="9.9654186"><ele>66.6</ele><time>2026-05-03T08:51:43.233Z</time></trkpt><trkpt lat="44.2284904" lon="9.9653577"><ele>66.8</ele><time>2026-05-03T08:51:44.229Z</time></trkpt><trkpt lat="44.2285808" lon="9.9653096"><ele>67.0</ele><time>2026-05-03T08:51:45.237Z</time></trkpt><trkpt lat="44.2286808" lon="9.9652748"><ele>67.0</ele><time>2026-05-03T08:51:46.227Z</time></trkpt><trkpt lat="44.2287868" lon="9.9652436"><ele>67.0</ele><time>2026-05-03T08:51:47.229Z</time></trkpt><trkpt lat="44.2288921" lon="9.9652164"><ele>67.0</ele><time>2026-05-03T08:51:48.229Z</time></trkpt><trkpt lat="44.228999" lon="9.9651826"><ele>67.0</ele><time>2026-05-03T08:51:49.232Z</time></trkpt><trkpt lat="44.2291086" lon="9.9651448"><ele>67.0</ele><time>2026-05-03T08:51:50.229Z</time></trkpt><trkpt lat="44.2292309" lon="9.9651108"><ele>67.0</ele><time>2026-05-03T08:51:51.234Z</time></trkpt><trkpt lat="44.2293348" lon="9.9650784"><ele>67.0</ele><time>2026-05-03T08:51:52.228Z</time></trkpt><trkpt lat="44.2294322" lon="9.9650444"><ele>67.0</ele><time>2026-05-03T08:51:53.235Z</time></trkpt><trkpt lat="44.2295109" lon="9.9650137"><ele>67.0</ele><time>2026-05-03T08:51:54.229Z</time></trkpt><trkpt lat="44.2295898" lon="9.9649745"><ele>67.0</ele><time>2026-05-03T08:51:55.251Z</time></trkpt><trkpt lat="44.2296688" lon="9.9649484"><ele>67.0</ele><time>2026-05-03T08:51:56.24Z</time></trkpt><trkpt lat="44.2297343" lon="9.9649133"><ele>67.0</ele><time>2026-05-03T08:51:57.239Z</time></trkpt><trkpt lat="44.2298007" lon="9.9648967"><ele>67.0</ele><time>2026-05-03T08:51:58.237Z</time></trkpt><trkpt lat="44.2298857" lon="9.9648682"><ele>67.0</ele><time>2026-05-03T08:51:59.244Z</time></trkpt><trkpt lat="44.2299611" lon="9.9648267"><ele>67.0</ele><time>2026-05-03T08:52:00.241Z</time></trkpt><trkpt lat="44.2300229" lon="9.9647957"><ele>67.0</ele><time>2026-05-03T08:52:01.238Z</time></trkpt><trkpt lat="44.230106" lon="9.964761"><ele>68.16666666666666</ele><time>2026-05-03T08:52:02.244Z</time></trkpt><trkpt lat="44.230174" lon="9.9647335"><ele>69.33333333333333</ele><time>2026-05-03T08:52:03.222Z</time></trkpt><trkpt lat="44.2302397" lon="9.9647027"><ele>70.5</ele><time>2026-05-03T08:52:04.211Z</time></trkpt><trkpt lat="44.2303157" lon="9.9646608"><ele>71.66666666666667</ele><time>2026-05-03T08:52:05.214Z</time></trkpt><trkpt lat="44.2303907" lon="9.9646077"><ele>72.83333333333334</ele><time>2026-05-03T08:52:06.229Z</time></trkpt><trkpt lat="44.2304422" lon="9.964533"><ele>74.0</ele><time>2026-05-03T08:52:07.241Z</time></trkpt><trkpt lat="44.2304928" lon="9.9644355"><ele>74.0</ele><time>2026-05-03T08:52:08.237Z</time></trkpt><trkpt lat="44.230563" lon="9.9643112"><ele>74.0</ele><time>2026-05-03T08:52:09.239Z</time></trkpt><trkpt lat="44.2306376" lon="9.9641567"><ele>74.0</ele><time>2026-05-03T08:52:10.237Z</time></trkpt><trkpt lat="44.2306998" lon="9.963995"><ele>74.0</ele><time>2026-05-03T08:52:11.244Z</time></trkpt><trkpt lat="44.2307509" lon="9.9637995"><ele>74.0</ele><time>2026-05-03T08:52:12.243Z</time></trkpt><trkpt lat="44.2307897" lon="9.9636312"><ele>74.0</ele><time>2026-05-03T08:52:13.24Z</time></trkpt><trkpt lat="44.2308313" lon="9.9634775"><ele>74.0</ele><time>2026-05-03T08:52:14.239Z</time></trkpt><trkpt lat="44.2308498" lon="9.9633509"><ele>74.0</ele><time>2026-05-03T08:52:15.24Z</time></trkpt><trkpt lat="44.2308646" lon="9.9632567"><ele>74.0</ele><time>2026-05-03T08:52:16.238Z</time></trkpt><trkpt lat="44.2308759" lon="9.9631654"><ele>74.0</ele><time>2026-05-03T08:52:17.24Z</time></trkpt><trkpt lat="44.2309101" lon="9.9630248"><ele>74.0</ele><time>2026-05-03T08:52:19.213Z</time></trkpt><trkpt lat="44.2309495" lon="9.9628736"><ele>74.0</ele><time>2026-05-03T08:52:21.215Z</time></trkpt><trkpt lat="44.2309721" lon="9.9627814"><ele>74.0</ele><time>2026-05-03T08:52:22.234Z</time></trkpt><trkpt lat="44.2309978" lon="9.9626767"><ele>74.0</ele><time>2026-05-03T08:52:23.246Z</time></trkpt><trkpt lat="44.2310337" lon="9.9625572"><ele>73.75</ele><time>2026-05-03T08:52:24.228Z</time></trkpt><trkpt lat="44.2310724" lon="9.9624101"><ele>73.5</ele><time>2026-05-03T08:52:25.213Z</time></trkpt><trkpt lat="44.2311028" lon="9.9622768"><ele>73.25</ele><time>2026-05-03T08:52:26.237Z</time></trkpt><trkpt lat="44.2311424" lon="9.9621196"><ele>73.0</ele><time>2026-05-03T08:52:27.243Z</time></trkpt><trkpt lat="44.2311937" lon="9.9619403"><ele>73.0</ele><time>2026-05-03T08:52:28.243Z</time></trkpt><trkpt lat="44.2312722" lon="9.9617527"><ele>73.0</ele><time>2026-05-03T08:52:29.24Z</time></trkpt><trkpt lat="44.2313593" lon="9.9615588"><ele>73.0</ele><time>2026-05-03T08:52:30.246Z</time></trkpt><trkpt lat="44.2314807" lon="9.9613131"><ele>73.66666666666666</ele><time>2026-05-03T08:52:31.244Z</time></trkpt><trkpt lat="44.2316213" lon="9.961153"><ele>74.33333333333333</ele><time>2026-05-03T08:52:32.245Z</time></trkpt><trkpt lat="44.2317393" lon="9.9609701"><ele>75.0</ele><time>2026-05-03T08:52:33.243Z</time></trkpt><trkpt lat="44.2318601" lon="9.9608297"><ele>75.0</ele><time>2026-05-03T08:52:34.23Z</time></trkpt><trkpt lat="44.2319718" lon="9.9606874"><ele>75.0</ele><time>2026-05-03T08:52:35.216Z</time></trkpt><trkpt lat="44.2320891" lon="9.9605526"><ele>75.0</ele><time>2026-05-03T08:52:36.219Z</time></trkpt><trkpt lat="44.2322072" lon="9.9604152"><ele>76.66666666666667</ele><time>2026-05-03T08:52:37.21Z</time></trkpt><trkpt lat="44.2323079" lon="9.9602678"><ele>78.33333333333334</ele><time>2026-05-03T08:52:38.213Z</time></trkpt><trkpt lat="44.2324779" lon="9.9601777"><ele>80.0</ele><time>2026-05-03T08:52:39.24Z</time></trkpt><trkpt lat="44.2326433" lon="9.9600804"><ele>78.66666666666667</ele><time>2026-05-03T08:52:40.231Z</time></trkpt><trkpt lat="44.2328227" lon="9.9600212"><ele>77.33333333333333</ele><time>2026-05-03T08:52:41.236Z</time></trkpt><trkpt lat="44.2330243" lon="9.9600207"><ele>76.0</ele><time>2026-05-03T08:52:42.246Z</time></trkpt><trkpt lat="44.2332897" lon="9.960151"><ele>80.0</ele><time>2026-05-03T08:52:43.251Z</time></trkpt><trkpt lat="44.2334987" lon="9.960169"><ele>84.0</ele><time>2026-05-03T08:52:44.246Z</time></trkpt><trkpt lat="44.2337421" lon="9.9602522"><ele>85.66666666666667</ele><time>2026-05-03T08:52:45.25Z</time></trkpt><trkpt lat="44.233982" lon="9.9602876"><ele>87.33333333333334</ele><time>2026-05-03T08:52:46.25Z</time></trkpt><trkpt lat="44.2341738" lon="9.9602966"><ele>89.0</ele><time>2026-05-03T08:52:47.245Z</time></trkpt><trkpt lat="44.2343683" lon="9.9603027"><ele>89.0</ele><time>2026-05-03T08:52:48.251Z</time></trkpt><trkpt lat="44.2345352" lon="9.9602795"><ele>89.0</ele><time>2026-05-03T08:52:49.245Z</time></trkpt><trkpt lat="44.2347343" lon="9.9602514"><ele>89.0</ele><time>2026-05-03T08:52:50.247Z</time></trkpt><trkpt lat="44.23494" lon="9.9602159"><ele>90.0</ele><time>2026-05-03T08:52:51.249Z</time></trkpt><trkpt lat="44.2351557" lon="9.9601786"><ele>91.0</ele><time>2026-05-03T08:52:52.246Z</time></trkpt><trkpt lat="44.2353892" lon="9.9602296"><ele>91.0</ele><time>2026-05-03T08:52:53.251Z</time></trkpt><trkpt lat="44.2355747" lon="9.9601966"><ele>91.0</ele><time>2026-05-03T08:52:54.25Z</time></trkpt><trkpt lat="44.2357637" lon="9.9602044"><ele>91.0</ele><time>2026-05-03T08:52:55.245Z</time></trkpt><trkpt lat="44.2359607" lon="9.960193"><ele>92.66666666666666</ele><time>2026-05-03T08:52:56.248Z</time></trkpt><trkpt lat="44.2361837" lon="9.9601947"><ele>94.33333333333333</ele><time>2026-05-03T08:52:57.249Z</time></trkpt><trkpt lat="44.236399" lon="9.9601731"><ele>96.0</ele><time>2026-05-03T08:52:58.241Z</time></trkpt><trkpt lat="44.2366492" lon="9.9602058"><ele>97.0</ele><time>2026-05-03T08:52:59.233Z</time></trkpt><trkpt lat="44.2368203" lon="9.9601688"><ele>98.0</ele><time>2026-05-03T08:53:00.238Z</time></trkpt><trkpt lat="44.2370672" lon="9.9601666"><ele>99.0</ele><time>2026-05-03T08:53:01.253Z</time></trkpt><trkpt lat="44.2372322" lon="9.9601738"><ele>97.5</ele><time>2026-05-03T08:53:02.249Z</time></trkpt><trkpt lat="44.2373952" lon="9.9601676"><ele>96.0</ele><time>2026-05-03T08:53:03.247Z</time></trkpt><trkpt lat="44.2374981" lon="9.9601333"><ele>94.5</ele><time>2026-05-03T08:53:04.245Z</time></trkpt><trkpt lat="44.2376" lon="9.9601128"><ele>93.0</ele><time>2026-05-03T08:53:05.248Z</time></trkpt><trkpt lat="44.2377109" lon="9.9600858"><ele>93.0</ele><time>2026-05-03T08:53:06.228Z</time></trkpt><trkpt lat="44.2378441" lon="9.9600612"><ele>93.0</ele><time>2026-05-03T08:53:07.21Z</time></trkpt><trkpt lat="44.2379735" lon="9.9600388"><ele>93.0</ele><time>2026-05-03T08:53:08.219Z</time></trkpt><trkpt lat="44.2381026" lon="9.9600178"><ele>93.0</ele><time>2026-05-03T08:53:09.219Z</time></trkpt><trkpt lat="44.238233" lon="9.9599966"><ele>90.25</ele><time>2026-05-03T08:53:10.222Z</time></trkpt><trkpt lat="44.2383676" lon="9.9599772"><ele>87.5</ele><time>2026-05-03T08:53:11.218Z</time></trkpt><trkpt lat="44.2385017" lon="9.9599558"><ele>84.75</ele><time>2026-05-03T08:53:12.234Z</time></trkpt><trkpt lat="44.2386256" lon="9.9599103"><ele>82.0</ele><time>2026-05-03T08:53:13.228Z</time></trkpt><trkpt lat="44.2387478" lon="9.9598635"><ele>82.0</ele><time>2026-05-03T08:53:14.231Z</time></trkpt><trkpt lat="44.2388591" lon="9.9598156"><ele>82.0</ele><time>2026-05-03T08:53:15.247Z</time></trkpt><trkpt lat="44.23895" lon="9.9597877"><ele>82.0</ele><time>2026-05-03T08:53:16.238Z</time></trkpt><trkpt lat="44.2390815" lon="9.9597713"><ele>82.0</ele><time>2026-05-03T08:53:17.235Z</time></trkpt><trkpt lat="44.2392171" lon="9.9597475"><ele>82.0</ele><time>2026-05-03T08:53:18.249Z</time></trkpt><trkpt lat="44.2393194" lon="9.9597426"><ele>82.0</ele><time>2026-05-03T08:53:19.24Z</time></trkpt><trkpt lat="44.2394313" lon="9.95975"><ele>82.0</ele><time>2026-05-03T08:53:20.227Z</time></trkpt><trkpt lat="44.2395321" lon="9.959757"><ele>82.0</ele><time>2026-05-03T08:53:21.215Z</time></trkpt><trkpt lat="44.2396521" lon="9.9597522"><ele>82.0</ele><time>2026-05-03T08:53:22.214Z</time></trkpt><trkpt lat="44.239782" lon="9.95974"><ele>82.5</ele><time>2026-05-03T08:53:23.225Z</time></trkpt><trkpt lat="44.2399108" lon="9.9597278"><ele>83.0</ele><time>2026-05-03T08:53:24.219Z</time></trkpt><trkpt lat="44.2400421" lon="9.9597155"><ele>83.5</ele><time>2026-05-03T08:53:25.217Z</time></trkpt><trkpt lat="44.2401753" lon="9.9597018"><ele>84.0</ele><time>2026-05-03T08:53:26.21Z</time></trkpt><trkpt lat="44.240311" lon="9.9596872"><ele>84.0</ele><time>2026-05-03T08:53:27.219Z</time></trkpt><trkpt lat="44.2404465" lon="9.9596735"><ele>84.0</ele><time>2026-05-03T08:53:28.229Z</time></trkpt><trkpt lat="44.2405802" lon="9.9596607"><ele>84.0</ele><time>2026-05-03T08:53:29.216Z</time></trkpt><trkpt lat="44.240712" lon="9.9596459"><ele>84.0</ele><time>2026-05-03T08:53:30.22Z</time></trkpt><trkpt lat="44.2408466" lon="9.9596305"><ele>85.0</ele><time>2026-05-03T08:53:31.233Z</time></trkpt><trkpt lat="44.2409914" lon="9.9595819"><ele>86.0</ele><time>2026-05-03T08:53:32.254Z</time></trkpt><trkpt lat="44.2411395" lon="9.9595584"><ele>87.0</ele><time>2026-05-03T08:53:33.256Z</time></trkpt><trkpt lat="44.2413002" lon="9.9595266"><ele>88.33333333333333</ele><time>2026-05-03T08:53:34.244Z</time></trkpt><trkpt lat="44.2414767" lon="9.9595038"><ele>89.66666666666666</ele><time>2026-05-03T08:53:35.244Z</time></trkpt><trkpt lat="44.2416441" lon="9.9594615"><ele>91.0</ele><time>2026-05-03T08:53:36.241Z</time></trkpt><trkpt lat="44.2418206" lon="9.9594602"><ele>91.0</ele><time>2026-05-03T08:53:37.241Z</time></trkpt><trkpt lat="44.2419943" lon="9.9594848"><ele>91.0</ele><time>2026-05-03T08:53:38.258Z</time></trkpt><trkpt lat="44.2421865" lon="9.9594725"><ele>91.0</ele><time>2026-05-03T08:53:39.244Z</time></trkpt><trkpt lat="44.2423676" lon="9.9594294"><ele>92.66666666666666</ele><time>2026-05-03T08:53:40.243Z</time></trkpt><trkpt lat="44.2425709" lon="9.9593967"><ele>94.33333333333333</ele><time>2026-05-03T08:53:41.247Z</time></trkpt><trkpt lat="44.2427565" lon="9.9593124"><ele>96.0</ele><time>2026-05-03T08:53:42.246Z</time></trkpt><trkpt lat="44.242938" lon="9.9592615"><ele>96.0</ele><time>2026-05-03T08:53:43.234Z</time></trkpt><trkpt lat="44.2430616" lon="9.959218"><ele>96.0</ele><time>2026-05-03T08:53:44.228Z</time></trkpt><trkpt lat="44.2431481" lon="9.9591992"><ele>96.0</ele><time>2026-05-03T08:53:45.245Z</time></trkpt><trkpt lat="44.2432394" lon="9.9591765"><ele>96.0</ele><time>2026-05-03T08:53:46.241Z</time></trkpt><trkpt lat="44.2433839" lon="9.9591865"><ele>96.33333333333334</ele><time>2026-05-03T08:53:47.247Z</time></trkpt><trkpt lat="44.2435129" lon="9.959215"><ele>96.66666666666667</ele><time>2026-05-03T08:53:48.26Z</time></trkpt><trkpt lat="44.2436735" lon="9.9593145"><ele>97.0</ele><time>2026-05-03T08:53:49.242Z</time></trkpt><trkpt lat="44.2438471" lon="9.9594653"><ele>97.5</ele><time>2026-05-03T08:53:50.229Z</time></trkpt><trkpt lat="44.2439999" lon="9.9596188"><ele>98.0</ele><time>2026-05-03T08:53:51.222Z</time></trkpt><trkpt lat="44.2442194" lon="9.9601196"><ele>98.0</ele><time>2026-05-03T08:53:53.234Z</time></trkpt><trkpt lat="44.244345" lon="9.9604518"><ele>98.0</ele><time>2026-05-03T08:53:54.22Z</time></trkpt><trkpt lat="44.2445031" lon="9.9606118"><ele>98.0</ele><time>2026-05-03T08:53:55.217Z</time></trkpt><trkpt lat="44.2446465" lon="9.9607665"><ele>98.0</ele><time>2026-05-03T08:53:56.217Z</time></trkpt><trkpt lat="44.244806" lon="9.9609285"><ele>98.0</ele><time>2026-05-03T08:53:57.216Z</time></trkpt><trkpt lat="44.2449747" lon="9.9610874"><ele>99.0</ele><time>2026-05-03T08:53:58.22Z</time></trkpt><trkpt lat="44.2451326" lon="9.961263"><ele>100.0</ele><time>2026-05-03T08:53:59.244Z</time></trkpt><trkpt lat="44.2452268" lon="9.9612687"><ele>101.0</ele><time>2026-05-03T08:54:00.244Z</time></trkpt><trkpt lat="44.2454045" lon="9.9610259"><ele>101.0</ele><time>2026-05-03T08:54:01.242Z</time></trkpt><trkpt lat="44.2455485" lon="9.9609219"><ele>101.0</ele><time>2026-05-03T08:54:02.228Z</time></trkpt><trkpt lat="44.245753" lon="9.9608568"><ele>101.0</ele><time>2026-05-03T08:54:03.238Z</time></trkpt><trkpt lat="44.2459247" lon="9.9607969"><ele>97.33333333333333</ele><time>2026-05-03T08:54:04.257Z</time></trkpt><trkpt lat="44.2460676" lon="9.96064"><ele>93.66666666666666</ele><time>2026-05-03T08:54:05.238Z</time></trkpt><trkpt lat="44.2461898" lon="9.9604645"><ele>90.0</ele><time>2026-05-03T08:54:06.242Z</time></trkpt><trkpt lat="44.2462487" lon="9.9602663"><ele>90.0</ele><time>2026-05-03T08:54:07.242Z</time></trkpt><trkpt lat="44.2463367" lon="9.9600719"><ele>90.0</ele><time>2026-05-03T08:54:08.238Z</time></trkpt><trkpt lat="44.2464214" lon="9.9598762"><ele>90.0</ele><time>2026-05-03T08:54:09.25Z</time></trkpt><trkpt lat="44.2465617" lon="9.9596166"><ele>90.0</ele><time>2026-05-03T08:54:10.243Z</time></trkpt><trkpt lat="44.2466394" lon="9.9593089"><ele>90.0</ele><time>2026-05-03T08:54:11.243Z</time></trkpt><trkpt lat="44.2466969" lon="9.959022"><ele>90.0</ele><time>2026-05-03T08:54:12.245Z</time></trkpt><trkpt lat="44.2467746" lon="9.9587652"><ele>89.0</ele><time>2026-05-03T08:54:13.246Z</time></trkpt><trkpt lat="44.2468787" lon="9.9585172"><ele>88.0</ele><time>2026-05-03T08:54:14.254Z</time></trkpt><trkpt lat="44.247093" lon="9.9583426"><ele>94.0</ele><time>2026-05-03T08:54:15.245Z</time></trkpt><trkpt lat="44.2473045" lon="9.9581454"><ele>100.0</ele><time>2026-05-03T08:54:16.235Z</time></trkpt><trkpt lat="44.2475221" lon="9.9579405"><ele>100.0</ele><time>2026-05-03T08:54:17.238Z</time></trkpt><trkpt lat="44.2477091" lon="9.9577225"><ele>100.0</ele><time>2026-05-03T08:54:18.232Z</time></trkpt><trkpt lat="44.2478957" lon="9.9575308"><ele>100.0</ele><time>2026-05-03T08:54:19.223Z</time></trkpt><trkpt lat="44.2480867" lon="9.9573359"><ele>100.0</ele><time>2026-05-03T08:54:20.217Z</time></trkpt><trkpt lat="44.2482755" lon="9.9571386"><ele>100.0</ele><time>2026-05-03T08:54:21.217Z</time></trkpt><trkpt lat="44.2484655" lon="9.9569475"><ele>100.0</ele><time>2026-05-03T08:54:22.223Z</time></trkpt><trkpt lat="44.2486527" lon="9.9567671"><ele>104.0</ele><time>2026-05-03T08:54:23.22Z</time></trkpt><trkpt lat="44.2488394" lon="9.9565895"><ele>108.0</ele><time>2026-05-03T08:54:24.229Z</time></trkpt><trkpt lat="44.2490257" lon="9.9564105"><ele>108.0</ele><time>2026-05-03T08:54:25.216Z</time></trkpt><trkpt lat="44.2492131" lon="9.9562329"><ele>108.0</ele><time>2026-05-03T08:54:26.22Z</time></trkpt><trkpt lat="44.2496196" lon="9.9559125"><ele>108.5</ele><time>2026-05-03T08:54:28.219Z</time></trkpt><trkpt lat="44.2498164" lon="9.9558289"><ele>109.0</ele><time>2026-05-03T08:54:29.225Z</time></trkpt><trkpt lat="44.2500352" lon="9.9556731"><ele>109.0</ele><time>2026-05-03T08:54:30.219Z</time></trkpt><trkpt lat="44.250252" lon="9.9554992"><ele>109.0</ele><time>2026-05-03T08:54:31.214Z</time></trkpt><trkpt lat="44.2504671" lon="9.9553242"><ele>113.0</ele><time>2026-05-03T08:54:32.215Z</time></trkpt><trkpt lat="44.2506788" lon="9.9551382"><ele>117.0</ele><time>2026-05-03T08:54:33.216Z</time></trkpt><trkpt lat="44.2508817" lon="9.9549521"><ele>117.0</ele><time>2026-05-03T08:54:34.219Z</time></trkpt><trkpt lat="44.2510864" lon="9.9547663"><ele>117.0</ele><time>2026-05-03T08:54:35.233Z</time></trkpt><trkpt lat="44.2512886" lon="9.954583"><ele>124.0</ele><time>2026-05-03T08:54:36.22Z</time></trkpt><trkpt lat="44.2514824" lon="9.9544023"><ele>131.0</ele><time>2026-05-03T08:54:37.215Z</time></trkpt><trkpt lat="44.25168" lon="9.9542262"><ele>127.33333333333333</ele><time>2026-05-03T08:54:38.237Z</time></trkpt><trkpt lat="44.2518227" lon="9.9540462"><ele>123.66666666666666</ele><time>2026-05-03T08:54:39.243Z</time></trkpt><trkpt lat="44.2519162" lon="9.9538874"><ele>120.0</ele><time>2026-05-03T08:54:40.25Z</time></trkpt><trkpt lat="44.2520291" lon="9.953737"><ele>120.0</ele><time>2026-05-03T08:54:41.239Z</time></trkpt><trkpt lat="44.2521363" lon="9.9536244"><ele>120.0</ele><time>2026-05-03T08:54:42.242Z</time></trkpt><trkpt lat="44.2522308" lon="9.9535929"><ele>120.0</ele><time>2026-05-03T08:54:43.243Z</time></trkpt><trkpt lat="44.2523382" lon="9.953624"><ele>120.0</ele><time>2026-05-03T08:54:44.237Z</time></trkpt><trkpt lat="44.2524304" lon="9.9536529"><ele>120.0</ele><time>2026-05-03T08:54:45.234Z</time></trkpt><trkpt lat="44.2525363" lon="9.9536998"><ele>117.33333333333334</ele><time>2026-05-03T08:54:46.211Z</time></trkpt><trkpt lat="44.2526476" lon="9.9537532"><ele>114.66666666666667</ele><time>2026-05-03T08:54:47.214Z</time></trkpt><trkpt lat="44.2527558" lon="9.9538135"><ele>112.0</ele><time>2026-05-03T08:54:48.208Z</time></trkpt><trkpt lat="44.2569144" lon="9.9561827"><ele>130.0</ele><time>2026-05-03T08:55:20.699Z</time></trkpt><trkpt lat="44.2848929" lon="9.9490901"><ele>134.0</ele><time>2026-05-03T08:57:59.312Z</time></trkpt><trkpt lat="44.2897444" lon="9.9490263"><ele>136.0</ele><time>2026-05-03T08:58:36.327Z</time></trkpt><trkpt lat="44.2901551" lon="9.9502958"><ele>136.0</ele><time>2026-05-03T08:58:43.345Z</time></trkpt><trkpt lat="44.2904618" lon="9.950831"><ele>128.0</ele><time>2026-05-03T08:58:50.616Z</time></trkpt><trkpt lat="44.2928489" lon="9.9516567"><ele>128.0</ele><time>2026-05-03T08:59:11.248Z</time></trkpt><trkpt lat="44.292983" lon="9.9515852"><ele>128.0</ele><time>2026-05-03T08:59:12.247Z</time></trkpt><trkpt lat="44.2931153" lon="9.9515268"><ele>128.0</ele><time>2026-05-03T08:59:13.246Z</time></trkpt><trkpt lat="44.2932425" lon="9.9514676"><ele>128.0</ele><time>2026-05-03T08:59:14.253Z</time></trkpt><trkpt lat="44.2933518" lon="9.9513961"><ele>128.25</ele><time>2026-05-03T08:59:15.25Z</time></trkpt><trkpt lat="44.2934638" lon="9.9513548"><ele>128.5</ele><time>2026-05-03T08:59:16.245Z</time></trkpt><trkpt lat="44.2935793" lon="9.951295"><ele>128.75</ele><time>2026-05-03T08:59:17.249Z</time></trkpt><trkpt lat="44.2937239" lon="9.9512458"><ele>129.0</ele><time>2026-05-03T08:59:18.229Z</time></trkpt><trkpt lat="44.2938781" lon="9.9511711"><ele>129.8</ele><time>2026-05-03T08:59:19.234Z</time></trkpt><trkpt lat="44.2940088" lon="9.9511146"><ele>130.60000000000002</ele><time>2026-05-03T08:59:20.234Z</time></trkpt><trkpt lat="44.2941248" lon="9.9510492"><ele>131.4</ele><time>2026-05-03T08:59:21.244Z</time></trkpt><trkpt lat="44.2942155" lon="9.9510045"><ele>132.20000000000002</ele><time>2026-05-03T08:59:22.25Z</time></trkpt><trkpt lat="44.2943017" lon="9.9509954"><ele>133.0</ele><time>2026-05-03T08:59:23.245Z</time></trkpt><trkpt lat="44.2943697" lon="9.9509776"><ele>133.0</ele><time>2026-05-03T08:59:24.245Z</time></trkpt><trkpt lat="44.2944608" lon="9.9509319"><ele>133.0</ele><time>2026-05-03T08:59:25.246Z</time></trkpt><trkpt lat="44.2945701" lon="9.9509139"><ele>133.0</ele><time>2026-05-03T08:59:26.251Z</time></trkpt><trkpt lat="44.2946771" lon="9.9508446"><ele>133.0</ele><time>2026-05-03T08:59:28.249Z</time></trkpt><trkpt lat="44.294781" lon="9.9508136"><ele>133.0</ele><time>2026-05-03T08:59:30.237Z</time></trkpt><trkpt lat="44.2948785" lon="9.9508123"><ele>133.5</ele><time>2026-05-03T08:59:32.239Z</time></trkpt><trkpt lat="44.2949461" lon="9.9507992"><ele>134.0</ele><time>2026-05-03T08:59:34.221Z</time></trkpt><trkpt lat="44.2950208" lon="9.9507958"><ele>134.5</ele><time>2026-05-03T08:59:37.228Z</time></trkpt><trkpt lat="44.2950777" lon="9.9508358"><ele>135.0</ele><time>2026-05-03T09:00:03.229Z</time></trkpt><trkpt lat="44.2950663" lon="9.9507234"><ele>135.5</ele><time>2026-05-03T09:00:06.213Z</time></trkpt><trkpt lat="44.2951094" lon="9.9506546"><ele>136.0</ele><time>2026-05-03T09:00:09.22Z</time></trkpt><trkpt lat="44.2951305" lon="9.9504565"><ele>136.0</ele><time>2026-05-03T09:00:11.236Z</time></trkpt><trkpt lat="44.2950995" lon="9.9503124"><ele>136.0</ele><time>2026-05-03T09:00:12.248Z</time></trkpt><trkpt lat="44.2950495" lon="9.95022"><ele>136.0</ele><time>2026-05-03T09:00:13.231Z</time></trkpt><trkpt lat="44.2950053" lon="9.9501233"><ele>136.0</ele><time>2026-05-03T09:00:14.218Z</time></trkpt><trkpt lat="44.2949588" lon="9.9499656"><ele>136.0</ele><time>2026-05-03T09:00:15.238Z</time></trkpt><trkpt lat="44.294905" lon="9.9498358"><ele>135.8</ele><time>2026-05-03T09:00:16.249Z</time></trkpt><trkpt lat="44.294864" lon="9.9497647"><ele>135.6</ele><time>2026-05-03T09:00:17.229Z</time></trkpt><trkpt lat="44.2948075" lon="9.9496322"><ele>135.4</ele><time>2026-05-03T09:00:19.229Z</time></trkpt><trkpt lat="44.2947553" lon="9.9495326"><ele>135.2</ele><time>2026-05-03T09:00:20.236Z</time></trkpt><trkpt lat="44.2946927" lon="9.9493874"><ele>135.0</ele><time>2026-05-03T09:00:21.249Z</time></trkpt><trkpt lat="44.2946217" lon="9.9492445"><ele>134.4</ele><time>2026-05-03T09:00:22.244Z</time></trkpt><trkpt lat="44.2945682" lon="9.9490873"><ele>133.8</ele><time>2026-05-03T09:00:23.246Z</time></trkpt><trkpt lat="44.2945508" lon="9.9489398"><ele>133.2</ele><time>2026-05-03T09:00:24.231Z</time></trkpt><trkpt lat="44.2945365" lon="9.9488046"><ele>132.6</ele><time>2026-05-03T09:00:25.222Z</time></trkpt><trkpt lat="44.2945275" lon="9.9486617"><ele>132.0</ele><time>2026-05-03T09:00:26.232Z</time></trkpt><trkpt lat="44.2945227" lon="9.9485399"><ele>132.0</ele><time>2026-05-03T09:00:27.231Z</time></trkpt><trkpt lat="44.2944915" lon="9.9484545"><ele>132.0</ele><time>2026-05-03T09:00:28.215Z</time></trkpt><trkpt lat="44.294461" lon="9.9483692"><ele>132.0</ele><time>2026-05-03T09:00:29.219Z</time></trkpt><trkpt lat="44.2943931" lon="9.9482334"><ele>132.0</ele><time>2026-05-03T09:00:31.218Z</time></trkpt><trkpt lat="44.2942839" lon="9.9481831"><ele>132.0</ele><time>2026-05-03T09:00:33.218Z</time></trkpt><trkpt lat="44.2942089" lon="9.9482058"><ele>132.0</ele><time>2026-05-03T09:00:34.219Z</time></trkpt><trkpt lat="44.2940535" lon="9.9482955"><ele>131.5</ele><time>2026-05-03T09:00:35.236Z</time></trkpt><trkpt lat="44.2939315" lon="9.9483741"><ele>131.0</ele><time>2026-05-03T09:00:36.238Z</time></trkpt><trkpt lat="44.2937689" lon="9.9484397"><ele>130.5</ele><time>2026-05-03T09:00:37.239Z</time></trkpt><trkpt lat="44.293665" lon="9.9484604"><ele>130.0</ele><time>2026-05-03T09:00:38.224Z</time></trkpt><trkpt lat="44.2935861" lon="9.948492"><ele>130.0</ele><time>2026-05-03T09:00:39.238Z</time></trkpt><trkpt lat="44.2934994" lon="9.9484934"><ele>130.0</ele><time>2026-05-03T09:00:40.223Z</time></trkpt><trkpt lat="44.2934087" lon="9.9484834"><ele>130.0</ele><time>2026-05-03T09:00:41.214Z</time></trkpt><trkpt lat="44.2943867" lon="9.947959"><ele>124.0</ele><time>2026-05-03T09:00:52.258Z</time></trkpt><trkpt lat="44.2941579" lon="9.9457426"><ele>124.0</ele><time>2026-05-03T09:01:00.266Z</time></trkpt><trkpt lat="44.2941139" lon="9.9448576"><ele>116.0</ele><time>2026-05-03T09:01:06.897Z</time></trkpt><trkpt lat="44.2935792" lon="9.9428077"><ele>116.0</ele><time>2026-05-03T09:01:18.243Z</time></trkpt><trkpt lat="44.2934788" lon="9.9425968"><ele>116.0</ele><time>2026-05-03T09:01:19.245Z</time></trkpt><trkpt lat="44.2933445" lon="9.94238"><ele>116.0</ele><time>2026-05-03T09:01:20.247Z</time></trkpt><trkpt lat="44.293231" lon="9.9421966"><ele>116.0</ele><time>2026-05-03T09:01:21.229Z</time></trkpt><trkpt lat="44.2931432" lon="9.9420311"><ele>116.0</ele><time>2026-05-03T09:01:22.241Z</time></trkpt><trkpt lat="44.2930673" lon="9.9418598"><ele>116.0</ele><time>2026-05-03T09:01:23.248Z</time></trkpt><trkpt lat="44.293" lon="9.9417186"><ele>116.0</ele><time>2026-05-03T09:01:24.248Z</time></trkpt><trkpt lat="44.2929689" lon="9.9415686"><ele>117.5</ele><time>2026-05-03T09:01:25.249Z</time></trkpt><trkpt lat="44.292955" lon="9.9414151"><ele>119.0</ele><time>2026-05-03T09:01:26.246Z</time></trkpt><trkpt lat="44.2929464" lon="9.9412246"><ele>120.5</ele><time>2026-05-03T09:01:27.248Z</time></trkpt><trkpt lat="44.2930096" lon="9.9410056"><ele>122.0</ele><time>2026-05-03T09:01:28.249Z</time></trkpt><trkpt lat="44.293101" lon="9.9407822"><ele>122.0</ele><time>2026-05-03T09:01:29.25Z</time></trkpt><trkpt lat="44.2931944" lon="9.9405333"><ele>122.0</ele><time>2026-05-03T09:01:30.23Z</time></trkpt><trkpt lat="44.2932912" lon="9.9402722"><ele>122.0</ele><time>2026-05-03T09:01:31.217Z</time></trkpt><trkpt lat="44.2933815" lon="9.940003"><ele>124.33333333333333</ele><time>2026-05-03T09:01:32.242Z</time></trkpt><trkpt lat="44.2934938" lon="9.9397341"><ele>126.66666666666666</ele><time>2026-05-03T09:01:33.248Z</time></trkpt><trkpt lat="44.2935696" lon="9.9395057"><ele>129.0</ele><time>2026-05-03T09:01:34.233Z</time></trkpt><trkpt lat="44.293698" lon="9.9392675"><ele>129.33333333333334</ele><time>2026-05-03T09:01:35.22Z</time></trkpt><trkpt lat="44.293846" lon="9.9390466"><ele>129.66666666666669</ele><time>2026-05-03T09:01:36.22Z</time></trkpt><trkpt lat="44.2939918" lon="9.9388212"><ele>130.0</ele><time>2026-05-03T09:01:37.216Z</time></trkpt><trkpt lat="44.294134" lon="9.9385947"><ele>134.5</ele><time>2026-05-03T09:01:38.216Z</time></trkpt><trkpt lat="44.2942762" lon="9.9383687"><ele>139.0</ele><time>2026-05-03T09:01:39.211Z</time></trkpt><trkpt lat="44.2949032" lon="9.9372927"><ele>139.0</ele><time>2026-05-03T09:01:45.243Z</time></trkpt><trkpt lat="44.2950106" lon="9.9370527"><ele>139.0</ele><time>2026-05-03T09:01:46.229Z</time></trkpt><trkpt lat="44.2950275" lon="9.9367411"><ele>139.0</ele><time>2026-05-03T09:01:47.236Z</time></trkpt><trkpt lat="44.295161" lon="9.9365186"><ele>143.5</ele><time>2026-05-03T09:01:48.252Z</time></trkpt><trkpt lat="44.295331" lon="9.9363288"><ele>148.0</ele><time>2026-05-03T09:01:49.248Z</time></trkpt><trkpt lat="44.2955553" lon="9.9361642"><ele>149.0</ele><time>2026-05-03T09:01:50.245Z</time></trkpt><trkpt lat="44.2957284" lon="9.9360006"><ele>150.0</ele><time>2026-05-03T09:01:51.226Z</time></trkpt><trkpt lat="44.2959231" lon="9.9358238"><ele>151.0</ele><time>2026-05-03T09:01:52.225Z</time></trkpt><trkpt lat="44.296083" lon="9.9356246"><ele>151.0</ele><time>2026-05-03T09:01:53.237Z</time></trkpt><trkpt lat="44.2962603" lon="9.9355179"><ele>151.0</ele><time>2026-05-03T09:01:54.243Z</time></trkpt><trkpt lat="44.2964361" lon="9.9353467"><ele>151.0</ele><time>2026-05-03T09:01:55.251Z</time></trkpt><trkpt lat="44.2966095" lon="9.9351958"><ele>151.25</ele><time>2026-05-03T09:01:56.229Z</time></trkpt><trkpt lat="44.2967482" lon="9.9350812"><ele>151.5</ele><time>2026-05-03T09:01:57.222Z</time></trkpt><trkpt lat="44.2968519" lon="9.9349678"><ele>151.75</ele><time>2026-05-03T09:01:58.218Z</time></trkpt><trkpt lat="44.2969763" lon="9.934837"><ele>152.0</ele><time>2026-05-03T09:01:59.211Z</time></trkpt><trkpt lat="44.2970958" lon="9.9347073"><ele>152.0</ele><time>2026-05-03T09:02:00.213Z</time></trkpt><trkpt lat="44.2970666" lon="9.9344704"><ele>152.0</ele><time>2026-05-03T09:02:01.222Z</time></trkpt><trkpt lat="44.2969947" lon="9.9341763"><ele>152.0</ele><time>2026-05-03T09:02:02.22Z</time></trkpt><trkpt lat="44.2970049" lon="9.9339297"><ele>151.5</ele><time>2026-05-03T09:02:03.212Z</time></trkpt><trkpt lat="44.2969476" lon="9.9336841"><ele>151.0</ele><time>2026-05-03T09:02:04.216Z</time></trkpt><trkpt lat="44.2968885" lon="9.9334898"><ele>150.5</ele><time>2026-05-03T09:02:05.215Z</time></trkpt><trkpt lat="44.2969657" lon="9.9334165"><ele>150.0</ele><time>2026-05-03T09:02:06.237Z</time></trkpt><trkpt lat="44.2970568" lon="9.9333124"><ele>150.0</ele><time>2026-05-03T09:02:07.246Z</time></trkpt><trkpt lat="44.2971996" lon="9.9332169"><ele>150.0</ele><time>2026-05-03T09:02:08.232Z</time></trkpt><trkpt lat="44.2973473" lon="9.9331132"><ele>150.0</ele><time>2026-05-03T09:02:09.237Z</time></trkpt><trkpt lat="44.2974806" lon="9.9330024"><ele>149.0</ele><time>2026-05-03T09:02:10.242Z</time></trkpt><trkpt lat="44.2975797" lon="9.9328877"><ele>148.0</ele><time>2026-05-03T09:02:11.243Z</time></trkpt><trkpt lat="44.2976471" lon="9.9326932"><ele>147.0</ele><time>2026-05-03T09:02:12.244Z</time></trkpt><trkpt lat="44.2976637" lon="9.9324274"><ele>150.33333333333334</ele><time>2026-05-03T09:02:13.225Z</time></trkpt><trkpt lat="44.297714" lon="9.9321739"><ele>153.66666666666669</ele><time>2026-05-03T09:02:14.212Z</time></trkpt><trkpt lat="44.2977543" lon="9.9318961"><ele>157.0</ele><time>2026-05-03T09:02:15.225Z</time></trkpt><trkpt lat="44.2977913" lon="9.9315879"><ele>158.33333333333334</ele><time>2026-05-03T09:02:16.216Z</time></trkpt><trkpt lat="44.2978371" lon="9.931322"><ele>159.66666666666666</ele><time>2026-05-03T09:02:17.214Z</time></trkpt><trkpt lat="44.2978395" lon="9.9310868"><ele>161.0</ele><time>2026-05-03T09:02:18.239Z</time></trkpt><trkpt lat="44.2978464" lon="9.9308829"><ele>163.25</ele><time>2026-05-03T09:02:19.242Z</time></trkpt><trkpt lat="44.2978876" lon="9.9307238"><ele>165.5</ele><time>2026-05-03T09:02:20.222Z</time></trkpt><trkpt lat="44.2979126" lon="9.9305379"><ele>167.75</ele><time>2026-05-03T09:02:21.21Z</time></trkpt><trkpt lat="44.2979394" lon="9.9303535"><ele>170.0</ele><time>2026-05-03T09:02:22.209Z</time></trkpt><trkpt lat="44.2986222" lon="9.9298702"><ele>167.0</ele><time>2026-05-03T09:02:25.225Z</time></trkpt><trkpt lat="44.2989744" lon="9.9298089"><ele>164.0</ele><time>2026-05-03T09:02:26.213Z</time></trkpt><trkpt lat="44.2991334" lon="9.9296642"><ele>164.0</ele><time>2026-05-03T09:02:27.218Z</time></trkpt><trkpt lat="44.299289" lon="9.9295221"><ele>164.0</ele><time>2026-05-03T09:02:28.215Z</time></trkpt><trkpt lat="44.2994494" lon="9.9293698"><ele>164.0</ele><time>2026-05-03T09:02:29.217Z</time></trkpt><trkpt lat="44.2996002" lon="9.9292132"><ele>162.66666666666666</ele><time>2026-05-03T09:02:30.214Z</time></trkpt><trkpt lat="44.2997345" lon="9.929037"><ele>161.33333333333334</ele><time>2026-05-03T09:02:31.213Z</time></trkpt><trkpt lat="44.299884" lon="9.9288703"><ele>160.0</ele><time>2026-05-03T09:02:32.209Z</time></trkpt><trkpt lat="44.3000367" lon="9.9287113"><ele>160.0</ele><time>2026-05-03T09:02:33.216Z</time></trkpt><trkpt lat="44.3001827" lon="9.9285653"><ele>160.0</ele><time>2026-05-03T09:02:34.21Z</time></trkpt><trkpt lat="44.3003296" lon="9.9284048"><ele>160.0</ele><time>2026-05-03T09:02:35.217Z</time></trkpt><trkpt lat="44.3004784" lon="9.9282456"><ele>159.33333333333334</ele><time>2026-05-03T09:02:36.215Z</time></trkpt><trkpt lat="44.3006301" lon="9.9280908"><ele>158.66666666666666</ele><time>2026-05-03T09:02:37.226Z</time></trkpt><trkpt lat="44.3007866" lon="9.9280444"><ele>158.0</ele><time>2026-05-03T09:02:38.244Z</time></trkpt><trkpt lat="44.3009446" lon="9.9282026"><ele>157.0</ele><time>2026-05-03T09:02:39.242Z</time></trkpt><trkpt lat="44.3011338" lon="9.9283969"><ele>156.0</ele><time>2026-05-03T09:02:40.236Z</time></trkpt><trkpt lat="44.3013201" lon="9.9285448"><ele>155.0</ele><time>2026-05-03T09:02:41.242Z</time></trkpt><trkpt lat="44.3013927" lon="9.9286642"><ele>155.25</ele><time>2026-05-03T09:02:42.245Z</time></trkpt><trkpt lat="44.3015317" lon="9.9286608"><ele>155.5</ele><time>2026-05-03T09:02:43.243Z</time></trkpt><trkpt lat="44.3016662" lon="9.9286711"><ele>155.75</ele><time>2026-05-03T09:02:44.244Z</time></trkpt><trkpt lat="44.3018115" lon="9.9286332"><ele>156.0</ele><time>2026-05-03T09:02:45.232Z</time></trkpt><trkpt lat="44.3019296" lon="9.9286024"><ele>156.0</ele><time>2026-05-03T09:02:46.233Z</time></trkpt><trkpt lat="44.302063" lon="9.9285941"><ele>156.0</ele><time>2026-05-03T09:02:47.246Z</time></trkpt><trkpt lat="44.3021855" lon="9.9286177"><ele>156.0</ele><time>2026-05-03T09:02:48.246Z</time></trkpt><trkpt lat="44.3023166" lon="9.9285874"><ele>156.0</ele><time>2026-05-03T09:02:49.233Z</time></trkpt><trkpt lat="44.3024535" lon="9.9285932"><ele>156.5</ele><time>2026-05-03T09:02:50.235Z</time></trkpt><trkpt lat="44.3025641" lon="9.9286174"><ele>157.0</ele><time>2026-05-03T09:02:51.241Z</time></trkpt><trkpt lat="44.3026888" lon="9.9286125"><ele>157.5</ele><time>2026-05-03T09:02:52.229Z</time></trkpt><trkpt lat="44.3028153" lon="9.9285904"><ele>158.0</ele><time>2026-05-03T09:02:53.223Z</time></trkpt><trkpt lat="44.3029427" lon="9.9285545"><ele>158.0</ele><time>2026-05-03T09:02:54.208Z</time></trkpt><trkpt lat="44.3030583" lon="9.9284961"><ele>158.0</ele><time>2026-05-03T09:02:55.223Z</time></trkpt><trkpt lat="44.3031811" lon="9.9284357"><ele>158.0</ele><time>2026-05-03T09:02:56.222Z</time></trkpt><trkpt lat="44.3033163" lon="9.9283742"><ele>158.0</ele><time>2026-05-03T09:02:57.223Z</time></trkpt><trkpt lat="44.3034529" lon="9.9282929"><ele>157.66666666666666</ele><time>2026-05-03T09:02:58.241Z</time></trkpt><trkpt lat="44.3035876" lon="9.9282377"><ele>157.33333333333334</ele><time>2026-05-03T09:02:59.229Z</time></trkpt><trkpt lat="44.3037155" lon="9.9281955"><ele>157.0</ele><time>2026-05-03T09:03:00.228Z</time></trkpt><trkpt lat="44.3038853" lon="9.9281148"><ele>155.66666666666669</ele><time>2026-05-03T09:03:01.234Z</time></trkpt><trkpt lat="44.304045" lon="9.9280828"><ele>154.33333333333334</ele><time>2026-05-03T09:03:02.232Z</time></trkpt><trkpt lat="44.3042262" lon="9.9280409"><ele>153.0</ele><time>2026-05-03T09:03:03.235Z</time></trkpt><trkpt lat="44.3044" lon="9.9280099"><ele>153.0</ele><time>2026-05-03T09:03:04.246Z</time></trkpt><trkpt lat="44.3045058" lon="9.9279583"><ele>153.0</ele><time>2026-05-03T09:03:05.228Z</time></trkpt><trkpt lat="44.304651" lon="9.9278907"><ele>153.0</ele><time>2026-05-03T09:03:06.235Z</time></trkpt><trkpt lat="44.3047666" lon="9.9278528"><ele>153.0</ele><time>2026-05-03T09:03:07.246Z</time></trkpt><trkpt lat="44.3048264" lon="9.9277385"><ele>151.66666666666666</ele><time>2026-05-03T09:03:08.246Z</time></trkpt><trkpt lat="44.3048546" lon="9.9275351"><ele>150.33333333333331</ele><time>2026-05-03T09:03:09.247Z</time></trkpt><trkpt lat="44.3049382" lon="9.9273507"><ele>149.0</ele><time>2026-05-03T09:03:10.243Z</time></trkpt><trkpt lat="44.3050895" lon="9.9272057"><ele>149.0</ele><time>2026-05-03T09:03:11.243Z</time></trkpt><trkpt lat="44.3052426" lon="9.927107"><ele>149.0</ele><time>2026-05-03T09:03:12.25Z</time></trkpt><trkpt lat="44.3053281" lon="9.9269623"><ele>149.0</ele><time>2026-05-03T09:03:13.251Z</time></trkpt><trkpt lat="44.3054218" lon="9.9268302"><ele>149.0</ele><time>2026-05-03T09:03:14.251Z</time></trkpt><trkpt lat="44.3054761" lon="9.9266733"><ele>149.25</ele><time>2026-05-03T09:03:15.252Z</time></trkpt><trkpt lat="44.3055343" lon="9.9265001"><ele>149.5</ele><time>2026-05-03T09:03:16.248Z</time></trkpt><trkpt lat="44.3055861" lon="9.926332"><ele>149.75</ele><time>2026-05-03T09:03:17.25Z</time></trkpt><trkpt lat="44.3056494" lon="9.9261696"><ele>150.0</ele><time>2026-05-03T09:03:18.254Z</time></trkpt><trkpt lat="44.305687" lon="9.9260067"><ele>150.0</ele><time>2026-05-03T09:03:19.251Z</time></trkpt><trkpt lat="44.3057588" lon="9.9258456"><ele>150.0</ele><time>2026-05-03T09:03:20.247Z</time></trkpt><trkpt lat="44.3058596" lon="9.9256962"><ele>150.0</ele><time>2026-05-03T09:03:21.244Z</time></trkpt><trkpt lat="44.3060773" lon="9.9255701"><ele>150.0</ele><time>2026-05-03T09:03:23.248Z</time></trkpt><trkpt lat="44.3062036" lon="9.9255244"><ele>150.0</ele><time>2026-05-03T09:03:24.232Z</time></trkpt><trkpt lat="44.3063471" lon="9.9254848"><ele>150.0</ele><time>2026-05-03T09:03:25.226Z</time></trkpt><trkpt lat="44.3065093" lon="9.925447"><ele>150.0</ele><time>2026-05-03T09:03:26.218Z</time></trkpt><trkpt lat="44.3066628" lon="9.9253687"><ele>151.0</ele><time>2026-05-03T09:03:27.218Z</time></trkpt><trkpt lat="44.3068268" lon="9.9253165"><ele>152.0</ele><time>2026-05-03T09:03:28.222Z</time></trkpt><trkpt lat="44.3069662" lon="9.9252292"><ele>153.0</ele><time>2026-05-03T09:03:29.211Z</time></trkpt><trkpt lat="44.3071038" lon="9.9251421"><ele>154.33333333333334</ele><time>2026-05-03T09:03:30.217Z</time></trkpt><trkpt lat="44.3072401" lon="9.9250523"><ele>155.66666666666669</ele><time>2026-05-03T09:03:31.212Z</time></trkpt><trkpt lat="44.307366" lon="9.9249503"><ele>157.0</ele><time>2026-05-03T09:03:32.214Z</time></trkpt><trkpt lat="44.3077184" lon="9.9246284"><ele>157.0</ele><time>2026-05-03T09:03:34.222Z</time></trkpt><trkpt lat="44.3077986" lon="9.9243356"><ele>157.0</ele><time>2026-05-03T09:03:35.221Z</time></trkpt><trkpt lat="44.3079213" lon="9.9241075"><ele>157.0</ele><time>2026-05-03T09:03:36.226Z</time></trkpt><trkpt lat="44.308032" lon="9.9239621"><ele>156.0</ele><time>2026-05-03T09:03:37.223Z</time></trkpt><trkpt lat="44.3081226" lon="9.9237984"><ele>155.0</ele><time>2026-05-03T09:03:38.224Z</time></trkpt><trkpt lat="44.3082916" lon="9.9236503"><ele>154.0</ele><time>2026-05-03T09:03:39.226Z</time></trkpt><trkpt lat="44.3084542" lon="9.9234778"><ele>157.33333333333334</ele><time>2026-05-03T09:03:40.224Z</time></trkpt><trkpt lat="44.3085966" lon="9.9233402"><ele>160.66666666666666</ele><time>2026-05-03T09:03:41.223Z</time></trkpt><trkpt lat="44.3087237" lon="9.9231776"><ele>164.0</ele><time>2026-05-03T09:03:42.221Z</time></trkpt><trkpt lat="44.3088358" lon="9.9230003"><ele>164.66666666666666</ele><time>2026-05-03T09:03:43.22Z</time></trkpt><trkpt lat="44.3089501" lon="9.9228133"><ele>165.33333333333334</ele><time>2026-05-03T09:03:44.22Z</time></trkpt><trkpt lat="44.3090811" lon="9.9226213"><ele>166.0</ele><time>2026-05-03T09:03:45.222Z</time></trkpt><trkpt lat="44.3092067" lon="9.9224108"><ele>166.0</ele><time>2026-05-03T09:03:46.223Z</time></trkpt><trkpt lat="44.3093411" lon="9.922263"><ele>166.0</ele><time>2026-05-03T09:03:47.217Z</time></trkpt><trkpt lat="44.3095175" lon="9.922159"><ele>166.0</ele><time>2026-05-03T09:03:48.223Z</time></trkpt><trkpt lat="44.3096896" lon="9.9220304"><ele>166.0</ele><time>2026-05-03T09:03:49.221Z</time></trkpt><trkpt lat="44.3098339" lon="9.9218697"><ele>166.0</ele><time>2026-05-03T09:03:50.218Z</time></trkpt><trkpt lat="44.3099621" lon="9.9216711"><ele>166.0</ele><time>2026-05-03T09:03:51.22Z</time></trkpt><trkpt lat="44.3100829" lon="9.9214716"><ele>166.0</ele><time>2026-05-03T09:03:52.217Z</time></trkpt><trkpt lat="44.3102177" lon="9.9212743"><ele>166.0</ele><time>2026-05-03T09:03:53.222Z</time></trkpt><trkpt lat="44.3103392" lon="9.9210811"><ele>166.0</ele><time>2026-05-03T09:03:54.216Z</time></trkpt><trkpt lat="44.3104577" lon="9.9208983"><ele>166.0</ele><time>2026-05-03T09:03:55.218Z</time></trkpt><trkpt lat="44.3106666" lon="9.9207783"><ele>166.0</ele><time>2026-05-03T09:03:56.221Z</time></trkpt><trkpt lat="44.310718" lon="9.9205406"><ele>166.0</ele><time>2026-05-03T09:03:57.225Z</time></trkpt><trkpt lat="44.3108643" lon="9.9204353"><ele>166.0</ele><time>2026-05-03T09:03:58.239Z</time></trkpt><trkpt lat="44.3110162" lon="9.9203141"><ele>166.0</ele><time>2026-05-03T09:03:59.245Z</time></trkpt><trkpt lat="44.3111879" lon="9.9202458"><ele>166.0</ele><time>2026-05-03T09:04:00.249Z</time></trkpt><trkpt lat="44.3113222" lon="9.9201468"><ele>168.25</ele><time>2026-05-03T09:04:01.23Z</time></trkpt><trkpt lat="44.311459" lon="9.9200634"><ele>170.5</ele><time>2026-05-03T09:04:02.22Z</time></trkpt><trkpt lat="44.3115961" lon="9.9199807"><ele>172.75</ele><time>2026-05-03T09:04:03.214Z</time></trkpt><trkpt lat="44.3117323" lon="9.9199049"><ele>175.0</ele><time>2026-05-03T09:04:04.221Z</time></trkpt><trkpt lat="44.3118378" lon="9.9198273"><ele>175.0</ele><time>2026-05-03T09:04:05.221Z</time></trkpt><trkpt lat="44.311918" lon="9.9197698"><ele>175.0</ele><time>2026-05-03T09:04:06.225Z</time></trkpt><trkpt lat="44.3120052" lon="9.9197055"><ele>175.0</ele><time>2026-05-03T09:04:07.222Z</time></trkpt><trkpt lat="44.3120574" lon="9.9196056"><ele>175.0</ele><time>2026-05-03T09:04:08.223Z</time></trkpt><trkpt lat="44.3121454" lon="9.9195588"><ele>175.0</ele><time>2026-05-03T09:04:09.224Z</time></trkpt><trkpt lat="44.3122448" lon="9.9195025"><ele>172.66666666666669</ele><time>2026-05-03T09:04:10.226Z</time></trkpt><trkpt lat="44.3123947" lon="9.9194925"><ele>170.33333333333334</ele><time>2026-05-03T09:04:11.241Z</time></trkpt><trkpt lat="44.3125613" lon="9.9195042"><ele>168.0</ele><time>2026-05-03T09:04:12.233Z</time></trkpt><trkpt lat="44.312845" lon="9.9195939"><ele>168.0</ele><time>2026-05-03T09:04:13.24Z</time></trkpt><trkpt lat="44.3130076" lon="9.9196374"><ele>168.0</ele><time>2026-05-03T09:04:14.23Z</time></trkpt><trkpt lat="44.3131615" lon="9.9196724"><ele>168.0</ele><time>2026-05-03T09:04:15.235Z</time></trkpt><trkpt lat="44.3133352" lon="9.9196694"><ele>168.25</ele><time>2026-05-03T09:04:16.246Z</time></trkpt><trkpt lat="44.3134758" lon="9.9196659"><ele>168.5</ele><time>2026-05-03T09:04:17.243Z</time></trkpt><trkpt lat="44.3136137" lon="9.9196391"><ele>168.75</ele><time>2026-05-03T09:04:18.246Z</time></trkpt><trkpt lat="44.3137044" lon="9.9196102"><ele>169.0</ele><time>2026-05-03T09:04:19.243Z</time></trkpt><trkpt lat="44.3138326" lon="9.9195877"><ele>168.75</ele><time>2026-05-03T09:04:20.248Z</time></trkpt><trkpt lat="44.3139564" lon="9.9195763"><ele>168.5</ele><time>2026-05-03T09:04:21.23Z</time></trkpt><trkpt lat="44.3141063" lon="9.9195487"><ele>168.25</ele><time>2026-05-03T09:04:22.236Z</time></trkpt><trkpt lat="44.3142009" lon="9.9194768"><ele>168.0</ele><time>2026-05-03T09:04:23.245Z</time></trkpt><trkpt lat="44.3143176" lon="9.9194162"><ele>168.0</ele><time>2026-05-03T09:04:24.245Z</time></trkpt><trkpt lat="44.3144248" lon="9.9193539"><ele>168.0</ele><time>2026-05-03T09:04:25.236Z</time></trkpt><trkpt lat="44.3145063" lon="9.9192612"><ele>168.0</ele><time>2026-05-03T09:04:26.238Z</time></trkpt><trkpt lat="44.3145896" lon="9.919106"><ele>168.0</ele><time>2026-05-03T09:04:27.246Z</time></trkpt><trkpt lat="44.3146965" lon="9.9190091"><ele>169.5</ele><time>2026-05-03T09:04:28.245Z</time></trkpt><trkpt lat="44.3147874" lon="9.9189249"><ele>171.0</ele><time>2026-05-03T09:04:29.245Z</time></trkpt><trkpt lat="44.3148857" lon="9.9188404"><ele>172.5</ele><time>2026-05-03T09:04:30.234Z</time></trkpt><trkpt lat="44.3149872" lon="9.9187659"><ele>174.0</ele><time>2026-05-03T09:04:31.216Z</time></trkpt><trkpt lat="44.3150878" lon="9.9186939"><ele>174.0</ele><time>2026-05-03T09:04:32.218Z</time></trkpt><trkpt lat="44.3151992" lon="9.9186113"><ele>174.0</ele><time>2026-05-03T09:04:33.238Z</time></trkpt><trkpt lat="44.3152768" lon="9.9185066"><ele>174.0</ele><time>2026-05-03T09:04:34.234Z</time></trkpt><trkpt lat="44.3153583" lon="9.9183881"><ele>174.0</ele><time>2026-05-03T09:04:35.226Z</time></trkpt><trkpt lat="44.3154736" lon="9.918318"><ele>175.5</ele><time>2026-05-03T09:04:36.225Z</time></trkpt><trkpt lat="44.3155768" lon="9.9182398"><ele>177.0</ele><time>2026-05-03T09:04:37.225Z</time></trkpt><trkpt lat="44.3156768" lon="9.9181711"><ele>178.5</ele><time>2026-05-03T09:04:38.219Z</time></trkpt><trkpt lat="44.3157996" lon="9.918115"><ele>180.0</ele><time>2026-05-03T09:04:39.227Z</time></trkpt><trkpt lat="44.3159428" lon="9.9180711"><ele>180.0</ele><time>2026-05-03T09:04:40.223Z</time></trkpt><trkpt lat="44.3160909" lon="9.9180223"><ele>180.0</ele><time>2026-05-03T09:04:41.225Z</time></trkpt><trkpt lat="44.3162415" lon="9.9179695"><ele>180.0</ele><time>2026-05-03T09:04:42.218Z</time></trkpt><trkpt lat="44.3163823" lon="9.9179122"><ele>178.0</ele><time>2026-05-03T09:04:43.221Z</time></trkpt><trkpt lat="44.3165284" lon="9.9178551"><ele>176.0</ele><time>2026-05-03T09:04:44.225Z</time></trkpt><trkpt lat="44.3166862" lon="9.9177865"><ele>174.0</ele><time>2026-05-03T09:04:45.223Z</time></trkpt><trkpt lat="44.3168336" lon="9.9176894"><ele>173.5</ele><time>2026-05-03T09:04:46.223Z</time></trkpt><trkpt lat="44.316948" lon="9.917565"><ele>173.0</ele><time>2026-05-03T09:04:47.221Z</time></trkpt><trkpt lat="44.3176477" lon="9.9166829"><ele>173.0</ele><time>2026-05-03T09:04:55.249Z</time></trkpt><trkpt lat="44.3177714" lon="9.9166064"><ele>173.0</ele><time>2026-05-03T09:04:56.247Z</time></trkpt><trkpt lat="44.3179244" lon="9.9165265"><ele>173.0</ele><time>2026-05-03T09:04:57.252Z</time></trkpt><trkpt lat="44.3181152" lon="9.91644"><ele>171.0</ele><time>2026-05-03T09:04:58.251Z</time></trkpt><trkpt lat="44.3183121" lon="9.9163343"><ele>169.0</ele><time>2026-05-03T09:04:59.249Z</time></trkpt><trkpt lat="44.3185282" lon="9.9162773"><ele>167.0</ele><time>2026-05-03T09:05:00.247Z</time></trkpt><trkpt lat="44.3187421" lon="9.9162247"><ele>167.33333333333331</ele><time>2026-05-03T09:05:01.25Z</time></trkpt><trkpt lat="44.318974" lon="9.9161636"><ele>167.66666666666666</ele><time>2026-05-03T09:05:02.249Z</time></trkpt><trkpt lat="44.3191564" lon="9.9160819"><ele>168.0</ele><time>2026-05-03T09:05:03.25Z</time></trkpt><trkpt lat="44.3193528" lon="9.9160409"><ele>168.0</ele><time>2026-05-03T09:05:04.253Z</time></trkpt><trkpt lat="44.3195771" lon="9.915973"><ele>168.0</ele><time>2026-05-03T09:05:05.244Z</time></trkpt><trkpt lat="44.3197539" lon="9.9158737"><ele>168.0</ele><time>2026-05-03T09:05:06.246Z</time></trkpt><trkpt lat="44.31992" lon="9.9158027"><ele>170.66666666666666</ele><time>2026-05-03T09:05:07.244Z</time></trkpt><trkpt lat="44.3200976" lon="9.9157852"><ele>173.33333333333331</ele><time>2026-05-03T09:05:08.236Z</time></trkpt><trkpt lat="44.3202724" lon="9.9157735"><ele>176.0</ele><time>2026-05-03T09:05:09.234Z</time></trkpt><trkpt lat="44.3204334" lon="9.9157537"><ele>175.66666666666666</ele><time>2026-05-03T09:05:10.246Z</time></trkpt><trkpt lat="44.3205727" lon="9.9156928"><ele>175.33333333333334</ele><time>2026-05-03T09:05:11.25Z</time></trkpt><trkpt lat="44.3207485" lon="9.9156875"><ele>175.0</ele><time>2026-05-03T09:05:12.247Z</time></trkpt><trkpt lat="44.3209235" lon="9.9156614"><ele>175.0</ele><time>2026-05-03T09:05:13.243Z</time></trkpt><trkpt lat="44.3211074" lon="9.9156455"><ele>175.0</ele><time>2026-05-03T09:05:14.252Z</time></trkpt><trkpt lat="44.3212965" lon="9.9155961"><ele>175.0</ele><time>2026-05-03T09:05:15.251Z</time></trkpt><trkpt lat="44.3214706" lon="9.9155553"><ele>175.0</ele><time>2026-05-03T09:05:16.245Z</time></trkpt><trkpt lat="44.3216639" lon="9.9154517"><ele>175.0</ele><time>2026-05-03T09:05:17.251Z</time></trkpt><trkpt lat="44.3218436" lon="9.915388"><ele>175.0</ele><time>2026-05-03T09:05:18.236Z</time></trkpt><trkpt lat="44.3220328" lon="9.915331"><ele>175.0</ele><time>2026-05-03T09:05:19.225Z</time></trkpt><trkpt lat="44.3222306" lon="9.9153221"><ele>175.0</ele><time>2026-05-03T09:05:20.239Z</time></trkpt><trkpt lat="44.3224079" lon="9.9153025"><ele>175.0</ele><time>2026-05-03T09:05:21.243Z</time></trkpt><trkpt lat="44.3226174" lon="9.9152532"><ele>175.25</ele><time>2026-05-03T09:05:22.253Z</time></trkpt><trkpt lat="44.322743" lon="9.9152245"><ele>175.5</ele><time>2026-05-03T09:05:23.249Z</time></trkpt><trkpt lat="44.3228799" lon="9.9151867"><ele>175.75</ele><time>2026-05-03T09:05:24.249Z</time></trkpt><trkpt lat="44.3230025" lon="9.9151169"><ele>176.0</ele><time>2026-05-03T09:05:25.246Z</time></trkpt><trkpt lat="44.3231024" lon="9.9150343"><ele>177.0</ele><time>2026-05-03T09:05:26.241Z</time></trkpt><trkpt lat="44.32319" lon="9.9148737"><ele>178.0</ele><time>2026-05-03T09:05:27.247Z</time></trkpt><trkpt lat="44.3232783" lon="9.9146936"><ele>179.0</ele><time>2026-05-03T09:05:28.25Z</time></trkpt><trkpt lat="44.3233583" lon="9.9144751"><ele>179.0</ele><time>2026-05-03T09:05:29.25Z</time></trkpt><trkpt lat="44.3234453" lon="9.9142368"><ele>179.0</ele><time>2026-05-03T09:05:30.253Z</time></trkpt><trkpt lat="44.3235735" lon="9.9140385"><ele>179.0</ele><time>2026-05-03T09:05:31.246Z</time></trkpt><trkpt lat="44.3236677" lon="9.9138223"><ele>179.0</ele><time>2026-05-03T09:05:32.251Z</time></trkpt><trkpt lat="44.3237632" lon="9.9136322"><ele>179.0</ele><time>2026-05-03T09:05:33.253Z</time></trkpt><trkpt lat="44.3238464" lon="9.913443"><ele>179.0</ele><time>2026-05-03T09:05:34.248Z</time></trkpt><trkpt lat="44.323941" lon="9.9132639"><ele>180.0</ele><time>2026-05-03T09:05:35.247Z</time></trkpt><trkpt lat="44.3240548" lon="9.9130884"><ele>181.0</ele><time>2026-05-03T09:05:36.243Z</time></trkpt><trkpt lat="44.324145" lon="9.912888"><ele>182.0</ele><time>2026-05-03T09:05:37.243Z</time></trkpt><trkpt lat="44.3242065" lon="9.9127003"><ele>182.66666666666666</ele><time>2026-05-03T09:05:38.243Z</time></trkpt><trkpt lat="44.3242265" lon="9.9124934"><ele>183.33333333333334</ele><time>2026-05-03T09:05:39.244Z</time></trkpt><trkpt lat="44.3241984" lon="9.9122518"><ele>184.0</ele><time>2026-05-03T09:05:40.243Z</time></trkpt><trkpt lat="44.3241845" lon="9.911998"><ele>184.0</ele><time>2026-05-03T09:05:41.246Z</time></trkpt><trkpt lat="44.32417" lon="9.9117434"><ele>184.0</ele><time>2026-05-03T09:05:42.246Z</time></trkpt><trkpt lat="44.3241693" lon="9.9115137"><ele>184.0</ele><time>2026-05-03T09:05:43.251Z</time></trkpt><trkpt lat="44.3241559" lon="9.9112842"><ele>184.25</ele><time>2026-05-03T09:05:44.241Z</time></trkpt><trkpt lat="44.3241252" lon="9.9110817"><ele>184.5</ele><time>2026-05-03T09:05:45.241Z</time></trkpt><trkpt lat="44.3241421" lon="9.9108882"><ele>184.75</ele><time>2026-05-03T09:05:46.242Z</time></trkpt><trkpt lat="44.3241661" lon="9.9106878"><ele>185.0</ele><time>2026-05-03T09:05:47.236Z</time></trkpt><trkpt lat="44.324206" lon="9.9104614"><ele>185.4</ele><time>2026-05-03T09:05:48.246Z</time></trkpt><trkpt lat="44.3242526" lon="9.910259"><ele>185.8</ele><time>2026-05-03T09:05:49.245Z</time></trkpt><trkpt lat="44.324295" lon="9.9101321"><ele>186.2</ele><time>2026-05-03T09:05:50.246Z</time></trkpt><trkpt lat="44.3243396" lon="9.91005"><ele>186.6</ele><time>2026-05-03T09:05:51.247Z</time></trkpt><trkpt lat="44.3244228" lon="9.9099301"><ele>187.0</ele><time>2026-05-03T09:05:53.254Z</time></trkpt><trkpt lat="44.3244877" lon="9.9098282"><ele>187.2</ele><time>2026-05-03T09:05:55.259Z</time></trkpt><trkpt lat="44.3245447" lon="9.9097341"><ele>187.39999999999998</ele><time>2026-05-03T09:05:57.254Z</time></trkpt><trkpt lat="44.3246351" lon="9.9096065"><ele>187.60000000000002</ele><time>2026-05-03T09:05:59.245Z</time></trkpt><trkpt lat="44.3246994" lon="9.9095314"><ele>187.8</ele><time>2026-05-03T09:06:00.258Z</time></trkpt><trkpt lat="44.3247991" lon="9.9094469"><ele>188.0</ele><time>2026-05-03T09:06:01.254Z</time></trkpt><trkpt lat="44.3248988" lon="9.9093309"><ele>188.25</ele><time>2026-05-03T09:06:02.255Z</time></trkpt><trkpt lat="44.3249921" lon="9.9092198"><ele>188.5</ele><time>2026-05-03T09:06:03.258Z</time></trkpt><trkpt lat="44.325081" lon="9.9090989"><ele>188.75</ele><time>2026-05-03T09:06:04.242Z</time></trkpt><trkpt lat="44.3251734" lon="9.9089732"><ele>189.0</ele><time>2026-05-03T09:06:05.229Z</time></trkpt><trkpt lat="44.3252639" lon="9.9088278"><ele>189.0</ele><time>2026-05-03T09:06:06.231Z</time></trkpt><trkpt lat="44.3253657" lon="9.9086818"><ele>189.0</ele><time>2026-05-03T09:06:07.23Z</time></trkpt><trkpt lat="44.3254849" lon="9.9085267"><ele>189.0</ele><time>2026-05-03T09:06:08.231Z</time></trkpt><trkpt lat="44.3256047" lon="9.9083684"><ele>188.0</ele><time>2026-05-03T09:06:09.23Z</time></trkpt><trkpt lat="44.3257264" lon="9.9082249"><ele>187.0</ele><time>2026-05-03T09:06:10.229Z</time></trkpt><trkpt lat="44.3258617" lon="9.9081089"><ele>186.0</ele><time>2026-05-03T09:06:11.228Z</time></trkpt><trkpt lat="44.3259845" lon="9.9079775"><ele>186.0</ele><time>2026-05-03T09:06:12.235Z</time></trkpt><trkpt lat="44.3261054" lon="9.9078597"><ele>186.0</ele><time>2026-05-03T09:06:13.234Z</time></trkpt><trkpt lat="44.3262044" lon="9.9077176"><ele>186.0</ele><time>2026-05-03T09:06:14.228Z</time></trkpt><trkpt lat="44.32631" lon="9.9075854"><ele>186.0</ele><time>2026-05-03T09:06:15.233Z</time></trkpt><trkpt lat="44.326411" lon="9.9074722"><ele>186.25</ele><time>2026-05-03T09:06:16.232Z</time></trkpt><trkpt lat="44.3265217" lon="9.9073471"><ele>186.5</ele><time>2026-05-03T09:06:17.228Z</time></trkpt><trkpt lat="44.3266291" lon="9.9072186"><ele>186.75</ele><time>2026-05-03T09:06:18.232Z</time></trkpt><trkpt lat="44.3267293" lon="9.9071058"><ele>187.0</ele><time>2026-05-03T09:06:19.233Z</time></trkpt><trkpt lat="44.3268387" lon="9.9070062"><ele>187.0</ele><time>2026-05-03T09:06:20.233Z</time></trkpt><trkpt lat="44.3269386" lon="9.9069069"><ele>187.0</ele><time>2026-05-03T09:06:21.23Z</time></trkpt><trkpt lat="44.3270456" lon="9.9068076"><ele>187.0</ele><time>2026-05-03T09:06:22.227Z</time></trkpt><trkpt lat="44.3271528" lon="9.9067015"><ele>187.0</ele><time>2026-05-03T09:06:23.227Z</time></trkpt><trkpt lat="44.3272688" lon="9.9065855"><ele>188.25</ele><time>2026-05-03T09:06:24.228Z</time></trkpt><trkpt lat="44.3273857" lon="9.9064732"><ele>189.5</ele><time>2026-05-03T09:06:25.233Z</time></trkpt><trkpt lat="44.327489" lon="9.9063601"><ele>190.75</ele><time>2026-05-03T09:06:26.233Z</time></trkpt><trkpt lat="44.3275935" lon="9.9062439"><ele>192.0</ele><time>2026-05-03T09:06:27.232Z</time></trkpt><trkpt lat="44.327698" lon="9.9061278"><ele>192.0</ele><time>2026-05-03T09:06:28.234Z</time></trkpt><trkpt lat="44.3278" lon="9.9060024"><ele>192.0</ele><time>2026-05-03T09:06:29.231Z</time></trkpt><trkpt lat="44.3279025" lon="9.9058658"><ele>192.0</ele><time>2026-05-03T09:06:30.234Z</time></trkpt><trkpt lat="44.3280113" lon="9.9057462"><ele>192.0</ele><time>2026-05-03T09:06:31.229Z</time></trkpt><trkpt lat="44.3281185" lon="9.9056272"><ele>192.5</ele><time>2026-05-03T09:06:32.23Z</time></trkpt><trkpt lat="44.3282227" lon="9.905521"><ele>193.0</ele><time>2026-05-03T09:06:33.229Z</time></trkpt><trkpt lat="44.3282943" lon="9.9053922"><ele>193.5</ele><time>2026-05-03T09:06:34.229Z</time></trkpt><trkpt lat="44.3283682" lon="9.9052599"><ele>194.0</ele><time>2026-05-03T09:06:35.233Z</time></trkpt><trkpt lat="44.328428" lon="9.9051199"><ele>195.39999999999998</ele><time>2026-05-03T09:06:36.227Z</time></trkpt><trkpt lat="44.3284885" lon="9.9049862"><ele>196.8</ele><time>2026-05-03T09:06:37.22Z</time></trkpt><trkpt lat="44.3285663" lon="9.9048947"><ele>198.2</ele><time>2026-05-03T09:06:38.228Z</time></trkpt><trkpt lat="44.3286517" lon="9.9048222"><ele>199.60000000000002</ele><time>2026-05-03T09:06:39.226Z</time></trkpt><trkpt lat="44.3285922" lon="9.9046652"><ele>201.0</ele><time>2026-05-03T09:06:40.251Z</time></trkpt><trkpt lat="44.3287296" lon="9.9046427"><ele>201.0</ele><time>2026-05-03T09:06:41.226Z</time></trkpt><trkpt lat="44.3288512" lon="9.9046265"><ele>201.0</ele><time>2026-05-03T09:06:42.223Z</time></trkpt><trkpt lat="44.32897" lon="9.9046238"><ele>201.0</ele><time>2026-05-03T09:06:43.214Z</time></trkpt><trkpt lat="44.3290684" lon="9.9046374"><ele>201.0</ele><time>2026-05-03T09:06:44.22Z</time></trkpt><trkpt lat="44.3292068" lon="9.9047137"><ele>197.0</ele><time>2026-05-03T09:06:45.223Z</time></trkpt><trkpt lat="44.3293471" lon="9.9048401"><ele>193.0</ele><time>2026-05-03T09:06:46.233Z</time></trkpt><trkpt lat="44.3295031" lon="9.90494"><ele>189.0</ele><time>2026-05-03T09:06:47.247Z</time></trkpt><trkpt lat="44.3296142" lon="9.9049332"><ele>188.33333333333334</ele><time>2026-05-03T09:06:48.253Z</time></trkpt><trkpt lat="44.3297381" lon="9.9048911"><ele>187.66666666666669</ele><time>2026-05-03T09:06:49.231Z</time></trkpt><trkpt lat="44.3298932" lon="9.9048056"><ele>187.0</ele><time>2026-05-03T09:06:50.239Z</time></trkpt><trkpt lat="44.3300443" lon="9.9047101"><ele>187.0</ele><time>2026-05-03T09:06:51.249Z</time></trkpt><trkpt lat="44.3301849" lon="9.9046243"><ele>187.0</ele><time>2026-05-03T09:06:52.253Z</time></trkpt><trkpt lat="44.3302926" lon="9.9045654"><ele>187.0</ele><time>2026-05-03T09:06:53.25Z</time></trkpt><trkpt lat="44.3304101" lon="9.9044853"><ele>187.0</ele><time>2026-05-03T09:06:54.236Z</time></trkpt><trkpt lat="44.3304855" lon="9.9043816"><ele>186.75</ele><time>2026-05-03T09:06:55.244Z</time></trkpt><trkpt lat="44.3306134" lon="9.9043272"><ele>186.5</ele><time>2026-05-03T09:06:56.23Z</time></trkpt><trkpt lat="44.3307406" lon="9.9042693"><ele>186.25</ele><time>2026-05-03T09:06:57.216Z</time></trkpt><trkpt lat="44.3308638" lon="9.9042207"><ele>186.0</ele><time>2026-05-03T09:06:58.215Z</time></trkpt><trkpt lat="44.3310235" lon="9.9042552"><ele>186.0</ele><time>2026-05-03T09:06:59.242Z</time></trkpt><trkpt lat="44.331174" lon="9.9042512"><ele>186.0</ele><time>2026-05-03T09:07:00.233Z</time></trkpt><trkpt lat="44.3313143" lon="9.9042458"><ele>186.0</ele><time>2026-05-03T09:07:01.223Z</time></trkpt><trkpt lat="44.3314808" lon="9.9042536"><ele>187.0</ele><time>2026-05-03T09:07:02.226Z</time></trkpt><trkpt lat="44.3316437" lon="9.9042653"><ele>188.0</ele><time>2026-05-03T09:07:03.219Z</time></trkpt><trkpt lat="44.331829" lon="9.9042759"><ele>189.0</ele><time>2026-05-03T09:07:04.237Z</time></trkpt><trkpt lat="44.3319842" lon="9.904299"><ele>189.0</ele><time>2026-05-03T09:07:05.232Z</time></trkpt><trkpt lat="44.3321552" lon="9.9043066"><ele>189.0</ele><time>2026-05-03T09:07:06.237Z</time></trkpt><trkpt lat="44.332343" lon="9.9042979"><ele>189.0</ele><time>2026-05-03T09:07:07.246Z</time></trkpt><trkpt lat="44.3325015" lon="9.9042967"><ele>189.0</ele><time>2026-05-03T09:07:08.245Z</time></trkpt><trkpt lat="44.3326649" lon="9.9042659"><ele>189.0</ele><time>2026-05-03T09:07:09.245Z</time></trkpt><trkpt lat="44.3328491" lon="9.9042452"><ele>189.0</ele><time>2026-05-03T09:07:10.245Z</time></trkpt><trkpt lat="44.3330216" lon="9.9041681"><ele>188.33333333333334</ele><time>2026-05-03T09:07:11.248Z</time></trkpt><trkpt lat="44.3331599" lon="9.90409"><ele>187.66666666666669</ele><time>2026-05-03T09:07:12.239Z</time></trkpt><trkpt lat="44.3332872" lon="9.9039348"><ele>187.0</ele><time>2026-05-03T09:07:13.248Z</time></trkpt><trkpt lat="44.3333971" lon="9.9037693"><ele>187.0</ele><time>2026-05-03T09:07:14.244Z</time></trkpt><trkpt lat="44.3334832" lon="9.9035979"><ele>187.0</ele><time>2026-05-03T09:07:15.241Z</time></trkpt><trkpt lat="44.3335855" lon="9.9034366"><ele>187.0</ele><time>2026-05-03T09:07:16.249Z</time></trkpt><trkpt lat="44.3336969" lon="9.9032722"><ele>188.33333333333334</ele><time>2026-05-03T09:07:17.249Z</time></trkpt><trkpt lat="44.3338026" lon="9.903154"><ele>189.66666666666666</ele><time>2026-05-03T09:07:18.247Z</time></trkpt><trkpt lat="44.3339643" lon="9.9030645"><ele>191.0</ele><time>2026-05-03T09:07:19.25Z</time></trkpt><trkpt lat="44.3340974" lon="9.90295"><ele>191.66666666666666</ele><time>2026-05-03T09:07:20.244Z</time></trkpt><trkpt lat="44.3342451" lon="9.9028287"><ele>192.33333333333331</ele><time>2026-05-03T09:07:21.246Z</time></trkpt><trkpt lat="44.3343886" lon="9.9027133"><ele>193.0</ele><time>2026-05-03T09:07:22.244Z</time></trkpt><trkpt lat="44.3345321" lon="9.9025898"><ele>193.5</ele><time>2026-05-03T09:07:23.24Z</time></trkpt><trkpt lat="44.3346612" lon="9.902464"><ele>194.0</ele><time>2026-05-03T09:07:24.248Z</time></trkpt><trkpt lat="44.3347563" lon="9.9023473"><ele>194.5</ele><time>2026-05-03T09:07:25.248Z</time></trkpt><trkpt lat="44.3348398" lon="9.9022038"><ele>195.0</ele><time>2026-05-03T09:07:26.246Z</time></trkpt><trkpt lat="44.3349138" lon="9.9020688"><ele>195.0</ele><time>2026-05-03T09:07:27.227Z</time></trkpt><trkpt lat="44.3349609" lon="9.9019052"><ele>195.0</ele><time>2026-05-03T09:07:28.218Z</time></trkpt><trkpt lat="44.3350008" lon="9.9017067"><ele>195.0</ele><time>2026-05-03T09:07:29.237Z</time></trkpt><trkpt lat="44.3350205" lon="9.9014812"><ele>195.0</ele><time>2026-05-03T09:07:30.246Z</time></trkpt><trkpt lat="44.3350502" lon="9.9012919"><ele>195.0</ele><time>2026-05-03T09:07:31.254Z</time></trkpt><trkpt lat="44.3350887" lon="9.9010878"><ele>195.0</ele><time>2026-05-03T09:07:32.246Z</time></trkpt><trkpt lat="44.3351164" lon="9.9008937"><ele>195.0</ele><time>2026-05-03T09:07:33.248Z</time></trkpt><trkpt lat="44.3350983" lon="9.9007421"><ele>195.0</ele><time>2026-05-03T09:07:34.245Z</time></trkpt><trkpt lat="44.3350677" lon="9.9005729"><ele>195.5</ele><time>2026-05-03T09:07:35.244Z</time></trkpt><trkpt lat="44.3350748" lon="9.9004115"><ele>196.0</ele><time>2026-05-03T09:07:36.246Z</time></trkpt><trkpt lat="44.3350538" lon="9.9002236"><ele>196.5</ele><time>2026-05-03T09:07:37.241Z</time></trkpt><trkpt lat="44.3350784" lon="9.9000495"><ele>197.0</ele><time>2026-05-03T09:07:38.231Z</time></trkpt><trkpt lat="44.3351052" lon="9.8998697"><ele>197.2</ele><time>2026-05-03T09:07:39.241Z</time></trkpt><trkpt lat="44.3350999" lon="9.8997512"><ele>197.39999999999998</ele><time>2026-05-03T09:07:40.247Z</time></trkpt><trkpt lat="44.3351315" lon="9.8996304"><ele>197.60000000000002</ele><time>2026-05-03T09:07:41.228Z</time></trkpt><trkpt lat="44.3352156" lon="9.8995612"><ele>197.8</ele><time>2026-05-03T09:07:42.238Z</time></trkpt><trkpt lat="44.3352726" lon="9.8994729"><ele>198.0</ele><time>2026-05-03T09:07:43.231Z</time></trkpt><trkpt lat="44.3353888" lon="9.8994273"><ele>198.0</ele><time>2026-05-03T09:07:44.237Z</time></trkpt><trkpt lat="44.3354586" lon="9.8993567"><ele>198.0</ele><time>2026-05-03T09:07:45.25Z</time></trkpt><trkpt lat="44.3355177" lon="9.8993037"><ele>198.0</ele><time>2026-05-03T09:07:46.247Z</time></trkpt></trkseg><trkseg><trkpt lat="44.3362981" lon="9.8991676"><ele>193.0</ele><time>2026-05-03T09:30:52.634Z</time></trkpt><trkpt lat="44.3364059" lon="9.8988605"><ele>192.0</ele><time>2026-05-03T09:30:59.942Z</time></trkpt><trkpt lat="44.3370944" lon="9.8999474"><ele>190.5</ele><time>2026-05-03T09:31:07.278Z</time></trkpt><trkpt lat="44.3371258" lon="9.9005708"><ele>189.0</ele><time>2026-05-03T09:31:10.589Z</time></trkpt><trkpt lat="44.3371696" lon="9.9006452"><ele>194.0</ele><time>2026-05-03T09:31:11.587Z</time></trkpt><trkpt lat="44.3374574" lon="9.9008293"><ele>199.0</ele><time>2026-05-03T09:31:12.604Z</time></trkpt><trkpt lat="44.3374128" lon="9.9010755"><ele>199.0</ele><time>2026-05-03T09:31:13.619Z</time></trkpt><trkpt lat="44.3374146" lon="9.9012415"><ele>199.0</ele><time>2026-05-03T09:31:14.617Z</time></trkpt><trkpt lat="44.3373942" lon="9.9014356"><ele>199.0</ele><time>2026-05-03T09:31:15.617Z</time></trkpt><trkpt lat="44.3373507" lon="9.9016234"><ele>199.0</ele><time>2026-05-03T09:31:16.623Z</time></trkpt><trkpt lat="44.3373591" lon="9.9017261"><ele>197.25</ele><time>2026-05-03T09:31:17.619Z</time></trkpt><trkpt lat="44.3373746" lon="9.9018837"><ele>195.5</ele><time>2026-05-03T09:31:18.62Z</time></trkpt><trkpt lat="44.3374191" lon="9.9021004"><ele>193.75</ele><time>2026-05-03T09:31:19.622Z</time></trkpt><trkpt lat="44.3374871" lon="9.9022853"><ele>192.0</ele><time>2026-05-03T09:31:20.624Z</time></trkpt><trkpt lat="44.3375624" lon="9.9024973"><ele>191.25</ele><time>2026-05-03T09:31:21.624Z</time></trkpt><trkpt lat="44.3376502" lon="9.9026907"><ele>190.5</ele><time>2026-05-03T09:31:22.627Z</time></trkpt><trkpt lat="44.3376997" lon="9.9028438"><ele>189.75</ele><time>2026-05-03T09:31:23.626Z</time></trkpt><trkpt lat="44.3377777" lon="9.9029991"><ele>189.0</ele><time>2026-05-03T09:31:24.627Z</time></trkpt><trkpt lat="44.3378288" lon="9.9031638"><ele>189.0</ele><time>2026-05-03T09:31:25.625Z</time></trkpt><trkpt lat="44.337873" lon="9.9033278"><ele>189.0</ele><time>2026-05-03T09:31:26.633Z</time></trkpt><trkpt lat="44.3379431" lon="9.9035032"><ele>189.0</ele><time>2026-05-03T09:31:27.631Z</time></trkpt><trkpt lat="44.3379994" lon="9.9036642"><ele>189.0</ele><time>2026-05-03T09:31:28.628Z</time></trkpt><trkpt lat="44.3380811" lon="9.9038216"><ele>189.25</ele><time>2026-05-03T09:31:29.629Z</time></trkpt><trkpt lat="44.3382012" lon="9.9039536"><ele>189.5</ele><time>2026-05-03T09:31:30.625Z</time></trkpt><trkpt lat="44.3383309" lon="9.9040517"><ele>189.75</ele><time>2026-05-03T09:31:31.624Z</time></trkpt><trkpt lat="44.3384309" lon="9.9041558"><ele>190.0</ele><time>2026-05-03T09:31:32.619Z</time></trkpt><trkpt lat="44.3386427" lon="9.9043111"><ele>189.0</ele><time>2026-05-03T09:31:34.525Z</time></trkpt><trkpt lat="44.3387569" lon="9.9044151"><ele>188.0</ele><time>2026-05-03T09:31:35.524Z</time></trkpt><trkpt lat="44.3388812" lon="9.9045027"><ele>187.0</ele><time>2026-05-03T09:31:36.525Z</time></trkpt><trkpt lat="44.3390039" lon="9.9045251"><ele>186.0</ele><time>2026-05-03T09:31:37.523Z</time></trkpt><trkpt lat="44.3391305" lon="9.9045001"><ele>186.0</ele><time>2026-05-03T09:31:38.516Z</time></trkpt><trkpt lat="44.3392632" lon="9.9044834"><ele>186.0</ele><time>2026-05-03T09:31:39.517Z</time></trkpt><trkpt lat="44.3394356" lon="9.90437"><ele>186.0</ele><time>2026-05-03T09:31:40.517Z</time></trkpt><trkpt lat="44.3396825" lon="9.9042318"><ele>187.0</ele><time>2026-05-03T09:31:41.521Z</time></trkpt><trkpt lat="44.3399124" lon="9.9041221"><ele>188.0</ele><time>2026-05-03T09:31:42.521Z</time></trkpt><trkpt lat="44.3401589" lon="9.9040126"><ele>188.0</ele><time>2026-05-03T09:31:43.522Z</time></trkpt><trkpt lat="44.3404004" lon="9.9039102"><ele>188.0</ele><time>2026-05-03T09:31:44.528Z</time></trkpt><trkpt lat="44.3406127" lon="9.9038496"><ele>186.5</ele><time>2026-05-03T09:31:45.535Z</time></trkpt><trkpt lat="44.340847" lon="9.9038337"><ele>185.0</ele><time>2026-05-03T09:31:46.524Z</time></trkpt><trkpt lat="44.3410982" lon="9.903763"><ele>185.0</ele><time>2026-05-03T09:31:47.517Z</time></trkpt><trkpt lat="44.3413482" lon="9.9037774"><ele>185.0</ele><time>2026-05-03T09:31:48.531Z</time></trkpt><trkpt lat="44.341628" lon="9.9037941"><ele>185.5</ele><time>2026-05-03T09:31:49.524Z</time></trkpt><trkpt lat="44.3418828" lon="9.9037922"><ele>186.0</ele><time>2026-05-03T09:31:50.526Z</time></trkpt><trkpt lat="44.342134" lon="9.9038066"><ele>186.5</ele><time>2026-05-03T09:31:51.524Z</time></trkpt><trkpt lat="44.3423591" lon="9.9038352"><ele>187.0</ele><time>2026-05-03T09:31:52.52Z</time></trkpt><trkpt lat="44.3425837" lon="9.9038381"><ele>187.0</ele><time>2026-05-03T09:31:53.519Z</time></trkpt><trkpt lat="44.342802" lon="9.9038673"><ele>187.0</ele><time>2026-05-03T09:31:54.52Z</time></trkpt><trkpt lat="44.3429929" lon="9.9038169"><ele>187.0</ele><time>2026-05-03T09:31:55.517Z</time></trkpt><trkpt lat="44.3432089" lon="9.9036771"><ele>187.0</ele><time>2026-05-03T09:31:56.518Z</time></trkpt><trkpt lat="44.343416" lon="9.9035445"><ele>187.0</ele><time>2026-05-03T09:31:57.526Z</time></trkpt><trkpt lat="44.3436396" lon="9.9033908"><ele>188.5</ele><time>2026-05-03T09:31:58.529Z</time></trkpt><trkpt lat="44.343896" lon="9.9032347"><ele>190.0</ele><time>2026-05-03T09:31:59.535Z</time></trkpt><trkpt lat="44.3441552" lon="9.9031185"><ele>190.0</ele><time>2026-05-03T09:32:00.524Z</time></trkpt><trkpt lat="44.3443939" lon="9.9030006"><ele>190.0</ele><time>2026-05-03T09:32:01.526Z</time></trkpt><trkpt lat="44.3446628" lon="9.9028669"><ele>190.0</ele><time>2026-05-03T09:32:02.528Z</time></trkpt><trkpt lat="44.3448937" lon="9.9028007"><ele>190.0</ele><time>2026-05-03T09:32:03.523Z</time></trkpt><trkpt lat="44.3451532" lon="9.9026729"><ele>190.0</ele><time>2026-05-03T09:32:04.522Z</time></trkpt><trkpt lat="44.3453895" lon="9.9025984"><ele>190.0</ele><time>2026-05-03T09:32:05.53Z</time></trkpt><trkpt lat="44.3455936" lon="9.9025355"><ele>191.5</ele><time>2026-05-03T09:32:06.527Z</time></trkpt><trkpt lat="44.345849" lon="9.9024432"><ele>193.0</ele><time>2026-05-03T09:32:07.52Z</time></trkpt><trkpt lat="44.3460982" lon="9.9023872"><ele>193.0</ele><time>2026-05-03T09:32:08.527Z</time></trkpt><trkpt lat="44.3463443" lon="9.9023333"><ele>193.0</ele><time>2026-05-03T09:32:09.521Z</time></trkpt><trkpt lat="44.3465438" lon="9.9022664"><ele>195.33333333333331</ele><time>2026-05-03T09:32:10.527Z</time></trkpt><trkpt lat="44.3467277" lon="9.9021484"><ele>197.66666666666669</ele><time>2026-05-03T09:32:11.516Z</time></trkpt><trkpt lat="44.3469361" lon="9.9020048"><ele>200.0</ele><time>2026-05-03T09:32:12.518Z</time></trkpt><trkpt lat="44.3471392" lon="9.9018808"><ele>204.5</ele><time>2026-05-03T09:32:13.522Z</time></trkpt><trkpt lat="44.3473429" lon="9.9016561"><ele>209.0</ele><time>2026-05-03T09:32:14.531Z</time></trkpt><trkpt lat="44.3475647" lon="9.9014591"><ele>209.0</ele><time>2026-05-03T09:32:15.53Z</time></trkpt><trkpt lat="44.3477618" lon="9.9012453"><ele>209.0</ele><time>2026-05-03T09:32:16.53Z</time></trkpt><trkpt lat="44.3479615" lon="9.9010316"><ele>211.5</ele><time>2026-05-03T09:32:17.528Z</time></trkpt><trkpt lat="44.3481722" lon="9.9008594"><ele>214.0</ele><time>2026-05-03T09:32:18.524Z</time></trkpt><trkpt lat="44.348363" lon="9.9006949"><ele>214.0</ele><time>2026-05-03T09:32:19.534Z</time></trkpt><trkpt lat="44.3485482" lon="9.9005124"><ele>214.0</ele><time>2026-05-03T09:32:20.536Z</time></trkpt><trkpt lat="44.3487181" lon="9.9003639"><ele>214.0</ele><time>2026-05-03T09:32:21.528Z</time></trkpt><trkpt lat="44.3488808" lon="9.9002019"><ele>215.33333333333331</ele><time>2026-05-03T09:32:22.537Z</time></trkpt><trkpt lat="44.3490025" lon="9.9000088"><ele>216.66666666666669</ele><time>2026-05-03T09:32:23.532Z</time></trkpt><trkpt lat="44.3491081" lon="9.8998007"><ele>218.0</ele><time>2026-05-03T09:32:24.536Z</time></trkpt><trkpt lat="44.3491971" lon="9.8995462"><ele>219.5</ele><time>2026-05-03T09:32:25.53Z</time></trkpt><trkpt lat="44.3492326" lon="9.8992374"><ele>221.0</ele><time>2026-05-03T09:32:26.527Z</time></trkpt><trkpt lat="44.3493275" lon="9.8989133"><ele>221.0</ele><time>2026-05-03T09:32:27.529Z</time></trkpt><trkpt lat="44.3493736" lon="9.8986158"><ele>221.0</ele><time>2026-05-03T09:32:28.55Z</time></trkpt><trkpt lat="44.3494508" lon="9.8983025"><ele>221.33333333333334</ele><time>2026-05-03T09:32:29.535Z</time></trkpt><trkpt lat="44.3495297" lon="9.897999"><ele>221.66666666666669</ele><time>2026-05-03T09:32:30.541Z</time></trkpt><trkpt lat="44.3495998" lon="9.8977114"><ele>222.0</ele><time>2026-05-03T09:32:31.544Z</time></trkpt><trkpt lat="44.3496968" lon="9.8974192"><ele>223.5</ele><time>2026-05-03T09:32:32.546Z</time></trkpt><trkpt lat="44.3497912" lon="9.8971342"><ele>225.0</ele><time>2026-05-03T09:32:33.544Z</time></trkpt><trkpt lat="44.3498899" lon="9.8968453"><ele>225.66666666666669</ele><time>2026-05-03T09:32:34.545Z</time></trkpt><trkpt lat="44.3499954" lon="9.896564"><ele>226.33333333333334</ele><time>2026-05-03T09:32:35.55Z</time></trkpt><trkpt lat="44.3500856" lon="9.896321"><ele>227.0</ele><time>2026-05-03T09:32:36.557Z</time></trkpt><trkpt lat="44.3501772" lon="9.8961011"><ele>228.0</ele><time>2026-05-03T09:32:37.545Z</time></trkpt><trkpt lat="44.3502667" lon="9.8958762"><ele>229.0</ele><time>2026-05-03T09:32:38.544Z</time></trkpt><trkpt lat="44.3504817" lon="9.8955278"><ele>228.0</ele><time>2026-05-03T09:32:40.338Z</time></trkpt><trkpt lat="44.3508005" lon="9.8952528"><ele>227.0</ele><time>2026-05-03T09:32:42.234Z</time></trkpt><trkpt lat="44.3509971" lon="9.8951473"><ele>228.5</ele><time>2026-05-03T09:32:43.209Z</time></trkpt><trkpt lat="44.3512005" lon="9.8950175"><ele>230.0</ele><time>2026-05-03T09:32:44.213Z</time></trkpt><trkpt lat="44.3514017" lon="9.8948631"><ele>230.0</ele><time>2026-05-03T09:32:45.204Z</time></trkpt><trkpt lat="44.351593" lon="9.8946871"><ele>230.0</ele><time>2026-05-03T09:32:46.209Z</time></trkpt><trkpt lat="44.3517745" lon="9.8945536"><ele>230.0</ele><time>2026-05-03T09:32:47.205Z</time></trkpt><trkpt lat="44.3519937" lon="9.8944782"><ele>230.5</ele><time>2026-05-03T09:32:48.209Z</time></trkpt><trkpt lat="44.3522188" lon="9.8944421"><ele>231.0</ele><time>2026-05-03T09:32:49.209Z</time></trkpt><trkpt lat="44.3524503" lon="9.8944198"><ele>231.0</ele><time>2026-05-03T09:32:50.209Z</time></trkpt><trkpt lat="44.352668" lon="9.8944051"><ele>231.0</ele><time>2026-05-03T09:32:51.206Z</time></trkpt><trkpt lat="44.3528574" lon="9.8944116"><ele>231.0</ele><time>2026-05-03T09:32:52.211Z</time></trkpt><trkpt lat="44.3530169" lon="9.8944284"><ele>231.33333333333331</ele><time>2026-05-03T09:32:53.206Z</time></trkpt><trkpt lat="44.3531844" lon="9.8944233"><ele>231.66666666666666</ele><time>2026-05-03T09:32:54.206Z</time></trkpt><trkpt lat="44.3533518" lon="9.8944254"><ele>232.0</ele><time>2026-05-03T09:32:55.211Z</time></trkpt><trkpt lat="44.3535099" lon="9.8943929"><ele>232.0</ele><time>2026-05-03T09:32:56.217Z</time></trkpt><trkpt lat="44.3537094" lon="9.894379"><ele>232.0</ele><time>2026-05-03T09:32:57.205Z</time></trkpt><trkpt lat="44.3538856" lon="9.894382"><ele>232.0</ele><time>2026-05-03T09:32:58.213Z</time></trkpt><trkpt lat="44.3540364" lon="9.8943518"><ele>232.33333333333331</ele><time>2026-05-03T09:32:59.206Z</time></trkpt><trkpt lat="44.3541812" lon="9.8943699"><ele>232.66666666666669</ele><time>2026-05-03T09:33:00.214Z</time></trkpt><trkpt lat="44.3543427" lon="9.8943531"><ele>233.0</ele><time>2026-05-03T09:33:01.212Z</time></trkpt><trkpt lat="44.354492" lon="9.8943109"><ele>233.0</ele><time>2026-05-03T09:33:02.221Z</time></trkpt><trkpt lat="44.3546448" lon="9.8943072"><ele>233.0</ele><time>2026-05-03T09:33:03.218Z</time></trkpt><trkpt lat="44.3548078" lon="9.8942819"><ele>233.0</ele><time>2026-05-03T09:33:04.215Z</time></trkpt><trkpt lat="44.3549675" lon="9.8942315"><ele>234.0</ele><time>2026-05-03T09:33:05.207Z</time></trkpt><trkpt lat="44.3551305" lon="9.8941526"><ele>235.0</ele><time>2026-05-03T09:33:06.207Z</time></trkpt><trkpt lat="44.3552974" lon="9.8941539"><ele>236.0</ele><time>2026-05-03T09:33:07.209Z</time></trkpt><trkpt lat="44.3555085" lon="9.8940784"><ele>235.66666666666669</ele><time>2026-05-03T09:33:08.201Z</time></trkpt><trkpt lat="44.3556821" lon="9.8940063"><ele>235.33333333333331</ele><time>2026-05-03T09:33:09.209Z</time></trkpt><trkpt lat="44.355862" lon="9.8939243"><ele>235.0</ele><time>2026-05-03T09:33:10.213Z</time></trkpt><trkpt lat="44.3560202" lon="9.8938837"><ele>235.0</ele><time>2026-05-03T09:33:11.211Z</time></trkpt><trkpt lat="44.3561916" lon="9.8937883"><ele>235.0</ele><time>2026-05-03T09:33:12.216Z</time></trkpt><trkpt lat="44.3563515" lon="9.8938016"><ele>235.0</ele><time>2026-05-03T09:33:13.216Z</time></trkpt><trkpt lat="44.356526" lon="9.8937779"><ele>235.0</ele><time>2026-05-03T09:33:14.218Z</time></trkpt><trkpt lat="44.3566593" lon="9.8937453"><ele>235.0</ele><time>2026-05-03T09:33:15.217Z</time></trkpt><trkpt lat="44.3568103" lon="9.8937106"><ele>235.0</ele><time>2026-05-03T09:33:16.216Z</time></trkpt><trkpt lat="44.3569604" lon="9.8936783"><ele>235.0</ele><time>2026-05-03T09:33:17.209Z</time></trkpt><trkpt lat="44.3571039" lon="9.8936453"><ele>234.25</ele><time>2026-05-03T09:33:18.213Z</time></trkpt><trkpt lat="44.3572433" lon="9.8936002"><ele>233.5</ele><time>2026-05-03T09:33:19.21Z</time></trkpt><trkpt lat="44.3573957" lon="9.8935666"><ele>232.75</ele><time>2026-05-03T09:33:20.209Z</time></trkpt><trkpt lat="44.3575415" lon="9.8935389"><ele>232.0</ele><time>2026-05-03T09:33:21.215Z</time></trkpt><trkpt lat="44.35768" lon="9.8935112"><ele>232.0</ele><time>2026-05-03T09:33:22.217Z</time></trkpt><trkpt lat="44.3578212" lon="9.8934528"><ele>232.0</ele><time>2026-05-03T09:33:23.208Z</time></trkpt><trkpt lat="44.3579706" lon="9.8934323"><ele>232.0</ele><time>2026-05-03T09:33:24.21Z</time></trkpt><trkpt lat="44.3581024" lon="9.8934238"><ele>232.0</ele><time>2026-05-03T09:33:25.213Z</time></trkpt><trkpt lat="44.3582676" lon="9.8933768"><ele>233.66666666666666</ele><time>2026-05-03T09:33:26.208Z</time></trkpt><trkpt lat="44.3584264" lon="9.8933438"><ele>235.33333333333331</ele><time>2026-05-03T09:33:27.209Z</time></trkpt><trkpt lat="44.3585688" lon="9.8932917"><ele>237.0</ele><time>2026-05-03T09:33:28.21Z</time></trkpt><trkpt lat="44.358705" lon="9.8932206"><ele>230.66666666666669</ele><time>2026-05-03T09:33:29.204Z</time></trkpt><trkpt lat="44.3589465" lon="9.8929834"><ele>224.33333333333334</ele><time>2026-05-03T09:33:31.21Z</time></trkpt><trkpt lat="44.3590413" lon="9.892835"><ele>218.0</ele><time>2026-05-03T09:33:32.217Z</time></trkpt><trkpt lat="44.3591503" lon="9.8926608"><ele>221.33333333333334</ele><time>2026-05-03T09:33:33.213Z</time></trkpt><trkpt lat="44.3592642" lon="9.8924752"><ele>224.66666666666669</ele><time>2026-05-03T09:33:34.214Z</time></trkpt><trkpt lat="44.3593798" lon="9.8923124"><ele>228.0</ele><time>2026-05-03T09:33:35.215Z</time></trkpt><trkpt lat="44.359503" lon="9.8921347"><ele>228.0</ele><time>2026-05-03T09:33:36.21Z</time></trkpt><trkpt lat="44.3596164" lon="9.8919404"><ele>228.0</ele><time>2026-05-03T09:33:37.205Z</time></trkpt><trkpt lat="44.3597412" lon="9.8917707"><ele>228.0</ele><time>2026-05-03T09:33:38.218Z</time></trkpt><trkpt lat="44.3598663" lon="9.8916157"><ele>226.0</ele><time>2026-05-03T09:33:39.207Z</time></trkpt><trkpt lat="44.3599851" lon="9.8914857"><ele>224.0</ele><time>2026-05-03T09:33:40.205Z</time></trkpt><trkpt lat="44.3601089" lon="9.8913777"><ele>222.0</ele><time>2026-05-03T09:33:41.211Z</time></trkpt><trkpt lat="44.3602333" lon="9.8912675"><ele>220.0</ele><time>2026-05-03T09:33:42.208Z</time></trkpt><trkpt lat="44.3603835" lon="9.8911566"><ele>220.33333333333331</ele><time>2026-05-03T09:33:43.205Z</time></trkpt><trkpt lat="44.360548" lon="9.8910773"><ele>220.66666666666669</ele><time>2026-05-03T09:33:44.209Z</time></trkpt><trkpt lat="44.3606928" lon="9.8909904"><ele>221.0</ele><time>2026-05-03T09:33:45.209Z</time></trkpt><trkpt lat="44.3608554" lon="9.8908712"><ele>221.0</ele><time>2026-05-03T09:33:46.209Z</time></trkpt><trkpt lat="44.3610043" lon="9.8907769"><ele>221.0</ele><time>2026-05-03T09:33:47.205Z</time></trkpt><trkpt lat="44.3611556" lon="9.8906782"><ele>221.0</ele><time>2026-05-03T09:33:48.208Z</time></trkpt><trkpt lat="44.3612843" lon="9.8905912"><ele>218.0</ele><time>2026-05-03T09:33:49.205Z</time></trkpt><trkpt lat="44.36141" lon="9.8904973"><ele>215.0</ele><time>2026-05-03T09:33:50.209Z</time></trkpt><trkpt lat="44.3615571" lon="9.890342"><ele>212.0</ele><time>2026-05-03T09:33:51.207Z</time></trkpt><trkpt lat="44.3616728" lon="9.8902153"><ele>219.0</ele><time>2026-05-03T09:33:52.199Z</time></trkpt><trkpt lat="44.3618077" lon="9.8900786"><ele>226.0</ele><time>2026-05-03T09:33:53.2Z</time></trkpt><trkpt lat="44.3619317" lon="9.8899639"><ele>233.0</ele><time>2026-05-03T09:33:54.199Z</time></trkpt><trkpt lat="44.362042" lon="9.8898356"><ele>233.0</ele><time>2026-05-03T09:33:55.211Z</time></trkpt><trkpt lat="44.3621242" lon="9.8896953"><ele>233.0</ele><time>2026-05-03T09:33:56.207Z</time></trkpt><trkpt lat="44.3621817" lon="9.8895204"><ele>233.0</ele><time>2026-05-03T09:33:57.208Z</time></trkpt><trkpt lat="44.3622726" lon="9.8893493"><ele>233.0</ele><time>2026-05-03T09:33:58.212Z</time></trkpt><trkpt lat="44.362335" lon="9.8892035"><ele>227.0</ele><time>2026-05-03T09:33:59.213Z</time></trkpt><trkpt lat="44.3624344" lon="9.8890698"><ele>221.0</ele><time>2026-05-03T09:34:00.207Z</time></trkpt><trkpt lat="44.362538" lon="9.8889092"><ele>215.0</ele><time>2026-05-03T09:34:01.203Z</time></trkpt><trkpt lat="44.3626742" lon="9.8887662"><ele>215.0</ele><time>2026-05-03T09:34:02.207Z</time></trkpt><trkpt lat="44.3628085" lon="9.888625"><ele>215.0</ele><time>2026-05-03T09:34:03.204Z</time></trkpt><trkpt lat="44.3629531" lon="9.888524"><ele>215.0</ele><time>2026-05-03T09:34:04.204Z</time></trkpt><trkpt lat="44.3630409" lon="9.888513"><ele>215.0</ele><time>2026-05-03T09:34:05.206Z</time></trkpt><trkpt lat="44.3631239" lon="9.8884568"><ele>214.0</ele><time>2026-05-03T09:34:06.207Z</time></trkpt><trkpt lat="44.3632829" lon="9.8885337"><ele>213.0</ele><time>2026-05-03T09:34:07.213Z</time></trkpt><trkpt lat="44.3633788" lon="9.8885345"><ele>212.0</ele><time>2026-05-03T09:34:08.214Z</time></trkpt><trkpt lat="44.3634729" lon="9.888499"><ele>211.0</ele><time>2026-05-03T09:34:09.219Z</time></trkpt><trkpt lat="44.363592" lon="9.8885119"><ele>211.0</ele><time>2026-05-03T09:34:11.212Z</time></trkpt><trkpt lat="44.3636472" lon="9.8884008"><ele>211.0</ele><time>2026-05-03T09:34:13.209Z</time></trkpt><trkpt lat="44.3637071" lon="9.8883055"><ele>211.0</ele><time>2026-05-03T09:34:15.204Z</time></trkpt><trkpt lat="44.3636443" lon="9.8881984"><ele>211.0</ele><time>2026-05-03T09:34:28.218Z</time></trkpt><trkpt lat="44.3636064" lon="9.8880347"><ele>211.0</ele><time>2026-05-03T09:34:30.206Z</time></trkpt><trkpt lat="44.3636031" lon="9.8879167"><ele>211.0</ele><time>2026-05-03T09:34:31.201Z</time></trkpt><trkpt lat="44.3635883" lon="9.8877306"><ele>211.0</ele><time>2026-05-03T09:34:32.209Z</time></trkpt><trkpt lat="44.363592" lon="9.8875553"><ele>211.0</ele><time>2026-05-03T09:34:33.211Z</time></trkpt><trkpt lat="44.3635971" lon="9.8873854"><ele>211.0</ele><time>2026-05-03T09:34:34.214Z</time></trkpt><trkpt lat="44.3635939" lon="9.8872215"><ele>211.75</ele><time>2026-05-03T09:34:35.214Z</time></trkpt><trkpt lat="44.3635858" lon="9.8870514"><ele>212.5</ele><time>2026-05-03T09:34:36.211Z</time></trkpt><trkpt lat="44.3635984" lon="9.8868762"><ele>213.25</ele><time>2026-05-03T09:34:37.209Z</time></trkpt><trkpt lat="44.3636448" lon="9.8867044"><ele>214.0</ele><time>2026-05-03T09:34:38.208Z</time></trkpt><trkpt lat="44.3637087" lon="9.8865517"><ele>214.0</ele><time>2026-05-03T09:34:39.206Z</time></trkpt><trkpt lat="44.3637772" lon="9.8864111"><ele>214.0</ele><time>2026-05-03T09:34:40.216Z</time></trkpt><trkpt lat="44.3638824" lon="9.8862894"><ele>214.0</ele><time>2026-05-03T09:34:41.209Z</time></trkpt><trkpt lat="44.3639733" lon="9.8861591"><ele>214.0</ele><time>2026-05-03T09:34:42.21Z</time></trkpt><trkpt lat="44.3640565" lon="9.8860279"><ele>216.5</ele><time>2026-05-03T09:34:43.216Z</time></trkpt><trkpt lat="44.3641355" lon="9.8859014"><ele>219.0</ele><time>2026-05-03T09:34:44.213Z</time></trkpt><trkpt lat="44.3642108" lon="9.8857808"><ele>221.5</ele><time>2026-05-03T09:34:45.211Z</time></trkpt><trkpt lat="44.3642767" lon="9.8856515"><ele>224.0</ele><time>2026-05-03T09:34:46.209Z</time></trkpt><trkpt lat="44.3643449" lon="9.8855288"><ele>224.0</ele><time>2026-05-03T09:34:47.21Z</time></trkpt><trkpt lat="44.3644271" lon="9.8854021"><ele>224.0</ele><time>2026-05-03T09:34:48.211Z</time></trkpt><trkpt lat="44.3645277" lon="9.8853011"><ele>224.0</ele><time>2026-05-03T09:34:49.215Z</time></trkpt><trkpt lat="44.3646319" lon="9.8852094"><ele>224.0</ele><time>2026-05-03T09:34:50.204Z</time></trkpt><trkpt lat="44.3647365" lon="9.8851222"><ele>223.75</ele><time>2026-05-03T09:34:51.207Z</time></trkpt><trkpt lat="44.3648413" lon="9.8850446"><ele>223.5</ele><time>2026-05-03T09:34:52.203Z</time></trkpt><trkpt lat="44.3649526" lon="9.8849844"><ele>223.25</ele><time>2026-05-03T09:34:53.21Z</time></trkpt><trkpt lat="44.365057" lon="9.8849375"><ele>223.0</ele><time>2026-05-03T09:34:54.203Z</time></trkpt><trkpt lat="44.3651609" lon="9.8849003"><ele>223.0</ele><time>2026-05-03T09:34:55.202Z</time></trkpt><trkpt lat="44.3652687" lon="9.8848766"><ele>223.0</ele><time>2026-05-03T09:34:56.211Z</time></trkpt><trkpt lat="44.3653791" lon="9.8848921"><ele>223.0</ele><time>2026-05-03T09:34:57.208Z</time></trkpt><trkpt lat="44.3654946" lon="9.8849105"><ele>223.0</ele><time>2026-05-03T09:34:58.209Z</time></trkpt><trkpt lat="44.3656" lon="9.8849318"><ele>223.0</ele><time>2026-05-03T09:34:59.207Z</time></trkpt><trkpt lat="44.3657072" lon="9.8849556"><ele>224.5</ele><time>2026-05-03T09:35:00.213Z</time></trkpt><trkpt lat="44.3658178" lon="9.8849814"><ele>226.0</ele><time>2026-05-03T09:35:01.207Z</time></trkpt><trkpt lat="44.3659355" lon="9.8850119"><ele>227.5</ele><time>2026-05-03T09:35:02.206Z</time></trkpt><trkpt lat="44.3660446" lon="9.8850367"><ele>229.0</ele><time>2026-05-03T09:35:03.194Z</time></trkpt><trkpt lat="44.3661587" lon="9.8850591"><ele>229.0</ele><time>2026-05-03T09:35:04.197Z</time></trkpt><trkpt lat="44.3662788" lon="9.8850818"><ele>229.0</ele><time>2026-05-03T09:35:05.203Z</time></trkpt><trkpt lat="44.3663839" lon="9.8850928"><ele>229.0</ele><time>2026-05-03T09:35:06.206Z</time></trkpt><trkpt lat="44.3664961" lon="9.8851"><ele>229.0</ele><time>2026-05-03T09:35:07.201Z</time></trkpt><trkpt lat="44.3666126" lon="9.8850916"><ele>228.39999999999998</ele><time>2026-05-03T09:35:08.209Z</time></trkpt><trkpt lat="44.366718" lon="9.8850859"><ele>227.79999999999998</ele><time>2026-05-03T09:35:09.209Z</time></trkpt><trkpt lat="44.3668113" lon="9.8850743"><ele>227.20000000000002</ele><time>2026-05-03T09:35:10.222Z</time></trkpt><trkpt lat="44.3669144" lon="9.8850717"><ele>226.60000000000002</ele><time>2026-05-03T09:35:11.223Z</time></trkpt><trkpt lat="44.3670079" lon="9.8850767"><ele>226.0</ele><time>2026-05-03T09:35:12.216Z</time></trkpt><trkpt lat="44.3671229" lon="9.8850858"><ele>227.0</ele><time>2026-05-03T09:35:13.216Z</time></trkpt><trkpt lat="44.3672428" lon="9.8850962"><ele>228.00000000000003</ele><time>2026-05-03T09:35:14.214Z</time></trkpt><trkpt lat="44.3673528" lon="9.8851211"><ele>229.00000000000003</ele><time>2026-05-03T09:35:15.217Z</time></trkpt><trkpt lat="44.3674626" lon="9.8851331"><ele>230.0</ele><time>2026-05-03T09:35:16.216Z</time></trkpt><trkpt lat="44.3675646" lon="9.8851416"><ele>231.0</ele><time>2026-05-03T09:35:17.216Z</time></trkpt><trkpt lat="44.36766" lon="9.8851564"><ele>231.0</ele><time>2026-05-03T09:35:18.219Z</time></trkpt><trkpt lat="44.3677642" lon="9.8851612"><ele>231.00000000000003</ele><time>2026-05-03T09:35:19.219Z</time></trkpt><trkpt lat="44.3678626" lon="9.8851669"><ele>231.00000000000003</ele><time>2026-05-03T09:35:20.219Z</time></trkpt><trkpt lat="44.3679518" lon="9.8851764"><ele>231.0</ele><time>2026-05-03T09:35:21.216Z</time></trkpt><trkpt lat="44.3680384" lon="9.8851989"><ele>231.0</ele><time>2026-05-03T09:35:22.212Z</time></trkpt><trkpt lat="44.3681295" lon="9.8852402"><ele>230.83333333333334</ele><time>2026-05-03T09:35:23.216Z</time></trkpt><trkpt lat="44.3682116" lon="9.8852793"><ele>230.66666666666669</ele><time>2026-05-03T09:35:24.211Z</time></trkpt><trkpt lat="44.368295" lon="9.8853167"><ele>230.5</ele><time>2026-05-03T09:35:25.213Z</time></trkpt><trkpt lat="44.3683633" lon="9.8853643"><ele>230.33333333333334</ele><time>2026-05-03T09:35:26.213Z</time></trkpt><trkpt lat="44.3684275" lon="9.8854063"><ele>230.16666666666669</ele><time>2026-05-03T09:35:27.214Z</time></trkpt><trkpt lat="44.3684909" lon="9.8854469"><ele>230.0</ele><time>2026-05-03T09:35:28.219Z</time></trkpt><trkpt lat="44.3685637" lon="9.8854888"><ele>230.0</ele><time>2026-05-03T09:35:29.216Z</time></trkpt><trkpt lat="44.3686511" lon="9.8855337"><ele>230.0</ele><time>2026-05-03T09:35:30.213Z</time></trkpt><trkpt lat="44.368743" lon="9.8855854"><ele>230.0</ele><time>2026-05-03T09:35:31.214Z</time></trkpt><trkpt lat="44.3688253" lon="9.8856412"><ele>230.0</ele><time>2026-05-03T09:35:32.224Z</time></trkpt><trkpt lat="44.3689046" lon="9.8856979"><ele>230.0</ele><time>2026-05-03T09:35:33.215Z</time></trkpt><trkpt lat="44.3689878" lon="9.8857484"><ele>230.2</ele><time>2026-05-03T09:35:34.219Z</time></trkpt><trkpt lat="44.3690784" lon="9.8858025"><ele>230.4</ele><time>2026-05-03T09:35:35.22Z</time></trkpt><trkpt lat="44.3691692" lon="9.8858679"><ele>230.60000000000002</ele><time>2026-05-03T09:35:36.22Z</time></trkpt><trkpt lat="44.3692669" lon="9.8859315"><ele>230.8</ele><time>2026-05-03T09:35:37.22Z</time></trkpt><trkpt lat="44.3693619" lon="9.8859959"><ele>231.0</ele><time>2026-05-03T09:35:38.223Z</time></trkpt><trkpt lat="44.3694497" lon="9.8860471"><ele>231.0</ele><time>2026-05-03T09:35:39.218Z</time></trkpt><trkpt lat="44.3695155" lon="9.8860985"><ele>231.0</ele><time>2026-05-03T09:35:40.216Z</time></trkpt><trkpt lat="44.3695747" lon="9.8861437"><ele>231.0</ele><time>2026-05-03T09:35:41.216Z</time></trkpt><trkpt lat="44.3696449" lon="9.8861951"><ele>231.0</ele><time>2026-05-03T09:35:42.225Z</time></trkpt><trkpt lat="44.3697221" lon="9.8862496"><ele>231.0</ele><time>2026-05-03T09:35:43.217Z</time></trkpt><trkpt lat="44.3698118" lon="9.8863069"><ele>231.0</ele><time>2026-05-03T09:35:44.221Z</time></trkpt><trkpt lat="44.3699041" lon="9.8863523"><ele>231.0</ele><time>2026-05-03T09:35:45.219Z</time></trkpt><trkpt lat="44.369999" lon="9.8864235"><ele>231.0</ele><time>2026-05-03T09:35:46.217Z</time></trkpt><trkpt lat="44.3701016" lon="9.8864972"><ele>231.0</ele><time>2026-05-03T09:35:47.213Z</time></trkpt><trkpt lat="44.370208" lon="9.8865834"><ele>231.0</ele><time>2026-05-03T09:35:48.211Z</time></trkpt><trkpt lat="44.3703205" lon="9.8866871"><ele>231.25</ele><time>2026-05-03T09:35:49.213Z</time></trkpt><trkpt lat="44.3704439" lon="9.8867893"><ele>231.5</ele><time>2026-05-03T09:35:50.212Z</time></trkpt><trkpt lat="44.3705662" lon="9.8868992"><ele>231.75</ele><time>2026-05-03T09:35:51.214Z</time></trkpt><trkpt lat="44.3707" lon="9.8869938"><ele>232.0</ele><time>2026-05-03T09:35:52.217Z</time></trkpt><trkpt lat="44.3708425" lon="9.8870637"><ele>232.0</ele><time>2026-05-03T09:35:53.214Z</time></trkpt><trkpt lat="44.3709904" lon="9.8871315"><ele>232.0</ele><time>2026-05-03T09:35:54.216Z</time></trkpt><trkpt lat="44.3711408" lon="9.8871767"><ele>232.0</ele><time>2026-05-03T09:35:55.217Z</time></trkpt><trkpt lat="44.3712961" lon="9.8872074"><ele>232.66666666666666</ele><time>2026-05-03T09:35:56.221Z</time></trkpt><trkpt lat="44.3714279" lon="9.8872669"><ele>233.33333333333331</ele><time>2026-05-03T09:35:57.216Z</time></trkpt><trkpt lat="44.3715874" lon="9.8872979"><ele>234.0</ele><time>2026-05-03T09:35:58.215Z</time></trkpt><trkpt lat="44.3717627" lon="9.8872767"><ele>234.0</ele><time>2026-05-03T09:35:59.215Z</time></trkpt><trkpt lat="44.371951" lon="9.8872706"><ele>234.0</ele><time>2026-05-03T09:36:00.214Z</time></trkpt><trkpt lat="44.3721203" lon="9.8872012"><ele>234.0</ele><time>2026-05-03T09:36:01.214Z</time></trkpt><trkpt lat="44.3722883" lon="9.8871453"><ele>234.33333333333331</ele><time>2026-05-03T09:36:02.216Z</time></trkpt><trkpt lat="44.3724864" lon="9.887076"><ele>234.66666666666666</ele><time>2026-05-03T09:36:03.21Z</time></trkpt><trkpt lat="44.3726298" lon="9.8870124"><ele>235.0</ele><time>2026-05-03T09:36:04.217Z</time></trkpt><trkpt lat="44.3728004" lon="9.886945"><ele>235.0</ele><time>2026-05-03T09:36:05.22Z</time></trkpt><trkpt lat="44.3729813" lon="9.8869056"><ele>235.0</ele><time>2026-05-03T09:36:06.216Z</time></trkpt><trkpt lat="44.373145" lon="9.8868655"><ele>235.0</ele><time>2026-05-03T09:36:07.219Z</time></trkpt><trkpt lat="44.3732841" lon="9.8867904"><ele>234.66666666666666</ele><time>2026-05-03T09:36:08.22Z</time></trkpt><trkpt lat="44.3734256" lon="9.8867255"><ele>234.33333333333331</ele><time>2026-05-03T09:36:09.221Z</time></trkpt><trkpt lat="44.3735751" lon="9.8866705"><ele>234.0</ele><time>2026-05-03T09:36:10.214Z</time></trkpt><trkpt lat="44.3737315" lon="9.8866203"><ele>234.33333333333331</ele><time>2026-05-03T09:36:11.226Z</time></trkpt><trkpt lat="44.3738901" lon="9.88659"><ele>234.66666666666666</ele><time>2026-05-03T09:36:12.223Z</time></trkpt><trkpt lat="44.3740525" lon="9.886566"><ele>235.0</ele><time>2026-05-03T09:36:13.227Z</time></trkpt><trkpt lat="44.3742106" lon="9.8865139"><ele>235.0</ele><time>2026-05-03T09:36:14.216Z</time></trkpt><trkpt lat="44.37436" lon="9.8864745"><ele>235.0</ele><time>2026-05-03T09:36:15.216Z</time></trkpt><trkpt lat="44.3745189" lon="9.8864099"><ele>235.0</ele><time>2026-05-03T09:36:16.218Z</time></trkpt><trkpt lat="44.3746462" lon="9.886347"><ele>236.0</ele><time>2026-05-03T09:36:17.225Z</time></trkpt><trkpt lat="44.3747769" lon="9.8863007"><ele>237.0</ele><time>2026-05-03T09:36:18.22Z</time></trkpt><trkpt lat="44.3749046" lon="9.8862446"><ele>238.0</ele><time>2026-05-03T09:36:19.228Z</time></trkpt><trkpt lat="44.3750316" lon="9.8862223"><ele>239.0</ele><time>2026-05-03T09:36:20.226Z</time></trkpt><trkpt lat="44.3751669" lon="9.8861275"><ele>239.0</ele><time>2026-05-03T09:36:21.218Z</time></trkpt><trkpt lat="44.3752996" lon="9.8860952"><ele>239.0</ele><time>2026-05-03T09:36:22.222Z</time></trkpt><trkpt lat="44.3754153" lon="9.8860067"><ele>239.0</ele><time>2026-05-03T09:36:23.215Z</time></trkpt><trkpt lat="44.3755258" lon="9.8859227"><ele>239.0</ele><time>2026-05-03T09:36:24.218Z</time></trkpt><trkpt lat="44.375621" lon="9.8858323"><ele>240.25</ele><time>2026-05-03T09:36:25.218Z</time></trkpt><trkpt lat="44.3757253" lon="9.8857317"><ele>241.5</ele><time>2026-05-03T09:36:26.225Z</time></trkpt><trkpt lat="44.3758391" lon="9.885654"><ele>242.75</ele><time>2026-05-03T09:36:27.226Z</time></trkpt><trkpt lat="44.3759498" lon="9.8855835"><ele>244.0</ele><time>2026-05-03T09:36:28.219Z</time></trkpt><trkpt lat="44.376051" lon="9.8855247"><ele>244.0</ele><time>2026-05-03T09:36:29.22Z</time></trkpt><trkpt lat="44.3761496" lon="9.885475"><ele>243.99999999999997</ele><time>2026-05-03T09:36:30.222Z</time></trkpt><trkpt lat="44.376248" lon="9.885431"><ele>243.99999999999997</ele><time>2026-05-03T09:36:31.224Z</time></trkpt><trkpt lat="44.3763537" lon="9.8853875"><ele>244.0</ele><time>2026-05-03T09:36:32.225Z</time></trkpt><trkpt lat="44.3764753" lon="9.8853445"><ele>244.0</ele><time>2026-05-03T09:36:33.219Z</time></trkpt><trkpt lat="44.3765952" lon="9.8852842"><ele>246.5</ele><time>2026-05-03T09:36:34.223Z</time></trkpt><trkpt lat="44.3767112" lon="9.8852212"><ele>249.0</ele><time>2026-05-03T09:36:35.227Z</time></trkpt><trkpt lat="44.3768259" lon="9.8851735"><ele>251.5</ele><time>2026-05-03T09:36:36.222Z</time></trkpt><trkpt lat="44.3769425" lon="9.8851389"><ele>254.0</ele><time>2026-05-03T09:36:37.227Z</time></trkpt><trkpt lat="44.3770618" lon="9.8851052"><ele>251.5</ele><time>2026-05-03T09:36:38.218Z</time></trkpt><trkpt lat="44.3771866" lon="9.8850775"><ele>249.0</ele><time>2026-05-03T09:36:39.222Z</time></trkpt><trkpt lat="44.3773109" lon="9.8850433"><ele>246.5</ele><time>2026-05-03T09:36:40.219Z</time></trkpt><trkpt lat="44.3774421" lon="9.8849981"><ele>244.0</ele><time>2026-05-03T09:36:41.227Z</time></trkpt><trkpt lat="44.3775665" lon="9.8849442"><ele>244.0</ele><time>2026-05-03T09:36:42.222Z</time></trkpt><trkpt lat="44.3776973" lon="9.8848909"><ele>244.0</ele><time>2026-05-03T09:36:43.222Z</time></trkpt><trkpt lat="44.3778245" lon="9.8848277"><ele>244.0</ele><time>2026-05-03T09:36:44.229Z</time></trkpt><trkpt lat="44.3779461" lon="9.8847742"><ele>244.0</ele><time>2026-05-03T09:36:45.224Z</time></trkpt><trkpt lat="44.3780681" lon="9.8847227"><ele>245.0</ele><time>2026-05-03T09:36:46.224Z</time></trkpt><trkpt lat="44.3781914" lon="9.8846769"><ele>246.0</ele><time>2026-05-03T09:36:47.223Z</time></trkpt><trkpt lat="44.3783064" lon="9.8846356"><ele>247.0</ele><time>2026-05-03T09:36:48.223Z</time></trkpt><trkpt lat="44.3784187" lon="9.8845927"><ele>248.0</ele><time>2026-05-03T09:36:49.219Z</time></trkpt><trkpt lat="44.3785173" lon="9.8845566"><ele>248.0</ele><time>2026-05-03T09:36:50.225Z</time></trkpt><trkpt lat="44.378622" lon="9.8845171"><ele>248.0</ele><time>2026-05-03T09:36:51.226Z</time></trkpt><trkpt lat="44.3787371" lon="9.8844727"><ele>248.0</ele><time>2026-05-03T09:36:52.227Z</time></trkpt><trkpt lat="44.3788564" lon="9.8844204"><ele>248.0</ele><time>2026-05-03T09:36:53.231Z</time></trkpt><trkpt lat="44.3789789" lon="9.884364"><ele>249.0</ele><time>2026-05-03T09:36:54.226Z</time></trkpt><trkpt lat="44.379089" lon="9.8843032"><ele>250.0</ele><time>2026-05-03T09:36:55.227Z</time></trkpt><trkpt lat="44.3791872" lon="9.8842456"><ele>251.0</ele><time>2026-05-03T09:36:56.227Z</time></trkpt><trkpt lat="44.3792869" lon="9.884186"><ele>252.0</ele><time>2026-05-03T09:36:57.227Z</time></trkpt><trkpt lat="44.3793792" lon="9.8841286"><ele>253.0</ele><time>2026-05-03T09:36:58.227Z</time></trkpt><trkpt lat="44.3794734" lon="9.8840825"><ele>252.2</ele><time>2026-05-03T09:36:59.218Z</time></trkpt><trkpt lat="44.3795637" lon="9.8840473"><ele>251.4</ele><time>2026-05-03T09:37:00.224Z</time></trkpt><trkpt lat="44.3796632" lon="9.8840171"><ele>250.59999999999997</ele><time>2026-05-03T09:37:01.219Z</time></trkpt><trkpt lat="44.3797599" lon="9.8839918"><ele>249.79999999999998</ele><time>2026-05-03T09:37:02.204Z</time></trkpt><trkpt lat="44.3798563" lon="9.8839668"><ele>249.0</ele><time>2026-05-03T09:37:03.188Z</time></trkpt><trkpt lat="44.3799538" lon="9.883942"><ele>245.0</ele><time>2026-05-03T09:37:04.164Z</time></trkpt><trkpt lat="44.3817554" lon="9.8835189"><ele>260.0</ele><time>2026-05-03T09:37:15.547Z</time></trkpt><trkpt lat="44.3820741" lon="9.8846565"><ele>258.0</ele><time>2026-05-03T09:37:18.211Z</time></trkpt><trkpt lat="44.3822363" lon="9.8844575"><ele>256.0</ele><time>2026-05-03T09:37:19.205Z</time></trkpt><trkpt lat="44.382381" lon="9.8842163"><ele>254.0</ele><time>2026-05-03T09:37:20.219Z</time></trkpt><trkpt lat="44.3824681" lon="9.8841418"><ele>253.16666666666669</ele><time>2026-05-03T09:37:21.224Z</time></trkpt><trkpt lat="44.3825295" lon="9.8840823"><ele>252.33333333333334</ele><time>2026-05-03T09:37:22.223Z</time></trkpt><trkpt lat="44.3825778" lon="9.8840167"><ele>251.5</ele><time>2026-05-03T09:37:23.221Z</time></trkpt><trkpt lat="44.3826534" lon="9.8839644"><ele>250.66666666666669</ele><time>2026-05-03T09:37:25.218Z</time></trkpt><trkpt lat="44.3827379" lon="9.8839487"><ele>249.83333333333334</ele><time>2026-05-03T09:37:27.218Z</time></trkpt><trkpt lat="44.382841" lon="9.8838506"><ele>249.0</ele><time>2026-05-03T09:38:00.211Z</time></trkpt><trkpt lat="44.3829134" lon="9.8838025"><ele>249.0</ele><time>2026-05-03T09:38:01.216Z</time></trkpt><trkpt lat="44.3830069" lon="9.8837592"><ele>249.0</ele><time>2026-05-03T09:38:02.215Z</time></trkpt><trkpt lat="44.3831093" lon="9.8837074"><ele>249.0</ele><time>2026-05-03T09:38:03.214Z</time></trkpt><trkpt lat="44.3832235" lon="9.883665"><ele>249.0</ele><time>2026-05-03T09:38:04.212Z</time></trkpt><trkpt lat="44.3833453" lon="9.8836312"><ele>249.0</ele><time>2026-05-03T09:38:05.214Z</time></trkpt><trkpt lat="44.383475" lon="9.8836002"><ele>249.0</ele><time>2026-05-03T09:38:06.223Z</time></trkpt><trkpt lat="44.3836088" lon="9.8835715"><ele>249.0</ele><time>2026-05-03T09:38:07.209Z</time></trkpt><trkpt lat="44.3837506" lon="9.8835208"><ele>249.0</ele><time>2026-05-03T09:38:08.212Z</time></trkpt><trkpt lat="44.3838837" lon="9.883477"><ele>250.0</ele><time>2026-05-03T09:38:09.213Z</time></trkpt><trkpt lat="44.3840296" lon="9.883457"><ele>251.0</ele><time>2026-05-03T09:38:10.209Z</time></trkpt><trkpt lat="44.3841677" lon="9.8834451"><ele>252.0</ele><time>2026-05-03T09:38:11.212Z</time></trkpt><trkpt lat="44.384317" lon="9.8834571"><ele>253.0</ele><time>2026-05-03T09:38:12.211Z</time></trkpt><trkpt lat="44.3844803" lon="9.8834973"><ele>253.0</ele><time>2026-05-03T09:38:13.208Z</time></trkpt><trkpt lat="44.3846564" lon="9.8835297"><ele>253.0</ele><time>2026-05-03T09:38:14.215Z</time></trkpt><trkpt lat="44.384846" lon="9.8835733"><ele>253.0</ele><time>2026-05-03T09:38:15.214Z</time></trkpt><trkpt lat="44.3850256" lon="9.8835846"><ele>254.0</ele><time>2026-05-03T09:38:16.231Z</time></trkpt><trkpt lat="44.3852052" lon="9.8836046"><ele>255.0</ele><time>2026-05-03T09:38:17.213Z</time></trkpt><trkpt lat="44.3854168" lon="9.8836323"><ele>256.0</ele><time>2026-05-03T09:38:18.216Z</time></trkpt><trkpt lat="44.3856434" lon="9.8836718"><ele>257.0</ele><time>2026-05-03T09:38:19.215Z</time></trkpt><trkpt lat="44.3858776" lon="9.88371"><ele>258.0</ele><time>2026-05-03T09:38:20.217Z</time></trkpt><trkpt lat="44.3861485" lon="9.8837873"><ele>259.5</ele><time>2026-05-03T09:38:21.219Z</time></trkpt><trkpt lat="44.3864121" lon="9.8838642"><ele>261.0</ele><time>2026-05-03T09:38:22.22Z</time></trkpt><trkpt lat="44.3866628" lon="9.8839468"><ele>261.0</ele><time>2026-05-03T09:38:23.221Z</time></trkpt><trkpt lat="44.3869121" lon="9.8840446"><ele>261.0</ele><time>2026-05-03T09:38:24.219Z</time></trkpt><trkpt lat="44.3871455" lon="9.884116"><ele>262.3333333333333</ele><time>2026-05-03T09:38:25.219Z</time></trkpt><trkpt lat="44.3873367" lon="9.8841373"><ele>263.66666666666663</ele><time>2026-05-03T09:38:26.227Z</time></trkpt><trkpt lat="44.3875058" lon="9.8841631"><ele>265.0</ele><time>2026-05-03T09:38:27.22Z</time></trkpt><trkpt lat="44.3876649" lon="9.8841857"><ele>265.0</ele><time>2026-05-03T09:38:28.22Z</time></trkpt><trkpt lat="44.38783" lon="9.8842115"><ele>265.0</ele><time>2026-05-03T09:38:29.22Z</time></trkpt><trkpt lat="44.3880027" lon="9.8842389"><ele>265.0</ele><time>2026-05-03T09:38:30.225Z</time></trkpt><trkpt lat="44.3881594" lon="9.8842545"><ele>265.0</ele><time>2026-05-03T09:38:31.223Z</time></trkpt><trkpt lat="44.3883222" lon="9.8842766"><ele>265.0</ele><time>2026-05-03T09:38:32.219Z</time></trkpt><trkpt lat="44.3884719" lon="9.8842938"><ele>265.0</ele><time>2026-05-03T09:38:33.214Z</time></trkpt><trkpt lat="44.3886181" lon="9.8843354"><ele>265.0</ele><time>2026-05-03T09:38:34.216Z</time></trkpt><trkpt lat="44.3887723" lon="9.8843732"><ele>265.0</ele><time>2026-05-03T09:38:35.217Z</time></trkpt><trkpt lat="44.3889345" lon="9.8844094"><ele>265.0</ele><time>2026-05-03T09:38:36.225Z</time></trkpt><trkpt lat="44.3890768" lon="9.8844333"><ele>265.0</ele><time>2026-05-03T09:38:37.217Z</time></trkpt><trkpt lat="44.3892007" lon="9.8844443"><ele>265.0</ele><time>2026-05-03T09:38:38.216Z</time></trkpt><trkpt lat="44.3893149" lon="9.8844379"><ele>265.0</ele><time>2026-05-03T09:38:39.214Z</time></trkpt><trkpt lat="44.3894328" lon="9.8844321"><ele>265.0</ele><time>2026-05-03T09:38:40.213Z</time></trkpt><trkpt lat="44.3895778" lon="9.8843944"><ele>265.75</ele><time>2026-05-03T09:38:41.212Z</time></trkpt><trkpt lat="44.389698" lon="9.8843706"><ele>266.5</ele><time>2026-05-03T09:38:42.21Z</time></trkpt><trkpt lat="44.3898155" lon="9.8843161"><ele>267.25</ele><time>2026-05-03T09:38:43.209Z</time></trkpt><trkpt lat="44.3899397" lon="9.8842642"><ele>268.0</ele><time>2026-05-03T09:38:44.207Z</time></trkpt><trkpt lat="44.3900725" lon="9.8842123"><ele>270.25</ele><time>2026-05-03T09:38:45.212Z</time></trkpt><trkpt lat="44.3902139" lon="9.8841805"><ele>272.5</ele><time>2026-05-03T09:38:46.219Z</time></trkpt><trkpt lat="44.3903407" lon="9.8841319"><ele>274.75</ele><time>2026-05-03T09:38:47.213Z</time></trkpt><trkpt lat="44.3904662" lon="9.8840644"><ele>277.0</ele><time>2026-05-03T09:38:48.207Z</time></trkpt><trkpt lat="44.390583" lon="9.8839963"><ele>277.0</ele><time>2026-05-03T09:38:49.207Z</time></trkpt><trkpt lat="44.390691" lon="9.8839109"><ele>277.0</ele><time>2026-05-03T09:38:50.21Z</time></trkpt><trkpt lat="44.3907931" lon="9.8838248"><ele>277.0</ele><time>2026-05-03T09:38:51.207Z</time></trkpt><trkpt lat="44.3908857" lon="9.8837374"><ele>277.0</ele><time>2026-05-03T09:38:52.207Z</time></trkpt><trkpt lat="44.390981" lon="9.8836294"><ele>277.0</ele><time>2026-05-03T09:38:53.21Z</time></trkpt><trkpt lat="44.3910739" lon="9.8835069"><ele>277.0</ele><time>2026-05-03T09:38:54.207Z</time></trkpt><trkpt lat="44.3911677" lon="9.8833937"><ele>277.0</ele><time>2026-05-03T09:38:55.205Z</time></trkpt><trkpt lat="44.3912634" lon="9.8832959"><ele>277.0</ele><time>2026-05-03T09:38:56.218Z</time></trkpt><trkpt lat="44.3913557" lon="9.8831969"><ele>278.25</ele><time>2026-05-03T09:38:57.213Z</time></trkpt><trkpt lat="44.3914652" lon="9.8831022"><ele>279.5</ele><time>2026-05-03T09:38:58.208Z</time></trkpt><trkpt lat="44.391572" lon="9.8830036"><ele>280.75</ele><time>2026-05-03T09:38:59.209Z</time></trkpt><trkpt lat="44.3916789" lon="9.882884"><ele>282.0</ele><time>2026-05-03T09:39:00.211Z</time></trkpt><trkpt lat="44.3917829" lon="9.8827737"><ele>282.0</ele><time>2026-05-03T09:39:01.216Z</time></trkpt><trkpt lat="44.3918977" lon="9.8826683"><ele>282.0</ele><time>2026-05-03T09:39:02.216Z</time></trkpt><trkpt lat="44.3920013" lon="9.8825696"><ele>282.0</ele><time>2026-05-03T09:39:03.211Z</time></trkpt><trkpt lat="44.3921028" lon="9.8824783"><ele>282.0</ele><time>2026-05-03T09:39:04.214Z</time></trkpt><trkpt lat="44.3922123" lon="9.8823712"><ele>283.5</ele><time>2026-05-03T09:39:05.217Z</time></trkpt><trkpt lat="44.3923157" lon="9.8822685"><ele>285.0</ele><time>2026-05-03T09:39:06.223Z</time></trkpt><trkpt lat="44.392423" lon="9.8821614"><ele>286.5</ele><time>2026-05-03T09:39:07.212Z</time></trkpt><trkpt lat="44.392535" lon="9.8820549"><ele>288.0</ele><time>2026-05-03T09:39:08.21Z</time></trkpt><trkpt lat="44.3926427" lon="9.8819453"><ele>288.0</ele><time>2026-05-03T09:39:09.213Z</time></trkpt><trkpt lat="44.39275" lon="9.8818379"><ele>288.0</ele><time>2026-05-03T09:39:10.215Z</time></trkpt><trkpt lat="44.3928549" lon="9.8817238"><ele>288.0</ele><time>2026-05-03T09:39:11.216Z</time></trkpt><trkpt lat="44.3929499" lon="9.8816033"><ele>288.0</ele><time>2026-05-03T09:39:12.217Z</time></trkpt><trkpt lat="44.3930395" lon="9.8814742"><ele>287.2</ele><time>2026-05-03T09:39:13.221Z</time></trkpt><trkpt lat="44.393159" lon="9.8813773"><ele>286.4</ele><time>2026-05-03T09:39:14.22Z</time></trkpt><trkpt lat="44.3932787" lon="9.8813103"><ele>285.59999999999997</ele><time>2026-05-03T09:39:15.211Z</time></trkpt><trkpt lat="44.3933781" lon="9.8812789"><ele>284.8</ele><time>2026-05-03T09:39:16.225Z</time></trkpt><trkpt lat="44.3934523" lon="9.8813017"><ele>284.0</ele><time>2026-05-03T09:39:17.218Z</time></trkpt><trkpt lat="44.3935483" lon="9.8813924"><ele>284.0</ele><time>2026-05-03T09:39:18.219Z</time></trkpt><trkpt lat="44.3936292" lon="9.8814855"><ele>284.0</ele><time>2026-05-03T09:39:19.208Z</time></trkpt><trkpt lat="44.3937325" lon="9.8816305"><ele>284.0</ele><time>2026-05-03T09:39:20.215Z</time></trkpt><trkpt lat="44.393864" lon="9.8817833"><ele>284.0</ele><time>2026-05-03T09:39:21.216Z</time></trkpt><trkpt lat="44.3939909" lon="9.8819405"><ele>284.33333333333337</ele><time>2026-05-03T09:39:22.216Z</time></trkpt><trkpt lat="44.3941331" lon="9.8821084"><ele>284.6666666666667</ele><time>2026-05-03T09:39:23.214Z</time></trkpt><trkpt lat="44.3942553" lon="9.8822513"><ele>285.0</ele><time>2026-05-03T09:39:24.217Z</time></trkpt><trkpt lat="44.3943577" lon="9.8824018"><ele>285.0</ele><time>2026-05-03T09:39:25.215Z</time></trkpt><trkpt lat="44.394506" lon="9.8825167"><ele>285.0</ele><time>2026-05-03T09:39:26.226Z</time></trkpt><trkpt lat="44.3946657" lon="9.8826103"><ele>285.0</ele><time>2026-05-03T09:39:27.217Z</time></trkpt><trkpt lat="44.3948532" lon="9.8826123"><ele>290.3333333333333</ele><time>2026-05-03T09:39:28.211Z</time></trkpt><trkpt lat="44.3950899" lon="9.8825898"><ele>295.66666666666663</ele><time>2026-05-03T09:39:29.206Z</time></trkpt><trkpt lat="44.3952997" lon="9.8825941"><ele>301.0</ele><time>2026-05-03T09:39:30.208Z</time></trkpt><trkpt lat="44.3955238" lon="9.8825946"><ele>298.5</ele><time>2026-05-03T09:39:31.205Z</time></trkpt><trkpt lat="44.3957528" lon="9.8826682"><ele>296.0</ele><time>2026-05-03T09:39:32.198Z</time></trkpt><trkpt lat="44.3959744" lon="9.8827499"><ele>296.0</ele><time>2026-05-03T09:39:33.204Z</time></trkpt><trkpt lat="44.3961737" lon="9.8827888"><ele>296.0</ele><time>2026-05-03T09:39:34.204Z</time></trkpt><trkpt lat="44.3963759" lon="9.8828813"><ele>296.0</ele><time>2026-05-03T09:39:35.201Z</time></trkpt><trkpt lat="44.3965671" lon="9.8830021"><ele>300.0</ele><time>2026-05-03T09:39:36.208Z</time></trkpt><trkpt lat="44.3966845" lon="9.8832154"><ele>304.0</ele><time>2026-05-03T09:39:37.215Z</time></trkpt><trkpt lat="44.3967653" lon="9.8834582"><ele>308.0</ele><time>2026-05-03T09:39:38.204Z</time></trkpt><trkpt lat="44.3968321" lon="9.8837275"><ele>308.0</ele><time>2026-05-03T09:39:39.201Z</time></trkpt><trkpt lat="44.3969368" lon="9.883957"><ele>308.0</ele><time>2026-05-03T09:39:40.205Z</time></trkpt><trkpt lat="44.3970515" lon="9.8842631"><ele>308.0</ele><time>2026-05-03T09:39:41.21Z</time></trkpt><trkpt lat="44.3971684" lon="9.884534"><ele>316.5</ele><time>2026-05-03T09:39:42.211Z</time></trkpt><trkpt lat="44.3972912" lon="9.8848275"><ele>325.0</ele><time>2026-05-03T09:39:43.212Z</time></trkpt><trkpt lat="44.3974416" lon="9.8850645"><ele>319.0</ele><time>2026-05-03T09:39:44.211Z</time></trkpt><trkpt lat="44.3976095" lon="9.8853344"><ele>313.0</ele><time>2026-05-03T09:39:45.212Z</time></trkpt><trkpt lat="44.3977932" lon="9.8855468"><ele>313.0</ele><time>2026-05-03T09:39:46.215Z</time></trkpt><trkpt lat="44.3979197" lon="9.8856718"><ele>313.0</ele><time>2026-05-03T09:39:47.225Z</time></trkpt><trkpt lat="44.3980292" lon="9.8858082"><ele>313.0</ele><time>2026-05-03T09:39:48.216Z</time></trkpt><trkpt lat="44.3981196" lon="9.8858693"><ele>313.0</ele><time>2026-05-03T09:39:49.21Z</time></trkpt><trkpt lat="44.3982844" lon="9.8857457"><ele>318.0</ele><time>2026-05-03T09:39:50.224Z</time></trkpt><trkpt lat="44.3984405" lon="9.8856892"><ele>323.0</ele><time>2026-05-03T09:39:51.21Z</time></trkpt><trkpt lat="44.398616" lon="9.8856211"><ele>328.0</ele><time>2026-05-03T09:39:52.211Z</time></trkpt><trkpt lat="44.3987963" lon="9.8856712"><ele>332.25</ele><time>2026-05-03T09:39:53.208Z</time></trkpt><trkpt lat="44.3989274" lon="9.8857064"><ele>336.5</ele><time>2026-05-03T09:39:54.207Z</time></trkpt><trkpt lat="44.3990349" lon="9.8857624"><ele>340.75</ele><time>2026-05-03T09:39:55.21Z</time></trkpt><trkpt lat="44.3991665" lon="9.8858233"><ele>345.0</ele><time>2026-05-03T09:39:56.207Z</time></trkpt><trkpt lat="44.3992944" lon="9.8858558"><ele>345.3333333333333</ele><time>2026-05-03T09:39:57.223Z</time></trkpt><trkpt lat="44.3994035" lon="9.885945"><ele>345.66666666666663</ele><time>2026-05-03T09:39:58.21Z</time></trkpt><trkpt lat="44.3995406" lon="9.8859667"><ele>346.0</ele><time>2026-05-03T09:39:59.216Z</time></trkpt><trkpt lat="44.3997432" lon="9.88602"><ele>346.0</ele><time>2026-05-03T09:40:00.21Z</time></trkpt><trkpt lat="44.3998853" lon="9.8861284"><ele>346.0</ele><time>2026-05-03T09:40:01.216Z</time></trkpt><trkpt lat="44.4000114" lon="9.8863109"><ele>346.0</ele><time>2026-05-03T09:40:02.213Z</time></trkpt><trkpt lat="44.4001397" lon="9.8865074"><ele>346.0</ele><time>2026-05-03T09:40:03.218Z</time></trkpt><trkpt lat="44.4002367" lon="9.8866934"><ele>346.0</ele><time>2026-05-03T09:40:04.209Z</time></trkpt><trkpt lat="44.4002868" lon="9.8869274"><ele>346.0</ele><time>2026-05-03T09:40:05.213Z</time></trkpt><trkpt lat="44.4003059" lon="9.8871385"><ele>346.3333333333333</ele><time>2026-05-03T09:40:06.223Z</time></trkpt><trkpt lat="44.4003286" lon="9.8873271"><ele>346.6666666666667</ele><time>2026-05-03T09:40:07.228Z</time></trkpt><trkpt lat="44.4004369" lon="9.8875174"><ele>347.0</ele><time>2026-05-03T09:40:08.216Z</time></trkpt><trkpt lat="44.4005681" lon="9.887657"><ele>347.0</ele><time>2026-05-03T09:40:09.217Z</time></trkpt><trkpt lat="44.4006773" lon="9.8877979"><ele>347.0</ele><time>2026-05-03T09:40:10.216Z</time></trkpt><trkpt lat="44.4007519" lon="9.8879425"><ele>347.0</ele><time>2026-05-03T09:40:11.216Z</time></trkpt><trkpt lat="44.4008423" lon="9.8880663"><ele>347.0</ele><time>2026-05-03T09:40:12.211Z</time></trkpt><trkpt lat="44.4009902" lon="9.8881977"><ele>347.0</ele><time>2026-05-03T09:40:13.217Z</time></trkpt><trkpt lat="44.401083" lon="9.8882528"><ele>347.0</ele><time>2026-05-03T09:40:14.218Z</time></trkpt><trkpt lat="44.4011698" lon="9.8882873"><ele>347.0</ele><time>2026-05-03T09:40:15.213Z</time></trkpt><trkpt lat="44.4012902" lon="9.8883768"><ele>347.0</ele><time>2026-05-03T09:40:16.209Z</time></trkpt><trkpt lat="44.4014103" lon="9.8883657"><ele>347.0</ele><time>2026-05-03T09:40:18.177Z</time></trkpt><trkpt lat="44.401482" lon="9.888379"><ele>352.25</ele><time>2026-05-03T09:40:19.163Z</time></trkpt><trkpt lat="44.4015491" lon="9.8883322"><ele>357.5</ele><time>2026-05-03T09:40:20.176Z</time></trkpt><trkpt lat="44.4016193" lon="9.888296"><ele>362.75</ele><time>2026-05-03T09:40:21.167Z</time></trkpt><trkpt lat="44.4015015" lon="9.8881297"><ele>368.0</ele><time>2026-05-03T09:40:22.162Z</time></trkpt><trkpt lat="44.4013802" lon="9.8879528"><ele>367.0</ele><time>2026-05-03T09:40:23.182Z</time></trkpt><trkpt lat="44.4012579" lon="9.8877881"><ele>366.0</ele><time>2026-05-03T09:40:24.18Z</time></trkpt><trkpt lat="44.4011345" lon="9.8874142"><ele>366.0</ele><time>2026-05-03T09:40:25.171Z</time></trkpt><trkpt lat="44.4010925" lon="9.8869056"><ele>366.0</ele><time>2026-05-03T09:40:26.171Z</time></trkpt><trkpt lat="44.4008331" lon="9.8864128"><ele>373.0</ele><time>2026-05-03T09:40:27.196Z</time></trkpt><trkpt lat="44.4006137" lon="9.8861609"><ele>380.0</ele><time>2026-05-03T09:40:28.191Z</time></trkpt><trkpt lat="44.4004523" lon="9.8859616"><ele>377.6666666666667</ele><time>2026-05-03T09:40:29.191Z</time></trkpt><trkpt lat="44.4002852" lon="9.8857813"><ele>375.3333333333333</ele><time>2026-05-03T09:40:30.198Z</time></trkpt><trkpt lat="44.4001275" lon="9.8856101"><ele>373.0</ele><time>2026-05-03T09:40:31.197Z</time></trkpt><trkpt lat="44.3999753" lon="9.8854473"><ele>373.0</ele><time>2026-05-03T09:40:32.18Z</time></trkpt><trkpt lat="44.3998046" lon="9.8853558"><ele>373.0</ele><time>2026-05-03T09:40:33.187Z</time></trkpt><trkpt lat="44.3996156" lon="9.8852942"><ele>373.0</ele><time>2026-05-03T09:40:34.2Z</time></trkpt><trkpt lat="44.3994785" lon="9.8851808"><ele>374.66666666666663</ele><time>2026-05-03T09:40:35.182Z</time></trkpt><trkpt lat="44.3993633" lon="9.8849973"><ele>376.3333333333333</ele><time>2026-05-03T09:40:36.195Z</time></trkpt><trkpt lat="44.3992673" lon="9.8847823"><ele>378.0</ele><time>2026-05-03T09:40:37.177Z</time></trkpt><trkpt lat="44.3991714" lon="9.8845763"><ele>378.0</ele><time>2026-05-03T09:40:38.173Z</time></trkpt><trkpt lat="44.3990835" lon="9.8844542"><ele>378.0</ele><time>2026-05-03T09:40:39.173Z</time></trkpt><trkpt lat="44.3990121" lon="9.8843528"><ele>378.0</ele><time>2026-05-03T09:40:40.173Z</time></trkpt><trkpt lat="44.3989398" lon="9.8842846"><ele>378.0</ele><time>2026-05-03T09:40:41.172Z</time></trkpt><trkpt lat="44.3988515" lon="9.8842395"><ele>378.0</ele><time>2026-05-03T09:40:42.172Z</time></trkpt><trkpt lat="44.3987906" lon="9.8841481"><ele>375.25</ele><time>2026-05-03T09:40:43.188Z</time></trkpt><trkpt lat="44.3987331" lon="9.8840416"><ele>372.5</ele><time>2026-05-03T09:40:44.199Z</time></trkpt><trkpt lat="44.3986846" lon="9.8839216"><ele>369.75</ele><time>2026-05-03T09:40:45.192Z</time></trkpt><trkpt lat="44.3986629" lon="9.8836997"><ele>367.0</ele><time>2026-05-03T09:40:46.192Z</time></trkpt><trkpt lat="44.3986662" lon="9.8834437"><ele>371.3333333333333</ele><time>2026-05-03T09:40:47.194Z</time></trkpt><trkpt lat="44.3986669" lon="9.8831949"><ele>375.6666666666667</ele><time>2026-05-03T09:40:48.195Z</time></trkpt><trkpt lat="44.398661" lon="9.8829484"><ele>380.0</ele><time>2026-05-03T09:40:49.196Z</time></trkpt><trkpt lat="44.3986202" lon="9.8827031"><ele>383.6666666666667</ele><time>2026-05-03T09:40:50.196Z</time></trkpt><trkpt lat="44.3986005" lon="9.8823636"><ele>387.33333333333337</ele><time>2026-05-03T09:40:51.206Z</time></trkpt><trkpt lat="44.3985056" lon="9.8821977"><ele>391.0</ele><time>2026-05-03T09:40:52.198Z</time></trkpt><trkpt lat="44.3984281" lon="9.8819474"><ele>391.0</ele><time>2026-05-03T09:40:53.182Z</time></trkpt><trkpt lat="44.3984061" lon="9.881795"><ele>391.0</ele><time>2026-05-03T09:40:54.189Z</time></trkpt><trkpt lat="44.3984232" lon="9.8816082"><ele>391.0</ele><time>2026-05-03T09:40:55.205Z</time></trkpt><trkpt lat="44.3984954" lon="9.8814793"><ele>391.0</ele><time>2026-05-03T09:40:57.206Z</time></trkpt><trkpt lat="44.3986141" lon="9.8814785"><ele>391.0</ele><time>2026-05-03T09:40:58.208Z</time></trkpt><trkpt lat="44.3986477" lon="9.8815537"><ele>391.0</ele><time>2026-05-03T09:41:00.218Z</time></trkpt><trkpt lat="44.3987131" lon="9.8817182"><ele>391.0</ele><time>2026-05-03T09:41:02.216Z</time></trkpt><trkpt lat="44.398776" lon="9.8818221"><ele>391.0</ele><time>2026-05-03T09:41:04.208Z</time></trkpt><trkpt lat="44.3989007" lon="9.8818632"><ele>391.0</ele><time>2026-05-03T09:41:05.209Z</time></trkpt><trkpt lat="44.3989875" lon="9.8819069"><ele>398.5</ele><time>2026-05-03T09:41:06.206Z</time></trkpt><trkpt lat="44.3990798" lon="9.8819295"><ele>406.0</ele><time>2026-05-03T09:41:07.215Z</time></trkpt><trkpt lat="44.3991693" lon="9.8820474"><ele>413.5</ele><time>2026-05-03T09:41:08.212Z</time></trkpt><trkpt lat="44.3992708" lon="9.8822823"><ele>421.0</ele><time>2026-05-03T09:41:09.214Z</time></trkpt><trkpt lat="44.3993335" lon="9.8824052"><ele>418.0</ele><time>2026-05-03T09:41:10.207Z</time></trkpt><trkpt lat="44.3994545" lon="9.8827167"><ele>415.0</ele><time>2026-05-03T09:41:11.211Z</time></trkpt><trkpt lat="44.3995353" lon="9.8829164"><ele>412.0</ele><time>2026-05-03T09:41:12.216Z</time></trkpt><trkpt lat="44.3996221" lon="9.8830671"><ele>416.0</ele><time>2026-05-03T09:41:13.209Z</time></trkpt><trkpt lat="44.3997895" lon="9.8833339"><ele>420.0</ele><time>2026-05-03T09:41:14.208Z</time></trkpt><trkpt lat="44.3998969" lon="9.8834395"><ele>424.0</ele><time>2026-05-03T09:41:15.202Z</time></trkpt><trkpt lat="44.4000607" lon="9.883566"><ele>424.0</ele><time>2026-05-03T09:41:16.207Z</time></trkpt><trkpt lat="44.4002672" lon="9.8837189"><ele>424.0</ele><time>2026-05-03T09:41:17.204Z</time></trkpt><trkpt lat="44.400476" lon="9.8839857"><ele>423.6666666666667</ele><time>2026-05-03T09:41:18.216Z</time></trkpt><trkpt lat="44.400665" lon="9.8841693"><ele>423.33333333333337</ele><time>2026-05-03T09:41:19.215Z</time></trkpt><trkpt lat="44.4008239" lon="9.8843381"><ele>423.0</ele><time>2026-05-03T09:41:20.216Z</time></trkpt><trkpt lat="44.4010177" lon="9.884488"><ele>423.0</ele><time>2026-05-03T09:41:21.214Z</time></trkpt><trkpt lat="44.4012126" lon="9.884619"><ele>423.0</ele><time>2026-05-03T09:41:22.21Z</time></trkpt><trkpt lat="44.4014061" lon="9.8847232"><ele>423.0</ele><time>2026-05-03T09:41:23.207Z</time></trkpt><trkpt lat="44.4016616" lon="9.8848568"><ele>423.5</ele><time>2026-05-03T09:41:24.205Z</time></trkpt><trkpt lat="44.401911" lon="9.8849929"><ele>424.0</ele><time>2026-05-03T09:41:25.204Z</time></trkpt><trkpt lat="44.4021054" lon="9.8851107"><ele>430.6666666666667</ele><time>2026-05-03T09:41:26.21Z</time></trkpt><trkpt lat="44.4022879" lon="9.8851559"><ele>437.33333333333337</ele><time>2026-05-03T09:41:27.202Z</time></trkpt><trkpt lat="44.4024631" lon="9.8852373"><ele>444.0</ele><time>2026-05-03T09:41:28.201Z</time></trkpt><trkpt lat="44.4026336" lon="9.8853332"><ele>444.0</ele><time>2026-05-03T09:41:29.205Z</time></trkpt><trkpt lat="44.4027798" lon="9.8854886"><ele>444.0</ele><time>2026-05-03T09:41:30.205Z</time></trkpt><trkpt lat="44.4029065" lon="9.8855549"><ele>444.0</ele><time>2026-05-03T09:41:31.207Z</time></trkpt><trkpt lat="44.4030817" lon="9.885686"><ele>444.0</ele><time>2026-05-03T09:41:32.207Z</time></trkpt><trkpt lat="44.4032829" lon="9.8857705"><ele>444.0</ele><time>2026-05-03T09:41:33.208Z</time></trkpt><trkpt lat="44.4034793" lon="9.8859887"><ele>444.0</ele><time>2026-05-03T09:41:34.22Z</time></trkpt><trkpt lat="44.4036725" lon="9.8862387"><ele>444.0</ele><time>2026-05-03T09:41:35.213Z</time></trkpt><trkpt lat="44.4038685" lon="9.8864886"><ele>447.0</ele><time>2026-05-03T09:41:36.22Z</time></trkpt><trkpt lat="44.4039852" lon="9.8866082"><ele>450.0</ele><time>2026-05-03T09:41:37.217Z</time></trkpt><trkpt lat="44.404081" lon="9.886636"><ele>453.0</ele><time>2026-05-03T09:41:38.218Z</time></trkpt><trkpt lat="44.404183" lon="9.8865936"><ele>456.0</ele><time>2026-05-03T09:41:39.213Z</time></trkpt><trkpt lat="44.4042084" lon="9.8864765"><ele>459.0</ele><time>2026-05-03T09:41:41.216Z</time></trkpt><trkpt lat="44.4041229" lon="9.8863705"><ele>459.0</ele><time>2026-05-03T09:41:42.201Z</time></trkpt><trkpt lat="44.4040396" lon="9.8863005"><ele>459.0</ele><time>2026-05-03T09:41:43.206Z</time></trkpt><trkpt lat="44.4039268" lon="9.8861768"><ele>459.0</ele><time>2026-05-03T09:41:45.197Z</time></trkpt><trkpt lat="44.4037813" lon="9.8860658"><ele>459.0</ele><time>2026-05-03T09:41:46.199Z</time></trkpt><trkpt lat="44.4036322" lon="9.8859181"><ele>459.66666666666663</ele><time>2026-05-03T09:41:47.196Z</time></trkpt><trkpt lat="44.4035072" lon="9.8857161"><ele>460.3333333333333</ele><time>2026-05-03T09:41:48.187Z</time></trkpt><trkpt lat="44.4034059" lon="9.8854889"><ele>461.0</ele><time>2026-05-03T09:41:49.175Z</time></trkpt><trkpt lat="44.4032962" lon="9.8852877"><ele>469.5</ele><time>2026-05-03T09:41:50.182Z</time></trkpt><trkpt lat="44.403168" lon="9.8850481"><ele>478.0</ele><time>2026-05-03T09:41:51.169Z</time></trkpt><trkpt lat="44.4030122" lon="9.884797"><ele>470.5</ele><time>2026-05-03T09:41:52.185Z</time></trkpt><trkpt lat="44.4027953" lon="9.8845557"><ele>463.0</ele><time>2026-05-03T09:41:53.19Z</time></trkpt><trkpt lat="44.4025593" lon="9.8844093"><ele>463.0</ele><time>2026-05-03T09:41:54.184Z</time></trkpt><trkpt lat="44.4023295" lon="9.8843184"><ele>463.0</ele><time>2026-05-03T09:41:55.186Z</time></trkpt><trkpt lat="44.4021515" lon="9.8841775"><ele>463.0</ele><time>2026-05-03T09:41:56.169Z</time></trkpt><trkpt lat="44.4018499" lon="9.8841418"><ele>464.6666666666667</ele><time>2026-05-03T09:41:57.193Z</time></trkpt><trkpt lat="44.4016989" lon="9.8839895"><ele>466.33333333333337</ele><time>2026-05-03T09:41:58.186Z</time></trkpt><trkpt lat="44.4015563" lon="9.8838204"><ele>468.0</ele><time>2026-05-03T09:41:59.172Z</time></trkpt><trkpt lat="44.401459" lon="9.8835581"><ele>472.0</ele><time>2026-05-03T09:42:00.167Z</time></trkpt><trkpt lat="44.4013808" lon="9.8832891"><ele>476.0</ele><time>2026-05-03T09:42:01.189Z</time></trkpt><trkpt lat="44.4013356" lon="9.8831715"><ele>480.0</ele><time>2026-05-03T09:42:02.197Z</time></trkpt><trkpt lat="44.4013175" lon="9.8829676"><ele>480.0</ele><time>2026-05-03T09:42:03.196Z</time></trkpt><trkpt lat="44.4013179" lon="9.8828203"><ele>480.0</ele><time>2026-05-03T09:42:04.199Z</time></trkpt><trkpt lat="44.4013681" lon="9.8826781"><ele>480.0</ele><time>2026-05-03T09:42:05.201Z</time></trkpt><trkpt lat="44.4013968" lon="9.8825876"><ele>480.0</ele><time>2026-05-03T09:42:06.184Z</time></trkpt><trkpt lat="44.4015394" lon="9.8826113"><ele>480.0</ele><time>2026-05-03T09:42:07.194Z</time></trkpt><trkpt lat="44.4016191" lon="9.8826825"><ele>480.0</ele><time>2026-05-03T09:42:08.205Z</time></trkpt><trkpt lat="44.4016662" lon="9.8828511"><ele>480.0</ele><time>2026-05-03T09:42:09.209Z</time></trkpt><trkpt lat="44.4016904" lon="9.8829988"><ele>480.0</ele><time>2026-05-03T09:42:10.209Z</time></trkpt><trkpt lat="44.4017772" lon="9.8832196"><ele>480.0</ele><time>2026-05-03T09:42:11.205Z</time></trkpt><trkpt lat="44.4018667" lon="9.883421"><ele>480.5</ele><time>2026-05-03T09:42:12.212Z</time></trkpt><trkpt lat="44.4019699" lon="9.8835961"><ele>481.0</ele><time>2026-05-03T09:42:13.214Z</time></trkpt><trkpt lat="44.4020448" lon="9.8837109"><ele>481.5</ele><time>2026-05-03T09:42:14.215Z</time></trkpt><trkpt lat="44.4021663" lon="9.8837905"><ele>482.0</ele><time>2026-05-03T09:42:15.213Z</time></trkpt><trkpt lat="44.4023215" lon="9.8838807"><ele>482.0</ele><time>2026-05-03T09:42:16.205Z</time></trkpt><trkpt lat="44.4024838" lon="9.8839378"><ele>482.0</ele><time>2026-05-03T09:42:17.208Z</time></trkpt><trkpt lat="44.4027047" lon="9.883992"><ele>482.0</ele><time>2026-05-03T09:42:18.208Z</time></trkpt><trkpt lat="44.4029697" lon="9.8840277"><ele>488.5</ele><time>2026-05-03T09:42:19.205Z</time></trkpt><trkpt lat="44.4032139" lon="9.8840886"><ele>495.0</ele><time>2026-05-03T09:42:20.208Z</time></trkpt><trkpt lat="44.4034545" lon="9.8841188"><ele>495.0</ele><time>2026-05-03T09:42:21.207Z</time></trkpt><trkpt lat="44.4036685" lon="9.884238"><ele>495.0</ele><time>2026-05-03T09:42:22.206Z</time></trkpt><trkpt lat="44.4039109" lon="9.8844359"><ele>495.0</ele><time>2026-05-03T09:42:23.211Z</time></trkpt><trkpt lat="44.404134" lon="9.8846507"><ele>495.0</ele><time>2026-05-03T09:42:24.217Z</time></trkpt><trkpt lat="44.4043315" lon="9.8848577"><ele>495.0</ele><time>2026-05-03T09:42:25.215Z</time></trkpt><trkpt lat="44.4044731" lon="9.8850794"><ele>495.0</ele><time>2026-05-03T09:42:26.215Z</time></trkpt><trkpt lat="44.4045616" lon="9.8852128"><ele>495.0</ele><time>2026-05-03T09:42:27.217Z</time></trkpt><trkpt lat="44.4047147" lon="9.8851846"><ele>495.25</ele><time>2026-05-03T09:42:29.218Z</time></trkpt><trkpt lat="44.4048364" lon="9.8851359"><ele>495.5</ele><time>2026-05-03T09:42:30.216Z</time></trkpt><trkpt lat="44.404896" lon="9.8849813"><ele>495.75</ele><time>2026-05-03T09:42:31.214Z</time></trkpt><trkpt lat="44.4049135" lon="9.8848157"><ele>496.0</ele><time>2026-05-03T09:42:32.213Z</time></trkpt><trkpt lat="44.40486" lon="9.884726"><ele>495.6666666666667</ele><time>2026-05-03T09:42:34.204Z</time></trkpt><trkpt lat="44.4047622" lon="9.8846012"><ele>495.33333333333337</ele><time>2026-05-03T09:42:35.189Z</time></trkpt><trkpt lat="44.4046235" lon="9.8843757"><ele>495.0</ele><time>2026-05-03T09:42:36.177Z</time></trkpt><trkpt lat="44.4043546" lon="9.8840672"><ele>502.0</ele><time>2026-05-03T09:42:37.196Z</time></trkpt><trkpt lat="44.4041247" lon="9.8838469"><ele>509.0</ele><time>2026-05-03T09:42:38.201Z</time></trkpt><trkpt lat="44.4038528" lon="9.8836963"><ele>508.2</ele><time>2026-05-03T09:42:39.209Z</time></trkpt><trkpt lat="44.4037428" lon="9.8835674"><ele>507.4</ele><time>2026-05-03T09:42:40.206Z</time></trkpt><trkpt lat="44.4036677" lon="9.8834766"><ele>506.6</ele><time>2026-05-03T09:42:41.205Z</time></trkpt><trkpt lat="44.403632" lon="9.8833607"><ele>505.8</ele><time>2026-05-03T09:42:42.208Z</time></trkpt><trkpt lat="44.4036704" lon="9.8832736"><ele>505.0</ele><time>2026-05-03T09:42:43.206Z</time></trkpt><trkpt lat="44.403783" lon="9.8832436"><ele>506.33333333333337</ele><time>2026-05-03T09:42:45.212Z</time></trkpt><trkpt lat="44.4039005" lon="9.8832787"><ele>507.66666666666663</ele><time>2026-05-03T09:42:46.215Z</time></trkpt><trkpt lat="44.4041216" lon="9.8833923"><ele>509.0</ele><time>2026-05-03T09:42:47.216Z</time></trkpt><trkpt lat="44.4043226" lon="9.8835429"><ele>509.0</ele><time>2026-05-03T09:42:48.219Z</time></trkpt><trkpt lat="44.4045099" lon="9.8837054"><ele>509.0</ele><time>2026-05-03T09:42:49.214Z</time></trkpt><trkpt lat="44.4047476" lon="9.8838457"><ele>517.0</ele><time>2026-05-03T09:42:50.216Z</time></trkpt><trkpt lat="44.405025" lon="9.8840402"><ele>525.0</ele><time>2026-05-03T09:42:51.214Z</time></trkpt><trkpt lat="44.4052907" lon="9.8842009"><ele>529.0</ele><time>2026-05-03T09:42:52.215Z</time></trkpt><trkpt lat="44.4055139" lon="9.8844109"><ele>533.0</ele><time>2026-05-03T09:42:53.219Z</time></trkpt><trkpt lat="44.4056865" lon="9.8846654"><ele>533.0</ele><time>2026-05-03T09:42:54.216Z</time></trkpt><trkpt lat="44.4058252" lon="9.8848848"><ele>533.0</ele><time>2026-05-03T09:42:55.219Z</time></trkpt><trkpt lat="44.406028" lon="9.8851323"><ele>535.3333333333333</ele><time>2026-05-03T09:42:56.211Z</time></trkpt><trkpt lat="44.4061337" lon="9.8853884"><ele>537.6666666666666</ele><time>2026-05-03T09:42:57.211Z</time></trkpt><trkpt lat="44.4062637" lon="9.8856186"><ele>540.0</ele><time>2026-05-03T09:42:58.214Z</time></trkpt><trkpt lat="44.4064109" lon="9.8857922"><ele>526.0</ele><time>2026-05-03T09:42:59.21Z</time></trkpt><trkpt lat="44.4066518" lon="9.8859615"><ele>512.0</ele><time>2026-05-03T09:43:00.218Z</time></trkpt><trkpt lat="44.4068053" lon="9.8861328"><ele>512.0</ele><time>2026-05-03T09:43:01.228Z</time></trkpt><trkpt lat="44.4070379" lon="9.8862728"><ele>512.0</ele><time>2026-05-03T09:43:02.218Z</time></trkpt><trkpt lat="44.4072903" lon="9.8863389"><ele>522.5</ele><time>2026-05-03T09:43:03.216Z</time></trkpt><trkpt lat="44.4075371" lon="9.8864541"><ele>533.0</ele><time>2026-05-03T09:43:04.211Z</time></trkpt><trkpt lat="44.407757" lon="9.8865367"><ele>533.0</ele><time>2026-05-03T09:43:05.214Z</time></trkpt><trkpt lat="44.4079837" lon="9.8866789"><ele>533.0</ele><time>2026-05-03T09:43:06.216Z</time></trkpt><trkpt lat="44.408174" lon="9.8868799"><ele>535.3333333333333</ele><time>2026-05-03T09:43:07.214Z</time></trkpt><trkpt lat="44.4083547" lon="9.8871043"><ele>537.6666666666666</ele><time>2026-05-03T09:43:08.215Z</time></trkpt><trkpt lat="44.4084936" lon="9.8873191"><ele>540.0</ele><time>2026-05-03T09:43:09.209Z</time></trkpt><trkpt lat="44.4086669" lon="9.887464"><ele>546.0</ele><time>2026-05-03T09:43:10.214Z</time></trkpt><trkpt lat="44.4088751" lon="9.8876318"><ele>552.0</ele><time>2026-05-03T09:43:11.216Z</time></trkpt><trkpt lat="44.4090402" lon="9.8877966"><ele>558.0</ele><time>2026-05-03T09:43:12.23Z</time></trkpt><trkpt lat="44.4091929" lon="9.8879751"><ele>558.0</ele><time>2026-05-03T09:43:13.222Z</time></trkpt><trkpt lat="44.4093235" lon="9.8881963"><ele>558.0</ele><time>2026-05-03T09:43:14.225Z</time></trkpt><trkpt lat="44.4094072" lon="9.888394"><ele>558.0</ele><time>2026-05-03T09:43:15.232Z</time></trkpt><trkpt lat="44.4094474" lon="9.88857"><ele>560.0</ele><time>2026-05-03T09:43:16.216Z</time></trkpt><trkpt lat="44.4094407" lon="9.8887113"><ele>562.0</ele><time>2026-05-03T09:43:17.215Z</time></trkpt><trkpt lat="44.4093954" lon="9.8888353"><ele>564.0</ele><time>2026-05-03T09:43:18.211Z</time></trkpt><trkpt lat="44.4093089" lon="9.8889723"><ele>566.0</ele><time>2026-05-03T09:43:19.213Z</time></trkpt><trkpt lat="44.4091888" lon="9.8891076"><ele>568.6666666666666</ele><time>2026-05-03T09:43:20.215Z</time></trkpt><trkpt lat="44.4090389" lon="9.8892665"><ele>571.3333333333334</ele><time>2026-05-03T09:43:21.215Z</time></trkpt><trkpt lat="44.4089116" lon="9.8894634"><ele>574.0</ele><time>2026-05-03T09:43:22.211Z</time></trkpt><trkpt lat="44.4087835" lon="9.8896832"><ele>556.6666666666667</ele><time>2026-05-03T09:43:23.207Z</time></trkpt><trkpt lat="44.4087366" lon="9.8899067"><ele>539.3333333333334</ele><time>2026-05-03T09:43:24.209Z</time></trkpt><trkpt lat="44.408749" lon="9.8901584"><ele>522.0</ele><time>2026-05-03T09:43:25.206Z</time></trkpt><trkpt lat="44.4088234" lon="9.8904699"><ele>528.0</ele><time>2026-05-03T09:43:26.211Z</time></trkpt><trkpt lat="44.4089648" lon="9.8907265"><ele>534.0</ele><time>2026-05-03T09:43:27.215Z</time></trkpt><trkpt lat="44.4090743" lon="9.8909475"><ele>540.0</ele><time>2026-05-03T09:43:28.208Z</time></trkpt><trkpt lat="44.4092403" lon="9.8911533"><ele>540.0</ele><time>2026-05-03T09:43:29.215Z</time></trkpt><trkpt lat="44.4094553" lon="9.8913079"><ele>540.0</ele><time>2026-05-03T09:43:30.211Z</time></trkpt><trkpt lat="44.4097759" lon="9.8914135"><ele>557.5</ele><time>2026-05-03T09:43:31.211Z</time></trkpt><trkpt lat="44.4101373" lon="9.8914629"><ele>575.0</ele><time>2026-05-03T09:43:32.208Z</time></trkpt><trkpt lat="44.4104017" lon="9.8915904"><ele>578.0</ele><time>2026-05-03T09:43:33.209Z</time></trkpt><trkpt lat="44.4106752" lon="9.8917183"><ele>581.0</ele><time>2026-05-03T09:43:34.217Z</time></trkpt><trkpt lat="44.4109454" lon="9.8918613"><ele>586.0</ele><time>2026-05-03T09:43:35.209Z</time></trkpt><trkpt lat="44.4111717" lon="9.8920253"><ele>591.0</ele><time>2026-05-03T09:43:36.217Z</time></trkpt><trkpt lat="44.4113589" lon="9.8921706"><ele>592.5</ele><time>2026-05-03T09:43:37.212Z</time></trkpt><trkpt lat="44.4115641" lon="9.8923507"><ele>594.0</ele><time>2026-05-03T09:43:38.208Z</time></trkpt><trkpt lat="44.4117566" lon="9.8925032"><ele>601.5</ele><time>2026-05-03T09:43:39.219Z</time></trkpt><trkpt lat="44.4119526" lon="9.8927328"><ele>609.0</ele><time>2026-05-03T09:43:40.21Z</time></trkpt><trkpt lat="44.4121007" lon="9.8930256"><ele>611.0</ele><time>2026-05-03T09:43:41.213Z</time></trkpt><trkpt lat="44.4122604" lon="9.8932754"><ele>613.0</ele><time>2026-05-03T09:43:42.212Z</time></trkpt><trkpt lat="44.4124108" lon="9.8935367"><ele>613.0</ele><time>2026-05-03T09:43:43.208Z</time></trkpt><trkpt lat="44.412552" lon="9.8937913"><ele>613.0</ele><time>2026-05-03T09:43:44.212Z</time></trkpt><trkpt lat="44.412725" lon="9.8940115"><ele>613.0</ele><time>2026-05-03T09:43:45.205Z</time></trkpt><trkpt lat="44.4128581" lon="9.8941697"><ele>613.0</ele><time>2026-05-03T09:43:46.201Z</time></trkpt><trkpt lat="44.4129813" lon="9.894332"><ele>613.0</ele><time>2026-05-03T09:43:47.202Z</time></trkpt><trkpt lat="44.4130867" lon="9.8945615"><ele>614.3333333333334</ele><time>2026-05-03T09:43:48.207Z</time></trkpt><trkpt lat="44.4131254" lon="9.8948286"><ele>615.6666666666666</ele><time>2026-05-03T09:43:49.205Z</time></trkpt><trkpt lat="44.4132267" lon="9.8950762"><ele>617.0</ele><time>2026-05-03T09:43:50.206Z</time></trkpt><trkpt lat="44.4132069" lon="9.8952631"><ele>617.0</ele><time>2026-05-03T09:43:51.208Z</time></trkpt><trkpt lat="44.4131645" lon="9.8954797"><ele>617.0</ele><time>2026-05-03T09:43:52.219Z</time></trkpt><trkpt lat="44.4131435" lon="9.8957271"><ele>617.0</ele><time>2026-05-03T09:43:53.218Z</time></trkpt><trkpt lat="44.4131295" lon="9.8959867"><ele>615.3333333333333</ele><time>2026-05-03T09:43:54.222Z</time></trkpt><trkpt lat="44.413202" lon="9.8962727"><ele>613.6666666666666</ele><time>2026-05-03T09:43:55.22Z</time></trkpt><trkpt lat="44.4132743" lon="9.896533"><ele>612.0</ele><time>2026-05-03T09:43:56.219Z</time></trkpt><trkpt lat="44.4133108" lon="9.8967414"><ele>607.25</ele><time>2026-05-03T09:43:57.227Z</time></trkpt><trkpt lat="44.4133634" lon="9.8968897"><ele>602.5</ele><time>2026-05-03T09:43:58.217Z</time></trkpt><trkpt lat="44.4134837" lon="9.8970274"><ele>597.75</ele><time>2026-05-03T09:43:59.213Z</time></trkpt><trkpt lat="44.4136249" lon="9.8971185"><ele>593.0</ele><time>2026-05-03T09:44:00.218Z</time></trkpt><trkpt lat="44.4137988" lon="9.8971874"><ele>597.6666666666666</ele><time>2026-05-03T09:44:01.216Z</time></trkpt><trkpt lat="44.4139638" lon="9.8972866"><ele>602.3333333333334</ele><time>2026-05-03T09:44:02.213Z</time></trkpt><trkpt lat="44.4141183" lon="9.8974542"><ele>607.0</ele><time>2026-05-03T09:44:03.212Z</time></trkpt><trkpt lat="44.414231" lon="9.8976123"><ele>607.0</ele><time>2026-05-03T09:44:04.211Z</time></trkpt><trkpt lat="44.4143275" lon="9.8977961"><ele>607.0</ele><time>2026-05-03T09:44:05.217Z</time></trkpt><trkpt lat="44.4143701" lon="9.898049"><ele>607.0</ele><time>2026-05-03T09:44:06.221Z</time></trkpt><trkpt lat="44.4144264" lon="9.8983888"><ele>601.5</ele><time>2026-05-03T09:44:07.216Z</time></trkpt><trkpt lat="44.4144529" lon="9.898758"><ele>596.0</ele><time>2026-05-03T09:44:08.216Z</time></trkpt><trkpt lat="44.4145001" lon="9.899152"><ele>593.0</ele><time>2026-05-03T09:44:09.215Z</time></trkpt><trkpt lat="44.4144972" lon="9.8994044"><ele>590.0</ele><time>2026-05-03T09:44:10.216Z</time></trkpt><trkpt lat="44.4145215" lon="9.8996191"><ele>587.0</ele><time>2026-05-03T09:44:11.208Z</time></trkpt><trkpt lat="44.4146285" lon="9.8998636"><ele>593.6666666666666</ele><time>2026-05-03T09:44:12.212Z</time></trkpt><trkpt lat="44.4147656" lon="9.9001245"><ele>600.3333333333334</ele><time>2026-05-03T09:44:13.213Z</time></trkpt><trkpt lat="44.4148868" lon="9.9003537"><ele>607.0</ele><time>2026-05-03T09:44:14.214Z</time></trkpt><trkpt lat="44.4150199" lon="9.9005832"><ele>607.0</ele><time>2026-05-03T09:44:15.215Z</time></trkpt><trkpt lat="44.4151778" lon="9.9007981"><ele>607.0</ele><time>2026-05-03T09:44:16.223Z</time></trkpt><trkpt lat="44.4153355" lon="9.9010465"><ele>609.0</ele><time>2026-05-03T09:44:17.216Z</time></trkpt><trkpt lat="44.4154652" lon="9.901294"><ele>611.0</ele><time>2026-05-03T09:44:18.225Z</time></trkpt><trkpt lat="44.4155532" lon="9.9015439"><ele>613.0</ele><time>2026-05-03T09:44:19.213Z</time></trkpt><trkpt lat="44.4156252" lon="9.901808"><ele>608.3333333333334</ele><time>2026-05-03T09:44:20.221Z</time></trkpt><trkpt lat="44.4157414" lon="9.9020237"><ele>603.6666666666666</ele><time>2026-05-03T09:44:21.221Z</time></trkpt><trkpt lat="44.4158797" lon="9.9021938"><ele>599.0</ele><time>2026-05-03T09:44:22.21Z</time></trkpt><trkpt lat="44.4160497" lon="9.902352"><ele>599.0</ele><time>2026-05-03T09:44:23.212Z</time></trkpt><trkpt lat="44.416279" lon="9.9024092"><ele>599.0</ele><time>2026-05-03T09:44:24.214Z</time></trkpt><trkpt lat="44.4164713" lon="9.9024351"><ele>599.0</ele><time>2026-05-03T09:44:25.21Z</time></trkpt><trkpt lat="44.4166576" lon="9.902438"><ele>600.6666666666666</ele><time>2026-05-03T09:44:26.213Z</time></trkpt><trkpt lat="44.4168399" lon="9.9024357"><ele>602.3333333333334</ele><time>2026-05-03T09:44:27.213Z</time></trkpt><trkpt lat="44.4170016" lon="9.9024247"><ele>604.0</ele><time>2026-05-03T09:44:28.217Z</time></trkpt><trkpt lat="44.4171742" lon="9.9024969"><ele>601.5</ele><time>2026-05-03T09:44:29.212Z</time></trkpt><trkpt lat="44.4173031" lon="9.902611"><ele>599.0</ele><time>2026-05-03T09:44:30.218Z</time></trkpt><trkpt lat="44.4174031" lon="9.9027096"><ele>596.5</ele><time>2026-05-03T09:44:31.213Z</time></trkpt><trkpt lat="44.4175067" lon="9.9028065"><ele>594.0</ele><time>2026-05-03T09:44:32.215Z</time></trkpt><trkpt lat="44.4175907" lon="9.9029507"><ele>594.0</ele><time>2026-05-03T09:44:33.22Z</time></trkpt><trkpt lat="44.4177361" lon="9.9031163"><ele>594.0</ele><time>2026-05-03T09:44:34.212Z</time></trkpt><trkpt lat="44.4178978" lon="9.903249"><ele>594.0</ele><time>2026-05-03T09:44:35.214Z</time></trkpt><trkpt lat="44.4180741" lon="9.9033461"><ele>595.3333333333334</ele><time>2026-05-03T09:44:36.216Z</time></trkpt><trkpt lat="44.4182835" lon="9.9033732"><ele>596.6666666666667</ele><time>2026-05-03T09:44:37.209Z</time></trkpt><trkpt lat="44.4184649" lon="9.9033626"><ele>598.0</ele><time>2026-05-03T09:44:38.205Z</time></trkpt><trkpt lat="44.4186421" lon="9.9033203"><ele>598.0</ele><time>2026-05-03T09:44:39.21Z</time></trkpt><trkpt lat="44.4188084" lon="9.9032204"><ele>598.0</ele><time>2026-05-03T09:44:40.206Z</time></trkpt><trkpt lat="44.4189645" lon="9.903142"><ele>598.0</ele><time>2026-05-03T09:44:41.202Z</time></trkpt><trkpt lat="44.419104" lon="9.9031247"><ele>599.3333333333334</ele><time>2026-05-03T09:44:42.208Z</time></trkpt><trkpt lat="44.4192512" lon="9.9032257"><ele>600.6666666666666</ele><time>2026-05-03T09:44:43.209Z</time></trkpt><trkpt lat="44.4194226" lon="9.9033223"><ele>602.0</ele><time>2026-05-03T09:44:44.212Z</time></trkpt><trkpt lat="44.4195979" lon="9.903458"><ele>605.6666666666666</ele><time>2026-05-03T09:44:45.214Z</time></trkpt><trkpt lat="44.419774" lon="9.9036498"><ele>609.3333333333334</ele><time>2026-05-03T09:44:46.217Z</time></trkpt><trkpt lat="44.4199196" lon="9.9037931"><ele>613.0</ele><time>2026-05-03T09:44:47.213Z</time></trkpt><trkpt lat="44.4200546" lon="9.9040157"><ele>612.0</ele><time>2026-05-03T09:44:48.215Z</time></trkpt><trkpt lat="44.4202151" lon="9.9043096"><ele>611.0</ele><time>2026-05-03T09:44:49.22Z</time></trkpt><trkpt lat="44.42038" lon="9.9045823"><ele>612.3333333333333</ele><time>2026-05-03T09:44:50.216Z</time></trkpt><trkpt lat="44.4205228" lon="9.9048259"><ele>613.6666666666666</ele><time>2026-05-03T09:44:51.214Z</time></trkpt><trkpt lat="44.4207017" lon="9.9049822"><ele>615.0</ele><time>2026-05-03T09:44:52.211Z</time></trkpt><trkpt lat="44.420875" lon="9.9051018"><ele>613.3333333333334</ele><time>2026-05-03T09:44:53.214Z</time></trkpt><trkpt lat="44.421073" lon="9.9051644"><ele>611.6666666666667</ele><time>2026-05-03T09:44:54.206Z</time></trkpt><trkpt lat="44.4212557" lon="9.905149"><ele>610.0</ele><time>2026-05-03T09:44:55.205Z</time></trkpt><trkpt lat="44.421464" lon="9.9050887"><ele>615.3333333333334</ele><time>2026-05-03T09:44:56.206Z</time></trkpt><trkpt lat="44.4216913" lon="9.9049924"><ele>620.6666666666666</ele><time>2026-05-03T09:44:57.203Z</time></trkpt><trkpt lat="44.4218588" lon="9.9048963"><ele>626.0</ele><time>2026-05-03T09:44:58.207Z</time></trkpt><trkpt lat="44.4220699" lon="9.9047912"><ele>627.6666666666666</ele><time>2026-05-03T09:44:59.214Z</time></trkpt><trkpt lat="44.4222649" lon="9.9046872"><ele>629.3333333333334</ele><time>2026-05-03T09:45:00.207Z</time></trkpt><trkpt lat="44.4224041" lon="9.9045933"><ele>631.0</ele><time>2026-05-03T09:45:01.201Z</time></trkpt><trkpt lat="44.4225189" lon="9.904418"><ele>630.3333333333334</ele><time>2026-05-03T09:45:02.204Z</time></trkpt><trkpt lat="44.4226189" lon="9.9042263"><ele>629.6666666666666</ele><time>2026-05-03T09:45:03.204Z</time></trkpt><trkpt lat="44.422808" lon="9.9041868"><ele>629.0</ele><time>2026-05-03T09:45:04.203Z</time></trkpt><trkpt lat="44.4230231" lon="9.9041412"><ele>631.0</ele><time>2026-05-03T09:45:05.198Z</time></trkpt><trkpt lat="44.4231583" lon="9.9039012"><ele>633.0</ele><time>2026-05-03T09:45:06.205Z</time></trkpt><trkpt lat="44.4233001" lon="9.9037553"><ele>635.0</ele><time>2026-05-03T09:45:07.199Z</time></trkpt><trkpt lat="44.4235444" lon="9.9038493"><ele>635.0</ele><time>2026-05-03T09:45:08.204Z</time></trkpt><trkpt lat="44.4237286" lon="9.9039947"><ele>635.0</ele><time>2026-05-03T09:45:09.207Z</time></trkpt><trkpt lat="44.4239017" lon="9.9041294"><ele>635.0</ele><time>2026-05-03T09:45:10.205Z</time></trkpt><trkpt lat="44.4240446" lon="9.9042322"><ele>636.6666666666666</ele><time>2026-05-03T09:45:11.208Z</time></trkpt><trkpt lat="44.4241241" lon="9.9043654"><ele>638.3333333333334</ele><time>2026-05-03T09:45:12.209Z</time></trkpt><trkpt lat="44.4241927" lon="9.9046268"><ele>640.0</ele><time>2026-05-03T09:45:13.208Z</time></trkpt><trkpt lat="44.4242656" lon="9.9049311"><ele>635.6666666666667</ele><time>2026-05-03T09:45:14.2Z</time></trkpt><trkpt lat="44.4243615" lon="9.90521"><ele>631.3333333333334</ele><time>2026-05-03T09:45:15.206Z</time></trkpt><trkpt lat="44.4244576" lon="9.9054751"><ele>627.0</ele><time>2026-05-03T09:45:16.2Z</time></trkpt><trkpt lat="44.4246123" lon="9.9057053"><ele>630.5</ele><time>2026-05-03T09:45:17.197Z</time></trkpt><trkpt lat="44.4247507" lon="9.9059453"><ele>634.0</ele><time>2026-05-03T09:45:18.197Z</time></trkpt><trkpt lat="44.4249535" lon="9.9061104"><ele>634.0</ele><time>2026-05-03T09:45:19.206Z</time></trkpt><trkpt lat="44.4251697" lon="9.9063022"><ele>634.0</ele><time>2026-05-03T09:45:20.211Z</time></trkpt><trkpt lat="44.4253707" lon="9.9064564"><ele>641.0</ele><time>2026-05-03T09:45:21.208Z</time></trkpt><trkpt lat="44.4255355" lon="9.9066431"><ele>648.0</ele><time>2026-05-03T09:45:22.204Z</time></trkpt><trkpt lat="44.4257247" lon="9.9068471"><ele>648.0</ele><time>2026-05-03T09:45:23.211Z</time></trkpt><trkpt lat="44.4258105" lon="9.9070666"><ele>648.0</ele><time>2026-05-03T09:45:24.209Z</time></trkpt><trkpt lat="44.4258878" lon="9.907258"><ele>648.0</ele><time>2026-05-03T09:45:25.208Z</time></trkpt><trkpt lat="44.4259618" lon="9.9074536"><ele>645.4</ele><time>2026-05-03T09:45:26.213Z</time></trkpt><trkpt lat="44.4260507" lon="9.9075914"><ele>642.8</ele><time>2026-05-03T09:45:27.213Z</time></trkpt><trkpt lat="44.426133" lon="9.9076943"><ele>640.2</ele><time>2026-05-03T09:45:28.211Z</time></trkpt><trkpt lat="44.4261835" lon="9.907814"><ele>637.6</ele><time>2026-05-03T09:45:29.204Z</time></trkpt><trkpt lat="44.42623" lon="9.9079315"><ele>635.0</ele><time>2026-05-03T09:45:30.217Z</time></trkpt><trkpt lat="44.4262964" lon="9.9080322"><ele>638.6666666666666</ele><time>2026-05-03T09:45:31.213Z</time></trkpt><trkpt lat="44.4264424" lon="9.9079552"><ele>642.3333333333334</ele><time>2026-05-03T09:45:32.211Z</time></trkpt><trkpt lat="44.4265819" lon="9.9078982"><ele>646.0</ele><time>2026-05-03T09:45:33.201Z</time></trkpt><trkpt lat="44.4268072" lon="9.9077674"><ele>646.0</ele><time>2026-05-03T09:45:34.21Z</time></trkpt><trkpt lat="44.426982" lon="9.9077032"><ele>646.0</ele><time>2026-05-03T09:45:35.201Z</time></trkpt><trkpt lat="44.4271836" lon="9.9077843"><ele>646.0</ele><time>2026-05-03T09:45:36.207Z</time></trkpt><trkpt lat="44.4273845" lon="9.9078704"><ele>651.0</ele><time>2026-05-03T09:45:37.209Z</time></trkpt><trkpt lat="44.427608" lon="9.9079658"><ele>656.0</ele><time>2026-05-03T09:45:38.21Z</time></trkpt><trkpt lat="44.4278405" lon="9.908041"><ele>662.0</ele><time>2026-05-03T09:45:39.209Z</time></trkpt><trkpt lat="44.4280781" lon="9.9081294"><ele>668.0</ele><time>2026-05-03T09:45:40.207Z</time></trkpt><trkpt lat="44.4282854" lon="9.9082798"><ele>664.6666666666666</ele><time>2026-05-03T09:45:41.207Z</time></trkpt><trkpt lat="44.4284655" lon="9.9084157"><ele>661.3333333333334</ele><time>2026-05-03T09:45:42.211Z</time></trkpt><trkpt lat="44.4286573" lon="9.9085079"><ele>658.0</ele><time>2026-05-03T09:45:43.203Z</time></trkpt><trkpt lat="44.4288634" lon="9.9085531"><ele>658.0</ele><time>2026-05-03T09:45:44.199Z</time></trkpt><trkpt lat="44.429139" lon="9.9085616"><ele>658.0</ele><time>2026-05-03T09:45:45.203Z</time></trkpt><trkpt lat="44.4293316" lon="9.9085808"><ele>658.0</ele><time>2026-05-03T09:45:46.198Z</time></trkpt><trkpt lat="44.4294887" lon="9.9085397"><ele>658.0</ele><time>2026-05-03T09:45:47.205Z</time></trkpt><trkpt lat="44.4296129" lon="9.9084979"><ele>658.0</ele><time>2026-05-03T09:45:48.204Z</time></trkpt><trkpt lat="44.4297272" lon="9.9085953"><ele>658.0</ele><time>2026-05-03T09:45:49.201Z</time></trkpt><trkpt lat="44.4298595" lon="9.908597"><ele>659.0</ele><time>2026-05-03T09:45:50.203Z</time></trkpt><trkpt lat="44.4299654" lon="9.908724"><ele>660.0</ele><time>2026-05-03T09:45:51.204Z</time></trkpt><trkpt lat="44.4301134" lon="9.9087966"><ele>661.0</ele><time>2026-05-03T09:45:52.21Z</time></trkpt><trkpt lat="44.4302435" lon="9.9087926"><ele>662.0</ele><time>2026-05-03T09:45:53.209Z</time></trkpt><trkpt lat="44.4303869" lon="9.9088188"><ele>661.0</ele><time>2026-05-03T09:45:54.183Z</time></trkpt><trkpt lat="44.4305277" lon="9.9086734"><ele>660.0</ele><time>2026-05-03T09:45:55.197Z</time></trkpt><trkpt lat="44.4306861" lon="9.9085583"><ele>659.0</ele><time>2026-05-03T09:45:56.209Z</time></trkpt><trkpt lat="44.4308586" lon="9.9084195"><ele>663.0</ele><time>2026-05-03T09:45:57.212Z</time></trkpt><trkpt lat="44.4310263" lon="9.9082972"><ele>667.0</ele><time>2026-05-03T09:45:58.211Z</time></trkpt><trkpt lat="44.431168" lon="9.9082496"><ele>671.0</ele><time>2026-05-03T09:45:59.208Z</time></trkpt><trkpt lat="44.4313484" lon="9.9082026"><ele>671.0</ele><time>2026-05-03T09:46:00.21Z</time></trkpt><trkpt lat="44.4315865" lon="9.9082103"><ele>671.0</ele><time>2026-05-03T09:46:01.222Z</time></trkpt><trkpt lat="44.4318065" lon="9.9082788"><ele>671.0</ele><time>2026-05-03T09:46:02.211Z</time></trkpt><trkpt lat="44.4320433" lon="9.9083527"><ele>671.0</ele><time>2026-05-03T09:46:03.215Z</time></trkpt><trkpt lat="44.4322877" lon="9.9083681"><ele>673.3333333333333</ele><time>2026-05-03T09:46:04.214Z</time></trkpt><trkpt lat="44.4325162" lon="9.9084222"><ele>675.6666666666666</ele><time>2026-05-03T09:46:05.207Z</time></trkpt><trkpt lat="44.4326787" lon="9.9084162"><ele>678.0</ele><time>2026-05-03T09:46:06.21Z</time></trkpt><trkpt lat="44.4328478" lon="9.9084548"><ele>679.2</ele><time>2026-05-03T09:46:07.213Z</time></trkpt><trkpt lat="44.4329727" lon="9.9085101"><ele>680.4</ele><time>2026-05-03T09:46:08.213Z</time></trkpt><trkpt lat="44.4330769" lon="9.9085554"><ele>681.6</ele><time>2026-05-03T09:46:09.212Z</time></trkpt><trkpt lat="44.4331527" lon="9.9085809"><ele>682.8000000000001</ele><time>2026-05-03T09:46:10.208Z</time></trkpt><trkpt lat="44.4332311" lon="9.9085234"><ele>684.0</ele><time>2026-05-03T09:46:11.208Z</time></trkpt><trkpt lat="44.4332779" lon="9.9083416"><ele>684.0</ele><time>2026-05-03T09:46:12.209Z</time></trkpt><trkpt lat="44.4333186" lon="9.9081458"><ele>684.0</ele><time>2026-05-03T09:46:13.208Z</time></trkpt><trkpt lat="44.433327" lon="9.9080158"><ele>684.0</ele><time>2026-05-03T09:46:14.215Z</time></trkpt><trkpt lat="44.4333916" lon="9.9079496"><ele>684.0</ele><time>2026-05-03T09:46:15.22Z</time></trkpt><trkpt lat="44.4334872" lon="9.9079416"><ele>684.0</ele><time>2026-05-03T09:46:16.213Z</time></trkpt><trkpt lat="44.4335679" lon="9.9079624"><ele>684.0</ele><time>2026-05-03T09:46:17.216Z</time></trkpt><trkpt lat="44.4336669" lon="9.9079934"><ele>684.0</ele><time>2026-05-03T09:46:18.207Z</time></trkpt><trkpt lat="44.4337662" lon="9.9081126"><ele>684.0</ele><time>2026-05-03T09:46:19.211Z</time></trkpt><trkpt lat="44.4338445" lon="9.908292"><ele>684.0</ele><time>2026-05-03T09:46:20.214Z</time></trkpt><trkpt lat="44.4339535" lon="9.9085192"><ele>686.3333333333334</ele><time>2026-05-03T09:46:21.212Z</time></trkpt><trkpt lat="44.4341072" lon="9.9087407"><ele>688.6666666666667</ele><time>2026-05-03T09:46:22.217Z</time></trkpt><trkpt lat="44.4342568" lon="9.9089754"><ele>691.0</ele><time>2026-05-03T09:46:23.216Z</time></trkpt><trkpt lat="44.4344492" lon="9.9090779"><ele>691.0</ele><time>2026-05-03T09:46:24.215Z</time></trkpt><trkpt lat="44.4345826" lon="9.9091371"><ele>691.0</ele><time>2026-05-03T09:46:25.211Z</time></trkpt><trkpt lat="44.4347465" lon="9.9091835"><ele>691.0</ele><time>2026-05-03T09:46:26.21Z</time></trkpt><trkpt lat="44.4349318" lon="9.909272"><ele>695.5</ele><time>2026-05-03T09:46:27.204Z</time></trkpt><trkpt lat="44.4351146" lon="9.9094763"><ele>700.0</ele><time>2026-05-03T09:46:28.207Z</time></trkpt><trkpt lat="44.435282" lon="9.9097327"><ele>700.0</ele><time>2026-05-03T09:46:29.205Z</time></trkpt><trkpt lat="44.435434" lon="9.909984"><ele>700.0</ele><time>2026-05-03T09:46:30.205Z</time></trkpt><trkpt lat="44.4356094" lon="9.9101021"><ele>700.0</ele><time>2026-05-03T09:46:31.212Z</time></trkpt><trkpt lat="44.4358556" lon="9.9101456"><ele>705.5</ele><time>2026-05-03T09:46:32.217Z</time></trkpt><trkpt lat="44.4361146" lon="9.9102775"><ele>711.0</ele><time>2026-05-03T09:46:33.213Z</time></trkpt><trkpt lat="44.4363617" lon="9.9104109"><ele>711.0</ele><time>2026-05-03T09:46:34.206Z</time></trkpt><trkpt lat="44.4365459" lon="9.9104646"><ele>711.0</ele><time>2026-05-03T09:46:35.208Z</time></trkpt><trkpt lat="44.4367361" lon="9.9105194"><ele>711.0</ele><time>2026-05-03T09:46:36.21Z</time></trkpt><trkpt lat="44.4369243" lon="9.9105715"><ele>711.0</ele><time>2026-05-03T09:46:37.207Z</time></trkpt><trkpt lat="44.4370942" lon="9.9105581"><ele>711.0</ele><time>2026-05-03T09:46:38.204Z</time></trkpt><trkpt lat="44.4372099" lon="9.9104416"><ele>711.0</ele><time>2026-05-03T09:46:39.21Z</time></trkpt><trkpt lat="44.4373369" lon="9.9101669"><ele>710.0</ele><time>2026-05-03T09:46:40.21Z</time></trkpt><trkpt lat="44.4374701" lon="9.9099164"><ele>709.0</ele><time>2026-05-03T09:46:41.207Z</time></trkpt><trkpt lat="44.4375636" lon="9.9096543"><ele>708.0</ele><time>2026-05-03T09:46:42.201Z</time></trkpt><trkpt lat="44.4377059" lon="9.9095436"><ele>708.0</ele><time>2026-05-03T09:46:43.206Z</time></trkpt><trkpt lat="44.4379123" lon="9.9095127"><ele>708.0</ele><time>2026-05-03T09:46:44.208Z</time></trkpt><trkpt lat="44.4381369" lon="9.9095525"><ele>708.0</ele><time>2026-05-03T09:46:45.2Z</time></trkpt><trkpt lat="44.4383803" lon="9.9096318"><ele>709.0</ele><time>2026-05-03T09:46:46.205Z</time></trkpt><trkpt lat="44.4385786" lon="9.9096792"><ele>710.0</ele><time>2026-05-03T09:46:47.211Z</time></trkpt><trkpt lat="44.438782" lon="9.9096874"><ele>711.0</ele><time>2026-05-03T09:46:48.211Z</time></trkpt><trkpt lat="44.4389757" lon="9.9097158"><ele>711.0</ele><time>2026-05-03T09:46:49.206Z</time></trkpt><trkpt lat="44.439153" lon="9.9097385"><ele>711.0</ele><time>2026-05-03T09:46:50.206Z</time></trkpt><trkpt lat="44.439312" lon="9.909785"><ele>711.0</ele><time>2026-05-03T09:46:51.206Z</time></trkpt><trkpt lat="44.4394113" lon="9.9098947"><ele>711.0</ele><time>2026-05-03T09:46:52.203Z</time></trkpt><trkpt lat="44.4394536" lon="9.9100367"><ele>711.0</ele><time>2026-05-03T09:46:53.206Z</time></trkpt><trkpt lat="44.4395074" lon="9.9102286"><ele>711.0</ele><time>2026-05-03T09:46:54.207Z</time></trkpt><trkpt lat="44.4396386" lon="9.9102674"><ele>711.0</ele><time>2026-05-03T09:46:55.209Z</time></trkpt><trkpt lat="44.4397922" lon="9.9103692"><ele>712.6666666666666</ele><time>2026-05-03T09:46:56.2Z</time></trkpt><trkpt lat="44.4399245" lon="9.9105543"><ele>714.3333333333333</ele><time>2026-05-03T09:46:57.203Z</time></trkpt><trkpt lat="44.4401256" lon="9.9105933"><ele>716.0</ele><time>2026-05-03T09:46:58.199Z</time></trkpt><trkpt lat="44.4402827" lon="9.9106729"><ele>720.3333333333333</ele><time>2026-05-03T09:46:59.202Z</time></trkpt><trkpt lat="44.4404918" lon="9.9106439"><ele>724.6666666666666</ele><time>2026-05-03T09:47:00.204Z</time></trkpt><trkpt lat="44.4407082" lon="9.9105826"><ele>729.0</ele><time>2026-05-03T09:47:01.211Z</time></trkpt><trkpt lat="44.4409081" lon="9.9104611"><ele>729.0</ele><time>2026-05-03T09:47:02.21Z</time></trkpt><trkpt lat="44.4411186" lon="9.910292"><ele>729.0</ele><time>2026-05-03T09:47:03.213Z</time></trkpt><trkpt lat="44.441316" lon="9.9100823"><ele>731.5</ele><time>2026-05-03T09:47:04.212Z</time></trkpt><trkpt lat="44.441522" lon="9.9098107"><ele>734.0</ele><time>2026-05-03T09:47:05.211Z</time></trkpt><trkpt lat="44.4416789" lon="9.9095908"><ele>734.0</ele><time>2026-05-03T09:47:06.2Z</time></trkpt><trkpt lat="44.4417943" lon="9.9093754"><ele>734.0</ele><time>2026-05-03T09:47:07.2Z</time></trkpt><trkpt lat="44.4419057" lon="9.9093013"><ele>734.0</ele><time>2026-05-03T09:47:08.199Z</time></trkpt><trkpt lat="44.4421363" lon="9.909452"><ele>735.6666666666666</ele><time>2026-05-03T09:47:10.185Z</time></trkpt><trkpt lat="44.4422571" lon="9.9096709"><ele>737.3333333333334</ele><time>2026-05-03T09:47:11.192Z</time></trkpt><trkpt lat="44.4423872" lon="9.9098527"><ele>739.0</ele><time>2026-05-03T09:47:12.202Z</time></trkpt><trkpt lat="44.4425508" lon="9.9099743"><ele>739.0</ele><time>2026-05-03T09:47:13.201Z</time></trkpt><trkpt lat="44.4427419" lon="9.9100507"><ele>739.0</ele><time>2026-05-03T09:47:14.202Z</time></trkpt><trkpt lat="44.4429162" lon="9.9100145"><ele>739.0</ele><time>2026-05-03T09:47:15.204Z</time></trkpt><trkpt lat="44.4431205" lon="9.9099572"><ele>743.3333333333334</ele><time>2026-05-03T09:47:16.205Z</time></trkpt><trkpt lat="44.4432874" lon="9.9098898"><ele>747.6666666666666</ele><time>2026-05-03T09:47:17.205Z</time></trkpt><trkpt lat="44.4434419" lon="9.9097478"><ele>752.0</ele><time>2026-05-03T09:47:18.207Z</time></trkpt><trkpt lat="44.4435694" lon="9.9095615"><ele>752.0</ele><time>2026-05-03T09:47:19.197Z</time></trkpt><trkpt lat="44.4436871" lon="9.9093355"><ele>752.0</ele><time>2026-05-03T09:47:20.202Z</time></trkpt><trkpt lat="44.4437936" lon="9.9090846"><ele>752.0</ele><time>2026-05-03T09:47:21.207Z</time></trkpt><trkpt lat="44.4438608" lon="9.9088189"><ele>755.3333333333333</ele><time>2026-05-03T09:47:22.204Z</time></trkpt><trkpt lat="44.4439122" lon="9.9085351"><ele>758.6666666666666</ele><time>2026-05-03T09:47:23.203Z</time></trkpt><trkpt lat="44.4439655" lon="9.9082316"><ele>762.0</ele><time>2026-05-03T09:47:24.209Z</time></trkpt><trkpt lat="44.4440185" lon="9.9079969"><ele>763.0</ele><time>2026-05-03T09:47:25.205Z</time></trkpt><trkpt lat="44.4441559" lon="9.907834"><ele>764.0</ele><time>2026-05-03T09:47:26.204Z</time></trkpt><trkpt lat="44.4443006" lon="9.9076705"><ele>765.0</ele><time>2026-05-03T09:47:27.206Z</time></trkpt><trkpt lat="44.4444248" lon="9.9074407"><ele>762.0</ele><time>2026-05-03T09:47:28.206Z</time></trkpt><trkpt lat="44.444565" lon="9.9072161"><ele>759.0</ele><time>2026-05-03T09:47:29.204Z</time></trkpt><trkpt lat="44.4446094" lon="9.9070034"><ele>756.0</ele><time>2026-05-03T09:47:30.204Z</time></trkpt><trkpt lat="44.4445791" lon="9.9067904"><ele>755.6666666666666</ele><time>2026-05-03T09:47:31.209Z</time></trkpt><trkpt lat="44.4444672" lon="9.9065844"><ele>755.3333333333333</ele><time>2026-05-03T09:47:32.2Z</time></trkpt><trkpt lat="44.4443857" lon="9.906367"><ele>755.0</ele><time>2026-05-03T09:47:33.196Z</time></trkpt><trkpt lat="44.4443445" lon="9.9061201"><ele>755.0</ele><time>2026-05-03T09:47:34.186Z</time></trkpt><trkpt lat="44.4442932" lon="9.9059273"><ele>755.0</ele><time>2026-05-03T09:47:35.169Z</time></trkpt><trkpt lat="44.4443204" lon="9.9056983"><ele>755.0</ele><time>2026-05-03T09:47:36.188Z</time></trkpt><trkpt lat="44.4443978" lon="9.9055221"><ele>755.0</ele><time>2026-05-03T09:47:37.197Z</time></trkpt><trkpt lat="44.444501" lon="9.9053736"><ele>755.0</ele><time>2026-05-03T09:47:38.182Z</time></trkpt><trkpt lat="44.4446047" lon="9.9052876"><ele>755.0</ele><time>2026-05-03T09:47:39.175Z</time></trkpt><trkpt lat="44.4446932" lon="9.9053295"><ele>755.0</ele><time>2026-05-03T09:47:40.192Z</time></trkpt><trkpt lat="44.444919" lon="9.905458"><ele>764.5</ele><time>2026-05-03T09:47:41.201Z</time></trkpt><trkpt lat="44.4451039" lon="9.9056488"><ele>774.0</ele><time>2026-05-03T09:47:42.205Z</time></trkpt><trkpt lat="44.4453381" lon="9.9057906"><ele>775.0</ele><time>2026-05-03T09:47:43.211Z</time></trkpt><trkpt lat="44.4455729" lon="9.9058589"><ele>776.0</ele><time>2026-05-03T09:47:44.212Z</time></trkpt><trkpt lat="44.4458495" lon="9.9059629"><ele>786.0</ele><time>2026-05-03T09:47:45.207Z</time></trkpt><trkpt lat="44.446133" lon="9.9060617"><ele>796.0</ele><time>2026-05-03T09:47:46.203Z</time></trkpt><trkpt lat="44.4463788" lon="9.9061737"><ele>796.25</ele><time>2026-05-03T09:47:47.205Z</time></trkpt><trkpt lat="44.4465675" lon="9.9062401"><ele>796.5</ele><time>2026-05-03T09:47:48.209Z</time></trkpt><trkpt lat="44.4467011" lon="9.9062429"><ele>796.75</ele><time>2026-05-03T09:47:49.204Z</time></trkpt><trkpt lat="44.4468096" lon="9.9062446"><ele>797.0</ele><time>2026-05-03T09:47:50.199Z</time></trkpt><trkpt lat="44.4469066" lon="9.9062841"><ele>797.0</ele><time>2026-05-03T09:47:51.203Z</time></trkpt><trkpt lat="44.4468907" lon="9.906415"><ele>797.0</ele><time>2026-05-03T09:47:52.206Z</time></trkpt><trkpt lat="44.4468111" lon="9.9065317"><ele>797.0</ele><time>2026-05-03T09:47:53.2Z</time></trkpt><trkpt lat="44.4466821" lon="9.906534"><ele>797.0</ele><time>2026-05-03T09:47:54.2Z</time></trkpt><trkpt lat="44.4464862" lon="9.9065625"><ele>797.0</ele><time>2026-05-03T09:47:55.198Z</time></trkpt><trkpt lat="44.4463055" lon="9.9065239"><ele>797.0</ele><time>2026-05-03T09:47:56.199Z</time></trkpt><trkpt lat="44.44607" lon="9.9065341"><ele>797.0</ele><time>2026-05-03T09:47:57.203Z</time></trkpt><trkpt lat="44.4458766" lon="9.9065573"><ele>796.6666666666667</ele><time>2026-05-03T09:47:58.205Z</time></trkpt><trkpt lat="44.4456881" lon="9.9066106"><ele>796.3333333333333</ele><time>2026-05-03T09:47:59.196Z</time></trkpt><trkpt lat="44.4455136" lon="9.9067003"><ele>796.0</ele><time>2026-05-03T09:48:00.199Z</time></trkpt><trkpt lat="44.4453837" lon="9.9068507"><ele>793.0</ele><time>2026-05-03T09:48:01.202Z</time></trkpt><trkpt lat="44.4453031" lon="9.906986"><ele>790.0</ele><time>2026-05-03T09:48:02.199Z</time></trkpt><trkpt lat="44.4453235" lon="9.9071969"><ele>787.0</ele><time>2026-05-03T09:48:03.197Z</time></trkpt><trkpt lat="44.4453466" lon="9.9074383"><ele>789.0</ele><time>2026-05-03T09:48:04.201Z</time></trkpt><trkpt lat="44.4453473" lon="9.9076683"><ele>791.0</ele><time>2026-05-03T09:48:05.211Z</time></trkpt><trkpt lat="44.4453221" lon="9.9078963"><ele>793.0</ele><time>2026-05-03T09:48:06.211Z</time></trkpt><trkpt lat="44.4453278" lon="9.9081048"><ele>793.0</ele><time>2026-05-03T09:48:07.208Z</time></trkpt><trkpt lat="44.4453188" lon="9.9083042"><ele>793.0</ele><time>2026-05-03T09:48:08.209Z</time></trkpt><trkpt lat="44.4453783" lon="9.9085238"><ele>793.0</ele><time>2026-05-03T09:48:09.207Z</time></trkpt><trkpt lat="44.4454171" lon="9.90866"><ele>793.0</ele><time>2026-05-03T09:48:10.206Z</time></trkpt><trkpt lat="44.4454434" lon="9.908754"><ele>796.0</ele><time>2026-05-03T09:48:11.2Z</time></trkpt><trkpt lat="44.4455237" lon="9.9088186"><ele>799.0</ele><time>2026-05-03T09:48:12.204Z</time></trkpt><trkpt lat="44.4456304" lon="9.9089095"><ele>802.0</ele><time>2026-05-03T09:48:13.208Z</time></trkpt><trkpt lat="44.4457414" lon="9.9089354"><ele>805.0</ele><time>2026-05-03T09:48:14.208Z</time></trkpt><trkpt lat="44.4458702" lon="9.9089457"><ele>805.0</ele><time>2026-05-03T09:48:15.208Z</time></trkpt><trkpt lat="44.4460345" lon="9.908938"><ele>805.0</ele><time>2026-05-03T09:48:16.205Z</time></trkpt><trkpt lat="44.4461624" lon="9.9088796"><ele>805.0</ele><time>2026-05-03T09:48:17.196Z</time></trkpt><trkpt lat="44.4462615" lon="9.9087181"><ele>807.0</ele><time>2026-05-03T09:48:18.198Z</time></trkpt><trkpt lat="44.4463715" lon="9.9086119"><ele>809.0</ele><time>2026-05-03T09:48:19.198Z</time></trkpt><trkpt lat="44.4464935" lon="9.9085543"><ele>811.0</ele><time>2026-05-03T09:48:20.202Z</time></trkpt><trkpt lat="44.4466106" lon="9.9085497"><ele>813.0</ele><time>2026-05-03T09:48:21.195Z</time></trkpt><trkpt lat="44.4467335" lon="9.9086691"><ele>813.0</ele><time>2026-05-03T09:48:22.203Z</time></trkpt><trkpt lat="44.4468679" lon="9.9087217"><ele>813.0</ele><time>2026-05-03T09:48:23.201Z</time></trkpt><trkpt lat="44.4470068" lon="9.9087366"><ele>813.0</ele><time>2026-05-03T09:48:24.201Z</time></trkpt><trkpt lat="44.4471088" lon="9.9087382"><ele>813.0</ele><time>2026-05-03T09:48:25.201Z</time></trkpt><trkpt lat="44.4472615" lon="9.9086494"><ele>815.6666666666667</ele><time>2026-05-03T09:48:26.202Z</time></trkpt><trkpt lat="44.4474147" lon="9.9085656"><ele>818.3333333333334</ele><time>2026-05-03T09:48:27.204Z</time></trkpt><trkpt lat="44.4475634" lon="9.9084034"><ele>821.0</ele><time>2026-05-03T09:48:28.207Z</time></trkpt><trkpt lat="44.4476894" lon="9.9082862"><ele>824.0</ele><time>2026-05-03T09:48:29.205Z</time></trkpt><trkpt lat="44.4478381" lon="9.9081332"><ele>827.0</ele><time>2026-05-03T09:48:30.201Z</time></trkpt><trkpt lat="44.4479751" lon="9.9079788"><ele>830.0</ele><time>2026-05-03T09:48:31.201Z</time></trkpt><trkpt lat="44.4480897" lon="9.9078532"><ele>832.5</ele><time>2026-05-03T09:48:32.206Z</time></trkpt><trkpt lat="44.4481838" lon="9.9077287"><ele>835.0</ele><time>2026-05-03T09:48:33.204Z</time></trkpt><trkpt lat="44.4482595" lon="9.9075508"><ele>837.5</ele><time>2026-05-03T09:48:34.202Z</time></trkpt><trkpt lat="44.4483456" lon="9.9073522"><ele>840.0</ele><time>2026-05-03T09:48:35.206Z</time></trkpt><trkpt lat="44.4483865" lon="9.9072384"><ele>840.0</ele><time>2026-05-03T09:48:36.213Z</time></trkpt><trkpt lat="44.4484565" lon="9.9070997"><ele>840.0</ele><time>2026-05-03T09:48:37.204Z</time></trkpt><trkpt lat="44.4485359" lon="9.9069615"><ele>840.0</ele><time>2026-05-03T09:48:38.194Z</time></trkpt><trkpt lat="44.4486322" lon="9.9068471"><ele>840.0</ele><time>2026-05-03T09:48:39.2Z</time></trkpt><trkpt lat="44.4486862" lon="9.9067759"><ele>840.0</ele><time>2026-05-03T09:48:40.197Z</time></trkpt><trkpt lat="44.4487892" lon="9.9067173"><ele>841.75</ele><time>2026-05-03T09:48:41.197Z</time></trkpt><trkpt lat="44.4489019" lon="9.9066435"><ele>843.5</ele><time>2026-05-03T09:48:42.197Z</time></trkpt><trkpt lat="44.4490452" lon="9.9065382"><ele>845.25</ele><time>2026-05-03T09:48:43.204Z</time></trkpt><trkpt lat="44.4491887" lon="9.9064655"><ele>847.0</ele><time>2026-05-03T09:48:44.201Z</time></trkpt><trkpt lat="44.4493588" lon="9.9064499"><ele>847.0</ele><time>2026-05-03T09:48:45.203Z</time></trkpt><trkpt lat="44.4495243" lon="9.906342"><ele>847.0</ele><time>2026-05-03T09:48:46.2Z</time></trkpt><trkpt lat="44.4496436" lon="9.9062195"><ele>847.0</ele><time>2026-05-03T09:48:47.201Z</time></trkpt><trkpt lat="44.4497451" lon="9.9061112"><ele>847.0</ele><time>2026-05-03T09:48:48.205Z</time></trkpt><trkpt lat="44.4498265" lon="9.9061365"><ele>847.0</ele><time>2026-05-03T09:48:50.2Z</time></trkpt><trkpt lat="44.4497903" lon="9.9062573"><ele>847.0</ele><time>2026-05-03T09:48:51.196Z</time></trkpt><trkpt lat="44.4496937" lon="9.9063398"><ele>847.0</ele><time>2026-05-03T09:48:52.2Z</time></trkpt><trkpt lat="44.4495194" lon="9.9064354"><ele>847.0</ele><time>2026-05-03T09:48:53.199Z</time></trkpt><trkpt lat="44.4493396" lon="9.9065871"><ele>847.0</ele><time>2026-05-03T09:48:54.2Z</time></trkpt><trkpt lat="44.4491954" lon="9.9067445"><ele>847.0</ele><time>2026-05-03T09:48:55.193Z</time></trkpt><trkpt lat="44.4490054" lon="9.9069725"><ele>844.6666666666666</ele><time>2026-05-03T09:48:56.199Z</time></trkpt><trkpt lat="44.4488895" lon="9.9071854"><ele>842.3333333333333</ele><time>2026-05-03T09:48:57.196Z</time></trkpt><trkpt lat="44.4487291" lon="9.907416"><ele>840.0</ele><time>2026-05-03T09:48:58.197Z</time></trkpt><trkpt lat="44.4486512" lon="9.9074941"><ele>840.0</ele><time>2026-05-03T09:48:59.201Z</time></trkpt><trkpt lat="44.4486914" lon="9.9075842"><ele>840.0</ele><time>2026-05-03T09:49:00.203Z</time></trkpt><trkpt lat="44.4487705" lon="9.9076893"><ele>840.0</ele><time>2026-05-03T09:49:01.207Z</time></trkpt><trkpt lat="44.4488525" lon="9.9077394"><ele>840.0</ele><time>2026-05-03T09:49:02.206Z</time></trkpt><trkpt lat="44.4489472" lon="9.9077303"><ele>840.0</ele><time>2026-05-03T09:49:03.209Z</time></trkpt><trkpt lat="44.4490714" lon="9.9076483"><ele>843.8</ele><time>2026-05-03T09:49:04.206Z</time></trkpt><trkpt lat="44.4491754" lon="9.9075647"><ele>847.6</ele><time>2026-05-03T09:49:05.199Z</time></trkpt><trkpt lat="44.4492873" lon="9.9075028"><ele>851.4000000000001</ele><time>2026-05-03T09:49:06.209Z</time></trkpt><trkpt lat="44.4493751" lon="9.9074606"><ele>855.2</ele><time>2026-05-03T09:49:07.212Z</time></trkpt><trkpt lat="44.4494691" lon="9.9074749"><ele>859.0</ele><time>2026-05-03T09:49:08.203Z</time></trkpt><trkpt lat="44.4495337" lon="9.9074869"><ele>859.6666666666666</ele><time>2026-05-03T09:49:09.202Z</time></trkpt><trkpt lat="44.4495734" lon="9.9076384"><ele>860.3333333333333</ele><time>2026-05-03T09:49:11.204Z</time></trkpt><trkpt lat="44.4495716" lon="9.9077786"><ele>861.0</ele><time>2026-05-03T09:49:12.207Z</time></trkpt><trkpt lat="44.4495518" lon="9.9078782"><ele>861.6666666666667</ele><time>2026-05-03T09:49:13.202Z</time></trkpt><trkpt lat="44.4495258" lon="9.9079676"><ele>862.3333333333334</ele><time>2026-05-03T09:49:14.202Z</time></trkpt><trkpt lat="44.4494987" lon="9.908071"><ele>863.0</ele><time>2026-05-03T09:49:15.196Z</time></trkpt><trkpt lat="44.4494811" lon="9.9081743"><ele>863.0000000000001</ele><time>2026-05-03T09:49:16.197Z</time></trkpt><trkpt lat="44.4494618" lon="9.908269"><ele>863.0</ele><time>2026-05-03T09:49:17.204Z</time></trkpt><trkpt lat="44.4494561" lon="9.908385"><ele>863.0</ele><time>2026-05-03T09:49:18.175Z</time></trkpt><trkpt lat="44.44947" lon="9.9085136"><ele>863.0</ele><time>2026-05-03T09:49:19.178Z</time></trkpt><trkpt lat="44.4494432" lon="9.9086306"><ele>863.0000000000001</ele><time>2026-05-03T09:49:20.156Z</time></trkpt><trkpt lat="44.4494102" lon="9.9087518"><ele>863.0</ele><time>2026-05-03T09:49:21.165Z</time></trkpt><trkpt lat="44.4494771" lon="9.9088522"><ele>864.3333333333334</ele><time>2026-05-03T09:49:22.168Z</time></trkpt><trkpt lat="44.4496376" lon="9.9089355"><ele>865.6666666666667</ele><time>2026-05-03T09:49:23.178Z</time></trkpt><trkpt lat="44.4497915" lon="9.9090031"><ele>867.0</ele><time>2026-05-03T09:49:24.185Z</time></trkpt><trkpt lat="44.449916" lon="9.9090445"><ele>867.0</ele><time>2026-05-03T09:49:25.179Z</time></trkpt><trkpt lat="44.4500052" lon="9.9090705"><ele>867.0</ele><time>2026-05-03T09:49:26.168Z</time></trkpt><trkpt lat="44.4500912" lon="9.9090265"><ele>867.0</ele><time>2026-05-03T09:49:27.181Z</time></trkpt><trkpt lat="44.4501777" lon="9.9089457"><ele>867.0</ele><time>2026-05-03T09:49:28.18Z</time></trkpt><trkpt lat="44.4502622" lon="9.9088554"><ele>867.0</ele><time>2026-05-03T09:49:29.165Z</time></trkpt><trkpt lat="44.4503669" lon="9.9087412"><ele>869.0</ele><time>2026-05-03T09:49:30.165Z</time></trkpt><trkpt lat="44.4505175" lon="9.9085703"><ele>871.0</ele><time>2026-05-03T09:49:31.183Z</time></trkpt><trkpt lat="44.4507101" lon="9.9083624"><ele>873.0</ele><time>2026-05-03T09:49:32.205Z</time></trkpt><trkpt lat="44.4509307" lon="9.9082224"><ele>879.5</ele><time>2026-05-03T09:49:33.188Z</time></trkpt><trkpt lat="44.4511529" lon="9.9081348"><ele>886.0</ele><time>2026-05-03T09:49:34.202Z</time></trkpt><trkpt lat="44.4514142" lon="9.9081559"><ele>887.6666666666666</ele><time>2026-05-03T09:49:35.207Z</time></trkpt><trkpt lat="44.4515861" lon="9.9080181"><ele>889.3333333333333</ele><time>2026-05-03T09:49:36.207Z</time></trkpt><trkpt lat="44.4517656" lon="9.9079762"><ele>891.0</ele><time>2026-05-03T09:49:37.207Z</time></trkpt><trkpt lat="44.4519362" lon="9.908079"><ele>897.5</ele><time>2026-05-03T09:49:38.188Z</time></trkpt><trkpt lat="44.4521759" lon="9.9083784"><ele>904.0</ele><time>2026-05-03T09:49:39.196Z</time></trkpt><trkpt lat="44.452387" lon="9.9086747"><ele>905.5</ele><time>2026-05-03T09:49:40.203Z</time></trkpt><trkpt lat="44.4525193" lon="9.9089987"><ele>907.0</ele><time>2026-05-03T09:49:41.209Z</time></trkpt><trkpt lat="44.4525643" lon="9.9092633"><ele>908.3333333333333</ele><time>2026-05-03T09:49:42.206Z</time></trkpt><trkpt lat="44.4525766" lon="9.909442"><ele>909.6666666666667</ele><time>2026-05-03T09:49:43.206Z</time></trkpt><trkpt lat="44.4524941" lon="9.909621"><ele>911.0</ele><time>2026-05-03T09:49:44.203Z</time></trkpt><trkpt lat="44.4524193" lon="9.9098661"><ele>909.75</ele><time>2026-05-03T09:49:45.205Z</time></trkpt><trkpt lat="44.4523758" lon="9.9100825"><ele>908.5</ele><time>2026-05-03T09:49:46.207Z</time></trkpt><trkpt lat="44.4524083" lon="9.9102874"><ele>907.25</ele><time>2026-05-03T09:49:47.21Z</time></trkpt><trkpt lat="44.4524591" lon="9.9104021"><ele>906.0</ele><time>2026-05-03T09:49:48.219Z</time></trkpt><trkpt lat="44.4525915" lon="9.9105473"><ele>906.0</ele><time>2026-05-03T09:49:49.212Z</time></trkpt><trkpt lat="44.4527477" lon="9.910734"><ele>906.0</ele><time>2026-05-03T09:49:50.21Z</time></trkpt><trkpt lat="44.4528928" lon="9.910943"><ele>906.0</ele><time>2026-05-03T09:49:51.207Z</time></trkpt><trkpt lat="44.4530401" lon="9.9111889"><ele>914.5</ele><time>2026-05-03T09:49:52.212Z</time></trkpt><trkpt lat="44.4531793" lon="9.9114738"><ele>923.0</ele><time>2026-05-03T09:49:53.208Z</time></trkpt><trkpt lat="44.453291" lon="9.9118403"><ele>923.0</ele><time>2026-05-03T09:49:54.201Z</time></trkpt><trkpt lat="44.4533799" lon="9.9122262"><ele>923.0</ele><time>2026-05-03T09:49:55.203Z</time></trkpt><trkpt lat="44.4534719" lon="9.912539"><ele>923.6666666666667</ele><time>2026-05-03T09:49:56.213Z</time></trkpt><trkpt lat="44.4535567" lon="9.9128077"><ele>924.3333333333333</ele><time>2026-05-03T09:49:57.204Z</time></trkpt><trkpt lat="44.4536196" lon="9.9130226"><ele>925.0</ele><time>2026-05-03T09:49:58.204Z</time></trkpt><trkpt lat="44.4536466" lon="9.9132845"><ele>927.0</ele><time>2026-05-03T09:49:59.208Z</time></trkpt><trkpt lat="44.4536458" lon="9.9135447"><ele>929.0</ele><time>2026-05-03T09:50:00.201Z</time></trkpt><trkpt lat="44.4536355" lon="9.9138839"><ele>931.0</ele><time>2026-05-03T09:50:01.213Z</time></trkpt><trkpt lat="44.4536261" lon="9.9142091"><ele>934.3333333333333</ele><time>2026-05-03T09:50:02.204Z</time></trkpt><trkpt lat="44.4536049" lon="9.9145048"><ele>937.6666666666667</ele><time>2026-05-03T09:50:03.206Z</time></trkpt><trkpt lat="44.4535825" lon="9.9147724"><ele>941.0</ele><time>2026-05-03T09:50:04.204Z</time></trkpt><trkpt lat="44.4535516" lon="9.9150117"><ele>946.0</ele><time>2026-05-03T09:50:05.186Z</time></trkpt><trkpt lat="44.45349" lon="9.9152351"><ele>951.0</ele><time>2026-05-03T09:50:06.19Z</time></trkpt><trkpt lat="44.4533892" lon="9.9154253"><ele>956.0</ele><time>2026-05-03T09:50:07.204Z</time></trkpt><trkpt lat="44.4532494" lon="9.9156155"><ele>956.0</ele><time>2026-05-03T09:50:08.203Z</time></trkpt><trkpt lat="44.4530876" lon="9.9158112"><ele>956.0</ele><time>2026-05-03T09:50:09.205Z</time></trkpt><trkpt lat="44.4529214" lon="9.9160271"><ele>956.0</ele><time>2026-05-03T09:50:10.196Z</time></trkpt><trkpt lat="44.452737" lon="9.9162358"><ele>953.0</ele><time>2026-05-03T09:50:11.201Z</time></trkpt><trkpt lat="44.4525355" lon="9.9164268"><ele>950.0</ele><time>2026-05-03T09:50:12.202Z</time></trkpt><trkpt lat="44.4523964" lon="9.9166733"><ele>948.6666666666667</ele><time>2026-05-03T09:50:13.192Z</time></trkpt><trkpt lat="44.4522738" lon="9.9169094"><ele>947.3333333333333</ele><time>2026-05-03T09:50:14.198Z</time></trkpt><trkpt lat="44.4521411" lon="9.9170883"><ele>946.0</ele><time>2026-05-03T09:50:15.206Z</time></trkpt><trkpt lat="44.4520304" lon="9.9172866"><ele>946.0</ele><time>2026-05-03T09:50:16.201Z</time></trkpt><trkpt lat="44.451934" lon="9.9175271"><ele>946.0</ele><time>2026-05-03T09:50:17.203Z</time></trkpt><trkpt lat="44.451943" lon="9.9179268"><ele>949.0</ele><time>2026-05-03T09:50:18.2Z</time></trkpt><trkpt lat="44.451834" lon="9.9181669"><ele>952.0</ele><time>2026-05-03T09:50:19.21Z</time></trkpt><trkpt lat="44.4517201" lon="9.9184475"><ele>955.0</ele><time>2026-05-03T09:50:20.209Z</time></trkpt><trkpt lat="44.4515749" lon="9.9186914"><ele>957.0</ele><time>2026-05-03T09:50:21.198Z</time></trkpt><trkpt lat="44.4514644" lon="9.9188826"><ele>959.0</ele><time>2026-05-03T09:50:22.197Z</time></trkpt><trkpt lat="44.4513557" lon="9.9190604"><ele>961.0</ele><time>2026-05-03T09:50:23.206Z</time></trkpt><trkpt lat="44.4511728" lon="9.9191784"><ele>963.0</ele><time>2026-05-03T09:50:24.205Z</time></trkpt><trkpt lat="44.4510333" lon="9.919307"><ele>965.0</ele><time>2026-05-03T09:50:25.204Z</time></trkpt><trkpt lat="44.450918" lon="9.9193975"><ele>967.0</ele><time>2026-05-03T09:50:26.201Z</time></trkpt><trkpt lat="44.4508036" lon="9.9194155"><ele>969.0</ele><time>2026-05-03T09:50:27.21Z</time></trkpt><trkpt lat="44.4507401" lon="9.9194499"><ele>969.0</ele><time>2026-05-03T09:50:28.203Z</time></trkpt><trkpt lat="44.450658" lon="9.9195416"><ele>969.0000000000001</ele><time>2026-05-03T09:50:29.203Z</time></trkpt><trkpt lat="44.4505968" lon="9.9196614"><ele>969.0000000000001</ele><time>2026-05-03T09:50:30.203Z</time></trkpt><trkpt lat="44.4505429" lon="9.9197838"><ele>969.0</ele><time>2026-05-03T09:50:31.206Z</time></trkpt><trkpt lat="44.4505244" lon="9.9199146"><ele>969.0</ele><time>2026-05-03T09:50:32.206Z</time></trkpt><trkpt lat="44.4505612" lon="9.9200423"><ele>969.0</ele><time>2026-05-03T09:50:33.201Z</time></trkpt><trkpt lat="44.4506905" lon="9.9199567"><ele>969.0</ele><time>2026-05-03T09:50:34.205Z</time></trkpt><trkpt lat="44.4508169" lon="9.9198551"><ele>969.0</ele><time>2026-05-03T09:50:35.199Z</time></trkpt><trkpt lat="44.4509277" lon="9.9197104"><ele>969.0</ele><time>2026-05-03T09:50:36.193Z</time></trkpt><trkpt lat="44.4510542" lon="9.9195361"><ele>969.0</ele><time>2026-05-03T09:50:37.198Z</time></trkpt><trkpt lat="44.4511813" lon="9.9193652"><ele>969.0</ele><time>2026-05-03T09:50:38.199Z</time></trkpt><trkpt lat="44.4513359" lon="9.9191973"><ele>969.0</ele><time>2026-05-03T09:50:39.197Z</time></trkpt><trkpt lat="44.4515788" lon="9.9189786"><ele>970.5</ele><time>2026-05-03T09:50:40.209Z</time></trkpt><trkpt lat="44.4519067" lon="9.9188301"><ele>972.0</ele><time>2026-05-03T09:50:41.206Z</time></trkpt><trkpt lat="44.4522793" lon="9.9188266"><ele>972.5</ele><time>2026-05-03T09:50:42.206Z</time></trkpt><trkpt lat="44.4525647" lon="9.9187484"><ele>973.0</ele><time>2026-05-03T09:50:43.204Z</time></trkpt><trkpt lat="44.4527568" lon="9.9185796"><ele>973.0</ele><time>2026-05-03T09:50:44.203Z</time></trkpt><trkpt lat="44.4529305" lon="9.9184615"><ele>973.0</ele><time>2026-05-03T09:50:45.203Z</time></trkpt><trkpt lat="44.4530779" lon="9.9182606"><ele>973.0</ele><time>2026-05-03T09:50:46.207Z</time></trkpt><trkpt lat="44.4532022" lon="9.9180798"><ele>974.3333333333333</ele><time>2026-05-03T09:50:47.198Z</time></trkpt><trkpt lat="44.4533237" lon="9.9179313"><ele>975.6666666666667</ele><time>2026-05-03T09:50:48.197Z</time></trkpt><trkpt lat="44.4534518" lon="9.9177863"><ele>977.0</ele><time>2026-05-03T09:50:49.2Z</time></trkpt><trkpt lat="44.4535984" lon="9.9177024"><ele>975.0</ele><time>2026-05-03T09:50:50.201Z</time></trkpt><trkpt lat="44.4538179" lon="9.9177046"><ele>973.0</ele><time>2026-05-03T09:50:51.201Z</time></trkpt><trkpt lat="44.4539977" lon="9.9176695"><ele>971.0</ele><time>2026-05-03T09:50:52.194Z</time></trkpt><trkpt lat="44.4542043" lon="9.9177101"><ele>971.0</ele><time>2026-05-03T09:50:53.201Z</time></trkpt><trkpt lat="44.4544383" lon="9.9177767"><ele>971.0</ele><time>2026-05-03T09:50:54.199Z</time></trkpt><trkpt lat="44.4546221" lon="9.9178337"><ele>971.0</ele><time>2026-05-03T09:50:55.204Z</time></trkpt><trkpt lat="44.4548097" lon="9.917923"><ele>969.6666666666667</ele><time>2026-05-03T09:50:56.202Z</time></trkpt><trkpt lat="44.4549835" lon="9.918058"><ele>968.3333333333333</ele><time>2026-05-03T09:50:57.199Z</time></trkpt><trkpt lat="44.4551535" lon="9.9182205"><ele>967.0</ele><time>2026-05-03T09:50:58.198Z</time></trkpt><trkpt lat="44.4552846" lon="9.9184347"><ele>967.0</ele><time>2026-05-03T09:50:59.203Z</time></trkpt><trkpt lat="44.4554155" lon="9.9186232"><ele>967.0</ele><time>2026-05-03T09:51:00.209Z</time></trkpt><trkpt lat="44.4554911" lon="9.9187981"><ele>967.0</ele><time>2026-05-03T09:51:01.212Z</time></trkpt><trkpt lat="44.4555756" lon="9.9190376"><ele>971.0</ele><time>2026-05-03T09:51:02.214Z</time></trkpt><trkpt lat="44.4556442" lon="9.9191047"><ele>975.0</ele><time>2026-05-03T09:51:03.206Z</time></trkpt><trkpt lat="44.4557286" lon="9.9191838"><ele>979.0</ele><time>2026-05-03T09:51:04.208Z</time></trkpt><trkpt lat="44.4558597" lon="9.9190803"><ele>983.0</ele><time>2026-05-03T09:51:05.206Z</time></trkpt><trkpt lat="44.4560167" lon="9.9189308"><ele>983.0</ele><time>2026-05-03T09:51:06.2Z</time></trkpt><trkpt lat="44.456178" lon="9.9187835"><ele>983.0</ele><time>2026-05-03T09:51:07.193Z</time></trkpt><trkpt lat="44.4563704" lon="9.9187312"><ele>983.0</ele><time>2026-05-03T09:51:08.18Z</time></trkpt><trkpt lat="44.4565343" lon="9.9187167"><ele>983.6666666666667</ele><time>2026-05-03T09:51:09.17Z</time></trkpt><trkpt lat="44.4567372" lon="9.9187523"><ele>984.3333333333333</ele><time>2026-05-03T09:51:10.189Z</time></trkpt><trkpt lat="44.4569509" lon="9.9188434"><ele>985.0</ele><time>2026-05-03T09:51:11.211Z</time></trkpt><trkpt lat="44.4571175" lon="9.9189103"><ele>988.3333333333333</ele><time>2026-05-03T09:51:12.207Z</time></trkpt><trkpt lat="44.457295" lon="9.9190061"><ele>991.6666666666667</ele><time>2026-05-03T09:51:13.206Z</time></trkpt><trkpt lat="44.4574541" lon="9.9191046"><ele>995.0</ele><time>2026-05-03T09:51:14.206Z</time></trkpt><trkpt lat="44.4576058" lon="9.9192675"><ele>991.3333333333334</ele><time>2026-05-03T09:51:15.211Z</time></trkpt><trkpt lat="44.4577023" lon="9.9194157"><ele>987.6666666666667</ele><time>2026-05-03T09:51:16.204Z</time></trkpt><trkpt lat="44.4578009" lon="9.9195837"><ele>984.0</ele><time>2026-05-03T09:51:17.201Z</time></trkpt><trkpt lat="44.4580076" lon="9.9199381"><ele>984.0</ele><time>2026-05-03T09:51:19.222Z</time></trkpt><trkpt lat="44.4580667" lon="9.9200633"><ele>984.0</ele><time>2026-05-03T09:51:20.206Z</time></trkpt><trkpt lat="44.4581639" lon="9.919994"><ele>984.0</ele><time>2026-05-03T09:51:21.203Z</time></trkpt><trkpt lat="44.4582789" lon="9.9198812"><ele>984.0</ele><time>2026-05-03T09:51:22.199Z</time></trkpt><trkpt lat="44.4583944" lon="9.9197895"><ele>984.0</ele><time>2026-05-03T09:51:23.197Z</time></trkpt><trkpt lat="44.45855" lon="9.9197946"><ele>984.0</ele><time>2026-05-03T09:51:24.193Z</time></trkpt><trkpt lat="44.4586422" lon="9.9198412"><ele>984.0</ele><time>2026-05-03T09:51:25.198Z</time></trkpt><trkpt lat="44.4587082" lon="9.9198616"><ele>984.0</ele><time>2026-05-03T09:51:26.2Z</time></trkpt><trkpt lat="44.4588331" lon="9.9199687"><ele>985.6666666666667</ele><time>2026-05-03T09:51:27.206Z</time></trkpt><trkpt lat="44.4589725" lon="9.9201885"><ele>987.3333333333334</ele><time>2026-05-03T09:51:28.202Z</time></trkpt><trkpt lat="44.4590752" lon="9.9204215"><ele>989.0</ele><time>2026-05-03T09:51:29.213Z</time></trkpt><trkpt lat="44.4591385" lon="9.9206968"><ele>983.6666666666667</ele><time>2026-05-03T09:51:30.212Z</time></trkpt><trkpt lat="44.4592261" lon="9.9209501"><ele>978.3333333333333</ele><time>2026-05-03T09:51:31.21Z</time></trkpt><trkpt lat="44.4593053" lon="9.9211672"><ele>973.0</ele><time>2026-05-03T09:51:32.212Z</time></trkpt><trkpt lat="44.4593653" lon="9.9213377"><ele>973.0</ele><time>2026-05-03T09:51:33.211Z</time></trkpt><trkpt lat="44.4594418" lon="9.9214617"><ele>973.0</ele><time>2026-05-03T09:51:34.205Z</time></trkpt><trkpt lat="44.4595709" lon="9.9214989"><ele>973.0</ele><time>2026-05-03T09:51:35.202Z</time></trkpt><trkpt lat="44.4597401" lon="9.9214987"><ele>973.0</ele><time>2026-05-03T09:51:36.192Z</time></trkpt><trkpt lat="44.4599277" lon="9.9214132"><ele>973.0</ele><time>2026-05-03T09:51:37.178Z</time></trkpt><trkpt lat="44.4601244" lon="9.92128"><ele>973.0</ele><time>2026-05-03T09:51:38.195Z</time></trkpt><trkpt lat="44.4603183" lon="9.9210399"><ele>971.3333333333333</ele><time>2026-05-03T09:51:39.22Z</time></trkpt><trkpt lat="44.4604516" lon="9.9209223"><ele>969.6666666666667</ele><time>2026-05-03T09:51:40.201Z</time></trkpt><trkpt lat="44.4605999" lon="9.920834"><ele>968.0</ele><time>2026-05-03T09:51:41.2Z</time></trkpt><trkpt lat="44.4608222" lon="9.9208584"><ele>973.3333333333334</ele><time>2026-05-03T09:51:42.207Z</time></trkpt><trkpt lat="44.46101" lon="9.9208679"><ele>978.6666666666667</ele><time>2026-05-03T09:51:43.199Z</time></trkpt><trkpt lat="44.4611804" lon="9.9208925"><ele>984.0</ele><time>2026-05-03T09:51:44.204Z</time></trkpt><trkpt lat="44.4613281" lon="9.9209676"><ele>984.0</ele><time>2026-05-03T09:51:45.206Z</time></trkpt><trkpt lat="44.4615066" lon="9.9210795"><ele>984.0</ele><time>2026-05-03T09:51:46.205Z</time></trkpt><trkpt lat="44.4616508" lon="9.9212955"><ele>984.0</ele><time>2026-05-03T09:51:47.211Z</time></trkpt><trkpt lat="44.4618376" lon="9.9214775"><ele>984.0</ele><time>2026-05-03T09:51:48.214Z</time></trkpt><trkpt lat="44.4620114" lon="9.9216493"><ele>984.0</ele><time>2026-05-03T09:51:49.218Z</time></trkpt><trkpt lat="44.4621427" lon="9.9217574"><ele>984.0</ele><time>2026-05-03T09:51:50.204Z</time></trkpt><trkpt lat="44.462244" lon="9.9217971"><ele>985.5</ele><time>2026-05-03T09:51:51.203Z</time></trkpt><trkpt lat="44.4623362" lon="9.921772"><ele>987.0</ele><time>2026-05-03T09:51:52.202Z</time></trkpt><trkpt lat="44.4624613" lon="9.9217634"><ele>988.5</ele><time>2026-05-03T09:51:53.205Z</time></trkpt><trkpt lat="44.4625619" lon="9.9216774"><ele>990.0</ele><time>2026-05-03T09:51:54.196Z</time></trkpt><trkpt lat="44.4625645" lon="9.9212625"><ele>996.0</ele><time>2026-05-03T09:51:55.197Z</time></trkpt><trkpt lat="44.4625831" lon="9.9208973"><ele>1002.0</ele><time>2026-05-03T09:51:56.196Z</time></trkpt><trkpt lat="44.4625562" lon="9.9203824"><ele>1007.0</ele><time>2026-05-03T09:51:57.206Z</time></trkpt><trkpt lat="44.4625423" lon="9.9199501"><ele>1012.0</ele><time>2026-05-03T09:51:58.206Z</time></trkpt><trkpt lat="44.4626143" lon="9.919607"><ele>1012.0</ele><time>2026-05-03T09:51:59.221Z</time></trkpt><trkpt lat="44.4627307" lon="9.9193541"><ele>1012.0</ele><time>2026-05-03T09:52:00.211Z</time></trkpt><trkpt lat="44.4629184" lon="9.9191628"><ele>1012.0</ele><time>2026-05-03T09:52:01.208Z</time></trkpt><trkpt lat="44.4630475" lon="9.9190552"><ele>1012.0</ele><time>2026-05-03T09:52:02.208Z</time></trkpt><trkpt lat="44.4631732" lon="9.9189533"><ele>1012.0</ele><time>2026-05-03T09:52:03.202Z</time></trkpt><trkpt lat="44.4632885" lon="9.9189642"><ele>1012.0</ele><time>2026-05-03T09:52:04.204Z</time></trkpt><trkpt lat="44.4634004" lon="9.9190656"><ele>1012.0</ele><time>2026-05-03T09:52:05.204Z</time></trkpt><trkpt lat="44.4635193" lon="9.9193321"><ele>1010.5</ele><time>2026-05-03T09:52:06.203Z</time></trkpt><trkpt lat="44.4636577" lon="9.9195746"><ele>1009.0</ele><time>2026-05-03T09:52:07.21Z</time></trkpt><trkpt lat="44.4638721" lon="9.919813"><ele>1009.0</ele><time>2026-05-03T09:52:08.21Z</time></trkpt><trkpt lat="44.4641713" lon="9.9200612"><ele>1009.0</ele><time>2026-05-03T09:52:09.22Z</time></trkpt><trkpt lat="44.4644549" lon="9.9202829"><ele>1005.0</ele><time>2026-05-03T09:52:10.208Z</time></trkpt><trkpt lat="44.4646648" lon="9.9203125"><ele>1001.0</ele><time>2026-05-03T09:52:11.21Z</time></trkpt><trkpt lat="44.4648671" lon="9.9205249"><ele>1001.0</ele><time>2026-05-03T09:52:12.203Z</time></trkpt><trkpt lat="44.4650374" lon="9.9206533"><ele>1001.0</ele><time>2026-05-03T09:52:13.209Z</time></trkpt><trkpt lat="44.4651922" lon="9.9207621"><ele>1001.0</ele><time>2026-05-03T09:52:14.212Z</time></trkpt><trkpt lat="44.465338" lon="9.920816"><ele>1002.0</ele><time>2026-05-03T09:52:15.204Z</time></trkpt><trkpt lat="44.4655336" lon="9.9209302"><ele>1003.0</ele><time>2026-05-03T09:52:16.198Z</time></trkpt><trkpt lat="44.4657452" lon="9.9210143"><ele>1004.0</ele><time>2026-05-03T09:52:17.196Z</time></trkpt><trkpt lat="44.4659531" lon="9.920896"><ele>1004.0</ele><time>2026-05-03T09:52:18.205Z</time></trkpt><trkpt lat="44.4661095" lon="9.920631"><ele>1004.0</ele><time>2026-05-03T09:52:19.218Z</time></trkpt><trkpt lat="44.466298" lon="9.9204369"><ele>1003.6666666666667</ele><time>2026-05-03T09:52:20.208Z</time></trkpt><trkpt lat="44.4665161" lon="9.9203548"><ele>1003.3333333333333</ele><time>2026-05-03T09:52:21.205Z</time></trkpt><trkpt lat="44.4667391" lon="9.9203621"><ele>1003.0</ele><time>2026-05-03T09:52:22.207Z</time></trkpt><trkpt lat="44.4669636" lon="9.9203602"><ele>1007.0</ele><time>2026-05-03T09:52:23.204Z</time></trkpt><trkpt lat="44.467199" lon="9.9203711"><ele>1011.0</ele><time>2026-05-03T09:52:24.199Z</time></trkpt><trkpt lat="44.4674152" lon="9.9203601"><ele>1011.0</ele><time>2026-05-03T09:52:25.199Z</time></trkpt><trkpt lat="44.4676288" lon="9.9203809"><ele>1011.0</ele><time>2026-05-03T09:52:26.201Z</time></trkpt><trkpt lat="44.4678151" lon="9.9203864"><ele>1011.0</ele><time>2026-05-03T09:52:27.207Z</time></trkpt><trkpt lat="44.4679899" lon="9.920454"><ele>1013.0</ele><time>2026-05-03T09:52:28.2Z</time></trkpt><trkpt lat="44.4681755" lon="9.92072"><ele>1015.0</ele><time>2026-05-03T09:52:29.217Z</time></trkpt><trkpt lat="44.4683512" lon="9.9209598"><ele>1015.0</ele><time>2026-05-03T09:52:30.21Z</time></trkpt><trkpt lat="44.4685203" lon="9.9212521"><ele>1015.0</ele><time>2026-05-03T09:52:31.201Z</time></trkpt><trkpt lat="44.4686823" lon="9.9215689"><ele>1017.0</ele><time>2026-05-03T09:52:32.204Z</time></trkpt><trkpt lat="44.468814" lon="9.9218542"><ele>1019.0</ele><time>2026-05-03T09:52:33.206Z</time></trkpt><trkpt lat="44.4689188" lon="9.9221483"><ele>1019.0</ele><time>2026-05-03T09:52:34.209Z</time></trkpt><trkpt lat="44.469035" lon="9.9223994"><ele>1019.0</ele><time>2026-05-03T09:52:35.204Z</time></trkpt><trkpt lat="44.4691087" lon="9.9225649"><ele>1019.0</ele><time>2026-05-03T09:52:36.2Z</time></trkpt><trkpt lat="44.4692113" lon="9.9227101"><ele>1019.0</ele><time>2026-05-03T09:52:37.203Z</time></trkpt><trkpt lat="44.4693338" lon="9.9226825"><ele>1019.0</ele><time>2026-05-03T09:52:38.203Z</time></trkpt><trkpt lat="44.4694858" lon="9.9226268"><ele>1019.0</ele><time>2026-05-03T09:52:39.217Z</time></trkpt><trkpt lat="44.4695959" lon="9.9224722"><ele>1019.0</ele><time>2026-05-03T09:52:40.206Z</time></trkpt><trkpt lat="44.4696793" lon="9.9222511"><ele>1017.0</ele><time>2026-05-03T09:52:41.197Z</time></trkpt><trkpt lat="44.4698569" lon="9.9216531"><ele>1017.0</ele><time>2026-05-03T09:52:43.192Z</time></trkpt><trkpt lat="44.4699371" lon="9.9213598"><ele>1017.0</ele><time>2026-05-03T09:52:44.196Z</time></trkpt><trkpt lat="44.4699685" lon="9.9210831"><ele>1017.0</ele><time>2026-05-03T09:52:45.192Z</time></trkpt><trkpt lat="44.4700253" lon="9.9208459"><ele>1022.3333333333333</ele><time>2026-05-03T09:52:46.185Z</time></trkpt><trkpt lat="44.4700866" lon="9.9206433"><ele>1027.6666666666665</ele><time>2026-05-03T09:52:47.174Z</time></trkpt><trkpt lat="44.4701463" lon="9.9204243"><ele>1033.0</ele><time>2026-05-03T09:52:48.162Z</time></trkpt><trkpt lat="44.4702247" lon="9.9202571"><ele>1033.0</ele><time>2026-05-03T09:52:49.181Z</time></trkpt><trkpt lat="44.4703374" lon="9.9202587"><ele>1033.0</ele><time>2026-05-03T09:52:50.201Z</time></trkpt><trkpt lat="44.4704396" lon="9.9203172"><ele>1033.0</ele><time>2026-05-03T09:52:51.189Z</time></trkpt><trkpt lat="44.4705293" lon="9.9203171"><ele>1033.0</ele><time>2026-05-03T09:52:52.201Z</time></trkpt><trkpt lat="44.4705673" lon="9.9204995"><ele>1033.0</ele><time>2026-05-03T09:52:53.207Z</time></trkpt><trkpt lat="44.4705937" lon="9.920633"><ele>1033.8</ele><time>2026-05-03T09:52:54.204Z</time></trkpt><trkpt lat="44.4706478" lon="9.9207833"><ele>1034.6</ele><time>2026-05-03T09:52:55.211Z</time></trkpt><trkpt lat="44.4707064" lon="9.9209152"><ele>1035.4</ele><time>2026-05-03T09:52:56.208Z</time></trkpt><trkpt lat="44.4707593" lon="9.9210365"><ele>1036.2</ele><time>2026-05-03T09:52:57.212Z</time></trkpt><trkpt lat="44.4708144" lon="9.9211509"><ele>1037.0</ele><time>2026-05-03T09:52:58.211Z</time></trkpt><trkpt lat="44.4708858" lon="9.9212763"><ele>1033.0</ele><time>2026-05-03T09:52:59.218Z</time></trkpt><trkpt lat="44.4709606" lon="9.9213848"><ele>1029.0</ele><time>2026-05-03T09:53:00.228Z</time></trkpt><trkpt lat="44.4710431" lon="9.9214949"><ele>1025.0</ele><time>2026-05-03T09:53:01.211Z</time></trkpt><trkpt lat="44.4711308" lon="9.9216063"><ele>1021.0</ele><time>2026-05-03T09:53:02.215Z</time></trkpt><trkpt lat="44.471215" lon="9.9217054"><ele>1026.6</ele><time>2026-05-03T09:53:03.213Z</time></trkpt><trkpt lat="44.4712749" lon="9.9218149"><ele>1032.1999999999998</ele><time>2026-05-03T09:53:04.204Z</time></trkpt><trkpt lat="44.4713268" lon="9.9219521"><ele>1037.8000000000002</ele><time>2026-05-03T09:53:05.213Z</time></trkpt><trkpt lat="44.4713495" lon="9.9221022"><ele>1043.4</ele><time>2026-05-03T09:53:06.201Z</time></trkpt><trkpt lat="44.4713436" lon="9.9222451"><ele>1049.0</ele><time>2026-05-03T09:53:07.202Z</time></trkpt><trkpt lat="44.4713231" lon="9.9223936"><ele>1049.0</ele><time>2026-05-03T09:53:08.209Z</time></trkpt><trkpt lat="44.4713155" lon="9.9225346"><ele>1049.0</ele><time>2026-05-03T09:53:09.209Z</time></trkpt><trkpt lat="44.4713114" lon="9.9226855"><ele>1049.0</ele><time>2026-05-03T09:53:10.211Z</time></trkpt><trkpt lat="44.4713598" lon="9.9228573"><ele>1049.0</ele><time>2026-05-03T09:53:11.209Z</time></trkpt><trkpt lat="44.4714352" lon="9.9230521"><ele>1044.0</ele><time>2026-05-03T09:53:12.207Z</time></trkpt><trkpt lat="44.4715257" lon="9.9232846"><ele>1039.0</ele><time>2026-05-03T09:53:13.204Z</time></trkpt><trkpt lat="44.471637" lon="9.9235722"><ele>1034.0</ele><time>2026-05-03T09:53:14.21Z</time></trkpt><trkpt lat="44.4717279" lon="9.9237991"><ele>1035.0</ele><time>2026-05-03T09:53:15.212Z</time></trkpt><trkpt lat="44.4718148" lon="9.9240046"><ele>1036.0</ele><time>2026-05-03T09:53:16.205Z</time></trkpt><trkpt lat="44.4718393" lon="9.9242261"><ele>1037.0</ele><time>2026-05-03T09:53:17.204Z</time></trkpt><trkpt lat="44.4718556" lon="9.9244379"><ele>1037.0</ele><time>2026-05-03T09:53:18.207Z</time></trkpt><trkpt lat="44.4717498" lon="9.9246654"><ele>1037.0</ele><time>2026-05-03T09:53:19.206Z</time></trkpt><trkpt lat="44.471661" lon="9.924871"><ele>1037.0</ele><time>2026-05-03T09:53:20.213Z</time></trkpt><trkpt lat="44.4715309" lon="9.9251179"><ele>1043.0</ele><time>2026-05-03T09:53:21.201Z</time></trkpt><trkpt lat="44.4714313" lon="9.9254286"><ele>1049.0</ele><time>2026-05-03T09:53:22.212Z</time></trkpt><trkpt lat="44.4713206" lon="9.9256821"><ele>1035.0</ele><time>2026-05-03T09:53:23.204Z</time></trkpt><trkpt lat="44.4712188" lon="9.9259308"><ele>1021.0</ele><time>2026-05-03T09:53:24.208Z</time></trkpt><trkpt lat="44.4711451" lon="9.9261729"><ele>1007.0</ele><time>2026-05-03T09:53:25.209Z</time></trkpt><trkpt lat="44.4711843" lon="9.9264784"><ele>1008.0</ele><time>2026-05-03T09:53:26.205Z</time></trkpt><trkpt lat="44.4712248" lon="9.9267708"><ele>1009.0</ele><time>2026-05-03T09:53:27.208Z</time></trkpt><trkpt lat="44.4712325" lon="9.927049"><ele>1010.0</ele><time>2026-05-03T09:53:28.203Z</time></trkpt><trkpt lat="44.4712388" lon="9.927299"><ele>1010.0</ele><time>2026-05-03T09:53:29.198Z</time></trkpt><trkpt lat="44.4712322" lon="9.9275197"><ele>1010.0</ele><time>2026-05-03T09:53:30.205Z</time></trkpt><trkpt lat="44.4712971" lon="9.9277325"><ele>1010.0</ele><time>2026-05-03T09:53:31.201Z</time></trkpt><trkpt lat="44.4714001" lon="9.9279225"><ele>1019.3333333333334</ele><time>2026-05-03T09:53:32.203Z</time></trkpt><trkpt lat="44.4715107" lon="9.9280607"><ele>1028.6666666666667</ele><time>2026-05-03T09:53:33.207Z</time></trkpt><trkpt lat="44.4716076" lon="9.9282333"><ele>1038.0</ele><time>2026-05-03T09:53:34.202Z</time></trkpt><trkpt lat="44.4716734" lon="9.9284403"><ele>1039.0</ele><time>2026-05-03T09:53:35.206Z</time></trkpt><trkpt lat="44.4717757" lon="9.9286175"><ele>1040.0</ele><time>2026-05-03T09:53:36.21Z</time></trkpt><trkpt lat="44.4718255" lon="9.9287833"><ele>1041.0</ele><time>2026-05-03T09:53:37.204Z</time></trkpt><trkpt lat="44.4718672" lon="9.9288999"><ele>1042.0</ele><time>2026-05-03T09:53:38.204Z</time></trkpt><trkpt lat="44.4719132" lon="9.9290433"><ele>1042.0</ele><time>2026-05-03T09:53:39.19Z</time></trkpt><trkpt lat="44.471932" lon="9.9292066"><ele>1042.0</ele><time>2026-05-03T09:53:40.211Z</time></trkpt><trkpt lat="44.4720079" lon="9.9293448"><ele>1042.0</ele><time>2026-05-03T09:53:41.225Z</time></trkpt><trkpt lat="44.472066" lon="9.9294695"><ele>1042.0</ele><time>2026-05-03T09:53:42.223Z</time></trkpt><trkpt lat="44.4721015" lon="9.9295836"><ele>1042.0</ele><time>2026-05-03T09:53:43.218Z</time></trkpt><trkpt lat="44.4721469" lon="9.9297175"><ele>1040.2</ele><time>2026-05-03T09:53:44.212Z</time></trkpt><trkpt lat="44.4721983" lon="9.9298432"><ele>1038.4</ele><time>2026-05-03T09:53:45.215Z</time></trkpt><trkpt lat="44.4722379" lon="9.9299665"><ele>1036.6</ele><time>2026-05-03T09:53:46.222Z</time></trkpt><trkpt lat="44.4722763" lon="9.9300963"><ele>1034.8</ele><time>2026-05-03T09:53:47.216Z</time></trkpt><trkpt lat="44.4723305" lon="9.9302412"><ele>1033.0</ele><time>2026-05-03T09:53:48.211Z</time></trkpt><trkpt lat="44.4723988" lon="9.9304006"><ele>1033.0</ele><time>2026-05-03T09:53:49.215Z</time></trkpt><trkpt lat="44.4724485" lon="9.9306244"><ele>1033.0</ele><time>2026-05-03T09:53:50.221Z</time></trkpt><trkpt lat="44.4725012" lon="9.9308391"><ele>1033.0</ele><time>2026-05-03T09:53:51.213Z</time></trkpt><trkpt lat="44.4724978" lon="9.9310632"><ele>1030.6666666666665</ele><time>2026-05-03T09:53:52.214Z</time></trkpt><trkpt lat="44.4725077" lon="9.9313758"><ele>1028.3333333333333</ele><time>2026-05-03T09:53:53.212Z</time></trkpt><trkpt lat="44.4724286" lon="9.9316342"><ele>1026.0</ele><time>2026-05-03T09:53:54.211Z</time></trkpt><trkpt lat="44.4723823" lon="9.931977"><ele>1021.0</ele><time>2026-05-03T09:53:55.214Z</time></trkpt><trkpt lat="44.4723102" lon="9.9323324"><ele>1016.0</ele><time>2026-05-03T09:53:56.219Z</time></trkpt><trkpt lat="44.4722273" lon="9.9326963"><ele>1013.0</ele><time>2026-05-03T09:53:57.22Z</time></trkpt><trkpt lat="44.4721292" lon="9.933062"><ele>1010.0</ele><time>2026-05-03T09:53:58.218Z</time></trkpt><trkpt lat="44.4719887" lon="9.9333897"><ele>1017.5</ele><time>2026-05-03T09:53:59.221Z</time></trkpt><trkpt lat="44.4718402" lon="9.9337342"><ele>1025.0</ele><time>2026-05-03T09:54:00.225Z</time></trkpt><trkpt lat="44.4717061" lon="9.9340695"><ele>1023.0</ele><time>2026-05-03T09:54:01.211Z</time></trkpt><trkpt lat="44.4715849" lon="9.9343448"><ele>1021.0</ele><time>2026-05-03T09:54:02.203Z</time></trkpt><trkpt lat="44.4715133" lon="9.9345713"><ele>1019.0</ele><time>2026-05-03T09:54:03.198Z</time></trkpt><trkpt lat="44.4714809" lon="9.93481"><ele>1019.0</ele><time>2026-05-03T09:54:04.197Z</time></trkpt><trkpt lat="44.4714677" lon="9.9350197"><ele>1019.0</ele><time>2026-05-03T09:54:05.198Z</time></trkpt><trkpt lat="44.4715595" lon="9.9351537"><ele>1019.0</ele><time>2026-05-03T09:54:06.201Z</time></trkpt><trkpt lat="44.4716687" lon="9.9352576"><ele>1019.0</ele><time>2026-05-03T09:54:07.201Z</time></trkpt><trkpt lat="44.4717218" lon="9.9353327"><ele>1019.4000000000001</ele><time>2026-05-03T09:54:08.2Z</time></trkpt><trkpt lat="44.471759" lon="9.93526"><ele>1019.8000000000001</ele><time>2026-05-03T09:54:11.208Z</time></trkpt><trkpt lat="44.4718473" lon="9.9352711"><ele>1020.1999999999999</ele><time>2026-05-03T09:54:12.212Z</time></trkpt><trkpt lat="44.4719887" lon="9.9352733"><ele>1020.5999999999999</ele><time>2026-05-03T09:54:13.215Z</time></trkpt><trkpt lat="44.4721355" lon="9.9353145"><ele>1021.0</ele><time>2026-05-03T09:54:14.209Z</time></trkpt><trkpt lat="44.4722754" lon="9.9354942"><ele>1021.0</ele><time>2026-05-03T09:54:15.219Z</time></trkpt><trkpt lat="44.4724521" lon="9.93577"><ele>1021.0</ele><time>2026-05-03T09:54:16.214Z</time></trkpt><trkpt lat="44.4725934" lon="9.9359544"><ele>1023.6666666666666</ele><time>2026-05-03T09:54:17.217Z</time></trkpt><trkpt lat="44.4727417" lon="9.9361547"><ele>1026.3333333333333</ele><time>2026-05-03T09:54:18.208Z</time></trkpt><trkpt lat="44.4728476" lon="9.9363249"><ele>1029.0</ele><time>2026-05-03T09:54:19.209Z</time></trkpt><trkpt lat="44.4729007" lon="9.9365015"><ele>1029.0</ele><time>2026-05-03T09:54:20.222Z</time></trkpt><trkpt lat="44.4729352" lon="9.9367026"><ele>1029.0</ele><time>2026-05-03T09:54:21.203Z</time></trkpt><trkpt lat="44.4728797" lon="9.9368958"><ele>1029.0</ele><time>2026-05-03T09:54:22.204Z</time></trkpt><trkpt lat="44.4728083" lon="9.9371172"><ele>1028.3333333333333</ele><time>2026-05-03T09:54:23.207Z</time></trkpt><trkpt lat="44.4727263" lon="9.9373353"><ele>1027.6666666666665</ele><time>2026-05-03T09:54:24.208Z</time></trkpt><trkpt lat="44.4726803" lon="9.9375581"><ele>1027.0</ele><time>2026-05-03T09:54:25.207Z</time></trkpt><trkpt lat="44.4726287" lon="9.9378209"><ele>1025.6666666666665</ele><time>2026-05-03T09:54:26.21Z</time></trkpt><trkpt lat="44.4726139" lon="9.938114"><ele>1024.3333333333333</ele><time>2026-05-03T09:54:27.207Z</time></trkpt><trkpt lat="44.4725899" lon="9.9383253"><ele>1023.0</ele><time>2026-05-03T09:54:28.214Z</time></trkpt><trkpt lat="44.4726045" lon="9.9385028"><ele>1022.0</ele><time>2026-05-03T09:54:29.212Z</time></trkpt><trkpt lat="44.4725562" lon="9.9386363"><ele>1021.0</ele><time>2026-05-03T09:54:30.219Z</time></trkpt><trkpt lat="44.4724834" lon="9.9387155"><ele>1020.0</ele><time>2026-05-03T09:54:31.207Z</time></trkpt><trkpt lat="44.4723627" lon="9.9387812"><ele>1019.0</ele><time>2026-05-03T09:54:32.209Z</time></trkpt><trkpt lat="44.4722756" lon="9.9388767"><ele>1018.0</ele><time>2026-05-03T09:54:33.206Z</time></trkpt><trkpt lat="44.4722068" lon="9.9389771"><ele>1018.0</ele><time>2026-05-03T09:54:34.205Z</time></trkpt><trkpt lat="44.4721295" lon="9.9390661"><ele>1018.0</ele><time>2026-05-03T09:54:35.207Z</time></trkpt><trkpt lat="44.4720885" lon="9.9392286"><ele>1018.0</ele><time>2026-05-03T09:54:36.206Z</time></trkpt><trkpt lat="44.4720827" lon="9.9393875"><ele>1018.0</ele><time>2026-05-03T09:54:37.205Z</time></trkpt><trkpt lat="44.4720953" lon="9.9395458"><ele>1019.3333333333333</ele><time>2026-05-03T09:54:38.193Z</time></trkpt><trkpt lat="44.4721862" lon="9.9397478"><ele>1020.6666666666667</ele><time>2026-05-03T09:54:39.199Z</time></trkpt><trkpt lat="44.4722613" lon="9.9399272"><ele>1022.0</ele><time>2026-05-03T09:54:40.215Z</time></trkpt><trkpt lat="44.4723809" lon="9.9400906"><ele>1027.6666666666667</ele><time>2026-05-03T09:54:41.21Z</time></trkpt><trkpt lat="44.4724924" lon="9.9402317"><ele>1033.3333333333333</ele><time>2026-05-03T09:54:42.208Z</time></trkpt><trkpt lat="44.4726347" lon="9.9403566"><ele>1039.0</ele><time>2026-05-03T09:54:43.206Z</time></trkpt><trkpt lat="44.472773" lon="9.94042"><ele>1036.0</ele><time>2026-05-03T09:54:44.213Z</time></trkpt><trkpt lat="44.472953" lon="9.9404273"><ele>1033.0</ele><time>2026-05-03T09:54:45.209Z</time></trkpt><trkpt lat="44.4731913" lon="9.9403809"><ele>1030.0</ele><time>2026-05-03T09:54:46.211Z</time></trkpt><trkpt lat="44.4734113" lon="9.9404099"><ele>1030.0</ele><time>2026-05-03T09:54:47.214Z</time></trkpt><trkpt lat="44.4736001" lon="9.940506"><ele>1030.0</ele><time>2026-05-03T09:54:48.226Z</time></trkpt><trkpt lat="44.4737759" lon="9.940714"><ele>1030.0</ele><time>2026-05-03T09:54:49.206Z</time></trkpt><trkpt lat="44.4739161" lon="9.9409578"><ele>1023.6666666666666</ele><time>2026-05-03T09:54:50.213Z</time></trkpt><trkpt lat="44.4740695" lon="9.9412033"><ele>1017.3333333333333</ele><time>2026-05-03T09:54:51.201Z</time></trkpt><trkpt lat="44.4742229" lon="9.9413449"><ele>1011.0</ele><time>2026-05-03T09:54:52.2Z</time></trkpt><trkpt lat="44.4743484" lon="9.9414828"><ele>1011.0</ele><time>2026-05-03T09:54:53.201Z</time></trkpt><trkpt lat="44.4744194" lon="9.9415381"><ele>1010.9999999999999</ele><time>2026-05-03T09:54:54.199Z</time></trkpt><trkpt lat="44.4744098" lon="9.9416285"><ele>1010.9999999999999</ele><time>2026-05-03T09:54:55.199Z</time></trkpt><trkpt lat="44.4743325" lon="9.9417082"><ele>1011.0</ele><time>2026-05-03T09:54:56.202Z</time></trkpt><trkpt lat="44.4741828" lon="9.9418384"><ele>1011.0</ele><time>2026-05-03T09:54:57.203Z</time></trkpt><trkpt lat="44.4740134" lon="9.9420032"><ele>1007.0</ele><time>2026-05-03T09:54:58.196Z</time></trkpt><trkpt lat="44.4738468" lon="9.9421835"><ele>1003.0</ele><time>2026-05-03T09:54:59.2Z</time></trkpt><trkpt lat="44.4737137" lon="9.9423436"><ele>999.0</ele><time>2026-05-03T09:55:00.2Z</time></trkpt><trkpt lat="44.4735688" lon="9.9425272"><ele>1006.0</ele><time>2026-05-03T09:55:01.208Z</time></trkpt><trkpt lat="44.4734481" lon="9.9426883"><ele>1013.0</ele><time>2026-05-03T09:55:02.192Z</time></trkpt><trkpt lat="44.4733621" lon="9.9428881"><ele>1020.0</ele><time>2026-05-03T09:55:03.168Z</time></trkpt><trkpt lat="44.4733498" lon="9.9431077"><ele>1020.0</ele><time>2026-05-03T09:55:04.179Z</time></trkpt><trkpt lat="44.4734493" lon="9.9433738"><ele>1020.0</ele><time>2026-05-03T09:55:05.2Z</time></trkpt><trkpt lat="44.4736048" lon="9.9436552"><ele>1019.0</ele><time>2026-05-03T09:55:06.201Z</time></trkpt><trkpt lat="44.4737533" lon="9.94392"><ele>1018.0</ele><time>2026-05-03T09:55:07.185Z</time></trkpt><trkpt lat="44.4741212" lon="9.9445718"><ele>1013.5</ele><time>2026-05-03T09:55:09.212Z</time></trkpt><trkpt lat="44.4742102" lon="9.9448732"><ele>1009.0</ele><time>2026-05-03T09:55:10.208Z</time></trkpt><trkpt lat="44.4742925" lon="9.9451768"><ele>1009.0</ele><time>2026-05-03T09:55:11.217Z</time></trkpt><trkpt lat="44.4743219" lon="9.945438"><ele>1009.0</ele><time>2026-05-03T09:55:12.204Z</time></trkpt><trkpt lat="44.4743728" lon="9.9456777"><ele>1009.0</ele><time>2026-05-03T09:55:13.204Z</time></trkpt><trkpt lat="44.4743996" lon="9.9458804"><ele>1007.75</ele><time>2026-05-03T09:55:14.2Z</time></trkpt><trkpt lat="44.4744638" lon="9.946023"><ele>1006.5</ele><time>2026-05-03T09:55:15.195Z</time></trkpt><trkpt lat="44.4745066" lon="9.9461692"><ele>1005.25</ele><time>2026-05-03T09:55:16.204Z</time></trkpt><trkpt lat="44.4745917" lon="9.9462676"><ele>1004.0</ele><time>2026-05-03T09:55:17.201Z</time></trkpt><trkpt lat="44.4747356" lon="9.9463293"><ele>1004.0</ele><time>2026-05-03T09:55:18.2Z</time></trkpt><trkpt lat="44.4749164" lon="9.946387"><ele>1004.0</ele><time>2026-05-03T09:55:19.216Z</time></trkpt><trkpt lat="44.4751043" lon="9.9464525"><ele>1004.0</ele><time>2026-05-03T09:55:20.207Z</time></trkpt><trkpt lat="44.4753281" lon="9.9465484"><ele>998.5</ele><time>2026-05-03T09:55:21.225Z</time></trkpt><trkpt lat="44.4755161" lon="9.9466089"><ele>993.0</ele><time>2026-05-03T09:55:22.21Z</time></trkpt><trkpt lat="44.4757696" lon="9.9466655"><ele>1001.5</ele><time>2026-05-03T09:55:23.208Z</time></trkpt><trkpt lat="44.4760043" lon="9.9468025"><ele>1010.0</ele><time>2026-05-03T09:55:24.206Z</time></trkpt><trkpt lat="44.4762135" lon="9.9468881"><ele>1004.3333333333334</ele><time>2026-05-03T09:55:25.204Z</time></trkpt><trkpt lat="44.4764006" lon="9.9469702"><ele>998.6666666666667</ele><time>2026-05-03T09:55:26.201Z</time></trkpt><trkpt lat="44.4765765" lon="9.9470507"><ele>993.0</ele><time>2026-05-03T09:55:27.21Z</time></trkpt><trkpt lat="44.4766734" lon="9.947158"><ele>993.0</ele><time>2026-05-03T09:55:28.206Z</time></trkpt><trkpt lat="44.476741" lon="9.9473166"><ele>993.0</ele><time>2026-05-03T09:55:29.215Z</time></trkpt><trkpt lat="44.4768552" lon="9.9476093"><ele>993.0</ele><time>2026-05-03T09:55:30.219Z</time></trkpt><trkpt lat="44.4769678" lon="9.9478066"><ele>993.6666666666667</ele><time>2026-05-03T09:55:31.21Z</time></trkpt><trkpt lat="44.4771003" lon="9.9480471"><ele>994.3333333333334</ele><time>2026-05-03T09:55:32.211Z</time></trkpt><trkpt lat="44.4771981" lon="9.9482347"><ele>995.0</ele><time>2026-05-03T09:55:33.217Z</time></trkpt><trkpt lat="44.4772805" lon="9.9483884"><ele>995.0</ele><time>2026-05-03T09:55:34.21Z</time></trkpt><trkpt lat="44.4774036" lon="9.9485702"><ele>995.0</ele><time>2026-05-03T09:55:35.204Z</time></trkpt><trkpt lat="44.4775198" lon="9.9487503"><ele>995.0</ele><time>2026-05-03T09:55:36.201Z</time></trkpt><trkpt lat="44.4775881" lon="9.9489664"><ele>995.0</ele><time>2026-05-03T09:55:37.201Z</time></trkpt><trkpt lat="44.4776259" lon="9.9491955"><ele>995.0</ele><time>2026-05-03T09:55:38.206Z</time></trkpt><trkpt lat="44.4776567" lon="9.9494856"><ele>995.0</ele><time>2026-05-03T09:55:39.208Z</time></trkpt><trkpt lat="44.4777046" lon="9.9497339"><ele>996.0</ele><time>2026-05-03T09:55:40.207Z</time></trkpt><trkpt lat="44.4777416" lon="9.9498957"><ele>997.0</ele><time>2026-05-03T09:55:41.208Z</time></trkpt><trkpt lat="44.4777965" lon="9.9500533"><ele>998.0</ele><time>2026-05-03T09:55:42.209Z</time></trkpt><trkpt lat="44.477854" lon="9.9501222"><ele>999.0</ele><time>2026-05-03T09:55:43.207Z</time></trkpt><trkpt lat="44.4779101" lon="9.9502483"><ele>1000.0</ele><time>2026-05-03T09:55:44.206Z</time></trkpt><trkpt lat="44.478081" lon="9.9503353"><ele>1001.5</ele><time>2026-05-03T09:55:45.207Z</time></trkpt><trkpt lat="44.4782869" lon="9.9503635"><ele>1003.0</ele><time>2026-05-03T09:55:46.2Z</time></trkpt><trkpt lat="44.4785578" lon="9.9503143"><ele>1003.0</ele><time>2026-05-03T09:55:47.203Z</time></trkpt><trkpt lat="44.4787654" lon="9.9502794"><ele>1003.0</ele><time>2026-05-03T09:55:48.195Z</time></trkpt><trkpt lat="44.4789522" lon="9.9502482"><ele>1003.0</ele><time>2026-05-03T09:55:49.204Z</time></trkpt><trkpt lat="44.4791287" lon="9.9502112"><ele>1002.3333333333333</ele><time>2026-05-03T09:55:50.221Z</time></trkpt><trkpt lat="44.4792944" lon="9.9502651"><ele>1001.6666666666667</ele><time>2026-05-03T09:55:51.214Z</time></trkpt><trkpt lat="44.4794447" lon="9.9502208"><ele>1001.0</ele><time>2026-05-03T09:55:52.209Z</time></trkpt><trkpt lat="44.4795754" lon="9.9500936"><ele>1005.5</ele><time>2026-05-03T09:55:53.216Z</time></trkpt><trkpt lat="44.4797155" lon="9.9500201"><ele>1010.0</ele><time>2026-05-03T09:55:54.225Z</time></trkpt><trkpt lat="44.4760043" lon="9.9468025"><ele>1010.0</ele><time>2026-05-03T09:55:24.206Z</time></trkpt><trkpt lat="44.4762135" lon="9.9468881"><ele>1010.0</ele><time>2026-05-03T09:55:25.204Z</time></trkpt><trkpt lat="44.4764006" lon="9.9469702"><ele>1010.0</ele><time>2026-05-03T09:55:26.201Z</time></trkpt><trkpt lat="44.4765765" lon="9.9470507"><ele>1008.6666666666667</ele><time>2026-05-03T09:55:27.21Z</time></trkpt><trkpt lat="44.4766734" lon="9.947158"><ele>1007.3333333333333</ele><time>2026-05-03T09:55:28.206Z</time></trkpt><trkpt lat="44.476741" lon="9.9473166"><ele>1006.0</ele><time>2026-05-03T09:55:29.215Z</time></trkpt><trkpt lat="44.4768552" lon="9.9476093"><ele>1006.0</ele><time>2026-05-03T09:55:30.219Z</time></trkpt><trkpt lat="44.4769678" lon="9.9478066"><ele>1006.0</ele><time>2026-05-03T09:55:31.21Z</time></trkpt><trkpt lat="44.4771003" lon="9.9480471"><ele>1006.0</ele><time>2026-05-03T09:55:32.211Z</time></trkpt><trkpt lat="44.4771981" lon="9.9482347"><ele>1002.3333333333333</ele><time>2026-05-03T09:55:33.217Z</time></trkpt><trkpt lat="44.4772805" lon="9.9483884"><ele>998.6666666666667</ele><time>2026-05-03T09:55:34.21Z</time></trkpt><trkpt lat="44.4774036" lon="9.9485702"><ele>995.0</ele><time>2026-05-03T09:55:35.204Z</time></trkpt><trkpt lat="44.4775198" lon="9.9487503"><ele>995.0</ele><time>2026-05-03T09:55:36.201Z</time></trkpt><trkpt lat="44.4775881" lon="9.9489664"><ele>995.0</ele><time>2026-05-03T09:55:37.201Z</time></trkpt><trkpt lat="44.4776259" lon="9.9491955"><ele>995.0</ele><time>2026-05-03T09:55:38.206Z</time></trkpt><trkpt lat="44.4776567" lon="9.9494856"><ele>996.25</ele><time>2026-05-03T09:55:39.208Z</time></trkpt><trkpt lat="44.4777046" lon="9.9497339"><ele>997.5</ele><time>2026-05-03T09:55:40.207Z</time></trkpt><trkpt lat="44.4777416" lon="9.9498957"><ele>998.75</ele><time>2026-05-03T09:55:41.208Z</time></trkpt><trkpt lat="44.4777965" lon="9.9500533"><ele>1000.0</ele><time>2026-05-03T09:55:42.209Z</time></trkpt><trkpt lat="44.477854" lon="9.9501222"><ele>1001.0</ele><time>2026-05-03T09:55:43.207Z</time></trkpt><trkpt lat="44.4779101" lon="9.9502483"><ele>1002.0</ele><time>2026-05-03T09:55:44.206Z</time></trkpt><trkpt lat="44.478081" lon="9.9503353"><ele>1003.0</ele><time>2026-05-03T09:55:45.207Z</time></trkpt><trkpt lat="44.4782869" lon="9.9503635"><ele>1003.0</ele><time>2026-05-03T09:55:46.2Z</time></trkpt><trkpt lat="44.4785578" lon="9.9503143"><ele>1003.0</ele><time>2026-05-03T09:55:47.203Z</time></trkpt><trkpt lat="44.4787654" lon="9.9502794"><ele>1002.3333333333333</ele><time>2026-05-03T09:55:48.195Z</time></trkpt><trkpt lat="44.4789522" lon="9.9502482"><ele>1001.6666666666667</ele><time>2026-05-03T09:55:49.204Z</time></trkpt><trkpt lat="44.4791287" lon="9.9502112"><ele>1001.0</ele><time>2026-05-03T09:55:50.221Z</time></trkpt><trkpt lat="44.4792944" lon="9.9502651"><ele>1001.0</ele><time>2026-05-03T09:55:51.214Z</time></trkpt><trkpt lat="44.4794447" lon="9.9502208"><ele>1001.0</ele><time>2026-05-03T09:55:52.209Z</time></trkpt><trkpt lat="44.4795754" lon="9.9500936"><ele>1001.0</ele><time>2026-05-03T09:55:53.216Z</time></trkpt><trkpt lat="44.4797155" lon="9.9500201"><ele>995.3333333333334</ele><time>2026-05-03T09:55:54.225Z</time></trkpt><trkpt lat="44.4798641" lon="9.9499566"><ele>989.6666666666667</ele><time>2026-05-03T09:55:55.216Z</time></trkpt><trkpt lat="44.480024" lon="9.9499254"><ele>984.0</ele><time>2026-05-03T09:55:56.213Z</time></trkpt><trkpt lat="44.4801904" lon="9.9499077"><ele>984.0</ele><time>2026-05-03T09:55:57.212Z</time></trkpt><trkpt lat="44.4803416" lon="9.9498946"><ele>984.0</ele><time>2026-05-03T09:55:58.212Z</time></trkpt><trkpt lat="44.4804668" lon="9.9498139"><ele>984.0</ele><time>2026-05-03T09:55:59.221Z</time></trkpt><trkpt lat="44.480555" lon="9.9497489"><ele>984.0</ele><time>2026-05-03T09:56:00.211Z</time></trkpt><trkpt lat="44.4806679" lon="9.9496807"><ele>984.3333333333333</ele><time>2026-05-03T09:56:01.206Z</time></trkpt><trkpt lat="44.4807819" lon="9.9496102"><ele>984.6666666666666</ele><time>2026-05-03T09:56:02.202Z</time></trkpt><trkpt lat="44.4808866" lon="9.9492981"><ele>985.0</ele><time>2026-05-03T09:56:03.201Z</time></trkpt><trkpt lat="44.4810413" lon="9.9490685"><ele>981.3333333333333</ele><time>2026-05-03T09:56:04.202Z</time></trkpt><trkpt lat="44.4811679" lon="9.948881"><ele>977.6666666666667</ele><time>2026-05-03T09:56:05.209Z</time></trkpt><trkpt lat="44.4812905" lon="9.9486755"><ele>974.0</ele><time>2026-05-03T09:56:06.209Z</time></trkpt><trkpt lat="44.4813987" lon="9.948526"><ele>974.0</ele><time>2026-05-03T09:56:07.204Z</time></trkpt><trkpt lat="44.4814901" lon="9.9484528"><ele>974.0000000000001</ele><time>2026-05-03T09:56:08.204Z</time></trkpt><trkpt lat="44.4816193" lon="9.9484087"><ele>974.0000000000001</ele><time>2026-05-03T09:56:09.204Z</time></trkpt><trkpt lat="44.4817145" lon="9.9484543"><ele>974.0</ele><time>2026-05-03T09:56:10.207Z</time></trkpt><trkpt lat="44.4817943" lon="9.9485313"><ele>974.0</ele><time>2026-05-03T09:56:11.202Z</time></trkpt><trkpt lat="44.4818213" lon="9.9486519"><ele>974.0</ele><time>2026-05-03T09:56:12.205Z</time></trkpt><trkpt lat="44.4818344" lon="9.9487665"><ele>974.0</ele><time>2026-05-03T09:56:13.209Z</time></trkpt><trkpt lat="44.481882" lon="9.9489846"><ele>974.0</ele><time>2026-05-03T09:56:15.21Z</time></trkpt><trkpt lat="44.4819722" lon="9.9491442"><ele>974.0</ele><time>2026-05-03T09:56:16.199Z</time></trkpt><trkpt lat="44.4821164" lon="9.9493173"><ele>973.3333333333334</ele><time>2026-05-03T09:56:17.202Z</time></trkpt><trkpt lat="44.4822904" lon="9.9494843"><ele>972.6666666666667</ele><time>2026-05-03T09:56:18.207Z</time></trkpt><trkpt lat="44.4824631" lon="9.9496499"><ele>972.0</ele><time>2026-05-03T09:56:19.205Z</time></trkpt><trkpt lat="44.4825992" lon="9.9498388"><ele>972.0</ele><time>2026-05-03T09:56:20.219Z</time></trkpt><trkpt lat="44.4827558" lon="9.9499593"><ele>972.0</ele><time>2026-05-03T09:56:21.214Z</time></trkpt><trkpt lat="44.482917" lon="9.9500807"><ele>972.0</ele><time>2026-05-03T09:56:22.215Z</time></trkpt><trkpt lat="44.4830518" lon="9.9501904"><ele>973.6666666666667</ele><time>2026-05-03T09:56:23.205Z</time></trkpt><trkpt lat="44.4832014" lon="9.9501851"><ele>975.3333333333334</ele><time>2026-05-03T09:56:24.203Z</time></trkpt><trkpt lat="44.4833925" lon="9.9501881"><ele>977.0</ele><time>2026-05-03T09:56:25.206Z</time></trkpt><trkpt lat="44.4835908" lon="9.9502336"><ele>963.5</ele><time>2026-05-03T09:56:26.205Z</time></trkpt><trkpt lat="44.4837916" lon="9.9503207"><ele>950.0</ele><time>2026-05-03T09:56:27.207Z</time></trkpt><trkpt lat="44.4840172" lon="9.9505176"><ele>950.0</ele><time>2026-05-03T09:56:28.211Z</time></trkpt><trkpt lat="44.4842033" lon="9.950755"><ele>950.0</ele><time>2026-05-03T09:56:29.206Z</time></trkpt><trkpt lat="44.4843407" lon="9.9510134"><ele>953.5</ele><time>2026-05-03T09:56:30.206Z</time></trkpt><trkpt lat="44.4844034" lon="9.951349"><ele>957.0</ele><time>2026-05-03T09:56:31.207Z</time></trkpt><trkpt lat="44.484465" lon="9.951701"><ele>960.5</ele><time>2026-05-03T09:56:32.214Z</time></trkpt><trkpt lat="44.4845469" lon="9.9520218"><ele>964.0</ele><time>2026-05-03T09:56:33.208Z</time></trkpt><trkpt lat="44.484729" lon="9.9523511"><ele>954.6666666666666</ele><time>2026-05-03T09:56:34.21Z</time></trkpt><trkpt lat="44.4848794" lon="9.9526004"><ele>945.3333333333333</ele><time>2026-05-03T09:56:35.205Z</time></trkpt><trkpt lat="44.4849934" lon="9.9528495"><ele>936.0</ele><time>2026-05-03T09:56:36.204Z</time></trkpt><trkpt lat="44.4850974" lon="9.9530726"><ele>936.0</ele><time>2026-05-03T09:56:37.217Z</time></trkpt><trkpt lat="44.485164" lon="9.9533581"><ele>936.0</ele><time>2026-05-03T09:56:38.211Z</time></trkpt><trkpt lat="44.4852332" lon="9.9536822"><ele>935.6666666666667</ele><time>2026-05-03T09:56:39.213Z</time></trkpt><trkpt lat="44.4852175" lon="9.9539793"><ele>935.3333333333334</ele><time>2026-05-03T09:56:40.21Z</time></trkpt><trkpt lat="44.4851578" lon="9.9542442"><ele>935.0</ele><time>2026-05-03T09:56:41.209Z</time></trkpt><trkpt lat="44.4850658" lon="9.954536"><ele>931.5</ele><time>2026-05-03T09:56:42.206Z</time></trkpt><trkpt lat="44.4849156" lon="9.9548571"><ele>928.0</ele><time>2026-05-03T09:56:43.209Z</time></trkpt><trkpt lat="44.4848298" lon="9.9552191"><ele>921.0</ele><time>2026-05-03T09:56:44.209Z</time></trkpt><trkpt lat="44.4847526" lon="9.9556369"><ele>914.0</ele><time>2026-05-03T09:56:45.208Z</time></trkpt><trkpt lat="44.4846094" lon="9.9560204"><ele>919.0</ele><time>2026-05-03T09:56:46.224Z</time></trkpt><trkpt lat="44.4845374" lon="9.9563905"><ele>924.0</ele><time>2026-05-03T09:56:47.213Z</time></trkpt><trkpt lat="44.4845186" lon="9.9567926"><ele>924.0</ele><time>2026-05-03T09:56:48.209Z</time></trkpt><trkpt lat="44.4845252" lon="9.9571229"><ele>924.0</ele><time>2026-05-03T09:56:49.213Z</time></trkpt><trkpt lat="44.4844915" lon="9.9574237"><ele>924.3333333333333</ele><time>2026-05-03T09:56:50.215Z</time></trkpt><trkpt lat="44.4844758" lon="9.9577002"><ele>924.6666666666666</ele><time>2026-05-03T09:56:51.22Z</time></trkpt><trkpt lat="44.4844646" lon="9.9579745"><ele>925.0</ele><time>2026-05-03T09:56:52.211Z</time></trkpt><trkpt lat="44.4844654" lon="9.9582119"><ele>927.5</ele><time>2026-05-03T09:56:53.204Z</time></trkpt><trkpt lat="44.4844648" lon="9.958399"><ele>930.0</ele><time>2026-05-03T09:56:54.201Z</time></trkpt><trkpt lat="44.4844703" lon="9.9584971"><ele>932.5</ele><time>2026-05-03T09:56:55.2Z</time></trkpt><trkpt lat="44.484552" lon="9.9585448"><ele>935.0</ele><time>2026-05-03T09:56:56.208Z</time></trkpt><trkpt lat="44.4846849" lon="9.9586781"><ele>927.3333333333334</ele><time>2026-05-03T09:56:57.207Z</time></trkpt><trkpt lat="44.4848193" lon="9.9587392"><ele>919.6666666666667</ele><time>2026-05-03T09:56:58.208Z</time></trkpt><trkpt lat="44.4850234" lon="9.9587608"><ele>912.0</ele><time>2026-05-03T09:56:59.206Z</time></trkpt><trkpt lat="44.4852058" lon="9.9587928"><ele>912.0</ele><time>2026-05-03T09:57:00.21Z</time></trkpt><trkpt lat="44.4853853" lon="9.9588434"><ele>912.0</ele><time>2026-05-03T09:57:01.21Z</time></trkpt><trkpt lat="44.4855599" lon="9.9589767"><ele>912.0</ele><time>2026-05-03T09:57:02.218Z</time></trkpt><trkpt lat="44.4856957" lon="9.9591151"><ele>905.0</ele><time>2026-05-03T09:57:03.214Z</time></trkpt><trkpt lat="44.4857993" lon="9.9593962"><ele>898.0</ele><time>2026-05-03T09:57:04.213Z</time></trkpt><trkpt lat="44.4858253" lon="9.9596769"><ele>891.0</ele><time>2026-05-03T09:57:05.21Z</time></trkpt><trkpt lat="44.485752" lon="9.9600026"><ele>892.0</ele><time>2026-05-03T09:57:06.208Z</time></trkpt><trkpt lat="44.4857642" lon="9.9603197"><ele>893.0</ele><time>2026-05-03T09:57:07.189Z</time></trkpt><trkpt lat="44.4857838" lon="9.9606931"><ele>892.5</ele><time>2026-05-03T09:57:08.174Z</time></trkpt><trkpt lat="44.4858273" lon="9.9610713"><ele>892.0</ele><time>2026-05-03T09:57:09.174Z</time></trkpt><trkpt lat="44.485889" lon="9.9614797"><ele>892.5</ele><time>2026-05-03T09:57:10.179Z</time></trkpt><trkpt lat="44.4859363" lon="9.9618641"><ele>893.0</ele><time>2026-05-03T09:57:11.194Z</time></trkpt><trkpt lat="44.4859937" lon="9.9621743"><ele>893.0</ele><time>2026-05-03T09:57:12.208Z</time></trkpt><trkpt lat="44.4860795" lon="9.9624637"><ele>893.0</ele><time>2026-05-03T09:57:13.209Z</time></trkpt><trkpt lat="44.4861166" lon="9.9627789"><ele>892.3333333333334</ele><time>2026-05-03T09:57:14.21Z</time></trkpt><trkpt lat="44.4861058" lon="9.9630846"><ele>891.6666666666667</ele><time>2026-05-03T09:57:15.205Z</time></trkpt><trkpt lat="44.4860492" lon="9.9633157"><ele>891.0</ele><time>2026-05-03T09:57:16.21Z</time></trkpt><trkpt lat="44.4859642" lon="9.9635605"><ele>890.3333333333333</ele><time>2026-05-03T09:57:17.21Z</time></trkpt><trkpt lat="44.4858733" lon="9.9637946"><ele>889.6666666666666</ele><time>2026-05-03T09:57:18.208Z</time></trkpt><trkpt lat="44.4857602" lon="9.9639678"><ele>889.0</ele><time>2026-05-03T09:57:19.204Z</time></trkpt><trkpt lat="44.4856129" lon="9.9641669"><ele>889.6666666666666</ele><time>2026-05-03T09:57:20.204Z</time></trkpt><trkpt lat="44.4855667" lon="9.9643671"><ele>890.3333333333333</ele><time>2026-05-03T09:57:21.206Z</time></trkpt><trkpt lat="44.4855634" lon="9.9645834"><ele>891.0</ele><time>2026-05-03T09:57:22.208Z</time></trkpt><trkpt lat="44.4856025" lon="9.9647971"><ele>891.0</ele><time>2026-05-03T09:57:23.199Z</time></trkpt><trkpt lat="44.485666" lon="9.9649637"><ele>890.9999999999999</ele><time>2026-05-03T09:57:24.198Z</time></trkpt><trkpt lat="44.4857241" lon="9.9650121"><ele>890.9999999999999</ele><time>2026-05-03T09:57:25.186Z</time></trkpt><trkpt lat="44.4857845" lon="9.9650425"><ele>891.0</ele><time>2026-05-03T09:57:26.176Z</time></trkpt><trkpt lat="44.4859452" lon="9.9651104"><ele>891.0</ele><time>2026-05-03T09:57:27.182Z</time></trkpt><trkpt lat="44.4861081" lon="9.9651094"><ele>888.5</ele><time>2026-05-03T09:57:28.177Z</time></trkpt><trkpt lat="44.4863248" lon="9.9650443"><ele>886.0</ele><time>2026-05-03T09:57:29.177Z</time></trkpt><trkpt lat="44.4865399" lon="9.9648601"><ele>882.0</ele><time>2026-05-03T09:57:30.202Z</time></trkpt><trkpt lat="44.4867961" lon="9.9647774"><ele>878.0</ele><time>2026-05-03T09:57:31.21Z</time></trkpt><trkpt lat="44.4870208" lon="9.9646656"><ele>875.3333333333334</ele><time>2026-05-03T09:57:32.211Z</time></trkpt><trkpt lat="44.4871637" lon="9.9647912"><ele>872.6666666666667</ele><time>2026-05-03T09:57:33.214Z</time></trkpt><trkpt lat="44.4872545" lon="9.9649224"><ele>870.0</ele><time>2026-05-03T09:57:34.209Z</time></trkpt><trkpt lat="44.4873438" lon="9.9651184"><ele>870.0</ele><time>2026-05-03T09:57:35.207Z</time></trkpt><trkpt lat="44.4874512" lon="9.9652958"><ele>870.0</ele><time>2026-05-03T09:57:36.208Z</time></trkpt><trkpt lat="44.4875467" lon="9.9655055"><ele>870.0</ele><time>2026-05-03T09:57:37.206Z</time></trkpt><trkpt lat="44.4876388" lon="9.9657113"><ele>872.3333333333333</ele><time>2026-05-03T09:57:38.211Z</time></trkpt><trkpt lat="44.4877453" lon="9.9659378"><ele>874.6666666666666</ele><time>2026-05-03T09:57:39.209Z</time></trkpt><trkpt lat="44.4878192" lon="9.9661246"><ele>877.0</ele><time>2026-05-03T09:57:40.219Z</time></trkpt><trkpt lat="44.4879137" lon="9.9662676"><ele>877.0</ele><time>2026-05-03T09:57:41.21Z</time></trkpt><trkpt lat="44.4880597" lon="9.9663715"><ele>877.0</ele><time>2026-05-03T09:57:42.206Z</time></trkpt><trkpt lat="44.488217" lon="9.966358"><ele>877.0</ele><time>2026-05-03T09:57:43.204Z</time></trkpt><trkpt lat="44.4883849" lon="9.966325"><ele>877.0</ele><time>2026-05-03T09:57:44.205Z</time></trkpt><trkpt lat="44.4885249" lon="9.9663123"><ele>877.0</ele><time>2026-05-03T09:57:45.21Z</time></trkpt><trkpt lat="44.4886579" lon="9.9663088"><ele>877.0</ele><time>2026-05-03T09:57:46.208Z</time></trkpt><trkpt lat="44.4888089" lon="9.9662882"><ele>877.0</ele><time>2026-05-03T09:57:47.207Z</time></trkpt><trkpt lat="44.4889022" lon="9.9662244"><ele>877.0</ele><time>2026-05-03T09:57:48.209Z</time></trkpt><trkpt lat="44.488984" lon="9.9662406"><ele>877.0</ele><time>2026-05-03T09:57:49.204Z</time></trkpt><trkpt lat="44.4890849" lon="9.966239"><ele>877.0</ele><time>2026-05-03T09:57:50.203Z</time></trkpt><trkpt lat="44.4892595" lon="9.966422"><ele>877.0</ele><time>2026-05-03T09:57:51.209Z</time></trkpt><trkpt lat="44.4894184" lon="9.9665341"><ele>877.0</ele><time>2026-05-03T09:57:52.202Z</time></trkpt><trkpt lat="44.4895531" lon="9.9666422"><ele>877.0</ele><time>2026-05-03T09:57:53.212Z</time></trkpt><trkpt lat="44.4896486" lon="9.9666274"><ele>877.0</ele><time>2026-05-03T09:57:54.205Z</time></trkpt><trkpt lat="44.4897681" lon="9.9665619"><ele>877.0</ele><time>2026-05-03T09:57:55.187Z</time></trkpt><trkpt lat="44.4899167" lon="9.9664544"><ele>877.0</ele><time>2026-05-03T09:57:56.174Z</time></trkpt><trkpt lat="44.4900606" lon="9.9663417"><ele>877.0</ele><time>2026-05-03T09:57:57.175Z</time></trkpt><trkpt lat="44.4902102" lon="9.9662241"><ele>877.0</ele><time>2026-05-03T09:57:58.167Z</time></trkpt><trkpt lat="44.4903727" lon="9.966103"><ele>878.5</ele><time>2026-05-03T09:57:59.164Z</time></trkpt><trkpt lat="44.4906543" lon="9.9661152"><ele>880.0</ele><time>2026-05-03T09:58:00.195Z</time></trkpt><trkpt lat="44.4909179" lon="9.9659941"><ele>880.0</ele><time>2026-05-03T09:58:01.206Z</time></trkpt><trkpt lat="44.4911347" lon="9.9660609"><ele>880.0</ele><time>2026-05-03T09:58:02.216Z</time></trkpt><trkpt lat="44.4913357" lon="9.9661101"><ele>880.0</ele><time>2026-05-03T09:58:03.211Z</time></trkpt><trkpt lat="44.4915127" lon="9.9661267"><ele>876.0</ele><time>2026-05-03T09:58:04.211Z</time></trkpt><trkpt lat="44.4917397" lon="9.9662285"><ele>872.0</ele><time>2026-05-03T09:58:05.215Z</time></trkpt><trkpt lat="44.4919576" lon="9.9663001"><ele>869.6666666666667</ele><time>2026-05-03T09:58:06.216Z</time></trkpt><trkpt lat="44.492149" lon="9.9663723"><ele>867.3333333333333</ele><time>2026-05-03T09:58:07.216Z</time></trkpt><trkpt lat="44.4923036" lon="9.9664278"><ele>865.0</ele><time>2026-05-03T09:58:08.211Z</time></trkpt><trkpt lat="44.4924411" lon="9.9665118"><ele>865.0</ele><time>2026-05-03T09:58:09.21Z</time></trkpt><trkpt lat="44.4925656" lon="9.9666309"><ele>865.0</ele><time>2026-05-03T09:58:10.212Z</time></trkpt><trkpt lat="44.4926038" lon="9.9667987"><ele>865.0</ele><time>2026-05-03T09:58:11.22Z</time></trkpt><trkpt lat="44.4926374" lon="9.9669875"><ele>865.0</ele><time>2026-05-03T09:58:12.209Z</time></trkpt><trkpt lat="44.492645" lon="9.9672658"><ele>866.0</ele><time>2026-05-03T09:58:13.219Z</time></trkpt><trkpt lat="44.49266" lon="9.9675225"><ele>867.0</ele><time>2026-05-03T09:58:14.214Z</time></trkpt><trkpt lat="44.4926643" lon="9.9677997"><ele>868.0</ele><time>2026-05-03T09:58:15.213Z</time></trkpt><trkpt lat="44.492722" lon="9.9680727"><ele>868.6666666666666</ele><time>2026-05-03T09:58:16.218Z</time></trkpt><trkpt lat="44.4928007" lon="9.9682943"><ele>869.3333333333333</ele><time>2026-05-03T09:58:17.216Z</time></trkpt><trkpt lat="44.4928647" lon="9.9685031"><ele>870.0</ele><time>2026-05-03T09:58:18.217Z</time></trkpt><trkpt lat="44.4929368" lon="9.9686999"><ele>869.75</ele><time>2026-05-03T09:58:19.219Z</time></trkpt><trkpt lat="44.4930035" lon="9.9689053"><ele>869.5</ele><time>2026-05-03T09:58:20.221Z</time></trkpt><trkpt lat="44.4930481" lon="9.9690853"><ele>869.25</ele><time>2026-05-03T09:58:21.214Z</time></trkpt><trkpt lat="44.4930825" lon="9.9692054"><ele>869.0</ele><time>2026-05-03T09:58:22.209Z</time></trkpt><trkpt lat="44.4930842" lon="9.9693044"><ele>869.0</ele><time>2026-05-03T09:58:23.215Z</time></trkpt><trkpt lat="44.4931056" lon="9.9694481"><ele>869.0</ele><time>2026-05-03T09:58:24.22Z</time></trkpt><trkpt lat="44.4931548" lon="9.9695882"><ele>869.0</ele><time>2026-05-03T09:58:25.212Z</time></trkpt><trkpt lat="44.4932153" lon="9.969765"><ele>869.0</ele><time>2026-05-03T09:58:26.21Z</time></trkpt><trkpt lat="44.4933241" lon="9.9700588"><ele>876.6666666666667</ele><time>2026-05-03T09:58:27.212Z</time></trkpt><trkpt lat="44.4933841" lon="9.9702927"><ele>884.3333333333333</ele><time>2026-05-03T09:58:28.213Z</time></trkpt><trkpt lat="44.4934494" lon="9.9705102"><ele>892.0</ele><time>2026-05-03T09:58:29.214Z</time></trkpt><trkpt lat="44.4935466" lon="9.9706219"><ele>892.0</ele><time>2026-05-03T09:58:30.204Z</time></trkpt><trkpt lat="44.4937516" lon="9.9707507"><ele>892.0</ele><time>2026-05-03T09:58:31.201Z</time></trkpt><trkpt lat="44.4939423" lon="9.9708753"><ele>892.0</ele><time>2026-05-03T09:58:32.2Z</time></trkpt><trkpt lat="44.4941047" lon="9.9709897"><ele>885.6666666666666</ele><time>2026-05-03T09:58:33.2Z</time></trkpt><trkpt lat="44.4942373" lon="9.9711557"><ele>879.3333333333333</ele><time>2026-05-03T09:58:34.2Z</time></trkpt><trkpt lat="44.4942839" lon="9.9713357"><ele>873.0</ele><time>2026-05-03T09:58:35.199Z</time></trkpt><trkpt lat="44.4942441" lon="9.9715542"><ele>875.6666666666667</ele><time>2026-05-03T09:58:36.198Z</time></trkpt><trkpt lat="44.4941543" lon="9.9717582"><ele>878.3333333333334</ele><time>2026-05-03T09:58:37.197Z</time></trkpt><trkpt lat="44.4940516" lon="9.9719281"><ele>881.0</ele><time>2026-05-03T09:58:38.192Z</time></trkpt><trkpt lat="44.4939799" lon="9.9721128"><ele>881.0</ele><time>2026-05-03T09:58:39.197Z</time></trkpt><trkpt lat="44.4940003" lon="9.9722924"><ele>881.0</ele><time>2026-05-03T09:58:40.198Z</time></trkpt><trkpt lat="44.4940735" lon="9.9724269"><ele>881.0</ele><time>2026-05-03T09:58:41.195Z</time></trkpt><trkpt lat="44.4942005" lon="9.9726002"><ele>881.0</ele><time>2026-05-03T09:58:42.171Z</time></trkpt><trkpt lat="44.4944446" lon="9.9726794"><ele>882.3333333333334</ele><time>2026-05-03T09:58:43.192Z</time></trkpt><trkpt lat="44.4946457" lon="9.9727674"><ele>883.6666666666667</ele><time>2026-05-03T09:58:44.2Z</time></trkpt><trkpt lat="44.4948578" lon="9.9728921"><ele>885.0</ele><time>2026-05-03T09:58:45.196Z</time></trkpt><trkpt lat="44.4950646" lon="9.9730737"><ele>885.0</ele><time>2026-05-03T09:58:46.21Z</time></trkpt><trkpt lat="44.4952912" lon="9.9732378"><ele>885.0</ele><time>2026-05-03T09:58:47.208Z</time></trkpt><trkpt lat="44.4955096" lon="9.9733492"><ele>892.5</ele><time>2026-05-03T09:58:48.203Z</time></trkpt><trkpt lat="44.4957287" lon="9.9734577"><ele>900.0</ele><time>2026-05-03T09:58:49.206Z</time></trkpt><trkpt lat="44.4959591" lon="9.9735566"><ele>900.0</ele><time>2026-05-03T09:58:50.207Z</time></trkpt><trkpt lat="44.4961801" lon="9.9736386"><ele>900.0</ele><time>2026-05-03T09:58:51.203Z</time></trkpt><trkpt lat="44.4964236" lon="9.9736936"><ele>895.3333333333333</ele><time>2026-05-03T09:58:52.2Z</time></trkpt><trkpt lat="44.4966322" lon="9.9738035"><ele>890.6666666666666</ele><time>2026-05-03T09:58:53.203Z</time></trkpt><trkpt lat="44.4967938" lon="9.9738351"><ele>886.0</ele><time>2026-05-03T09:58:54.202Z</time></trkpt><trkpt lat="44.4969555" lon="9.9739276"><ele>890.3333333333333</ele><time>2026-05-03T09:58:55.209Z</time></trkpt><trkpt lat="44.4971405" lon="9.9740111"><ele>894.6666666666667</ele><time>2026-05-03T09:58:56.205Z</time></trkpt><trkpt lat="44.4973182" lon="9.9741229"><ele>899.0</ele><time>2026-05-03T09:58:57.203Z</time></trkpt><trkpt lat="44.4974975" lon="9.974251"><ele>899.0</ele><time>2026-05-03T09:58:58.207Z</time></trkpt><trkpt lat="44.4976438" lon="9.9744196"><ele>899.0</ele><time>2026-05-03T09:58:59.2Z</time></trkpt><trkpt lat="44.4978375" lon="9.9746428"><ele>899.0</ele><time>2026-05-03T09:59:00.199Z</time></trkpt><trkpt lat="44.4979845" lon="9.9748286"><ele>902.3333333333334</ele><time>2026-05-03T09:59:01.195Z</time></trkpt><trkpt lat="44.4980974" lon="9.9749815"><ele>905.6666666666667</ele><time>2026-05-03T09:59:02.203Z</time></trkpt><trkpt lat="44.4982402" lon="9.9751606"><ele>909.0</ele><time>2026-05-03T09:59:03.202Z</time></trkpt><trkpt lat="44.4984448" lon="9.9753147"><ele>909.0</ele><time>2026-05-03T09:59:04.202Z</time></trkpt><trkpt lat="44.4986463" lon="9.9754482"><ele>909.0</ele><time>2026-05-03T09:59:05.204Z</time></trkpt><trkpt lat="44.4988456" lon="9.9755467"><ele>909.0</ele><time>2026-05-03T09:59:06.203Z</time></trkpt><trkpt lat="44.4990272" lon="9.9756155"><ele>902.25</ele><time>2026-05-03T09:59:07.183Z</time></trkpt><trkpt lat="44.4991923" lon="9.9756813"><ele>895.5</ele><time>2026-05-03T09:59:08.181Z</time></trkpt><trkpt lat="44.4992965" lon="9.9755902"><ele>888.75</ele><time>2026-05-03T09:59:09.197Z</time></trkpt><trkpt lat="44.4993869" lon="9.9755692"><ele>882.0</ele><time>2026-05-03T09:59:10.2Z</time></trkpt><trkpt lat="44.4993511" lon="9.975792"><ele>888.3333333333333</ele><time>2026-05-03T09:59:13.21Z</time></trkpt><trkpt lat="44.4993654" lon="9.9760283"><ele>894.6666666666666</ele><time>2026-05-03T09:59:14.179Z</time></trkpt><trkpt lat="44.499383" lon="9.9762687"><ele>901.0</ele><time>2026-05-03T09:59:15.166Z</time></trkpt><trkpt lat="44.4994524" lon="9.9764987"><ele>903.6666666666666</ele><time>2026-05-03T09:59:16.171Z</time></trkpt><trkpt lat="44.4995232" lon="9.9767553"><ele>906.3333333333333</ele><time>2026-05-03T09:59:17.165Z</time></trkpt><trkpt lat="44.4995966" lon="9.9770355"><ele>909.0</ele><time>2026-05-03T09:59:18.17Z</time></trkpt><trkpt lat="44.499677" lon="9.9773894"><ele>886.5</ele><time>2026-05-03T09:59:19.196Z</time></trkpt><trkpt lat="44.4997893" lon="9.9779193"><ele>864.0</ele><time>2026-05-03T09:59:20.198Z</time></trkpt><trkpt lat="44.4998492" lon="9.978355"><ele>864.0</ele><time>2026-05-03T09:59:21.211Z</time></trkpt><trkpt lat="44.4998494" lon="9.9786366"><ele>864.0</ele><time>2026-05-03T09:59:22.211Z</time></trkpt><trkpt lat="44.4998459" lon="9.978885"><ele>864.0</ele><time>2026-05-03T09:59:23.212Z</time></trkpt><trkpt lat="44.4999005" lon="9.9791009"><ele>865.0</ele><time>2026-05-03T09:59:24.211Z</time></trkpt><trkpt lat="44.5000036" lon="9.9793342"><ele>866.0</ele><time>2026-05-03T09:59:25.204Z</time></trkpt><trkpt lat="44.5001106" lon="9.9795615"><ele>867.0</ele><time>2026-05-03T09:59:26.217Z</time></trkpt><trkpt lat="44.5001934" lon="9.97978"><ele>867.0</ele><time>2026-05-03T09:59:27.209Z</time></trkpt><trkpt lat="44.5002165" lon="9.9799853"><ele>867.0</ele><time>2026-05-03T09:59:28.213Z</time></trkpt><trkpt lat="44.5002282" lon="9.9802571"><ele>867.0</ele><time>2026-05-03T09:59:29.211Z</time></trkpt><trkpt lat="44.5001758" lon="9.9804988"><ele>867.6666666666667</ele><time>2026-05-03T09:59:30.209Z</time></trkpt><trkpt lat="44.5001637" lon="9.980687"><ele>868.3333333333334</ele><time>2026-05-03T09:59:31.21Z</time></trkpt><trkpt lat="44.5002107" lon="9.9809046"><ele>869.0</ele><time>2026-05-03T09:59:32.203Z</time></trkpt><trkpt lat="44.5003085" lon="9.9811099"><ele>871.3333333333334</ele><time>2026-05-03T09:59:33.216Z</time></trkpt><trkpt lat="44.5004228" lon="9.9813505"><ele>873.6666666666667</ele><time>2026-05-03T09:59:34.212Z</time></trkpt><trkpt lat="44.5005741" lon="9.9815842"><ele>876.0</ele><time>2026-05-03T09:59:35.21Z</time></trkpt><trkpt lat="44.5007722" lon="9.9818282"><ele>876.0</ele><time>2026-05-03T09:59:36.216Z</time></trkpt><trkpt lat="44.5009855" lon="9.9820141"><ele>876.0</ele><time>2026-05-03T09:59:37.209Z</time></trkpt><trkpt lat="44.5011922" lon="9.9821755"><ele>869.6666666666667</ele><time>2026-05-03T09:59:38.209Z</time></trkpt><trkpt lat="44.5013814" lon="9.982276"><ele>863.3333333333334</ele><time>2026-05-03T09:59:39.21Z</time></trkpt><trkpt lat="44.501551" lon="9.9824021"><ele>857.0</ele><time>2026-05-03T09:59:40.216Z</time></trkpt><trkpt lat="44.501706" lon="9.9824437"><ele>859.6666666666667</ele><time>2026-05-03T09:59:41.213Z</time></trkpt><trkpt lat="44.5018156" lon="9.9825506"><ele>862.3333333333333</ele><time>2026-05-03T09:59:42.209Z</time></trkpt><trkpt lat="44.5019312" lon="9.9826943"><ele>865.0</ele><time>2026-05-03T09:59:43.211Z</time></trkpt><trkpt lat="44.5020611" lon="9.9828388"><ele>856.6666666666666</ele><time>2026-05-03T09:59:44.212Z</time></trkpt><trkpt lat="44.5021507" lon="9.9830953"><ele>848.3333333333333</ele><time>2026-05-03T09:59:45.203Z</time></trkpt><trkpt lat="44.5022137" lon="9.9833921"><ele>840.0</ele><time>2026-05-03T09:59:46.205Z</time></trkpt><trkpt lat="44.5022226" lon="9.9837264"><ele>840.0</ele><time>2026-05-03T09:59:47.205Z</time></trkpt><trkpt lat="44.5021818" lon="9.9840377"><ele>840.0</ele><time>2026-05-03T09:59:48.199Z</time></trkpt><trkpt lat="44.5020594" lon="9.9843308"><ele>849.0</ele><time>2026-05-03T09:59:49.212Z</time></trkpt><trkpt lat="44.5018863" lon="9.9845787"><ele>858.0</ele><time>2026-05-03T09:59:50.209Z</time></trkpt><trkpt lat="44.5017524" lon="9.9848115"><ele>858.0</ele><time>2026-05-03T09:59:51.206Z</time></trkpt><trkpt lat="44.5016359" lon="9.9850093"><ele>858.0</ele><time>2026-05-03T09:59:52.202Z</time></trkpt><trkpt lat="44.5015268" lon="9.9851532"><ele>858.0</ele><time>2026-05-03T09:59:53.205Z</time></trkpt><trkpt lat="44.5015316" lon="9.9852861"><ele>858.0</ele><time>2026-05-03T09:59:54.2Z</time></trkpt><trkpt lat="44.5016838" lon="9.9854573"><ele>858.6666666666667</ele><time>2026-05-03T09:59:55.216Z</time></trkpt><trkpt lat="44.5018492" lon="9.9856617"><ele>859.3333333333334</ele><time>2026-05-03T09:59:56.205Z</time></trkpt><trkpt lat="44.5020295" lon="9.985792"><ele>860.0</ele><time>2026-05-03T09:59:57.216Z</time></trkpt><trkpt lat="44.5021886" lon="9.9860406"><ele>858.25</ele><time>2026-05-03T09:59:58.207Z</time></trkpt><trkpt lat="44.5022615" lon="9.9862544"><ele>856.5</ele><time>2026-05-03T09:59:59.205Z</time></trkpt><trkpt lat="44.5022958" lon="9.9863872"><ele>854.75</ele><time>2026-05-03T10:00:00.205Z</time></trkpt><trkpt lat="44.5022894" lon="9.9865565"><ele>853.0</ele><time>2026-05-03T10:00:01.198Z</time></trkpt><trkpt lat="44.5022102" lon="9.9867179"><ele>853.0</ele><time>2026-05-03T10:00:02.203Z</time></trkpt><trkpt lat="44.5021417" lon="9.9868661"><ele>853.0</ele><time>2026-05-03T10:00:03.202Z</time></trkpt><trkpt lat="44.5020777" lon="9.9870428"><ele>853.0</ele><time>2026-05-03T10:00:04.203Z</time></trkpt><trkpt lat="44.5020608" lon="9.9872084"><ele>853.0</ele><time>2026-05-03T10:00:05.202Z</time></trkpt><trkpt lat="44.502091" lon="9.9873629"><ele>853.0</ele><time>2026-05-03T10:00:06.201Z</time></trkpt><trkpt lat="44.5021663" lon="9.9874787"><ele>853.0</ele><time>2026-05-03T10:00:07.204Z</time></trkpt><trkpt lat="44.5023069" lon="9.987574"><ele>853.0</ele><time>2026-05-03T10:00:08.196Z</time></trkpt><trkpt lat="44.502449" lon="9.9876539"><ele>853.0</ele><time>2026-05-03T10:00:09.201Z</time></trkpt><trkpt lat="44.5025994" lon="9.9876633"><ele>851.5</ele><time>2026-05-03T10:00:10.197Z</time></trkpt><trkpt lat="44.5027541" lon="9.9876227"><ele>850.0</ele><time>2026-05-03T10:00:11.197Z</time></trkpt><trkpt lat="44.5028677" lon="9.9875599"><ele>848.5</ele><time>2026-05-03T10:00:12.195Z</time></trkpt><trkpt lat="44.5029756" lon="9.9874992"><ele>847.0</ele><time>2026-05-03T10:00:13.198Z</time></trkpt><trkpt lat="44.5031006" lon="9.9874863"><ele>848.4000000000001</ele><time>2026-05-03T10:00:14.197Z</time></trkpt><trkpt lat="44.5032022" lon="9.9875175"><ele>849.8000000000001</ele><time>2026-05-03T10:00:15.196Z</time></trkpt><trkpt lat="44.5032901" lon="9.987556"><ele>851.2</ele><time>2026-05-03T10:00:16.194Z</time></trkpt><trkpt lat="44.503356" lon="9.9876353"><ele>852.6</ele><time>2026-05-03T10:00:17.201Z</time></trkpt><trkpt lat="44.5034355" lon="9.9877179"><ele>854.0</ele><time>2026-05-03T10:00:18.195Z</time></trkpt><trkpt lat="44.5034958" lon="9.987896"><ele>854.0</ele><time>2026-05-03T10:00:19.205Z</time></trkpt><trkpt lat="44.5035728" lon="9.9880763"><ele>854.0</ele><time>2026-05-03T10:00:20.203Z</time></trkpt><trkpt lat="44.5036746" lon="9.9882879"><ele>854.0</ele><time>2026-05-03T10:00:21.202Z</time></trkpt><trkpt lat="44.5037937" lon="9.9884818"><ele>853.6666666666667</ele><time>2026-05-03T10:00:22.203Z</time></trkpt><trkpt lat="44.5039321" lon="9.9886697"><ele>853.3333333333333</ele><time>2026-05-03T10:00:23.202Z</time></trkpt><trkpt lat="44.5040645" lon="9.9887907"><ele>853.0</ele><time>2026-05-03T10:00:24.198Z</time></trkpt><trkpt lat="44.5042156" lon="9.9889026"><ele>853.0</ele><time>2026-05-03T10:00:25.199Z</time></trkpt><trkpt lat="44.5043651" lon="9.9889283"><ele>853.0</ele><time>2026-05-03T10:00:26.198Z</time></trkpt><trkpt lat="44.5045433" lon="9.9889369"><ele>853.0</ele><time>2026-05-03T10:00:27.201Z</time></trkpt><trkpt lat="44.504719" lon="9.9889531"><ele>851.6666666666666</ele><time>2026-05-03T10:00:28.201Z</time></trkpt><trkpt lat="44.5048766" lon="9.9889419"><ele>850.3333333333333</ele><time>2026-05-03T10:00:29.198Z</time></trkpt><trkpt lat="44.5050301" lon="9.9889282"><ele>849.0</ele><time>2026-05-03T10:00:30.194Z</time></trkpt><trkpt lat="44.505174" lon="9.9889527"><ele>849.0</ele><time>2026-05-03T10:00:31.195Z</time></trkpt><trkpt lat="44.5052851" lon="9.9890523"><ele>849.0</ele><time>2026-05-03T10:00:32.202Z</time></trkpt><trkpt lat="44.5054158" lon="9.9891615"><ele>849.0</ele><time>2026-05-03T10:00:33.209Z</time></trkpt><trkpt lat="44.5055553" lon="9.9893374"><ele>848.0</ele><time>2026-05-03T10:00:34.205Z</time></trkpt><trkpt lat="44.5056821" lon="9.9894779"><ele>847.0</ele><time>2026-05-03T10:00:35.211Z</time></trkpt><trkpt lat="44.5057939" lon="9.9896041"><ele>846.0</ele><time>2026-05-03T10:00:36.205Z</time></trkpt><trkpt lat="44.5059113" lon="9.9897457"><ele>846.0</ele><time>2026-05-03T10:00:37.204Z</time></trkpt><trkpt lat="44.5060415" lon="9.9899146"><ele>846.0</ele><time>2026-05-03T10:00:38.204Z</time></trkpt><trkpt lat="44.5061396" lon="9.9900624"><ele>846.0</ele><time>2026-05-03T10:00:39.199Z</time></trkpt><trkpt lat="44.5062365" lon="9.9902221"><ele>844.3333333333333</ele><time>2026-05-03T10:00:40.199Z</time></trkpt><trkpt lat="44.5063205" lon="9.9903812"><ele>842.6666666666666</ele><time>2026-05-03T10:00:41.201Z</time></trkpt><trkpt lat="44.5063929" lon="9.990559"><ele>841.0</ele><time>2026-05-03T10:00:42.198Z</time></trkpt><trkpt lat="44.5064838" lon="9.9907743"><ele>841.5</ele><time>2026-05-03T10:00:43.203Z</time></trkpt><trkpt lat="44.5065654" lon="9.9910007"><ele>842.0</ele><time>2026-05-03T10:00:44.201Z</time></trkpt><trkpt lat="44.5066281" lon="9.9911018"><ele>842.5</ele><time>2026-05-03T10:00:45.201Z</time></trkpt><trkpt lat="44.5067427" lon="9.9912541"><ele>843.0</ele><time>2026-05-03T10:00:46.2Z</time></trkpt><trkpt lat="44.5068851" lon="9.9914034"><ele>843.0</ele><time>2026-05-03T10:00:47.197Z</time></trkpt><trkpt lat="44.5070502" lon="9.9916341"><ele>843.0</ele><time>2026-05-03T10:00:48.202Z</time></trkpt><trkpt lat="44.5072017" lon="9.9918614"><ele>843.0</ele><time>2026-05-03T10:00:49.201Z</time></trkpt><trkpt lat="44.5073374" lon="9.9920576"><ele>843.0</ele><time>2026-05-03T10:00:50.208Z</time></trkpt><trkpt lat="44.5074561" lon="9.9921926"><ele>843.0</ele><time>2026-05-03T10:00:51.207Z</time></trkpt><trkpt lat="44.5075685" lon="9.9922993"><ele>843.0</ele><time>2026-05-03T10:00:52.209Z</time></trkpt><trkpt lat="44.5076888" lon="9.9924037"><ele>843.0</ele><time>2026-05-03T10:00:53.208Z</time></trkpt><trkpt lat="44.5078254" lon="9.9925408"><ele>843.0</ele><time>2026-05-03T10:00:54.203Z</time></trkpt><trkpt lat="44.5079432" lon="9.9926404"><ele>843.0</ele><time>2026-05-03T10:00:55.201Z</time></trkpt><trkpt lat="44.5080581" lon="9.9927557"><ele>843.5</ele><time>2026-05-03T10:00:56.203Z</time></trkpt><trkpt lat="44.5081641" lon="9.9928548"><ele>844.0</ele><time>2026-05-03T10:00:57.2Z</time></trkpt><trkpt lat="44.5082045" lon="9.9930332"><ele>844.5</ele><time>2026-05-03T10:00:58.205Z</time></trkpt><trkpt lat="44.5082445" lon="9.9931879"><ele>845.0</ele><time>2026-05-03T10:00:59.196Z</time></trkpt><trkpt lat="44.5082667" lon="9.993335"><ele>841.3333333333334</ele><time>2026-05-03T10:01:00.195Z</time></trkpt><trkpt lat="44.5083112" lon="9.9934826"><ele>837.6666666666667</ele><time>2026-05-03T10:01:01.194Z</time></trkpt><trkpt lat="44.5084267" lon="9.9938226"><ele>834.0</ele><time>2026-05-03T10:01:02.192Z</time></trkpt><trkpt lat="44.5085343" lon="9.9940599"><ele>835.6666666666667</ele><time>2026-05-03T10:01:03.195Z</time></trkpt><trkpt lat="44.5086587" lon="9.9943021"><ele>837.3333333333334</ele><time>2026-05-03T10:01:04.198Z</time></trkpt><trkpt lat="44.5087761" lon="9.9944336"><ele>839.0</ele><time>2026-05-03T10:01:05.2Z</time></trkpt><trkpt lat="44.508881" lon="9.9944963"><ele>839.0</ele><time>2026-05-03T10:01:06.198Z</time></trkpt><trkpt lat="44.5090165" lon="9.994496"><ele>839.0</ele><time>2026-05-03T10:01:07.197Z</time></trkpt><trkpt lat="44.5091921" lon="9.9945096"><ele>839.0</ele><time>2026-05-03T10:01:08.197Z</time></trkpt><trkpt lat="44.5093801" lon="9.9945245"><ele>839.0</ele><time>2026-05-03T10:01:09.195Z</time></trkpt><trkpt lat="44.5095336" lon="9.994583"><ele>839.0</ele><time>2026-05-03T10:01:10.2Z</time></trkpt><trkpt lat="44.5096096" lon="9.9946659"><ele>839.0</ele><time>2026-05-03T10:01:11.193Z</time></trkpt><trkpt lat="44.5097106" lon="9.9947549"><ele>839.0</ele><time>2026-05-03T10:01:12.195Z</time></trkpt><trkpt lat="44.5097679" lon="9.9950102"><ele>843.0</ele><time>2026-05-03T10:01:13.191Z</time></trkpt><trkpt lat="44.5098042" lon="9.9952007"><ele>847.0</ele><time>2026-05-03T10:01:14.197Z</time></trkpt><trkpt lat="44.5098925" lon="9.9954361"><ele>851.0</ele><time>2026-05-03T10:01:15.191Z</time></trkpt><trkpt lat="44.5100325" lon="9.9956269"><ele>851.0</ele><time>2026-05-03T10:01:16.196Z</time></trkpt><trkpt lat="44.5102047" lon="9.995754"><ele>851.0</ele><time>2026-05-03T10:01:17.196Z</time></trkpt><trkpt lat="44.5103734" lon="9.9959279"><ele>851.0</ele><time>2026-05-03T10:01:18.197Z</time></trkpt><trkpt lat="44.5105042" lon="9.9961046"><ele>853.6666666666667</ele><time>2026-05-03T10:01:19.202Z</time></trkpt><trkpt lat="44.5106477" lon="9.9962768"><ele>856.3333333333333</ele><time>2026-05-03T10:01:20.194Z</time></trkpt><trkpt lat="44.5107683" lon="9.9964745"><ele>859.0</ele><time>2026-05-03T10:01:21.195Z</time></trkpt><trkpt lat="44.5108361" lon="9.9968131"><ele>859.0</ele><time>2026-05-03T10:01:22.197Z</time></trkpt><trkpt lat="44.5108808" lon="9.9971279"><ele>859.0</ele><time>2026-05-03T10:01:23.198Z</time></trkpt><trkpt lat="44.5109729" lon="9.9974527"><ele>860.0</ele><time>2026-05-03T10:01:24.197Z</time></trkpt><trkpt lat="44.5111316" lon="9.9979492"><ele>861.0</ele><time>2026-05-03T10:01:25.201Z</time></trkpt><trkpt lat="44.5112587" lon="9.9981783"><ele>861.0</ele><time>2026-05-03T10:01:26.199Z</time></trkpt><trkpt lat="44.5113959" lon="9.9983097"><ele>861.0</ele><time>2026-05-03T10:01:27.2Z</time></trkpt><trkpt lat="44.511529" lon="9.9984393"><ele>861.0</ele><time>2026-05-03T10:01:28.197Z</time></trkpt><trkpt lat="44.5117104" lon="9.9984861"><ele>858.0</ele><time>2026-05-03T10:01:29.2Z</time></trkpt><trkpt lat="44.5119225" lon="9.9985926"><ele>855.0</ele><time>2026-05-03T10:01:30.183Z</time></trkpt><trkpt lat="44.5120994" lon="9.9983617"><ele>857.5</ele><time>2026-05-03T10:01:31.19Z</time></trkpt><trkpt lat="44.5122611" lon="9.9980495"><ele>860.0</ele><time>2026-05-03T10:01:32.19Z</time></trkpt><trkpt lat="44.5124213" lon="9.9976313"><ele>866.0</ele><time>2026-05-03T10:01:33.194Z</time></trkpt><trkpt lat="44.5125886" lon="9.9973153"><ele>872.0</ele><time>2026-05-03T10:01:34.194Z</time></trkpt><trkpt lat="44.5127397" lon="9.9970012"><ele>872.0</ele><time>2026-05-03T10:01:35.203Z</time></trkpt><trkpt lat="44.5129" lon="9.9967269"><ele>872.0</ele><time>2026-05-03T10:01:36.19Z</time></trkpt><trkpt lat="44.513044" lon="9.9965097"><ele>870.3333333333334</ele><time>2026-05-03T10:01:37.187Z</time></trkpt><trkpt lat="44.5131395" lon="9.996336"><ele>868.6666666666667</ele><time>2026-05-03T10:01:38.186Z</time></trkpt><trkpt lat="44.5132455" lon="9.9961826"><ele>867.0</ele><time>2026-05-03T10:01:39.187Z</time></trkpt><trkpt lat="44.5134297" lon="9.9960635"><ele>867.0</ele><time>2026-05-03T10:01:40.184Z</time></trkpt><trkpt lat="44.5136297" lon="9.9959578"><ele>867.0</ele><time>2026-05-03T10:01:41.182Z</time></trkpt><trkpt lat="44.5138274" lon="9.9958828"><ele>867.0</ele><time>2026-05-03T10:01:42.186Z</time></trkpt><trkpt lat="44.514009" lon="9.9958069"><ele>871.6666666666667</ele><time>2026-05-03T10:01:43.189Z</time></trkpt><trkpt lat="44.5142319" lon="9.9957681"><ele>876.3333333333334</ele><time>2026-05-03T10:01:44.19Z</time></trkpt><trkpt lat="44.5144442" lon="9.995789"><ele>881.0</ele><time>2026-05-03T10:01:45.189Z</time></trkpt><trkpt lat="44.5146799" lon="9.9958355"><ele>873.5</ele><time>2026-05-03T10:01:46.193Z</time></trkpt><trkpt lat="44.5149238" lon="9.9958814"><ele>866.0</ele><time>2026-05-03T10:01:47.199Z</time></trkpt><trkpt lat="44.5151764" lon="9.9959336"><ele>869.0</ele><time>2026-05-03T10:01:48.192Z</time></trkpt><trkpt lat="44.5154108" lon="9.9959218"><ele>872.0</ele><time>2026-05-03T10:01:49.208Z</time></trkpt><trkpt lat="44.5156873" lon="9.9959759"><ele>872.0</ele><time>2026-05-03T10:01:50.197Z</time></trkpt><trkpt lat="44.5159573" lon="9.9960149"><ele>872.0</ele><time>2026-05-03T10:01:51.197Z</time></trkpt><trkpt lat="44.5161678" lon="9.9960078"><ele>874.0</ele><time>2026-05-03T10:01:52.196Z</time></trkpt><trkpt lat="44.5164043" lon="9.9960492"><ele>876.0</ele><time>2026-05-03T10:01:53.202Z</time></trkpt><trkpt lat="44.5166215" lon="9.9961045"><ele>876.0</ele><time>2026-05-03T10:01:54.195Z</time></trkpt><trkpt lat="44.5168896" lon="9.9961025"><ele>876.0</ele><time>2026-05-03T10:01:56.097Z</time></trkpt><trkpt lat="44.517031" lon="9.9961042"><ele>876.0</ele><time>2026-05-03T10:01:57.094Z</time></trkpt><trkpt lat="44.5171379" lon="9.9960402"><ele>876.3333333333333</ele><time>2026-05-03T10:01:58.091Z</time></trkpt><trkpt lat="44.5172322" lon="9.9958163"><ele>876.6666666666666</ele><time>2026-05-03T10:01:59.885Z</time></trkpt><trkpt lat="44.5172783" lon="9.9955969"><ele>877.0</ele><time>2026-05-03T10:02:00.788Z</time></trkpt><trkpt lat="44.5173026" lon="9.9952608"><ele>877.0</ele><time>2026-05-03T10:02:01.797Z</time></trkpt><trkpt lat="44.5174026" lon="9.9950091"><ele>877.0</ele><time>2026-05-03T10:02:02.806Z</time></trkpt><trkpt lat="44.5175349" lon="9.9947114"><ele>880.3333333333333</ele><time>2026-05-03T10:02:03.774Z</time></trkpt><trkpt lat="44.5176301" lon="9.9944392"><ele>883.6666666666667</ele><time>2026-05-03T10:02:04.683Z</time></trkpt><trkpt lat="44.5177556" lon="9.9942137"><ele>887.0</ele><time>2026-05-03T10:02:05.698Z</time></trkpt><trkpt lat="44.517907" lon="9.9940441"><ele>887.0</ele><time>2026-05-03T10:02:06.691Z</time></trkpt><trkpt lat="44.5180587" lon="9.9939615"><ele>887.0</ele><time>2026-05-03T10:02:07.695Z</time></trkpt><trkpt lat="44.5182185" lon="9.9939005"><ele>887.0</ele><time>2026-05-03T10:02:08.693Z</time></trkpt><trkpt lat="44.5183935" lon="9.9938634"><ele>887.0</ele><time>2026-05-03T10:02:09.693Z</time></trkpt><trkpt lat="44.5186177" lon="9.9938845"><ele>887.0</ele><time>2026-05-03T10:02:10.693Z</time></trkpt><trkpt lat="44.5188732" lon="9.993964"><ele>888.0</ele><time>2026-05-03T10:02:11.693Z</time></trkpt><trkpt lat="44.519154" lon="9.9940826"><ele>889.0</ele><time>2026-05-03T10:02:12.698Z</time></trkpt><trkpt lat="44.5194351" lon="9.9941552"><ele>885.0</ele><time>2026-05-03T10:02:13.693Z</time></trkpt><trkpt lat="44.5197086" lon="9.9941945"><ele>881.0</ele><time>2026-05-03T10:02:14.694Z</time></trkpt><trkpt lat="44.5199769" lon="9.9942021"><ele>881.0</ele><time>2026-05-03T10:02:15.693Z</time></trkpt><trkpt lat="44.5202476" lon="9.9942065"><ele>881.0</ele><time>2026-05-03T10:02:16.695Z</time></trkpt><trkpt lat="44.5204811" lon="9.9941833"><ele>884.3333333333334</ele><time>2026-05-03T10:02:17.693Z</time></trkpt><trkpt lat="44.5206799" lon="9.9942002"><ele>887.6666666666667</ele><time>2026-05-03T10:02:18.687Z</time></trkpt><trkpt lat="44.5208684" lon="9.9942698"><ele>891.0</ele><time>2026-05-03T10:02:19.694Z</time></trkpt><trkpt lat="44.5210536" lon="9.9944027"><ele>897.5</ele><time>2026-05-03T10:02:20.688Z</time></trkpt><trkpt lat="44.52144" lon="9.9947185"><ele>904.0</ele><time>2026-05-03T10:02:22.489Z</time></trkpt><trkpt lat="44.5216752" lon="9.9948732"><ele>903.0</ele><time>2026-05-03T10:02:23.389Z</time></trkpt><trkpt lat="44.5220087" lon="9.9952937"><ele>902.0</ele><time>2026-05-03T10:02:25.197Z</time></trkpt><trkpt lat="44.5221443" lon="9.9955057"><ele>901.0</ele><time>2026-05-03T10:02:26.198Z</time></trkpt><trkpt lat="44.5222524" lon="9.9956946"><ele>900.0</ele><time>2026-05-03T10:02:27.198Z</time></trkpt><trkpt lat="44.5224153" lon="9.9958515"><ele>899.0</ele><time>2026-05-03T10:02:28.194Z</time></trkpt><trkpt lat="44.522619" lon="9.9959159"><ele>899.0</ele><time>2026-05-03T10:02:29.19Z</time></trkpt><trkpt lat="44.5228294" lon="9.9958812"><ele>899.0</ele><time>2026-05-03T10:02:30.197Z</time></trkpt><trkpt lat="44.523089" lon="9.9958946"><ele>899.5</ele><time>2026-05-03T10:02:31.198Z</time></trkpt><trkpt lat="44.5233317" lon="9.995863"><ele>900.0</ele><time>2026-05-03T10:02:32.198Z</time></trkpt><trkpt lat="44.5235832" lon="9.9958363"><ele>905.6666666666667</ele><time>2026-05-03T10:02:33.195Z</time></trkpt><trkpt lat="44.5238019" lon="9.9958089"><ele>911.3333333333334</ele><time>2026-05-03T10:02:34.197Z</time></trkpt><trkpt lat="44.5239804" lon="9.9957896"><ele>917.0</ele><time>2026-05-03T10:02:35.196Z</time></trkpt><trkpt lat="44.5241802" lon="9.9957538"><ele>917.0</ele><time>2026-05-03T10:02:36.198Z</time></trkpt><trkpt lat="44.524344" lon="9.9957376"><ele>917.0</ele><time>2026-05-03T10:02:37.196Z</time></trkpt><trkpt lat="44.5244962" lon="9.9957058"><ele>917.0</ele><time>2026-05-03T10:02:38.196Z</time></trkpt><trkpt lat="44.5246107" lon="9.9955966"><ele>919.3333333333334</ele><time>2026-05-03T10:02:39.192Z</time></trkpt><trkpt lat="44.5246825" lon="9.9953527"><ele>921.6666666666667</ele><time>2026-05-03T10:02:40.185Z</time></trkpt><trkpt lat="44.5247536" lon="9.9950951"><ele>924.0</ele><time>2026-05-03T10:02:41.173Z</time></trkpt><trkpt lat="44.5248871" lon="9.9949504"><ele>924.0</ele><time>2026-05-03T10:02:42.159Z</time></trkpt><trkpt lat="44.5250751" lon="9.9948942"><ele>924.0</ele><time>2026-05-03T10:02:43.162Z</time></trkpt><trkpt lat="44.5253357" lon="9.9948953"><ele>922.0</ele><time>2026-05-03T10:02:44.167Z</time></trkpt><trkpt lat="44.5255777" lon="9.9949172"><ele>920.0</ele><time>2026-05-03T10:02:45.176Z</time></trkpt><trkpt lat="44.525787" lon="9.9949306"><ele>920.0</ele><time>2026-05-03T10:02:46.191Z</time></trkpt><trkpt lat="44.525978" lon="9.9949179"><ele>920.0</ele><time>2026-05-03T10:02:47.186Z</time></trkpt><trkpt lat="44.5261535" lon="9.9947943"><ele>920.0</ele><time>2026-05-03T10:02:48.188Z</time></trkpt><trkpt lat="44.526344" lon="9.9946219"><ele>919.3333333333334</ele><time>2026-05-03T10:02:49.184Z</time></trkpt><trkpt lat="44.5265239" lon="9.9944167"><ele>918.6666666666667</ele><time>2026-05-03T10:02:50.189Z</time></trkpt><trkpt lat="44.5267023" lon="9.9942825"><ele>918.0</ele><time>2026-05-03T10:02:51.186Z</time></trkpt><trkpt lat="44.5268602" lon="9.9943122"><ele>918.0</ele><time>2026-05-03T10:02:52.194Z</time></trkpt><trkpt lat="44.526999" lon="9.9944276"><ele>918.0</ele><time>2026-05-03T10:02:53.197Z</time></trkpt><trkpt lat="44.5270862" lon="9.994576"><ele>918.0</ele><time>2026-05-03T10:02:54.196Z</time></trkpt><trkpt lat="44.5271819" lon="9.9947981"><ele>916.3333333333333</ele><time>2026-05-03T10:02:55.192Z</time></trkpt><trkpt lat="44.5272976" lon="9.9950266"><ele>914.6666666666666</ele><time>2026-05-03T10:02:56.198Z</time></trkpt><trkpt lat="44.5274231" lon="9.995199"><ele>913.0</ele><time>2026-05-03T10:02:57.2Z</time></trkpt><trkpt lat="44.5276213" lon="9.9953015"><ele>913.0</ele><time>2026-05-03T10:02:58.198Z</time></trkpt><trkpt lat="44.5278447" lon="9.9953736"><ele>913.0</ele><time>2026-05-03T10:02:59.199Z</time></trkpt><trkpt lat="44.5281152" lon="9.995454"><ele>914.0</ele><time>2026-05-03T10:03:00.197Z</time></trkpt><trkpt lat="44.5283036" lon="9.9955599"><ele>915.0</ele><time>2026-05-03T10:03:01.201Z</time></trkpt><trkpt lat="44.5284645" lon="9.9957283"><ele>916.0</ele><time>2026-05-03T10:03:02.196Z</time></trkpt><trkpt lat="44.5285774" lon="9.9959146"><ele>916.0</ele><time>2026-05-03T10:03:03.196Z</time></trkpt><trkpt lat="44.5286874" lon="9.9960898"><ele>916.0</ele><time>2026-05-03T10:03:04.192Z</time></trkpt><trkpt lat="44.5287911" lon="9.9962223"><ele>916.0</ele><time>2026-05-03T10:03:05.189Z</time></trkpt><trkpt lat="44.5289138" lon="9.9962203"><ele>916.0</ele><time>2026-05-03T10:03:06.195Z</time></trkpt><trkpt lat="44.5290684" lon="9.9961031"><ele>923.0</ele><time>2026-05-03T10:03:07.199Z</time></trkpt><trkpt lat="44.5291959" lon="9.9958356"><ele>930.0</ele><time>2026-05-03T10:03:08.199Z</time></trkpt><trkpt lat="44.5293674" lon="9.9957106"><ele>937.0</ele><time>2026-05-03T10:03:09.199Z</time></trkpt><trkpt lat="44.5295274" lon="9.9956634"><ele>935.0</ele><time>2026-05-03T10:03:10.194Z</time></trkpt><trkpt lat="44.5296724" lon="9.995752"><ele>933.0</ele><time>2026-05-03T10:03:11.194Z</time></trkpt><trkpt lat="44.5298741" lon="9.9959678"><ele>931.0</ele><time>2026-05-03T10:03:12.189Z</time></trkpt><trkpt lat="44.530093" lon="9.9961924"><ele>931.0</ele><time>2026-05-03T10:03:13.19Z</time></trkpt><trkpt lat="44.5303109" lon="9.9964166"><ele>931.0</ele><time>2026-05-03T10:03:14.197Z</time></trkpt><trkpt lat="44.5305343" lon="9.9966151"><ele>929.0</ele><time>2026-05-03T10:03:15.198Z</time></trkpt><trkpt lat="44.5307026" lon="9.9967911"><ele>927.0</ele><time>2026-05-03T10:03:16.196Z</time></trkpt><trkpt lat="44.5308821" lon="9.996936"><ele>925.0</ele><time>2026-05-03T10:03:17.192Z</time></trkpt><trkpt lat="44.5310197" lon="9.9969693"><ele>925.0</ele><time>2026-05-03T10:03:18.194Z</time></trkpt><trkpt lat="44.5312203" lon="9.9969983"><ele>925.0</ele><time>2026-05-03T10:03:19.186Z</time></trkpt><trkpt lat="44.5313727" lon="9.9969744"><ele>925.0</ele><time>2026-05-03T10:03:20.186Z</time></trkpt><trkpt lat="44.5314859" lon="9.9970323"><ele>927.0</ele><time>2026-05-03T10:03:21.191Z</time></trkpt><trkpt lat="44.531542" lon="9.9972224"><ele>929.0</ele><time>2026-05-03T10:03:23.19Z</time></trkpt><trkpt lat="44.5315508" lon="9.9974073"><ele>931.0</ele><time>2026-05-03T10:03:24.186Z</time></trkpt><trkpt lat="44.5316029" lon="9.9976353"><ele>933.0</ele><time>2026-05-03T10:03:25.189Z</time></trkpt><trkpt lat="44.5316774" lon="9.9978308"><ele>933.0</ele><time>2026-05-03T10:03:26.193Z</time></trkpt><trkpt lat="44.5317956" lon="9.9979972"><ele>933.0</ele><time>2026-05-03T10:03:27.196Z</time></trkpt><trkpt lat="44.5319807" lon="9.9982114"><ele>933.0</ele><time>2026-05-03T10:03:28.192Z</time></trkpt><trkpt lat="44.5321614" lon="9.998312"><ele>928.6666666666667</ele><time>2026-05-03T10:03:29.196Z</time></trkpt><trkpt lat="44.5323476" lon="9.9983904"><ele>924.3333333333334</ele><time>2026-05-03T10:03:30.195Z</time></trkpt><trkpt lat="44.5325291" lon="9.9984347"><ele>920.0</ele><time>2026-05-03T10:03:31.195Z</time></trkpt><trkpt lat="44.5327" lon="9.9983387"><ele>926.6666666666667</ele><time>2026-05-03T10:03:32.199Z</time></trkpt><trkpt lat="44.5328905" lon="9.9982064"><ele>933.3333333333333</ele><time>2026-05-03T10:03:33.198Z</time></trkpt><trkpt lat="44.5330853" lon="9.9980717"><ele>940.0</ele><time>2026-05-03T10:03:34.188Z</time></trkpt><trkpt lat="44.5333255" lon="9.9979988"><ele>940.0</ele><time>2026-05-03T10:03:35.193Z</time></trkpt><trkpt lat="44.5335936" lon="9.997992"><ele>940.0</ele><time>2026-05-03T10:03:36.189Z</time></trkpt><trkpt lat="44.5339026" lon="9.9980021"><ele>940.0</ele><time>2026-05-03T10:03:37.186Z</time></trkpt><trkpt lat="44.5341614" lon="9.9980092"><ele>940.0</ele><time>2026-05-03T10:03:38.189Z</time></trkpt><trkpt lat="44.5344096" lon="9.9980168"><ele>942.3333333333333</ele><time>2026-05-03T10:03:39.198Z</time></trkpt><trkpt lat="44.5346165" lon="9.9979936"><ele>944.6666666666667</ele><time>2026-05-03T10:03:40.192Z</time></trkpt><trkpt lat="44.5347914" lon="9.9980156"><ele>947.0</ele><time>2026-05-03T10:03:41.191Z</time></trkpt><trkpt lat="44.5349609" lon="9.9980526"><ele>947.0</ele><time>2026-05-03T10:03:42.188Z</time></trkpt><trkpt lat="44.5350986" lon="9.9981171"><ele>947.0</ele><time>2026-05-03T10:03:43.198Z</time></trkpt><trkpt lat="44.5351956" lon="9.9982725"><ele>947.0</ele><time>2026-05-03T10:03:44.188Z</time></trkpt><trkpt lat="44.5352987" lon="9.9984276"><ele>947.0</ele><time>2026-05-03T10:03:45.189Z</time></trkpt><trkpt lat="44.5354149" lon="9.9986095"><ele>946.25</ele><time>2026-05-03T10:03:46.191Z</time></trkpt><trkpt lat="44.5355403" lon="9.9987388"><ele>945.5</ele><time>2026-05-03T10:03:47.198Z</time></trkpt><trkpt lat="44.5356744" lon="9.9987997"><ele>944.75</ele><time>2026-05-03T10:03:48.194Z</time></trkpt><trkpt lat="44.5358053" lon="9.9986905"><ele>944.0</ele><time>2026-05-03T10:03:49.195Z</time></trkpt><trkpt lat="44.5359043" lon="9.9985424"><ele>944.0</ele><time>2026-05-03T10:03:50.19Z</time></trkpt><trkpt lat="44.5360059" lon="9.9983928"><ele>944.0</ele><time>2026-05-03T10:03:51.189Z</time></trkpt><trkpt lat="44.5361275" lon="9.9982657"><ele>944.0</ele><time>2026-05-03T10:03:52.195Z</time></trkpt><trkpt lat="44.5363183" lon="9.9981857"><ele>946.0</ele><time>2026-05-03T10:03:53.202Z</time></trkpt><trkpt lat="44.5365357" lon="9.9981205"><ele>948.0</ele><time>2026-05-03T10:03:54.195Z</time></trkpt><trkpt lat="44.5367613" lon="9.9980569"><ele>948.0</ele><time>2026-05-03T10:03:55.192Z</time></trkpt><trkpt lat="44.5369459" lon="9.9981568"><ele>948.0</ele><time>2026-05-03T10:03:56.194Z</time></trkpt><trkpt lat="44.5371459" lon="9.9983076"><ele>948.0</ele><time>2026-05-03T10:03:57.191Z</time></trkpt><trkpt lat="44.5373409" lon="9.9984749"><ele>948.3333333333333</ele><time>2026-05-03T10:03:58.194Z</time></trkpt><trkpt lat="44.5375348" lon="9.9986303"><ele>948.6666666666666</ele><time>2026-05-03T10:03:59.2Z</time></trkpt><trkpt lat="44.5376663" lon="9.9987779"><ele>949.0</ele><time>2026-05-03T10:04:00.198Z</time></trkpt><trkpt lat="44.5377517" lon="9.9989637"><ele>950.3333333333333</ele><time>2026-05-03T10:04:01.195Z</time></trkpt><trkpt lat="44.537809" lon="9.9992226"><ele>951.6666666666667</ele><time>2026-05-03T10:04:02.199Z</time></trkpt><trkpt lat="44.5379009" lon="9.9994915"><ele>953.0</ele><time>2026-05-03T10:04:03.194Z</time></trkpt><trkpt lat="44.5380094" lon="9.999826"><ele>953.0</ele><time>2026-05-03T10:04:04.196Z</time></trkpt><trkpt lat="44.5381242" lon="10.0001715"><ele>953.0</ele><time>2026-05-03T10:04:05.204Z</time></trkpt><trkpt lat="44.5382542" lon="10.0005057"><ele>954.5</ele><time>2026-05-03T10:04:06.198Z</time></trkpt><trkpt lat="44.538382" lon="10.0008572"><ele>956.0</ele><time>2026-05-03T10:04:07.2Z</time></trkpt><trkpt lat="44.5385071" lon="10.0011806"><ele>956.0</ele><time>2026-05-03T10:04:08.202Z</time></trkpt><trkpt lat="44.5385782" lon="10.0014493"><ele>956.0</ele><time>2026-05-03T10:04:09.209Z</time></trkpt><trkpt lat="44.5386586" lon="10.0017892"><ele>956.0</ele><time>2026-05-03T10:04:10.214Z</time></trkpt><trkpt lat="44.5386078" lon="10.0019752"><ele>956.0</ele><time>2026-05-03T10:04:11.209Z</time></trkpt><trkpt lat="44.5385445" lon="10.0022699"><ele>956.0</ele><time>2026-05-03T10:04:12.204Z</time></trkpt><trkpt lat="44.538468" lon="10.0025651"><ele>956.0</ele><time>2026-05-03T10:04:13.206Z</time></trkpt><trkpt lat="44.5383983" lon="10.0028476"><ele>956.0</ele><time>2026-05-03T10:04:14.206Z</time></trkpt><trkpt lat="44.5383363" lon="10.0031318"><ele>956.0</ele><time>2026-05-03T10:04:15.201Z</time></trkpt><trkpt lat="44.5383263" lon="10.0034148"><ele>957.0</ele><time>2026-05-03T10:04:16.196Z</time></trkpt><trkpt lat="44.5383395" lon="10.0037055"><ele>958.0</ele><time>2026-05-03T10:04:17.197Z</time></trkpt><trkpt lat="44.5384031" lon="10.0039913"><ele>959.0</ele><time>2026-05-03T10:04:18.176Z</time></trkpt><trkpt lat="44.5385309" lon="10.0042447"><ele>959.0</ele><time>2026-05-03T10:04:19.195Z</time></trkpt><trkpt lat="44.5386852" lon="10.0044492"><ele>959.0</ele><time>2026-05-03T10:04:20.199Z</time></trkpt><trkpt lat="44.538879" lon="10.0046032"><ele>959.0</ele><time>2026-05-03T10:04:21.192Z</time></trkpt><trkpt lat="44.5390517" lon="10.0046808"><ele>960.6666666666667</ele><time>2026-05-03T10:04:22.206Z</time></trkpt><trkpt lat="44.5392415" lon="10.0047361"><ele>962.3333333333333</ele><time>2026-05-03T10:04:23.202Z</time></trkpt><trkpt lat="44.5394617" lon="10.0046921"><ele>964.0</ele><time>2026-05-03T10:04:24.196Z</time></trkpt><trkpt lat="44.5397054" lon="10.0046804"><ele>964.0</ele><time>2026-05-03T10:04:25.176Z</time></trkpt><trkpt lat="44.5399334" lon="10.0046607"><ele>964.0</ele><time>2026-05-03T10:04:26.189Z</time></trkpt><trkpt lat="44.5401599" lon="10.0047159"><ele>964.0</ele><time>2026-05-03T10:04:27.194Z</time></trkpt><trkpt lat="44.540345" lon="10.0048219"><ele>964.0</ele><time>2026-05-03T10:04:28.198Z</time></trkpt><trkpt lat="44.5405071" lon="10.0049255"><ele>964.0</ele><time>2026-05-03T10:04:29.193Z</time></trkpt><trkpt lat="44.5406729" lon="10.0049257"><ele>959.6666666666666</ele><time>2026-05-03T10:04:30.197Z</time></trkpt><trkpt lat="44.5408499" lon="10.0049074"><ele>955.3333333333333</ele><time>2026-05-03T10:04:31.191Z</time></trkpt><trkpt lat="44.5410183" lon="10.0047952"><ele>951.0</ele><time>2026-05-03T10:04:32.194Z</time></trkpt><trkpt lat="44.5411903" lon="10.004668"><ele>946.6666666666667</ele><time>2026-05-03T10:04:33.194Z</time></trkpt><trkpt lat="44.5413478" lon="10.0045657"><ele>942.3333333333334</ele><time>2026-05-03T10:04:34.195Z</time></trkpt><trkpt lat="44.5414793" lon="10.0044827"><ele>938.0</ele><time>2026-05-03T10:04:35.203Z</time></trkpt><trkpt lat="44.5416506" lon="10.0044839"><ele>938.0</ele><time>2026-05-03T10:04:36.206Z</time></trkpt><trkpt lat="44.5417994" lon="10.0045041"><ele>938.0</ele><time>2026-05-03T10:04:37.204Z</time></trkpt><trkpt lat="44.5419129" lon="10.0045621"><ele>938.0</ele><time>2026-05-03T10:04:38.205Z</time></trkpt><trkpt lat="44.5420846" lon="10.0044891"><ele>935.0</ele><time>2026-05-03T10:04:39.203Z</time></trkpt><trkpt lat="44.5421825" lon="10.0044612"><ele>932.0</ele><time>2026-05-03T10:04:40.198Z</time></trkpt><trkpt lat="44.5421936" lon="10.004344"><ele>929.0</ele><time>2026-05-03T10:04:41.2Z</time></trkpt><trkpt lat="44.5422202" lon="10.0042153"><ele>926.0</ele><time>2026-05-03T10:04:42.195Z</time></trkpt><trkpt lat="44.5421289" lon="10.0039591"><ele>928.3333333333334</ele><time>2026-05-03T10:04:43.197Z</time></trkpt><trkpt lat="44.5419963" lon="10.0037352"><ele>930.6666666666667</ele><time>2026-05-03T10:04:44.197Z</time></trkpt><trkpt lat="44.5418529" lon="10.0035526"><ele>933.0</ele><time>2026-05-03T10:04:45.2Z</time></trkpt><trkpt lat="44.5416664" lon="10.0033818"><ele>931.0</ele><time>2026-05-03T10:04:46.19Z</time></trkpt><trkpt lat="44.5415107" lon="10.0032212"><ele>929.0</ele><time>2026-05-03T10:04:47.198Z</time></trkpt><trkpt lat="44.5413315" lon="10.0030801"><ele>927.0</ele><time>2026-05-03T10:04:48.195Z</time></trkpt><trkpt lat="44.5411615" lon="10.0029569"><ele>929.75</ele><time>2026-05-03T10:04:49.196Z</time></trkpt><trkpt lat="44.5410153" lon="10.0028379"><ele>932.5</ele><time>2026-05-03T10:04:50.196Z</time></trkpt><trkpt lat="44.5409063" lon="10.0027402"><ele>935.25</ele><time>2026-05-03T10:04:51.204Z</time></trkpt><trkpt lat="44.5408239" lon="10.0026228"><ele>938.0</ele><time>2026-05-03T10:04:52.196Z</time></trkpt><trkpt lat="44.5407903" lon="10.0024978"><ele>938.0</ele><time>2026-05-03T10:04:53.195Z</time></trkpt><trkpt lat="44.5408011" lon="10.0024064"><ele>938.0</ele><time>2026-05-03T10:04:54.198Z</time></trkpt><trkpt lat="44.5409014" lon="10.0024125"><ele>938.0</ele><time>2026-05-03T10:04:55.203Z</time></trkpt><trkpt lat="44.5410827" lon="10.0024411"><ele>938.0</ele><time>2026-05-03T10:04:56.201Z</time></trkpt><trkpt lat="44.5412916" lon="10.0024888"><ele>934.3333333333334</ele><time>2026-05-03T10:04:57.196Z</time></trkpt><trkpt lat="44.5413969" lon="10.0024597"><ele>930.6666666666667</ele><time>2026-05-03T10:04:58.191Z</time></trkpt><trkpt lat="44.541576" lon="10.0025209"><ele>927.0</ele><time>2026-05-03T10:04:59.193Z</time></trkpt><trkpt lat="44.5418721" lon="10.0026617"><ele>921.5</ele><time>2026-05-03T10:05:00.195Z</time></trkpt><trkpt lat="44.5421151" lon="10.0028263"><ele>916.0</ele><time>2026-05-03T10:05:01.203Z</time></trkpt><trkpt lat="44.5423053" lon="10.003002"><ele>916.0</ele><time>2026-05-03T10:05:02.206Z</time></trkpt><trkpt lat="44.542374" lon="10.0032477"><ele>916.0</ele><time>2026-05-03T10:05:03.203Z</time></trkpt><trkpt lat="44.5424139" lon="10.0034571"><ele>916.0</ele><time>2026-05-03T10:05:04.208Z</time></trkpt><trkpt lat="44.542496" lon="10.0037398"><ele>917.3333333333333</ele><time>2026-05-03T10:05:05.204Z</time></trkpt><trkpt lat="44.5426156" lon="10.0039609"><ele>918.6666666666667</ele><time>2026-05-03T10:05:06.204Z</time></trkpt><trkpt lat="44.5428085" lon="10.0041802"><ele>920.0</ele><time>2026-05-03T10:05:07.206Z</time></trkpt><trkpt lat="44.5430544" lon="10.0043479"><ele>916.0</ele><time>2026-05-03T10:05:08.205Z</time></trkpt><trkpt lat="44.5432942" lon="10.0044286"><ele>912.0</ele><time>2026-05-03T10:05:09.198Z</time></trkpt><trkpt lat="44.5435473" lon="10.0044191"><ele>908.5</ele><time>2026-05-03T10:05:10.203Z</time></trkpt><trkpt lat="44.5438148" lon="10.0044398"><ele>905.0</ele><time>2026-05-03T10:05:11.195Z</time></trkpt><trkpt lat="44.5440368" lon="10.0044106"><ele>905.0</ele><time>2026-05-03T10:05:12.2Z</time></trkpt><trkpt lat="44.5442213" lon="10.0042886"><ele>905.0</ele><time>2026-05-03T10:05:13.2Z</time></trkpt><trkpt lat="44.5444323" lon="10.0042722"><ele>905.0</ele><time>2026-05-03T10:05:14.2Z</time></trkpt><trkpt lat="44.5446449" lon="10.0043368"><ele>902.6666666666667</ele><time>2026-05-03T10:05:15.206Z</time></trkpt><trkpt lat="44.5448278" lon="10.0044129"><ele>900.3333333333333</ele><time>2026-05-03T10:05:16.202Z</time></trkpt><trkpt lat="44.5449994" lon="10.0044688"><ele>898.0</ele><time>2026-05-03T10:05:17.196Z</time></trkpt><trkpt lat="44.5451347" lon="10.0045352"><ele>898.0</ele><time>2026-05-03T10:05:18.203Z</time></trkpt><trkpt lat="44.5452808" lon="10.0045865"><ele>898.0</ele><time>2026-05-03T10:05:19.199Z</time></trkpt><trkpt lat="44.5454319" lon="10.004616"><ele>898.0</ele><time>2026-05-03T10:05:20.194Z</time></trkpt><trkpt lat="44.5455718" lon="10.0045712"><ele>898.0</ele><time>2026-05-03T10:05:21.196Z</time></trkpt><trkpt lat="44.5457005" lon="10.0044498"><ele>897.3333333333333</ele><time>2026-05-03T10:05:22.2Z</time></trkpt><trkpt lat="44.5458275" lon="10.0043028"><ele>896.6666666666667</ele><time>2026-05-03T10:05:23.196Z</time></trkpt><trkpt lat="44.5459526" lon="10.004132"><ele>896.0</ele><time>2026-05-03T10:05:24.196Z</time></trkpt><trkpt lat="44.5461005" lon="10.0040078"><ele>889.6666666666667</ele><time>2026-05-03T10:05:25.194Z</time></trkpt><trkpt lat="44.5462357" lon="10.0038914"><ele>883.3333333333333</ele><time>2026-05-03T10:05:26.198Z</time></trkpt><trkpt lat="44.5464082" lon="10.0038042"><ele>877.0</ele><time>2026-05-03T10:05:27.199Z</time></trkpt><trkpt lat="44.5465682" lon="10.0037426"><ele>877.0</ele><time>2026-05-03T10:05:28.201Z</time></trkpt><trkpt lat="44.5467612" lon="10.0037055"><ele>877.0</ele><time>2026-05-03T10:05:29.209Z</time></trkpt><trkpt lat="44.5469203" lon="10.0037671"><ele>877.0</ele><time>2026-05-03T10:05:30.21Z</time></trkpt><trkpt lat="44.5470825" lon="10.0038085"><ele>875.6666666666666</ele><time>2026-05-03T10:05:31.216Z</time></trkpt><trkpt lat="44.5472658" lon="10.0038616"><ele>874.3333333333333</ele><time>2026-05-03T10:05:32.215Z</time></trkpt><trkpt lat="44.5474635" lon="10.003897"><ele>873.0</ele><time>2026-05-03T10:05:33.21Z</time></trkpt><trkpt lat="44.5476463" lon="10.0039007"><ele>873.0</ele><time>2026-05-03T10:05:34.207Z</time></trkpt><trkpt lat="44.5478501" lon="10.0037942"><ele>873.0</ele><time>2026-05-03T10:05:35.22Z</time></trkpt><trkpt lat="44.5480066" lon="10.0037163"><ele>873.0</ele><time>2026-05-03T10:05:36.204Z</time></trkpt><trkpt lat="44.5481425" lon="10.0037468"><ele>871.3333333333333</ele><time>2026-05-03T10:05:37.201Z</time></trkpt><trkpt lat="44.5483006" lon="10.003741"><ele>869.6666666666666</ele><time>2026-05-03T10:05:38.206Z</time></trkpt><trkpt lat="44.5484401" lon="10.0038608"><ele>868.0</ele><time>2026-05-03T10:05:39.21Z</time></trkpt><trkpt lat="44.5485865" lon="10.0039187"><ele>866.3333333333333</ele><time>2026-05-03T10:05:40.206Z</time></trkpt><trkpt lat="44.5487344" lon="10.0039125"><ele>864.6666666666667</ele><time>2026-05-03T10:05:41.197Z</time></trkpt><trkpt lat="44.5488936" lon="10.0038625"><ele>863.0</ele><time>2026-05-03T10:05:42.201Z</time></trkpt><trkpt lat="44.5490748" lon="10.0037507"><ele>863.0</ele><time>2026-05-03T10:05:43.203Z</time></trkpt><trkpt lat="44.5492363" lon="10.0036291"><ele>863.0</ele><time>2026-05-03T10:05:44.199Z</time></trkpt><trkpt lat="44.5494011" lon="10.0035046"><ele>863.0</ele><time>2026-05-03T10:05:45.207Z</time></trkpt><trkpt lat="44.5495539" lon="10.0034826"><ele>862.6666666666667</ele><time>2026-05-03T10:05:46.203Z</time></trkpt><trkpt lat="44.5497427" lon="10.0034752"><ele>862.3333333333333</ele><time>2026-05-03T10:05:47.203Z</time></trkpt><trkpt lat="44.5499046" lon="10.0034973"><ele>862.0</ele><time>2026-05-03T10:05:48.199Z</time></trkpt><trkpt lat="44.5500883" lon="10.0035699"><ele>862.0</ele><time>2026-05-03T10:05:49.196Z</time></trkpt><trkpt lat="44.5502581" lon="10.0035367"><ele>862.0</ele><time>2026-05-03T10:05:50.196Z</time></trkpt><trkpt lat="44.5503921" lon="10.0034415"><ele>862.0</ele><time>2026-05-03T10:05:51.195Z</time></trkpt><trkpt lat="44.5505358" lon="10.0033426"><ele>859.3333333333333</ele><time>2026-05-03T10:05:52.196Z</time></trkpt><trkpt lat="44.5507072" lon="10.0033084"><ele>856.6666666666667</ele><time>2026-05-03T10:05:53.196Z</time></trkpt><trkpt lat="44.5507737" lon="10.0029401"><ele>854.0</ele><time>2026-05-03T10:05:54.194Z</time></trkpt><trkpt lat="44.5508774" lon="10.0026122"><ele>850.3333333333334</ele><time>2026-05-03T10:05:55.208Z</time></trkpt><trkpt lat="44.5509911" lon="10.0023827"><ele>846.6666666666667</ele><time>2026-05-03T10:05:56.199Z</time></trkpt><trkpt lat="44.5510995" lon="10.0022191"><ele>843.0</ele><time>2026-05-03T10:05:57.203Z</time></trkpt><trkpt lat="44.5512099" lon="10.0020706"><ele>843.0</ele><time>2026-05-03T10:05:58.204Z</time></trkpt><trkpt lat="44.5513348" lon="10.0020176"><ele>843.0</ele><time>2026-05-03T10:05:59.205Z</time></trkpt><trkpt lat="44.5514686" lon="10.0020081"><ele>843.0</ele><time>2026-05-03T10:06:00.207Z</time></trkpt><trkpt lat="44.5516293" lon="10.0020675"><ele>843.0</ele><time>2026-05-03T10:06:01.206Z</time></trkpt><trkpt lat="44.5518488" lon="10.0021503"><ele>842.3333333333333</ele><time>2026-05-03T10:06:02.202Z</time></trkpt><trkpt lat="44.5520633" lon="10.0022588"><ele>841.6666666666666</ele><time>2026-05-03T10:06:03.21Z</time></trkpt><trkpt lat="44.5522541" lon="10.0023041"><ele>841.0</ele><time>2026-05-03T10:06:04.205Z</time></trkpt><trkpt lat="44.5524336" lon="10.0022285"><ele>841.0</ele><time>2026-05-03T10:06:05.208Z</time></trkpt><trkpt lat="44.552629" lon="10.0021596"><ele>841.0</ele><time>2026-05-03T10:06:06.208Z</time></trkpt><trkpt lat="44.5528038" lon="10.0021243"><ele>841.0</ele><time>2026-05-03T10:06:07.207Z</time></trkpt><trkpt lat="44.5529779" lon="10.0020713"><ele>840.0</ele><time>2026-05-03T10:06:08.197Z</time></trkpt><trkpt lat="44.5530085" lon="10.0017624"><ele>839.0</ele><time>2026-05-03T10:06:09.207Z</time></trkpt><trkpt lat="44.5529957" lon="10.0015006"><ele>838.0</ele><time>2026-05-03T10:06:10.208Z</time></trkpt><trkpt lat="44.5530198" lon="10.0012571"><ele>833.6666666666666</ele><time>2026-05-03T10:06:11.201Z</time></trkpt><trkpt lat="44.5531636" lon="10.0011604"><ele>829.3333333333333</ele><time>2026-05-03T10:06:12.196Z</time></trkpt><trkpt lat="44.5533195" lon="10.0011492"><ele>825.0</ele><time>2026-05-03T10:06:13.201Z</time></trkpt><trkpt lat="44.5534806" lon="10.0012006"><ele>825.0</ele><time>2026-05-03T10:06:14.195Z</time></trkpt><trkpt lat="44.553611" lon="10.0012822"><ele>825.0</ele><time>2026-05-03T10:06:15.202Z</time></trkpt><trkpt lat="44.5537354" lon="10.0013907"><ele>825.0</ele><time>2026-05-03T10:06:16.206Z</time></trkpt><trkpt lat="44.5538249" lon="10.0015261"><ele>825.0</ele><time>2026-05-03T10:06:17.202Z</time></trkpt><trkpt lat="44.5538797" lon="10.0017189"><ele>825.0</ele><time>2026-05-03T10:06:18.205Z</time></trkpt><trkpt lat="44.55395" lon="10.00197"><ele>825.0</ele><time>2026-05-03T10:06:19.221Z</time></trkpt><trkpt lat="44.5540145" lon="10.0022618"><ele>825.0</ele><time>2026-05-03T10:06:20.194Z</time></trkpt><trkpt lat="44.5540508" lon="10.0025815"><ele>825.0</ele><time>2026-05-03T10:06:21.104Z</time></trkpt><trkpt lat="44.5540974" lon="10.0028607"><ele>825.0</ele><time>2026-05-03T10:06:22.012Z</time></trkpt><trkpt lat="44.554288" lon="10.0033644"><ele>827.6666666666667</ele><time>2026-05-03T10:06:23.802Z</time></trkpt><trkpt lat="44.5544633" lon="10.0035586"><ele>830.3333333333334</ele><time>2026-05-03T10:06:24.803Z</time></trkpt><trkpt lat="44.5546123" lon="10.0036878"><ele>833.0</ele><time>2026-05-03T10:06:25.704Z</time></trkpt><trkpt lat="44.5549682" lon="10.0039356"><ele>827.0</ele><time>2026-05-03T10:06:27.502Z</time></trkpt><trkpt lat="44.5551557" lon="10.0039944"><ele>821.0</ele><time>2026-05-03T10:06:28.406Z</time></trkpt><trkpt lat="44.5554046" lon="10.0040332"><ele>815.0</ele><time>2026-05-03T10:06:29.406Z</time></trkpt><trkpt lat="44.5554975" lon="10.0040587"><ele>812.5</ele><time>2026-05-03T10:06:30.306Z</time></trkpt><trkpt lat="44.5555995" lon="10.0041662"><ele>810.0</ele><time>2026-05-03T10:06:32.204Z</time></trkpt><trkpt lat="44.5556172" lon="10.0042812"><ele>807.5</ele><time>2026-05-03T10:06:33.209Z</time></trkpt><trkpt lat="44.5556045" lon="10.0045177"><ele>805.0</ele><time>2026-05-03T10:06:34.212Z</time></trkpt><trkpt lat="44.5554894" lon="10.0047487"><ele>805.0</ele><time>2026-05-03T10:06:35.209Z</time></trkpt><trkpt lat="44.5554125" lon="10.0049783"><ele>805.0</ele><time>2026-05-03T10:06:36.208Z</time></trkpt><trkpt lat="44.5553485" lon="10.0052085"><ele>805.0</ele><time>2026-05-03T10:06:37.187Z</time></trkpt><trkpt lat="44.5553224" lon="10.0054566"><ele>804.3333333333333</ele><time>2026-05-03T10:06:38.166Z</time></trkpt><trkpt lat="44.5553382" lon="10.0056934"><ele>803.6666666666667</ele><time>2026-05-03T10:06:39.19Z</time></trkpt><trkpt lat="44.5553862" lon="10.0059398"><ele>803.0</ele><time>2026-05-03T10:06:40.19Z</time></trkpt><trkpt lat="44.555482" lon="10.0061861"><ele>803.0</ele><time>2026-05-03T10:06:41.186Z</time></trkpt><trkpt lat="44.5556227" lon="10.0063666"><ele>803.0</ele><time>2026-05-03T10:06:42.202Z</time></trkpt><trkpt lat="44.5558648" lon="10.0065378"><ele>806.3333333333334</ele><time>2026-05-03T10:06:43.209Z</time></trkpt><trkpt lat="44.5560564" lon="10.0067201"><ele>809.6666666666667</ele><time>2026-05-03T10:06:44.215Z</time></trkpt><trkpt lat="44.5561833" lon="10.0068629"><ele>813.0</ele><time>2026-05-03T10:06:45.207Z</time></trkpt><trkpt lat="44.5562936" lon="10.0070363"><ele>809.25</ele><time>2026-05-03T10:06:46.211Z</time></trkpt><trkpt lat="44.5563865" lon="10.0072137"><ele>805.5</ele><time>2026-05-03T10:06:47.209Z</time></trkpt><trkpt lat="44.5564211" lon="10.0073997"><ele>801.75</ele><time>2026-05-03T10:06:48.206Z</time></trkpt><trkpt lat="44.5564854" lon="10.0075539"><ele>798.0</ele><time>2026-05-03T10:06:49.205Z</time></trkpt><trkpt lat="44.5565741" lon="10.0076792"><ele>798.0</ele><time>2026-05-03T10:06:50.205Z</time></trkpt><trkpt lat="44.5566604" lon="10.0078159"><ele>798.0</ele><time>2026-05-03T10:06:51.206Z</time></trkpt><trkpt lat="44.5568217" lon="10.0078217"><ele>798.0</ele><time>2026-05-03T10:06:52.208Z</time></trkpt><trkpt lat="44.5569987" lon="10.0077547"><ele>794.5</ele><time>2026-05-03T10:06:53.209Z</time></trkpt><trkpt lat="44.5571233" lon="10.0076765"><ele>791.0</ele><time>2026-05-03T10:06:54.211Z</time></trkpt><trkpt lat="44.5572721" lon="10.0075833"><ele>787.5</ele><time>2026-05-03T10:06:55.202Z</time></trkpt><trkpt lat="44.5574125" lon="10.0075709"><ele>784.0</ele><time>2026-05-03T10:06:56.198Z</time></trkpt><trkpt lat="44.5575546" lon="10.0075693"><ele>784.0</ele><time>2026-05-03T10:06:57.203Z</time></trkpt><trkpt lat="44.5576609" lon="10.0075792"><ele>784.0</ele><time>2026-05-03T10:06:58.202Z</time></trkpt><trkpt lat="44.5577504" lon="10.0076588"><ele>784.0</ele><time>2026-05-03T10:06:59.2Z</time></trkpt><trkpt lat="44.5578206" lon="10.0077635"><ele>784.0</ele><time>2026-05-03T10:07:00.202Z</time></trkpt><trkpt lat="44.5578619" lon="10.0078745"><ele>784.0</ele><time>2026-05-03T10:07:01.193Z</time></trkpt><trkpt lat="44.5579043" lon="10.0080259"><ele>781.5</ele><time>2026-05-03T10:07:02.204Z</time></trkpt><trkpt lat="44.5579654" lon="10.0081815"><ele>779.0</ele><time>2026-05-03T10:07:03.201Z</time></trkpt><trkpt lat="44.5580663" lon="10.0083387"><ele>776.5</ele><time>2026-05-03T10:07:04.219Z</time></trkpt><trkpt lat="44.5581907" lon="10.0084868"><ele>774.0</ele><time>2026-05-03T10:07:05.206Z</time></trkpt><trkpt lat="44.5582945" lon="10.0086419"><ele>774.0</ele><time>2026-05-03T10:07:06.21Z</time></trkpt><trkpt lat="44.5583661" lon="10.0088297"><ele>774.0</ele><time>2026-05-03T10:07:07.213Z</time></trkpt><trkpt lat="44.5584065" lon="10.0089692"><ele>774.0</ele><time>2026-05-03T10:07:08.208Z</time></trkpt><trkpt lat="44.5584642" lon="10.0091499"><ele>774.0</ele><time>2026-05-03T10:07:09.205Z</time></trkpt><trkpt lat="44.558509" lon="10.0092631"><ele>775.75</ele><time>2026-05-03T10:07:10.209Z</time></trkpt><trkpt lat="44.5585792" lon="10.0094163"><ele>777.5</ele><time>2026-05-03T10:07:11.211Z</time></trkpt><trkpt lat="44.5586548" lon="10.0095798"><ele>779.25</ele><time>2026-05-03T10:07:12.213Z</time></trkpt><trkpt lat="44.5587628" lon="10.0097281"><ele>781.0</ele><time>2026-05-03T10:07:13.203Z</time></trkpt><trkpt lat="44.5589364" lon="10.0098938"><ele>775.0</ele><time>2026-05-03T10:07:14.219Z</time></trkpt><trkpt lat="44.5590812" lon="10.0100724"><ele>769.0</ele><time>2026-05-03T10:07:15.21Z</time></trkpt><trkpt lat="44.559242" lon="10.010245"><ele>763.0</ele><time>2026-05-03T10:07:16.207Z</time></trkpt><trkpt lat="44.559397" lon="10.0104128"><ele>758.0</ele><time>2026-05-03T10:07:17.204Z</time></trkpt><trkpt lat="44.5595522" lon="10.0105738"><ele>753.0</ele><time>2026-05-03T10:07:18.207Z</time></trkpt><trkpt lat="44.5596556" lon="10.0107163"><ele>748.0</ele><time>2026-05-03T10:07:19.204Z</time></trkpt><trkpt lat="44.5597484" lon="10.0109165"><ele>748.0</ele><time>2026-05-03T10:07:20.201Z</time></trkpt><trkpt lat="44.5598026" lon="10.0111656"><ele>748.0</ele><time>2026-05-03T10:07:21.207Z</time></trkpt><trkpt lat="44.5598477" lon="10.0113612"><ele>748.0</ele><time>2026-05-03T10:07:22.202Z</time></trkpt><trkpt lat="44.5598685" lon="10.0115167"><ele>748.0</ele><time>2026-05-03T10:07:23.205Z</time></trkpt><trkpt lat="44.5598594" lon="10.0116552"><ele>749.0</ele><time>2026-05-03T10:07:24.192Z</time></trkpt><trkpt lat="44.5598135" lon="10.0117718"><ele>750.0</ele><time>2026-05-03T10:07:25.189Z</time></trkpt><trkpt lat="44.5597915" lon="10.0118885"><ele>751.0</ele><time>2026-05-03T10:07:26.205Z</time></trkpt><trkpt lat="44.5597834" lon="10.0120244"><ele>752.0</ele><time>2026-05-03T10:07:27.202Z</time></trkpt><trkpt lat="44.5597839" lon="10.0121638"><ele>753.0</ele><time>2026-05-03T10:07:28.209Z</time></trkpt><trkpt lat="44.5597803" lon="10.0123341"><ele>752.0</ele><time>2026-05-03T10:07:29.203Z</time></trkpt><trkpt lat="44.5598136" lon="10.0125079"><ele>751.0</ele><time>2026-05-03T10:07:30.197Z</time></trkpt><trkpt lat="44.5598767" lon="10.0127236"><ele>750.0</ele><time>2026-05-03T10:07:31.205Z</time></trkpt><trkpt lat="44.5599105" lon="10.012962"><ele>750.0</ele><time>2026-05-03T10:07:32.205Z</time></trkpt><trkpt lat="44.559976" lon="10.013289"><ele>750.0</ele><time>2026-05-03T10:07:33.213Z</time></trkpt><trkpt lat="44.5600288" lon="10.0134355"><ele>750.0</ele><time>2026-05-03T10:07:34.219Z</time></trkpt><trkpt lat="44.5601187" lon="10.0136506"><ele>750.0</ele><time>2026-05-03T10:07:35.204Z</time></trkpt><trkpt lat="44.5602203" lon="10.0138569"><ele>750.0</ele><time>2026-05-03T10:07:36.209Z</time></trkpt><trkpt lat="44.5603753" lon="10.0140419"><ele>750.0</ele><time>2026-05-03T10:07:37.207Z</time></trkpt><trkpt lat="44.5605467" lon="10.014168"><ele>746.3333333333334</ele><time>2026-05-03T10:07:38.217Z</time></trkpt><trkpt lat="44.5607414" lon="10.0142305"><ele>742.6666666666667</ele><time>2026-05-03T10:07:39.207Z</time></trkpt><trkpt lat="44.5609369" lon="10.0142085"><ele>739.0</ele><time>2026-05-03T10:07:40.208Z</time></trkpt><trkpt lat="44.5611276" lon="10.014263"><ele>735.3333333333334</ele><time>2026-05-03T10:07:41.206Z</time></trkpt><trkpt lat="44.5612887" lon="10.0143728"><ele>731.6666666666666</ele><time>2026-05-03T10:07:42.213Z</time></trkpt><trkpt lat="44.5614474" lon="10.0144674"><ele>728.0</ele><time>2026-05-03T10:07:43.213Z</time></trkpt><trkpt lat="44.5616036" lon="10.0145775"><ele>728.0</ele><time>2026-05-03T10:07:44.21Z</time></trkpt><trkpt lat="44.5617778" lon="10.0147234"><ele>728.0</ele><time>2026-05-03T10:07:45.214Z</time></trkpt><trkpt lat="44.5619569" lon="10.0148609"><ele>728.0</ele><time>2026-05-03T10:07:46.212Z</time></trkpt><trkpt lat="44.5621146" lon="10.0149772"><ele>729.3333333333333</ele><time>2026-05-03T10:07:47.21Z</time></trkpt><trkpt lat="44.5622962" lon="10.0149981"><ele>730.6666666666666</ele><time>2026-05-03T10:07:48.204Z</time></trkpt><trkpt lat="44.5624458" lon="10.0149542"><ele>732.0</ele><time>2026-05-03T10:07:49.205Z</time></trkpt><trkpt lat="44.5625778" lon="10.01486"><ele>729.0</ele><time>2026-05-03T10:07:50.205Z</time></trkpt><trkpt lat="44.5627642" lon="10.0147442"><ele>726.0</ele><time>2026-05-03T10:07:51.205Z</time></trkpt><trkpt lat="44.5629305" lon="10.0147005"><ele>723.0</ele><time>2026-05-03T10:07:52.198Z</time></trkpt><trkpt lat="44.5629997" lon="10.0147384"><ele>720.0</ele><time>2026-05-03T10:07:53.202Z</time></trkpt><trkpt lat="44.563061" lon="10.0148443"><ele>718.0</ele><time>2026-05-03T10:07:54.212Z</time></trkpt><trkpt lat="44.5631223" lon="10.0150232"><ele>716.0</ele><time>2026-05-03T10:07:55.2Z</time></trkpt><trkpt lat="44.5632038" lon="10.0153116"><ele>714.0</ele><time>2026-05-03T10:07:56.205Z</time></trkpt><trkpt lat="44.5632685" lon="10.0156578"><ele>714.6666666666666</ele><time>2026-05-03T10:07:57.205Z</time></trkpt><trkpt lat="44.5633096" lon="10.0159139"><ele>715.3333333333333</ele><time>2026-05-03T10:07:58.215Z</time></trkpt><trkpt lat="44.5634098" lon="10.0161757"><ele>716.0</ele><time>2026-05-03T10:07:59.208Z</time></trkpt><trkpt lat="44.563488" lon="10.0164162"><ele>716.0</ele><time>2026-05-03T10:08:00.214Z</time></trkpt><trkpt lat="44.5635919" lon="10.0166119"><ele>716.0</ele><time>2026-05-03T10:08:01.213Z</time></trkpt><trkpt lat="44.5637576" lon="10.016782"><ele>716.0</ele><time>2026-05-03T10:08:02.216Z</time></trkpt><trkpt lat="44.5639479" lon="10.0169308"><ele>714.6666666666666</ele><time>2026-05-03T10:08:03.214Z</time></trkpt><trkpt lat="44.5641282" lon="10.0170185"><ele>713.3333333333334</ele><time>2026-05-03T10:08:04.222Z</time></trkpt><trkpt lat="44.5643142" lon="10.0171429"><ele>712.0</ele><time>2026-05-03T10:08:05.208Z</time></trkpt><trkpt lat="44.564502" lon="10.0171894"><ele>710.3333333333334</ele><time>2026-05-03T10:08:06.203Z</time></trkpt><trkpt lat="44.5646831" lon="10.017211"><ele>708.6666666666666</ele><time>2026-05-03T10:08:07.207Z</time></trkpt><trkpt lat="44.5648562" lon="10.0172483"><ele>707.0</ele><time>2026-05-03T10:08:08.207Z</time></trkpt><trkpt lat="44.5650094" lon="10.0173196"><ele>707.0</ele><time>2026-05-03T10:08:09.22Z</time></trkpt><trkpt lat="44.5651426" lon="10.0174105"><ele>707.0</ele><time>2026-05-03T10:08:10.207Z</time></trkpt><trkpt lat="44.5652605" lon="10.0175419"><ele>707.0</ele><time>2026-05-03T10:08:11.206Z</time></trkpt><trkpt lat="44.5654422" lon="10.0176459"><ele>708.0</ele><time>2026-05-03T10:08:12.201Z</time></trkpt><trkpt lat="44.565643" lon="10.0177062"><ele>709.0</ele><time>2026-05-03T10:08:13.203Z</time></trkpt><trkpt lat="44.5658541" lon="10.0177511"><ele>710.0</ele><time>2026-05-03T10:08:14.213Z</time></trkpt><trkpt lat="44.5660658" lon="10.0177948"><ele>709.6666666666666</ele><time>2026-05-03T10:08:15.2Z</time></trkpt><trkpt lat="44.5662661" lon="10.0178414"><ele>709.3333333333334</ele><time>2026-05-03T10:08:16.2Z</time></trkpt><trkpt lat="44.5664721" lon="10.0179128"><ele>709.0</ele><time>2026-05-03T10:08:17.203Z</time></trkpt><trkpt lat="44.5666674" lon="10.0180184"><ele>709.0</ele><time>2026-05-03T10:08:18.204Z</time></trkpt><trkpt lat="44.5668556" lon="10.0181702"><ele>709.0</ele><time>2026-05-03T10:08:19.202Z</time></trkpt><trkpt lat="44.567055" lon="10.0183399"><ele>711.0</ele><time>2026-05-03T10:08:20.2Z</time></trkpt><trkpt lat="44.5672795" lon="10.0185167"><ele>713.0</ele><time>2026-05-03T10:08:21.208Z</time></trkpt><trkpt lat="44.5674959" lon="10.0186939"><ele>713.0</ele><time>2026-05-03T10:08:22.206Z</time></trkpt><trkpt lat="44.5677183" lon="10.0188586"><ele>713.0</ele><time>2026-05-03T10:08:23.215Z</time></trkpt><trkpt lat="44.5679445" lon="10.0190718"><ele>709.5</ele><time>2026-05-03T10:08:24.218Z</time></trkpt><trkpt lat="44.5681577" lon="10.0192519"><ele>706.0</ele><time>2026-05-03T10:08:25.207Z</time></trkpt><trkpt lat="44.5683705" lon="10.0194701"><ele>706.0</ele><time>2026-05-03T10:08:26.208Z</time></trkpt><trkpt lat="44.568568" lon="10.0196314"><ele>706.0</ele><time>2026-05-03T10:08:27.205Z</time></trkpt><trkpt lat="44.5687652" lon="10.0198214"><ele>707.6666666666667</ele><time>2026-05-03T10:08:28.214Z</time></trkpt><trkpt lat="44.5689464" lon="10.0200137"><ele>709.3333333333334</ele><time>2026-05-03T10:08:29.21Z</time></trkpt><trkpt lat="44.5691079" lon="10.0201979"><ele>711.0</ele><time>2026-05-03T10:08:30.209Z</time></trkpt><trkpt lat="44.569285" lon="10.0203593"><ele>711.0</ele><time>2026-05-03T10:08:31.201Z</time></trkpt><trkpt lat="44.569445" lon="10.0204729"><ele>711.0</ele><time>2026-05-03T10:08:32.196Z</time></trkpt><trkpt lat="44.5696184" lon="10.020539"><ele>711.0</ele><time>2026-05-03T10:08:33.206Z</time></trkpt><trkpt lat="44.5698056" lon="10.0205506"><ele>713.3333333333334</ele><time>2026-05-03T10:08:34.212Z</time></trkpt><trkpt lat="44.5699864" lon="10.020513"><ele>715.6666666666667</ele><time>2026-05-03T10:08:35.198Z</time></trkpt><trkpt lat="44.5701263" lon="10.0204807"><ele>718.0</ele><time>2026-05-03T10:08:36.204Z</time></trkpt><trkpt lat="44.5703108" lon="10.020536"><ele>718.3333333333334</ele><time>2026-05-03T10:08:37.197Z</time></trkpt><trkpt lat="44.5704592" lon="10.0206538"><ele>718.6666666666666</ele><time>2026-05-03T10:08:38.202Z</time></trkpt><trkpt lat="44.570605" lon="10.0207944"><ele>719.0</ele><time>2026-05-03T10:08:39.208Z</time></trkpt><trkpt lat="44.5707397" lon="10.0209611"><ele>722.3333333333333</ele><time>2026-05-03T10:08:40.205Z</time></trkpt><trkpt lat="44.570896" lon="10.0211758"><ele>725.6666666666666</ele><time>2026-05-03T10:08:41.207Z</time></trkpt><trkpt lat="44.5710349" lon="10.0214111"><ele>729.0</ele><time>2026-05-03T10:08:42.202Z</time></trkpt><trkpt lat="44.5711724" lon="10.021574"><ele>733.0</ele><time>2026-05-03T10:08:43.201Z</time></trkpt><trkpt lat="44.5713194" lon="10.0216529"><ele>737.0</ele><time>2026-05-03T10:08:44.212Z</time></trkpt><trkpt lat="44.5715273" lon="10.0217351"><ele>741.0</ele><time>2026-05-03T10:08:45.208Z</time></trkpt><trkpt lat="44.5717375" lon="10.0218782"><ele>741.0</ele><time>2026-05-03T10:08:46.209Z</time></trkpt><trkpt lat="44.5719532" lon="10.0220206"><ele>741.0</ele><time>2026-05-03T10:08:47.204Z</time></trkpt><trkpt lat="44.5721418" lon="10.0221469"><ele>741.0</ele><time>2026-05-03T10:08:48.2Z</time></trkpt><trkpt lat="44.5722847" lon="10.0222466"><ele>741.0</ele><time>2026-05-03T10:08:49.202Z</time></trkpt><trkpt lat="44.5724263" lon="10.0223532"><ele>741.0</ele><time>2026-05-03T10:08:50.2Z</time></trkpt><trkpt lat="44.5725501" lon="10.0225349"><ele>741.0</ele><time>2026-05-03T10:08:51.217Z</time></trkpt><trkpt lat="44.5727094" lon="10.0227718"><ele>737.0</ele><time>2026-05-03T10:08:52.205Z</time></trkpt><trkpt lat="44.5728575" lon="10.0229984"><ele>733.0</ele><time>2026-05-03T10:08:53.212Z</time></trkpt><trkpt lat="44.5730399" lon="10.0232983"><ele>734.3333333333334</ele><time>2026-05-03T10:08:54.224Z</time></trkpt><trkpt lat="44.5731713" lon="10.0236002"><ele>735.6666666666666</ele><time>2026-05-03T10:08:55.212Z</time></trkpt><trkpt lat="44.573283" lon="10.0238118"><ele>737.0</ele><time>2026-05-03T10:08:56.208Z</time></trkpt><trkpt lat="44.5733629" lon="10.0240177"><ele>737.0</ele><time>2026-05-03T10:08:57.203Z</time></trkpt><trkpt lat="44.5735026" lon="10.024225"><ele>737.0</ele><time>2026-05-03T10:08:58.211Z</time></trkpt><trkpt lat="44.5736376" lon="10.0243666"><ele>737.0</ele><time>2026-05-03T10:08:59.21Z</time></trkpt><trkpt lat="44.5738182" lon="10.0244621"><ele>737.0</ele><time>2026-05-03T10:09:00.203Z</time></trkpt><trkpt lat="44.5740188" lon="10.0245161"><ele>737.0</ele><time>2026-05-03T10:09:01.209Z</time></trkpt><trkpt lat="44.5742528" lon="10.0245655"><ele>737.0</ele><time>2026-05-03T10:09:02.204Z</time></trkpt><trkpt lat="44.5744715" lon="10.0246383"><ele>735.0</ele><time>2026-05-03T10:09:03.211Z</time></trkpt><trkpt lat="44.5746926" lon="10.0246915"><ele>733.0</ele><time>2026-05-03T10:09:04.219Z</time></trkpt><trkpt lat="44.574911" lon="10.0247334"><ele>731.0</ele><time>2026-05-03T10:09:05.209Z</time></trkpt><trkpt lat="44.5751319" lon="10.0247498"><ele>726.5</ele><time>2026-05-03T10:09:06.21Z</time></trkpt><trkpt lat="44.5753581" lon="10.0247993"><ele>722.0</ele><time>2026-05-03T10:09:07.21Z</time></trkpt><trkpt lat="44.5755688" lon="10.0248981"><ele>728.0</ele><time>2026-05-03T10:09:08.202Z</time></trkpt><trkpt lat="44.575782" lon="10.0250824"><ele>734.0</ele><time>2026-05-03T10:09:09.2Z</time></trkpt><trkpt lat="44.5759718" lon="10.0253026"><ele>734.0</ele><time>2026-05-03T10:09:10.212Z</time></trkpt><trkpt lat="44.5761739" lon="10.025539"><ele>734.0</ele><time>2026-05-03T10:09:11.212Z</time></trkpt><trkpt lat="44.5763739" lon="10.0257785"><ele>737.0</ele><time>2026-05-03T10:09:12.208Z</time></trkpt><trkpt lat="44.5765651" lon="10.0260042"><ele>740.0</ele><time>2026-05-03T10:09:13.208Z</time></trkpt><trkpt lat="44.5767211" lon="10.0262134"><ele>740.0</ele><time>2026-05-03T10:09:14.209Z</time></trkpt><trkpt lat="44.5768255" lon="10.026378"><ele>740.0</ele><time>2026-05-03T10:09:15.208Z</time></trkpt><trkpt lat="44.5768937" lon="10.0265558"><ele>740.0</ele><time>2026-05-03T10:09:16.194Z</time></trkpt><trkpt lat="44.5769435" lon="10.0268221"><ele>735.0</ele><time>2026-05-03T10:09:17.198Z</time></trkpt><trkpt lat="44.5770626" lon="10.0271204"><ele>730.0</ele><time>2026-05-03T10:09:18.206Z</time></trkpt><trkpt lat="44.5771647" lon="10.0274162"><ele>734.6666666666667</ele><time>2026-05-03T10:09:19.201Z</time></trkpt><trkpt lat="44.5772758" lon="10.0276876"><ele>739.3333333333334</ele><time>2026-05-03T10:09:20.202Z</time></trkpt><trkpt lat="44.5773464" lon="10.0279658"><ele>744.0</ele><time>2026-05-03T10:09:21.209Z</time></trkpt><trkpt lat="44.5774338" lon="10.0282341"><ele>746.3333333333334</ele><time>2026-05-03T10:09:22.216Z</time></trkpt><trkpt lat="44.5775584" lon="10.0284723"><ele>748.6666666666667</ele><time>2026-05-03T10:09:23.214Z</time></trkpt><trkpt lat="44.5776619" lon="10.0287134"><ele>751.0</ele><time>2026-05-03T10:09:24.221Z</time></trkpt><trkpt lat="44.5778012" lon="10.028946"><ele>753.6666666666667</ele><time>2026-05-03T10:09:25.209Z</time></trkpt><trkpt lat="44.5779321" lon="10.0290965"><ele>756.3333333333334</ele><time>2026-05-03T10:09:26.216Z</time></trkpt><trkpt lat="44.5780525" lon="10.0293195"><ele>759.0</ele><time>2026-05-03T10:09:27.214Z</time></trkpt><trkpt lat="44.5780613" lon="10.0295286"><ele>759.6666666666666</ele><time>2026-05-03T10:09:28.214Z</time></trkpt><trkpt lat="44.578114" lon="10.029755"><ele>760.3333333333333</ele><time>2026-05-03T10:09:29.21Z</time></trkpt><trkpt lat="44.5781828" lon="10.0299975"><ele>761.0</ele><time>2026-05-03T10:09:30.213Z</time></trkpt><trkpt lat="44.5782587" lon="10.0301896"><ele>761.0</ele><time>2026-05-03T10:09:31.211Z</time></trkpt><trkpt lat="44.5783267" lon="10.0303189"><ele>761.0</ele><time>2026-05-03T10:09:32.205Z</time></trkpt><trkpt lat="44.5784174" lon="10.0304715"><ele>761.0</ele><time>2026-05-03T10:09:33.202Z</time></trkpt><trkpt lat="44.57851" lon="10.0305424"><ele>761.0</ele><time>2026-05-03T10:09:34.208Z</time></trkpt><trkpt lat="44.5785871" lon="10.0305986"><ele>761.0</ele><time>2026-05-03T10:09:35.208Z</time></trkpt><trkpt lat="44.5786379" lon="10.0306552"><ele>762.8</ele><time>2026-05-03T10:09:36.205Z</time></trkpt><trkpt lat="44.5787032" lon="10.0307001"><ele>764.5999999999999</ele><time>2026-05-03T10:09:37.219Z</time></trkpt><trkpt lat="44.5787924" lon="10.0307358"><ele>766.4</ele><time>2026-05-03T10:09:38.2Z</time></trkpt><trkpt lat="44.5788842" lon="10.030773"><ele>768.2</ele><time>2026-05-03T10:09:39.205Z</time></trkpt><trkpt lat="44.5789879" lon="10.0307968"><ele>770.0</ele><time>2026-05-03T10:09:40.201Z</time></trkpt><trkpt lat="44.5791092" lon="10.0307984"><ele>770.0</ele><time>2026-05-03T10:09:41.211Z</time></trkpt><trkpt lat="44.5792449" lon="10.0307615"><ele>770.0</ele><time>2026-05-03T10:09:42.209Z</time></trkpt><trkpt lat="44.5793793" lon="10.030633"><ele>770.0</ele><time>2026-05-03T10:09:43.207Z</time></trkpt><trkpt lat="44.579533" lon="10.0305129"><ele>770.0</ele><time>2026-05-03T10:09:44.203Z</time></trkpt><trkpt lat="44.5797052" lon="10.0303801"><ele>770.0</ele><time>2026-05-03T10:09:45.201Z</time></trkpt><trkpt lat="44.5798497" lon="10.0302656"><ele>770.0</ele><time>2026-05-03T10:09:46.203Z</time></trkpt><trkpt lat="44.5800392" lon="10.0302184"><ele>770.0</ele><time>2026-05-03T10:09:47.216Z</time></trkpt><trkpt lat="44.5802322" lon="10.030231"><ele>770.0</ele><time>2026-05-03T10:09:48.208Z</time></trkpt><trkpt lat="44.5804419" lon="10.0302902"><ele>770.0</ele><time>2026-05-03T10:09:49.212Z</time></trkpt><trkpt lat="44.580662" lon="10.030368"><ele>769.6666666666667</ele><time>2026-05-03T10:09:50.213Z</time></trkpt><trkpt lat="44.5808655" lon="10.0304258"><ele>769.3333333333333</ele><time>2026-05-03T10:09:51.203Z</time></trkpt><trkpt lat="44.581061" lon="10.0304854"><ele>769.0</ele><time>2026-05-03T10:09:52.209Z</time></trkpt><trkpt lat="44.5812636" lon="10.0305224"><ele>769.0</ele><time>2026-05-03T10:09:53.215Z</time></trkpt><trkpt lat="44.5814491" lon="10.0305632"><ele>769.0</ele><time>2026-05-03T10:09:54.205Z</time></trkpt><trkpt lat="44.5816236" lon="10.0305979"><ele>769.0</ele><time>2026-05-03T10:09:55.198Z</time></trkpt><trkpt lat="44.5817733" lon="10.0306768"><ele>768.6666666666666</ele><time>2026-05-03T10:09:56.208Z</time></trkpt><trkpt lat="44.5819473" lon="10.0308264"><ele>768.3333333333333</ele><time>2026-05-03T10:09:57.214Z</time></trkpt><trkpt lat="44.5820792" lon="10.0309968"><ele>768.0</ele><time>2026-05-03T10:09:58.205Z</time></trkpt><trkpt lat="44.58218" lon="10.0311448"><ele>767.25</ele><time>2026-05-03T10:09:59.201Z</time></trkpt><trkpt lat="44.5822846" lon="10.0312672"><ele>766.5</ele><time>2026-05-03T10:10:00.207Z</time></trkpt><trkpt lat="44.5823874" lon="10.031386"><ele>765.75</ele><time>2026-05-03T10:10:01.196Z</time></trkpt><trkpt lat="44.5824949" lon="10.0314985"><ele>765.0</ele><time>2026-05-03T10:10:02.203Z</time></trkpt><trkpt lat="44.5825816" lon="10.031601"><ele>767.0</ele><time>2026-05-03T10:10:03.198Z</time></trkpt><trkpt lat="44.5826735" lon="10.0317457"><ele>769.0</ele><time>2026-05-03T10:10:04.2Z</time></trkpt><trkpt lat="44.5827417" lon="10.0318679"><ele>771.0</ele><time>2026-05-03T10:10:05.202Z</time></trkpt><trkpt lat="44.5828593" lon="10.0319582"><ele>773.0</ele><time>2026-05-03T10:10:06.202Z</time></trkpt><trkpt lat="44.5830079" lon="10.0320414"><ele>773.6666666666667</ele><time>2026-05-03T10:10:07.201Z</time></trkpt><trkpt lat="44.5831573" lon="10.0321175"><ele>774.3333333333333</ele><time>2026-05-03T10:10:08.208Z</time></trkpt><trkpt lat="44.583317" lon="10.0321679"><ele>775.0</ele><time>2026-05-03T10:10:09.202Z</time></trkpt><trkpt lat="44.5834911" lon="10.0322408"><ele>775.0</ele><time>2026-05-03T10:10:10.198Z</time></trkpt><trkpt lat="44.5836675" lon="10.0323427"><ele>775.0</ele><time>2026-05-03T10:10:11.206Z</time></trkpt><trkpt lat="44.5838444" lon="10.0324275"><ele>775.0</ele><time>2026-05-03T10:10:12.202Z</time></trkpt><trkpt lat="44.5839888" lon="10.0325103"><ele>778.75</ele><time>2026-05-03T10:10:13.198Z</time></trkpt><trkpt lat="44.5841454" lon="10.0326135"><ele>782.5</ele><time>2026-05-03T10:10:14.196Z</time></trkpt><trkpt lat="44.5842557" lon="10.0327047"><ele>786.25</ele><time>2026-05-03T10:10:15.198Z</time></trkpt><trkpt lat="44.5843674" lon="10.0328031"><ele>790.0</ele><time>2026-05-03T10:10:16.197Z</time></trkpt><trkpt lat="44.5844831" lon="10.0329292"><ele>789.5</ele><time>2026-05-03T10:10:17.204Z</time></trkpt><trkpt lat="44.5845798" lon="10.033021"><ele>789.0</ele><time>2026-05-03T10:10:18.202Z</time></trkpt><trkpt lat="44.5846881" lon="10.0331473"><ele>788.5</ele><time>2026-05-03T10:10:19.201Z</time></trkpt><trkpt lat="44.584796" lon="10.0332959"><ele>788.0</ele><time>2026-05-03T10:10:20.202Z</time></trkpt><trkpt lat="44.5848919" lon="10.0334415"><ele>790.25</ele><time>2026-05-03T10:10:21.204Z</time></trkpt><trkpt lat="44.5849849" lon="10.0336048"><ele>792.5</ele><time>2026-05-03T10:10:22.197Z</time></trkpt><trkpt lat="44.5850648" lon="10.0337515"><ele>794.75</ele><time>2026-05-03T10:10:23.204Z</time></trkpt><trkpt lat="44.5851715" lon="10.0339023"><ele>797.0</ele><time>2026-05-03T10:10:24.201Z</time></trkpt><trkpt lat="44.5852776" lon="10.0340446"><ele>798.3333333333334</ele><time>2026-05-03T10:10:25.199Z</time></trkpt><trkpt lat="44.58542" lon="10.0341898"><ele>799.6666666666667</ele><time>2026-05-03T10:10:26.199Z</time></trkpt><trkpt lat="44.5855439" lon="10.034289"><ele>801.0</ele><time>2026-05-03T10:10:27.203Z</time></trkpt><trkpt lat="44.5857233" lon="10.0343599"><ele>801.0</ele><time>2026-05-03T10:10:28.207Z</time></trkpt><trkpt lat="44.5859304" lon="10.0343704"><ele>801.0</ele><time>2026-05-03T10:10:29.205Z</time></trkpt><trkpt lat="44.5860946" lon="10.0343868"><ele>801.0</ele><time>2026-05-03T10:10:30.2Z</time></trkpt><trkpt lat="44.5862519" lon="10.0344301"><ele>801.75</ele><time>2026-05-03T10:10:31.202Z</time></trkpt><trkpt lat="44.5863841" lon="10.0344531"><ele>802.5</ele><time>2026-05-03T10:10:32.197Z</time></trkpt><trkpt lat="44.5865124" lon="10.034496"><ele>803.25</ele><time>2026-05-03T10:10:33.198Z</time></trkpt><trkpt lat="44.5866556" lon="10.034553"><ele>804.0</ele><time>2026-05-03T10:10:34.195Z</time></trkpt><trkpt lat="44.5867883" lon="10.0345865"><ele>804.0</ele><time>2026-05-03T10:10:35.195Z</time></trkpt><trkpt lat="44.5869072" lon="10.0346073"><ele>804.0</ele><time>2026-05-03T10:10:36.196Z</time></trkpt><trkpt lat="44.587" lon="10.034649"><ele>804.0</ele><time>2026-05-03T10:10:37.194Z</time></trkpt><trkpt lat="44.5870964" lon="10.0346732"><ele>804.0</ele><time>2026-05-03T10:10:38.199Z</time></trkpt><trkpt lat="44.5871731" lon="10.034718"><ele>804.0</ele><time>2026-05-03T10:10:39.2Z</time></trkpt><trkpt lat="44.5872579" lon="10.0347624"><ele>805.6</ele><time>2026-05-03T10:10:41.202Z</time></trkpt><trkpt lat="44.5873802" lon="10.0347796"><ele>807.2</ele><time>2026-05-03T10:10:43.175Z</time></trkpt><trkpt lat="44.587469" lon="10.03482"><ele>808.8000000000001</ele><time>2026-05-03T10:10:44.196Z</time></trkpt><trkpt lat="44.587562" lon="10.0348616"><ele>810.4000000000001</ele><time>2026-05-03T10:10:45.203Z</time></trkpt><trkpt lat="44.5876352" lon="10.0349109"><ele>812.0</ele><time>2026-05-03T10:10:46.206Z</time></trkpt><trkpt lat="44.5876831" lon="10.0349937"><ele>813.5</ele><time>2026-05-03T10:10:47.205Z</time></trkpt><trkpt lat="44.5877304" lon="10.0351122"><ele>815.0</ele><time>2026-05-03T10:10:48.189Z</time></trkpt><trkpt lat="44.5877548" lon="10.0352806"><ele>816.5</ele><time>2026-05-03T10:10:49.191Z</time></trkpt><trkpt lat="44.5877882" lon="10.035451"><ele>818.0</ele><time>2026-05-03T10:10:50.198Z</time></trkpt><trkpt lat="44.5878218" lon="10.0356562"><ele>825.0</ele><time>2026-05-03T10:10:51.203Z</time></trkpt><trkpt lat="44.5878752" lon="10.0358837"><ele>832.0</ele><time>2026-05-03T10:10:52.198Z</time></trkpt><trkpt lat="44.5879208" lon="10.0361514"><ele>839.0</ele><time>2026-05-03T10:10:53.207Z</time></trkpt><trkpt lat="44.5880273" lon="10.0364925"><ele>841.3333333333334</ele><time>2026-05-03T10:10:54.208Z</time></trkpt><trkpt lat="44.5880251" lon="10.0367435"><ele>843.6666666666667</ele><time>2026-05-03T10:10:55.204Z</time></trkpt><trkpt lat="44.588023" lon="10.0369956"><ele>846.0</ele><time>2026-05-03T10:10:56.197Z</time></trkpt><trkpt lat="44.5879993" lon="10.0372599"><ele>852.5</ele><time>2026-05-03T10:10:57.184Z</time></trkpt><trkpt lat="44.5879266" lon="10.0375607"><ele>859.0</ele><time>2026-05-03T10:10:58.194Z</time></trkpt><trkpt lat="44.5878647" lon="10.0379024"><ele>848.5</ele><time>2026-05-03T10:10:59.198Z</time></trkpt><trkpt lat="44.5877965" lon="10.0382573"><ele>838.0</ele><time>2026-05-03T10:11:00.202Z</time></trkpt><trkpt lat="44.5877428" lon="10.0385403"><ele>838.0</ele><time>2026-05-03T10:11:01.202Z</time></trkpt><trkpt lat="44.5876789" lon="10.0387995"><ele>838.0</ele><time>2026-05-03T10:11:02.201Z</time></trkpt><trkpt lat="44.5876079" lon="10.0390205"><ele>838.0</ele><time>2026-05-03T10:11:03.198Z</time></trkpt><trkpt lat="44.587534" lon="10.0392819"><ele>843.3333333333333</ele><time>2026-05-03T10:11:04.198Z</time></trkpt><trkpt lat="44.5874345" lon="10.0394911"><ele>848.6666666666667</ele><time>2026-05-03T10:11:05.198Z</time></trkpt><trkpt lat="44.5873192" lon="10.0397224"><ele>854.0</ele><time>2026-05-03T10:11:06.199Z</time></trkpt><trkpt lat="44.5871728" lon="10.0399057"><ele>850.3333333333334</ele><time>2026-05-03T10:11:07.202Z</time></trkpt><trkpt lat="44.5870467" lon="10.0400392"><ele>846.6666666666667</ele><time>2026-05-03T10:11:08.199Z</time></trkpt><trkpt lat="44.5869404" lon="10.0401992"><ele>843.0</ele><time>2026-05-03T10:11:09.199Z</time></trkpt><trkpt lat="44.5868625" lon="10.0404081"><ele>843.0</ele><time>2026-05-03T10:11:10.194Z</time></trkpt><trkpt lat="44.5867814" lon="10.0405349"><ele>843.0</ele><time>2026-05-03T10:11:11.2Z</time></trkpt><trkpt lat="44.5867417" lon="10.0407379"><ele>843.0</ele><time>2026-05-03T10:11:12.196Z</time></trkpt><trkpt lat="44.5867058" lon="10.0409188"><ele>843.0</ele><time>2026-05-03T10:11:13.197Z</time></trkpt><trkpt lat="44.5867178" lon="10.0411755"><ele>848.0</ele><time>2026-05-03T10:11:14.21Z</time></trkpt><trkpt lat="44.5867287" lon="10.0413922"><ele>853.0</ele><time>2026-05-03T10:11:15.202Z</time></trkpt><trkpt lat="44.5867513" lon="10.0416296"><ele>858.0</ele><time>2026-05-03T10:11:16.201Z</time></trkpt><trkpt lat="44.586815" lon="10.0418886"><ele>860.0</ele><time>2026-05-03T10:11:17.2Z</time></trkpt><trkpt lat="44.5869627" lon="10.0421914"><ele>862.0</ele><time>2026-05-03T10:11:18.203Z</time></trkpt><trkpt lat="44.5870756" lon="10.0424631"><ele>877.3333333333333</ele><time>2026-05-03T10:11:19.202Z</time></trkpt><trkpt lat="44.5871393" lon="10.0427569"><ele>892.6666666666667</ele><time>2026-05-03T10:11:20.2Z</time></trkpt><trkpt lat="44.5871608" lon="10.043031"><ele>908.0</ele><time>2026-05-03T10:11:21.2Z</time></trkpt><trkpt lat="44.5870894" lon="10.0433"><ele>908.3333333333334</ele><time>2026-05-03T10:11:22.207Z</time></trkpt><trkpt lat="44.5870703" lon="10.0436099"><ele>908.6666666666667</ele><time>2026-05-03T10:11:23.203Z</time></trkpt><trkpt lat="44.5870995" lon="10.0439227"><ele>909.0</ele><time>2026-05-03T10:11:24.204Z</time></trkpt><trkpt lat="44.5871346" lon="10.0442475"><ele>911.0</ele><time>2026-05-03T10:11:25.201Z</time></trkpt><trkpt lat="44.5871" lon="10.0445623"><ele>913.0</ele><time>2026-05-03T10:11:26.204Z</time></trkpt><trkpt lat="44.587027" lon="10.044875"><ele>891.5</ele><time>2026-05-03T10:11:27.201Z</time></trkpt><trkpt lat="44.5869569" lon="10.0451698"><ele>870.0</ele><time>2026-05-03T10:11:28.204Z</time></trkpt><trkpt lat="44.5867948" lon="10.0454673"><ele>870.0</ele><time>2026-05-03T10:11:29.197Z</time></trkpt><trkpt lat="44.5866056" lon="10.0457334"><ele>870.0</ele><time>2026-05-03T10:11:30.201Z</time></trkpt><trkpt lat="44.5864534" lon="10.0460268"><ele>878.0</ele><time>2026-05-03T10:11:31.197Z</time></trkpt><trkpt lat="44.5863346" lon="10.0463481"><ele>886.0</ele><time>2026-05-03T10:11:32.198Z</time></trkpt><trkpt lat="44.5862302" lon="10.0466474"><ele>873.6666666666666</ele><time>2026-05-03T10:11:33.199Z</time></trkpt><trkpt lat="44.5861226" lon="10.0468849"><ele>861.3333333333333</ele><time>2026-05-03T10:11:34.196Z</time></trkpt><trkpt lat="44.5861021" lon="10.0471474"><ele>849.0</ele><time>2026-05-03T10:11:35.203Z</time></trkpt><trkpt lat="44.586163" lon="10.047278"><ele>859.75</ele><time>2026-05-03T10:11:36.2Z</time></trkpt><trkpt lat="44.5862682" lon="10.0473494"><ele>870.5</ele><time>2026-05-03T10:11:37.208Z</time></trkpt><trkpt lat="44.586375" lon="10.0472793"><ele>881.25</ele><time>2026-05-03T10:11:38.199Z</time></trkpt><trkpt lat="44.5865178" lon="10.0472225"><ele>892.0</ele><time>2026-05-03T10:11:39.201Z</time></trkpt><trkpt lat="44.5867488" lon="10.0472151"><ele>892.0</ele><time>2026-05-03T10:11:40.197Z</time></trkpt><trkpt lat="44.5869641" lon="10.0472252"><ele>892.0</ele><time>2026-05-03T10:11:41.202Z</time></trkpt><trkpt lat="44.587207" lon="10.0472345"><ele>898.3333333333333</ele><time>2026-05-03T10:11:42.2Z</time></trkpt><trkpt lat="44.5874302" lon="10.0472928"><ele>904.6666666666667</ele><time>2026-05-03T10:11:43.202Z</time></trkpt><trkpt lat="44.5875744" lon="10.0473482"><ele>911.0</ele><time>2026-05-03T10:11:44.203Z</time></trkpt><trkpt lat="44.5876974" lon="10.0474239"><ele>910.6666666666667</ele><time>2026-05-03T10:11:45.205Z</time></trkpt><trkpt lat="44.5878517" lon="10.0475659"><ele>910.3333333333333</ele><time>2026-05-03T10:11:46.201Z</time></trkpt><trkpt lat="44.5879311" lon="10.0477296"><ele>910.0</ele><time>2026-05-03T10:11:47.201Z</time></trkpt><trkpt lat="44.5879183" lon="10.0479834"><ele>905.3333333333333</ele><time>2026-05-03T10:11:48.202Z</time></trkpt><trkpt lat="44.5877814" lon="10.0482159"><ele>900.6666666666667</ele><time>2026-05-03T10:11:49.201Z</time></trkpt><trkpt lat="44.587645" lon="10.0484095"><ele>896.0</ele><time>2026-05-03T10:11:50.192Z</time></trkpt><trkpt lat="44.5875205" lon="10.0486337"><ele>896.0</ele><time>2026-05-03T10:11:51.198Z</time></trkpt><trkpt lat="44.5874667" lon="10.0488345"><ele>896.0</ele><time>2026-05-03T10:11:52.205Z</time></trkpt><trkpt lat="44.5874929" lon="10.0490232"><ele>896.0</ele><time>2026-05-03T10:11:53.185Z</time></trkpt><trkpt lat="44.5876051" lon="10.0491325"><ele>896.0</ele><time>2026-05-03T10:11:54.164Z</time></trkpt><trkpt lat="44.5878117" lon="10.0491095"><ele>904.5</ele><time>2026-05-03T10:11:55.192Z</time></trkpt><trkpt lat="44.5880615" lon="10.0490976"><ele>913.0</ele><time>2026-05-03T10:11:56.182Z</time></trkpt><trkpt lat="44.588284" lon="10.0490982"><ele>911.6666666666666</ele><time>2026-05-03T10:11:57.189Z</time></trkpt><trkpt lat="44.5884806" lon="10.04915"><ele>910.3333333333333</ele><time>2026-05-03T10:11:58.2Z</time></trkpt><trkpt lat="44.5886735" lon="10.0493005"><ele>909.0</ele><time>2026-05-03T10:11:59.204Z</time></trkpt><trkpt lat="44.5888509" lon="10.0494431"><ele>918.5</ele><time>2026-05-03T10:12:00.2Z</time></trkpt><trkpt lat="44.589051" lon="10.0496029"><ele>928.0</ele><time>2026-05-03T10:12:01.2Z</time></trkpt><trkpt lat="44.5892453" lon="10.0498468"><ele>923.3333333333333</ele><time>2026-05-03T10:12:02.196Z</time></trkpt><trkpt lat="44.5893728" lon="10.0500956"><ele>918.6666666666667</ele><time>2026-05-03T10:12:03.205Z</time></trkpt><trkpt lat="44.589463" lon="10.0503745"><ele>914.0</ele><time>2026-05-03T10:12:04.193Z</time></trkpt><trkpt lat="44.5894998" lon="10.0506986"><ele>924.5</ele><time>2026-05-03T10:12:05.196Z</time></trkpt><trkpt lat="44.5895107" lon="10.0510632"><ele>935.0</ele><time>2026-05-03T10:12:06.197Z</time></trkpt><trkpt lat="44.5895237" lon="10.0514896"><ele>915.0</ele><time>2026-05-03T10:12:07.205Z</time></trkpt><trkpt lat="44.5895008" lon="10.0518564"><ele>895.0</ele><time>2026-05-03T10:12:08.201Z</time></trkpt><trkpt lat="44.5895034" lon="10.0521991"><ele>912.0</ele><time>2026-05-03T10:12:09.2Z</time></trkpt><trkpt lat="44.5895229" lon="10.0525575"><ele>929.0</ele><time>2026-05-03T10:12:10.199Z</time></trkpt><trkpt lat="44.5895218" lon="10.0529055"><ele>929.0</ele><time>2026-05-03T10:12:11.204Z</time></trkpt><trkpt lat="44.5895152" lon="10.0531738"><ele>929.0</ele><time>2026-05-03T10:12:12.202Z</time></trkpt><trkpt lat="44.5895726" lon="10.0534075"><ele>929.0</ele><time>2026-05-03T10:12:13.202Z</time></trkpt><trkpt lat="44.5896989" lon="10.0536307"><ele>926.0</ele><time>2026-05-03T10:12:14.197Z</time></trkpt><trkpt lat="44.5898291" lon="10.053837"><ele>923.0</ele><time>2026-05-03T10:12:15.204Z</time></trkpt><trkpt lat="44.5900332" lon="10.0540628"><ele>921.0</ele><time>2026-05-03T10:12:16.207Z</time></trkpt><trkpt lat="44.5901672" lon="10.0542262"><ele>919.0</ele><time>2026-05-03T10:12:17.208Z</time></trkpt><trkpt lat="44.5903098" lon="10.0543544"><ele>917.0</ele><time>2026-05-03T10:12:18.207Z</time></trkpt><trkpt lat="44.5904313" lon="10.0544807"><ele>917.0</ele><time>2026-05-03T10:12:19.203Z</time></trkpt><trkpt lat="44.5905512" lon="10.054573"><ele>917.0</ele><time>2026-05-03T10:12:20.201Z</time></trkpt><trkpt lat="44.5907026" lon="10.0545919"><ele>917.0</ele><time>2026-05-03T10:12:21.205Z</time></trkpt><trkpt lat="44.5908558" lon="10.054666"><ele>917.0</ele><time>2026-05-03T10:12:22.197Z</time></trkpt><trkpt lat="44.5909718" lon="10.0547059"><ele>917.0</ele><time>2026-05-03T10:12:23.205Z</time></trkpt><trkpt lat="44.5910884" lon="10.054891"><ele>917.0</ele><time>2026-05-03T10:12:24.203Z</time></trkpt><trkpt lat="44.5911293" lon="10.0550651"><ele>917.0</ele><time>2026-05-03T10:12:25.205Z</time></trkpt><trkpt lat="44.5912008" lon="10.0551962"><ele>916.0</ele><time>2026-05-03T10:12:26.203Z</time></trkpt><trkpt lat="44.5912837" lon="10.055341"><ele>915.0</ele><time>2026-05-03T10:12:27.201Z</time></trkpt><trkpt lat="44.5914313" lon="10.0554695"><ele>914.0</ele><time>2026-05-03T10:12:28.203Z</time></trkpt><trkpt lat="44.5915687" lon="10.055476"><ele>913.0</ele><time>2026-05-03T10:12:29.196Z</time></trkpt><trkpt lat="44.5917507" lon="10.0554498"><ele>913.0</ele><time>2026-05-03T10:12:30.204Z</time></trkpt><trkpt lat="44.5919846" lon="10.0553396"><ele>913.0</ele><time>2026-05-03T10:12:31.203Z</time></trkpt><trkpt lat="44.5921841" lon="10.0552973"><ele>913.0</ele><time>2026-05-03T10:12:32.196Z</time></trkpt><trkpt lat="44.5923736" lon="10.0553113"><ele>911.6666666666666</ele><time>2026-05-03T10:12:33.21Z</time></trkpt><trkpt lat="44.5924976" lon="10.0554751"><ele>910.3333333333333</ele><time>2026-05-03T10:12:34.207Z</time></trkpt><trkpt lat="44.5926631" lon="10.0556653"><ele>909.0</ele><time>2026-05-03T10:12:35.215Z</time></trkpt><trkpt lat="44.5928088" lon="10.0558639"><ele>904.0</ele><time>2026-05-03T10:12:36.205Z</time></trkpt><trkpt lat="44.5929209" lon="10.0560722"><ele>899.0</ele><time>2026-05-03T10:12:37.209Z</time></trkpt><trkpt lat="44.5930275" lon="10.0563058"><ele>894.0</ele><time>2026-05-03T10:12:38.21Z</time></trkpt><trkpt lat="44.5931126" lon="10.056595"><ele>892.6666666666667</ele><time>2026-05-03T10:12:39.211Z</time></trkpt><trkpt lat="44.593157" lon="10.0568566"><ele>891.3333333333334</ele><time>2026-05-03T10:12:40.215Z</time></trkpt><trkpt lat="44.5932231" lon="10.057137"><ele>890.0</ele><time>2026-05-03T10:12:41.214Z</time></trkpt><trkpt lat="44.5932789" lon="10.0574795"><ele>887.0</ele><time>2026-05-03T10:12:42.213Z</time></trkpt><trkpt lat="44.5933718" lon="10.0577214"><ele>884.0</ele><time>2026-05-03T10:12:43.208Z</time></trkpt><trkpt lat="44.5934852" lon="10.05799"><ele>881.0</ele><time>2026-05-03T10:12:44.213Z</time></trkpt><trkpt lat="44.5936117" lon="10.058157"><ele>880.0</ele><time>2026-05-03T10:12:45.213Z</time></trkpt><trkpt lat="44.593748" lon="10.0583513"><ele>879.0</ele><time>2026-05-03T10:12:46.211Z</time></trkpt><trkpt lat="44.5938329" lon="10.0585103"><ele>878.0</ele><time>2026-05-03T10:12:47.218Z</time></trkpt><trkpt lat="44.593978" lon="10.0586523"><ele>878.0</ele><time>2026-05-03T10:12:48.218Z</time></trkpt><trkpt lat="44.5941182" lon="10.0587514"><ele>878.0</ele><time>2026-05-03T10:12:49.206Z</time></trkpt><trkpt lat="44.5942202" lon="10.0589144"><ele>878.0</ele><time>2026-05-03T10:12:50.208Z</time></trkpt><trkpt lat="44.5942944" lon="10.0590773"><ele>878.0</ele><time>2026-05-03T10:12:51.207Z</time></trkpt><trkpt lat="44.5943668" lon="10.0592881"><ele>877.5</ele><time>2026-05-03T10:12:52.204Z</time></trkpt><trkpt lat="44.5944343" lon="10.0596063"><ele>877.0</ele><time>2026-05-03T10:12:53.204Z</time></trkpt><trkpt lat="44.5944723" lon="10.0599588"><ele>881.0</ele><time>2026-05-03T10:12:54.204Z</time></trkpt><trkpt lat="44.5945347" lon="10.0602891"><ele>885.0</ele><time>2026-05-03T10:12:55.201Z</time></trkpt><trkpt lat="44.5945862" lon="10.0605916"><ele>887.0</ele><time>2026-05-03T10:12:56.198Z</time></trkpt><trkpt lat="44.5946322" lon="10.0608445"><ele>889.0</ele><time>2026-05-03T10:12:57.193Z</time></trkpt><trkpt lat="44.5946837" lon="10.0610842"><ele>891.0</ele><time>2026-05-03T10:12:58.206Z</time></trkpt><trkpt lat="44.5947815" lon="10.0613051"><ele>891.0</ele><time>2026-05-03T10:12:59.201Z</time></trkpt><trkpt lat="44.5948891" lon="10.0615312"><ele>891.0</ele><time>2026-05-03T10:13:00.204Z</time></trkpt><trkpt lat="44.5949605" lon="10.0617377"><ele>891.0</ele><time>2026-05-03T10:13:01.208Z</time></trkpt><trkpt lat="44.5950917" lon="10.0619064"><ele>891.0</ele><time>2026-05-03T10:13:02.202Z</time></trkpt><trkpt lat="44.5952202" lon="10.0620511"><ele>891.0</ele><time>2026-05-03T10:13:03.203Z</time></trkpt><trkpt lat="44.5953507" lon="10.0622249"><ele>891.0</ele><time>2026-05-03T10:13:04.211Z</time></trkpt><trkpt lat="44.595497" lon="10.0624039"><ele>893.0</ele><time>2026-05-03T10:13:05.204Z</time></trkpt><trkpt lat="44.5956358" lon="10.0625789"><ele>895.0</ele><time>2026-05-03T10:13:06.205Z</time></trkpt><trkpt lat="44.5957098" lon="10.062738"><ele>897.0</ele><time>2026-05-03T10:13:07.205Z</time></trkpt><trkpt lat="44.5957803" lon="10.0629485"><ele>897.0</ele><time>2026-05-03T10:13:08.204Z</time></trkpt><trkpt lat="44.595793" lon="10.0631311"><ele>897.0</ele><time>2026-05-03T10:13:09.196Z</time></trkpt><trkpt lat="44.5957777" lon="10.0633696"><ele>897.0</ele><time>2026-05-03T10:13:10.2Z</time></trkpt><trkpt lat="44.5957506" lon="10.0635942"><ele>893.3333333333333</ele><time>2026-05-03T10:13:11.2Z</time></trkpt><trkpt lat="44.5956946" lon="10.0638165"><ele>889.6666666666666</ele><time>2026-05-03T10:13:12.202Z</time></trkpt><trkpt lat="44.5956666" lon="10.0641208"><ele>886.0</ele><time>2026-05-03T10:13:13.197Z</time></trkpt><trkpt lat="44.5956439" lon="10.0643783"><ele>885.0</ele><time>2026-05-03T10:13:14.196Z</time></trkpt><trkpt lat="44.5956351" lon="10.0646461"><ele>884.0</ele><time>2026-05-03T10:13:15.196Z</time></trkpt><trkpt lat="44.5956171" lon="10.0649348"><ele>883.0</ele><time>2026-05-03T10:13:16.201Z</time></trkpt><trkpt lat="44.5956661" lon="10.065225"><ele>881.3333333333333</ele><time>2026-05-03T10:13:17.203Z</time></trkpt><trkpt lat="44.5957141" lon="10.0655146"><ele>879.6666666666667</ele><time>2026-05-03T10:13:18.208Z</time></trkpt><trkpt lat="44.5957286" lon="10.0658016"><ele>878.0</ele><time>2026-05-03T10:13:19.202Z</time></trkpt><trkpt lat="44.5957172" lon="10.0661077"><ele>874.6666666666667</ele><time>2026-05-03T10:13:20.201Z</time></trkpt><trkpt lat="44.5957289" lon="10.0664073"><ele>871.3333333333333</ele><time>2026-05-03T10:13:21.195Z</time></trkpt><trkpt lat="44.5957358" lon="10.0667116"><ele>868.0</ele><time>2026-05-03T10:13:22.196Z</time></trkpt><trkpt lat="44.595761" lon="10.0670061"><ele>865.6666666666666</ele><time>2026-05-03T10:13:23.191Z</time></trkpt><trkpt lat="44.5957948" lon="10.067269"><ele>863.3333333333333</ele><time>2026-05-03T10:13:24.2Z</time></trkpt><trkpt lat="44.5958341" lon="10.0675173"><ele>861.0</ele><time>2026-05-03T10:13:25.196Z</time></trkpt><trkpt lat="44.5959131" lon="10.0677822"><ele>863.3333333333333</ele><time>2026-05-03T10:13:26.199Z</time></trkpt><trkpt lat="44.5960093" lon="10.0680133"><ele>865.6666666666666</ele><time>2026-05-03T10:13:27.199Z</time></trkpt><trkpt lat="44.5961097" lon="10.0682189"><ele>868.0</ele><time>2026-05-03T10:13:28.206Z</time></trkpt><trkpt lat="44.59623" lon="10.06839"><ele>868.0</ele><time>2026-05-03T10:13:29.197Z</time></trkpt><trkpt lat="44.5963392" lon="10.0685857"><ele>868.0</ele><time>2026-05-03T10:13:30.204Z</time></trkpt><trkpt lat="44.5964018" lon="10.0687897"><ele>868.0</ele><time>2026-05-03T10:13:31.203Z</time></trkpt><trkpt lat="44.5964428" lon="10.0689986"><ele>866.0</ele><time>2026-05-03T10:13:32.201Z</time></trkpt><trkpt lat="44.5964645" lon="10.0691836"><ele>864.0</ele><time>2026-05-03T10:13:33.198Z</time></trkpt><trkpt lat="44.5964812" lon="10.0693452"><ele>862.0</ele><time>2026-05-03T10:13:34.202Z</time></trkpt><trkpt lat="44.5964866" lon="10.0695087"><ele>860.0</ele><time>2026-05-03T10:13:35.203Z</time></trkpt><trkpt lat="44.5964745" lon="10.0696534"><ele>860.0</ele><time>2026-05-03T10:13:36.206Z</time></trkpt><trkpt lat="44.5965249" lon="10.0697849"><ele>860.0</ele><time>2026-05-03T10:13:37.202Z</time></trkpt><trkpt lat="44.5966292" lon="10.0699155"><ele>860.0</ele><time>2026-05-03T10:13:38.205Z</time></trkpt><trkpt lat="44.5967578" lon="10.070045"><ele>860.0</ele><time>2026-05-03T10:13:39.207Z</time></trkpt><trkpt lat="44.5969122" lon="10.0700678"><ele>853.6666666666667</ele><time>2026-05-03T10:13:40.207Z</time></trkpt><trkpt lat="44.5970916" lon="10.0700601"><ele>847.3333333333333</ele><time>2026-05-03T10:13:41.194Z</time></trkpt><trkpt lat="44.5973281" lon="10.0700566"><ele>841.0</ele><time>2026-05-03T10:13:42.192Z</time></trkpt><trkpt lat="44.5976327" lon="10.0700387"><ele>834.0</ele><time>2026-05-03T10:13:43.207Z</time></trkpt><trkpt lat="44.597928" lon="10.0699947"><ele>827.0</ele><time>2026-05-03T10:13:44.192Z</time></trkpt><trkpt lat="44.5981977" lon="10.070002"><ele>827.0</ele><time>2026-05-03T10:13:45.196Z</time></trkpt><trkpt lat="44.598396" lon="10.0700962"><ele>827.0</ele><time>2026-05-03T10:13:46.206Z</time></trkpt><trkpt lat="44.598601" lon="10.070184"><ele>827.0</ele><time>2026-05-03T10:13:47.211Z</time></trkpt><trkpt lat="44.5987935" lon="10.0703051"><ele>822.3333333333334</ele><time>2026-05-03T10:13:48.207Z</time></trkpt><trkpt lat="44.5989633" lon="10.0703852"><ele>817.6666666666667</ele><time>2026-05-03T10:13:49.21Z</time></trkpt><trkpt lat="44.5991412" lon="10.0703848"><ele>813.0</ele><time>2026-05-03T10:13:50.199Z</time></trkpt><trkpt lat="44.5992922" lon="10.0703544"><ele>813.0</ele><time>2026-05-03T10:13:51.2Z</time></trkpt><trkpt lat="44.5994499" lon="10.0702342"><ele>813.0</ele><time>2026-05-03T10:13:52.2Z</time></trkpt><trkpt lat="44.5996075" lon="10.0701788"><ele>813.0</ele><time>2026-05-03T10:13:53.193Z</time></trkpt><trkpt lat="44.5997663" lon="10.0701784"><ele>809.0</ele><time>2026-05-03T10:13:54.199Z</time></trkpt><trkpt lat="44.5999199" lon="10.0702755"><ele>805.0</ele><time>2026-05-03T10:13:55.199Z</time></trkpt><trkpt lat="44.6000748" lon="10.0704408"><ele>801.0</ele><time>2026-05-03T10:13:56.2Z</time></trkpt><trkpt lat="44.6002148" lon="10.0706375"><ele>798.6666666666667</ele><time>2026-05-03T10:13:57.205Z</time></trkpt><trkpt lat="44.6003139" lon="10.0708251"><ele>796.3333333333334</ele><time>2026-05-03T10:13:58.209Z</time></trkpt><trkpt lat="44.6004102" lon="10.0710583"><ele>794.0</ele><time>2026-05-03T10:13:59.209Z</time></trkpt><trkpt lat="44.6004787" lon="10.0712714"><ele>794.0</ele><time>2026-05-03T10:14:00.209Z</time></trkpt><trkpt lat="44.6005571" lon="10.0715082"><ele>794.0</ele><time>2026-05-03T10:14:01.209Z</time></trkpt><trkpt lat="44.6006215" lon="10.0717098"><ele>794.0</ele><time>2026-05-03T10:14:02.21Z</time></trkpt><trkpt lat="44.6006779" lon="10.07185"><ele>793.0</ele><time>2026-05-03T10:14:03.206Z</time></trkpt><trkpt lat="44.6007713" lon="10.0719658"><ele>792.0</ele><time>2026-05-03T10:14:04.209Z</time></trkpt><trkpt lat="44.6009384" lon="10.0720758"><ele>791.0</ele><time>2026-05-03T10:14:05.213Z</time></trkpt><trkpt lat="44.6010772" lon="10.0720988"><ele>790.0</ele><time>2026-05-03T10:14:06.211Z</time></trkpt><trkpt lat="44.6012278" lon="10.0720267"><ele>790.0</ele><time>2026-05-03T10:14:07.211Z</time></trkpt><trkpt lat="44.601383" lon="10.0719364"><ele>790.0</ele><time>2026-05-03T10:14:08.208Z</time></trkpt><trkpt lat="44.6015703" lon="10.0717709"><ele>790.0</ele><time>2026-05-03T10:14:09.207Z</time></trkpt><trkpt lat="44.6017802" lon="10.0715114"><ele>789.0</ele><time>2026-05-03T10:14:10.202Z</time></trkpt><trkpt lat="44.601991" lon="10.071255"><ele>788.0</ele><time>2026-05-03T10:14:11.202Z</time></trkpt><trkpt lat="44.6021621" lon="10.0710487"><ele>787.6666666666667</ele><time>2026-05-03T10:14:12.197Z</time></trkpt><trkpt lat="44.6022635" lon="10.0708675"><ele>787.3333333333333</ele><time>2026-05-03T10:14:13.2Z</time></trkpt><trkpt lat="44.6023995" lon="10.070725"><ele>787.0</ele><time>2026-05-03T10:14:14.199Z</time></trkpt><trkpt lat="44.6025216" lon="10.0706587"><ele>787.0</ele><time>2026-05-03T10:14:15.199Z</time></trkpt><trkpt lat="44.6026921" lon="10.0707083"><ele>787.0</ele><time>2026-05-03T10:14:16.195Z</time></trkpt><trkpt lat="44.60282" lon="10.0708512"><ele>787.0</ele><time>2026-05-03T10:14:17.205Z</time></trkpt><trkpt lat="44.6029453" lon="10.0710833"><ele>783.0</ele><time>2026-05-03T10:14:18.194Z</time></trkpt><trkpt lat="44.6030744" lon="10.071381"><ele>779.0</ele><time>2026-05-03T10:14:19.203Z</time></trkpt><trkpt lat="44.6031668" lon="10.071629"><ele>775.0</ele><time>2026-05-03T10:14:20.2Z</time></trkpt><trkpt lat="44.6032212" lon="10.0718888"><ele>775.0</ele><time>2026-05-03T10:14:21.197Z</time></trkpt><trkpt lat="44.6032838" lon="10.0720693"><ele>775.0</ele><time>2026-05-03T10:14:22.206Z</time></trkpt><trkpt lat="44.6033625" lon="10.0722193"><ele>775.0</ele><time>2026-05-03T10:14:23.204Z</time></trkpt><trkpt lat="44.6034905" lon="10.0723165"><ele>775.0</ele><time>2026-05-03T10:14:24.2Z</time></trkpt><trkpt lat="44.6036103" lon="10.0723451"><ele>775.5</ele><time>2026-05-03T10:14:25.201Z</time></trkpt><trkpt lat="44.6038853" lon="10.0724342"><ele>776.0</ele><time>2026-05-03T10:14:26.201Z</time></trkpt><trkpt lat="44.6041632" lon="10.0725288"><ele>776.0</ele><time>2026-05-03T10:14:27.204Z</time></trkpt><trkpt lat="44.6044129" lon="10.072635"><ele>776.0</ele><time>2026-05-03T10:14:28.207Z</time></trkpt><trkpt lat="44.6046323" lon="10.0726969"><ele>774.5</ele><time>2026-05-03T10:14:29.202Z</time></trkpt><trkpt lat="44.6048386" lon="10.0726612"><ele>773.0</ele><time>2026-05-03T10:14:30.201Z</time></trkpt><trkpt lat="44.6050673" lon="10.0725462"><ele>771.0</ele><time>2026-05-03T10:14:31.2Z</time></trkpt><trkpt lat="44.6052673" lon="10.0724048"><ele>769.0</ele><time>2026-05-03T10:14:32.203Z</time></trkpt><trkpt lat="44.6055024" lon="10.072286"><ele>769.0</ele><time>2026-05-03T10:14:33.201Z</time></trkpt><trkpt lat="44.6057222" lon="10.0721582"><ele>769.0</ele><time>2026-05-03T10:14:34.2Z</time></trkpt><trkpt lat="44.6059119" lon="10.0720616"><ele>769.0</ele><time>2026-05-03T10:14:35.196Z</time></trkpt><trkpt lat="44.606073" lon="10.0719598"><ele>768.6666666666666</ele><time>2026-05-03T10:14:36.197Z</time></trkpt><trkpt lat="44.6062058" lon="10.0719431"><ele>768.3333333333333</ele><time>2026-05-03T10:14:37.197Z</time></trkpt><trkpt lat="44.6063805" lon="10.0719686"><ele>768.0</ele><time>2026-05-03T10:14:38.195Z</time></trkpt><trkpt lat="44.6065853" lon="10.0720359"><ele>768.0</ele><time>2026-05-03T10:14:39.197Z</time></trkpt><trkpt lat="44.6068148" lon="10.0720613"><ele>768.0</ele><time>2026-05-03T10:14:40.2Z</time></trkpt><trkpt lat="44.6070497" lon="10.0720792"><ele>771.6666666666667</ele><time>2026-05-03T10:14:41.199Z</time></trkpt><trkpt lat="44.6072639" lon="10.0720522"><ele>775.3333333333334</ele><time>2026-05-03T10:14:42.198Z</time></trkpt><trkpt lat="44.60745" lon="10.0720291"><ele>779.0</ele><time>2026-05-03T10:14:43.197Z</time></trkpt><trkpt lat="44.607571" lon="10.0720082"><ele>779.0</ele><time>2026-05-03T10:14:44.198Z</time></trkpt><trkpt lat="44.6076696" lon="10.0719522"><ele>779.0</ele><time>2026-05-03T10:14:45.196Z</time></trkpt><trkpt lat="44.6078032" lon="10.0717533"><ele>779.0</ele><time>2026-05-03T10:14:46.197Z</time></trkpt><trkpt lat="44.6079626" lon="10.0715446"><ele>777.0</ele><time>2026-05-03T10:14:47.194Z</time></trkpt><trkpt lat="44.6081396" lon="10.0713848"><ele>775.0</ele><time>2026-05-03T10:14:48.195Z</time></trkpt><trkpt lat="44.6083404" lon="10.0713168"><ele>773.0</ele><time>2026-05-03T10:14:49.197Z</time></trkpt><trkpt lat="44.6085676" lon="10.0713098"><ele>773.0</ele><time>2026-05-03T10:14:50.199Z</time></trkpt><trkpt lat="44.6088188" lon="10.0713409"><ele>773.0</ele><time>2026-05-03T10:14:51.198Z</time></trkpt><trkpt lat="44.6090774" lon="10.0714189"><ele>773.0</ele><time>2026-05-03T10:14:52.196Z</time></trkpt><trkpt lat="44.6093412" lon="10.0715283"><ele>773.0</ele><time>2026-05-03T10:14:53.196Z</time></trkpt><trkpt lat="44.6096224" lon="10.0716579"><ele>780.0</ele><time>2026-05-03T10:14:54.196Z</time></trkpt><trkpt lat="44.609905" lon="10.0717767"><ele>787.0</ele><time>2026-05-03T10:14:55.197Z</time></trkpt><trkpt lat="44.6101725" lon="10.0718897"><ele>788.3333333333333</ele><time>2026-05-03T10:14:56.192Z</time></trkpt><trkpt lat="44.6104087" lon="10.0720194"><ele>789.6666666666667</ele><time>2026-05-03T10:14:57.195Z</time></trkpt><trkpt lat="44.6105992" lon="10.0720314"><ele>791.0</ele><time>2026-05-03T10:14:58.198Z</time></trkpt><trkpt lat="44.6107757" lon="10.0720377"><ele>791.0</ele><time>2026-05-03T10:14:59.195Z</time></trkpt><trkpt lat="44.6109275" lon="10.0719316"><ele>791.0</ele><time>2026-05-03T10:15:00.199Z</time></trkpt><trkpt lat="44.6110634" lon="10.0718414"><ele>791.0</ele><time>2026-05-03T10:15:01.194Z</time></trkpt><trkpt lat="44.6111527" lon="10.0716351"><ele>790.3333333333334</ele><time>2026-05-03T10:15:02.196Z</time></trkpt><trkpt lat="44.611206" lon="10.0713749"><ele>789.6666666666667</ele><time>2026-05-03T10:15:03.196Z</time></trkpt><trkpt lat="44.6112521" lon="10.0710754"><ele>789.0</ele><time>2026-05-03T10:15:04.193Z</time></trkpt><trkpt lat="44.6112567" lon="10.0707101"><ele>789.0</ele><time>2026-05-03T10:15:05.195Z</time></trkpt><trkpt lat="44.6112563" lon="10.070397"><ele>789.0</ele><time>2026-05-03T10:15:06.193Z</time></trkpt><trkpt lat="44.6113015" lon="10.0701672"><ele>789.0</ele><time>2026-05-03T10:15:07.192Z</time></trkpt><trkpt lat="44.6114247" lon="10.0700292"><ele>789.0</ele><time>2026-05-03T10:15:08.187Z</time></trkpt><trkpt lat="44.6115607" lon="10.0699072"><ele>789.0</ele><time>2026-05-03T10:15:09.188Z</time></trkpt><trkpt lat="44.6117378" lon="10.0699"><ele>789.0</ele><time>2026-05-03T10:15:10.163Z</time></trkpt><trkpt lat="44.6119409" lon="10.0699906"><ele>787.0</ele><time>2026-05-03T10:15:11.153Z</time></trkpt><trkpt lat="44.6121166" lon="10.0701212"><ele>785.0</ele><time>2026-05-03T10:15:12.184Z</time></trkpt><trkpt lat="44.6123172" lon="10.0702415"><ele>783.0</ele><time>2026-05-03T10:15:13.196Z</time></trkpt><trkpt lat="44.6125721" lon="10.0703039"><ele>783.0</ele><time>2026-05-03T10:15:14.179Z</time></trkpt><trkpt lat="44.6128017" lon="10.070291"><ele>783.0</ele><time>2026-05-03T10:15:15.186Z</time></trkpt><trkpt lat="44.6130423" lon="10.0702858"><ele>782.6666666666667</ele><time>2026-05-03T10:15:16.197Z</time></trkpt><trkpt lat="44.6132643" lon="10.0702389"><ele>782.3333333333334</ele><time>2026-05-03T10:15:17.199Z</time></trkpt><trkpt lat="44.6134236" lon="10.0701228"><ele>782.0</ele><time>2026-05-03T10:15:18.196Z</time></trkpt><trkpt lat="44.6136016" lon="10.0699552"><ele>777.0</ele><time>2026-05-03T10:15:19.198Z</time></trkpt><trkpt lat="44.6137728" lon="10.0697177"><ele>772.0</ele><time>2026-05-03T10:15:20.199Z</time></trkpt><trkpt lat="44.6139022" lon="10.0694565"><ele>772.0</ele><time>2026-05-03T10:15:21.197Z</time></trkpt><trkpt lat="44.6140413" lon="10.0691799"><ele>772.0</ele><time>2026-05-03T10:15:22.199Z</time></trkpt><trkpt lat="44.614187" lon="10.0689071"><ele>765.5</ele><time>2026-05-03T10:15:23.192Z</time></trkpt><trkpt lat="44.614307" lon="10.0686269"><ele>759.0</ele><time>2026-05-03T10:15:24.193Z</time></trkpt><trkpt lat="44.6144519" lon="10.0683994"><ele>759.0</ele><time>2026-05-03T10:15:25.192Z</time></trkpt><trkpt lat="44.6145886" lon="10.0682311"><ele>759.0</ele><time>2026-05-03T10:15:26.192Z</time></trkpt><trkpt lat="44.6146825" lon="10.0680452"><ele>759.0</ele><time>2026-05-03T10:15:27.192Z</time></trkpt><trkpt lat="44.6147594" lon="10.0678833"><ele>759.0</ele><time>2026-05-03T10:15:28.196Z</time></trkpt><trkpt lat="44.6147234" lon="10.0676889"><ele>759.0</ele><time>2026-05-03T10:15:29.193Z</time></trkpt><trkpt lat="44.6146936" lon="10.0674713"><ele>759.0</ele><time>2026-05-03T10:15:30.194Z</time></trkpt><trkpt lat="44.6146652" lon="10.067249"><ele>755.6666666666666</ele><time>2026-05-03T10:15:31.193Z</time></trkpt><trkpt lat="44.6146188" lon="10.0670615"><ele>752.3333333333333</ele><time>2026-05-03T10:15:32.192Z</time></trkpt><trkpt lat="44.6146945" lon="10.066877"><ele>749.0</ele><time>2026-05-03T10:15:33.176Z</time></trkpt><trkpt lat="44.6148119" lon="10.066695"><ele>745.6666666666666</ele><time>2026-05-03T10:15:34.188Z</time></trkpt><trkpt lat="44.6149381" lon="10.0664947"><ele>742.3333333333334</ele><time>2026-05-03T10:15:35.179Z</time></trkpt><trkpt lat="44.6150618" lon="10.0663013"><ele>739.0</ele><time>2026-05-03T10:15:36.185Z</time></trkpt><trkpt lat="44.6152004" lon="10.0661486"><ele>739.3333333333334</ele><time>2026-05-03T10:15:37.176Z</time></trkpt><trkpt lat="44.6153641" lon="10.0660543"><ele>739.6666666666666</ele><time>2026-05-03T10:15:38.183Z</time></trkpt><trkpt lat="44.6155726" lon="10.0660609"><ele>740.0</ele><time>2026-05-03T10:15:39.192Z</time></trkpt><trkpt lat="44.6158049" lon="10.0661128"><ele>740.0</ele><time>2026-05-03T10:15:40.192Z</time></trkpt><trkpt lat="44.6160293" lon="10.0661626"><ele>740.0</ele><time>2026-05-03T10:15:41.189Z</time></trkpt><trkpt lat="44.6162429" lon="10.0661941"><ele>740.0</ele><time>2026-05-03T10:15:42.185Z</time></trkpt><trkpt lat="44.6164456" lon="10.0662743"><ele>736.0</ele><time>2026-05-03T10:15:43.19Z</time></trkpt><trkpt lat="44.6166489" lon="10.066351"><ele>732.0</ele><time>2026-05-03T10:15:44.189Z</time></trkpt><trkpt lat="44.6168244" lon="10.0664282"><ele>728.0</ele><time>2026-05-03T10:15:45.191Z</time></trkpt><trkpt lat="44.6169647" lon="10.0665464"><ele>726.0</ele><time>2026-05-03T10:15:46.195Z</time></trkpt><trkpt lat="44.6170669" lon="10.0666662"><ele>724.0</ele><time>2026-05-03T10:15:47.192Z</time></trkpt><trkpt lat="44.6171394" lon="10.0668532"><ele>722.0</ele><time>2026-05-03T10:15:48.197Z</time></trkpt><trkpt lat="44.6172301" lon="10.0670611"><ele>722.0</ele><time>2026-05-03T10:15:49.194Z</time></trkpt><trkpt lat="44.6173077" lon="10.067171"><ele>722.0</ele><time>2026-05-03T10:15:50.194Z</time></trkpt><trkpt lat="44.6173929" lon="10.067272"><ele>722.0</ele><time>2026-05-03T10:15:51.193Z</time></trkpt><trkpt lat="44.6175036" lon="10.067377"><ele>722.0</ele><time>2026-05-03T10:15:52.196Z</time></trkpt><trkpt lat="44.6175847" lon="10.0675158"><ele>724.0</ele><time>2026-05-03T10:15:53.204Z</time></trkpt><trkpt lat="44.61764" lon="10.0676929"><ele>726.0</ele><time>2026-05-03T10:15:54.195Z</time></trkpt><trkpt lat="44.6177091" lon="10.0678682"><ele>728.0</ele><time>2026-05-03T10:15:55.196Z</time></trkpt><trkpt lat="44.617746" lon="10.0681214"><ele>728.6666666666666</ele><time>2026-05-03T10:15:56.177Z</time></trkpt><trkpt lat="44.6177501" lon="10.0683476"><ele>729.3333333333334</ele><time>2026-05-03T10:15:57.183Z</time></trkpt><trkpt lat="44.6178873" lon="10.0685994"><ele>730.0</ele><time>2026-05-03T10:15:58.178Z</time></trkpt><trkpt lat="44.6180543" lon="10.0688105"><ele>724.3333333333334</ele><time>2026-05-03T10:15:59.181Z</time></trkpt><trkpt lat="44.6182166" lon="10.0689925"><ele>718.6666666666666</ele><time>2026-05-03T10:16:00.193Z</time></trkpt><trkpt lat="44.6182996" lon="10.0691191"><ele>713.0</ele><time>2026-05-03T10:16:01.191Z</time></trkpt><trkpt lat="44.618379" lon="10.069295"><ele>713.0</ele><time>2026-05-03T10:16:02.194Z</time></trkpt><trkpt lat="44.6183374" lon="10.0695364"><ele>713.0</ele><time>2026-05-03T10:16:03.178Z</time></trkpt><trkpt lat="44.6182986" lon="10.0698531"><ele>713.0</ele><time>2026-05-03T10:16:04.185Z</time></trkpt><trkpt lat="44.6182342" lon="10.0701857"><ele>711.3333333333333</ele><time>2026-05-03T10:16:05.195Z</time></trkpt><trkpt lat="44.6181886" lon="10.07048"><ele>709.6666666666666</ele><time>2026-05-03T10:16:06.196Z</time></trkpt><trkpt lat="44.6181983" lon="10.0707805"><ele>708.0</ele><time>2026-05-03T10:16:07.199Z</time></trkpt><trkpt lat="44.618208" lon="10.0711008"><ele>706.6666666666666</ele><time>2026-05-03T10:16:08.196Z</time></trkpt><trkpt lat="44.6181914" lon="10.071363"><ele>705.3333333333333</ele><time>2026-05-03T10:16:09.195Z</time></trkpt><trkpt lat="44.6181412" lon="10.0716206"><ele>704.0</ele><time>2026-05-03T10:16:10.176Z</time></trkpt><trkpt lat="44.6180914" lon="10.0718131"><ele>702.6666666666666</ele><time>2026-05-03T10:16:11.169Z</time></trkpt><trkpt lat="44.6180706" lon="10.0719759"><ele>701.3333333333334</ele><time>2026-05-03T10:16:12.184Z</time></trkpt><trkpt lat="44.6181373" lon="10.0721666"><ele>700.0</ele><time>2026-05-03T10:16:13.192Z</time></trkpt><trkpt lat="44.6182665" lon="10.0723566"><ele>700.0</ele><time>2026-05-03T10:16:14.192Z</time></trkpt><trkpt lat="44.6184489" lon="10.0724082"><ele>700.0</ele><time>2026-05-03T10:16:15.192Z</time></trkpt><trkpt lat="44.6186628" lon="10.0724197"><ele>700.0</ele><time>2026-05-03T10:16:16.193Z</time></trkpt><trkpt lat="44.6188571" lon="10.0724813"><ele>696.5</ele><time>2026-05-03T10:16:17.192Z</time></trkpt><trkpt lat="44.6190919" lon="10.0724612"><ele>693.0</ele><time>2026-05-03T10:16:18.196Z</time></trkpt><trkpt lat="44.6193112" lon="10.0724751"><ele>687.3333333333334</ele><time>2026-05-03T10:16:19.175Z</time></trkpt><trkpt lat="44.6194875" lon="10.0724461"><ele>681.6666666666667</ele><time>2026-05-03T10:16:20.182Z</time></trkpt><trkpt lat="44.619624" lon="10.0723948"><ele>676.0</ele><time>2026-05-03T10:16:21.191Z</time></trkpt><trkpt lat="44.6197579" lon="10.0724125"><ele>676.0</ele><time>2026-05-03T10:16:22.193Z</time></trkpt><trkpt lat="44.6198771" lon="10.0724523"><ele>676.0</ele><time>2026-05-03T10:16:23.198Z</time></trkpt><trkpt lat="44.6199255" lon="10.0725539"><ele>676.0</ele><time>2026-05-03T10:16:24.201Z</time></trkpt><trkpt lat="44.6199217" lon="10.0727757"><ele>676.0</ele><time>2026-05-03T10:16:25.193Z</time></trkpt><trkpt lat="44.6198579" lon="10.0731205"><ele>676.3333333333334</ele><time>2026-05-03T10:16:26.194Z</time></trkpt><trkpt lat="44.6198527" lon="10.0734224"><ele>676.6666666666666</ele><time>2026-05-03T10:16:27.177Z</time></trkpt><trkpt lat="44.6198573" lon="10.0737229"><ele>677.0</ele><time>2026-05-03T10:16:28.171Z</time></trkpt><trkpt lat="44.6199133" lon="10.0739845"><ele>678.3333333333333</ele><time>2026-05-03T10:16:29.183Z</time></trkpt><trkpt lat="44.619993" lon="10.0742168"><ele>679.6666666666666</ele><time>2026-05-03T10:16:30.191Z</time></trkpt><trkpt lat="44.6202139" lon="10.0743523"><ele>681.0</ele><time>2026-05-03T10:16:31.194Z</time></trkpt><trkpt lat="44.6204434" lon="10.0744194"><ele>675.0</ele><time>2026-05-03T10:16:32.191Z</time></trkpt><trkpt lat="44.6206511" lon="10.0745129"><ele>669.0</ele><time>2026-05-03T10:16:33.192Z</time></trkpt><trkpt lat="44.620787" lon="10.0746178"><ele>663.0</ele><time>2026-05-03T10:16:34.199Z</time></trkpt><trkpt lat="44.6208861" lon="10.0748184"><ele>664.6666666666666</ele><time>2026-05-03T10:16:35.193Z</time></trkpt><trkpt lat="44.6210094" lon="10.075054"><ele>666.3333333333333</ele><time>2026-05-03T10:16:36.198Z</time></trkpt><trkpt lat="44.6211168" lon="10.0752853"><ele>668.0</ele><time>2026-05-03T10:16:37.201Z</time></trkpt><trkpt lat="44.6212946" lon="10.075478"><ele>663.5</ele><time>2026-05-03T10:16:38.201Z</time></trkpt><trkpt lat="44.6214684" lon="10.0756762"><ele>659.0</ele><time>2026-05-03T10:16:39.199Z</time></trkpt><trkpt lat="44.6216462" lon="10.0759153"><ele>659.0</ele><time>2026-05-03T10:16:40.202Z</time></trkpt><trkpt lat="44.6217993" lon="10.0761415"><ele>659.0</ele><time>2026-05-03T10:16:41.202Z</time></trkpt><trkpt lat="44.6219351" lon="10.0763444"><ele>659.0</ele><time>2026-05-03T10:16:42.2Z</time></trkpt><trkpt lat="44.6220532" lon="10.0764885"><ele>658.6</ele><time>2026-05-03T10:16:43.2Z</time></trkpt><trkpt lat="44.6221522" lon="10.0766086"><ele>658.2</ele><time>2026-05-03T10:16:44.199Z</time></trkpt><trkpt lat="44.6222501" lon="10.0767059"><ele>657.8000000000001</ele><time>2026-05-03T10:16:45.197Z</time></trkpt><trkpt lat="44.6223164" lon="10.076715"><ele>657.4000000000001</ele><time>2026-05-03T10:16:46.192Z</time></trkpt><trkpt lat="44.6224153" lon="10.0766511"><ele>657.0</ele><time>2026-05-03T10:16:47.176Z</time></trkpt><trkpt lat="44.6224866" lon="10.0765016"><ele>657.0</ele><time>2026-05-03T10:16:48.166Z</time></trkpt><trkpt lat="44.6225815" lon="10.0762542"><ele>657.0</ele><time>2026-05-03T10:16:49.169Z</time></trkpt><trkpt lat="44.6227235" lon="10.0761041"><ele>657.0</ele><time>2026-05-03T10:16:50.168Z</time></trkpt><trkpt lat="44.6229216" lon="10.0760768"><ele>655.6666666666666</ele><time>2026-05-03T10:16:51.168Z</time></trkpt><trkpt lat="44.623121" lon="10.0761188"><ele>654.3333333333333</ele><time>2026-05-03T10:16:52.164Z</time></trkpt><trkpt lat="44.6232993" lon="10.0762106"><ele>653.0</ele><time>2026-05-03T10:16:53.185Z</time></trkpt><trkpt lat="44.6234695" lon="10.0763048"><ele>653.0</ele><time>2026-05-03T10:16:54.176Z</time></trkpt><trkpt lat="44.6235926" lon="10.0763859"><ele>653.0</ele><time>2026-05-03T10:16:55.194Z</time></trkpt><trkpt lat="44.6236769" lon="10.0765186"><ele>653.0</ele><time>2026-05-03T10:16:56.18Z</time></trkpt><trkpt lat="44.6237053" lon="10.0766536"><ele>653.0</ele><time>2026-05-03T10:16:57.187Z</time></trkpt><trkpt lat="44.6236918" lon="10.0767548"><ele>653.0</ele><time>2026-05-03T10:16:58.201Z</time></trkpt><trkpt lat="44.6236644" lon="10.0768349"><ele>652.25</ele><time>2026-05-03T10:16:59.205Z</time></trkpt><trkpt lat="44.6236251" lon="10.0770347"><ele>651.5</ele><time>2026-05-03T10:17:00.205Z</time></trkpt><trkpt lat="44.6236402" lon="10.0772341"><ele>650.75</ele><time>2026-05-03T10:17:01.194Z</time></trkpt><trkpt lat="44.6236492" lon="10.0773789"><ele>650.0</ele><time>2026-05-03T10:17:02.194Z</time></trkpt><trkpt lat="44.6236853" lon="10.0775311"><ele>650.0</ele><time>2026-05-03T10:17:03.195Z</time></trkpt><trkpt lat="44.6237357" lon="10.0776722"><ele>650.0</ele><time>2026-05-03T10:17:04.196Z</time></trkpt><trkpt lat="44.6238151" lon="10.0777992"><ele>650.0</ele><time>2026-05-03T10:17:05.197Z</time></trkpt><trkpt lat="44.6239083" lon="10.0779112"><ele>650.0</ele><time>2026-05-03T10:17:06.191Z</time></trkpt><trkpt lat="44.6239975" lon="10.0780408"><ele>650.0</ele><time>2026-05-03T10:17:07.192Z</time></trkpt><trkpt lat="44.6240601" lon="10.0781819"><ele>650.0</ele><time>2026-05-03T10:17:08.188Z</time></trkpt><trkpt lat="44.6240866" lon="10.0783255"><ele>650.0</ele><time>2026-05-03T10:17:09.193Z</time></trkpt><trkpt lat="44.624089" lon="10.0784696"><ele>650.0</ele><time>2026-05-03T10:17:10.193Z</time></trkpt><trkpt lat="44.624097" lon="10.0786157"><ele>650.0</ele><time>2026-05-03T10:17:11.193Z</time></trkpt><trkpt lat="44.6241206" lon="10.0787456"><ele>649.5</ele><time>2026-05-03T10:17:12.194Z</time></trkpt><trkpt lat="44.624177" lon="10.0788718"><ele>649.0</ele><time>2026-05-03T10:17:13.194Z</time></trkpt><trkpt lat="44.6242533" lon="10.0789827"><ele>648.5</ele><time>2026-05-03T10:17:14.194Z</time></trkpt><trkpt lat="44.6243548" lon="10.0790794"><ele>648.0</ele><time>2026-05-03T10:17:15.202Z</time></trkpt><trkpt lat="44.6244652" lon="10.0791731"><ele>645.25</ele><time>2026-05-03T10:17:16.192Z</time></trkpt><trkpt lat="44.6245682" lon="10.0792339"><ele>642.5</ele><time>2026-05-03T10:17:17.193Z</time></trkpt><trkpt lat="44.6246791" lon="10.0792901"><ele>639.75</ele><time>2026-05-03T10:17:18.194Z</time></trkpt><trkpt lat="44.6247938" lon="10.0793036"><ele>637.0</ele><time>2026-05-03T10:17:19.195Z</time></trkpt><trkpt lat="44.6249165" lon="10.0792665"><ele>637.0</ele><time>2026-05-03T10:17:20.195Z</time></trkpt><trkpt lat="44.6250573" lon="10.0791788"><ele>637.0</ele><time>2026-05-03T10:17:21.195Z</time></trkpt><trkpt lat="44.6252244" lon="10.0790287"><ele>637.0</ele><time>2026-05-03T10:17:22.196Z</time></trkpt><trkpt lat="44.6254191" lon="10.0788108"><ele>635.6666666666667</ele><time>2026-05-03T10:17:23.195Z</time></trkpt><trkpt lat="44.6255993" lon="10.0785926"><ele>634.3333333333334</ele><time>2026-05-03T10:17:24.197Z</time></trkpt><trkpt lat="44.625744" lon="10.0784246"><ele>633.0</ele><time>2026-05-03T10:17:25.196Z</time></trkpt><trkpt lat="44.6258257" lon="10.0783756"><ele>633.0</ele><time>2026-05-03T10:17:26.2Z</time></trkpt><trkpt lat="44.6259229" lon="10.0784084"><ele>633.0</ele><time>2026-05-03T10:17:27.191Z</time></trkpt><trkpt lat="44.6260474" lon="10.0784408"><ele>633.0</ele><time>2026-05-03T10:17:28.194Z</time></trkpt><trkpt lat="44.6262363" lon="10.0785387"><ele>633.0</ele><time>2026-05-03T10:17:29.193Z</time></trkpt><trkpt lat="44.6264074" lon="10.0786447"><ele>634.0</ele><time>2026-05-03T10:17:30.195Z</time></trkpt><trkpt lat="44.6266003" lon="10.0787777"><ele>635.0</ele><time>2026-05-03T10:17:31.193Z</time></trkpt><trkpt lat="44.6267765" lon="10.0789609"><ele>636.0</ele><time>2026-05-03T10:17:32.201Z</time></trkpt><trkpt lat="44.6269684" lon="10.0791153"><ele>635.0</ele><time>2026-05-03T10:17:33.195Z</time></trkpt><trkpt lat="44.627138" lon="10.0792154"><ele>634.0</ele><time>2026-05-03T10:17:34.198Z</time></trkpt><trkpt lat="44.6272872" lon="10.0794109"><ele>633.0</ele><time>2026-05-03T10:17:35.201Z</time></trkpt><trkpt lat="44.6274349" lon="10.0795158"><ele>633.0</ele><time>2026-05-03T10:17:36.199Z</time></trkpt><trkpt lat="44.6276057" lon="10.07954"><ele>633.0</ele><time>2026-05-03T10:17:37.197Z</time></trkpt><trkpt lat="44.6277832" lon="10.0795785"><ele>633.0</ele><time>2026-05-03T10:17:38.199Z</time></trkpt><trkpt lat="44.6278953" lon="10.0796169"><ele>631.75</ele><time>2026-05-03T10:17:39.192Z</time></trkpt><trkpt lat="44.6280007" lon="10.079645"><ele>630.5</ele><time>2026-05-03T10:17:40.196Z</time></trkpt><trkpt lat="44.6281296" lon="10.0797755"><ele>629.25</ele><time>2026-05-03T10:17:41.201Z</time></trkpt><trkpt lat="44.6282363" lon="10.0798799"><ele>628.0</ele><time>2026-05-03T10:17:42.198Z</time></trkpt><trkpt lat="44.6283406" lon="10.0800924"><ele>625.75</ele><time>2026-05-03T10:17:44.226Z</time></trkpt><trkpt lat="44.6284608" lon="10.0801878"><ele>623.5</ele><time>2026-05-03T10:17:45.204Z</time></trkpt><trkpt lat="44.6285479" lon="10.0801686"><ele>621.25</ele><time>2026-05-03T10:17:46.2Z</time></trkpt><trkpt lat="44.6286607" lon="10.0801545"><ele>619.0</ele><time>2026-05-03T10:17:47.194Z</time></trkpt><trkpt lat="44.6287633" lon="10.0800917"><ele>617.5</ele><time>2026-05-03T10:17:48.196Z</time></trkpt><trkpt lat="44.6288325" lon="10.0800131"><ele>616.0</ele><time>2026-05-03T10:17:49.197Z</time></trkpt><trkpt lat="44.6288832" lon="10.0798927"><ele>614.5</ele><time>2026-05-03T10:17:50.182Z</time></trkpt><trkpt lat="44.6289253" lon="10.0797143"><ele>613.0</ele><time>2026-05-03T10:17:51.191Z</time></trkpt><trkpt lat="44.6290055" lon="10.079535"><ele>613.0</ele><time>2026-05-03T10:17:52.196Z</time></trkpt><trkpt lat="44.629101" lon="10.0793693"><ele>613.0</ele><time>2026-05-03T10:17:53.192Z</time></trkpt><trkpt lat="44.6292026" lon="10.0792208"><ele>613.0</ele><time>2026-05-03T10:17:54.194Z</time></trkpt><trkpt lat="44.629359" lon="10.0791404"><ele>614.3333333333334</ele><time>2026-05-03T10:17:55.199Z</time></trkpt><trkpt lat="44.629528" lon="10.0791269"><ele>615.6666666666666</ele><time>2026-05-03T10:17:56.197Z</time></trkpt><trkpt lat="44.6297297" lon="10.0791202"><ele>617.0</ele><time>2026-05-03T10:17:57.204Z</time></trkpt><trkpt lat="44.6298905" lon="10.0790743"><ele>617.0</ele><time>2026-05-03T10:17:58.2Z</time></trkpt><trkpt lat="44.6300422" lon="10.0789485"><ele>617.0</ele><time>2026-05-03T10:17:59.197Z</time></trkpt><trkpt lat="44.630188" lon="10.0787948"><ele>617.0</ele><time>2026-05-03T10:18:00.201Z</time></trkpt><trkpt lat="44.6303493" lon="10.0786098"><ele>615.6666666666666</ele><time>2026-05-03T10:18:01.195Z</time></trkpt><trkpt lat="44.6304702" lon="10.0784002"><ele>614.3333333333334</ele><time>2026-05-03T10:18:02.194Z</time></trkpt><trkpt lat="44.630633" lon="10.0782568"><ele>613.0</ele><time>2026-05-03T10:18:03.194Z</time></trkpt><trkpt lat="44.6307632" lon="10.0781697"><ele>613.0</ele><time>2026-05-03T10:18:04.198Z</time></trkpt><trkpt lat="44.6308835" lon="10.0781424"><ele>613.0</ele><time>2026-05-03T10:18:05.197Z</time></trkpt><trkpt lat="44.6309903" lon="10.0782329"><ele>613.0</ele><time>2026-05-03T10:18:06.195Z</time></trkpt><trkpt lat="44.6311008" lon="10.0783635"><ele>613.0</ele><time>2026-05-03T10:18:07.195Z</time></trkpt><trkpt lat="44.6312099" lon="10.0785581"><ele>609.0</ele><time>2026-05-03T10:18:08.195Z</time></trkpt><trkpt lat="44.6313097" lon="10.0787179"><ele>605.0</ele><time>2026-05-03T10:18:09.195Z</time></trkpt><trkpt lat="44.6314546" lon="10.0788915"><ele>601.0</ele><time>2026-05-03T10:18:10.199Z</time></trkpt><trkpt lat="44.6316182" lon="10.079079"><ele>599.0</ele><time>2026-05-03T10:18:11.195Z</time></trkpt><trkpt lat="44.6317889" lon="10.0792124"><ele>597.0</ele><time>2026-05-03T10:18:12.196Z</time></trkpt><trkpt lat="44.6319629" lon="10.0792461"><ele>595.0</ele><time>2026-05-03T10:18:13.195Z</time></trkpt><trkpt lat="44.6321664" lon="10.0792251"><ele>594.0</ele><time>2026-05-03T10:18:14.197Z</time></trkpt><trkpt lat="44.6323733" lon="10.0791647"><ele>593.0</ele><time>2026-05-03T10:18:15.198Z</time></trkpt><trkpt lat="44.6325868" lon="10.0791058"><ele>592.0</ele><time>2026-05-03T10:18:16.202Z</time></trkpt><trkpt lat="44.6328194" lon="10.0790574"><ele>590.0</ele><time>2026-05-03T10:18:17.201Z</time></trkpt><trkpt lat="44.633056" lon="10.0790316"><ele>588.0</ele><time>2026-05-03T10:18:18.201Z</time></trkpt><trkpt lat="44.6332945" lon="10.0790038"><ele>588.0</ele><time>2026-05-03T10:18:19.2Z</time></trkpt><trkpt lat="44.6335196" lon="10.0789537"><ele>588.0</ele><time>2026-05-03T10:18:20.201Z</time></trkpt><trkpt lat="44.6337336" lon="10.0788995"><ele>588.0</ele><time>2026-05-03T10:18:21.195Z</time></trkpt><trkpt lat="44.6339498" lon="10.0788721"><ele>587.3333333333334</ele><time>2026-05-03T10:18:22.2Z</time></trkpt><trkpt lat="44.6341592" lon="10.0788542"><ele>586.6666666666667</ele><time>2026-05-03T10:18:23.194Z</time></trkpt><trkpt lat="44.6343646" lon="10.0788245"><ele>586.0</ele><time>2026-05-03T10:18:24.194Z</time></trkpt><trkpt lat="44.6345672" lon="10.0787573"><ele>585.0</ele><time>2026-05-03T10:18:25.193Z</time></trkpt><trkpt lat="44.6347564" lon="10.0787314"><ele>584.0</ele><time>2026-05-03T10:18:26.191Z</time></trkpt><trkpt lat="44.6349288" lon="10.0787511"><ele>583.0</ele><time>2026-05-03T10:18:27.192Z</time></trkpt><trkpt lat="44.6351157" lon="10.0788247"><ele>583.0</ele><time>2026-05-03T10:18:28.196Z</time></trkpt><trkpt lat="44.6352974" lon="10.0789243"><ele>583.0</ele><time>2026-05-03T10:18:29.189Z</time></trkpt><trkpt lat="44.6355048" lon="10.0790686"><ele>583.0</ele><time>2026-05-03T10:18:30.191Z</time></trkpt><trkpt lat="44.6357288" lon="10.0792171"><ele>584.5</ele><time>2026-05-03T10:18:31.188Z</time></trkpt><trkpt lat="44.6359304" lon="10.0793462"><ele>586.0</ele><time>2026-05-03T10:18:32.174Z</time></trkpt><trkpt lat="44.6361844" lon="10.0794323"><ele>583.0</ele><time>2026-05-03T10:18:33.179Z</time></trkpt><trkpt lat="44.6364358" lon="10.079486"><ele>580.0</ele><time>2026-05-03T10:18:34.189Z</time></trkpt><trkpt lat="44.6366876" lon="10.0795592"><ele>580.0</ele><time>2026-05-03T10:18:35.19Z</time></trkpt><trkpt lat="44.6368945" lon="10.0795983"><ele>580.0</ele><time>2026-05-03T10:18:36.188Z</time></trkpt><trkpt lat="44.6371026" lon="10.0796356"><ele>580.0</ele><time>2026-05-03T10:18:37.189Z</time></trkpt><trkpt lat="44.6373056" lon="10.0796005"><ele>580.0</ele><time>2026-05-03T10:18:38.188Z</time></trkpt><trkpt lat="44.6375745" lon="10.0795009"><ele>580.0</ele><time>2026-05-03T10:18:39.171Z</time></trkpt><trkpt lat="44.63786" lon="10.0793901"><ele>580.0</ele><time>2026-05-03T10:18:40.178Z</time></trkpt><trkpt lat="44.6381154" lon="10.079307"><ele>580.0</ele><time>2026-05-03T10:18:41.186Z</time></trkpt><trkpt lat="44.6383345" lon="10.0792415"><ele>580.0</ele><time>2026-05-03T10:18:42.188Z</time></trkpt><trkpt lat="44.638562" lon="10.0792148"><ele>580.0</ele><time>2026-05-03T10:18:43.187Z</time></trkpt><trkpt lat="44.6388231" lon="10.0792152"><ele>580.3333333333334</ele><time>2026-05-03T10:18:44.186Z</time></trkpt><trkpt lat="44.6390519" lon="10.0792199"><ele>580.6666666666666</ele><time>2026-05-03T10:18:45.186Z</time></trkpt><trkpt lat="44.6392695" lon="10.0792267"><ele>581.0</ele><time>2026-05-03T10:18:46.193Z</time></trkpt><trkpt lat="44.6394647" lon="10.0792114"><ele>580.0</ele><time>2026-05-03T10:18:47.193Z</time></trkpt><trkpt lat="44.6396709" lon="10.0792123"><ele>579.0</ele><time>2026-05-03T10:18:48.193Z</time></trkpt><trkpt lat="44.6398716" lon="10.0792198"><ele>578.0</ele><time>2026-05-03T10:18:49.196Z</time></trkpt><trkpt lat="44.6400741" lon="10.0792255"><ele>578.0</ele><time>2026-05-03T10:18:50.195Z</time></trkpt><trkpt lat="44.640284" lon="10.0792142"><ele>578.0</ele><time>2026-05-03T10:18:51.193Z</time></trkpt><trkpt lat="44.6404417" lon="10.0790855"><ele>578.0</ele><time>2026-05-03T10:18:52.193Z</time></trkpt><trkpt lat="44.6406132" lon="10.0788547"><ele>573.0</ele><time>2026-05-03T10:18:53.193Z</time></trkpt><trkpt lat="44.6408512" lon="10.0786195"><ele>568.0</ele><time>2026-05-03T10:18:54.191Z</time></trkpt><trkpt lat="44.6410707" lon="10.0783961"><ele>564.0</ele><time>2026-05-03T10:18:55.192Z</time></trkpt><trkpt lat="44.641251" lon="10.0782418"><ele>560.0</ele><time>2026-05-03T10:18:56.182Z</time></trkpt><trkpt lat="44.6414174" lon="10.078123"><ele>556.0</ele><time>2026-05-03T10:18:57.185Z</time></trkpt><trkpt lat="44.6415317" lon="10.0780654"><ele>556.0</ele><time>2026-05-03T10:18:58.186Z</time></trkpt><trkpt lat="44.6416833" lon="10.0781199"><ele>556.0</ele><time>2026-05-03T10:18:59.191Z</time></trkpt><trkpt lat="44.6419288" lon="10.0782133"><ele>556.0</ele><time>2026-05-03T10:19:00.184Z</time></trkpt><trkpt lat="44.6421975" lon="10.0783129"><ele>558.0</ele><time>2026-05-03T10:19:01.183Z</time></trkpt><trkpt lat="44.6424373" lon="10.0783762"><ele>560.0</ele><time>2026-05-03T10:19:02.179Z</time></trkpt><trkpt lat="44.6426748" lon="10.0783775"><ele>558.0</ele><time>2026-05-03T10:19:03.179Z</time></trkpt><trkpt lat="44.6428905" lon="10.0783003"><ele>556.0</ele><time>2026-05-03T10:19:04.18Z</time></trkpt><trkpt lat="44.6430538" lon="10.078065"><ele>551.5</ele><time>2026-05-03T10:19:05.181Z</time></trkpt><trkpt lat="44.6431935" lon="10.0777819"><ele>547.0</ele><time>2026-05-03T10:19:06.177Z</time></trkpt><trkpt lat="44.6433347" lon="10.0774991"><ele>544.5</ele><time>2026-05-03T10:19:07.178Z</time></trkpt><trkpt lat="44.6434272" lon="10.0773409"><ele>542.0</ele><time>2026-05-03T10:19:08.178Z</time></trkpt><trkpt lat="44.6435396" lon="10.0772876"><ele>539.5</ele><time>2026-05-03T10:19:09.178Z</time></trkpt><trkpt lat="44.643705" lon="10.0773338"><ele>537.0</ele><time>2026-05-03T10:19:10.176Z</time></trkpt><trkpt lat="44.6438834" lon="10.0774238"><ele>537.6666666666666</ele><time>2026-05-03T10:19:11.179Z</time></trkpt><trkpt lat="44.6440372" lon="10.0775373"><ele>538.3333333333333</ele><time>2026-05-03T10:19:12.191Z</time></trkpt><trkpt lat="44.6441687" lon="10.0776816"><ele>539.0</ele><time>2026-05-03T10:19:13.187Z</time></trkpt><trkpt lat="44.6442645" lon="10.0778993"><ele>539.0</ele><time>2026-05-03T10:19:14.181Z</time></trkpt><trkpt lat="44.6443244" lon="10.0781819"><ele>539.0</ele><time>2026-05-03T10:19:15.182Z</time></trkpt><trkpt lat="44.6443173" lon="10.0784764"><ele>539.0</ele><time>2026-05-03T10:19:16.177Z</time></trkpt><trkpt lat="44.6442947" lon="10.0787675"><ele>539.3333333333333</ele><time>2026-05-03T10:19:17.176Z</time></trkpt><trkpt lat="44.6443248" lon="10.0790573"><ele>539.6666666666666</ele><time>2026-05-03T10:19:18.176Z</time></trkpt><trkpt lat="44.6443857" lon="10.0793239"><ele>540.0</ele><time>2026-05-03T10:19:19.175Z</time></trkpt><trkpt lat="44.6444308" lon="10.0795454"><ele>541.6666666666666</ele><time>2026-05-03T10:19:20.176Z</time></trkpt><trkpt lat="44.6444951" lon="10.0797671"><ele>543.3333333333333</ele><time>2026-05-03T10:19:21.154Z</time></trkpt><trkpt lat="44.6446884" lon="10.079918"><ele>545.0</ele><time>2026-05-03T10:19:22.15Z</time></trkpt><trkpt lat="44.644892" lon="10.0800503"><ele>545.0</ele><time>2026-05-03T10:19:23.15Z</time></trkpt><trkpt lat="44.6451943" lon="10.0801664"><ele>545.0</ele><time>2026-05-03T10:19:24.151Z</time></trkpt><trkpt lat="44.6455373" lon="10.0801062"><ele>533.5</ele><time>2026-05-03T10:19:25.171Z</time></trkpt><trkpt lat="44.645857" lon="10.080213"><ele>522.0</ele><time>2026-05-03T10:19:26.18Z</time></trkpt><trkpt lat="44.646154" lon="10.0803778"><ele>508.0</ele><time>2026-05-03T10:19:27.188Z</time></trkpt><trkpt lat="44.6464245" lon="10.080509"><ele>494.0</ele><time>2026-05-03T10:19:28.184Z</time></trkpt><trkpt lat="44.6466448" lon="10.0806414"><ele>494.0</ele><time>2026-05-03T10:19:29.184Z</time></trkpt><trkpt lat="44.6468507" lon="10.0807639"><ele>494.0</ele><time>2026-05-03T10:19:30.191Z</time></trkpt><trkpt lat="44.6470175" lon="10.0809246"><ele>494.0</ele><time>2026-05-03T10:19:31.188Z</time></trkpt><trkpt lat="44.6471613" lon="10.0810793"><ele>491.3333333333333</ele><time>2026-05-03T10:19:32.205Z</time></trkpt><trkpt lat="44.6472464" lon="10.08128"><ele>488.66666666666663</ele><time>2026-05-03T10:19:33.204Z</time></trkpt><trkpt lat="44.6473131" lon="10.0815152"><ele>486.0</ele><time>2026-05-03T10:19:34.179Z</time></trkpt><trkpt lat="44.6474019" lon="10.0817499"><ele>488.66666666666663</ele><time>2026-05-03T10:19:35.165Z</time></trkpt><trkpt lat="44.6475028" lon="10.0819722"><ele>491.3333333333333</ele><time>2026-05-03T10:19:36.174Z</time></trkpt><trkpt lat="44.6476576" lon="10.0821215"><ele>494.0</ele><time>2026-05-03T10:19:37.179Z</time></trkpt><trkpt lat="44.6478539" lon="10.0821976"><ele>494.0</ele><time>2026-05-03T10:19:38.179Z</time></trkpt><trkpt lat="44.6480722" lon="10.0822096"><ele>494.0</ele><time>2026-05-03T10:19:39.161Z</time></trkpt><trkpt lat="44.6482205" lon="10.082033"><ele>494.0</ele><time>2026-05-03T10:19:40.171Z</time></trkpt><trkpt lat="44.6483523" lon="10.0817751"><ele>489.0</ele><time>2026-05-03T10:19:41.173Z</time></trkpt><trkpt lat="44.6484924" lon="10.0814887"><ele>484.0</ele><time>2026-05-03T10:19:42.174Z</time></trkpt><trkpt lat="44.6486611" lon="10.0812305"><ele>484.0</ele><time>2026-05-03T10:19:43.16Z</time></trkpt><trkpt lat="44.6488012" lon="10.0809936"><ele>484.0</ele><time>2026-05-03T10:19:44.167Z</time></trkpt><trkpt lat="44.64894" lon="10.0808302"><ele>484.0</ele><time>2026-05-03T10:19:45.177Z</time></trkpt><trkpt lat="44.6491082" lon="10.0807325"><ele>484.0</ele><time>2026-05-03T10:19:46.175Z</time></trkpt><trkpt lat="44.6492649" lon="10.0807169"><ele>484.0</ele><time>2026-05-03T10:19:47.181Z</time></trkpt><trkpt lat="44.649429" lon="10.0808116"><ele>484.0</ele><time>2026-05-03T10:19:48.178Z</time></trkpt><trkpt lat="44.6496471" lon="10.0809436"><ele>478.5</ele><time>2026-05-03T10:19:49.179Z</time></trkpt><trkpt lat="44.6498969" lon="10.0810367"><ele>473.0</ele><time>2026-05-03T10:19:50.18Z</time></trkpt><trkpt lat="44.650137" lon="10.0811696"><ele>466.0</ele><time>2026-05-03T10:19:51.187Z</time></trkpt><trkpt lat="44.6503722" lon="10.0813431"><ele>459.0</ele><time>2026-05-03T10:19:52.184Z</time></trkpt><trkpt lat="44.6505492" lon="10.0815792"><ele>465.5</ele><time>2026-05-03T10:19:53.184Z</time></trkpt><trkpt lat="44.6507461" lon="10.0817603"><ele>472.0</ele><time>2026-05-03T10:19:54.184Z</time></trkpt><trkpt lat="44.6510013" lon="10.0818368"><ele>467.0</ele><time>2026-05-03T10:19:55.191Z</time></trkpt><trkpt lat="44.6512215" lon="10.0819077"><ele>462.0</ele><time>2026-05-03T10:19:56.191Z</time></trkpt><trkpt lat="44.6514958" lon="10.0819469"><ele>462.0</ele><time>2026-05-03T10:19:57.168Z</time></trkpt><trkpt lat="44.6517518" lon="10.0819001"><ele>462.0</ele><time>2026-05-03T10:19:58.177Z</time></trkpt><trkpt lat="44.6519734" lon="10.0819157"><ele>455.66666666666663</ele><time>2026-05-03T10:19:59.188Z</time></trkpt><trkpt lat="44.6521497" lon="10.0819683"><ele>449.3333333333333</ele><time>2026-05-03T10:20:00.183Z</time></trkpt><trkpt lat="44.6523059" lon="10.0821176"><ele>443.0</ele><time>2026-05-03T10:20:01.197Z</time></trkpt><trkpt lat="44.6523715" lon="10.082327"><ele>447.66666666666663</ele><time>2026-05-03T10:20:02.186Z</time></trkpt><trkpt lat="44.6524418" lon="10.0825259"><ele>452.33333333333337</ele><time>2026-05-03T10:20:03.18Z</time></trkpt><trkpt lat="44.652526" lon="10.0827001"><ele>457.0</ele><time>2026-05-03T10:20:04.182Z</time></trkpt><trkpt lat="44.6527051" lon="10.0828332"><ele>453.33333333333337</ele><time>2026-05-03T10:20:05.187Z</time></trkpt><trkpt lat="44.6529227" lon="10.0829191"><ele>449.66666666666663</ele><time>2026-05-03T10:20:06.186Z</time></trkpt><trkpt lat="44.6531301" lon="10.0829298"><ele>446.0</ele><time>2026-05-03T10:20:07.181Z</time></trkpt><trkpt lat="44.6533433" lon="10.0829533"><ele>446.0</ele><time>2026-05-03T10:20:08.187Z</time></trkpt><trkpt lat="44.6535692" lon="10.083038"><ele>446.0</ele><time>2026-05-03T10:20:09.185Z</time></trkpt><trkpt lat="44.6537708" lon="10.0831349"><ele>446.0</ele><time>2026-05-03T10:20:10.181Z</time></trkpt><trkpt lat="44.653923" lon="10.0832472"><ele>446.66666666666663</ele><time>2026-05-03T10:20:11.184Z</time></trkpt><trkpt lat="44.6541102" lon="10.0833408"><ele>447.33333333333337</ele><time>2026-05-03T10:20:12.184Z</time></trkpt><trkpt lat="44.6542694" lon="10.0834551"><ele>448.0</ele><time>2026-05-03T10:20:13.184Z</time></trkpt><trkpt lat="44.6544601" lon="10.0835532"><ele>442.33333333333337</ele><time>2026-05-03T10:20:14.179Z</time></trkpt><trkpt lat="44.6546254" lon="10.0836693"><ele>436.66666666666663</ele><time>2026-05-03T10:20:15.178Z</time></trkpt><trkpt lat="44.6547896" lon="10.0837942"><ele>431.0</ele><time>2026-05-03T10:20:16.178Z</time></trkpt><trkpt lat="44.6549244" lon="10.0839229"><ele>431.0</ele><time>2026-05-03T10:20:17.177Z</time></trkpt><trkpt lat="44.6550721" lon="10.084026"><ele>431.0</ele><time>2026-05-03T10:20:18.178Z</time></trkpt><trkpt lat="44.6553709" lon="10.0840659"><ele>431.3333333333333</ele><time>2026-05-03T10:20:19.177Z</time></trkpt><trkpt lat="44.6555418" lon="10.0840782"><ele>431.66666666666663</ele><time>2026-05-03T10:20:20.178Z</time></trkpt><trkpt lat="44.6557237" lon="10.0840984"><ele>432.0</ele><time>2026-05-03T10:20:21.182Z</time></trkpt><trkpt lat="44.6559397" lon="10.0841224"><ele>432.0</ele><time>2026-05-03T10:20:22.176Z</time></trkpt><trkpt lat="44.6560978" lon="10.0841998"><ele>432.0</ele><time>2026-05-03T10:20:23.18Z</time></trkpt><trkpt lat="44.6561101" lon="10.0844486"><ele>432.0</ele><time>2026-05-03T10:20:24.155Z</time></trkpt><trkpt lat="44.6561052" lon="10.0847774"><ele>433.0</ele><time>2026-05-03T10:20:25.151Z</time></trkpt><trkpt lat="44.6560726" lon="10.0850892"><ele>434.0</ele><time>2026-05-03T10:20:26.154Z</time></trkpt><trkpt lat="44.6560319" lon="10.0853888"><ele>435.0</ele><time>2026-05-03T10:20:27.194Z</time></trkpt><trkpt lat="44.6560241" lon="10.085676"><ele>435.25</ele><time>2026-05-03T10:20:28.165Z</time></trkpt><trkpt lat="44.6560811" lon="10.0858725"><ele>435.5</ele><time>2026-05-03T10:20:29.174Z</time></trkpt><trkpt lat="44.6562047" lon="10.0859935"><ele>435.75</ele><time>2026-05-03T10:20:30.191Z</time></trkpt><trkpt lat="44.6563494" lon="10.0860352"><ele>436.0</ele><time>2026-05-03T10:20:31.19Z</time></trkpt><trkpt lat="44.6565213" lon="10.0860357"><ele>431.75</ele><time>2026-05-03T10:20:32.199Z</time></trkpt><trkpt lat="44.6566792" lon="10.0860488"><ele>427.5</ele><time>2026-05-03T10:20:33.189Z</time></trkpt><trkpt lat="44.6567766" lon="10.08616"><ele>423.25</ele><time>2026-05-03T10:20:34.189Z</time></trkpt><trkpt lat="44.6568042" lon="10.0862852"><ele>419.0</ele><time>2026-05-03T10:20:35.189Z</time></trkpt><trkpt lat="44.6568427" lon="10.0865002"><ele>420.66666666666663</ele><time>2026-05-03T10:20:36.186Z</time></trkpt><trkpt lat="44.6568623" lon="10.0867397"><ele>422.33333333333337</ele><time>2026-05-03T10:20:37.193Z</time></trkpt><trkpt lat="44.6569173" lon="10.087032"><ele>424.0</ele><time>2026-05-03T10:20:38.188Z</time></trkpt><trkpt lat="44.6570466" lon="10.0871989"><ele>417.0</ele><time>2026-05-03T10:20:39.212Z</time></trkpt><trkpt lat="44.6571935" lon="10.0872987"><ele>410.0</ele><time>2026-05-03T10:20:40.189Z</time></trkpt><trkpt lat="44.6573748" lon="10.0873248"><ele>403.0</ele><time>2026-05-03T10:20:41.187Z</time></trkpt><trkpt lat="44.6575258" lon="10.0873521"><ele>405.25</ele><time>2026-05-03T10:20:42.193Z</time></trkpt><trkpt lat="44.6576639" lon="10.0874967"><ele>407.5</ele><time>2026-05-03T10:20:43.191Z</time></trkpt><trkpt lat="44.6577056" lon="10.087608"><ele>409.75</ele><time>2026-05-03T10:20:44.192Z</time></trkpt><trkpt lat="44.6576915" lon="10.0877826"><ele>412.0</ele><time>2026-05-03T10:20:45.188Z</time></trkpt><trkpt lat="44.6576574" lon="10.087985"><ele>412.0</ele><time>2026-05-03T10:20:46.171Z</time></trkpt><trkpt lat="44.657571" lon="10.0881963"><ele>412.0</ele><time>2026-05-03T10:20:47.165Z</time></trkpt><trkpt lat="44.6574543" lon="10.0883538"><ele>412.0</ele><time>2026-05-03T10:20:48.174Z</time></trkpt><trkpt lat="44.657458" lon="10.0884627"><ele>412.0</ele><time>2026-05-03T10:20:49.184Z</time></trkpt><trkpt lat="44.6575377" lon="10.0885724"><ele>411.83333333333337</ele><time>2026-05-03T10:20:50.184Z</time></trkpt><trkpt lat="44.6576157" lon="10.0886435"><ele>411.6666666666667</ele><time>2026-05-03T10:20:51.179Z</time></trkpt><trkpt lat="44.6576943" lon="10.0886501"><ele>411.5</ele><time>2026-05-03T10:20:52.182Z</time></trkpt><trkpt lat="44.6577719" lon="10.0886548"><ele>411.33333333333337</ele><time>2026-05-03T10:20:53.183Z</time></trkpt><trkpt lat="44.6578535" lon="10.0885373"><ele>411.1666666666667</ele><time>2026-05-03T10:20:55.166Z</time></trkpt><trkpt lat="44.6578724" lon="10.0884247"><ele>411.0</ele><time>2026-05-03T10:20:56.174Z</time></trkpt><trkpt lat="44.6579073" lon="10.0882329"><ele>406.0</ele><time>2026-05-03T10:20:57.177Z</time></trkpt><trkpt lat="44.6579481" lon="10.088011"><ele>401.0</ele><time>2026-05-03T10:20:58.182Z</time></trkpt><trkpt lat="44.6580472" lon="10.0878275"><ele>396.0</ele><time>2026-05-03T10:20:59.187Z</time></trkpt><trkpt lat="44.6581193" lon="10.0877521"><ele>391.0</ele><time>2026-05-03T10:21:00.181Z</time></trkpt><trkpt lat="44.6581809" lon="10.0877048"><ele>391.0</ele><time>2026-05-03T10:21:01.182Z</time></trkpt><trkpt lat="44.658312" lon="10.0876783"><ele>391.0</ele><time>2026-05-03T10:21:03.185Z</time></trkpt><trkpt lat="44.6583214" lon="10.0877667"><ele>391.0</ele><time>2026-05-03T10:21:04.18Z</time></trkpt><trkpt lat="44.6583379" lon="10.087887"><ele>391.0</ele><time>2026-05-03T10:21:05.19Z</time></trkpt><trkpt lat="44.6583405" lon="10.0880708"><ele>391.0</ele><time>2026-05-03T10:21:06.175Z</time></trkpt><trkpt lat="44.6583578" lon="10.0883138"><ele>389.0</ele><time>2026-05-03T10:21:07.173Z</time></trkpt><trkpt lat="44.6584028" lon="10.0886319"><ele>387.0</ele><time>2026-05-03T10:21:08.179Z</time></trkpt><trkpt lat="44.6584439" lon="10.0889527"><ele>386.66666666666663</ele><time>2026-05-03T10:21:09.18Z</time></trkpt><trkpt lat="44.6584798" lon="10.0892982"><ele>386.3333333333333</ele><time>2026-05-03T10:21:10.188Z</time></trkpt><trkpt lat="44.6585138" lon="10.089494"><ele>386.0</ele><time>2026-05-03T10:21:11.185Z</time></trkpt><trkpt lat="44.6585853" lon="10.0896533"><ele>378.3333333333333</ele><time>2026-05-03T10:21:12.19Z</time></trkpt><trkpt lat="44.6586844" lon="10.0897266"><ele>370.66666666666663</ele><time>2026-05-03T10:21:13.188Z</time></trkpt><trkpt lat="44.6587671" lon="10.0897024"><ele>363.0</ele><time>2026-05-03T10:21:14.184Z</time></trkpt><trkpt lat="44.6586553" lon="10.0891919"><ele>363.3333333333333</ele><time>2026-05-03T10:21:18.177Z</time></trkpt><trkpt lat="44.6586415" lon="10.0889103"><ele>363.66666666666663</ele><time>2026-05-03T10:21:19.178Z</time></trkpt><trkpt lat="44.6586731" lon="10.0885912"><ele>364.0</ele><time>2026-05-03T10:21:20.176Z</time></trkpt><trkpt lat="44.6587374" lon="10.088284"><ele>366.0</ele><time>2026-05-03T10:21:21.174Z</time></trkpt><trkpt lat="44.6588402" lon="10.088037"><ele>368.0</ele><time>2026-05-03T10:21:22.185Z</time></trkpt><trkpt lat="44.659" lon="10.0877914"><ele>370.0</ele><time>2026-05-03T10:21:23.185Z</time></trkpt><trkpt lat="44.6591768" lon="10.0875953"><ele>368.0</ele><time>2026-05-03T10:21:24.187Z</time></trkpt><trkpt lat="44.6593528" lon="10.0873706"><ele>366.0</ele><time>2026-05-03T10:21:25.196Z</time></trkpt><trkpt lat="44.6595091" lon="10.087198"><ele>364.0</ele><time>2026-05-03T10:21:26.184Z</time></trkpt><trkpt lat="44.6596752" lon="10.0870399"><ele>361.0</ele><time>2026-05-03T10:21:27.181Z</time></trkpt><trkpt lat="44.6598198" lon="10.0869321"><ele>358.0</ele><time>2026-05-03T10:21:28.178Z</time></trkpt><trkpt lat="44.6599339" lon="10.0868251"><ele>355.0</ele><time>2026-05-03T10:21:29.179Z</time></trkpt><trkpt lat="44.6600299" lon="10.0867418"><ele>352.0</ele><time>2026-05-03T10:21:30.179Z</time></trkpt><trkpt lat="44.6601302" lon="10.0867326"><ele>352.0</ele><time>2026-05-03T10:21:31.177Z</time></trkpt><trkpt lat="44.6602216" lon="10.0868028"><ele>352.0</ele><time>2026-05-03T10:21:32.175Z</time></trkpt><trkpt lat="44.6601745" lon="10.0869963"><ele>352.0</ele><time>2026-05-03T10:21:33.189Z</time></trkpt><trkpt lat="44.6600257" lon="10.0871998"><ele>351.5</ele><time>2026-05-03T10:21:34.188Z</time></trkpt><trkpt lat="44.6598646" lon="10.0874276"><ele>351.0</ele><time>2026-05-03T10:21:35.197Z</time></trkpt><trkpt lat="44.6597023" lon="10.0876556"><ele>351.0</ele><time>2026-05-03T10:21:36.184Z</time></trkpt><trkpt lat="44.6595711" lon="10.0878881"><ele>351.0</ele><time>2026-05-03T10:21:37.184Z</time></trkpt><trkpt lat="44.6594906" lon="10.0881883"><ele>351.0</ele><time>2026-05-03T10:21:38.183Z</time></trkpt><trkpt lat="44.6594746" lon="10.0884406"><ele>349.3333333333333</ele><time>2026-05-03T10:21:39.184Z</time></trkpt><trkpt lat="44.6595223" lon="10.0886896"><ele>347.66666666666663</ele><time>2026-05-03T10:21:40.167Z</time></trkpt><trkpt lat="44.6596469" lon="10.088922"><ele>346.0</ele><time>2026-05-03T10:21:41.172Z</time></trkpt><trkpt lat="44.659746" lon="10.0892095"><ele>343.0</ele><time>2026-05-03T10:21:42.164Z</time></trkpt><trkpt lat="44.6598685" lon="10.0895022"><ele>340.0</ele><time>2026-05-03T10:21:43.174Z</time></trkpt><trkpt lat="44.6600177" lon="10.0897821"><ele>340.5</ele><time>2026-05-03T10:21:44.184Z</time></trkpt><trkpt lat="44.6601465" lon="10.090051"><ele>341.0</ele><time>2026-05-03T10:21:45.197Z</time></trkpt><trkpt lat="44.6602789" lon="10.0903547"><ele>332.5</ele><time>2026-05-03T10:21:46.187Z</time></trkpt><trkpt lat="44.6604061" lon="10.0906476"><ele>324.0</ele><time>2026-05-03T10:21:47.185Z</time></trkpt><trkpt lat="44.6604959" lon="10.0909315"><ele>324.0</ele><time>2026-05-03T10:21:48.185Z</time></trkpt><trkpt lat="44.6606089" lon="10.0912527"><ele>324.0</ele><time>2026-05-03T10:21:49.184Z</time></trkpt><trkpt lat="44.6606777" lon="10.0915939"><ele>324.0</ele><time>2026-05-03T10:21:50.184Z</time></trkpt><trkpt lat="44.660734" lon="10.091858"><ele>324.0</ele><time>2026-05-03T10:21:51.203Z</time></trkpt><trkpt lat="44.6607883" lon="10.092113"><ele>324.0</ele><time>2026-05-03T10:21:52.193Z</time></trkpt><trkpt lat="44.6608444" lon="10.0923093"><ele>322.0</ele><time>2026-05-03T10:21:53.179Z</time></trkpt><trkpt lat="44.6608776" lon="10.092475"><ele>320.0</ele><time>2026-05-03T10:21:54.183Z</time></trkpt><trkpt lat="44.6609262" lon="10.0925845"><ele>318.0</ele><time>2026-05-03T10:21:55.202Z</time></trkpt><trkpt lat="44.6610135" lon="10.0926639"><ele>316.0</ele><time>2026-05-03T10:21:56.193Z</time></trkpt><trkpt lat="44.6610969" lon="10.0925807"><ele>314.0</ele><time>2026-05-03T10:21:57.192Z</time></trkpt><trkpt lat="44.6611749" lon="10.0924527"><ele>310.33333333333337</ele><time>2026-05-03T10:21:58.173Z</time></trkpt><trkpt lat="44.661188" lon="10.0922682"><ele>306.6666666666667</ele><time>2026-05-03T10:21:59.177Z</time></trkpt><trkpt lat="44.6611599" lon="10.0920392"><ele>303.0</ele><time>2026-05-03T10:22:00.187Z</time></trkpt><trkpt lat="44.661142" lon="10.0917987"><ele>302.3333333333333</ele><time>2026-05-03T10:22:01.187Z</time></trkpt><trkpt lat="44.6611269" lon="10.0915066"><ele>301.66666666666663</ele><time>2026-05-03T10:22:02.192Z</time></trkpt><trkpt lat="44.6611344" lon="10.0912037"><ele>301.0</ele><time>2026-05-03T10:22:03.196Z</time></trkpt><trkpt lat="44.6611392" lon="10.0908756"><ele>302.0</ele><time>2026-05-03T10:22:04.198Z</time></trkpt><trkpt lat="44.6611281" lon="10.0905875"><ele>303.0</ele><time>2026-05-03T10:22:05.207Z</time></trkpt><trkpt lat="44.66115" lon="10.0903112"><ele>304.0</ele><time>2026-05-03T10:22:06.194Z</time></trkpt><trkpt lat="44.6612697" lon="10.0901315"><ele>304.0</ele><time>2026-05-03T10:22:07.196Z</time></trkpt><trkpt lat="44.6614382" lon="10.0899882"><ele>304.0</ele><time>2026-05-03T10:22:08.19Z</time></trkpt><trkpt lat="44.6615797" lon="10.0898313"><ele>304.0</ele><time>2026-05-03T10:22:09.186Z</time></trkpt><trkpt lat="44.6617482" lon="10.0896852"><ele>303.66666666666663</ele><time>2026-05-03T10:22:10.195Z</time></trkpt><trkpt lat="44.661919" lon="10.0895335"><ele>303.3333333333333</ele><time>2026-05-03T10:22:11.195Z</time></trkpt><trkpt lat="44.6621069" lon="10.0894271"><ele>303.0</ele><time>2026-05-03T10:22:12.194Z</time></trkpt><trkpt lat="44.6622619" lon="10.0893657"><ele>303.0</ele><time>2026-05-03T10:22:13.196Z</time></trkpt><trkpt lat="44.6624307" lon="10.0893504"><ele>303.0</ele><time>2026-05-03T10:22:14.195Z</time></trkpt><trkpt lat="44.6626048" lon="10.0893861"><ele>303.0</ele><time>2026-05-03T10:22:15.206Z</time></trkpt><trkpt lat="44.6627917" lon="10.0894168"><ele>302.0</ele><time>2026-05-03T10:22:16.197Z</time></trkpt><trkpt lat="44.6629678" lon="10.0894501"><ele>301.0</ele><time>2026-05-03T10:22:17.193Z</time></trkpt><trkpt lat="44.6630962" lon="10.0895167"><ele>300.0</ele><time>2026-05-03T10:22:18.195Z</time></trkpt><trkpt lat="44.6631768" lon="10.0895813"><ele>299.0</ele><time>2026-05-03T10:22:19.193Z</time></trkpt><trkpt lat="44.6632427" lon="10.0897085"><ele>299.0</ele><time>2026-05-03T10:22:20.192Z</time></trkpt><trkpt lat="44.6632412" lon="10.0898575"><ele>299.0</ele><time>2026-05-03T10:22:21.177Z</time></trkpt><trkpt lat="44.663169" lon="10.0900906"><ele>299.0</ele><time>2026-05-03T10:22:22.179Z</time></trkpt><trkpt lat="44.6630708" lon="10.0903646"><ele>295.0</ele><time>2026-05-03T10:22:23.177Z</time></trkpt><trkpt lat="44.6629261" lon="10.0906046"><ele>291.0</ele><time>2026-05-03T10:22:24.186Z</time></trkpt><trkpt lat="44.6627944" lon="10.0908415"><ele>287.0</ele><time>2026-05-03T10:22:25.189Z</time></trkpt><trkpt lat="44.6626614" lon="10.0910783"><ele>285.6666666666667</ele><time>2026-05-03T10:22:26.185Z</time></trkpt><trkpt lat="44.6625692" lon="10.0912693"><ele>284.3333333333333</ele><time>2026-05-03T10:22:27.164Z</time></trkpt><trkpt lat="44.6625508" lon="10.0914833"><ele>283.0</ele><time>2026-05-03T10:22:28.184Z</time></trkpt><trkpt lat="44.6625825" lon="10.0916992"><ele>283.0</ele><time>2026-05-03T10:22:29.178Z</time></trkpt><trkpt lat="44.6626525" lon="10.0919249"><ele>283.0</ele><time>2026-05-03T10:22:30.184Z</time></trkpt><trkpt lat="44.6627455" lon="10.0920903"><ele>283.0</ele><time>2026-05-03T10:22:31.197Z</time></trkpt><trkpt lat="44.6628225" lon="10.0922563"><ele>279.5</ele><time>2026-05-03T10:22:32.196Z</time></trkpt><trkpt lat="44.6629005" lon="10.092414"><ele>276.0</ele><time>2026-05-03T10:22:33.197Z</time></trkpt><trkpt lat="44.6630011" lon="10.0925715"><ele>272.5</ele><time>2026-05-03T10:22:34.197Z</time></trkpt><trkpt lat="44.6630918" lon="10.0927238"><ele>269.0</ele><time>2026-05-03T10:22:35.198Z</time></trkpt><trkpt lat="44.663184" lon="10.0928695"><ele>268.5</ele><time>2026-05-03T10:22:36.205Z</time></trkpt><trkpt lat="44.6632967" lon="10.0929879"><ele>268.0</ele><time>2026-05-03T10:22:37.193Z</time></trkpt><trkpt lat="44.6634064" lon="10.093084"><ele>267.5</ele><time>2026-05-03T10:22:38.194Z</time></trkpt><trkpt lat="44.6635008" lon="10.0931051"><ele>267.0</ele><time>2026-05-03T10:22:39.191Z</time></trkpt><trkpt lat="44.6636637" lon="10.0930881"><ele>265.25</ele><time>2026-05-03T10:22:40.193Z</time></trkpt><trkpt lat="44.6638088" lon="10.0930692"><ele>263.5</ele><time>2026-05-03T10:22:41.193Z</time></trkpt><trkpt lat="44.6639607" lon="10.0930568"><ele>261.75</ele><time>2026-05-03T10:22:42.192Z</time></trkpt><trkpt lat="44.6641067" lon="10.0930919"><ele>260.0</ele><time>2026-05-03T10:22:43.192Z</time></trkpt><trkpt lat="44.6642487" lon="10.0931146"><ele>260.0</ele><time>2026-05-03T10:22:44.197Z</time></trkpt><trkpt lat="44.6644167" lon="10.0931632"><ele>260.0</ele><time>2026-05-03T10:22:45.193Z</time></trkpt><trkpt lat="44.6645539" lon="10.0931762"><ele>260.0</ele><time>2026-05-03T10:22:46.204Z</time></trkpt><trkpt lat="44.6646984" lon="10.0931945"><ele>257.33333333333337</ele><time>2026-05-03T10:22:47.194Z</time></trkpt><trkpt lat="44.6648427" lon="10.0932113"><ele>254.66666666666669</ele><time>2026-05-03T10:22:48.195Z</time></trkpt><trkpt lat="44.6649902" lon="10.0932179"><ele>252.0</ele><time>2026-05-03T10:22:49.193Z</time></trkpt><trkpt lat="44.6651507" lon="10.0931932"><ele>248.33333333333331</ele><time>2026-05-03T10:22:50.195Z</time></trkpt><trkpt lat="44.6653308" lon="10.0931696"><ele>244.66666666666666</ele><time>2026-05-03T10:22:51.175Z</time></trkpt><trkpt lat="44.6654994" lon="10.0931123"><ele>241.0</ele><time>2026-05-03T10:22:52.186Z</time></trkpt><trkpt lat="44.6656391" lon="10.0930565"><ele>241.0</ele><time>2026-05-03T10:22:53.191Z</time></trkpt><trkpt lat="44.6657897" lon="10.0930538"><ele>241.0</ele><time>2026-05-03T10:22:54.19Z</time></trkpt><trkpt lat="44.665963" lon="10.0930743"><ele>241.0</ele><time>2026-05-03T10:22:55.191Z</time></trkpt><trkpt lat="44.6661382" lon="10.0931366"><ele>238.66666666666666</ele><time>2026-05-03T10:22:56.201Z</time></trkpt><trkpt lat="44.6662531" lon="10.093349"><ele>236.33333333333331</ele><time>2026-05-03T10:22:57.197Z</time></trkpt><trkpt lat="44.6663981" lon="10.093586"><ele>234.0</ele><time>2026-05-03T10:22:58.194Z</time></trkpt><trkpt lat="44.6665218" lon="10.093814"><ele>234.0</ele><time>2026-05-03T10:22:59.194Z</time></trkpt><trkpt lat="44.6667098" lon="10.0939667"><ele>234.0</ele><time>2026-05-03T10:23:00.195Z</time></trkpt><trkpt lat="44.6668899" lon="10.0941525"><ele>234.0</ele><time>2026-05-03T10:23:01.196Z</time></trkpt><trkpt lat="44.6671001" lon="10.0943409"><ele>229.5</ele><time>2026-05-03T10:23:02.195Z</time></trkpt><trkpt lat="44.6673052" lon="10.0944752"><ele>225.0</ele><time>2026-05-03T10:23:03.194Z</time></trkpt><trkpt lat="44.6675226" lon="10.0946029"><ele>225.0</ele><time>2026-05-03T10:23:04.194Z</time></trkpt><trkpt lat="44.6677319" lon="10.0947588"><ele>225.0</ele><time>2026-05-03T10:23:05.196Z</time></trkpt><trkpt lat="44.6679145" lon="10.0948999"><ele>225.0</ele><time>2026-05-03T10:23:06.209Z</time></trkpt><trkpt lat="44.6681045" lon="10.0950465"><ele>223.0</ele><time>2026-05-03T10:23:07.194Z</time></trkpt><trkpt lat="44.6683024" lon="10.0951711"><ele>221.0</ele><time>2026-05-03T10:23:08.194Z</time></trkpt><trkpt lat="44.6685004" lon="10.0952998"><ele>219.0</ele><time>2026-05-03T10:23:09.195Z</time></trkpt><trkpt lat="44.6686965" lon="10.0954201"><ele>216.33333333333331</ele><time>2026-05-03T10:23:10.196Z</time></trkpt><trkpt lat="44.6688588" lon="10.0955065"><ele>213.66666666666666</ele><time>2026-05-03T10:23:11.197Z</time></trkpt><trkpt lat="44.6690118" lon="10.0956409"><ele>211.0</ele><time>2026-05-03T10:23:12.197Z</time></trkpt><trkpt lat="44.6691499" lon="10.0958078"><ele>211.0</ele><time>2026-05-03T10:23:13.196Z</time></trkpt><trkpt lat="44.6692555" lon="10.095981"><ele>211.0</ele><time>2026-05-03T10:23:14.195Z</time></trkpt><trkpt lat="44.6693591" lon="10.0961746"><ele>211.0</ele><time>2026-05-03T10:23:15.195Z</time></trkpt><trkpt lat="44.6694564" lon="10.0963867"><ele>210.33333333333331</ele><time>2026-05-03T10:23:16.207Z</time></trkpt><trkpt lat="44.6694866" lon="10.0966217"><ele>209.66666666666669</ele><time>2026-05-03T10:23:17.198Z</time></trkpt><trkpt lat="44.6694673" lon="10.096881"><ele>209.0</ele><time>2026-05-03T10:23:18.196Z</time></trkpt><trkpt lat="44.6694415" lon="10.0971556"><ele>207.33333333333334</ele><time>2026-05-03T10:23:19.199Z</time></trkpt><trkpt lat="44.6694127" lon="10.0974191"><ele>205.66666666666669</ele><time>2026-05-03T10:23:20.198Z</time></trkpt><trkpt lat="44.6693768" lon="10.0977174"><ele>204.0</ele><time>2026-05-03T10:23:21.196Z</time></trkpt><trkpt lat="44.6693199" lon="10.0980054"><ele>202.33333333333331</ele><time>2026-05-03T10:23:22.197Z</time></trkpt><trkpt lat="44.6692888" lon="10.0982715"><ele>200.66666666666666</ele><time>2026-05-03T10:23:23.196Z</time></trkpt><trkpt lat="44.6692842" lon="10.0985043"><ele>199.0</ele><time>2026-05-03T10:23:24.193Z</time></trkpt><trkpt lat="44.6692785" lon="10.0986679"><ele>199.0</ele><time>2026-05-03T10:23:25.197Z</time></trkpt><trkpt lat="44.6692986" lon="10.0988082"><ele>199.0</ele><time>2026-05-03T10:23:26.207Z</time></trkpt><trkpt lat="44.6693879" lon="10.0988901"><ele>199.0</ele><time>2026-05-03T10:23:27.192Z</time></trkpt><trkpt lat="44.6694221" lon="10.0990063"><ele>199.0</ele><time>2026-05-03T10:23:28.18Z</time></trkpt><trkpt lat="44.6694982" lon="10.0990519"><ele>199.0</ele><time>2026-05-03T10:23:29.191Z</time></trkpt><trkpt lat="44.669632" lon="10.0990378"><ele>196.0</ele><time>2026-05-03T10:23:30.199Z</time></trkpt><trkpt lat="44.6697403" lon="10.0988883"><ele>193.0</ele><time>2026-05-03T10:23:31.198Z</time></trkpt><trkpt lat="44.669849" lon="10.0986091"><ele>190.0</ele><time>2026-05-03T10:23:32.189Z</time></trkpt><trkpt lat="44.6699496" lon="10.098296"><ele>192.0</ele><time>2026-05-03T10:23:33.186Z</time></trkpt><trkpt lat="44.6700984" lon="10.0979795"><ele>194.0</ele><time>2026-05-03T10:23:34.19Z</time></trkpt><trkpt lat="44.6702544" lon="10.0976577"><ele>189.0</ele><time>2026-05-03T10:23:35.192Z</time></trkpt><trkpt lat="44.6704022" lon="10.0974014"><ele>184.0</ele><time>2026-05-03T10:23:36.202Z</time></trkpt><trkpt lat="44.6705345" lon="10.0971442"><ele>184.0</ele><time>2026-05-03T10:23:37.196Z</time></trkpt><trkpt lat="44.6706679" lon="10.0968768"><ele>184.0</ele><time>2026-05-03T10:23:38.192Z</time></trkpt><trkpt lat="44.6707898" lon="10.0965981"><ele>183.66666666666669</ele><time>2026-05-03T10:23:39.196Z</time></trkpt><trkpt lat="44.6709099" lon="10.0963551"><ele>183.33333333333334</ele><time>2026-05-03T10:23:40.195Z</time></trkpt><trkpt lat="44.6710162" lon="10.0961314"><ele>183.0</ele><time>2026-05-03T10:23:41.196Z</time></trkpt><trkpt lat="44.6711209" lon="10.0959698"><ele>181.75</ele><time>2026-05-03T10:23:42.195Z</time></trkpt><trkpt lat="44.6712637" lon="10.0958603"><ele>180.5</ele><time>2026-05-03T10:23:43.187Z</time></trkpt><trkpt lat="44.6714002" lon="10.0958757"><ele>179.25</ele><time>2026-05-03T10:23:44.192Z</time></trkpt><trkpt lat="44.6715151" lon="10.0959384"><ele>178.0</ele><time>2026-05-03T10:23:45.174Z</time></trkpt><trkpt lat="44.6716636" lon="10.0960245"><ele>178.0</ele><time>2026-05-03T10:23:46.181Z</time></trkpt><trkpt lat="44.6717646" lon="10.096121"><ele>178.0</ele><time>2026-05-03T10:23:47.161Z</time></trkpt><trkpt lat="44.6718751" lon="10.096198"><ele>178.0</ele><time>2026-05-03T10:23:48.17Z</time></trkpt><trkpt lat="44.671966" lon="10.0962655"><ele>178.0</ele><time>2026-05-03T10:23:49.169Z</time></trkpt><trkpt lat="44.6720285" lon="10.0963415"><ele>178.0</ele><time>2026-05-03T10:23:50.189Z</time></trkpt><trkpt lat="44.6720657" lon="10.0964655"><ele>176.0</ele><time>2026-05-03T10:23:51.197Z</time></trkpt><trkpt lat="44.6721238" lon="10.0966143"><ele>174.0</ele><time>2026-05-03T10:23:52.196Z</time></trkpt><trkpt lat="44.6721752" lon="10.0967751"><ele>172.0</ele><time>2026-05-03T10:23:53.198Z</time></trkpt><trkpt lat="44.6722018" lon="10.0969299"><ele>170.0</ele><time>2026-05-03T10:23:54.196Z</time></trkpt><trkpt lat="44.6722196" lon="10.0970949"><ele>170.0</ele><time>2026-05-03T10:23:55.195Z</time></trkpt><trkpt lat="44.6722308" lon="10.0972616"><ele>170.0</ele><time>2026-05-03T10:23:56.211Z</time></trkpt><trkpt lat="44.6722375" lon="10.0974231"><ele>170.0</ele><time>2026-05-03T10:23:57.193Z</time></trkpt><trkpt lat="44.6722526" lon="10.0975781"><ele>170.0</ele><time>2026-05-03T10:23:58.199Z</time></trkpt><trkpt lat="44.6722798" lon="10.0977268"><ele>169.4</ele><time>2026-05-03T10:23:59.201Z</time></trkpt><trkpt lat="44.6723211" lon="10.0978593"><ele>168.8</ele><time>2026-05-03T10:24:00.201Z</time></trkpt><trkpt lat="44.6724005" lon="10.0979577"><ele>168.2</ele><time>2026-05-03T10:24:01.194Z</time></trkpt><trkpt lat="44.6724905" lon="10.0980175"><ele>167.6</ele><time>2026-05-03T10:24:02.201Z</time></trkpt><trkpt lat="44.6726018" lon="10.0980128"><ele>167.0</ele><time>2026-05-03T10:24:03.197Z</time></trkpt><trkpt lat="44.6727204" lon="10.097975"><ele>165.25</ele><time>2026-05-03T10:24:04.198Z</time></trkpt><trkpt lat="44.6728333" lon="10.0979078"><ele>163.5</ele><time>2026-05-03T10:24:05.193Z</time></trkpt><trkpt lat="44.6729477" lon="10.0978388"><ele>161.75</ele><time>2026-05-03T10:24:06.207Z</time></trkpt><trkpt lat="44.6730492" lon="10.0977774"><ele>160.0</ele><time>2026-05-03T10:24:07.189Z</time></trkpt><trkpt lat="44.6731464" lon="10.097709"><ele>160.0</ele><time>2026-05-03T10:24:08.198Z</time></trkpt><trkpt lat="44.6732685" lon="10.0976388"><ele>160.0</ele><time>2026-05-03T10:24:09.192Z</time></trkpt><trkpt lat="44.6733862" lon="10.0975653"><ele>160.0</ele><time>2026-05-03T10:24:10.191Z</time></trkpt><trkpt lat="44.6735011" lon="10.0974997"><ele>160.0</ele><time>2026-05-03T10:24:11.192Z</time></trkpt><trkpt lat="44.6736141" lon="10.0974416"><ele>160.0</ele><time>2026-05-03T10:24:12.195Z</time></trkpt><trkpt lat="44.6737351" lon="10.0973954"><ele>160.0</ele><time>2026-05-03T10:24:13.191Z</time></trkpt><trkpt lat="44.6738416" lon="10.0973594"><ele>160.0</ele><time>2026-05-03T10:24:14.173Z</time></trkpt><trkpt lat="44.6739514" lon="10.0973093"><ele>160.0</ele><time>2026-05-03T10:24:15.165Z</time></trkpt><trkpt lat="44.6740779" lon="10.097264"><ele>160.0</ele><time>2026-05-03T10:24:16.196Z</time></trkpt><trkpt lat="44.6741839" lon="10.0972152"><ele>160.0</ele><time>2026-05-03T10:24:17.177Z</time></trkpt><trkpt lat="44.6742973" lon="10.097167"><ele>160.0</ele><time>2026-05-03T10:24:18.181Z</time></trkpt><trkpt lat="44.6744062" lon="10.0971073"><ele>160.0</ele><time>2026-05-03T10:24:19.199Z</time></trkpt><trkpt lat="44.6745166" lon="10.0970258"><ele>159.0</ele><time>2026-05-03T10:24:20.194Z</time></trkpt><trkpt lat="44.6746267" lon="10.0969587"><ele>158.0</ele><time>2026-05-03T10:24:21.191Z</time></trkpt><trkpt lat="44.6747336" lon="10.0968922"><ele>157.0</ele><time>2026-05-03T10:24:22.197Z</time></trkpt><trkpt lat="44.6748358" lon="10.0968218"><ele>156.0</ele><time>2026-05-03T10:24:23.188Z</time></trkpt><trkpt lat="44.67494" lon="10.0967368"><ele>156.0</ele><time>2026-05-03T10:24:24.19Z</time></trkpt><trkpt lat="44.6750336" lon="10.0966635"><ele>156.0</ele><time>2026-05-03T10:24:25.195Z</time></trkpt><trkpt lat="44.6751223" lon="10.0965904"><ele>156.0</ele><time>2026-05-03T10:24:26.19Z</time></trkpt><trkpt lat="44.6752166" lon="10.0965274"><ele>156.0</ele><time>2026-05-03T10:24:27.193Z</time></trkpt><trkpt lat="44.6753082" lon="10.0964668"><ele>156.0</ele><time>2026-05-03T10:24:28.191Z</time></trkpt><trkpt lat="44.6753878" lon="10.0964141"><ele>156.2</ele><time>2026-05-03T10:24:29.192Z</time></trkpt><trkpt lat="44.6754665" lon="10.0963656"><ele>156.39999999999998</ele><time>2026-05-03T10:24:30.195Z</time></trkpt><trkpt lat="44.6755467" lon="10.0963281"><ele>156.6</ele><time>2026-05-03T10:24:31.194Z</time></trkpt><trkpt lat="44.6756388" lon="10.0962893"><ele>156.79999999999998</ele><time>2026-05-03T10:24:32.196Z</time></trkpt><trkpt lat="44.6757247" lon="10.0962404"><ele>157.0</ele><time>2026-05-03T10:24:33.194Z</time></trkpt><trkpt lat="44.675822" lon="10.096176"><ele>157.0</ele><time>2026-05-03T10:24:34.198Z</time></trkpt><trkpt lat="44.6759261" lon="10.0961079"><ele>157.0</ele><time>2026-05-03T10:24:35.193Z</time></trkpt><trkpt lat="44.6760208" lon="10.096057"><ele>157.0</ele><time>2026-05-03T10:24:36.198Z</time></trkpt><trkpt lat="44.6761151" lon="10.0960054"><ele>157.0</ele><time>2026-05-03T10:24:37.197Z</time></trkpt><trkpt lat="44.6762091" lon="10.0959646"><ele>157.0</ele><time>2026-05-03T10:24:38.199Z</time></trkpt><trkpt lat="44.6762962" lon="10.0959189"><ele>156.6</ele><time>2026-05-03T10:24:39.202Z</time></trkpt><trkpt lat="44.6763786" lon="10.0958642"><ele>156.2</ele><time>2026-05-03T10:24:40.198Z</time></trkpt><trkpt lat="44.6764637" lon="10.0958016"><ele>155.8</ele><time>2026-05-03T10:24:41.195Z</time></trkpt><trkpt lat="44.6765472" lon="10.0957369"><ele>155.4</ele><time>2026-05-03T10:24:42.199Z</time></trkpt><trkpt lat="44.6766245" lon="10.0956831"><ele>155.0</ele><time>2026-05-03T10:24:43.195Z</time></trkpt><trkpt lat="44.676709" lon="10.0956317"><ele>155.0</ele><time>2026-05-03T10:24:44.198Z</time></trkpt><trkpt lat="44.6767988" lon="10.0955829"><ele>155.0</ele><time>2026-05-03T10:24:45.191Z</time></trkpt><trkpt lat="44.6768878" lon="10.0955262"><ele>155.0</ele><time>2026-05-03T10:24:46.192Z</time></trkpt><trkpt lat="44.6769801" lon="10.0954694"><ele>155.0</ele><time>2026-05-03T10:24:47.194Z</time></trkpt><trkpt lat="44.6770795" lon="10.0954149"><ele>155.0</ele><time>2026-05-03T10:24:48.189Z</time></trkpt><trkpt lat="44.6771802" lon="10.0953675"><ele>154.6</ele><time>2026-05-03T10:24:49.19Z</time></trkpt><trkpt lat="44.677276" lon="10.0953242"><ele>154.2</ele><time>2026-05-03T10:24:50.192Z</time></trkpt><trkpt lat="44.6773691" lon="10.095276"><ele>153.8</ele><time>2026-05-03T10:24:51.189Z</time></trkpt><trkpt lat="44.6774615" lon="10.0952261"><ele>153.4</ele><time>2026-05-03T10:24:52.191Z</time></trkpt><trkpt lat="44.6775569" lon="10.0951787"><ele>153.0</ele><time>2026-05-03T10:24:53.192Z</time></trkpt><trkpt lat="44.6776486" lon="10.0951283"><ele>153.0</ele><time>2026-05-03T10:24:54.19Z</time></trkpt><trkpt lat="44.6777372" lon="10.0950681"><ele>153.0</ele><time>2026-05-03T10:24:55.191Z</time></trkpt><trkpt lat="44.6778199" lon="10.0950086"><ele>153.0</ele><time>2026-05-03T10:24:56.189Z</time></trkpt><trkpt lat="44.6779187" lon="10.094947"><ele>153.0</ele><time>2026-05-03T10:24:57.189Z</time></trkpt><trkpt lat="44.6780279" lon="10.094878"><ele>153.0</ele><time>2026-05-03T10:24:58.191Z</time></trkpt><trkpt lat="44.6781429" lon="10.0948177"><ele>151.75</ele><time>2026-05-03T10:24:59.191Z</time></trkpt><trkpt lat="44.6782568" lon="10.0947742"><ele>150.5</ele><time>2026-05-03T10:25:00.195Z</time></trkpt><trkpt lat="44.6783765" lon="10.0947296"><ele>149.25</ele><time>2026-05-03T10:25:01.196Z</time></trkpt><trkpt lat="44.6784987" lon="10.0946739"><ele>148.0</ele><time>2026-05-03T10:25:02.193Z</time></trkpt><trkpt lat="44.6786213" lon="10.0946121"><ele>148.0</ele><time>2026-05-03T10:25:03.193Z</time></trkpt><trkpt lat="44.6787505" lon="10.0945609"><ele>148.0</ele><time>2026-05-03T10:25:04.193Z</time></trkpt><trkpt lat="44.6788687" lon="10.0945106"><ele>148.0</ele><time>2026-05-03T10:25:05.196Z</time></trkpt><trkpt lat="44.6789661" lon="10.0944649"><ele>148.0</ele><time>2026-05-03T10:25:06.192Z</time></trkpt><trkpt lat="44.6790425" lon="10.0944385"><ele>148.0</ele><time>2026-05-03T10:25:07.194Z</time></trkpt><trkpt lat="44.6791215" lon="10.0944351"><ele>148.0</ele><time>2026-05-03T10:25:10.201Z</time></trkpt><trkpt lat="44.6792652" lon="10.0944656"><ele>148.0</ele><time>2026-05-03T10:25:12.193Z</time></trkpt><trkpt lat="44.6793655" lon="10.0944818"><ele>148.0</ele><time>2026-05-03T10:25:13.191Z</time></trkpt><trkpt lat="44.679473" lon="10.0945172"><ele>148.0</ele><time>2026-05-03T10:25:14.188Z</time></trkpt><trkpt lat="44.6795881" lon="10.0945822"><ele>148.0</ele><time>2026-05-03T10:25:15.189Z</time></trkpt><trkpt lat="44.6797123" lon="10.0946715"><ele>148.0</ele><time>2026-05-03T10:25:16.19Z</time></trkpt><trkpt lat="44.6798442" lon="10.0947616"><ele>148.0</ele><time>2026-05-03T10:25:17.194Z</time></trkpt><trkpt lat="44.6799925" lon="10.0948512"><ele>148.0</ele><time>2026-05-03T10:25:18.19Z</time></trkpt><trkpt lat="44.6801861" lon="10.094949"><ele>147.0</ele><time>2026-05-03T10:25:19.193Z</time></trkpt><trkpt lat="44.6803588" lon="10.0950402"><ele>146.0</ele><time>2026-05-03T10:25:20.192Z</time></trkpt><trkpt lat="44.6805219" lon="10.0951181"><ele>145.0</ele><time>2026-05-03T10:25:21.194Z</time></trkpt><trkpt lat="44.6806673" lon="10.0952109"><ele>145.0</ele><time>2026-05-03T10:25:22.192Z</time></trkpt><trkpt lat="44.6808157" lon="10.0953225"><ele>145.0</ele><time>2026-05-03T10:25:23.191Z</time></trkpt><trkpt lat="44.6809776" lon="10.0954168"><ele>145.0</ele><time>2026-05-03T10:25:24.195Z</time></trkpt><trkpt lat="44.6811285" lon="10.0955019"><ele>145.33333333333334</ele><time>2026-05-03T10:25:25.192Z</time></trkpt><trkpt lat="44.6812723" lon="10.095551"><ele>145.66666666666666</ele><time>2026-05-03T10:25:26.193Z</time></trkpt><trkpt lat="44.6814156" lon="10.0956498"><ele>146.0</ele><time>2026-05-03T10:25:27.194Z</time></trkpt><trkpt lat="44.681553" lon="10.0957115"><ele>146.75</ele><time>2026-05-03T10:25:28.191Z</time></trkpt><trkpt lat="44.6816868" lon="10.0957564"><ele>147.5</ele><time>2026-05-03T10:25:29.192Z</time></trkpt><trkpt lat="44.6818308" lon="10.0958061"><ele>148.25</ele><time>2026-05-03T10:25:30.195Z</time></trkpt><trkpt lat="44.681974" lon="10.0958667"><ele>149.0</ele><time>2026-05-03T10:25:31.189Z</time></trkpt><trkpt lat="44.6821477" lon="10.0958975"><ele>149.0</ele><time>2026-05-03T10:25:32.193Z</time></trkpt><trkpt lat="44.6823058" lon="10.0959205"><ele>149.0</ele><time>2026-05-03T10:25:33.188Z</time></trkpt><trkpt lat="44.6824633" lon="10.0959578"><ele>149.0</ele><time>2026-05-03T10:25:34.194Z</time></trkpt><trkpt lat="44.6826124" lon="10.095972"><ele>148.0</ele><time>2026-05-03T10:25:35.192Z</time></trkpt><trkpt lat="44.6827655" lon="10.0959952"><ele>147.0</ele><time>2026-05-03T10:25:36.189Z</time></trkpt><trkpt lat="44.6829294" lon="10.096019"><ele>146.0</ele><time>2026-05-03T10:25:37.19Z</time></trkpt><trkpt lat="44.6831136" lon="10.0960871"><ele>146.0</ele><time>2026-05-03T10:25:38.19Z</time></trkpt><trkpt lat="44.6832915" lon="10.0961164"><ele>146.0</ele><time>2026-05-03T10:25:39.191Z</time></trkpt><trkpt lat="44.6834491" lon="10.0961512"><ele>146.0</ele><time>2026-05-03T10:25:40.189Z</time></trkpt><trkpt lat="44.6835929" lon="10.0961604"><ele>146.0</ele><time>2026-05-03T10:25:41.2Z</time></trkpt><trkpt lat="44.6837829" lon="10.0962027"><ele>146.0</ele><time>2026-05-03T10:25:42.19Z</time></trkpt><trkpt lat="44.6839584" lon="10.0962456"><ele>146.0</ele><time>2026-05-03T10:25:43.192Z</time></trkpt><trkpt lat="44.6841322" lon="10.0962925"><ele>146.0</ele><time>2026-05-03T10:25:44.189Z</time></trkpt><trkpt lat="44.6843386" lon="10.0963595"><ele>146.0</ele><time>2026-05-03T10:25:45.19Z</time></trkpt><trkpt lat="44.6845336" lon="10.096407"><ele>146.0</ele><time>2026-05-03T10:25:46.196Z</time></trkpt><trkpt lat="44.6847384" lon="10.0964424"><ele>145.66666666666666</ele><time>2026-05-03T10:25:47.196Z</time></trkpt><trkpt lat="44.6849437" lon="10.0964984"><ele>145.33333333333334</ele><time>2026-05-03T10:25:48.196Z</time></trkpt><trkpt lat="44.6851479" lon="10.0965318"><ele>145.0</ele><time>2026-05-03T10:25:49.192Z</time></trkpt><trkpt lat="44.685325" lon="10.0965854"><ele>146.0</ele><time>2026-05-03T10:25:50.191Z</time></trkpt><trkpt lat="44.6854847" lon="10.0966128"><ele>147.0</ele><time>2026-05-03T10:25:51.19Z</time></trkpt><trkpt lat="44.6856554" lon="10.0966626"><ele>148.0</ele><time>2026-05-03T10:25:52.195Z</time></trkpt><trkpt lat="44.685833" lon="10.0966984"><ele>148.0</ele><time>2026-05-03T10:25:53.189Z</time></trkpt><trkpt lat="44.6860002" lon="10.0967258"><ele>148.0</ele><time>2026-05-03T10:25:54.196Z</time></trkpt><trkpt lat="44.6861498" lon="10.096755"><ele>148.0</ele><time>2026-05-03T10:25:55.193Z</time></trkpt><trkpt lat="44.6862766" lon="10.0967697"><ele>148.0</ele><time>2026-05-03T10:25:56.195Z</time></trkpt><trkpt lat="44.6864131" lon="10.0967959"><ele>147.25</ele><time>2026-05-03T10:25:57.194Z</time></trkpt><trkpt lat="44.6865576" lon="10.0968237"><ele>146.5</ele><time>2026-05-03T10:25:58.194Z</time></trkpt><trkpt lat="44.6867029" lon="10.0968445"><ele>145.75</ele><time>2026-05-03T10:25:59.195Z</time></trkpt><trkpt lat="44.686853" lon="10.0968768"><ele>145.0</ele><time>2026-05-03T10:26:00.179Z</time></trkpt><trkpt lat="44.6870245" lon="10.0969145"><ele>144.0</ele><time>2026-05-03T10:26:01.182Z</time></trkpt><trkpt lat="44.6871875" lon="10.0969493"><ele>143.0</ele><time>2026-05-03T10:26:02.192Z</time></trkpt><trkpt lat="44.6873518" lon="10.0970118"><ele>142.0</ele><time>2026-05-03T10:26:03.19Z</time></trkpt><trkpt lat="44.6875152" lon="10.0970432"><ele>142.0</ele><time>2026-05-03T10:26:04.192Z</time></trkpt><trkpt lat="44.6876665" lon="10.0971001"><ele>142.0</ele><time>2026-05-03T10:26:05.195Z</time></trkpt><trkpt lat="44.6878117" lon="10.0971402"><ele>142.0</ele><time>2026-05-03T10:26:06.189Z</time></trkpt><trkpt lat="44.68795" lon="10.0971577"><ele>142.0</ele><time>2026-05-03T10:26:07.189Z</time></trkpt><trkpt lat="44.6880784" lon="10.0971695"><ele>141.79999999999998</ele><time>2026-05-03T10:26:08.193Z</time></trkpt><trkpt lat="44.6881913" lon="10.0972039"><ele>141.6</ele><time>2026-05-03T10:26:09.195Z</time></trkpt><trkpt lat="44.6883092" lon="10.0972439"><ele>141.39999999999998</ele><time>2026-05-03T10:26:10.19Z</time></trkpt><trkpt lat="44.6884197" lon="10.0972597"><ele>141.2</ele><time>2026-05-03T10:26:11.192Z</time></trkpt><trkpt lat="44.6885167" lon="10.0972946"><ele>141.0</ele><time>2026-05-03T10:26:12.193Z</time></trkpt><trkpt lat="44.6886261" lon="10.0973147"><ele>141.0</ele><time>2026-05-03T10:26:13.194Z</time></trkpt><trkpt lat="44.6887434" lon="10.0973344"><ele>141.0</ele><time>2026-05-03T10:26:14.194Z</time></trkpt><trkpt lat="44.6888696" lon="10.0973622"><ele>141.0</ele><time>2026-05-03T10:26:15.191Z</time></trkpt><trkpt lat="44.6889913" lon="10.0973875"><ele>141.0</ele><time>2026-05-03T10:26:16.192Z</time></trkpt><trkpt lat="44.6891256" lon="10.0974213"><ele>143.5</ele><time>2026-05-03T10:26:17.194Z</time></trkpt><trkpt lat="44.6892608" lon="10.0974535"><ele>146.0</ele><time>2026-05-03T10:26:18.178Z</time></trkpt><trkpt lat="44.689382" lon="10.0974932"><ele>148.5</ele><time>2026-05-03T10:26:19.168Z</time></trkpt><trkpt lat="44.6894997" lon="10.0975382"><ele>151.0</ele><time>2026-05-03T10:26:20.179Z</time></trkpt><trkpt lat="44.689607" lon="10.0975926"><ele>151.8</ele><time>2026-05-03T10:26:21.189Z</time></trkpt><trkpt lat="44.6897171" lon="10.0976456"><ele>152.6</ele><time>2026-05-03T10:26:22.189Z</time></trkpt><trkpt lat="44.6898117" lon="10.0977189"><ele>153.4</ele><time>2026-05-03T10:26:23.194Z</time></trkpt><trkpt lat="44.6899037" lon="10.0977995"><ele>154.2</ele><time>2026-05-03T10:26:24.193Z</time></trkpt><trkpt lat="44.6899877" lon="10.0978878"><ele>155.0</ele><time>2026-05-03T10:26:25.187Z</time></trkpt><trkpt lat="44.6900574" lon="10.097986"><ele>155.0</ele><time>2026-05-03T10:26:26.186Z</time></trkpt><trkpt lat="44.6901118" lon="10.098082"><ele>155.0</ele><time>2026-05-03T10:26:27.188Z</time></trkpt><trkpt lat="44.6901506" lon="10.0981852"><ele>155.0</ele><time>2026-05-03T10:26:28.176Z</time></trkpt><trkpt lat="44.6901843" lon="10.0982835"><ele>155.0</ele><time>2026-05-03T10:26:29.169Z</time></trkpt><trkpt lat="44.6902301" lon="10.0983758"><ele>155.0</ele><time>2026-05-03T10:26:30.172Z</time></trkpt><trkpt lat="44.6902764" lon="10.0984456"><ele>155.0</ele><time>2026-05-03T10:26:31.171Z</time></trkpt><trkpt lat="44.6903449" lon="10.0984722"><ele>155.16666666666666</ele><time>2026-05-03T10:26:32.166Z</time></trkpt><trkpt lat="44.690419" lon="10.0985078"><ele>155.33333333333331</ele><time>2026-05-03T10:26:33.169Z</time></trkpt><trkpt lat="44.6905153" lon="10.0985434"><ele>155.5</ele><time>2026-05-03T10:26:34.181Z</time></trkpt><trkpt lat="44.6905831" lon="10.0985894"><ele>155.66666666666666</ele><time>2026-05-03T10:26:35.19Z</time></trkpt><trkpt lat="44.690636" lon="10.0986587"><ele>155.83333333333334</ele><time>2026-05-03T10:26:36.189Z</time></trkpt><trkpt lat="44.6906988" lon="10.0987292"><ele>156.0</ele><time>2026-05-03T10:26:37.175Z</time></trkpt><trkpt lat="44.6908052" lon="10.098826"><ele>156.0</ele><time>2026-05-03T10:26:39.166Z</time></trkpt><trkpt lat="44.6908759" lon="10.0988992"><ele>156.0</ele><time>2026-05-03T10:26:40.166Z</time></trkpt><trkpt lat="44.6909561" lon="10.0989546"><ele>156.0</ele><time>2026-05-03T10:26:41.167Z</time></trkpt><trkpt lat="44.6910346" lon="10.099034"><ele>156.0</ele><time>2026-05-03T10:26:42.163Z</time></trkpt><trkpt lat="44.6911038" lon="10.0991129"><ele>156.0</ele><time>2026-05-03T10:26:43.19Z</time></trkpt><trkpt lat="44.6911705" lon="10.0991791"><ele>156.0</ele><time>2026-05-03T10:26:44.196Z</time></trkpt><trkpt lat="44.6912669" lon="10.0992571"><ele>154.5</ele><time>2026-05-03T10:26:45.192Z</time></trkpt><trkpt lat="44.6913631" lon="10.0993459"><ele>153.0</ele><time>2026-05-03T10:26:46.18Z</time></trkpt><trkpt lat="44.6914379" lon="10.0994249"><ele>151.5</ele><time>2026-05-03T10:26:47.185Z</time></trkpt><trkpt lat="44.6914966" lon="10.0995089"><ele>150.0</ele><time>2026-05-03T10:26:48.198Z</time></trkpt><trkpt lat="44.6915544" lon="10.0995612"><ele>148.5</ele><time>2026-05-03T10:26:49.194Z</time></trkpt><trkpt lat="44.6916067" lon="10.0996143"><ele>147.0</ele><time>2026-05-03T10:26:50.196Z</time></trkpt><trkpt lat="44.6916505" lon="10.0996975"><ele>147.0</ele><time>2026-05-03T10:26:54.196Z</time></trkpt><trkpt lat="44.6916705" lon="10.0997832"><ele>147.0</ele><time>2026-05-03T10:26:57.194Z</time></trkpt><trkpt lat="44.6917363" lon="10.0996639"><ele>147.0</ele><time>2026-05-03T10:27:00.196Z</time></trkpt><trkpt lat="44.6917649" lon="10.0995699"><ele>147.0</ele><time>2026-05-03T10:27:01.191Z</time></trkpt><trkpt lat="44.6917934" lon="10.0994882"><ele>147.0</ele><time>2026-05-03T10:27:02.194Z</time></trkpt><trkpt lat="44.6918532" lon="10.0994161"><ele>147.0</ele><time>2026-05-03T10:27:03.191Z</time></trkpt><trkpt lat="44.6919339" lon="10.0993559"><ele>145.75</ele><time>2026-05-03T10:27:04.193Z</time></trkpt><trkpt lat="44.6920257" lon="10.0993086"><ele>144.5</ele><time>2026-05-03T10:27:05.192Z</time></trkpt><trkpt lat="44.6921311" lon="10.0992674"><ele>143.25</ele><time>2026-05-03T10:27:06.188Z</time></trkpt><trkpt lat="44.6922518" lon="10.0992239"><ele>142.0</ele><time>2026-05-03T10:27:07.193Z</time></trkpt><trkpt lat="44.6923851" lon="10.0991613"><ele>142.0</ele><time>2026-05-03T10:27:08.192Z</time></trkpt><trkpt lat="44.6925014" lon="10.0990853"><ele>142.0</ele><time>2026-05-03T10:27:09.19Z</time></trkpt><trkpt lat="44.6926086" lon="10.0989691"><ele>142.0</ele><time>2026-05-03T10:27:10.191Z</time></trkpt><trkpt lat="44.6927027" lon="10.098825"><ele>142.0</ele><time>2026-05-03T10:27:11.187Z</time></trkpt><trkpt lat="44.6927933" lon="10.0987013"><ele>141.25</ele><time>2026-05-03T10:27:12.184Z</time></trkpt><trkpt lat="44.6928759" lon="10.0985568"><ele>140.5</ele><time>2026-05-03T10:27:13.181Z</time></trkpt><trkpt lat="44.6929485" lon="10.0984166"><ele>139.75</ele><time>2026-05-03T10:27:14.189Z</time></trkpt><trkpt lat="44.6930218" lon="10.0983036"><ele>139.0</ele><time>2026-05-03T10:27:15.184Z</time></trkpt><trkpt lat="44.6930907" lon="10.0982029"><ele>139.0</ele><time>2026-05-03T10:27:16.187Z</time></trkpt><trkpt lat="44.6931535" lon="10.0981053"><ele>139.0</ele><time>2026-05-03T10:27:17.183Z</time></trkpt><trkpt lat="44.6932074" lon="10.0980082"><ele>139.0</ele><time>2026-05-03T10:27:18.186Z</time></trkpt><trkpt lat="44.6932605" lon="10.0979075"><ele>139.0</ele><time>2026-05-03T10:27:19.184Z</time></trkpt><trkpt lat="44.6933183" lon="10.0977979"><ele>139.0</ele><time>2026-05-03T10:27:20.183Z</time></trkpt><trkpt lat="44.6933761" lon="10.0976858"><ele>139.0</ele><time>2026-05-03T10:27:21.181Z</time></trkpt><trkpt lat="44.693434" lon="10.0975799"><ele>139.0</ele><time>2026-05-03T10:27:22.182Z</time></trkpt><trkpt lat="44.6934874" lon="10.0974731"><ele>139.0</ele><time>2026-05-03T10:27:23.18Z</time></trkpt><trkpt lat="44.6935414" lon="10.0973659"><ele>139.0</ele><time>2026-05-03T10:27:24.185Z</time></trkpt><trkpt lat="44.6935897" lon="10.097262"><ele>139.0</ele><time>2026-05-03T10:27:25.183Z</time></trkpt><trkpt lat="44.6936393" lon="10.097149"><ele>138.5</ele><time>2026-05-03T10:27:26.182Z</time></trkpt><trkpt lat="44.6936924" lon="10.0970142"><ele>138.0</ele><time>2026-05-03T10:27:27.187Z</time></trkpt><trkpt lat="44.6937573" lon="10.096882"><ele>137.5</ele><time>2026-05-03T10:27:28.185Z</time></trkpt><trkpt lat="44.6938365" lon="10.096738"><ele>137.0</ele><time>2026-05-03T10:27:29.167Z</time></trkpt><trkpt lat="44.6939218" lon="10.0965887"><ele>136.0</ele><time>2026-05-03T10:27:30.161Z</time></trkpt><trkpt lat="44.6940043" lon="10.0963996"><ele>135.0</ele><time>2026-05-03T10:27:31.176Z</time></trkpt><trkpt lat="44.6941021" lon="10.0962275"><ele>134.0</ele><time>2026-05-03T10:27:32.169Z</time></trkpt><trkpt lat="44.6941975" lon="10.0960522"><ele>134.0</ele><time>2026-05-03T10:27:33.162Z</time></trkpt><trkpt lat="44.6942902" lon="10.0958654"><ele>134.0</ele><time>2026-05-03T10:27:34.162Z</time></trkpt><trkpt lat="44.6943919" lon="10.0956833"><ele>134.0</ele><time>2026-05-03T10:27:35.16Z</time></trkpt><trkpt lat="44.6944918" lon="10.0954933"><ele>133.66666666666666</ele><time>2026-05-03T10:27:36.161Z</time></trkpt><trkpt lat="44.6945978" lon="10.0953252"><ele>133.33333333333334</ele><time>2026-05-03T10:27:37.16Z</time></trkpt><trkpt lat="44.6947047" lon="10.0951663"><ele>133.0</ele><time>2026-05-03T10:27:38.159Z</time></trkpt><trkpt lat="44.6948075" lon="10.0949935"><ele>133.0</ele><time>2026-05-03T10:27:39.161Z</time></trkpt><trkpt lat="44.6949059" lon="10.0948193"><ele>133.0</ele><time>2026-05-03T10:27:40.161Z</time></trkpt><trkpt lat="44.6950023" lon="10.0946351"><ele>133.0</ele><time>2026-05-03T10:27:41.163Z</time></trkpt><trkpt lat="44.6950976" lon="10.0944477"><ele>133.0</ele><time>2026-05-03T10:27:42.162Z</time></trkpt><trkpt lat="44.695209" lon="10.0942462"><ele>133.0</ele><time>2026-05-03T10:27:43.163Z</time></trkpt><trkpt lat="44.6953344" lon="10.0940552"><ele>133.0</ele><time>2026-05-03T10:27:44.163Z</time></trkpt><trkpt lat="44.695446" lon="10.0938561"><ele>132.66666666666669</ele><time>2026-05-03T10:27:45.163Z</time></trkpt><trkpt lat="44.6955695" lon="10.0936745"><ele>132.33333333333334</ele><time>2026-05-03T10:27:46.16Z</time></trkpt><trkpt lat="44.6956797" lon="10.093498"><ele>132.0</ele><time>2026-05-03T10:27:47.157Z</time></trkpt><trkpt lat="44.6957875" lon="10.0933279"><ele>132.66666666666666</ele><time>2026-05-03T10:27:48.176Z</time></trkpt><trkpt lat="44.6958926" lon="10.0931218"><ele>133.33333333333331</ele><time>2026-05-03T10:27:49.184Z</time></trkpt><trkpt lat="44.6959956" lon="10.092928"><ele>134.0</ele><time>2026-05-03T10:27:50.188Z</time></trkpt><trkpt lat="44.696094" lon="10.0927587"><ele>134.0</ele><time>2026-05-03T10:27:51.183Z</time></trkpt><trkpt lat="44.6961857" lon="10.0926055"><ele>134.0</ele><time>2026-05-03T10:27:52.185Z</time></trkpt><trkpt lat="44.6962571" lon="10.092426"><ele>134.0</ele><time>2026-05-03T10:27:53.186Z</time></trkpt><trkpt lat="44.6963389" lon="10.0922634"><ele>134.0</ele><time>2026-05-03T10:27:54.188Z</time></trkpt><trkpt lat="44.6964194" lon="10.0921403"><ele>135.0</ele><time>2026-05-03T10:27:55.183Z</time></trkpt><trkpt lat="44.6965099" lon="10.0920343"><ele>136.0</ele><time>2026-05-03T10:27:56.187Z</time></trkpt><trkpt lat="44.6965753" lon="10.0918607"><ele>137.0</ele><time>2026-05-03T10:27:57.186Z</time></trkpt><trkpt lat="44.6966525" lon="10.091717"><ele>138.0</ele><time>2026-05-03T10:27:58.184Z</time></trkpt><trkpt lat="44.6967276" lon="10.091581"><ele>139.0</ele><time>2026-05-03T10:27:59.182Z</time></trkpt><trkpt lat="44.6968238" lon="10.0914183"><ele>140.0</ele><time>2026-05-03T10:28:00.169Z</time></trkpt><trkpt lat="44.696929" lon="10.0912576"><ele>141.0</ele><time>2026-05-03T10:28:01.179Z</time></trkpt><trkpt lat="44.6970147" lon="10.0911163"><ele>142.0</ele><time>2026-05-03T10:28:02.184Z</time></trkpt><trkpt lat="44.6970891" lon="10.090967"><ele>142.0</ele><time>2026-05-03T10:28:03.185Z</time></trkpt><trkpt lat="44.6971777" lon="10.090786"><ele>142.0</ele><time>2026-05-03T10:28:04.189Z</time></trkpt><trkpt lat="44.6972446" lon="10.0906389"><ele>142.0</ele><time>2026-05-03T10:28:05.189Z</time></trkpt><trkpt lat="44.6973221" lon="10.0904832"><ele>142.0</ele><time>2026-05-03T10:28:06.187Z</time></trkpt><trkpt lat="44.6974113" lon="10.0903492"><ele>142.5</ele><time>2026-05-03T10:28:07.173Z</time></trkpt><trkpt lat="44.6975099" lon="10.090233"><ele>143.0</ele><time>2026-05-03T10:28:08.164Z</time></trkpt><trkpt lat="44.6975764" lon="10.0901157"><ele>143.5</ele><time>2026-05-03T10:28:09.181Z</time></trkpt><trkpt lat="44.6976553" lon="10.08999"><ele>144.0</ele><time>2026-05-03T10:28:10.174Z</time></trkpt><trkpt lat="44.6977327" lon="10.089886"><ele>145.0</ele><time>2026-05-03T10:28:11.184Z</time></trkpt><trkpt lat="44.6977737" lon="10.0897528"><ele>146.0</ele><time>2026-05-03T10:28:12.19Z</time></trkpt><trkpt lat="44.6978135" lon="10.0896408"><ele>147.0</ele><time>2026-05-03T10:28:13.19Z</time></trkpt><trkpt lat="44.6978575" lon="10.0895565"><ele>148.0</ele><time>2026-05-03T10:28:14.174Z</time></trkpt><trkpt lat="44.697915" lon="10.0894494"><ele>149.0</ele><time>2026-05-03T10:28:16.19Z</time></trkpt><trkpt lat="44.6979886" lon="10.0893581"><ele>149.0</ele><time>2026-05-03T10:28:18.19Z</time></trkpt><trkpt lat="44.6981241" lon="10.089305"><ele>149.0</ele><time>2026-05-03T10:28:20.192Z</time></trkpt><trkpt lat="44.6982251" lon="10.0892927"><ele>149.0</ele><time>2026-05-03T10:28:21.192Z</time></trkpt><trkpt lat="44.698331" lon="10.0893033"><ele>149.0</ele><time>2026-05-03T10:28:22.188Z</time></trkpt><trkpt lat="44.6984449" lon="10.0893479"><ele>149.0</ele><time>2026-05-03T10:28:23.187Z</time></trkpt><trkpt lat="44.6985777" lon="10.0894075"><ele>149.0</ele><time>2026-05-03T10:28:24.195Z</time></trkpt><trkpt lat="44.6986991" lon="10.0894909"><ele>149.0</ele><time>2026-05-03T10:28:25.173Z</time></trkpt><trkpt lat="44.6988357" lon="10.0896181"><ele>149.0</ele><time>2026-05-03T10:28:26.186Z</time></trkpt><trkpt lat="44.6989897" lon="10.0897639"><ele>149.0</ele><time>2026-05-03T10:28:27.194Z</time></trkpt><trkpt lat="44.699147" lon="10.0899434"><ele>149.0</ele><time>2026-05-03T10:28:28.193Z</time></trkpt><trkpt lat="44.6992947" lon="10.0900856"><ele>149.0</ele><time>2026-05-03T10:28:29.192Z</time></trkpt><trkpt lat="44.6994477" lon="10.0902691"><ele>151.33333333333331</ele><time>2026-05-03T10:28:30.194Z</time></trkpt><trkpt lat="44.6996073" lon="10.09042"><ele>153.66666666666666</ele><time>2026-05-03T10:28:31.189Z</time></trkpt><trkpt lat="44.6997731" lon="10.090537"><ele>156.0</ele><time>2026-05-03T10:28:32.19Z</time></trkpt><trkpt lat="44.6999053" lon="10.0906504"><ele>156.0</ele><time>2026-05-03T10:28:33.188Z</time></trkpt><trkpt lat="44.7000417" lon="10.0907867"><ele>156.0</ele><time>2026-05-03T10:28:34.193Z</time></trkpt><trkpt lat="44.7001891" lon="10.0909099"><ele>156.0</ele><time>2026-05-03T10:28:35.188Z</time></trkpt><trkpt lat="44.7003129" lon="10.0910412"><ele>156.0</ele><time>2026-05-03T10:28:36.192Z</time></trkpt><trkpt lat="44.7004558" lon="10.0911808"><ele>156.0</ele><time>2026-05-03T10:28:37.189Z</time></trkpt><trkpt lat="44.7005559" lon="10.091315"><ele>156.0</ele><time>2026-05-03T10:28:38.191Z</time></trkpt><trkpt lat="44.7006721" lon="10.0914414"><ele>156.0</ele><time>2026-05-03T10:28:39.191Z</time></trkpt><trkpt lat="44.7007503" lon="10.0915709"><ele>156.0</ele><time>2026-05-03T10:28:40.19Z</time></trkpt><trkpt lat="44.7008577" lon="10.0916808"><ele>156.0</ele><time>2026-05-03T10:28:41.195Z</time></trkpt><trkpt lat="44.7009644" lon="10.091767"><ele>156.0</ele><time>2026-05-03T10:28:42.188Z</time></trkpt><trkpt lat="44.701132" lon="10.0919066"><ele>154.0</ele><time>2026-05-03T10:28:43.192Z</time></trkpt><trkpt lat="44.7012627" lon="10.0920664"><ele>152.0</ele><time>2026-05-03T10:28:44.192Z</time></trkpt><trkpt lat="44.7013848" lon="10.0922345"><ele>150.0</ele><time>2026-05-03T10:28:45.193Z</time></trkpt><trkpt lat="44.7015157" lon="10.0923888"><ele>148.66666666666666</ele><time>2026-05-03T10:28:46.171Z</time></trkpt><trkpt lat="44.7016497" lon="10.0925725"><ele>147.33333333333331</ele><time>2026-05-03T10:28:47.186Z</time></trkpt><trkpt lat="44.7017735" lon="10.0927623"><ele>146.0</ele><time>2026-05-03T10:28:48.186Z</time></trkpt><trkpt lat="44.7018983" lon="10.0928638"><ele>147.25</ele><time>2026-05-03T10:28:49.19Z</time></trkpt><trkpt lat="44.7020072" lon="10.0929755"><ele>148.5</ele><time>2026-05-03T10:28:50.172Z</time></trkpt><trkpt lat="44.702114" lon="10.0930493"><ele>149.75</ele><time>2026-05-03T10:28:51.167Z</time></trkpt><trkpt lat="44.7022173" lon="10.0931351"><ele>151.0</ele><time>2026-05-03T10:28:52.162Z</time></trkpt><trkpt lat="44.7023153" lon="10.0932089"><ele>150.4</ele><time>2026-05-03T10:28:53.162Z</time></trkpt><trkpt lat="44.702402" lon="10.0932961"><ele>149.8</ele><time>2026-05-03T10:28:54.167Z</time></trkpt><trkpt lat="44.7024913" lon="10.0933833"><ele>149.20000000000002</ele><time>2026-05-03T10:28:55.18Z</time></trkpt><trkpt lat="44.7025565" lon="10.0934697"><ele>148.6</ele><time>2026-05-03T10:28:56.188Z</time></trkpt><trkpt lat="44.702629" lon="10.0935431"><ele>148.0</ele><time>2026-05-03T10:28:57.196Z</time></trkpt><trkpt lat="44.702682" lon="10.0936152"><ele>148.0</ele><time>2026-05-03T10:28:58.192Z</time></trkpt><trkpt lat="44.7027121" lon="10.0937653"><ele>148.0</ele><time>2026-05-03T10:29:00.19Z</time></trkpt><trkpt lat="44.7027018" lon="10.0939145"><ele>148.0</ele><time>2026-05-03T10:29:02.192Z</time></trkpt><trkpt lat="44.702735" lon="10.0940139"><ele>148.0</ele><time>2026-05-03T10:29:06.194Z</time></trkpt><trkpt lat="44.7027978" lon="10.094033"><ele>148.0</ele><time>2026-05-03T10:31:08.202Z</time></trkpt><trkpt lat="44.7027129" lon="10.0940378"><ele>148.0</ele><time>2026-05-03T10:31:13.201Z</time></trkpt><trkpt lat="44.7027991" lon="10.0939212"><ele>149.0</ele><time>2026-05-03T10:32:25.198Z</time></trkpt><trkpt lat="44.7028703" lon="10.0938626"><ele>150.0</ele><time>2026-05-03T10:32:26.199Z</time></trkpt><trkpt lat="44.7029442" lon="10.0938308"><ele>151.0</ele><time>2026-05-03T10:32:27.195Z</time></trkpt><trkpt lat="44.7030395" lon="10.0938738"><ele>152.0</ele><time>2026-05-03T10:32:29.201Z</time></trkpt><trkpt lat="44.703112" lon="10.0938661"><ele>153.0</ele><time>2026-05-03T10:32:34.2Z</time></trkpt><trkpt lat="44.7031885" lon="10.0938946"><ele>154.0</ele><time>2026-05-03T10:32:36.199Z</time></trkpt><trkpt lat="44.7032434" lon="10.0939452"><ele>154.0</ele><time>2026-05-03T10:32:37.199Z</time></trkpt><trkpt lat="44.7033131" lon="10.0940049"><ele>154.0</ele><time>2026-05-03T10:32:38.2Z</time></trkpt><trkpt lat="44.7033901" lon="10.0941015"><ele>154.0</ele><time>2026-05-03T10:32:39.201Z</time></trkpt><trkpt lat="44.7034762" lon="10.0941811"><ele>154.0</ele><time>2026-05-03T10:32:40.197Z</time></trkpt><trkpt lat="44.7035687" lon="10.0942801"><ele>154.0</ele><time>2026-05-03T10:32:41.196Z</time></trkpt><trkpt lat="44.7036608" lon="10.0943593"><ele>154.0</ele><time>2026-05-03T10:32:42.195Z</time></trkpt><trkpt lat="44.703751" lon="10.0944431"><ele>154.0</ele><time>2026-05-03T10:32:43.195Z</time></trkpt><trkpt lat="44.7038394" lon="10.0945242"><ele>154.0</ele><time>2026-05-03T10:32:44.198Z</time></trkpt><trkpt lat="44.7039246" lon="10.0946174"><ele>154.0</ele><time>2026-05-03T10:32:45.197Z</time></trkpt><trkpt lat="44.7040241" lon="10.0947447"><ele>154.0</ele><time>2026-05-03T10:32:46.2Z</time></trkpt><trkpt lat="44.7041165" lon="10.0948739"><ele>154.0</ele><time>2026-05-03T10:32:47.203Z</time></trkpt><trkpt lat="44.7042026" lon="10.0950247"><ele>154.0</ele><time>2026-05-03T10:32:48.202Z</time></trkpt><trkpt lat="44.7042933" lon="10.0951803"><ele>154.0</ele><time>2026-05-03T10:32:49.203Z</time></trkpt><trkpt lat="44.7044002" lon="10.0953497"><ele>153.5</ele><time>2026-05-03T10:32:50.203Z</time></trkpt><trkpt lat="44.7044714" lon="10.0955116"><ele>153.0</ele><time>2026-05-03T10:32:51.199Z</time></trkpt><trkpt lat="44.7045363" lon="10.0957072"><ele>152.5</ele><time>2026-05-03T10:32:52.2Z</time></trkpt><trkpt lat="44.7046123" lon="10.0958824"><ele>152.0</ele><time>2026-05-03T10:32:53.198Z</time></trkpt><trkpt lat="44.7046802" lon="10.0960473"><ele>150.0</ele><time>2026-05-03T10:32:54.203Z</time></trkpt><trkpt lat="44.7047409" lon="10.0961702"><ele>148.0</ele><time>2026-05-03T10:32:55.202Z</time></trkpt><trkpt lat="44.704831" lon="10.0963265"><ele>146.0</ele><time>2026-05-03T10:32:56.205Z</time></trkpt><trkpt lat="44.7049482" lon="10.0964848"><ele>144.0</ele><time>2026-05-03T10:32:57.202Z</time></trkpt><trkpt lat="44.7050515" lon="10.0966771"><ele>143.0</ele><time>2026-05-03T10:32:58.202Z</time></trkpt><trkpt lat="44.7051378" lon="10.0969211"><ele>142.0</ele><time>2026-05-03T10:32:59.199Z</time></trkpt><trkpt lat="44.7052357" lon="10.0971416"><ele>141.0</ele><time>2026-05-03T10:33:00.202Z</time></trkpt><trkpt lat="44.7053669" lon="10.0973732"><ele>142.0</ele><time>2026-05-03T10:33:01.201Z</time></trkpt><trkpt lat="44.7054805" lon="10.0976021"><ele>143.0</ele><time>2026-05-03T10:33:02.201Z</time></trkpt><trkpt lat="44.705582" lon="10.0978144"><ele>144.0</ele><time>2026-05-03T10:33:03.201Z</time></trkpt><trkpt lat="44.7056883" lon="10.0979964"><ele>144.0</ele><time>2026-05-03T10:33:04.2Z</time></trkpt><trkpt lat="44.705802" lon="10.098152"><ele>144.0</ele><time>2026-05-03T10:33:05.193Z</time></trkpt><trkpt lat="44.7059481" lon="10.0982615"><ele>144.0</ele><time>2026-05-03T10:33:06.198Z</time></trkpt><trkpt lat="44.7060917" lon="10.0983824"><ele>144.33333333333334</ele><time>2026-05-03T10:33:07.195Z</time></trkpt><trkpt lat="44.7062473" lon="10.0984901"><ele>144.66666666666669</ele><time>2026-05-03T10:33:08.2Z</time></trkpt><trkpt lat="44.7064186" lon="10.0985822"><ele>145.0</ele><time>2026-05-03T10:33:09.203Z</time></trkpt><trkpt lat="44.7065751" lon="10.0986876"><ele>145.0</ele><time>2026-05-03T10:33:10.196Z</time></trkpt><trkpt lat="44.7067534" lon="10.0987759"><ele>145.0</ele><time>2026-05-03T10:33:11.193Z</time></trkpt><trkpt lat="44.7069104" lon="10.0988655"><ele>145.0</ele><time>2026-05-03T10:33:12.198Z</time></trkpt><trkpt lat="44.7070601" lon="10.0989654"><ele>144.66666666666669</ele><time>2026-05-03T10:33:13.191Z</time></trkpt><trkpt lat="44.7072109" lon="10.0991058"><ele>144.33333333333334</ele><time>2026-05-03T10:33:14.197Z</time></trkpt><trkpt lat="44.7073541" lon="10.0992368"><ele>144.0</ele><time>2026-05-03T10:33:15.196Z</time></trkpt><trkpt lat="44.7074752" lon="10.0994002"><ele>144.0</ele><time>2026-05-03T10:33:16.198Z</time></trkpt><trkpt lat="44.7075977" lon="10.099556"><ele>144.0</ele><time>2026-05-03T10:33:17.199Z</time></trkpt><trkpt lat="44.7076953" lon="10.0997589"><ele>144.0</ele><time>2026-05-03T10:33:18.204Z</time></trkpt><trkpt lat="44.7078345" lon="10.0999511"><ele>142.33333333333334</ele><time>2026-05-03T10:33:19.205Z</time></trkpt><trkpt lat="44.7079599" lon="10.1001352"><ele>140.66666666666669</ele><time>2026-05-03T10:33:20.207Z</time></trkpt><trkpt lat="44.7080957" lon="10.1003085"><ele>139.0</ele><time>2026-05-03T10:33:21.202Z</time></trkpt><trkpt lat="44.7082166" lon="10.1004854"><ele>139.0</ele><time>2026-05-03T10:33:22.207Z</time></trkpt><trkpt lat="44.7083395" lon="10.1006512"><ele>139.0</ele><time>2026-05-03T10:33:23.201Z</time></trkpt><trkpt lat="44.7084372" lon="10.1007867"><ele>139.0</ele><time>2026-05-03T10:33:24.201Z</time></trkpt><trkpt lat="44.7085578" lon="10.1009191"><ele>137.33333333333334</ele><time>2026-05-03T10:33:25.202Z</time></trkpt><trkpt lat="44.7087093" lon="10.1010135"><ele>135.66666666666666</ele><time>2026-05-03T10:33:26.189Z</time></trkpt><trkpt lat="44.7088474" lon="10.1010521"><ele>134.0</ele><time>2026-05-03T10:33:27.199Z</time></trkpt><trkpt lat="44.7090003" lon="10.1010429"><ele>134.0</ele><time>2026-05-03T10:33:28.197Z</time></trkpt><trkpt lat="44.7091513" lon="10.1010397"><ele>134.0</ele><time>2026-05-03T10:33:29.198Z</time></trkpt><trkpt lat="44.7093006" lon="10.1010004"><ele>134.0</ele><time>2026-05-03T10:33:30.194Z</time></trkpt><trkpt lat="44.7094611" lon="10.1009952"><ele>134.25</ele><time>2026-05-03T10:33:31.197Z</time></trkpt><trkpt lat="44.7096039" lon="10.1009871"><ele>134.5</ele><time>2026-05-03T10:33:32.199Z</time></trkpt><trkpt lat="44.7097412" lon="10.1009933"><ele>134.75</ele><time>2026-05-03T10:33:33.2Z</time></trkpt><trkpt lat="44.7098875" lon="10.1010007"><ele>135.0</ele><time>2026-05-03T10:33:34.196Z</time></trkpt><trkpt lat="44.7100251" lon="10.1010016"><ele>135.0</ele><time>2026-05-03T10:33:35.196Z</time></trkpt><trkpt lat="44.7101612" lon="10.1010095"><ele>135.0</ele><time>2026-05-03T10:33:36.2Z</time></trkpt><trkpt lat="44.7103146" lon="10.1010068"><ele>135.0</ele><time>2026-05-03T10:33:37.196Z</time></trkpt><trkpt lat="44.7104638" lon="10.1010094"><ele>135.0</ele><time>2026-05-03T10:33:38.201Z</time></trkpt><trkpt lat="44.710622" lon="10.1010145"><ele>135.5</ele><time>2026-05-03T10:33:39.205Z</time></trkpt><trkpt lat="44.7107654" lon="10.1010241"><ele>136.0</ele><time>2026-05-03T10:33:40.2Z</time></trkpt><trkpt lat="44.7108981" lon="10.101018"><ele>136.5</ele><time>2026-05-03T10:33:41.203Z</time></trkpt><trkpt lat="44.7110181" lon="10.1010158"><ele>137.0</ele><time>2026-05-03T10:33:42.199Z</time></trkpt><trkpt lat="44.7111264" lon="10.1010889"><ele>137.75</ele><time>2026-05-03T10:33:43.194Z</time></trkpt><trkpt lat="44.7112591" lon="10.1011762"><ele>138.5</ele><time>2026-05-03T10:33:44.192Z</time></trkpt><trkpt lat="44.7113772" lon="10.1012458"><ele>139.25</ele><time>2026-05-03T10:33:45.196Z</time></trkpt><trkpt lat="44.7114983" lon="10.10133"><ele>140.0</ele><time>2026-05-03T10:33:46.195Z</time></trkpt><trkpt lat="44.7116024" lon="10.1013886"><ele>140.0</ele><time>2026-05-03T10:33:47.192Z</time></trkpt><trkpt lat="44.7117489" lon="10.1014842"><ele>140.0</ele><time>2026-05-03T10:33:48.196Z</time></trkpt><trkpt lat="44.7118997" lon="10.1015406"><ele>140.0</ele><time>2026-05-03T10:33:49.195Z</time></trkpt><trkpt lat="44.7120244" lon="10.1016125"><ele>139.33333333333331</ele><time>2026-05-03T10:33:50.189Z</time></trkpt><trkpt lat="44.7121461" lon="10.1017035"><ele>138.66666666666666</ele><time>2026-05-03T10:33:51.19Z</time></trkpt><trkpt lat="44.7123115" lon="10.101822"><ele>138.0</ele><time>2026-05-03T10:33:52.198Z</time></trkpt><trkpt lat="44.7124615" lon="10.1019421"><ele>138.0</ele><time>2026-05-03T10:33:53.194Z</time></trkpt><trkpt lat="44.7126131" lon="10.1020593"><ele>138.0</ele><time>2026-05-03T10:33:54.2Z</time></trkpt><trkpt lat="44.7127389" lon="10.1021995"><ele>138.0</ele><time>2026-05-03T10:33:55.2Z</time></trkpt><trkpt lat="44.7128903" lon="10.1023218"><ele>137.33333333333334</ele><time>2026-05-03T10:33:56.204Z</time></trkpt><trkpt lat="44.713049" lon="10.1024186"><ele>136.66666666666669</ele><time>2026-05-03T10:33:57.2Z</time></trkpt><trkpt lat="44.7131834" lon="10.1025259"><ele>136.0</ele><time>2026-05-03T10:33:58.203Z</time></trkpt><trkpt lat="44.713338" lon="10.1026166"><ele>136.0</ele><time>2026-05-03T10:33:59.196Z</time></trkpt><trkpt lat="44.7134895" lon="10.1027357"><ele>136.0</ele><time>2026-05-03T10:34:00.202Z</time></trkpt><trkpt lat="44.7136358" lon="10.102845"><ele>136.0</ele><time>2026-05-03T10:34:01.201Z</time></trkpt><trkpt lat="44.713782" lon="10.1029546"><ele>136.0</ele><time>2026-05-03T10:34:02.2Z</time></trkpt><trkpt lat="44.7139504" lon="10.1030734"><ele>136.0</ele><time>2026-05-03T10:34:03.201Z</time></trkpt><trkpt lat="44.714114" lon="10.1031892"><ele>136.0</ele><time>2026-05-03T10:34:04.2Z</time></trkpt><trkpt lat="44.7142315" lon="10.1032872"><ele>136.0</ele><time>2026-05-03T10:34:05.2Z</time></trkpt><trkpt lat="44.7143733" lon="10.103423"><ele>136.0</ele><time>2026-05-03T10:34:06.2Z</time></trkpt><trkpt lat="44.7145018" lon="10.1035275"><ele>136.0</ele><time>2026-05-03T10:34:07.203Z</time></trkpt><trkpt lat="44.7146404" lon="10.1036211"><ele>136.33333333333334</ele><time>2026-05-03T10:34:08.203Z</time></trkpt><trkpt lat="44.7147845" lon="10.1037388"><ele>136.66666666666666</ele><time>2026-05-03T10:34:09.199Z</time></trkpt><trkpt lat="44.7149065" lon="10.1038596"><ele>137.0</ele><time>2026-05-03T10:34:10.204Z</time></trkpt><trkpt lat="44.7150356" lon="10.1039637"><ele>137.0</ele><time>2026-05-03T10:34:11.2Z</time></trkpt><trkpt lat="44.7151875" lon="10.1040485"><ele>137.0</ele><time>2026-05-03T10:34:12.2Z</time></trkpt><trkpt lat="44.7153531" lon="10.104146"><ele>137.0</ele><time>2026-05-03T10:34:13.203Z</time></trkpt><trkpt lat="44.7155107" lon="10.1042484"><ele>137.0</ele><time>2026-05-03T10:34:14.203Z</time></trkpt><trkpt lat="44.71566" lon="10.1043454"><ele>137.0</ele><time>2026-05-03T10:34:15.204Z</time></trkpt><trkpt lat="44.7158079" lon="10.1044262"><ele>137.0</ele><time>2026-05-03T10:34:16.202Z</time></trkpt><trkpt lat="44.7159633" lon="10.1045112"><ele>137.66666666666666</ele><time>2026-05-03T10:34:17.2Z</time></trkpt><trkpt lat="44.716111" lon="10.1046075"><ele>138.33333333333334</ele><time>2026-05-03T10:34:18.2Z</time></trkpt><trkpt lat="44.7162822" lon="10.1046917"><ele>139.0</ele><time>2026-05-03T10:34:19.203Z</time></trkpt><trkpt lat="44.716456" lon="10.104787"><ele>139.0</ele><time>2026-05-03T10:34:20.2Z</time></trkpt><trkpt lat="44.7166188" lon="10.1048477"><ele>139.0</ele><time>2026-05-03T10:34:21.199Z</time></trkpt><trkpt lat="44.7168066" lon="10.1048812"><ele>139.0</ele><time>2026-05-03T10:34:22.199Z</time></trkpt><trkpt lat="44.7170121" lon="10.1048728"><ele>139.66666666666669</ele><time>2026-05-03T10:34:23.202Z</time></trkpt><trkpt lat="44.717197" lon="10.1048687"><ele>140.33333333333334</ele><time>2026-05-03T10:34:24.199Z</time></trkpt><trkpt lat="44.7173818" lon="10.1048927"><ele>141.0</ele><time>2026-05-03T10:34:25.203Z</time></trkpt><trkpt lat="44.7175467" lon="10.104934"><ele>139.33333333333334</ele><time>2026-05-03T10:34:26.201Z</time></trkpt><trkpt lat="44.7177388" lon="10.1050287"><ele>137.66666666666669</ele><time>2026-05-03T10:34:27.2Z</time></trkpt><trkpt lat="44.7178957" lon="10.1050927"><ele>136.0</ele><time>2026-05-03T10:34:28.2Z</time></trkpt><trkpt lat="44.7180212" lon="10.1051911"><ele>136.0</ele><time>2026-05-03T10:34:29.19Z</time></trkpt><trkpt lat="44.7181447" lon="10.1052804"><ele>136.0</ele><time>2026-05-03T10:34:30.194Z</time></trkpt><trkpt lat="44.7182826" lon="10.1054398"><ele>136.0</ele><time>2026-05-03T10:34:31.195Z</time></trkpt><trkpt lat="44.7184453" lon="10.1055843"><ele>136.66666666666669</ele><time>2026-05-03T10:34:32.194Z</time></trkpt><trkpt lat="44.7186044" lon="10.1057164"><ele>137.33333333333334</ele><time>2026-05-03T10:34:33.193Z</time></trkpt><trkpt lat="44.7187724" lon="10.1058269"><ele>138.0</ele><time>2026-05-03T10:34:34.192Z</time></trkpt><trkpt lat="44.7189263" lon="10.1059256"><ele>136.0</ele><time>2026-05-03T10:34:35.196Z</time></trkpt><trkpt lat="44.7190785" lon="10.1060189"><ele>134.0</ele><time>2026-05-03T10:34:36.195Z</time></trkpt><trkpt lat="44.7192388" lon="10.1061281"><ele>132.0</ele><time>2026-05-03T10:34:37.196Z</time></trkpt><trkpt lat="44.7193603" lon="10.1062264"><ele>131.75</ele><time>2026-05-03T10:34:38.193Z</time></trkpt><trkpt lat="44.7194606" lon="10.1063233"><ele>131.5</ele><time>2026-05-03T10:34:39.194Z</time></trkpt><trkpt lat="44.7195951" lon="10.1064456"><ele>131.25</ele><time>2026-05-03T10:34:40.199Z</time></trkpt><trkpt lat="44.7197044" lon="10.1065838"><ele>131.0</ele><time>2026-05-03T10:34:41.196Z</time></trkpt><trkpt lat="44.7198055" lon="10.1067092"><ele>131.0</ele><time>2026-05-03T10:34:42.202Z</time></trkpt><trkpt lat="44.7199063" lon="10.1068448"><ele>131.0</ele><time>2026-05-03T10:34:43.196Z</time></trkpt><trkpt lat="44.7200312" lon="10.1069745"><ele>131.0</ele><time>2026-05-03T10:34:44.196Z</time></trkpt><trkpt lat="44.7201537" lon="10.1071275"><ele>131.0</ele><time>2026-05-03T10:34:45.201Z</time></trkpt><trkpt lat="44.7202805" lon="10.1072718"><ele>131.0</ele><time>2026-05-03T10:34:46.198Z</time></trkpt><trkpt lat="44.7204014" lon="10.1074378"><ele>131.0</ele><time>2026-05-03T10:34:47.201Z</time></trkpt><trkpt lat="44.7204961" lon="10.1075953"><ele>131.0</ele><time>2026-05-03T10:34:48.197Z</time></trkpt><trkpt lat="44.7205985" lon="10.1077513"><ele>131.0</ele><time>2026-05-03T10:34:49.198Z</time></trkpt><trkpt lat="44.7207288" lon="10.1079095"><ele>131.0</ele><time>2026-05-03T10:34:50.204Z</time></trkpt><trkpt lat="44.7208399" lon="10.108075"><ele>131.0</ele><time>2026-05-03T10:34:51.2Z</time></trkpt><trkpt lat="44.7209633" lon="10.1082468"><ele>131.0</ele><time>2026-05-03T10:34:52.202Z</time></trkpt><trkpt lat="44.7211048" lon="10.1083782"><ele>131.0</ele><time>2026-05-03T10:34:53.199Z</time></trkpt><trkpt lat="44.7212679" lon="10.1085307"><ele>131.0</ele><time>2026-05-03T10:34:54.193Z</time></trkpt><trkpt lat="44.7214187" lon="10.1086046"><ele>131.0</ele><time>2026-05-03T10:34:55.199Z</time></trkpt><trkpt lat="44.7215395" lon="10.108695"><ele>131.0</ele><time>2026-05-03T10:34:56.197Z</time></trkpt><trkpt lat="44.7216411" lon="10.1087631"><ele>131.0</ele><time>2026-05-03T10:34:57.201Z</time></trkpt><trkpt lat="44.7217663" lon="10.108855"><ele>131.0</ele><time>2026-05-03T10:34:58.209Z</time></trkpt><trkpt lat="44.7218945" lon="10.1089879"><ele>131.0</ele><time>2026-05-03T10:34:59.194Z</time></trkpt><trkpt lat="44.7220204" lon="10.1091063"><ele>131.0</ele><time>2026-05-03T10:35:00.201Z</time></trkpt><trkpt lat="44.7221341" lon="10.1092055"><ele>131.0</ele><time>2026-05-03T10:35:01.197Z</time></trkpt><trkpt lat="44.7222475" lon="10.1093099"><ele>131.0</ele><time>2026-05-03T10:35:02.2Z</time></trkpt><trkpt lat="44.7223987" lon="10.1093982"><ele>131.0</ele><time>2026-05-03T10:35:03.201Z</time></trkpt><trkpt lat="44.7225268" lon="10.1094971"><ele>131.0</ele><time>2026-05-03T10:35:04.2Z</time></trkpt><trkpt lat="44.7226691" lon="10.1096171"><ele>131.33333333333331</ele><time>2026-05-03T10:35:05.201Z</time></trkpt><trkpt lat="44.7227942" lon="10.1097148"><ele>131.66666666666666</ele><time>2026-05-03T10:35:06.201Z</time></trkpt><trkpt lat="44.7229423" lon="10.1098261"><ele>132.0</ele><time>2026-05-03T10:35:07.197Z</time></trkpt><trkpt lat="44.7230925" lon="10.1099552"><ele>132.0</ele><time>2026-05-03T10:35:08.2Z</time></trkpt><trkpt lat="44.7232493" lon="10.1100479"><ele>132.0</ele><time>2026-05-03T10:35:09.199Z</time></trkpt><trkpt lat="44.7234002" lon="10.1101609"><ele>132.0</ele><time>2026-05-03T10:35:10.193Z</time></trkpt><trkpt lat="44.7235426" lon="10.1102651"><ele>132.5</ele><time>2026-05-03T10:35:11.199Z</time></trkpt><trkpt lat="44.7236807" lon="10.110337"><ele>133.0</ele><time>2026-05-03T10:35:12.195Z</time></trkpt><trkpt lat="44.7238293" lon="10.1104174"><ele>133.5</ele><time>2026-05-03T10:35:13.193Z</time></trkpt><trkpt lat="44.7239447" lon="10.1105127"><ele>134.0</ele><time>2026-05-03T10:35:14.197Z</time></trkpt><trkpt lat="44.7240811" lon="10.110611"><ele>134.0</ele><time>2026-05-03T10:35:15.197Z</time></trkpt><trkpt lat="44.7242048" lon="10.1106608"><ele>134.0</ele><time>2026-05-03T10:35:16.196Z</time></trkpt><trkpt lat="44.7243188" lon="10.1106755"><ele>134.0</ele><time>2026-05-03T10:35:17.195Z</time></trkpt><trkpt lat="44.7243913" lon="10.1107885"><ele>134.0</ele><time>2026-05-03T10:35:18.192Z</time></trkpt><trkpt lat="44.7245155" lon="10.1109652"><ele>134.0</ele><time>2026-05-03T10:35:19.197Z</time></trkpt><trkpt lat="44.7246093" lon="10.1112017"><ele>134.0</ele><time>2026-05-03T10:35:20.19Z</time></trkpt><trkpt lat="44.7246937" lon="10.1114118"><ele>134.0</ele><time>2026-05-03T10:35:21.193Z</time></trkpt><trkpt lat="44.7247822" lon="10.111641"><ele>134.0</ele><time>2026-05-03T10:35:22.205Z</time></trkpt><trkpt lat="44.7248645" lon="10.1118793"><ele>134.0</ele><time>2026-05-03T10:35:23.198Z</time></trkpt><trkpt lat="44.7249445" lon="10.1121045"><ele>134.0</ele><time>2026-05-03T10:35:24.195Z</time></trkpt><trkpt lat="44.7250391" lon="10.1123152"><ele>134.0</ele><time>2026-05-03T10:35:25.19Z</time></trkpt><trkpt lat="44.7250662" lon="10.1124405"><ele>134.0</ele><time>2026-05-03T10:35:26.187Z</time></trkpt><trkpt lat="44.7251201" lon="10.1125389"><ele>134.0</ele><time>2026-05-03T10:35:30.189Z</time></trkpt><trkpt lat="44.725193" lon="10.1126147"><ele>134.0</ele><time>2026-05-03T10:35:33.189Z</time></trkpt><trkpt lat="44.7252761" lon="10.1124583"><ele>134.0</ele><time>2026-05-03T10:35:35.191Z</time></trkpt><trkpt lat="44.7253084" lon="10.1123189"><ele>134.75</ele><time>2026-05-03T10:35:36.192Z</time></trkpt><trkpt lat="44.7253661" lon="10.1121505"><ele>135.5</ele><time>2026-05-03T10:35:37.194Z</time></trkpt><trkpt lat="44.7254345" lon="10.1119955"><ele>136.25</ele><time>2026-05-03T10:35:38.195Z</time></trkpt><trkpt lat="44.7255181" lon="10.111832"><ele>137.0</ele><time>2026-05-03T10:35:39.194Z</time></trkpt><trkpt lat="44.7256259" lon="10.1116585"><ele>137.5</ele><time>2026-05-03T10:35:40.187Z</time></trkpt><trkpt lat="44.7257076" lon="10.1115075"><ele>138.0</ele><time>2026-05-03T10:35:41.189Z</time></trkpt><trkpt lat="44.7257874" lon="10.1113522"><ele>138.5</ele><time>2026-05-03T10:35:42.199Z</time></trkpt><trkpt lat="44.7258769" lon="10.1111932"><ele>139.0</ele><time>2026-05-03T10:35:43.185Z</time></trkpt><trkpt lat="44.725857" lon="10.1109646"><ele>139.0</ele><time>2026-05-03T10:35:44.188Z</time></trkpt><trkpt lat="44.7258168" lon="10.1107518"><ele>139.0</ele><time>2026-05-03T10:35:45.191Z</time></trkpt><trkpt lat="44.7257441" lon="10.1105096"><ele>139.0</ele><time>2026-05-03T10:35:46.184Z</time></trkpt><trkpt lat="44.7256606" lon="10.1102264"><ele>147.0</ele><time>2026-05-03T10:35:47.191Z</time></trkpt><trkpt lat="44.7255413" lon="10.109857"><ele>155.0</ele><time>2026-05-03T10:35:48.194Z</time></trkpt><trkpt lat="44.7254065" lon="10.1095246"><ele>155.0</ele><time>2026-05-03T10:35:49.194Z</time></trkpt><trkpt lat="44.7253063" lon="10.1092157"><ele>155.0</ele><time>2026-05-03T10:35:50.19Z</time></trkpt><trkpt lat="44.7251927" lon="10.1089226"><ele>152.0</ele><time>2026-05-03T10:35:51.196Z</time></trkpt><trkpt lat="44.725106" lon="10.1086523"><ele>149.0</ele><time>2026-05-03T10:35:52.201Z</time></trkpt><trkpt lat="44.7250343" lon="10.1083969"><ele>146.0</ele><time>2026-05-03T10:35:53.209Z</time></trkpt><trkpt lat="44.7249709" lon="10.1081431"><ele>146.0</ele><time>2026-05-03T10:35:54.195Z</time></trkpt><trkpt lat="44.7249157" lon="10.1078726"><ele>146.0</ele><time>2026-05-03T10:35:55.192Z</time></trkpt><trkpt lat="44.7249153" lon="10.1075877"><ele>146.0</ele><time>2026-05-03T10:35:56.195Z</time></trkpt><trkpt lat="44.7249394" lon="10.1073253"><ele>145.0</ele><time>2026-05-03T10:35:57.191Z</time></trkpt><trkpt lat="44.7250008" lon="10.1070741"><ele>144.0</ele><time>2026-05-03T10:35:58.191Z</time></trkpt><trkpt lat="44.7250549" lon="10.1068359"><ele>143.0</ele><time>2026-05-03T10:35:59.198Z</time></trkpt><trkpt lat="44.7251252" lon="10.1065791"><ele>142.0</ele><time>2026-05-03T10:36:00.19Z</time></trkpt><trkpt lat="44.7252166" lon="10.1063658"><ele>141.0</ele><time>2026-05-03T10:36:01.188Z</time></trkpt><trkpt lat="44.7252838" lon="10.1061398"><ele>140.0</ele><time>2026-05-03T10:36:02.193Z</time></trkpt><trkpt lat="44.7253657" lon="10.1059313"><ele>145.66666666666666</ele><time>2026-05-03T10:36:03.202Z</time></trkpt><trkpt lat="44.7254448" lon="10.1057087"><ele>151.33333333333334</ele><time>2026-05-03T10:36:04.193Z</time></trkpt><trkpt lat="44.7255408" lon="10.1054546"><ele>157.0</ele><time>2026-05-03T10:36:05.198Z</time></trkpt><trkpt lat="44.7255704" lon="10.1052056"><ele>157.0</ele><time>2026-05-03T10:36:06.194Z</time></trkpt><trkpt lat="44.7256126" lon="10.1049533"><ele>157.0</ele><time>2026-05-03T10:36:07.186Z</time></trkpt><trkpt lat="44.7255868" lon="10.1046155"><ele>157.0</ele><time>2026-05-03T10:36:08.188Z</time></trkpt><trkpt lat="44.7255797" lon="10.1042523"><ele>154.0</ele><time>2026-05-03T10:36:09.187Z</time></trkpt><trkpt lat="44.7255978" lon="10.1039261"><ele>151.0</ele><time>2026-05-03T10:36:10.198Z</time></trkpt><trkpt lat="44.7256245" lon="10.1036007"><ele>151.0</ele><time>2026-05-03T10:36:11.195Z</time></trkpt><trkpt lat="44.7256511" lon="10.1033084"><ele>151.0</ele><time>2026-05-03T10:36:12.195Z</time></trkpt><trkpt lat="44.7256349" lon="10.1030044"><ele>151.0</ele><time>2026-05-03T10:36:13.204Z</time></trkpt><trkpt lat="44.7256482" lon="10.102754"><ele>150.33333333333334</ele><time>2026-05-03T10:36:14.194Z</time></trkpt><trkpt lat="44.7256794" lon="10.1025108"><ele>149.66666666666666</ele><time>2026-05-03T10:36:15.199Z</time></trkpt><trkpt lat="44.7256845" lon="10.1023192"><ele>149.0</ele><time>2026-05-03T10:36:16.196Z</time></trkpt><trkpt lat="44.7257103" lon="10.1020508"><ele>149.0</ele><time>2026-05-03T10:36:17.197Z</time></trkpt><trkpt lat="44.7257137" lon="10.1017968"><ele>149.0</ele><time>2026-05-03T10:36:18.194Z</time></trkpt><trkpt lat="44.7257232" lon="10.1015388"><ele>149.0</ele><time>2026-05-03T10:36:19.192Z</time></trkpt><trkpt lat="44.7257105" lon="10.1013507"><ele>150.33333333333331</ele><time>2026-05-03T10:36:20.197Z</time></trkpt><trkpt lat="44.7257051" lon="10.1011456"><ele>151.66666666666666</ele><time>2026-05-03T10:36:21.191Z</time></trkpt><trkpt lat="44.7256687" lon="10.1009721"><ele>153.0</ele><time>2026-05-03T10:36:22.195Z</time></trkpt><trkpt lat="44.7256121" lon="10.1006807"><ele>155.33333333333334</ele><time>2026-05-03T10:36:23.207Z</time></trkpt><trkpt lat="44.7255325" lon="10.1003996"><ele>157.66666666666669</ele><time>2026-05-03T10:36:24.192Z</time></trkpt><trkpt lat="44.7254166" lon="10.1001493"><ele>160.0</ele><time>2026-05-03T10:36:25.195Z</time></trkpt><trkpt lat="44.7253347" lon="10.0998464"><ele>163.5</ele><time>2026-05-03T10:36:26.195Z</time></trkpt><trkpt lat="44.7252514" lon="10.0995394"><ele>167.0</ele><time>2026-05-03T10:36:27.198Z</time></trkpt><trkpt lat="44.7251646" lon="10.0992554"><ele>158.0</ele><time>2026-05-03T10:36:28.193Z</time></trkpt><trkpt lat="44.7250668" lon="10.098913"><ele>149.0</ele><time>2026-05-03T10:36:29.196Z</time></trkpt><trkpt lat="44.7249802" lon="10.098588"><ele>149.0</ele><time>2026-05-03T10:36:30.202Z</time></trkpt><trkpt lat="44.7248806" lon="10.0982794"><ele>149.0</ele><time>2026-05-03T10:36:31.196Z</time></trkpt><trkpt lat="44.7247867" lon="10.0979992"><ele>149.66666666666666</ele><time>2026-05-03T10:36:32.198Z</time></trkpt><trkpt lat="44.7246984" lon="10.0977387"><ele>150.33333333333334</ele><time>2026-05-03T10:36:33.208Z</time></trkpt><trkpt lat="44.7246146" lon="10.0974934"><ele>151.0</ele><time>2026-05-03T10:36:34.197Z</time></trkpt><trkpt lat="44.7245258" lon="10.0972426"><ele>151.0</ele><time>2026-05-03T10:36:35.199Z</time></trkpt><trkpt lat="44.724435" lon="10.0970115"><ele>151.0</ele><time>2026-05-03T10:36:36.189Z</time></trkpt><trkpt lat="44.7243373" lon="10.0968019"><ele>151.0</ele><time>2026-05-03T10:36:37.193Z</time></trkpt><trkpt lat="44.7241802" lon="10.0966343"><ele>156.33333333333334</ele><time>2026-05-03T10:36:38.192Z</time></trkpt><trkpt lat="44.724018" lon="10.0964836"><ele>161.66666666666666</ele><time>2026-05-03T10:36:39.188Z</time></trkpt><trkpt lat="44.7238275" lon="10.0963619"><ele>167.0</ele><time>2026-05-03T10:36:40.191Z</time></trkpt><trkpt lat="44.7236786" lon="10.0962262"><ele>167.0</ele><time>2026-05-03T10:36:41.186Z</time></trkpt><trkpt lat="44.723573" lon="10.0960389"><ele>167.0</ele><time>2026-05-03T10:36:42.188Z</time></trkpt><trkpt lat="44.7235063" lon="10.0958084"><ele>167.0</ele><time>2026-05-03T10:36:43.196Z</time></trkpt><trkpt lat="44.7234774" lon="10.0955512"><ele>162.0</ele><time>2026-05-03T10:36:44.186Z</time></trkpt><trkpt lat="44.7234994" lon="10.0952342"><ele>157.0</ele><time>2026-05-03T10:36:45.195Z</time></trkpt><trkpt lat="44.7234862" lon="10.0949581"><ele>152.0</ele><time>2026-05-03T10:36:46.187Z</time></trkpt><trkpt lat="44.7234412" lon="10.0946469"><ele>152.0</ele><time>2026-05-03T10:36:47.189Z</time></trkpt><trkpt lat="44.7233438" lon="10.0943832"><ele>152.0</ele><time>2026-05-03T10:36:48.192Z</time></trkpt><trkpt lat="44.7232455" lon="10.0941389"><ele>152.0</ele><time>2026-05-03T10:36:49.196Z</time></trkpt><trkpt lat="44.7231848" lon="10.0939052"><ele>152.33333333333331</ele><time>2026-05-03T10:36:50.195Z</time></trkpt><trkpt lat="44.7231477" lon="10.0936989"><ele>152.66666666666666</ele><time>2026-05-03T10:36:51.199Z</time></trkpt><trkpt lat="44.7231085" lon="10.093486"><ele>153.0</ele><time>2026-05-03T10:36:52.202Z</time></trkpt><trkpt lat="44.7230537" lon="10.0932669"><ele>154.33333333333334</ele><time>2026-05-03T10:36:53.212Z</time></trkpt><trkpt lat="44.722992" lon="10.0930669"><ele>155.66666666666669</ele><time>2026-05-03T10:36:54.201Z</time></trkpt><trkpt lat="44.7229244" lon="10.0928577"><ele>157.0</ele><time>2026-05-03T10:36:55.201Z</time></trkpt><trkpt lat="44.7228424" lon="10.0926391"><ele>157.0</ele><time>2026-05-03T10:36:56.201Z</time></trkpt><trkpt lat="44.7227832" lon="10.0924361"><ele>157.0</ele><time>2026-05-03T10:36:57.2Z</time></trkpt><trkpt lat="44.7227375" lon="10.0922346"><ele>157.0</ele><time>2026-05-03T10:36:58.197Z</time></trkpt><trkpt lat="44.722698" lon="10.09201"><ele>156.25</ele><time>2026-05-03T10:36:59.196Z</time></trkpt><trkpt lat="44.7227012" lon="10.0918601"><ele>155.5</ele><time>2026-05-03T10:37:00.202Z</time></trkpt><trkpt lat="44.7226762" lon="10.0916501"><ele>154.75</ele><time>2026-05-03T10:37:01.206Z</time></trkpt><trkpt lat="44.7226436" lon="10.0914528"><ele>154.0</ele><time>2026-05-03T10:37:02.203Z</time></trkpt><trkpt lat="44.7226331" lon="10.0912598"><ele>154.0</ele><time>2026-05-03T10:37:03.208Z</time></trkpt><trkpt lat="44.7226196" lon="10.0910309"><ele>154.0</ele><time>2026-05-03T10:37:04.201Z</time></trkpt><trkpt lat="44.7225996" lon="10.0908095"><ele>154.0</ele><time>2026-05-03T10:37:05.192Z</time></trkpt><trkpt lat="44.7226193" lon="10.090592"><ele>154.5</ele><time>2026-05-03T10:37:06.193Z</time></trkpt><trkpt lat="44.7226005" lon="10.0904302"><ele>155.0</ele><time>2026-05-03T10:37:07.202Z</time></trkpt><trkpt lat="44.7225688" lon="10.0902787"><ele>155.5</ele><time>2026-05-03T10:37:08.199Z</time></trkpt><trkpt lat="44.7225571" lon="10.0901135"><ele>156.0</ele><time>2026-05-03T10:37:09.199Z</time></trkpt><trkpt lat="44.7225263" lon="10.0899608"><ele>156.5</ele><time>2026-05-03T10:37:10.199Z</time></trkpt><trkpt lat="44.7225" lon="10.0898029"><ele>157.0</ele><time>2026-05-03T10:37:11.203Z</time></trkpt><trkpt lat="44.7224806" lon="10.0896011"><ele>157.5</ele><time>2026-05-03T10:37:12.196Z</time></trkpt><trkpt lat="44.7224597" lon="10.0894447"><ele>158.0</ele><time>2026-05-03T10:37:13.21Z</time></trkpt><trkpt lat="44.7224563" lon="10.0892994"><ele>158.0</ele><time>2026-05-03T10:37:14.187Z</time></trkpt><trkpt lat="44.7224617" lon="10.0891727"><ele>158.0</ele><time>2026-05-03T10:37:15.189Z</time></trkpt><trkpt lat="44.7224795" lon="10.0890545"><ele>158.0</ele><time>2026-05-03T10:37:16.188Z</time></trkpt><trkpt lat="44.7225037" lon="10.0889168"><ele>158.0</ele><time>2026-05-03T10:37:17.189Z</time></trkpt><trkpt lat="44.7225263" lon="10.0888185"><ele>158.0</ele><time>2026-05-03T10:37:18.181Z</time></trkpt><trkpt lat="44.7225322" lon="10.0886812"><ele>158.0</ele><time>2026-05-03T10:37:20.185Z</time></trkpt><trkpt lat="44.7225058" lon="10.0885957"><ele>158.5</ele><time>2026-05-03T10:37:21.186Z</time></trkpt><trkpt lat="44.7224459" lon="10.0884605"><ele>159.0</ele><time>2026-05-03T10:37:23.192Z</time></trkpt><trkpt lat="44.722378" lon="10.0883571"><ele>159.5</ele><time>2026-05-03T10:37:24.189Z</time></trkpt><trkpt lat="44.7223171" lon="10.0882138"><ele>160.0</ele><time>2026-05-03T10:37:25.188Z</time></trkpt><trkpt lat="44.7222602" lon="10.088067"><ele>160.75</ele><time>2026-05-03T10:37:26.191Z</time></trkpt><trkpt lat="44.7222089" lon="10.0879154"><ele>161.5</ele><time>2026-05-03T10:37:27.189Z</time></trkpt><trkpt lat="44.7221402" lon="10.0877446"><ele>162.25</ele><time>2026-05-03T10:37:28.187Z</time></trkpt><trkpt lat="44.7220941" lon="10.0875877"><ele>163.0</ele><time>2026-05-03T10:37:29.195Z</time></trkpt><trkpt lat="44.7220485" lon="10.0874308"><ele>162.25</ele><time>2026-05-03T10:37:30.192Z</time></trkpt><trkpt lat="44.7219914" lon="10.0872378"><ele>161.5</ele><time>2026-05-03T10:37:31.19Z</time></trkpt><trkpt lat="44.7219396" lon="10.0870564"><ele>160.75</ele><time>2026-05-03T10:37:32.196Z</time></trkpt><trkpt lat="44.7219078" lon="10.0868766"><ele>160.0</ele><time>2026-05-03T10:37:33.205Z</time></trkpt><trkpt lat="44.7218658" lon="10.0867175"><ele>160.5</ele><time>2026-05-03T10:37:34.195Z</time></trkpt><trkpt lat="44.7218161" lon="10.0865333"><ele>161.0</ele><time>2026-05-03T10:37:35.196Z</time></trkpt><trkpt lat="44.7217596" lon="10.0863495"><ele>161.5</ele><time>2026-05-03T10:37:36.191Z</time></trkpt><trkpt lat="44.721689" lon="10.0861773"><ele>162.0</ele><time>2026-05-03T10:37:37.194Z</time></trkpt><trkpt lat="44.7216148" lon="10.0860086"><ele>162.0</ele><time>2026-05-03T10:37:38.194Z</time></trkpt><trkpt lat="44.7215562" lon="10.0858304"><ele>162.0</ele><time>2026-05-03T10:37:39.19Z</time></trkpt><trkpt lat="44.721506" lon="10.0856461"><ele>162.0</ele><time>2026-05-03T10:37:40.19Z</time></trkpt><trkpt lat="44.7214551" lon="10.0854661"><ele>162.0</ele><time>2026-05-03T10:37:41.189Z</time></trkpt><trkpt lat="44.7214083" lon="10.085284"><ele>162.5</ele><time>2026-05-03T10:37:42.17Z</time></trkpt><trkpt lat="44.7213514" lon="10.0851104"><ele>163.0</ele><time>2026-05-03T10:37:43.189Z</time></trkpt><trkpt lat="44.7212847" lon="10.0849411"><ele>163.5</ele><time>2026-05-03T10:37:44.195Z</time></trkpt><trkpt lat="44.7212173" lon="10.0847612"><ele>164.0</ele><time>2026-05-03T10:37:45.194Z</time></trkpt><trkpt lat="44.7211569" lon="10.0845769"><ele>163.75</ele><time>2026-05-03T10:37:46.194Z</time></trkpt><trkpt lat="44.7211057" lon="10.0843996"><ele>163.5</ele><time>2026-05-03T10:37:47.196Z</time></trkpt><trkpt lat="44.7210543" lon="10.0842197"><ele>163.25</ele><time>2026-05-03T10:37:48.194Z</time></trkpt><trkpt lat="44.7210076" lon="10.0840417"><ele>163.0</ele><time>2026-05-03T10:37:49.194Z</time></trkpt><trkpt lat="44.7209688" lon="10.0838635"><ele>164.75</ele><time>2026-05-03T10:37:50.195Z</time></trkpt><trkpt lat="44.7209128" lon="10.0836934"><ele>166.5</ele><time>2026-05-03T10:37:51.193Z</time></trkpt><trkpt lat="44.7208531" lon="10.0835409"><ele>168.25</ele><time>2026-05-03T10:37:52.195Z</time></trkpt><trkpt lat="44.7207797" lon="10.0833928"><ele>170.0</ele><time>2026-05-03T10:37:53.202Z</time></trkpt><trkpt lat="44.7207175" lon="10.0832633"><ele>171.0</ele><time>2026-05-03T10:37:54.194Z</time></trkpt><trkpt lat="44.7206603" lon="10.0831547"><ele>172.0</ele><time>2026-05-03T10:37:55.193Z</time></trkpt><trkpt lat="44.7206058" lon="10.0830531"><ele>173.0</ele><time>2026-05-03T10:37:56.195Z</time></trkpt><trkpt lat="44.7205549" lon="10.0829305"><ele>174.0</ele><time>2026-05-03T10:37:57.192Z</time></trkpt><trkpt lat="44.7204947" lon="10.0827922"><ele>175.0</ele><time>2026-05-03T10:37:58.189Z</time></trkpt><trkpt lat="44.7204412" lon="10.0826451"><ele>175.0</ele><time>2026-05-03T10:37:59.187Z</time></trkpt><trkpt lat="44.7203951" lon="10.0824798"><ele>175.0</ele><time>2026-05-03T10:38:00.195Z</time></trkpt><trkpt lat="44.7203512" lon="10.0823139"><ele>175.0</ele><time>2026-05-03T10:38:01.196Z</time></trkpt><trkpt lat="44.7202939" lon="10.0821404"><ele>175.0</ele><time>2026-05-03T10:38:02.196Z</time></trkpt><trkpt lat="44.7202347" lon="10.0819588"><ele>172.75</ele><time>2026-05-03T10:38:03.208Z</time></trkpt><trkpt lat="44.720169" lon="10.0817706"><ele>170.5</ele><time>2026-05-03T10:38:04.194Z</time></trkpt><trkpt lat="44.720114" lon="10.0815945"><ele>168.25</ele><time>2026-05-03T10:38:05.2Z</time></trkpt><trkpt lat="44.720077" lon="10.0814053"><ele>166.0</ele><time>2026-05-03T10:38:06.19Z</time></trkpt><trkpt lat="44.7200502" lon="10.0811933"><ele>166.0</ele><time>2026-05-03T10:38:07.191Z</time></trkpt><trkpt lat="44.7200501" lon="10.0809828"><ele>166.0</ele><time>2026-05-03T10:38:08.191Z</time></trkpt><trkpt lat="44.7200504" lon="10.0807392"><ele>166.0</ele><time>2026-05-03T10:38:09.191Z</time></trkpt><trkpt lat="44.7200489" lon="10.0804998"><ele>167.33333333333334</ele><time>2026-05-03T10:38:10.193Z</time></trkpt><trkpt lat="44.7200451" lon="10.080232"><ele>168.66666666666666</ele><time>2026-05-03T10:38:11.193Z</time></trkpt><trkpt lat="44.7200601" lon="10.0800038"><ele>170.0</ele><time>2026-05-03T10:38:12.195Z</time></trkpt><trkpt lat="44.7200246" lon="10.0797433"><ele>172.33333333333331</ele><time>2026-05-03T10:38:13.198Z</time></trkpt><trkpt lat="44.7199649" lon="10.079514"><ele>174.66666666666666</ele><time>2026-05-03T10:38:14.187Z</time></trkpt><trkpt lat="44.7198319" lon="10.0792835"><ele>177.0</ele><time>2026-05-03T10:38:15.192Z</time></trkpt><trkpt lat="44.7196953" lon="10.0790847"><ele>176.0</ele><time>2026-05-03T10:38:16.191Z</time></trkpt><trkpt lat="44.7195623" lon="10.0788753"><ele>175.0</ele><time>2026-05-03T10:38:17.19Z</time></trkpt><trkpt lat="44.7194373" lon="10.0786855"><ele>174.0</ele><time>2026-05-03T10:38:18.196Z</time></trkpt><trkpt lat="44.7193111" lon="10.0784888"><ele>174.0</ele><time>2026-05-03T10:38:19.198Z</time></trkpt><trkpt lat="44.7191829" lon="10.0783057"><ele>174.0</ele><time>2026-05-03T10:38:20.195Z</time></trkpt><trkpt lat="44.7190698" lon="10.0781238"><ele>174.0</ele><time>2026-05-03T10:38:21.196Z</time></trkpt><trkpt lat="44.7189816" lon="10.0779297"><ele>175.25</ele><time>2026-05-03T10:38:22.197Z</time></trkpt><trkpt lat="44.7189117" lon="10.0777277"><ele>176.5</ele><time>2026-05-03T10:38:23.207Z</time></trkpt><trkpt lat="44.7188723" lon="10.07757"><ele>177.75</ele><time>2026-05-03T10:38:24.192Z</time></trkpt><trkpt lat="44.718933" lon="10.0773544"><ele>179.0</ele><time>2026-05-03T10:38:25.189Z</time></trkpt><trkpt lat="44.7190278" lon="10.0771235"><ele>179.66666666666666</ele><time>2026-05-03T10:38:26.188Z</time></trkpt><trkpt lat="44.7191092" lon="10.0768547"><ele>180.33333333333334</ele><time>2026-05-03T10:38:27.187Z</time></trkpt><trkpt lat="44.7191865" lon="10.0765847"><ele>181.0</ele><time>2026-05-03T10:38:28.186Z</time></trkpt><trkpt lat="44.7192512" lon="10.0762995"><ele>179.66666666666669</ele><time>2026-05-03T10:38:29.19Z</time></trkpt><trkpt lat="44.7192883" lon="10.0760408"><ele>178.33333333333334</ele><time>2026-05-03T10:38:30.199Z</time></trkpt><trkpt lat="44.7193186" lon="10.0757523"><ele>177.0</ele><time>2026-05-03T10:38:31.193Z</time></trkpt><trkpt lat="44.7193606" lon="10.0754809"><ele>177.0</ele><time>2026-05-03T10:38:32.195Z</time></trkpt><trkpt lat="44.7193898" lon="10.0752343"><ele>177.0</ele><time>2026-05-03T10:38:33.207Z</time></trkpt><trkpt lat="44.7194064" lon="10.0749815"><ele>177.0</ele><time>2026-05-03T10:38:34.198Z</time></trkpt><trkpt lat="44.7194438" lon="10.0747513"><ele>181.0</ele><time>2026-05-03T10:38:35.194Z</time></trkpt><trkpt lat="44.7194721" lon="10.0745055"><ele>185.0</ele><time>2026-05-03T10:38:36.2Z</time></trkpt><trkpt lat="44.7194973" lon="10.0742431"><ele>189.0</ele><time>2026-05-03T10:38:37.194Z</time></trkpt><trkpt lat="44.7195292" lon="10.0740143"><ele>189.0</ele><time>2026-05-03T10:38:38.192Z</time></trkpt><trkpt lat="44.7195528" lon="10.0737908"><ele>189.0</ele><time>2026-05-03T10:38:39.194Z</time></trkpt><trkpt lat="44.7195361" lon="10.0735266"><ele>189.0</ele><time>2026-05-03T10:38:40.202Z</time></trkpt><trkpt lat="44.7194751" lon="10.0732742"><ele>189.0</ele><time>2026-05-03T10:38:41.197Z</time></trkpt><trkpt lat="44.7194318" lon="10.0730196"><ele>189.0</ele><time>2026-05-03T10:38:42.194Z</time></trkpt><trkpt lat="44.7193916" lon="10.0727727"><ele>189.0</ele><time>2026-05-03T10:38:43.193Z</time></trkpt><trkpt lat="44.7193236" lon="10.0725476"><ele>188.66666666666666</ele><time>2026-05-03T10:38:44.199Z</time></trkpt><trkpt lat="44.7192454" lon="10.0723122"><ele>188.33333333333331</ele><time>2026-05-03T10:38:45.19Z</time></trkpt><trkpt lat="44.7191418" lon="10.0720807"><ele>188.0</ele><time>2026-05-03T10:38:46.192Z</time></trkpt><trkpt lat="44.7190238" lon="10.0717974"><ele>190.33333333333331</ele><time>2026-05-03T10:38:47.197Z</time></trkpt><trkpt lat="44.7189484" lon="10.0715772"><ele>192.66666666666666</ele><time>2026-05-03T10:38:48.199Z</time></trkpt><trkpt lat="44.7188801" lon="10.0713174"><ele>195.0</ele><time>2026-05-03T10:38:49.207Z</time></trkpt><trkpt lat="44.7188107" lon="10.0710894"><ele>195.0</ele><time>2026-05-03T10:38:50.2Z</time></trkpt><trkpt lat="44.7187552" lon="10.0709043"><ele>195.0</ele><time>2026-05-03T10:38:51.199Z</time></trkpt><trkpt lat="44.7186514" lon="10.0707067"><ele>195.0</ele><time>2026-05-03T10:38:52.195Z</time></trkpt><trkpt lat="44.7185511" lon="10.0705395"><ele>193.75</ele><time>2026-05-03T10:38:53.184Z</time></trkpt><trkpt lat="44.7185208" lon="10.07037"><ele>192.5</ele><time>2026-05-03T10:38:54.188Z</time></trkpt><trkpt lat="44.718509" lon="10.0701638"><ele>191.25</ele><time>2026-05-03T10:38:55.184Z</time></trkpt><trkpt lat="44.718502" lon="10.0699469"><ele>190.0</ele><time>2026-05-03T10:38:56.189Z</time></trkpt><trkpt lat="44.7185056" lon="10.0696734"><ele>190.0</ele><time>2026-05-03T10:38:57.192Z</time></trkpt><trkpt lat="44.7185367" lon="10.0693942"><ele>190.0</ele><time>2026-05-03T10:38:58.194Z</time></trkpt><trkpt lat="44.71854" lon="10.0691307"><ele>190.0</ele><time>2026-05-03T10:38:59.19Z</time></trkpt><trkpt lat="44.7186127" lon="10.0688844"><ele>193.66666666666669</ele><time>2026-05-03T10:39:00.191Z</time></trkpt><trkpt lat="44.7186683" lon="10.0686035"><ele>197.33333333333334</ele><time>2026-05-03T10:39:01.188Z</time></trkpt><trkpt lat="44.7187274" lon="10.0683467"><ele>201.0</ele><time>2026-05-03T10:39:02.191Z</time></trkpt><trkpt lat="44.7187817" lon="10.0681004"><ele>201.0</ele><time>2026-05-03T10:39:03.18Z</time></trkpt><trkpt lat="44.7188225" lon="10.06791"><ele>201.0</ele><time>2026-05-03T10:39:04.181Z</time></trkpt><trkpt lat="44.7188584" lon="10.0677274"><ele>201.0</ele><time>2026-05-03T10:39:05.184Z</time></trkpt><trkpt lat="44.7188877" lon="10.067469"><ele>202.66666666666669</ele><time>2026-05-03T10:39:06.185Z</time></trkpt><trkpt lat="44.71888" lon="10.0672282"><ele>204.33333333333334</ele><time>2026-05-03T10:39:07.183Z</time></trkpt><trkpt lat="44.7188306" lon="10.0670176"><ele>206.0</ele><time>2026-05-03T10:39:08.18Z</time></trkpt><trkpt lat="44.7187639" lon="10.0668437"><ele>206.0</ele><time>2026-05-03T10:39:09.179Z</time></trkpt><trkpt lat="44.718658" lon="10.0666565"><ele>206.0</ele><time>2026-05-03T10:39:10.182Z</time></trkpt><trkpt lat="44.7185236" lon="10.0664799"><ele>206.0</ele><time>2026-05-03T10:39:11.181Z</time></trkpt><trkpt lat="44.7183717" lon="10.0662723"><ele>205.66666666666669</ele><time>2026-05-03T10:39:12.181Z</time></trkpt><trkpt lat="44.7182781" lon="10.0660677"><ele>205.33333333333331</ele><time>2026-05-03T10:39:13.181Z</time></trkpt><trkpt lat="44.718163" lon="10.0659201"><ele>205.0</ele><time>2026-05-03T10:39:14.178Z</time></trkpt><trkpt lat="44.7180611" lon="10.0657448"><ele>205.0</ele><time>2026-05-03T10:39:15.179Z</time></trkpt><trkpt lat="44.7179896" lon="10.0655027"><ele>205.0</ele><time>2026-05-03T10:39:16.178Z</time></trkpt><trkpt lat="44.7179314" lon="10.0652881"><ele>205.0</ele><time>2026-05-03T10:39:17.181Z</time></trkpt><trkpt lat="44.7178922" lon="10.0650457"><ele>204.66666666666666</ele><time>2026-05-03T10:39:18.179Z</time></trkpt><trkpt lat="44.7178849" lon="10.0648143"><ele>204.33333333333331</ele><time>2026-05-03T10:39:19.183Z</time></trkpt><trkpt lat="44.717921" lon="10.0645992"><ele>204.0</ele><time>2026-05-03T10:39:20.188Z</time></trkpt><trkpt lat="44.7179445" lon="10.0643846"><ele>204.0</ele><time>2026-05-03T10:39:21.188Z</time></trkpt><trkpt lat="44.7179549" lon="10.0641563"><ele>204.0</ele><time>2026-05-03T10:39:22.19Z</time></trkpt><trkpt lat="44.7179499" lon="10.0639391"><ele>204.0</ele><time>2026-05-03T10:39:23.183Z</time></trkpt><trkpt lat="44.7179683" lon="10.0637416"><ele>203.5</ele><time>2026-05-03T10:39:24.186Z</time></trkpt><trkpt lat="44.7179757" lon="10.0635216"><ele>203.0</ele><time>2026-05-03T10:39:25.185Z</time></trkpt><trkpt lat="44.7179475" lon="10.0633607"><ele>202.5</ele><time>2026-05-03T10:39:26.185Z</time></trkpt><trkpt lat="44.7179136" lon="10.0631996"><ele>202.0</ele><time>2026-05-03T10:39:27.187Z</time></trkpt><trkpt lat="44.7178365" lon="10.0630725"><ele>201.25</ele><time>2026-05-03T10:39:28.185Z</time></trkpt><trkpt lat="44.7177257" lon="10.0629872"><ele>200.5</ele><time>2026-05-03T10:39:29.182Z</time></trkpt><trkpt lat="44.7176216" lon="10.062891"><ele>199.75</ele><time>2026-05-03T10:39:30.188Z</time></trkpt><trkpt lat="44.7175665" lon="10.0627737"><ele>199.0</ele><time>2026-05-03T10:39:31.184Z</time></trkpt><trkpt lat="44.717513" lon="10.0626324"><ele>199.0</ele><time>2026-05-03T10:39:32.186Z</time></trkpt><trkpt lat="44.7174564" lon="10.0624671"><ele>199.0</ele><time>2026-05-03T10:39:33.175Z</time></trkpt><trkpt lat="44.7174152" lon="10.0622933"><ele>199.0</ele><time>2026-05-03T10:39:34.184Z</time></trkpt><trkpt lat="44.7173891" lon="10.0620822"><ele>199.0</ele><time>2026-05-03T10:39:35.192Z</time></trkpt><trkpt lat="44.7173774" lon="10.0618625"><ele>199.5</ele><time>2026-05-03T10:39:36.203Z</time></trkpt><trkpt lat="44.7173821" lon="10.0616818"><ele>200.0</ele><time>2026-05-03T10:39:37.19Z</time></trkpt><trkpt lat="44.7173891" lon="10.0615191"><ele>200.5</ele><time>2026-05-03T10:39:38.185Z</time></trkpt><trkpt lat="44.717405" lon="10.0613396"><ele>201.0</ele><time>2026-05-03T10:39:39.186Z</time></trkpt><trkpt lat="44.7174503" lon="10.0611928"><ele>201.0</ele><time>2026-05-03T10:39:40.185Z</time></trkpt><trkpt lat="44.7175502" lon="10.0610179"><ele>201.0</ele><time>2026-05-03T10:39:41.189Z</time></trkpt><trkpt lat="44.717657" lon="10.0608565"><ele>201.0</ele><time>2026-05-03T10:39:42.188Z</time></trkpt><trkpt lat="44.7177744" lon="10.0606868"><ele>201.66666666666669</ele><time>2026-05-03T10:39:43.184Z</time></trkpt><trkpt lat="44.7178909" lon="10.0605072"><ele>202.33333333333334</ele><time>2026-05-03T10:39:44.184Z</time></trkpt><trkpt lat="44.7179849" lon="10.0603169"><ele>203.0</ele><time>2026-05-03T10:39:45.185Z</time></trkpt><trkpt lat="44.7181071" lon="10.060118"><ele>203.0</ele><time>2026-05-03T10:39:46.187Z</time></trkpt><trkpt lat="44.7182233" lon="10.0599688"><ele>203.0</ele><time>2026-05-03T10:39:47.185Z</time></trkpt><trkpt lat="44.7183602" lon="10.0597846"><ele>203.0</ele><time>2026-05-03T10:39:48.185Z</time></trkpt><trkpt lat="44.7184672" lon="10.0596339"><ele>201.66666666666669</ele><time>2026-05-03T10:39:49.184Z</time></trkpt><trkpt lat="44.7185627" lon="10.0594825"><ele>200.33333333333331</ele><time>2026-05-03T10:39:50.185Z</time></trkpt><trkpt lat="44.7186784" lon="10.0592982"><ele>199.0</ele><time>2026-05-03T10:39:51.184Z</time></trkpt><trkpt lat="44.7187611" lon="10.0591049"><ele>203.33333333333331</ele><time>2026-05-03T10:39:52.186Z</time></trkpt><trkpt lat="44.7188466" lon="10.0589142"><ele>207.66666666666669</ele><time>2026-05-03T10:39:53.182Z</time></trkpt><trkpt lat="44.7189283" lon="10.0587032"><ele>212.0</ele><time>2026-05-03T10:39:54.18Z</time></trkpt><trkpt lat="44.7189664" lon="10.0584513"><ele>211.0</ele><time>2026-05-03T10:39:55.181Z</time></trkpt><trkpt lat="44.7189613" lon="10.0581804"><ele>210.0</ele><time>2026-05-03T10:39:56.187Z</time></trkpt><trkpt lat="44.7189243" lon="10.0579283"><ele>209.0</ele><time>2026-05-03T10:39:57.184Z</time></trkpt><trkpt lat="44.7188569" lon="10.0576476"><ele>209.66666666666669</ele><time>2026-05-03T10:39:58.2Z</time></trkpt><trkpt lat="44.7188028" lon="10.0573803"><ele>210.33333333333331</ele><time>2026-05-03T10:39:59.179Z</time></trkpt><trkpt lat="44.7187946" lon="10.0571075"><ele>211.0</ele><time>2026-05-03T10:40:00.178Z</time></trkpt><trkpt lat="44.7188069" lon="10.0568478"><ele>212.33333333333331</ele><time>2026-05-03T10:40:01.172Z</time></trkpt><trkpt lat="44.7188072" lon="10.0565756"><ele>213.66666666666669</ele><time>2026-05-03T10:40:02.18Z</time></trkpt><trkpt lat="44.7187871" lon="10.056385"><ele>215.0</ele><time>2026-05-03T10:40:03.182Z</time></trkpt><trkpt lat="44.7188054" lon="10.0561563"><ele>215.0</ele><time>2026-05-03T10:40:04.178Z</time></trkpt><trkpt lat="44.7188316" lon="10.0559377"><ele>215.0</ele><time>2026-05-03T10:40:05.18Z</time></trkpt><trkpt lat="44.7189421" lon="10.0557574"><ele>215.0</ele><time>2026-05-03T10:40:06.182Z</time></trkpt><trkpt lat="44.7190153" lon="10.0555368"><ele>213.0</ele><time>2026-05-03T10:40:07.181Z</time></trkpt><trkpt lat="44.7191154" lon="10.0553505"><ele>211.0</ele><time>2026-05-03T10:40:08.179Z</time></trkpt><trkpt lat="44.7192583" lon="10.0551798"><ele>209.0</ele><time>2026-05-03T10:40:09.183Z</time></trkpt><trkpt lat="44.7193758" lon="10.0550354"><ele>210.79999999999998</ele><time>2026-05-03T10:40:10.177Z</time></trkpt><trkpt lat="44.7194706" lon="10.0549163"><ele>212.6</ele><time>2026-05-03T10:40:11.185Z</time></trkpt><trkpt lat="44.719575" lon="10.0548463"><ele>214.4</ele><time>2026-05-03T10:40:12.183Z</time></trkpt><trkpt lat="44.7196541" lon="10.0547515"><ele>216.2</ele><time>2026-05-03T10:40:13.183Z</time></trkpt><trkpt lat="44.7197058" lon="10.0546481"><ele>218.0</ele><time>2026-05-03T10:40:14.181Z</time></trkpt><trkpt lat="44.7197534" lon="10.0545184"><ele>218.0</ele><time>2026-05-03T10:40:16.174Z</time></trkpt><trkpt lat="44.7197295" lon="10.0543673"><ele>218.0</ele><time>2026-05-03T10:40:17.176Z</time></trkpt><trkpt lat="44.7196862" lon="10.0541716"><ele>218.0</ele><time>2026-05-03T10:40:18.172Z</time></trkpt><trkpt lat="44.7196331" lon="10.0539611"><ele>218.0</ele><time>2026-05-03T10:40:19.173Z</time></trkpt><trkpt lat="44.7195827" lon="10.0537527"><ele>220.5</ele><time>2026-05-03T10:40:20.175Z</time></trkpt><trkpt lat="44.719544" lon="10.053553"><ele>223.0</ele><time>2026-05-03T10:40:21.177Z</time></trkpt><trkpt lat="44.7195336" lon="10.0533471"><ele>225.5</ele><time>2026-05-03T10:40:22.178Z</time></trkpt><trkpt lat="44.7195368" lon="10.0531711"><ele>228.0</ele><time>2026-05-03T10:40:23.183Z</time></trkpt><trkpt lat="44.7195682" lon="10.052989"><ele>230.75</ele><time>2026-05-03T10:40:24.179Z</time></trkpt><trkpt lat="44.7195519" lon="10.0528301"><ele>233.5</ele><time>2026-05-03T10:40:25.181Z</time></trkpt><trkpt lat="44.7195713" lon="10.0526621"><ele>236.25</ele><time>2026-05-03T10:40:26.181Z</time></trkpt><trkpt lat="44.7195876" lon="10.0524654"><ele>239.0</ele><time>2026-05-03T10:40:27.179Z</time></trkpt><trkpt lat="44.7196062" lon="10.0522557"><ele>241.33333333333334</ele><time>2026-05-03T10:40:28.174Z</time></trkpt><trkpt lat="44.7196195" lon="10.0520071"><ele>243.66666666666669</ele><time>2026-05-03T10:40:29.172Z</time></trkpt><trkpt lat="44.7196305" lon="10.0517661"><ele>246.0</ele><time>2026-05-03T10:40:30.172Z</time></trkpt><trkpt lat="44.7196108" lon="10.0515048"><ele>246.66666666666669</ele><time>2026-05-03T10:40:31.173Z</time></trkpt><trkpt lat="44.7195955" lon="10.0512452"><ele>247.33333333333334</ele><time>2026-05-03T10:40:32.176Z</time></trkpt><trkpt lat="44.7195614" lon="10.0509799"><ele>248.0</ele><time>2026-05-03T10:40:33.167Z</time></trkpt><trkpt lat="44.7195694" lon="10.0507114"><ele>249.33333333333334</ele><time>2026-05-03T10:40:34.166Z</time></trkpt><trkpt lat="44.7195526" lon="10.0504607"><ele>250.66666666666669</ele><time>2026-05-03T10:40:35.167Z</time></trkpt><trkpt lat="44.7195721" lon="10.050247"><ele>252.0</ele><time>2026-05-03T10:40:36.166Z</time></trkpt><trkpt lat="44.7195683" lon="10.0500404"><ele>251.8</ele><time>2026-05-03T10:40:37.152Z</time></trkpt><trkpt lat="44.7195785" lon="10.0498545"><ele>251.6</ele><time>2026-05-03T10:40:38.144Z</time></trkpt><trkpt lat="44.7195748" lon="10.0496919"><ele>251.40000000000003</ele><time>2026-05-03T10:40:39.16Z</time></trkpt><trkpt lat="44.7195758" lon="10.0495864"><ele>251.20000000000002</ele><time>2026-05-03T10:40:40.155Z</time></trkpt><trkpt lat="44.7195325" lon="10.04945"><ele>251.0</ele><time>2026-05-03T10:40:42.17Z</time></trkpt><trkpt lat="44.7195663" lon="10.0492891"><ele>251.0</ele><time>2026-05-03T10:40:44.158Z</time></trkpt><trkpt lat="44.7195853" lon="10.0491588"><ele>251.00000000000003</ele><time>2026-05-03T10:40:46.181Z</time></trkpt><trkpt lat="44.7195944" lon="10.0490683"><ele>251.00000000000003</ele><time>2026-05-03T10:40:47.173Z</time></trkpt><trkpt lat="44.719611" lon="10.0488993"><ele>251.0</ele><time>2026-05-03T10:40:49.18Z</time></trkpt><trkpt lat="44.7196515" lon="10.0487825"><ele>251.0</ele><time>2026-05-03T10:40:51.176Z</time></trkpt><trkpt lat="44.7197657" lon="10.0488035"><ele>250.00000000000003</ele><time>2026-05-03T10:40:53.178Z</time></trkpt><trkpt lat="44.7198408" lon="10.0488345"><ele>249.0</ele><time>2026-05-03T10:40:54.183Z</time></trkpt><trkpt lat="44.7199042" lon="10.0488783"><ele>248.0</ele><time>2026-05-03T10:40:55.18Z</time></trkpt><trkpt lat="44.7199608" lon="10.0488346"><ele>247.0</ele><time>2026-05-03T10:41:09.192Z</time></trkpt><trkpt lat="44.72001" lon="10.0487186"><ele>246.00000000000003</ele><time>2026-05-03T10:41:12.188Z</time></trkpt><trkpt lat="44.7200317" lon="10.0486237"><ele>245.0</ele><time>2026-05-03T10:41:13.191Z</time></trkpt><trkpt lat="44.720078" lon="10.0484897"><ele>245.0</ele><time>2026-05-03T10:41:14.189Z</time></trkpt><trkpt lat="44.7201489" lon="10.0483171"><ele>245.0</ele><time>2026-05-03T10:41:15.184Z</time></trkpt><trkpt lat="44.7202216" lon="10.0481345"><ele>245.0</ele><time>2026-05-03T10:41:16.191Z</time></trkpt><trkpt lat="44.7202974" lon="10.0479737"><ele>245.0</ele><time>2026-05-03T10:41:17.187Z</time></trkpt><trkpt lat="44.7203832" lon="10.0478112"><ele>246.75</ele><time>2026-05-03T10:41:18.197Z</time></trkpt><trkpt lat="44.7204816" lon="10.0476658"><ele>248.5</ele><time>2026-05-03T10:41:19.193Z</time></trkpt><trkpt lat="44.720577" lon="10.0475187"><ele>250.25</ele><time>2026-05-03T10:41:20.194Z</time></trkpt><trkpt lat="44.7206722" lon="10.0474182"><ele>252.0</ele><time>2026-05-03T10:41:21.187Z</time></trkpt><trkpt lat="44.7207575" lon="10.047325"><ele>252.0</ele><time>2026-05-03T10:41:22.193Z</time></trkpt><trkpt lat="44.7208231" lon="10.0472171"><ele>252.0</ele><time>2026-05-03T10:41:23.191Z</time></trkpt><trkpt lat="44.7209004" lon="10.0471068"><ele>252.0</ele><time>2026-05-03T10:41:24.192Z</time></trkpt><trkpt lat="44.7209941" lon="10.0470727"><ele>252.0</ele><time>2026-05-03T10:41:25.193Z</time></trkpt><trkpt lat="44.7211037" lon="10.0470086"><ele>252.0</ele><time>2026-05-03T10:41:26.19Z</time></trkpt><trkpt lat="44.7212263" lon="10.0469241"><ele>250.6</ele><time>2026-05-03T10:41:27.192Z</time></trkpt><trkpt lat="44.7213069" lon="10.0468634"><ele>249.2</ele><time>2026-05-03T10:41:28.193Z</time></trkpt><trkpt lat="44.7213583" lon="10.0467648"><ele>247.8</ele><time>2026-05-03T10:41:29.189Z</time></trkpt><trkpt lat="44.7214253" lon="10.0466691"><ele>246.4</ele><time>2026-05-03T10:41:30.187Z</time></trkpt><trkpt lat="44.7215084" lon="10.0465992"><ele>245.0</ele><time>2026-05-03T10:41:31.186Z</time></trkpt><trkpt lat="44.7215992" lon="10.0465491"><ele>245.0</ele><time>2026-05-03T10:41:32.19Z</time></trkpt><trkpt lat="44.7217257" lon="10.0465346"><ele>245.0</ele><time>2026-05-03T10:41:33.189Z</time></trkpt><trkpt lat="44.7218476" lon="10.0465179"><ele>245.0</ele><time>2026-05-03T10:41:34.189Z</time></trkpt><trkpt lat="44.7219621" lon="10.0465269"><ele>245.0</ele><time>2026-05-03T10:41:35.193Z</time></trkpt><trkpt lat="44.7220517" lon="10.0465625"><ele>245.6</ele><time>2026-05-03T10:41:36.187Z</time></trkpt><trkpt lat="44.7221349" lon="10.0466089"><ele>246.2</ele><time>2026-05-03T10:41:37.18Z</time></trkpt><trkpt lat="44.7222127" lon="10.0466646"><ele>246.8</ele><time>2026-05-03T10:41:38.182Z</time></trkpt><trkpt lat="44.7222648" lon="10.0467409"><ele>247.4</ele><time>2026-05-03T10:41:39.184Z</time></trkpt><trkpt lat="44.7221114" lon="10.0468233"><ele>248.0</ele><time>2026-05-03T10:41:42.176Z</time></trkpt><trkpt lat="44.7219992" lon="10.0468942"><ele>254.0</ele><time>2026-05-03T10:41:43.18Z</time></trkpt><trkpt lat="44.7218825" lon="10.0470174"><ele>260.0</ele><time>2026-05-03T10:41:44.181Z</time></trkpt><trkpt lat="44.7217829" lon="10.0471413"><ele>266.0</ele><time>2026-05-03T10:41:45.186Z</time></trkpt><trkpt lat="44.7217217" lon="10.0473128"><ele>272.0</ele><time>2026-05-03T10:41:46.189Z</time></trkpt><trkpt lat="44.7216565" lon="10.0474866"><ele>280.0</ele><time>2026-05-03T10:41:47.189Z</time></trkpt><trkpt lat="44.7215828" lon="10.0477438"><ele>288.0</ele><time>2026-05-03T10:41:48.19Z</time></trkpt><trkpt lat="44.7215193" lon="10.0480177"><ele>296.0</ele><time>2026-05-03T10:41:49.198Z</time></trkpt><trkpt lat="44.7215259" lon="10.0482397"><ele>299.0</ele><time>2026-05-03T10:41:50.194Z</time></trkpt><trkpt lat="44.7215649" lon="10.0484749"><ele>302.0</ele><time>2026-05-03T10:41:51.189Z</time></trkpt><trkpt lat="44.7215157" lon="10.0486965"><ele>305.0</ele><time>2026-05-03T10:41:52.195Z</time></trkpt><trkpt lat="44.7214574" lon="10.0489486"><ele>306.6666666666667</ele><time>2026-05-03T10:41:53.191Z</time></trkpt><trkpt lat="44.7213984" lon="10.0492113"><ele>308.3333333333333</ele><time>2026-05-03T10:41:54.192Z</time></trkpt><trkpt lat="44.7213598" lon="10.0494609"><ele>310.0</ele><time>2026-05-03T10:41:55.189Z</time></trkpt><trkpt lat="44.7213324" lon="10.0496375"><ele>310.0</ele><time>2026-05-03T10:41:56.189Z</time></trkpt><trkpt lat="44.7212467" lon="10.0497886"><ele>310.0</ele><time>2026-05-03T10:41:57.188Z</time></trkpt><trkpt lat="44.7212228" lon="10.0499818"><ele>310.0</ele><time>2026-05-03T10:41:58.186Z</time></trkpt><trkpt lat="44.7212428" lon="10.0501111"><ele>310.0</ele><time>2026-05-03T10:41:59.192Z</time></trkpt><trkpt lat="44.7212799" lon="10.0502185"><ele>311.4</ele><time>2026-05-03T10:42:00.195Z</time></trkpt><trkpt lat="44.7212916" lon="10.0503158"><ele>312.8</ele><time>2026-05-03T10:42:01.196Z</time></trkpt><trkpt lat="44.721302" lon="10.0504778"><ele>314.2</ele><time>2026-05-03T10:42:02.197Z</time></trkpt><trkpt lat="44.7213708" lon="10.0506261"><ele>315.6</ele><time>2026-05-03T10:42:03.192Z</time></trkpt><trkpt lat="44.7214013" lon="10.0507655"><ele>317.0</ele><time>2026-05-03T10:42:04.196Z</time></trkpt><trkpt lat="44.7213952" lon="10.050974"><ele>317.0</ele><time>2026-05-03T10:42:05.195Z</time></trkpt><trkpt lat="44.7214228" lon="10.0511518"><ele>317.0</ele><time>2026-05-03T10:42:06.191Z</time></trkpt><trkpt lat="44.7214709" lon="10.0513143"><ele>317.0</ele><time>2026-05-03T10:42:07.193Z</time></trkpt><trkpt lat="44.7215332" lon="10.051421"><ele>317.0</ele><time>2026-05-03T10:42:08.188Z</time></trkpt><trkpt lat="44.7216245" lon="10.0514688"><ele>317.0</ele><time>2026-05-03T10:42:09.184Z</time></trkpt><trkpt lat="44.7217728" lon="10.0514977"><ele>317.0</ele><time>2026-05-03T10:42:10.187Z</time></trkpt><trkpt lat="44.721921" lon="10.0515401"><ele>317.0</ele><time>2026-05-03T10:42:11.18Z</time></trkpt><trkpt lat="44.7220561" lon="10.0516702"><ele>318.25</ele><time>2026-05-03T10:42:12.185Z</time></trkpt><trkpt lat="44.7222063" lon="10.0517686"><ele>319.5</ele><time>2026-05-03T10:42:13.186Z</time></trkpt><trkpt lat="44.7223123" lon="10.0518438"><ele>320.75</ele><time>2026-05-03T10:42:14.188Z</time></trkpt><trkpt lat="44.7223975" lon="10.0518992"><ele>322.0</ele><time>2026-05-03T10:42:15.188Z</time></trkpt><trkpt lat="44.7224957" lon="10.0519479"><ele>322.0</ele><time>2026-05-03T10:42:16.189Z</time></trkpt><trkpt lat="44.7226159" lon="10.0520039"><ele>322.0</ele><time>2026-05-03T10:42:17.184Z</time></trkpt><trkpt lat="44.722755" lon="10.0519829"><ele>322.0</ele><time>2026-05-03T10:42:18.187Z</time></trkpt><trkpt lat="44.722916" lon="10.0519535"><ele>322.0</ele><time>2026-05-03T10:42:19.191Z</time></trkpt><trkpt lat="44.7230798" lon="10.0518993"><ele>321.0</ele><time>2026-05-03T10:42:20.188Z</time></trkpt><trkpt lat="44.723227" lon="10.0518435"><ele>320.0</ele><time>2026-05-03T10:42:21.18Z</time></trkpt><trkpt lat="44.7233718" lon="10.0517534"><ele>319.0</ele><time>2026-05-03T10:42:22.187Z</time></trkpt><trkpt lat="44.7235121" lon="10.0516592"><ele>319.75</ele><time>2026-05-03T10:42:23.183Z</time></trkpt><trkpt lat="44.7236435" lon="10.0515768"><ele>320.5</ele><time>2026-05-03T10:42:24.187Z</time></trkpt><trkpt lat="44.7237484" lon="10.0515217"><ele>321.25</ele><time>2026-05-03T10:42:25.188Z</time></trkpt><trkpt lat="44.7238897" lon="10.0515083"><ele>322.0</ele><time>2026-05-03T10:42:26.189Z</time></trkpt><trkpt lat="44.7240011" lon="10.0514745"><ele>322.0</ele><time>2026-05-03T10:42:27.192Z</time></trkpt><trkpt lat="44.724083" lon="10.0514168"><ele>322.0</ele><time>2026-05-03T10:42:28.191Z</time></trkpt><trkpt lat="44.7241703" lon="10.0513197"><ele>322.0</ele><time>2026-05-03T10:42:29.187Z</time></trkpt><trkpt lat="44.7242981" lon="10.0512143"><ele>322.0</ele><time>2026-05-03T10:42:30.188Z</time></trkpt><trkpt lat="44.7244318" lon="10.0511369"><ele>320.3333333333333</ele><time>2026-05-03T10:42:31.194Z</time></trkpt><trkpt lat="44.7245985" lon="10.0510969"><ele>318.6666666666667</ele><time>2026-05-03T10:42:32.192Z</time></trkpt><trkpt lat="44.7247868" lon="10.0511033"><ele>317.0</ele><time>2026-05-03T10:42:33.196Z</time></trkpt><trkpt lat="44.7249754" lon="10.0511353"><ele>317.0</ele><time>2026-05-03T10:42:34.198Z</time></trkpt><trkpt lat="44.7251264" lon="10.051178"><ele>317.0</ele><time>2026-05-03T10:42:35.193Z</time></trkpt><trkpt lat="44.7252417" lon="10.0512114"><ele>317.0</ele><time>2026-05-03T10:42:36.19Z</time></trkpt><trkpt lat="44.7253482" lon="10.0513024"><ele>317.0</ele><time>2026-05-03T10:42:37.189Z</time></trkpt><trkpt lat="44.7255046" lon="10.051422"><ele>314.75</ele><time>2026-05-03T10:42:38.189Z</time></trkpt><trkpt lat="44.7256347" lon="10.0515451"><ele>312.5</ele><time>2026-05-03T10:42:39.187Z</time></trkpt><trkpt lat="44.7257384" lon="10.0516952"><ele>310.25</ele><time>2026-05-03T10:42:40.189Z</time></trkpt><trkpt lat="44.7258207" lon="10.0518435"><ele>308.0</ele><time>2026-05-03T10:42:41.202Z</time></trkpt><trkpt lat="44.7258752" lon="10.0519888"><ele>312.75</ele><time>2026-05-03T10:42:42.192Z</time></trkpt><trkpt lat="44.7259662" lon="10.052112"><ele>317.5</ele><time>2026-05-03T10:42:43.195Z</time></trkpt><trkpt lat="44.7260971" lon="10.0522025"><ele>322.25</ele><time>2026-05-03T10:42:44.191Z</time></trkpt><trkpt lat="44.7262332" lon="10.0522333"><ele>327.0</ele><time>2026-05-03T10:42:45.191Z</time></trkpt><trkpt lat="44.726312" lon="10.0522935"><ele>327.0</ele><time>2026-05-03T10:42:46.187Z</time></trkpt><trkpt lat="44.7264217" lon="10.0522988"><ele>327.0</ele><time>2026-05-03T10:42:47.187Z</time></trkpt><trkpt lat="44.7265498" lon="10.05231"><ele>327.0</ele><time>2026-05-03T10:42:48.184Z</time></trkpt><trkpt lat="44.726678" lon="10.0523256"><ele>327.0</ele><time>2026-05-03T10:42:49.188Z</time></trkpt><trkpt lat="44.7267434" lon="10.0524219"><ele>333.0</ele><time>2026-05-03T10:42:50.188Z</time></trkpt><trkpt lat="44.726816" lon="10.0525738"><ele>339.0</ele><time>2026-05-03T10:42:51.184Z</time></trkpt><trkpt lat="44.7269432" lon="10.0527445"><ele>345.0</ele><time>2026-05-03T10:42:52.189Z</time></trkpt><trkpt lat="44.7270758" lon="10.0529089"><ele>346.3333333333333</ele><time>2026-05-03T10:42:53.189Z</time></trkpt><trkpt lat="44.7271667" lon="10.0530852"><ele>347.66666666666663</ele><time>2026-05-03T10:42:54.19Z</time></trkpt><trkpt lat="44.7272175" lon="10.0532845"><ele>349.0</ele><time>2026-05-03T10:42:55.195Z</time></trkpt><trkpt lat="44.7272831" lon="10.0534782"><ele>351.0</ele><time>2026-05-03T10:42:56.199Z</time></trkpt><trkpt lat="44.7273495" lon="10.0536784"><ele>353.0</ele><time>2026-05-03T10:42:57.2Z</time></trkpt><trkpt lat="44.7274104" lon="10.0538618"><ele>355.0</ele><time>2026-05-03T10:42:58.198Z</time></trkpt><trkpt lat="44.7274376" lon="10.0539974"><ele>357.0</ele><time>2026-05-03T10:42:59.196Z</time></trkpt><trkpt lat="44.7275326" lon="10.0540753"><ele>357.0</ele><time>2026-05-03T10:43:00.195Z</time></trkpt><trkpt lat="44.7276815" lon="10.0540929"><ele>357.0</ele><time>2026-05-03T10:43:01.198Z</time></trkpt><trkpt lat="44.7278102" lon="10.0541345"><ele>357.0</ele><time>2026-05-03T10:43:02.196Z</time></trkpt><trkpt lat="44.727917" lon="10.0541962"><ele>357.0</ele><time>2026-05-03T10:43:03.192Z</time></trkpt><trkpt lat="44.7280084" lon="10.0542394"><ele>358.40000000000003</ele><time>2026-05-03T10:43:04.192Z</time></trkpt><trkpt lat="44.7280711" lon="10.0542748"><ele>359.8</ele><time>2026-05-03T10:43:05.194Z</time></trkpt><trkpt lat="44.7281048" lon="10.0541823"><ele>361.2</ele><time>2026-05-03T10:43:13.196Z</time></trkpt><trkpt lat="44.7281253" lon="10.0540024"><ele>362.6</ele><time>2026-05-03T10:43:15.188Z</time></trkpt><trkpt lat="44.7281275" lon="10.0538622"><ele>364.0</ele><time>2026-05-03T10:43:16.191Z</time></trkpt><trkpt lat="44.7281345" lon="10.0536951"><ele>363.79999999999995</ele><time>2026-05-03T10:43:17.19Z</time></trkpt><trkpt lat="44.7281506" lon="10.0535542"><ele>363.59999999999997</ele><time>2026-05-03T10:43:18.193Z</time></trkpt><trkpt lat="44.7281814" lon="10.0534177"><ele>363.4</ele><time>2026-05-03T10:43:19.192Z</time></trkpt><trkpt lat="44.7282384" lon="10.0532783"><ele>363.2</ele><time>2026-05-03T10:43:20.195Z</time></trkpt><trkpt lat="44.7283061" lon="10.0531213"><ele>363.0</ele><time>2026-05-03T10:43:21.192Z</time></trkpt><trkpt lat="44.7283994" lon="10.0529685"><ele>363.0</ele><time>2026-05-03T10:43:22.197Z</time></trkpt><trkpt lat="44.7284766" lon="10.0528131"><ele>363.0</ele><time>2026-05-03T10:43:23.191Z</time></trkpt><trkpt lat="44.7285286" lon="10.0526467"><ele>363.0</ele><time>2026-05-03T10:43:24.192Z</time></trkpt><trkpt lat="44.7285695" lon="10.0524656"><ele>363.0</ele><time>2026-05-03T10:43:25.19Z</time></trkpt><trkpt lat="44.7286096" lon="10.0522784"><ele>363.0</ele><time>2026-05-03T10:43:26.195Z</time></trkpt><trkpt lat="44.728604" lon="10.0520549"><ele>363.0</ele><time>2026-05-03T10:43:27.189Z</time></trkpt><trkpt lat="44.7286414" lon="10.0518808"><ele>363.0</ele><time>2026-05-03T10:43:28.189Z</time></trkpt><trkpt lat="44.7287443" lon="10.0517187"><ele>363.0</ele><time>2026-05-03T10:43:29.19Z</time></trkpt><trkpt lat="44.7288653" lon="10.0515506"><ele>363.0</ele><time>2026-05-03T10:43:30.186Z</time></trkpt><trkpt lat="44.7289883" lon="10.0514106"><ele>363.0</ele><time>2026-05-03T10:43:31.194Z</time></trkpt><trkpt lat="44.7290939" lon="10.051257"><ele>363.0</ele><time>2026-05-03T10:43:32.193Z</time></trkpt><trkpt lat="44.7292105" lon="10.0510611"><ele>363.0</ele><time>2026-05-03T10:43:33.189Z</time></trkpt><trkpt lat="44.7293079" lon="10.0508626"><ele>363.0</ele><time>2026-05-03T10:43:34.189Z</time></trkpt><trkpt lat="44.7294156" lon="10.0506651"><ele>363.0</ele><time>2026-05-03T10:43:35.19Z</time></trkpt><trkpt lat="44.7295321" lon="10.0505181"><ele>362.6666666666667</ele><time>2026-05-03T10:43:36.197Z</time></trkpt><trkpt lat="44.7296541" lon="10.0503773"><ele>362.33333333333337</ele><time>2026-05-03T10:43:37.192Z</time></trkpt><trkpt lat="44.7297896" lon="10.0502406"><ele>362.0</ele><time>2026-05-03T10:43:38.192Z</time></trkpt><trkpt lat="44.7299543" lon="10.0501136"><ele>362.0</ele><time>2026-05-03T10:43:39.193Z</time></trkpt><trkpt lat="44.7301041" lon="10.0499621"><ele>362.0</ele><time>2026-05-03T10:43:40.192Z</time></trkpt><trkpt lat="44.7302809" lon="10.0497896"><ele>362.0</ele><time>2026-05-03T10:43:41.193Z</time></trkpt><trkpt lat="44.7304262" lon="10.0496131"><ele>361.0</ele><time>2026-05-03T10:43:42.196Z</time></trkpt><trkpt lat="44.7305669" lon="10.0494835"><ele>360.0</ele><time>2026-05-03T10:43:43.202Z</time></trkpt><trkpt lat="44.7307086" lon="10.0493193"><ele>359.0</ele><time>2026-05-03T10:43:44.196Z</time></trkpt><trkpt lat="44.7308518" lon="10.0491766"><ele>358.0</ele><time>2026-05-03T10:43:45.193Z</time></trkpt><trkpt lat="44.7309703" lon="10.0490222"><ele>357.0</ele><time>2026-05-03T10:43:46.201Z</time></trkpt><trkpt lat="44.7311013" lon="10.0488617"><ele>356.0</ele><time>2026-05-03T10:43:47.204Z</time></trkpt><trkpt lat="44.7312247" lon="10.0486827"><ele>357.75</ele><time>2026-05-03T10:43:48.197Z</time></trkpt><trkpt lat="44.7313394" lon="10.0485151"><ele>359.5</ele><time>2026-05-03T10:43:49.193Z</time></trkpt><trkpt lat="44.731441" lon="10.0483447"><ele>361.25</ele><time>2026-05-03T10:43:50.196Z</time></trkpt><trkpt lat="44.7314854" lon="10.0481891"><ele>363.0</ele><time>2026-05-03T10:43:51.194Z</time></trkpt><trkpt lat="44.7315521" lon="10.0480386"><ele>364.5</ele><time>2026-05-03T10:43:52.195Z</time></trkpt><trkpt lat="44.7316133" lon="10.047878"><ele>366.0</ele><time>2026-05-03T10:43:53.195Z</time></trkpt><trkpt lat="44.7316514" lon="10.0477664"><ele>367.5</ele><time>2026-05-03T10:43:54.196Z</time></trkpt><trkpt lat="44.7318" lon="10.0477567"><ele>369.0</ele><time>2026-05-03T10:43:56.19Z</time></trkpt><trkpt lat="44.7318993" lon="10.0477324"><ele>370.1666666666667</ele><time>2026-05-03T10:43:57.187Z</time></trkpt><trkpt lat="44.7319905" lon="10.0478171"><ele>371.3333333333333</ele><time>2026-05-03T10:43:58.188Z</time></trkpt><trkpt lat="44.7320951" lon="10.0478477"><ele>372.5</ele><time>2026-05-03T10:43:59.187Z</time></trkpt><trkpt lat="44.7321708" lon="10.0478733"><ele>373.66666666666663</ele><time>2026-05-03T10:44:00.191Z</time></trkpt><trkpt lat="44.7322425" lon="10.0478693"><ele>374.8333333333333</ele><time>2026-05-03T10:44:01.184Z</time></trkpt><trkpt lat="44.7323212" lon="10.0478525"><ele>376.0</ele><time>2026-05-03T10:44:02.186Z</time></trkpt><trkpt lat="44.7323839" lon="10.0477729"><ele>376.0</ele><time>2026-05-03T10:44:03.184Z</time></trkpt><trkpt lat="44.7324347" lon="10.0476467"><ele>376.0</ele><time>2026-05-03T10:44:04.19Z</time></trkpt><trkpt lat="44.732504" lon="10.0474719"><ele>376.0</ele><time>2026-05-03T10:44:05.196Z</time></trkpt><trkpt lat="44.7326236" lon="10.0472423"><ele>376.0</ele><time>2026-05-03T10:44:06.196Z</time></trkpt><trkpt lat="44.7327389" lon="10.0470429"><ele>379.5</ele><time>2026-05-03T10:44:07.193Z</time></trkpt><trkpt lat="44.7328547" lon="10.0468982"><ele>383.0</ele><time>2026-05-03T10:44:08.195Z</time></trkpt><trkpt lat="44.732967" lon="10.046796"><ele>386.5</ele><time>2026-05-03T10:44:09.188Z</time></trkpt><trkpt lat="44.7330743" lon="10.0466685"><ele>390.0</ele><time>2026-05-03T10:44:10.196Z</time></trkpt><trkpt lat="44.733174" lon="10.0466202"><ele>390.0</ele><time>2026-05-03T10:44:11.195Z</time></trkpt><trkpt lat="44.7332836" lon="10.0466304"><ele>390.0</ele><time>2026-05-03T10:44:12.193Z</time></trkpt><trkpt lat="44.7333952" lon="10.0466621"><ele>390.0</ele><time>2026-05-03T10:44:13.193Z</time></trkpt><trkpt lat="44.7335102" lon="10.0466745"><ele>390.0</ele><time>2026-05-03T10:44:14.188Z</time></trkpt><trkpt lat="44.7336231" lon="10.0466515"><ele>394.0</ele><time>2026-05-03T10:44:15.192Z</time></trkpt><trkpt lat="44.7337562" lon="10.0465673"><ele>398.0</ele><time>2026-05-03T10:44:16.187Z</time></trkpt><trkpt lat="44.7339057" lon="10.0464336"><ele>402.0</ele><time>2026-05-03T10:44:17.194Z</time></trkpt><trkpt lat="44.7340791" lon="10.0462544"><ele>402.0</ele><time>2026-05-03T10:44:18.195Z</time></trkpt><trkpt lat="44.7342422" lon="10.0461448"><ele>402.0</ele><time>2026-05-03T10:44:19.194Z</time></trkpt><trkpt lat="44.7343662" lon="10.0461243"><ele>402.0</ele><time>2026-05-03T10:44:20.195Z</time></trkpt><trkpt lat="44.7345362" lon="10.0461361"><ele>402.25</ele><time>2026-05-03T10:44:21.193Z</time></trkpt><trkpt lat="44.7346854" lon="10.0461579"><ele>402.5</ele><time>2026-05-03T10:44:22.196Z</time></trkpt><trkpt lat="44.7348076" lon="10.0462021"><ele>402.75</ele><time>2026-05-03T10:44:23.193Z</time></trkpt><trkpt lat="44.7349113" lon="10.0462521"><ele>403.0</ele><time>2026-05-03T10:44:24.196Z</time></trkpt><trkpt lat="44.7349943" lon="10.0462194"><ele>403.0</ele><time>2026-05-03T10:44:25.19Z</time></trkpt><trkpt lat="44.7350848" lon="10.0461319"><ele>403.0</ele><time>2026-05-03T10:44:26.194Z</time></trkpt><trkpt lat="44.7351881" lon="10.0459043"><ele>403.0</ele><time>2026-05-03T10:44:27.19Z</time></trkpt><trkpt lat="44.7352955" lon="10.0457663"><ele>403.0</ele><time>2026-05-03T10:44:28.188Z</time></trkpt><trkpt lat="44.7353992" lon="10.0456959"><ele>404.75</ele><time>2026-05-03T10:44:29.188Z</time></trkpt><trkpt lat="44.7355002" lon="10.0456979"><ele>406.5</ele><time>2026-05-03T10:44:30.19Z</time></trkpt><trkpt lat="44.7355802" lon="10.0457342"><ele>408.25</ele><time>2026-05-03T10:44:31.187Z</time></trkpt><trkpt lat="44.7357139" lon="10.0457906"><ele>410.0</ele><time>2026-05-03T10:44:32.192Z</time></trkpt><trkpt lat="44.735833" lon="10.0458695"><ele>410.0</ele><time>2026-05-03T10:44:33.188Z</time></trkpt><trkpt lat="44.7359426" lon="10.0459714"><ele>410.0</ele><time>2026-05-03T10:44:34.189Z</time></trkpt><trkpt lat="44.7360443" lon="10.0460572"><ele>410.0</ele><time>2026-05-03T10:44:35.195Z</time></trkpt><trkpt lat="44.7361365" lon="10.0460842"><ele>410.0</ele><time>2026-05-03T10:44:36.192Z</time></trkpt><trkpt lat="44.7362273" lon="10.0460068"><ele>408.3333333333333</ele><time>2026-05-03T10:44:37.191Z</time></trkpt><trkpt lat="44.7363166" lon="10.0458833"><ele>406.66666666666663</ele><time>2026-05-03T10:44:38.194Z</time></trkpt><trkpt lat="44.7364266" lon="10.0457203"><ele>405.0</ele><time>2026-05-03T10:44:39.19Z</time></trkpt><trkpt lat="44.7365641" lon="10.0455388"><ele>407.0</ele><time>2026-05-03T10:44:40.188Z</time></trkpt><trkpt lat="44.7367576" lon="10.0453146"><ele>409.0</ele><time>2026-05-03T10:44:41.194Z</time></trkpt><trkpt lat="44.7369129" lon="10.0451772"><ele>411.0</ele><time>2026-05-03T10:44:42.193Z</time></trkpt><trkpt lat="44.7370963" lon="10.0450416"><ele>414.0</ele><time>2026-05-03T10:44:43.19Z</time></trkpt><trkpt lat="44.7372828" lon="10.0449296"><ele>417.0</ele><time>2026-05-03T10:44:44.189Z</time></trkpt><trkpt lat="44.7374514" lon="10.0448515"><ele>420.0</ele><time>2026-05-03T10:44:45.194Z</time></trkpt><trkpt lat="44.7375791" lon="10.0447696"><ele>420.0</ele><time>2026-05-03T10:44:46.195Z</time></trkpt><trkpt lat="44.7377108" lon="10.0446541"><ele>420.0</ele><time>2026-05-03T10:44:47.194Z</time></trkpt><trkpt lat="44.7377807" lon="10.0445298"><ele>420.0</ele><time>2026-05-03T10:44:48.191Z</time></trkpt><trkpt lat="44.7378308" lon="10.0444075"><ele>420.0</ele><time>2026-05-03T10:44:49.189Z</time></trkpt><trkpt lat="44.7378454" lon="10.0442546"><ele>418.0</ele><time>2026-05-03T10:44:50.19Z</time></trkpt><trkpt lat="44.7378674" lon="10.0440758"><ele>416.0</ele><time>2026-05-03T10:44:51.191Z</time></trkpt><trkpt lat="44.7378575" lon="10.0438629"><ele>414.0</ele><time>2026-05-03T10:44:52.189Z</time></trkpt><trkpt lat="44.7378558" lon="10.043648"><ele>412.0</ele><time>2026-05-03T10:44:53.189Z</time></trkpt><trkpt lat="44.7378527" lon="10.0434321"><ele>413.0</ele><time>2026-05-03T10:44:54.188Z</time></trkpt><trkpt lat="44.7378532" lon="10.0431999"><ele>414.0</ele><time>2026-05-03T10:44:55.182Z</time></trkpt><trkpt lat="44.7378939" lon="10.043009"><ele>415.0</ele><time>2026-05-03T10:44:56.189Z</time></trkpt><trkpt lat="44.7379326" lon="10.0428244"><ele>416.0</ele><time>2026-05-03T10:44:57.188Z</time></trkpt><trkpt lat="44.7380129" lon="10.0426049"><ele>417.5</ele><time>2026-05-03T10:44:58.184Z</time></trkpt><trkpt lat="44.7380749" lon="10.0424202"><ele>419.0</ele><time>2026-05-03T10:44:59.184Z</time></trkpt><trkpt lat="44.7381121" lon="10.0422579"><ele>420.5</ele><time>2026-05-03T10:45:00.187Z</time></trkpt><trkpt lat="44.7381381" lon="10.0421148"><ele>422.0</ele><time>2026-05-03T10:45:01.184Z</time></trkpt><trkpt lat="44.7381662" lon="10.041946"><ele>422.0</ele><time>2026-05-03T10:45:02.193Z</time></trkpt><trkpt lat="44.7381982" lon="10.041706"><ele>422.0</ele><time>2026-05-03T10:45:03.191Z</time></trkpt><trkpt lat="44.7382758" lon="10.0414931"><ele>422.0</ele><time>2026-05-03T10:45:04.192Z</time></trkpt><trkpt lat="44.738383" lon="10.0412803"><ele>420.3333333333333</ele><time>2026-05-03T10:45:05.194Z</time></trkpt><trkpt lat="44.7385137" lon="10.0411176"><ele>418.66666666666663</ele><time>2026-05-03T10:45:06.19Z</time></trkpt><trkpt lat="44.7386056" lon="10.0409616"><ele>417.0</ele><time>2026-05-03T10:45:07.186Z</time></trkpt><trkpt lat="44.738694" lon="10.040777"><ele>421.33333333333337</ele><time>2026-05-03T10:45:08.188Z</time></trkpt><trkpt lat="44.738775" lon="10.0405834"><ele>425.6666666666667</ele><time>2026-05-03T10:45:09.188Z</time></trkpt><trkpt lat="44.7388354" lon="10.0403689"><ele>430.0</ele><time>2026-05-03T10:45:10.187Z</time></trkpt><trkpt lat="44.7389055" lon="10.040215"><ele>430.0</ele><time>2026-05-03T10:45:11.185Z</time></trkpt><trkpt lat="44.739002" lon="10.0401507"><ele>430.0</ele><time>2026-05-03T10:45:12.189Z</time></trkpt><trkpt lat="44.7391267" lon="10.0401275"><ele>430.0</ele><time>2026-05-03T10:45:13.181Z</time></trkpt><trkpt lat="44.7392864" lon="10.0401672"><ele>430.0</ele><time>2026-05-03T10:45:14.184Z</time></trkpt><trkpt lat="44.7394268" lon="10.0402684"><ele>428.0</ele><time>2026-05-03T10:45:15.191Z</time></trkpt><trkpt lat="44.7395628" lon="10.0403992"><ele>426.0</ele><time>2026-05-03T10:45:16.179Z</time></trkpt><trkpt lat="44.7396891" lon="10.0405571"><ele>424.0</ele><time>2026-05-03T10:45:17.177Z</time></trkpt><trkpt lat="44.7398033" lon="10.0406481"><ele>424.0</ele><time>2026-05-03T10:45:18.181Z</time></trkpt><trkpt lat="44.7399105" lon="10.0407005"><ele>424.0</ele><time>2026-05-03T10:45:19.187Z</time></trkpt><trkpt lat="44.7399969" lon="10.0407422"><ele>424.0</ele><time>2026-05-03T10:45:20.185Z</time></trkpt><trkpt lat="44.7400779" lon="10.040629"><ele>424.0</ele><time>2026-05-03T10:45:21.181Z</time></trkpt><trkpt lat="44.7401631" lon="10.0405344"><ele>424.0</ele><time>2026-05-03T10:45:22.187Z</time></trkpt><trkpt lat="44.7402858" lon="10.0404293"><ele>420.5</ele><time>2026-05-03T10:45:23.188Z</time></trkpt><trkpt lat="44.7404239" lon="10.0403958"><ele>417.0</ele><time>2026-05-03T10:45:24.188Z</time></trkpt><trkpt lat="44.7405381" lon="10.0405382"><ele>413.5</ele><time>2026-05-03T10:45:25.192Z</time></trkpt><trkpt lat="44.7406384" lon="10.0406588"><ele>410.0</ele><time>2026-05-03T10:45:26.186Z</time></trkpt><trkpt lat="44.7407929" lon="10.04075"><ele>409.3333333333333</ele><time>2026-05-03T10:45:27.188Z</time></trkpt><trkpt lat="44.7409315" lon="10.040952"><ele>408.66666666666663</ele><time>2026-05-03T10:45:28.193Z</time></trkpt><trkpt lat="44.7410892" lon="10.0411309"><ele>408.0</ele><time>2026-05-03T10:45:29.191Z</time></trkpt><trkpt lat="44.7412032" lon="10.041281"><ele>406.0</ele><time>2026-05-03T10:45:30.194Z</time></trkpt><trkpt lat="44.7412993" lon="10.0414154"><ele>404.0</ele><time>2026-05-03T10:45:31.193Z</time></trkpt><trkpt lat="44.7414143" lon="10.0415501"><ele>402.0</ele><time>2026-05-03T10:45:32.191Z</time></trkpt><trkpt lat="44.7415664" lon="10.0415549"><ele>400.0</ele><time>2026-05-03T10:45:33.192Z</time></trkpt><trkpt lat="44.7417358" lon="10.0415402"><ele>399.33333333333337</ele><time>2026-05-03T10:45:34.203Z</time></trkpt><trkpt lat="44.7419025" lon="10.0415571"><ele>398.66666666666663</ele><time>2026-05-03T10:45:35.198Z</time></trkpt><trkpt lat="44.7420994" lon="10.0415517"><ele>398.0</ele><time>2026-05-03T10:45:36.195Z</time></trkpt><trkpt lat="44.7423145" lon="10.0415483"><ele>398.0</ele><time>2026-05-03T10:45:37.192Z</time></trkpt><trkpt lat="44.7425214" lon="10.0415271"><ele>398.0</ele><time>2026-05-03T10:45:38.196Z</time></trkpt><trkpt lat="44.7427339" lon="10.0414606"><ele>398.0</ele><time>2026-05-03T10:45:39.197Z</time></trkpt><trkpt lat="44.7429093" lon="10.0414675"><ele>397.0</ele><time>2026-05-03T10:45:40.195Z</time></trkpt><trkpt lat="44.7430778" lon="10.0414997"><ele>396.0</ele><time>2026-05-03T10:45:41.188Z</time></trkpt><trkpt lat="44.7432805" lon="10.0415694"><ele>395.0</ele><time>2026-05-03T10:45:42.191Z</time></trkpt><trkpt lat="44.7434765" lon="10.0416895"><ele>394.3333333333333</ele><time>2026-05-03T10:45:43.188Z</time></trkpt><trkpt lat="44.7436399" lon="10.0417931"><ele>393.66666666666663</ele><time>2026-05-03T10:45:44.185Z</time></trkpt><trkpt lat="44.7437981" lon="10.0418797"><ele>393.0</ele><time>2026-05-03T10:45:45.189Z</time></trkpt><trkpt lat="44.7439492" lon="10.0419553"><ele>393.0</ele><time>2026-05-03T10:45:46.198Z</time></trkpt><trkpt lat="44.7440929" lon="10.042023"><ele>393.0</ele><time>2026-05-03T10:45:47.192Z</time></trkpt><trkpt lat="44.7442279" lon="10.0420751"><ele>393.0</ele><time>2026-05-03T10:45:48.192Z</time></trkpt><trkpt lat="44.7443678" lon="10.0421576"><ele>393.0</ele><time>2026-05-03T10:45:49.194Z</time></trkpt><trkpt lat="44.7444986" lon="10.0422148"><ele>393.0</ele><time>2026-05-03T10:45:50.192Z</time></trkpt><trkpt lat="44.7445887" lon="10.0422331"><ele>393.0</ele><time>2026-05-03T10:45:51.191Z</time></trkpt><trkpt lat="44.7447051" lon="10.0422943"><ele>393.0</ele><time>2026-05-03T10:45:53.191Z</time></trkpt><trkpt lat="44.7448418" lon="10.042288"><ele>393.0</ele><time>2026-05-03T10:45:55.191Z</time></trkpt><trkpt lat="44.7449256" lon="10.0422071"><ele>393.0</ele><time>2026-05-03T10:45:56.192Z</time></trkpt><trkpt lat="44.7449842" lon="10.0421307"><ele>393.0</ele><time>2026-05-03T10:45:57.191Z</time></trkpt><trkpt lat="44.7450742" lon="10.0420107"><ele>393.0</ele><time>2026-05-03T10:45:58.192Z</time></trkpt><trkpt lat="44.7451634" lon="10.0418813"><ele>393.0</ele><time>2026-05-03T10:45:59.189Z</time></trkpt><trkpt lat="44.7452555" lon="10.0417342"><ele>392.0</ele><time>2026-05-03T10:46:00.19Z</time></trkpt><trkpt lat="44.7453433" lon="10.041577"><ele>391.0</ele><time>2026-05-03T10:46:01.188Z</time></trkpt><trkpt lat="44.7454331" lon="10.0414046"><ele>390.0</ele><time>2026-05-03T10:46:02.191Z</time></trkpt><trkpt lat="44.7455288" lon="10.0412753"><ele>389.0</ele><time>2026-05-03T10:46:03.194Z</time></trkpt><trkpt lat="44.7456535" lon="10.0410936"><ele>389.0</ele><time>2026-05-03T10:46:04.191Z</time></trkpt><trkpt lat="44.7457695" lon="10.0409081"><ele>389.0</ele><time>2026-05-03T10:46:05.19Z</time></trkpt><trkpt lat="44.745862" lon="10.0407063"><ele>389.0</ele><time>2026-05-03T10:46:06.19Z</time></trkpt><trkpt lat="44.7459457" lon="10.0404747"><ele>386.0</ele><time>2026-05-03T10:46:07.193Z</time></trkpt><trkpt lat="44.7460191" lon="10.0402424"><ele>383.0</ele><time>2026-05-03T10:46:08.195Z</time></trkpt><trkpt lat="44.7461118" lon="10.040049"><ele>380.0</ele><time>2026-05-03T10:46:09.192Z</time></trkpt><trkpt lat="44.7461959" lon="10.0398763"><ele>380.0</ele><time>2026-05-03T10:46:10.191Z</time></trkpt><trkpt lat="44.746252" lon="10.0397158"><ele>380.0</ele><time>2026-05-03T10:46:11.191Z</time></trkpt><trkpt lat="44.7463085" lon="10.0395211"><ele>380.0</ele><time>2026-05-03T10:46:12.193Z</time></trkpt><trkpt lat="44.7463599" lon="10.0393626"><ele>380.0</ele><time>2026-05-03T10:46:13.192Z</time></trkpt><trkpt lat="44.7463762" lon="10.0391851"><ele>381.5</ele><time>2026-05-03T10:46:14.191Z</time></trkpt><trkpt lat="44.7464022" lon="10.0389859"><ele>383.0</ele><time>2026-05-03T10:46:15.188Z</time></trkpt><trkpt lat="44.7463751" lon="10.0388295"><ele>384.5</ele><time>2026-05-03T10:46:16.211Z</time></trkpt><trkpt lat="44.7463212" lon="10.0386672"><ele>386.0</ele><time>2026-05-03T10:46:17.218Z</time></trkpt><trkpt lat="44.7462065" lon="10.0385178"><ele>386.0</ele><time>2026-05-03T10:46:18.187Z</time></trkpt><trkpt lat="44.7461025" lon="10.0383406"><ele>386.0</ele><time>2026-05-03T10:46:19.192Z</time></trkpt><trkpt lat="44.7460371" lon="10.038169"><ele>386.0</ele><time>2026-05-03T10:46:20.189Z</time></trkpt><trkpt lat="44.7459592" lon="10.0379875"><ele>381.0</ele><time>2026-05-03T10:46:21.191Z</time></trkpt><trkpt lat="44.7459011" lon="10.0378214"><ele>376.0</ele><time>2026-05-03T10:46:22.193Z</time></trkpt><trkpt lat="44.7459073" lon="10.0376296"><ele>371.0</ele><time>2026-05-03T10:46:23.182Z</time></trkpt><trkpt lat="44.7458606" lon="10.037483"><ele>366.0</ele><time>2026-05-03T10:46:24.21Z</time></trkpt><trkpt lat="44.7459074" lon="10.0372387"><ele>365.6666666666667</ele><time>2026-05-03T10:46:25.209Z</time></trkpt><trkpt lat="44.7459704" lon="10.0370123"><ele>365.33333333333337</ele><time>2026-05-03T10:46:26.186Z</time></trkpt><trkpt lat="44.7460269" lon="10.036813"><ele>365.0</ele><time>2026-05-03T10:46:27.186Z</time></trkpt><trkpt lat="44.7461983" lon="10.0366331"><ele>365.0</ele><time>2026-05-03T10:46:28.185Z</time></trkpt><trkpt lat="44.7463448" lon="10.036412"><ele>365.0</ele><time>2026-05-03T10:46:29.185Z</time></trkpt><trkpt lat="44.7464678" lon="10.0362038"><ele>365.0</ele><time>2026-05-03T10:46:30.188Z</time></trkpt><trkpt lat="44.7465485" lon="10.0359736"><ele>359.33333333333337</ele><time>2026-05-03T10:46:31.187Z</time></trkpt><trkpt lat="44.7466352" lon="10.0357773"><ele>353.6666666666667</ele><time>2026-05-03T10:46:32.187Z</time></trkpt><trkpt lat="44.7467308" lon="10.0355651"><ele>348.0</ele><time>2026-05-03T10:46:33.186Z</time></trkpt><trkpt lat="44.7468434" lon="10.0353718"><ele>352.3333333333333</ele><time>2026-05-03T10:46:34.191Z</time></trkpt><trkpt lat="44.7469296" lon="10.0351864"><ele>356.66666666666663</ele><time>2026-05-03T10:46:35.193Z</time></trkpt><trkpt lat="44.7470041" lon="10.0349753"><ele>361.0</ele><time>2026-05-03T10:46:36.194Z</time></trkpt><trkpt lat="44.7470883" lon="10.034775"><ele>361.0</ele><time>2026-05-03T10:46:37.19Z</time></trkpt><trkpt lat="44.7471814" lon="10.0345766"><ele>361.0</ele><time>2026-05-03T10:46:38.196Z</time></trkpt><trkpt lat="44.7472844" lon="10.034385"><ele>361.0</ele><time>2026-05-03T10:46:39.188Z</time></trkpt><trkpt lat="44.7473848" lon="10.0341839"><ele>355.3333333333333</ele><time>2026-05-03T10:46:40.189Z</time></trkpt><trkpt lat="44.7474987" lon="10.0339718"><ele>349.6666666666667</ele><time>2026-05-03T10:46:41.191Z</time></trkpt><trkpt lat="44.7476247" lon="10.03376"><ele>344.0</ele><time>2026-05-03T10:46:42.187Z</time></trkpt><trkpt lat="44.7476942" lon="10.0335494"><ele>347.75</ele><time>2026-05-03T10:46:43.188Z</time></trkpt><trkpt lat="44.7477606" lon="10.0333309"><ele>351.5</ele><time>2026-05-03T10:46:44.191Z</time></trkpt><trkpt lat="44.7478079" lon="10.0331538"><ele>355.25</ele><time>2026-05-03T10:46:45.181Z</time></trkpt><trkpt lat="44.747839" lon="10.0330238"><ele>359.0</ele><time>2026-05-03T10:46:46.191Z</time></trkpt><trkpt lat="44.7478466" lon="10.0328554"><ele>352.79999999999995</ele><time>2026-05-03T10:46:48.212Z</time></trkpt><trkpt lat="44.7477899" lon="10.0327935"><ele>346.59999999999997</ele><time>2026-05-03T10:46:49.188Z</time></trkpt><trkpt lat="44.7476697" lon="10.0327765"><ele>340.4</ele><time>2026-05-03T10:46:50.186Z</time></trkpt><trkpt lat="44.7475704" lon="10.0327917"><ele>334.2</ele><time>2026-05-03T10:46:51.192Z</time></trkpt><trkpt lat="44.7474537" lon="10.032892"><ele>328.0</ele><time>2026-05-03T10:46:53.188Z</time></trkpt><trkpt lat="44.7473728" lon="10.0329928"><ele>328.0</ele><time>2026-05-03T10:46:54.185Z</time></trkpt><trkpt lat="44.7472866" lon="10.033204"><ele>328.0</ele><time>2026-05-03T10:46:55.188Z</time></trkpt><trkpt lat="44.747189" lon="10.0333654"><ele>328.0</ele><time>2026-05-03T10:46:56.179Z</time></trkpt><trkpt lat="44.7471156" lon="10.0336366"><ele>330.0</ele><time>2026-05-03T10:46:57.187Z</time></trkpt><trkpt lat="44.7469991" lon="10.0338702"><ele>332.0</ele><time>2026-05-03T10:46:58.187Z</time></trkpt><trkpt lat="44.7468665" lon="10.0340541"><ele>334.0</ele><time>2026-05-03T10:46:59.192Z</time></trkpt><trkpt lat="44.7467606" lon="10.0342415"><ele>334.0</ele><time>2026-05-03T10:47:00.191Z</time></trkpt><trkpt lat="44.7466827" lon="10.0344824"><ele>334.0</ele><time>2026-05-03T10:47:01.194Z</time></trkpt><trkpt lat="44.746557" lon="10.0347092"><ele>334.0</ele><time>2026-05-03T10:47:02.192Z</time></trkpt><trkpt lat="44.7464946" lon="10.0348482"><ele>334.0</ele><time>2026-05-03T10:47:03.187Z</time></trkpt><trkpt lat="44.7464438" lon="10.0350535"><ele>334.0</ele><time>2026-05-03T10:47:04.19Z</time></trkpt><trkpt lat="44.7464263" lon="10.0351568"><ele>334.0</ele><time>2026-05-03T10:47:05.188Z</time></trkpt><trkpt lat="44.7463619" lon="10.0350066"><ele>334.0</ele><time>2026-05-03T10:47:08.191Z</time></trkpt><trkpt lat="44.7464078" lon="10.0348434"><ele>334.0</ele><time>2026-05-03T10:47:09.185Z</time></trkpt><trkpt lat="44.7464679" lon="10.0346754"><ele>334.0</ele><time>2026-05-03T10:47:10.187Z</time></trkpt><trkpt lat="44.7465264" lon="10.0344919"><ele>334.0</ele><time>2026-05-03T10:47:11.18Z</time></trkpt><trkpt lat="44.746594" lon="10.034275"><ele>334.0</ele><time>2026-05-03T10:47:12.188Z</time></trkpt><trkpt lat="44.7466643" lon="10.0340144"><ele>331.0</ele><time>2026-05-03T10:47:13.185Z</time></trkpt><trkpt lat="44.7467339" lon="10.0338468"><ele>328.0</ele><time>2026-05-03T10:47:14.186Z</time></trkpt><trkpt lat="44.7468028" lon="10.0337018"><ele>325.0</ele><time>2026-05-03T10:47:15.188Z</time></trkpt><trkpt lat="44.7468296" lon="10.0335801"><ele>322.0</ele><time>2026-05-03T10:47:16.185Z</time></trkpt><trkpt lat="44.7468456" lon="10.0334933"><ele>319.0</ele><time>2026-05-03T10:47:17.187Z</time></trkpt><trkpt lat="44.7468074" lon="10.0333895"><ele>319.0</ele><time>2026-05-03T10:47:18.193Z</time></trkpt><trkpt lat="44.7467679" lon="10.0333072"><ele>319.0</ele><time>2026-05-03T10:47:19.217Z</time></trkpt><trkpt lat="44.7467005" lon="10.0332923"><ele>319.0</ele><time>2026-05-03T10:47:20.187Z</time></trkpt><trkpt lat="44.7466164" lon="10.0332898"><ele>319.0</ele><time>2026-05-03T10:47:21.187Z</time></trkpt><trkpt lat="44.7465432" lon="10.0333144"><ele>319.0</ele><time>2026-05-03T10:47:22.19Z</time></trkpt><trkpt lat="44.7464506" lon="10.0334009"><ele>319.0</ele><time>2026-05-03T10:47:23.185Z</time></trkpt><trkpt lat="44.7463366" lon="10.0335244"><ele>319.0</ele><time>2026-05-03T10:47:24.191Z</time></trkpt><trkpt lat="44.7462322" lon="10.0336635"><ele>319.0</ele><time>2026-05-03T10:47:25.189Z</time></trkpt><trkpt lat="44.7461337" lon="10.0338044"><ele>319.0</ele><time>2026-05-03T10:47:26.185Z</time></trkpt><trkpt lat="44.746031" lon="10.0340145"><ele>317.66666666666663</ele><time>2026-05-03T10:47:27.193Z</time></trkpt><trkpt lat="44.7459267" lon="10.0342482"><ele>316.3333333333333</ele><time>2026-05-03T10:47:28.193Z</time></trkpt><trkpt lat="44.7458175" lon="10.0344364"><ele>315.0</ele><time>2026-05-03T10:47:29.191Z</time></trkpt><trkpt lat="44.7457394" lon="10.0345688"><ele>315.0</ele><time>2026-05-03T10:47:30.194Z</time></trkpt><trkpt lat="44.745674" lon="10.0347056"><ele>315.0</ele><time>2026-05-03T10:47:31.191Z</time></trkpt><trkpt lat="44.7456217" lon="10.0347995"><ele>315.0</ele><time>2026-05-03T10:47:32.196Z</time></trkpt><trkpt lat="44.7455444" lon="10.0348807"><ele>315.0</ele><time>2026-05-03T10:47:33.196Z</time></trkpt><trkpt lat="44.7454562" lon="10.0349118"><ele>315.0</ele><time>2026-05-03T10:47:34.191Z</time></trkpt><trkpt lat="44.7453725" lon="10.0349011"><ele>315.0</ele><time>2026-05-03T10:47:35.192Z</time></trkpt><trkpt lat="44.745317" lon="10.0347663"><ele>315.0</ele><time>2026-05-03T10:47:36.189Z</time></trkpt><trkpt lat="44.7452939" lon="10.0345939"><ele>315.0</ele><time>2026-05-03T10:47:37.193Z</time></trkpt><trkpt lat="44.7453034" lon="10.0344169"><ele>315.0</ele><time>2026-05-03T10:47:38.191Z</time></trkpt><trkpt lat="44.7453348" lon="10.0342722"><ele>312.6</ele><time>2026-05-03T10:47:39.19Z</time></trkpt><trkpt lat="44.7453964" lon="10.03413"><ele>310.2</ele><time>2026-05-03T10:47:40.187Z</time></trkpt><trkpt lat="44.7454738" lon="10.0340259"><ele>307.8</ele><time>2026-05-03T10:47:41.187Z</time></trkpt><trkpt lat="44.7455694" lon="10.0339755"><ele>305.4</ele><time>2026-05-03T10:47:42.184Z</time></trkpt><trkpt lat="44.7456348" lon="10.0339307"><ele>303.0</ele><time>2026-05-03T10:47:43.189Z</time></trkpt><trkpt lat="44.7456986" lon="10.033861"><ele>303.0</ele><time>2026-05-03T10:47:45.183Z</time></trkpt><trkpt lat="44.7456256" lon="10.033712"><ele>303.0</ele><time>2026-05-03T10:47:47.182Z</time></trkpt><trkpt lat="44.7455395" lon="10.0336774"><ele>303.0</ele><time>2026-05-03T10:47:48.186Z</time></trkpt><trkpt lat="44.7454135" lon="10.0336611"><ele>303.0</ele><time>2026-05-03T10:47:49.183Z</time></trkpt><trkpt lat="44.7452604" lon="10.0336751"><ele>302.5</ele><time>2026-05-03T10:47:50.186Z</time></trkpt><trkpt lat="44.7450968" lon="10.0336855"><ele>302.0</ele><time>2026-05-03T10:47:51.181Z</time></trkpt><trkpt lat="44.7449562" lon="10.0336715"><ele>301.5</ele><time>2026-05-03T10:47:52.188Z</time></trkpt><trkpt lat="44.7448583" lon="10.0336352"><ele>301.0</ele><time>2026-05-03T10:47:53.181Z</time></trkpt><trkpt lat="44.7447599" lon="10.0335433"><ele>301.0</ele><time>2026-05-03T10:47:54.19Z</time></trkpt><trkpt lat="44.7447118" lon="10.0333728"><ele>301.0</ele><time>2026-05-03T10:47:55.181Z</time></trkpt><trkpt lat="44.7446428" lon="10.0332405"><ele>301.0</ele><time>2026-05-03T10:47:56.187Z</time></trkpt><trkpt lat="44.7446556" lon="10.0331292"><ele>301.0</ele><time>2026-05-03T10:47:57.19Z</time></trkpt><trkpt lat="44.7447204" lon="10.0329968"><ele>301.0</ele><time>2026-05-03T10:47:58.189Z</time></trkpt><trkpt lat="44.744837" lon="10.0328735"><ele>297.3333333333333</ele><time>2026-05-03T10:47:59.188Z</time></trkpt><trkpt lat="44.7449964" lon="10.0327294"><ele>293.6666666666667</ele><time>2026-05-03T10:48:00.186Z</time></trkpt><trkpt lat="44.7451582" lon="10.0326178"><ele>290.0</ele><time>2026-05-03T10:48:01.185Z</time></trkpt><trkpt lat="44.7453332" lon="10.03252"><ele>286.33333333333337</ele><time>2026-05-03T10:48:02.188Z</time></trkpt><trkpt lat="44.7455058" lon="10.0324223"><ele>282.6666666666667</ele><time>2026-05-03T10:48:03.19Z</time></trkpt><trkpt lat="44.7456517" lon="10.0323289"><ele>279.0</ele><time>2026-05-03T10:48:04.189Z</time></trkpt><trkpt lat="44.7457869" lon="10.032294"><ele>279.0</ele><time>2026-05-03T10:48:05.184Z</time></trkpt><trkpt lat="44.745934" lon="10.0322605"><ele>279.0</ele><time>2026-05-03T10:48:06.194Z</time></trkpt><trkpt lat="44.7460748" lon="10.0322557"><ele>279.0</ele><time>2026-05-03T10:48:07.192Z</time></trkpt><trkpt lat="44.7461653" lon="10.032192"><ele>279.0</ele><time>2026-05-03T10:48:08.196Z</time></trkpt><trkpt lat="44.74628" lon="10.0320349"><ele>278.0</ele><time>2026-05-03T10:48:09.192Z</time></trkpt><trkpt lat="44.7463456" lon="10.0318627"><ele>277.0</ele><time>2026-05-03T10:48:10.19Z</time></trkpt><trkpt lat="44.7464147" lon="10.0316915"><ele>276.0</ele><time>2026-05-03T10:48:11.196Z</time></trkpt><trkpt lat="44.7465031" lon="10.0315408"><ele>275.0</ele><time>2026-05-03T10:48:12.195Z</time></trkpt><trkpt lat="44.7466102" lon="10.0314361"><ele>275.0</ele><time>2026-05-03T10:48:13.188Z</time></trkpt><trkpt lat="44.7467068" lon="10.031329"><ele>275.0</ele><time>2026-05-03T10:48:14.188Z</time></trkpt><trkpt lat="44.7468125" lon="10.0312553"><ele>275.0</ele><time>2026-05-03T10:48:15.185Z</time></trkpt><trkpt lat="44.7469267" lon="10.0311952"><ele>275.0</ele><time>2026-05-03T10:48:16.189Z</time></trkpt><trkpt lat="44.7470522" lon="10.0311477"><ele>274.25</ele><time>2026-05-03T10:48:17.187Z</time></trkpt><trkpt lat="44.7471494" lon="10.0310343"><ele>273.5</ele><time>2026-05-03T10:48:18.185Z</time></trkpt><trkpt lat="44.7472552" lon="10.0308976"><ele>272.75</ele><time>2026-05-03T10:48:19.176Z</time></trkpt><trkpt lat="44.7473479" lon="10.0307346"><ele>272.0</ele><time>2026-05-03T10:48:20.181Z</time></trkpt><trkpt lat="44.7473951" lon="10.0305953"><ele>272.0</ele><time>2026-05-03T10:48:21.192Z</time></trkpt><trkpt lat="44.7474578" lon="10.030458"><ele>272.0</ele><time>2026-05-03T10:48:22.193Z</time></trkpt><trkpt lat="44.7474872" lon="10.0303446"><ele>272.0</ele><time>2026-05-03T10:48:23.187Z</time></trkpt><trkpt lat="44.7474946" lon="10.0302068"><ele>272.0</ele><time>2026-05-03T10:48:24.195Z</time></trkpt><trkpt lat="44.7475033" lon="10.030119"><ele>272.0</ele><time>2026-05-03T10:48:25.193Z</time></trkpt><trkpt lat="44.747431" lon="10.0300395"><ele>272.0</ele><time>2026-05-03T10:48:26.19Z</time></trkpt><trkpt lat="44.7473403" lon="10.0300313"><ele>272.0</ele><time>2026-05-03T10:48:28.186Z</time></trkpt><trkpt lat="44.7472499" lon="10.0301595"><ele>272.0</ele><time>2026-05-03T10:48:29.184Z</time></trkpt><trkpt lat="44.7471666" lon="10.030262"><ele>272.0</ele><time>2026-05-03T10:48:30.187Z</time></trkpt><trkpt lat="44.7471118" lon="10.0303131"><ele>272.0</ele><time>2026-05-03T10:48:31.187Z</time></trkpt><trkpt lat="44.7470639" lon="10.0304308"><ele>272.0</ele><time>2026-05-03T10:48:32.185Z</time></trkpt><trkpt lat="44.7470147" lon="10.0305101"><ele>272.0</ele><time>2026-05-03T10:48:33.186Z</time></trkpt><trkpt lat="44.7469754" lon="10.0305821"><ele>272.0</ele><time>2026-05-03T10:48:35.184Z</time></trkpt><trkpt lat="44.7470004" lon="10.0304931"><ele>272.0</ele><time>2026-05-03T10:48:36.181Z</time></trkpt><trkpt lat="44.7470397" lon="10.0302518"><ele>272.0</ele><time>2026-05-03T10:48:37.186Z</time></trkpt><trkpt lat="44.7471328" lon="10.0300236"><ele>266.0</ele><time>2026-05-03T10:48:38.188Z</time></trkpt><trkpt lat="44.7472146" lon="10.0297143"><ele>260.0</ele><time>2026-05-03T10:48:39.189Z</time></trkpt><trkpt lat="44.747313" lon="10.0292967"><ele>256.5</ele><time>2026-05-03T10:48:40.216Z</time></trkpt><trkpt lat="44.7473853" lon="10.0288676"><ele>253.0</ele><time>2026-05-03T10:48:41.218Z</time></trkpt><trkpt lat="44.7474371" lon="10.0284837"><ele>250.33333333333331</ele><time>2026-05-03T10:48:42.22Z</time></trkpt><trkpt lat="44.7474721" lon="10.0281746"><ele>247.66666666666669</ele><time>2026-05-03T10:48:43.216Z</time></trkpt><trkpt lat="44.7475197" lon="10.0279329"><ele>245.0</ele><time>2026-05-03T10:48:44.221Z</time></trkpt><trkpt lat="44.7475538" lon="10.0277045"><ele>245.0</ele><time>2026-05-03T10:48:45.218Z</time></trkpt><trkpt lat="44.7475747" lon="10.0275106"><ele>245.0</ele><time>2026-05-03T10:48:46.196Z</time></trkpt><trkpt lat="44.7475569" lon="10.0273174"><ele>245.0</ele><time>2026-05-03T10:48:47.188Z</time></trkpt><trkpt lat="44.747521" lon="10.0272051"><ele>245.0</ele><time>2026-05-03T10:48:48.214Z</time></trkpt><trkpt lat="44.7474307" lon="10.027091"><ele>243.5</ele><time>2026-05-03T10:48:49.213Z</time></trkpt><trkpt lat="44.7473302" lon="10.027024"><ele>242.0</ele><time>2026-05-03T10:48:50.196Z</time></trkpt><trkpt lat="44.7472154" lon="10.0269754"><ele>240.5</ele><time>2026-05-03T10:48:51.185Z</time></trkpt><trkpt lat="44.7470866" lon="10.0269536"><ele>239.0</ele><time>2026-05-03T10:48:52.187Z</time></trkpt><trkpt lat="44.7469542" lon="10.0269567"><ele>239.0</ele><time>2026-05-03T10:48:53.188Z</time></trkpt><trkpt lat="44.7468106" lon="10.027012"><ele>239.0</ele><time>2026-05-03T10:48:54.198Z</time></trkpt><trkpt lat="44.7467451" lon="10.0269778"><ele>239.0</ele><time>2026-05-03T10:48:56.19Z</time></trkpt><trkpt lat="44.7468099" lon="10.0268526"><ele>239.0</ele><time>2026-05-03T10:48:57.194Z</time></trkpt><trkpt lat="44.7469299" lon="10.0267217"><ele>238.0</ele><time>2026-05-03T10:48:58.188Z</time></trkpt><trkpt lat="44.7470969" lon="10.0266003"><ele>237.0</ele><time>2026-05-03T10:48:59.188Z</time></trkpt><trkpt lat="44.7472421" lon="10.026465"><ele>236.0</ele><time>2026-05-03T10:49:00.194Z</time></trkpt><trkpt lat="44.7473753" lon="10.0263916"><ele>236.0</ele><time>2026-05-03T10:49:01.184Z</time></trkpt><trkpt lat="44.747517" lon="10.0263372"><ele>236.0</ele><time>2026-05-03T10:49:02.187Z</time></trkpt><trkpt lat="44.7476712" lon="10.0263158"><ele>236.0</ele><time>2026-05-03T10:49:03.191Z</time></trkpt><trkpt lat="44.7478325" lon="10.0263036"><ele>235.33333333333334</ele><time>2026-05-03T10:49:04.196Z</time></trkpt><trkpt lat="44.7479843" lon="10.0263086"><ele>234.66666666666669</ele><time>2026-05-03T10:49:05.19Z</time></trkpt><trkpt lat="44.7481567" lon="10.0263062"><ele>234.0</ele><time>2026-05-03T10:49:06.195Z</time></trkpt><trkpt lat="44.748294" lon="10.0263257"><ele>234.0</ele><time>2026-05-03T10:49:07.194Z</time></trkpt><trkpt lat="44.748455" lon="10.0263278"><ele>234.0</ele><time>2026-05-03T10:49:08.196Z</time></trkpt><trkpt lat="44.7486127" lon="10.0262978"><ele>234.0</ele><time>2026-05-03T10:49:09.196Z</time></trkpt><trkpt lat="44.7487288" lon="10.0262993"><ele>234.0</ele><time>2026-05-03T10:49:10.191Z</time></trkpt><trkpt lat="44.7488385" lon="10.0262751"><ele>234.75</ele><time>2026-05-03T10:49:11.19Z</time></trkpt><trkpt lat="44.748954" lon="10.0263323"><ele>235.5</ele><time>2026-05-03T10:49:12.199Z</time></trkpt><trkpt lat="44.7490584" lon="10.0264241"><ele>236.25</ele><time>2026-05-03T10:49:13.191Z</time></trkpt><trkpt lat="44.7491282" lon="10.0265334"><ele>237.0</ele><time>2026-05-03T10:49:14.192Z</time></trkpt><trkpt lat="44.7492073" lon="10.026744"><ele>237.0</ele><time>2026-05-03T10:49:15.195Z</time></trkpt><trkpt lat="44.7492979" lon="10.0269352"><ele>237.0</ele><time>2026-05-03T10:49:16.192Z</time></trkpt><trkpt lat="44.7494174" lon="10.0270742"><ele>237.0</ele><time>2026-05-03T10:49:17.196Z</time></trkpt><trkpt lat="44.7495141" lon="10.0272033"><ele>237.0</ele><time>2026-05-03T10:49:18.195Z</time></trkpt><trkpt lat="44.7496027" lon="10.0273508"><ele>237.0</ele><time>2026-05-03T10:49:19.192Z</time></trkpt><trkpt lat="44.749717" lon="10.027502"><ele>237.0</ele><time>2026-05-03T10:49:20.204Z</time></trkpt><trkpt lat="44.7498175" lon="10.0276598"><ele>237.0</ele><time>2026-05-03T10:49:21.199Z</time></trkpt><trkpt lat="44.7499173" lon="10.0277948"><ele>237.0</ele><time>2026-05-03T10:49:22.197Z</time></trkpt><trkpt lat="44.7500102" lon="10.0279604"><ele>237.0</ele><time>2026-05-03T10:49:23.196Z</time></trkpt><trkpt lat="44.7501037" lon="10.0281351"><ele>237.0</ele><time>2026-05-03T10:49:24.198Z</time></trkpt><trkpt lat="44.7501872" lon="10.0283133"><ele>236.39999999999998</ele><time>2026-05-03T10:49:25.197Z</time></trkpt><trkpt lat="44.7502485" lon="10.0284684"><ele>235.79999999999998</ele><time>2026-05-03T10:49:26.195Z</time></trkpt><trkpt lat="44.7503171" lon="10.0285924"><ele>235.2</ele><time>2026-05-03T10:49:27.195Z</time></trkpt><trkpt lat="44.7503707" lon="10.0287112"><ele>234.6</ele><time>2026-05-03T10:49:28.196Z</time></trkpt><trkpt lat="44.7503961" lon="10.028803"><ele>234.0</ele><time>2026-05-03T10:49:29.195Z</time></trkpt><trkpt lat="44.7504349" lon="10.0288931"><ele>234.0</ele><time>2026-05-03T10:49:30.194Z</time></trkpt><trkpt lat="44.7504899" lon="10.028959"><ele>233.99999999999997</ele><time>2026-05-03T10:49:32.192Z</time></trkpt><trkpt lat="44.7505723" lon="10.0287999"><ele>233.99999999999997</ele><time>2026-05-03T10:49:34.193Z</time></trkpt><trkpt lat="44.7506296" lon="10.0286725"><ele>234.0</ele><time>2026-05-03T10:49:35.189Z</time></trkpt><trkpt lat="44.7506917" lon="10.0285166"><ele>234.0</ele><time>2026-05-03T10:49:36.186Z</time></trkpt><trkpt lat="44.750756" lon="10.0282891"><ele>235.66666666666669</ele><time>2026-05-03T10:49:37.192Z</time></trkpt><trkpt lat="44.7507948" lon="10.0280798"><ele>237.33333333333334</ele><time>2026-05-03T10:49:38.189Z</time></trkpt><trkpt lat="44.7507987" lon="10.0278533"><ele>239.0</ele><time>2026-05-03T10:49:39.187Z</time></trkpt><trkpt lat="44.7508242" lon="10.0276292"><ele>244.0</ele><time>2026-05-03T10:49:40.188Z</time></trkpt><trkpt lat="44.7508875" lon="10.0274402"><ele>249.0</ele><time>2026-05-03T10:49:41.188Z</time></trkpt><trkpt lat="44.7509835" lon="10.0272582"><ele>254.0</ele><time>2026-05-03T10:49:42.187Z</time></trkpt><trkpt lat="44.7511396" lon="10.0270766"><ele>254.0</ele><time>2026-05-03T10:49:43.184Z</time></trkpt><trkpt lat="44.7512629" lon="10.0268976"><ele>254.0</ele><time>2026-05-03T10:49:44.177Z</time></trkpt><trkpt lat="44.7513716" lon="10.0267045"><ele>254.0</ele><time>2026-05-03T10:49:45.177Z</time></trkpt><trkpt lat="44.7514917" lon="10.0265338"><ele>254.0</ele><time>2026-05-03T10:49:46.184Z</time></trkpt><trkpt lat="44.7515957" lon="10.0263604"><ele>254.0</ele><time>2026-05-03T10:49:47.183Z</time></trkpt><trkpt lat="44.7516662" lon="10.0261885"><ele>254.0</ele><time>2026-05-03T10:49:48.183Z</time></trkpt><trkpt lat="44.7516849" lon="10.0259412"><ele>255.66666666666669</ele><time>2026-05-03T10:49:49.185Z</time></trkpt><trkpt lat="44.7517326" lon="10.0257432"><ele>257.3333333333333</ele><time>2026-05-03T10:49:50.18Z</time></trkpt><trkpt lat="44.7517447" lon="10.0254231"><ele>259.0</ele><time>2026-05-03T10:49:51.205Z</time></trkpt><trkpt lat="44.7517684" lon="10.0251147"><ele>260.66666666666663</ele><time>2026-05-03T10:49:52.175Z</time></trkpt><trkpt lat="44.7518179" lon="10.0248325"><ele>262.3333333333333</ele><time>2026-05-03T10:49:53.173Z</time></trkpt><trkpt lat="44.7518498" lon="10.0245102"><ele>264.0</ele><time>2026-05-03T10:49:54.179Z</time></trkpt><trkpt lat="44.7518572" lon="10.0242241"><ele>266.3333333333333</ele><time>2026-05-03T10:49:55.203Z</time></trkpt><trkpt lat="44.7518871" lon="10.0239441"><ele>268.66666666666663</ele><time>2026-05-03T10:49:56.179Z</time></trkpt><trkpt lat="44.7519619" lon="10.0236719"><ele>271.0</ele><time>2026-05-03T10:49:57.203Z</time></trkpt><trkpt lat="44.752063" lon="10.023391"><ele>266.0</ele><time>2026-05-03T10:49:58.179Z</time></trkpt><trkpt lat="44.7522321" lon="10.0232043"><ele>261.0</ele><time>2026-05-03T10:49:59.177Z</time></trkpt><trkpt lat="44.752417" lon="10.0229951"><ele>261.0</ele><time>2026-05-03T10:50:00.183Z</time></trkpt><trkpt lat="44.7525848" lon="10.0227792"><ele>261.0</ele><time>2026-05-03T10:50:01.18Z</time></trkpt><trkpt lat="44.7527003" lon="10.0225462"><ele>261.0</ele><time>2026-05-03T10:50:02.187Z</time></trkpt><trkpt lat="44.7528182" lon="10.0223389"><ele>267.0</ele><time>2026-05-03T10:50:03.186Z</time></trkpt><trkpt lat="44.7529246" lon="10.0220917"><ele>273.0</ele><time>2026-05-03T10:50:04.183Z</time></trkpt><trkpt lat="44.7530079" lon="10.0218547"><ele>279.0</ele><time>2026-05-03T10:50:05.206Z</time></trkpt><trkpt lat="44.7530609" lon="10.0215851"><ele>279.0</ele><time>2026-05-03T10:50:06.183Z</time></trkpt><trkpt lat="44.7531181" lon="10.0212997"><ele>279.0</ele><time>2026-05-03T10:50:07.205Z</time></trkpt><trkpt lat="44.7532133" lon="10.0210287"><ele>279.0</ele><time>2026-05-03T10:50:08.21Z</time></trkpt><trkpt lat="44.7533138" lon="10.0207799"><ele>276.3333333333333</ele><time>2026-05-03T10:50:09.182Z</time></trkpt><trkpt lat="44.7534597" lon="10.0205789"><ele>273.66666666666663</ele><time>2026-05-03T10:50:10.183Z</time></trkpt><trkpt lat="44.7536053" lon="10.0203531"><ele>271.0</ele><time>2026-05-03T10:50:11.186Z</time></trkpt><trkpt lat="44.7537517" lon="10.020105"><ele>275.0</ele><time>2026-05-03T10:50:12.188Z</time></trkpt><trkpt lat="44.7539105" lon="10.0198679"><ele>279.0</ele><time>2026-05-03T10:50:13.194Z</time></trkpt><trkpt lat="44.754042" lon="10.0196508"><ele>283.0</ele><time>2026-05-03T10:50:14.183Z</time></trkpt><trkpt lat="44.7541759" lon="10.0193998"><ele>283.0</ele><time>2026-05-03T10:50:15.186Z</time></trkpt><trkpt lat="44.7543042" lon="10.0192035"><ele>283.0</ele><time>2026-05-03T10:50:16.182Z</time></trkpt><trkpt lat="44.7544499" lon="10.019024"><ele>283.0</ele><time>2026-05-03T10:50:17.187Z</time></trkpt><trkpt lat="44.754592" lon="10.0188162"><ele>288.66666666666663</ele><time>2026-05-03T10:50:18.18Z</time></trkpt><trkpt lat="44.7547414" lon="10.0186618"><ele>294.3333333333333</ele><time>2026-05-03T10:50:19.183Z</time></trkpt><trkpt lat="44.7548507" lon="10.0185242"><ele>300.0</ele><time>2026-05-03T10:50:20.179Z</time></trkpt><trkpt lat="44.7549692" lon="10.0184174"><ele>300.0</ele><time>2026-05-03T10:50:21.176Z</time></trkpt><trkpt lat="44.7550342" lon="10.0183521"><ele>300.0</ele><time>2026-05-03T10:50:22.188Z</time></trkpt><trkpt lat="44.755119" lon="10.018379"><ele>300.0</ele><time>2026-05-03T10:50:24.179Z</time></trkpt><trkpt lat="44.7550848" lon="10.0185126"><ele>300.0</ele><time>2026-05-03T10:50:26.183Z</time></trkpt><trkpt lat="44.7550281" lon="10.0186247"><ele>300.0</ele><time>2026-05-03T10:50:27.179Z</time></trkpt><trkpt lat="44.7549113" lon="10.0187589"><ele>300.0</ele><time>2026-05-03T10:50:28.18Z</time></trkpt><trkpt lat="44.754778" lon="10.0189295"><ele>300.0</ele><time>2026-05-03T10:50:29.184Z</time></trkpt><trkpt lat="44.7546863" lon="10.0191025"><ele>300.0</ele><time>2026-05-03T10:50:30.184Z</time></trkpt><trkpt lat="44.754581" lon="10.019285"><ele>302.5</ele><time>2026-05-03T10:50:31.179Z</time></trkpt><trkpt lat="44.7544917" lon="10.0194391"><ele>305.0</ele><time>2026-05-03T10:50:32.18Z</time></trkpt><trkpt lat="44.7543832" lon="10.0194863"><ele>307.5</ele><time>2026-05-03T10:50:33.2Z</time></trkpt><trkpt lat="44.7544954" lon="10.0195117"><ele>310.0</ele><time>2026-05-03T10:50:35.195Z</time></trkpt><trkpt lat="44.754594" lon="10.0194428"><ele>310.0</ele><time>2026-05-03T10:50:36.188Z</time></trkpt><trkpt lat="44.7546636" lon="10.0192803"><ele>310.0</ele><time>2026-05-03T10:50:37.184Z</time></trkpt><trkpt lat="44.7547428" lon="10.0191208"><ele>310.0</ele><time>2026-05-03T10:50:38.182Z</time></trkpt><trkpt lat="44.7548364" lon="10.0189538"><ele>310.0</ele><time>2026-05-03T10:50:39.18Z</time></trkpt><trkpt lat="44.7549633" lon="10.0187746"><ele>306.66666666666663</ele><time>2026-05-03T10:50:40.184Z</time></trkpt><trkpt lat="44.7551476" lon="10.0187143"><ele>303.3333333333333</ele><time>2026-05-03T10:50:41.179Z</time></trkpt><trkpt lat="44.7553203" lon="10.0186189"><ele>300.0</ele><time>2026-05-03T10:50:42.184Z</time></trkpt><trkpt lat="44.7554561" lon="10.0184361"><ele>305.0</ele><time>2026-05-03T10:50:43.183Z</time></trkpt><trkpt lat="44.7555597" lon="10.0182615"><ele>310.0</ele><time>2026-05-03T10:50:44.185Z</time></trkpt><trkpt lat="44.7556652" lon="10.0180806"><ele>315.0</ele><time>2026-05-03T10:50:45.181Z</time></trkpt><trkpt lat="44.7557639" lon="10.0179264"><ele>315.0</ele><time>2026-05-03T10:50:46.178Z</time></trkpt><trkpt lat="44.7558581" lon="10.0177673"><ele>315.0</ele><time>2026-05-03T10:50:47.179Z</time></trkpt><trkpt lat="44.7559412" lon="10.0176312"><ele>315.0</ele><time>2026-05-03T10:50:48.183Z</time></trkpt><trkpt lat="44.755999" lon="10.0175561"><ele>315.0</ele><time>2026-05-03T10:50:49.191Z</time></trkpt><trkpt lat="44.7560727" lon="10.0174708"><ele>315.0</ele><time>2026-05-03T10:50:51.186Z</time></trkpt><trkpt lat="44.7561091" lon="10.017553"><ele>315.0</ele><time>2026-05-03T10:50:52.183Z</time></trkpt><trkpt lat="44.7561067" lon="10.0176609"><ele>315.0</ele><time>2026-05-03T10:50:53.176Z</time></trkpt><trkpt lat="44.7560071" lon="10.0177495"><ele>315.0</ele><time>2026-05-03T10:50:54.185Z</time></trkpt><trkpt lat="44.7559064" lon="10.0178915"><ele>315.0</ele><time>2026-05-03T10:50:55.172Z</time></trkpt><trkpt lat="44.7558388" lon="10.0180511"><ele>315.0</ele><time>2026-05-03T10:50:56.183Z</time></trkpt><trkpt lat="44.7557584" lon="10.0182019"><ele>315.0</ele><time>2026-05-03T10:50:57.175Z</time></trkpt><trkpt lat="44.7556947" lon="10.0183444"><ele>315.0</ele><time>2026-05-03T10:50:58.178Z</time></trkpt><trkpt lat="44.7556444" lon="10.0184794"><ele>315.0</ele><time>2026-05-03T10:50:59.183Z</time></trkpt><trkpt lat="44.7556051" lon="10.0185755"><ele>315.0</ele><time>2026-05-03T10:51:00.191Z</time></trkpt><trkpt lat="44.7555481" lon="10.0186514"><ele>318.75</ele><time>2026-05-03T10:51:01.188Z</time></trkpt><trkpt lat="44.7556109" lon="10.0187208"><ele>322.5</ele><time>2026-05-03T10:51:03.162Z</time></trkpt><trkpt lat="44.755714" lon="10.0186662"><ele>326.25</ele><time>2026-05-03T10:51:05.179Z</time></trkpt><trkpt lat="44.755815" lon="10.0185715"><ele>330.0</ele><time>2026-05-03T10:51:06.181Z</time></trkpt><trkpt lat="44.7559214" lon="10.018352"><ele>340.0</ele><time>2026-05-03T10:51:07.189Z</time></trkpt><trkpt lat="44.7560534" lon="10.0181068"><ele>350.0</ele><time>2026-05-03T10:51:08.182Z</time></trkpt><trkpt lat="44.7562181" lon="10.0178586"><ele>350.0</ele><time>2026-05-03T10:51:09.181Z</time></trkpt><trkpt lat="44.7564496" lon="10.0175552"><ele>350.0</ele><time>2026-05-03T10:51:10.182Z</time></trkpt><trkpt lat="44.7566222" lon="10.0172989"><ele>343.5</ele><time>2026-05-03T10:51:11.178Z</time></trkpt><trkpt lat="44.7568146" lon="10.0170308"><ele>337.0</ele><time>2026-05-03T10:51:12.188Z</time></trkpt><trkpt lat="44.7570195" lon="10.0167949"><ele>347.5</ele><time>2026-05-03T10:51:13.182Z</time></trkpt><trkpt lat="44.7572036" lon="10.0165528"><ele>358.0</ele><time>2026-05-03T10:51:14.194Z</time></trkpt><trkpt lat="44.7573487" lon="10.0163195"><ele>358.0</ele><time>2026-05-03T10:51:15.184Z</time></trkpt><trkpt lat="44.7574399" lon="10.0159346"><ele>358.0</ele><time>2026-05-03T10:51:16.187Z</time></trkpt><trkpt lat="44.7575065" lon="10.0155762"><ele>355.3333333333333</ele><time>2026-05-03T10:51:17.184Z</time></trkpt><trkpt lat="44.75758" lon="10.0153547"><ele>352.6666666666667</ele><time>2026-05-03T10:51:18.188Z</time></trkpt><trkpt lat="44.7576288" lon="10.015205"><ele>350.0</ele><time>2026-05-03T10:51:19.182Z</time></trkpt><trkpt lat="44.7575649" lon="10.0149927"><ele>353.0</ele><time>2026-05-03T10:51:20.183Z</time></trkpt><trkpt lat="44.7574442" lon="10.0148097"><ele>356.0</ele><time>2026-05-03T10:51:21.182Z</time></trkpt><trkpt lat="44.7572949" lon="10.0147583"><ele>359.0</ele><time>2026-05-03T10:51:22.187Z</time></trkpt><trkpt lat="44.7571527" lon="10.0147377"><ele>359.0</ele><time>2026-05-03T10:51:23.183Z</time></trkpt><trkpt lat="44.7569929" lon="10.0146772"><ele>359.0</ele><time>2026-05-03T10:51:24.193Z</time></trkpt><trkpt lat="44.7568509" lon="10.0145646"><ele>359.0</ele><time>2026-05-03T10:51:25.187Z</time></trkpt><trkpt lat="44.7567273" lon="10.0144497"><ele>358.0</ele><time>2026-05-03T10:51:26.185Z</time></trkpt><trkpt lat="44.7566249" lon="10.0143423"><ele>357.0</ele><time>2026-05-03T10:51:27.189Z</time></trkpt><trkpt lat="44.7565294" lon="10.0142364"><ele>356.0</ele><time>2026-05-03T10:51:28.187Z</time></trkpt><trkpt lat="44.7563877" lon="10.0143194"><ele>355.0</ele><time>2026-05-03T10:51:29.183Z</time></trkpt><trkpt lat="44.7562052" lon="10.0144252"><ele>355.0</ele><time>2026-05-03T10:51:30.186Z</time></trkpt><trkpt lat="44.7560378" lon="10.0145036"><ele>355.0</ele><time>2026-05-03T10:51:31.181Z</time></trkpt><trkpt lat="44.7559465" lon="10.0144396"><ele>355.0</ele><time>2026-05-03T10:51:32.183Z</time></trkpt><trkpt lat="44.7558596" lon="10.0143426"><ele>355.0</ele><time>2026-05-03T10:51:33.184Z</time></trkpt><trkpt lat="44.7557801" lon="10.0141866"><ele>355.25</ele><time>2026-05-03T10:51:34.191Z</time></trkpt><trkpt lat="44.7557822" lon="10.0140131"><ele>355.5</ele><time>2026-05-03T10:51:35.18Z</time></trkpt><trkpt lat="44.7558169" lon="10.0138132"><ele>355.75</ele><time>2026-05-03T10:51:36.185Z</time></trkpt><trkpt lat="44.7558496" lon="10.0135941"><ele>356.0</ele><time>2026-05-03T10:51:37.185Z</time></trkpt><trkpt lat="44.7558651" lon="10.0133601"><ele>357.6666666666667</ele><time>2026-05-03T10:51:38.188Z</time></trkpt><trkpt lat="44.7558825" lon="10.0130995"><ele>359.3333333333333</ele><time>2026-05-03T10:51:39.187Z</time></trkpt><trkpt lat="44.7558935" lon="10.0128613"><ele>361.0</ele><time>2026-05-03T10:51:40.185Z</time></trkpt><trkpt lat="44.7559124" lon="10.012637"><ele>364.3333333333333</ele><time>2026-05-03T10:51:41.188Z</time></trkpt><trkpt lat="44.7559461" lon="10.0124215"><ele>367.6666666666667</ele><time>2026-05-03T10:51:42.187Z</time></trkpt><trkpt lat="44.7559518" lon="10.0122266"><ele>371.0</ele><time>2026-05-03T10:51:43.184Z</time></trkpt><trkpt lat="44.7559283" lon="10.0120107"><ele>371.0</ele><time>2026-05-03T10:51:44.196Z</time></trkpt><trkpt lat="44.7558427" lon="10.0118454"><ele>371.0</ele><time>2026-05-03T10:51:45.184Z</time></trkpt><trkpt lat="44.7557103" lon="10.0117171"><ele>371.0</ele><time>2026-05-03T10:51:46.182Z</time></trkpt><trkpt lat="44.7555895" lon="10.0115665"><ele>374.0</ele><time>2026-05-03T10:51:47.184Z</time></trkpt><trkpt lat="44.7554707" lon="10.0113816"><ele>377.0</ele><time>2026-05-03T10:51:48.182Z</time></trkpt><trkpt lat="44.755406" lon="10.0111737"><ele>380.0</ele><time>2026-05-03T10:51:49.184Z</time></trkpt><trkpt lat="44.7553534" lon="10.0109397"><ele>381.33333333333337</ele><time>2026-05-03T10:51:50.187Z</time></trkpt><trkpt lat="44.7552518" lon="10.0107198"><ele>382.6666666666667</ele><time>2026-05-03T10:51:51.185Z</time></trkpt><trkpt lat="44.7551689" lon="10.0104921"><ele>384.0</ele><time>2026-05-03T10:51:52.184Z</time></trkpt><trkpt lat="44.7550844" lon="10.0102974"><ele>382.0</ele><time>2026-05-03T10:51:53.184Z</time></trkpt><trkpt lat="44.7550013" lon="10.0100942"><ele>380.0</ele><time>2026-05-03T10:51:54.196Z</time></trkpt><trkpt lat="44.7549461" lon="10.0098534"><ele>378.0</ele><time>2026-05-03T10:51:55.187Z</time></trkpt><trkpt lat="44.754961" lon="10.0095926"><ele>378.0</ele><time>2026-05-03T10:51:56.191Z</time></trkpt><trkpt lat="44.754952" lon="10.0093097"><ele>378.0</ele><time>2026-05-03T10:51:57.192Z</time></trkpt><trkpt lat="44.7549314" lon="10.0090518"><ele>378.0</ele><time>2026-05-03T10:51:58.187Z</time></trkpt><trkpt lat="44.7548634" lon="10.0088392"><ele>378.0</ele><time>2026-05-03T10:51:59.183Z</time></trkpt><trkpt lat="44.7548146" lon="10.0086234"><ele>378.0</ele><time>2026-05-03T10:52:00.189Z</time></trkpt><trkpt lat="44.7547949" lon="10.0084277"><ele>378.0</ele><time>2026-05-03T10:52:01.188Z</time></trkpt><trkpt lat="44.7547722" lon="10.0082329"><ele>378.0</ele><time>2026-05-03T10:52:02.186Z</time></trkpt><trkpt lat="44.7547779" lon="10.0080391"><ele>378.0</ele><time>2026-05-03T10:52:03.185Z</time></trkpt><trkpt lat="44.7547849" lon="10.0078661"><ele>378.0</ele><time>2026-05-03T10:52:04.192Z</time></trkpt><trkpt lat="44.7548084" lon="10.0077378"><ele>378.0</ele><time>2026-05-03T10:52:05.179Z</time></trkpt><trkpt lat="44.7548481" lon="10.0076332"><ele>378.0</ele><time>2026-05-03T10:52:06.18Z</time></trkpt><trkpt lat="44.754935" lon="10.0075077"><ele>378.0</ele><time>2026-05-03T10:52:07.181Z</time></trkpt><trkpt lat="44.7550516" lon="10.0074298"><ele>374.75</ele><time>2026-05-03T10:52:08.183Z</time></trkpt><trkpt lat="44.7551913" lon="10.0073868"><ele>371.5</ele><time>2026-05-03T10:52:09.179Z</time></trkpt><trkpt lat="44.7553361" lon="10.0073352"><ele>368.25</ele><time>2026-05-03T10:52:10.187Z</time></trkpt><trkpt lat="44.7554739" lon="10.0072958"><ele>365.0</ele><time>2026-05-03T10:52:11.188Z</time></trkpt><trkpt lat="44.7555813" lon="10.0073047"><ele>364.5</ele><time>2026-05-03T10:52:12.188Z</time></trkpt><trkpt lat="44.7556573" lon="10.0073716"><ele>364.0</ele><time>2026-05-03T10:52:13.19Z</time></trkpt><trkpt lat="44.7557109" lon="10.0075164"><ele>363.5</ele><time>2026-05-03T10:52:14.201Z</time></trkpt><trkpt lat="44.7557515" lon="10.0077082"><ele>363.0</ele><time>2026-05-03T10:52:15.186Z</time></trkpt><trkpt lat="44.7557934" lon="10.0078643"><ele>365.6666666666667</ele><time>2026-05-03T10:52:16.189Z</time></trkpt><trkpt lat="44.7558155" lon="10.0080975"><ele>368.33333333333337</ele><time>2026-05-03T10:52:17.183Z</time></trkpt><trkpt lat="44.755896" lon="10.0083781"><ele>371.0</ele><time>2026-05-03T10:52:18.183Z</time></trkpt><trkpt lat="44.7559713" lon="10.0085898"><ele>367.0</ele><time>2026-05-03T10:52:19.184Z</time></trkpt><trkpt lat="44.7560766" lon="10.0088069"><ele>363.0</ele><time>2026-05-03T10:52:20.185Z</time></trkpt><trkpt lat="44.7561416" lon="10.0090216"><ele>359.0</ele><time>2026-05-03T10:52:21.184Z</time></trkpt><trkpt lat="44.7562068" lon="10.0091854"><ele>359.0</ele><time>2026-05-03T10:52:22.185Z</time></trkpt><trkpt lat="44.7563098" lon="10.009341"><ele>359.0</ele><time>2026-05-03T10:52:23.184Z</time></trkpt><trkpt lat="44.7563993" lon="10.0093965"><ele>359.0</ele><time>2026-05-03T10:52:24.196Z</time></trkpt><trkpt lat="44.7565053" lon="10.0094523"><ele>359.0</ele><time>2026-05-03T10:52:25.183Z</time></trkpt><trkpt lat="44.7566367" lon="10.0094633"><ele>359.0</ele><time>2026-05-03T10:52:26.179Z</time></trkpt><trkpt lat="44.7567559" lon="10.0093494"><ele>359.0</ele><time>2026-05-03T10:52:27.19Z</time></trkpt><trkpt lat="44.7568581" lon="10.0092376"><ele>359.0</ele><time>2026-05-03T10:52:28.194Z</time></trkpt><trkpt lat="44.7569636" lon="10.0091169"><ele>359.0</ele><time>2026-05-03T10:52:29.201Z</time></trkpt><trkpt lat="44.7570845" lon="10.0090899"><ele>356.25</ele><time>2026-05-03T10:52:30.198Z</time></trkpt><trkpt lat="44.7572092" lon="10.0091779"><ele>353.5</ele><time>2026-05-03T10:52:31.192Z</time></trkpt><trkpt lat="44.7573135" lon="10.0092703"><ele>350.75</ele><time>2026-05-03T10:52:32.191Z</time></trkpt><trkpt lat="44.7574302" lon="10.0093901"><ele>348.0</ele><time>2026-05-03T10:52:33.186Z</time></trkpt><trkpt lat="44.7574989" lon="10.009511"><ele>348.0</ele><time>2026-05-03T10:52:34.203Z</time></trkpt><trkpt lat="44.7575462" lon="10.009687"><ele>348.0</ele><time>2026-05-03T10:52:35.192Z</time></trkpt><trkpt lat="44.7576289" lon="10.0098332"><ele>348.0</ele><time>2026-05-03T10:52:36.186Z</time></trkpt><trkpt lat="44.7577135" lon="10.0099394"><ele>348.0</ele><time>2026-05-03T10:52:37.18Z</time></trkpt><trkpt lat="44.7578003" lon="10.0100003"><ele>347.2</ele><time>2026-05-03T10:52:38.179Z</time></trkpt><trkpt lat="44.7578933" lon="10.0100147"><ele>346.4</ele><time>2026-05-03T10:52:39.188Z</time></trkpt><trkpt lat="44.7579922" lon="10.0099657"><ele>345.59999999999997</ele><time>2026-05-03T10:52:40.185Z</time></trkpt><trkpt lat="44.7580803" lon="10.0098649"><ele>344.79999999999995</ele><time>2026-05-03T10:52:41.188Z</time></trkpt><trkpt lat="44.7581609" lon="10.0097191"><ele>344.0</ele><time>2026-05-03T10:52:42.184Z</time></trkpt><trkpt lat="44.7582163" lon="10.0095359"><ele>343.75</ele><time>2026-05-03T10:52:43.184Z</time></trkpt><trkpt lat="44.7582779" lon="10.009318"><ele>343.5</ele><time>2026-05-03T10:52:44.186Z</time></trkpt><trkpt lat="44.7583296" lon="10.0090889"><ele>343.25</ele><time>2026-05-03T10:52:45.201Z</time></trkpt><trkpt lat="44.7583382" lon="10.0089402"><ele>343.0</ele><time>2026-05-03T10:52:46.19Z</time></trkpt><trkpt lat="44.7583021" lon="10.0088033"><ele>342.0</ele><time>2026-05-03T10:52:47.184Z</time></trkpt><trkpt lat="44.7582409" lon="10.0086715"><ele>341.0</ele><time>2026-05-03T10:52:48.186Z</time></trkpt><trkpt lat="44.7581157" lon="10.0085163"><ele>340.0</ele><time>2026-05-03T10:52:49.184Z</time></trkpt><trkpt lat="44.7579861" lon="10.0083803"><ele>339.0</ele><time>2026-05-03T10:52:50.189Z</time></trkpt><trkpt lat="44.7578627" lon="10.0082529"><ele>337.6666666666667</ele><time>2026-05-03T10:52:51.177Z</time></trkpt><trkpt lat="44.757726" lon="10.0081411"><ele>336.33333333333337</ele><time>2026-05-03T10:52:52.183Z</time></trkpt><trkpt lat="44.7575574" lon="10.0080262"><ele>335.0</ele><time>2026-05-03T10:52:53.183Z</time></trkpt><trkpt lat="44.7574737" lon="10.0078912"><ele>335.0</ele><time>2026-05-03T10:52:54.186Z</time></trkpt><trkpt lat="44.7574427" lon="10.0077485"><ele>335.0</ele><time>2026-05-03T10:52:55.191Z</time></trkpt><trkpt lat="44.7574299" lon="10.0075968"><ele>335.0</ele><time>2026-05-03T10:52:56.186Z</time></trkpt><trkpt lat="44.7574741" lon="10.0074393"><ele>335.0</ele><time>2026-05-03T10:52:57.189Z</time></trkpt><trkpt lat="44.7575539" lon="10.0072997"><ele>332.6666666666667</ele><time>2026-05-03T10:52:58.186Z</time></trkpt><trkpt lat="44.7576772" lon="10.0072024"><ele>330.3333333333333</ele><time>2026-05-03T10:52:59.188Z</time></trkpt><trkpt lat="44.757828" lon="10.0071192"><ele>328.0</ele><time>2026-05-03T10:53:00.192Z</time></trkpt><trkpt lat="44.757992" lon="10.0070339"><ele>326.0</ele><time>2026-05-03T10:53:01.187Z</time></trkpt><trkpt lat="44.7581616" lon="10.0069899"><ele>324.0</ele><time>2026-05-03T10:53:02.186Z</time></trkpt><trkpt lat="44.7583854" lon="10.0070195"><ele>322.0</ele><time>2026-05-03T10:53:03.185Z</time></trkpt><trkpt lat="44.7586001" lon="10.0071813"><ele>320.5</ele><time>2026-05-03T10:53:04.185Z</time></trkpt><trkpt lat="44.7587868" lon="10.0073911"><ele>319.0</ele><time>2026-05-03T10:53:05.194Z</time></trkpt><trkpt lat="44.7589943" lon="10.0076217"><ele>319.0</ele><time>2026-05-03T10:53:06.185Z</time></trkpt><trkpt lat="44.759178" lon="10.0078239"><ele>319.0</ele><time>2026-05-03T10:53:07.18Z</time></trkpt><trkpt lat="44.7592667" lon="10.0079207"><ele>319.0</ele><time>2026-05-03T10:53:08.181Z</time></trkpt><trkpt lat="44.7593612" lon="10.0078987"><ele>319.0</ele><time>2026-05-03T10:53:10.177Z</time></trkpt><trkpt lat="44.7593238" lon="10.0077405"><ele>319.0</ele><time>2026-05-03T10:53:12.178Z</time></trkpt><trkpt lat="44.7592506" lon="10.0076311"><ele>319.0</ele><time>2026-05-03T10:53:13.183Z</time></trkpt><trkpt lat="44.759161" lon="10.0075551"><ele>319.0</ele><time>2026-05-03T10:53:14.186Z</time></trkpt><trkpt lat="44.7590709" lon="10.0074483"><ele>319.0</ele><time>2026-05-03T10:53:15.195Z</time></trkpt><trkpt lat="44.7589756" lon="10.0073226"><ele>316.75</ele><time>2026-05-03T10:53:16.182Z</time></trkpt><trkpt lat="44.7588826" lon="10.0071992"><ele>314.5</ele><time>2026-05-03T10:53:17.181Z</time></trkpt><trkpt lat="44.7588288" lon="10.0070507"><ele>312.25</ele><time>2026-05-03T10:53:18.189Z</time></trkpt><trkpt lat="44.7588369" lon="10.006847"><ele>310.0</ele><time>2026-05-03T10:53:19.184Z</time></trkpt><trkpt lat="44.7587913" lon="10.0066742"><ele>306.66666666666663</ele><time>2026-05-03T10:53:20.188Z</time></trkpt><trkpt lat="44.7587689" lon="10.0064664"><ele>303.3333333333333</ele><time>2026-05-03T10:53:21.188Z</time></trkpt><trkpt lat="44.7586982" lon="10.0062458"><ele>300.0</ele><time>2026-05-03T10:53:22.183Z</time></trkpt><trkpt lat="44.7586262" lon="10.0060397"><ele>300.0</ele><time>2026-05-03T10:53:23.182Z</time></trkpt><trkpt lat="44.7585907" lon="10.0058946"><ele>300.0</ele><time>2026-05-03T10:53:24.183Z</time></trkpt><trkpt lat="44.7585077" lon="10.0058214"><ele>300.0</ele><time>2026-05-03T10:53:26.189Z</time></trkpt><trkpt lat="44.7584289" lon="10.0058379"><ele>300.0</ele><time>2026-05-03T10:53:27.188Z</time></trkpt><trkpt lat="44.758327" lon="10.0058846"><ele>300.0</ele><time>2026-05-03T10:53:28.181Z</time></trkpt><trkpt lat="44.7582168" lon="10.0058748"><ele>299.2</ele><time>2026-05-03T10:53:29.181Z</time></trkpt><trkpt lat="44.7581131" lon="10.0058345"><ele>298.4</ele><time>2026-05-03T10:53:30.186Z</time></trkpt><trkpt lat="44.7580309" lon="10.0057371"><ele>297.6</ele><time>2026-05-03T10:53:31.189Z</time></trkpt><trkpt lat="44.7580096" lon="10.005623"><ele>296.8</ele><time>2026-05-03T10:53:32.185Z</time></trkpt><trkpt lat="44.7580414" lon="10.0054709"><ele>296.0</ele><time>2026-05-03T10:53:34.179Z</time></trkpt><trkpt lat="44.7581567" lon="10.0053943"><ele>296.0</ele><time>2026-05-03T10:53:35.176Z</time></trkpt><trkpt lat="44.7583807" lon="10.005365"><ele>296.0</ele><time>2026-05-03T10:53:36.194Z</time></trkpt><trkpt lat="44.7586255" lon="10.0053009"><ele>294.6666666666667</ele><time>2026-05-03T10:53:37.185Z</time></trkpt><trkpt lat="44.7588472" lon="10.005215"><ele>293.3333333333333</ele><time>2026-05-03T10:53:38.185Z</time></trkpt><trkpt lat="44.7590548" lon="10.0051731"><ele>292.0</ele><time>2026-05-03T10:53:39.186Z</time></trkpt><trkpt lat="44.759199" lon="10.005207"><ele>292.0</ele><time>2026-05-03T10:53:40.188Z</time></trkpt><trkpt lat="44.7593165" lon="10.005288"><ele>292.0</ele><time>2026-05-03T10:53:41.186Z</time></trkpt><trkpt lat="44.7594151" lon="10.0054324"><ele>292.0</ele><time>2026-05-03T10:53:42.185Z</time></trkpt><trkpt lat="44.7595054" lon="10.0056364"><ele>292.0</ele><time>2026-05-03T10:53:43.182Z</time></trkpt><trkpt lat="44.7595651" lon="10.0058189"><ele>290.4</ele><time>2026-05-03T10:53:44.178Z</time></trkpt><trkpt lat="44.7596242" lon="10.0059886"><ele>288.79999999999995</ele><time>2026-05-03T10:53:45.185Z</time></trkpt><trkpt lat="44.7596774" lon="10.0061053"><ele>287.2</ele><time>2026-05-03T10:53:46.195Z</time></trkpt><trkpt lat="44.7597548" lon="10.0061873"><ele>285.59999999999997</ele><time>2026-05-03T10:53:47.181Z</time></trkpt><trkpt lat="44.7598287" lon="10.0062117"><ele>284.0</ele><time>2026-05-03T10:53:48.189Z</time></trkpt><trkpt lat="44.7598996" lon="10.0061971"><ele>284.0</ele><time>2026-05-03T10:53:49.19Z</time></trkpt><trkpt lat="44.7599667" lon="10.0061831"><ele>284.0</ele><time>2026-05-03T10:53:50.191Z</time></trkpt><trkpt lat="44.7599488" lon="10.0059283"><ele>284.0</ele><time>2026-05-03T10:53:52.189Z</time></trkpt><trkpt lat="44.7598922" lon="10.005727"><ele>284.0</ele><time>2026-05-03T10:53:53.193Z</time></trkpt><trkpt lat="44.7598498" lon="10.0054945"><ele>280.6666666666667</ele><time>2026-05-03T10:53:54.194Z</time></trkpt><trkpt lat="44.7598339" lon="10.0052638"><ele>277.3333333333333</ele><time>2026-05-03T10:53:55.189Z</time></trkpt><trkpt lat="44.7598376" lon="10.004934"><ele>274.0</ele><time>2026-05-03T10:53:56.185Z</time></trkpt><trkpt lat="44.7598312" lon="10.0046285"><ele>272.66666666666663</ele><time>2026-05-03T10:53:57.182Z</time></trkpt><trkpt lat="44.7597956" lon="10.004348"><ele>271.3333333333333</ele><time>2026-05-03T10:53:58.189Z</time></trkpt><trkpt lat="44.7598006" lon="10.0041634"><ele>270.0</ele><time>2026-05-03T10:53:59.182Z</time></trkpt><trkpt lat="44.7597813" lon="10.0039548"><ele>268.25</ele><time>2026-05-03T10:54:00.186Z</time></trkpt><trkpt lat="44.7597091" lon="10.0037917"><ele>266.5</ele><time>2026-05-03T10:54:01.183Z</time></trkpt><trkpt lat="44.7595981" lon="10.0036451"><ele>264.75</ele><time>2026-05-03T10:54:02.186Z</time></trkpt><trkpt lat="44.7594777" lon="10.0035192"><ele>263.0</ele><time>2026-05-03T10:54:03.188Z</time></trkpt><trkpt lat="44.7593876" lon="10.0034153"><ele>264.4</ele><time>2026-05-03T10:54:04.181Z</time></trkpt><trkpt lat="44.7593661" lon="10.0032664"><ele>265.8</ele><time>2026-05-03T10:54:05.178Z</time></trkpt><trkpt lat="44.7594207" lon="10.0031707"><ele>267.2</ele><time>2026-05-03T10:54:06.182Z</time></trkpt><trkpt lat="44.7595213" lon="10.0031063"><ele>268.6</ele><time>2026-05-03T10:54:07.179Z</time></trkpt><trkpt lat="44.7596055" lon="10.0030884"><ele>270.0</ele><time>2026-05-03T10:54:08.185Z</time></trkpt><trkpt lat="44.759704" lon="10.0031068"><ele>268.25</ele><time>2026-05-03T10:54:09.179Z</time></trkpt><trkpt lat="44.7598203" lon="10.0031653"><ele>266.5</ele><time>2026-05-03T10:54:10.175Z</time></trkpt><trkpt lat="44.7599111" lon="10.0032802"><ele>264.75</ele><time>2026-05-03T10:54:11.183Z</time></trkpt><trkpt lat="44.7600011" lon="10.003444"><ele>263.0</ele><time>2026-05-03T10:54:12.187Z</time></trkpt><trkpt lat="44.7600463" lon="10.003629"><ele>263.0</ele><time>2026-05-03T10:54:13.188Z</time></trkpt><trkpt lat="44.7600823" lon="10.0038163"><ele>263.0</ele><time>2026-05-03T10:54:14.19Z</time></trkpt><trkpt lat="44.7601368" lon="10.0039573"><ele>263.0</ele><time>2026-05-03T10:54:15.188Z</time></trkpt><trkpt lat="44.7601742" lon="10.0040786"><ele>263.0</ele><time>2026-05-03T10:54:16.191Z</time></trkpt><trkpt lat="44.7602149" lon="10.0041776"><ele>263.0</ele><time>2026-05-03T10:54:17.193Z</time></trkpt><trkpt lat="44.7602752" lon="10.0042286"><ele>261.8</ele><time>2026-05-03T10:54:18.192Z</time></trkpt><trkpt lat="44.7603584" lon="10.0042439"><ele>260.6</ele><time>2026-05-03T10:54:19.191Z</time></trkpt><trkpt lat="44.7604343" lon="10.0042293"><ele>259.4</ele><time>2026-05-03T10:54:20.186Z</time></trkpt><trkpt lat="44.7604785" lon="10.0041094"><ele>258.2</ele><time>2026-05-03T10:54:21.182Z</time></trkpt><trkpt lat="44.7604982" lon="10.0039046"><ele>257.0</ele><time>2026-05-03T10:54:22.18Z</time></trkpt><trkpt lat="44.7605055" lon="10.0036723"><ele>255.33333333333334</ele><time>2026-05-03T10:54:23.179Z</time></trkpt><trkpt lat="44.7605013" lon="10.0033785"><ele>253.66666666666669</ele><time>2026-05-03T10:54:24.189Z</time></trkpt><trkpt lat="44.7604921" lon="10.0031175"><ele>252.0</ele><time>2026-05-03T10:54:25.19Z</time></trkpt><trkpt lat="44.7604716" lon="10.0028337"><ele>252.66666666666669</ele><time>2026-05-03T10:54:26.191Z</time></trkpt><trkpt lat="44.7603989" lon="10.002579"><ele>253.33333333333334</ele><time>2026-05-03T10:54:27.192Z</time></trkpt><trkpt lat="44.7602736" lon="10.0023205"><ele>254.0</ele><time>2026-05-03T10:54:28.193Z</time></trkpt><trkpt lat="44.7601905" lon="10.0020957"><ele>251.75</ele><time>2026-05-03T10:54:29.186Z</time></trkpt><trkpt lat="44.7602014" lon="10.0019003"><ele>249.5</ele><time>2026-05-03T10:54:30.181Z</time></trkpt><trkpt lat="44.7602398" lon="10.001672"><ele>247.25</ele><time>2026-05-03T10:54:31.19Z</time></trkpt><trkpt lat="44.7602834" lon="10.0014877"><ele>245.0</ele><time>2026-05-03T10:54:32.191Z</time></trkpt><trkpt lat="44.7603437" lon="10.0012357"><ele>245.0</ele><time>2026-05-03T10:54:33.193Z</time></trkpt><trkpt lat="44.7603706" lon="10.0009535"><ele>245.0</ele><time>2026-05-03T10:54:34.191Z</time></trkpt><trkpt lat="44.7603339" lon="10.0006902"><ele>245.0</ele><time>2026-05-03T10:54:35.184Z</time></trkpt><trkpt lat="44.7603099" lon="10.0004339"><ele>242.0</ele><time>2026-05-03T10:54:36.185Z</time></trkpt><trkpt lat="44.7603207" lon="10.0001544"><ele>239.0</ele><time>2026-05-03T10:54:37.183Z</time></trkpt><trkpt lat="44.7603393" lon="9.9999169"><ele>236.0</ele><time>2026-05-03T10:54:38.185Z</time></trkpt><trkpt lat="44.7603503" lon="9.9996623"><ele>236.0</ele><time>2026-05-03T10:54:39.188Z</time></trkpt><trkpt lat="44.7603877" lon="9.9993834"><ele>236.0</ele><time>2026-05-03T10:54:40.188Z</time></trkpt><trkpt lat="44.7604016" lon="9.9991325"><ele>236.0</ele><time>2026-05-03T10:54:41.188Z</time></trkpt><trkpt lat="44.7604161" lon="9.9988913"><ele>235.5</ele><time>2026-05-03T10:54:42.187Z</time></trkpt><trkpt lat="44.7604349" lon="9.99867"><ele>235.0</ele><time>2026-05-03T10:54:43.191Z</time></trkpt><trkpt lat="44.760435" lon="9.9984966"><ele>234.5</ele><time>2026-05-03T10:54:44.192Z</time></trkpt><trkpt lat="44.7604311" lon="9.9983519"><ele>234.0</ele><time>2026-05-03T10:54:45.189Z</time></trkpt><trkpt lat="44.7604111" lon="9.9982178"><ele>233.25</ele><time>2026-05-03T10:54:46.188Z</time></trkpt><trkpt lat="44.7603483" lon="9.9980858"><ele>232.5</ele><time>2026-05-03T10:54:47.185Z</time></trkpt><trkpt lat="44.7602516" lon="9.9979848"><ele>231.75</ele><time>2026-05-03T10:54:48.187Z</time></trkpt><trkpt lat="44.7601707" lon="9.9978139"><ele>231.0</ele><time>2026-05-03T10:54:49.18Z</time></trkpt><trkpt lat="44.7600448" lon="9.9976924"><ele>232.33333333333331</ele><time>2026-05-03T10:54:50.19Z</time></trkpt><trkpt lat="44.7599438" lon="9.9975355"><ele>233.66666666666666</ele><time>2026-05-03T10:54:51.192Z</time></trkpt><trkpt lat="44.7598828" lon="9.9973421"><ele>235.0</ele><time>2026-05-03T10:54:52.19Z</time></trkpt><trkpt lat="44.7597856" lon="9.9971315"><ele>235.0</ele><time>2026-05-03T10:54:53.188Z</time></trkpt><trkpt lat="44.7597193" lon="9.9969292"><ele>235.0</ele><time>2026-05-03T10:54:54.19Z</time></trkpt><trkpt lat="44.7596401" lon="9.9967071"><ele>235.0</ele><time>2026-05-03T10:54:55.186Z</time></trkpt><trkpt lat="44.7596048" lon="9.9964937"><ele>234.25</ele><time>2026-05-03T10:54:56.185Z</time></trkpt><trkpt lat="44.759613" lon="9.9963214"><ele>233.5</ele><time>2026-05-03T10:54:57.186Z</time></trkpt><trkpt lat="44.7596274" lon="9.9961052"><ele>232.75</ele><time>2026-05-03T10:54:58.183Z</time></trkpt><trkpt lat="44.7596322" lon="9.9958796"><ele>232.0</ele><time>2026-05-03T10:54:59.186Z</time></trkpt><trkpt lat="44.7596809" lon="9.9955908"><ele>232.0</ele><time>2026-05-03T10:55:00.196Z</time></trkpt><trkpt lat="44.7597323" lon="9.9952962"><ele>232.0</ele><time>2026-05-03T10:55:01.192Z</time></trkpt><trkpt lat="44.7597612" lon="9.9950363"><ele>232.0</ele><time>2026-05-03T10:55:02.187Z</time></trkpt><trkpt lat="44.7597988" lon="9.9948026"><ele>233.33333333333331</ele><time>2026-05-03T10:55:03.187Z</time></trkpt><trkpt lat="44.7598186" lon="9.9945674"><ele>234.66666666666669</ele><time>2026-05-03T10:55:04.188Z</time></trkpt><trkpt lat="44.7597669" lon="9.9943356"><ele>236.0</ele><time>2026-05-03T10:55:05.191Z</time></trkpt><trkpt lat="44.7597302" lon="9.9940852"><ele>236.75</ele><time>2026-05-03T10:55:06.188Z</time></trkpt><trkpt lat="44.7596892" lon="9.9938294"><ele>237.5</ele><time>2026-05-03T10:55:07.187Z</time></trkpt><trkpt lat="44.7596426" lon="9.9936327"><ele>238.25</ele><time>2026-05-03T10:55:08.185Z</time></trkpt><trkpt lat="44.7596112" lon="9.9934764"><ele>239.0</ele><time>2026-05-03T10:55:09.186Z</time></trkpt><trkpt lat="44.7595399" lon="9.993353"><ele>238.33333333333334</ele><time>2026-05-03T10:55:10.186Z</time></trkpt><trkpt lat="44.7594438" lon="9.9932578"><ele>237.66666666666669</ele><time>2026-05-03T10:55:11.18Z</time></trkpt><trkpt lat="44.7592816" lon="9.9932029"><ele>237.0</ele><time>2026-05-03T10:55:12.187Z</time></trkpt><trkpt lat="44.7590949" lon="9.9931511"><ele>237.0</ele><time>2026-05-03T10:55:13.182Z</time></trkpt><trkpt lat="44.7589239" lon="9.9930608"><ele>237.0</ele><time>2026-05-03T10:55:14.184Z</time></trkpt><trkpt lat="44.7587549" lon="9.9930541"><ele>237.0</ele><time>2026-05-03T10:55:15.184Z</time></trkpt><trkpt lat="44.7586146" lon="9.993016"><ele>236.25</ele><time>2026-05-03T10:55:16.185Z</time></trkpt><trkpt lat="44.7584663" lon="9.9929509"><ele>235.5</ele><time>2026-05-03T10:55:17.182Z</time></trkpt><trkpt lat="44.7583653" lon="9.9928594"><ele>234.75</ele><time>2026-05-03T10:55:18.183Z</time></trkpt><trkpt lat="44.7582745" lon="9.9927101"><ele>234.0</ele><time>2026-05-03T10:55:19.184Z</time></trkpt><trkpt lat="44.758196" lon="9.9925392"><ele>236.0</ele><time>2026-05-03T10:55:20.184Z</time></trkpt><trkpt lat="44.758139" lon="9.9923595"><ele>238.0</ele><time>2026-05-03T10:55:21.185Z</time></trkpt><trkpt lat="44.7580995" lon="9.9922189"><ele>240.0</ele><time>2026-05-03T10:55:22.186Z</time></trkpt><trkpt lat="44.758087" lon="9.9920541"><ele>242.0</ele><time>2026-05-03T10:55:23.185Z</time></trkpt><trkpt lat="44.7580785" lon="9.9918373"><ele>244.0</ele><time>2026-05-03T10:55:24.189Z</time></trkpt><trkpt lat="44.7580422" lon="9.9916579"><ele>246.0</ele><time>2026-05-03T10:55:25.185Z</time></trkpt><trkpt lat="44.7579814" lon="9.9915134"><ele>248.0</ele><time>2026-05-03T10:55:26.182Z</time></trkpt><trkpt lat="44.7579128" lon="9.9914126"><ele>250.0</ele><time>2026-05-03T10:55:27.185Z</time></trkpt><trkpt lat="44.7578142" lon="9.991358"><ele>250.0</ele><time>2026-05-03T10:55:28.181Z</time></trkpt><trkpt lat="44.7577054" lon="9.9912709"><ele>250.0</ele><time>2026-05-03T10:55:29.181Z</time></trkpt><trkpt lat="44.7576166" lon="9.9911584"><ele>250.0</ele><time>2026-05-03T10:55:30.207Z</time></trkpt><trkpt lat="44.7575174" lon="9.9910405"><ele>250.0</ele><time>2026-05-03T10:55:31.188Z</time></trkpt><trkpt lat="44.7574329" lon="9.9908991"><ele>250.33333333333331</ele><time>2026-05-03T10:55:32.187Z</time></trkpt><trkpt lat="44.7573651" lon="9.9906951"><ele>250.66666666666669</ele><time>2026-05-03T10:55:33.181Z</time></trkpt><trkpt lat="44.7573126" lon="9.9904028"><ele>251.0</ele><time>2026-05-03T10:55:34.186Z</time></trkpt><trkpt lat="44.7572597" lon="9.9901102"><ele>253.66666666666669</ele><time>2026-05-03T10:55:35.188Z</time></trkpt><trkpt lat="44.7571806" lon="9.9898902"><ele>256.3333333333333</ele><time>2026-05-03T10:55:36.184Z</time></trkpt><trkpt lat="44.7571322" lon="9.9897259"><ele>259.0</ele><time>2026-05-03T10:55:37.185Z</time></trkpt><trkpt lat="44.7570828" lon="9.9895037"><ele>259.0</ele><time>2026-05-03T10:55:38.181Z</time></trkpt><trkpt lat="44.7570745" lon="9.9893016"><ele>259.0</ele><time>2026-05-03T10:55:39.184Z</time></trkpt><trkpt lat="44.7570671" lon="9.9890952"><ele>259.0</ele><time>2026-05-03T10:55:40.184Z</time></trkpt><trkpt lat="44.7570455" lon="9.988885"><ele>259.0</ele><time>2026-05-03T10:55:41.185Z</time></trkpt><trkpt lat="44.7569989" lon="9.98873"><ele>260.25</ele><time>2026-05-03T10:55:42.185Z</time></trkpt><trkpt lat="44.756916" lon="9.988611"><ele>261.5</ele><time>2026-05-03T10:55:43.183Z</time></trkpt><trkpt lat="44.7567875" lon="9.9886052"><ele>262.75</ele><time>2026-05-03T10:55:44.184Z</time></trkpt><trkpt lat="44.7566166" lon="9.9885745"><ele>264.0</ele><time>2026-05-03T10:55:45.186Z</time></trkpt><trkpt lat="44.7564392" lon="9.9884791"><ele>263.3333333333333</ele><time>2026-05-03T10:55:46.186Z</time></trkpt><trkpt lat="44.7562742" lon="9.9883568"><ele>262.66666666666663</ele><time>2026-05-03T10:55:47.187Z</time></trkpt><trkpt lat="44.7561482" lon="9.9882137"><ele>262.0</ele><time>2026-05-03T10:55:48.184Z</time></trkpt><trkpt lat="44.7560001" lon="9.9881194"><ele>261.0</ele><time>2026-05-03T10:55:49.186Z</time></trkpt><trkpt lat="44.755869" lon="9.9880591"><ele>260.0</ele><time>2026-05-03T10:55:50.181Z</time></trkpt><trkpt lat="44.755756" lon="9.988012"><ele>259.0</ele><time>2026-05-03T10:55:51.177Z</time></trkpt><trkpt lat="44.7556489" lon="9.9879499"><ele>258.0</ele><time>2026-05-03T10:55:52.182Z</time></trkpt><trkpt lat="44.7555502" lon="9.9878652"><ele>258.0</ele><time>2026-05-03T10:55:53.181Z</time></trkpt><trkpt lat="44.7554935" lon="9.9877978"><ele>258.0</ele><time>2026-05-03T10:55:54.181Z</time></trkpt><trkpt lat="44.75563" lon="9.9876513"><ele>258.0</ele><time>2026-05-03T10:55:56.183Z</time></trkpt><trkpt lat="44.7557216" lon="9.9875797"><ele>258.0</ele><time>2026-05-03T10:55:57.177Z</time></trkpt><trkpt lat="44.7558267" lon="9.9875645"><ele>258.0</ele><time>2026-05-03T10:55:58.182Z</time></trkpt><trkpt lat="44.7559519" lon="9.9875605"><ele>258.0</ele><time>2026-05-03T10:55:59.178Z</time></trkpt><trkpt lat="44.7561134" lon="9.9876103"><ele>258.0</ele><time>2026-05-03T10:56:00.184Z</time></trkpt><trkpt lat="44.7563038" lon="9.9876409"><ele>259.3333333333333</ele><time>2026-05-03T10:56:01.186Z</time></trkpt><trkpt lat="44.7564934" lon="9.9876568"><ele>260.66666666666663</ele><time>2026-05-03T10:56:02.185Z</time></trkpt><trkpt lat="44.7566697" lon="9.9875531"><ele>262.0</ele><time>2026-05-03T10:56:03.185Z</time></trkpt><trkpt lat="44.7568492" lon="9.9874149"><ele>266.66666666666663</ele><time>2026-05-03T10:56:04.193Z</time></trkpt><trkpt lat="44.7569873" lon="9.9872466"><ele>271.3333333333333</ele><time>2026-05-03T10:56:05.188Z</time></trkpt><trkpt lat="44.7571467" lon="9.9870696"><ele>276.0</ele><time>2026-05-03T10:56:06.194Z</time></trkpt><trkpt lat="44.7572768" lon="9.9869448"><ele>276.0</ele><time>2026-05-03T10:56:07.192Z</time></trkpt><trkpt lat="44.7574324" lon="9.9868783"><ele>276.0</ele><time>2026-05-03T10:56:08.186Z</time></trkpt><trkpt lat="44.7575722" lon="9.9869168"><ele>276.0</ele><time>2026-05-03T10:56:09.181Z</time></trkpt><trkpt lat="44.7577263" lon="9.9870205"><ele>281.6666666666667</ele><time>2026-05-03T10:56:10.182Z</time></trkpt><trkpt lat="44.757899" lon="9.9870814"><ele>287.33333333333337</ele><time>2026-05-03T10:56:11.187Z</time></trkpt><trkpt lat="44.7580455" lon="9.9871016"><ele>293.0</ele><time>2026-05-03T10:56:12.187Z</time></trkpt><trkpt lat="44.7581646" lon="9.9871539"><ele>293.0</ele><time>2026-05-03T10:56:13.188Z</time></trkpt><trkpt lat="44.7582445" lon="9.987266"><ele>293.0</ele><time>2026-05-03T10:56:14.188Z</time></trkpt><trkpt lat="44.7582825" lon="9.987419"><ele>293.0</ele><time>2026-05-03T10:56:15.189Z</time></trkpt><trkpt lat="44.7583543" lon="9.987597"><ele>293.0</ele><time>2026-05-03T10:56:16.19Z</time></trkpt><trkpt lat="44.758396" lon="9.9878104"><ele>291.6666666666667</ele><time>2026-05-03T10:56:17.186Z</time></trkpt><trkpt lat="44.7584335" lon="9.9880675"><ele>290.3333333333333</ele><time>2026-05-03T10:56:18.186Z</time></trkpt><trkpt lat="44.7585239" lon="9.9882922"><ele>289.0</ele><time>2026-05-03T10:56:19.187Z</time></trkpt><trkpt lat="44.7586436" lon="9.9885049"><ele>289.0</ele><time>2026-05-03T10:56:20.191Z</time></trkpt><trkpt lat="44.7587645" lon="9.9886856"><ele>289.0</ele><time>2026-05-03T10:56:21.195Z</time></trkpt><trkpt lat="44.7588659" lon="9.988898"><ele>289.0</ele><time>2026-05-03T10:56:22.19Z</time></trkpt><trkpt lat="44.7589267" lon="9.989006"><ele>289.0</ele><time>2026-05-03T10:56:23.189Z</time></trkpt><trkpt lat="44.758991" lon="9.9890906"><ele>289.0</ele><time>2026-05-03T10:56:24.199Z</time></trkpt><trkpt lat="44.7590574" lon="9.9891642"><ele>289.0</ele><time>2026-05-03T10:56:25.192Z</time></trkpt><trkpt lat="44.7591957" lon="9.9890747"><ele>289.0</ele><time>2026-05-03T10:56:27.189Z</time></trkpt><trkpt lat="44.7592715" lon="9.9888681"><ele>289.0</ele><time>2026-05-03T10:56:28.187Z</time></trkpt><trkpt lat="44.759299" lon="9.9886912"><ele>289.0</ele><time>2026-05-03T10:56:29.195Z</time></trkpt><trkpt lat="44.7593199" lon="9.9884871"><ele>289.0</ele><time>2026-05-03T10:56:30.19Z</time></trkpt><trkpt lat="44.7593649" lon="9.9882663"><ele>289.0</ele><time>2026-05-03T10:56:31.185Z</time></trkpt><trkpt lat="44.7594213" lon="9.9880132"><ele>288.25</ele><time>2026-05-03T10:56:32.185Z</time></trkpt><trkpt lat="44.7595436" lon="9.9878586"><ele>287.5</ele><time>2026-05-03T10:56:33.188Z</time></trkpt><trkpt lat="44.7596429" lon="9.9877384"><ele>286.75</ele><time>2026-05-03T10:56:34.191Z</time></trkpt><trkpt lat="44.7597065" lon="9.9875847"><ele>286.0</ele><time>2026-05-03T10:56:35.188Z</time></trkpt><trkpt lat="44.759728" lon="9.9874241"><ele>288.0</ele><time>2026-05-03T10:56:36.187Z</time></trkpt><trkpt lat="44.7597038" lon="9.9872676"><ele>290.0</ele><time>2026-05-03T10:56:37.188Z</time></trkpt><trkpt lat="44.7596661" lon="9.9871004"><ele>292.0</ele><time>2026-05-03T10:56:38.187Z</time></trkpt><trkpt lat="44.7596569" lon="9.9869078"><ele>294.0</ele><time>2026-05-03T10:56:39.184Z</time></trkpt><trkpt lat="44.7597008" lon="9.9866812"><ele>295.6666666666667</ele><time>2026-05-03T10:56:40.186Z</time></trkpt><trkpt lat="44.7597599" lon="9.9864502"><ele>297.33333333333337</ele><time>2026-05-03T10:56:41.192Z</time></trkpt><trkpt lat="44.7598258" lon="9.9862241"><ele>299.0</ele><time>2026-05-03T10:56:42.187Z</time></trkpt><trkpt lat="44.759878" lon="9.9859937"><ele>300.0</ele><time>2026-05-03T10:56:43.184Z</time></trkpt><trkpt lat="44.7599221" lon="9.9857631"><ele>301.0</ele><time>2026-05-03T10:56:44.184Z</time></trkpt><trkpt lat="44.7599331" lon="9.9855253"><ele>302.0</ele><time>2026-05-03T10:56:45.183Z</time></trkpt><trkpt lat="44.7599139" lon="9.9853063"><ele>302.0</ele><time>2026-05-03T10:56:46.184Z</time></trkpt><trkpt lat="44.7598827" lon="9.9851087"><ele>302.0</ele><time>2026-05-03T10:56:47.186Z</time></trkpt><trkpt lat="44.7598263" lon="9.984944"><ele>302.0</ele><time>2026-05-03T10:56:48.185Z</time></trkpt><trkpt lat="44.7597425" lon="9.9847686"><ele>302.0</ele><time>2026-05-03T10:56:49.184Z</time></trkpt><trkpt lat="44.7597097" lon="9.9846355"><ele>302.6666666666667</ele><time>2026-05-03T10:56:50.186Z</time></trkpt><trkpt lat="44.7597061" lon="9.9844919"><ele>303.3333333333333</ele><time>2026-05-03T10:56:51.188Z</time></trkpt><trkpt lat="44.7598359" lon="9.9843348"><ele>304.0</ele><time>2026-05-03T10:56:52.188Z</time></trkpt><trkpt lat="44.7600017" lon="9.9841626"><ele>305.66666666666663</ele><time>2026-05-03T10:56:53.182Z</time></trkpt><trkpt lat="44.760162" lon="9.9840299"><ele>307.3333333333333</ele><time>2026-05-03T10:56:54.184Z</time></trkpt><trkpt lat="44.7602769" lon="9.983818"><ele>309.0</ele><time>2026-05-03T10:56:55.187Z</time></trkpt><trkpt lat="44.7603974" lon="9.9836508"><ele>309.75</ele><time>2026-05-03T10:56:56.188Z</time></trkpt><trkpt lat="44.7605295" lon="9.9835176"><ele>310.5</ele><time>2026-05-03T10:56:57.185Z</time></trkpt><trkpt lat="44.7606682" lon="9.9834348"><ele>311.25</ele><time>2026-05-03T10:56:58.183Z</time></trkpt><trkpt lat="44.7607805" lon="9.9834607"><ele>312.0</ele><time>2026-05-03T10:56:59.181Z</time></trkpt><trkpt lat="44.7609151" lon="9.9835893"><ele>314.3333333333333</ele><time>2026-05-03T10:57:00.185Z</time></trkpt><trkpt lat="44.7610627" lon="9.9837351"><ele>316.66666666666663</ele><time>2026-05-03T10:57:01.183Z</time></trkpt><trkpt lat="44.7612042" lon="9.9839344"><ele>319.0</ele><time>2026-05-03T10:57:02.183Z</time></trkpt><trkpt lat="44.7613354" lon="9.9841416"><ele>317.5</ele><time>2026-05-03T10:57:03.18Z</time></trkpt><trkpt lat="44.761472" lon="9.9842935"><ele>316.0</ele><time>2026-05-03T10:57:04.19Z</time></trkpt><trkpt lat="44.7615685" lon="9.9844286"><ele>314.5</ele><time>2026-05-03T10:57:05.19Z</time></trkpt><trkpt lat="44.7616728" lon="9.984515"><ele>313.0</ele><time>2026-05-03T10:57:06.188Z</time></trkpt><trkpt lat="44.7617841" lon="9.9845219"><ele>312.25</ele><time>2026-05-03T10:57:07.186Z</time></trkpt><trkpt lat="44.7618956" lon="9.9844799"><ele>311.5</ele><time>2026-05-03T10:57:08.191Z</time></trkpt><trkpt lat="44.7620023" lon="9.9843648"><ele>310.75</ele><time>2026-05-03T10:57:09.187Z</time></trkpt><trkpt lat="44.7620696" lon="9.9842002"><ele>310.0</ele><time>2026-05-03T10:57:10.183Z</time></trkpt><trkpt lat="44.7620947" lon="9.9839865"><ele>312.75</ele><time>2026-05-03T10:57:11.191Z</time></trkpt><trkpt lat="44.7621506" lon="9.9838103"><ele>315.5</ele><time>2026-05-03T10:57:12.185Z</time></trkpt><trkpt lat="44.7622428" lon="9.9836896"><ele>318.25</ele><time>2026-05-03T10:57:13.185Z</time></trkpt><trkpt lat="44.762353" lon="9.9836374"><ele>321.0</ele><time>2026-05-03T10:57:14.185Z</time></trkpt><trkpt lat="44.7624886" lon="9.9836592"><ele>321.0</ele><time>2026-05-03T10:57:15.187Z</time></trkpt><trkpt lat="44.7626262" lon="9.9836965"><ele>321.0</ele><time>2026-05-03T10:57:16.18Z</time></trkpt><trkpt lat="44.7627305" lon="9.9838104"><ele>321.0</ele><time>2026-05-03T10:57:17.178Z</time></trkpt><trkpt lat="44.7628462" lon="9.98396"><ele>321.0</ele><time>2026-05-03T10:57:18.176Z</time></trkpt><trkpt lat="44.7629503" lon="9.9841112"><ele>320.6666666666667</ele><time>2026-05-03T10:57:19.182Z</time></trkpt><trkpt lat="44.7630467" lon="9.984239"><ele>320.33333333333337</ele><time>2026-05-03T10:57:20.179Z</time></trkpt><trkpt lat="44.7631755" lon="9.9843595"><ele>320.0</ele><time>2026-05-03T10:57:21.18Z</time></trkpt><trkpt lat="44.7633186" lon="9.9844885"><ele>320.0</ele><time>2026-05-03T10:57:22.183Z</time></trkpt><trkpt lat="44.7634758" lon="9.9845803"><ele>320.0</ele><time>2026-05-03T10:57:23.184Z</time></trkpt><trkpt lat="44.7636449" lon="9.9847567"><ele>320.0</ele><time>2026-05-03T10:57:24.189Z</time></trkpt><trkpt lat="44.7638004" lon="9.984959"><ele>325.0</ele><time>2026-05-03T10:57:25.189Z</time></trkpt><trkpt lat="44.7639154" lon="9.9850662"><ele>330.0</ele><time>2026-05-03T10:57:26.187Z</time></trkpt><trkpt lat="44.7640417" lon="9.9852038"><ele>335.0</ele><time>2026-05-03T10:57:27.189Z</time></trkpt><trkpt lat="44.7641526" lon="9.9853924"><ele>335.0</ele><time>2026-05-03T10:57:28.194Z</time></trkpt><trkpt lat="44.7641908" lon="9.9855742"><ele>335.0</ele><time>2026-05-03T10:57:29.188Z</time></trkpt><trkpt lat="44.7642457" lon="9.9857738"><ele>335.0</ele><time>2026-05-03T10:57:30.185Z</time></trkpt><trkpt lat="44.7642723" lon="9.9860114"><ele>335.6666666666667</ele><time>2026-05-03T10:57:31.188Z</time></trkpt><trkpt lat="44.7643288" lon="9.9862084"><ele>336.3333333333333</ele><time>2026-05-03T10:57:32.183Z</time></trkpt><trkpt lat="44.7643808" lon="9.9864747"><ele>337.0</ele><time>2026-05-03T10:57:33.188Z</time></trkpt><trkpt lat="44.7642533" lon="9.9867128"><ele>338.3333333333333</ele><time>2026-05-03T10:57:34.188Z</time></trkpt><trkpt lat="44.7641082" lon="9.9869395"><ele>339.6666666666667</ele><time>2026-05-03T10:57:35.185Z</time></trkpt><trkpt lat="44.7640052" lon="9.987152"><ele>341.0</ele><time>2026-05-03T10:57:36.188Z</time></trkpt><trkpt lat="44.7639162" lon="9.9873574"><ele>338.5</ele><time>2026-05-03T10:57:37.183Z</time></trkpt><trkpt lat="44.7638409" lon="9.9875447"><ele>336.0</ele><time>2026-05-03T10:57:38.192Z</time></trkpt><trkpt lat="44.7637657" lon="9.987708"><ele>333.5</ele><time>2026-05-03T10:57:39.186Z</time></trkpt><trkpt lat="44.7637488" lon="9.9878408"><ele>331.0</ele><time>2026-05-03T10:57:40.189Z</time></trkpt><trkpt lat="44.7637576" lon="9.9879496"><ele>331.0</ele><time>2026-05-03T10:57:41.186Z</time></trkpt><trkpt lat="44.7638491" lon="9.9880088"><ele>331.0</ele><time>2026-05-03T10:57:42.192Z</time></trkpt><trkpt lat="44.763965" lon="9.9880261"><ele>331.0</ele><time>2026-05-03T10:57:43.191Z</time></trkpt><trkpt lat="44.7640948" lon="9.9879939"><ele>331.0</ele><time>2026-05-03T10:57:44.19Z</time></trkpt><trkpt lat="44.7642151" lon="9.9879348"><ele>331.0</ele><time>2026-05-03T10:57:45.198Z</time></trkpt><trkpt lat="44.7643546" lon="9.9879017"><ele>331.0</ele><time>2026-05-03T10:57:46.19Z</time></trkpt><trkpt lat="44.7645162" lon="9.9878943"><ele>331.0</ele><time>2026-05-03T10:57:47.187Z</time></trkpt><trkpt lat="44.7646754" lon="9.987952"><ele>340.0</ele><time>2026-05-03T10:57:48.184Z</time></trkpt><trkpt lat="44.7648143" lon="9.9879817"><ele>340.0</ele><time>2026-05-03T10:57:49.184Z</time></trkpt></trkseg></trk></gpx>